<?xml version="1.0" encoding="UTF-8" standalone="no" ?>
<gpx xmlns="http://www.topografix.com/GPX/1/1" xmlns:xsi="http://www.w3.org/2001/XMLSchema-instance" xsi:schemaLocation="http://www.topografix.com/GPX/1/1 http://www.topografix.com/GPX/1/1/gpx.xsd" version="1.1" creator="VisuGPX - https://www.visugpx.com">
  <metadata>
    <name>ST DENIS le 04.08.2019 - ACFC</name>
    <desc><![CDATA[Très belle sortie à ST DENIS le long de l'Alzeau avec un magnifique sous bois. Peut se faire également en randonnée]]></desc>
  </metadata>
  <trk>
    <name><![CDATA[TrailRunning]]></name>
    <trkseg>
      <trkpt lat="43.36042" lon="2.21885">
        <ele>531.2</ele>
        <time>2019-08-04T06:01:19.000Z</time>
      </trkpt>
      <trkpt lat="43.36042" lon="2.21884">
        <ele>531.2</ele>
        <time>2019-08-04T06:01:20.000Z</time>
      </trkpt>
      <trkpt lat="43.36041" lon="2.21883">
        <ele>531.2</ele>
        <time>2019-08-04T06:01:21.000Z</time>
      </trkpt>
      <trkpt lat="43.36041" lon="2.21882">
        <ele>531.2</ele>
        <time>2019-08-04T06:01:22.000Z</time>
      </trkpt>
      <trkpt lat="43.36041" lon="2.21881">
        <ele>531.1</ele>
        <time>2019-08-04T06:01:23.000Z</time>
      </trkpt>
      <trkpt lat="43.36041" lon="2.2188">
        <ele>531.1</ele>
        <time>2019-08-04T06:01:24.000Z</time>
      </trkpt>
      <trkpt lat="43.36041" lon="2.21879">
        <ele>531</ele>
        <time>2019-08-04T06:01:25.000Z</time>
      </trkpt>
      <trkpt lat="43.36041" lon="2.21878">
        <ele>531</ele>
        <time>2019-08-04T06:01:26.000Z</time>
      </trkpt>
      <trkpt lat="43.3604" lon="2.21877">
        <ele>530.9</ele>
        <time>2019-08-04T06:01:27.000Z</time>
      </trkpt>
      <trkpt lat="43.3604" lon="2.21875">
        <ele>530.9</ele>
        <time>2019-08-04T06:01:28.000Z</time>
      </trkpt>
      <trkpt lat="43.3604" lon="2.21874">
        <ele>530.8</ele>
        <time>2019-08-04T06:01:29.000Z</time>
      </trkpt>
      <trkpt lat="43.36039" lon="2.21873">
        <ele>530.7</ele>
        <time>2019-08-04T06:01:30.000Z</time>
      </trkpt>
      <trkpt lat="43.36038" lon="2.21871">
        <ele>530.7</ele>
        <time>2019-08-04T06:01:31.000Z</time>
      </trkpt>
      <trkpt lat="43.36038" lon="2.2187">
        <ele>530.6</ele>
        <time>2019-08-04T06:01:32.000Z</time>
      </trkpt>
      <trkpt lat="43.36037" lon="2.21868">
        <ele>530.5</ele>
        <time>2019-08-04T06:01:33.000Z</time>
      </trkpt>
      <trkpt lat="43.36036" lon="2.21866">
        <ele>530.4</ele>
        <time>2019-08-04T06:01:34.000Z</time>
      </trkpt>
      <trkpt lat="43.36035" lon="2.21865">
        <ele>530.3</ele>
        <time>2019-08-04T06:01:35.000Z</time>
      </trkpt>
      <trkpt lat="43.36034" lon="2.21863">
        <ele>530.2</ele>
        <time>2019-08-04T06:01:36.000Z</time>
      </trkpt>
      <trkpt lat="43.36033" lon="2.21861">
        <ele>530.1</ele>
        <time>2019-08-04T06:01:37.000Z</time>
      </trkpt>
      <trkpt lat="43.36033" lon="2.21859">
        <ele>530</ele>
        <time>2019-08-04T06:01:38.000Z</time>
      </trkpt>
      <trkpt lat="43.36033" lon="2.21857">
        <ele>529.9</ele>
        <time>2019-08-04T06:01:39.000Z</time>
      </trkpt>
      <trkpt lat="43.36033" lon="2.21854">
        <ele>529.9</ele>
        <time>2019-08-04T06:01:40.000Z</time>
      </trkpt>
      <trkpt lat="43.36034" lon="2.21851">
        <ele>529.9</ele>
        <time>2019-08-04T06:01:41.000Z</time>
      </trkpt>
      <trkpt lat="43.36035" lon="2.21848">
        <ele>529.9</ele>
        <time>2019-08-04T06:01:42.000Z</time>
      </trkpt>
      <trkpt lat="43.36036" lon="2.21845">
        <ele>529.9</ele>
        <time>2019-08-04T06:01:43.000Z</time>
      </trkpt>
      <trkpt lat="43.36037" lon="2.21842">
        <ele>529.8</ele>
        <time>2019-08-04T06:01:44.000Z</time>
      </trkpt>
      <trkpt lat="43.36038" lon="2.2184">
        <ele>529.9</ele>
        <time>2019-08-04T06:01:45.000Z</time>
      </trkpt>
      <trkpt lat="43.36038" lon="2.21837">
        <ele>529.8</ele>
        <time>2019-08-04T06:01:46.000Z</time>
      </trkpt>
      <trkpt lat="43.36039" lon="2.21834">
        <ele>529.8</ele>
        <time>2019-08-04T06:01:47.000Z</time>
      </trkpt>
      <trkpt lat="43.3604" lon="2.21831">
        <ele>529.9</ele>
        <time>2019-08-04T06:01:48.000Z</time>
      </trkpt>
      <trkpt lat="43.36041" lon="2.21828">
        <ele>529.8</ele>
        <time>2019-08-04T06:01:49.000Z</time>
      </trkpt>
      <trkpt lat="43.36042" lon="2.21826">
        <ele>529.8</ele>
        <time>2019-08-04T06:01:50.000Z</time>
      </trkpt>
      <trkpt lat="43.36043" lon="2.21823">
        <ele>529.8</ele>
        <time>2019-08-04T06:01:51.000Z</time>
      </trkpt>
      <trkpt lat="43.36044" lon="2.2182">
        <ele>529.8</ele>
        <time>2019-08-04T06:01:52.000Z</time>
      </trkpt>
      <trkpt lat="43.36045" lon="2.21818">
        <ele>529.8</ele>
        <time>2019-08-04T06:01:53.000Z</time>
      </trkpt>
      <trkpt lat="43.36046" lon="2.21815">
        <ele>529.8</ele>
        <time>2019-08-04T06:01:54.000Z</time>
      </trkpt>
      <trkpt lat="43.36046" lon="2.21812">
        <ele>529.8</ele>
        <time>2019-08-04T06:01:55.000Z</time>
      </trkpt>
      <trkpt lat="43.36047" lon="2.2181">
        <ele>529.8</ele>
        <time>2019-08-04T06:01:56.000Z</time>
      </trkpt>
      <trkpt lat="43.36048" lon="2.21807">
        <ele>529.8</ele>
        <time>2019-08-04T06:01:57.000Z</time>
      </trkpt>
      <trkpt lat="43.36049" lon="2.21804">
        <ele>529.8</ele>
        <time>2019-08-04T06:01:58.000Z</time>
      </trkpt>
      <trkpt lat="43.36049" lon="2.21802">
        <ele>529.8</ele>
        <time>2019-08-04T06:01:59.000Z</time>
      </trkpt>
      <trkpt lat="43.3605" lon="2.21799">
        <ele>529.8</ele>
        <time>2019-08-04T06:02:00.000Z</time>
      </trkpt>
      <trkpt lat="43.36051" lon="2.21796">
        <ele>529.8</ele>
        <time>2019-08-04T06:02:01.000Z</time>
      </trkpt>
      <trkpt lat="43.36052" lon="2.21794">
        <ele>529.8</ele>
        <time>2019-08-04T06:02:02.000Z</time>
      </trkpt>
      <trkpt lat="43.36052" lon="2.21791">
        <ele>529.7</ele>
        <time>2019-08-04T06:02:03.000Z</time>
      </trkpt>
      <trkpt lat="43.36053" lon="2.21788">
        <ele>529.7</ele>
        <time>2019-08-04T06:02:04.000Z</time>
      </trkpt>
      <trkpt lat="43.36054" lon="2.21786">
        <ele>529.7</ele>
        <time>2019-08-04T06:02:05.000Z</time>
      </trkpt>
      <trkpt lat="43.36055" lon="2.21783">
        <ele>529.7</ele>
        <time>2019-08-04T06:02:06.000Z</time>
      </trkpt>
      <trkpt lat="43.36055" lon="2.2178">
        <ele>529.7</ele>
        <time>2019-08-04T06:02:07.000Z</time>
      </trkpt>
      <trkpt lat="43.36056" lon="2.21778">
        <ele>529.7</ele>
        <time>2019-08-04T06:02:08.000Z</time>
      </trkpt>
      <trkpt lat="43.36057" lon="2.21775">
        <ele>529.7</ele>
        <time>2019-08-04T06:02:09.000Z</time>
      </trkpt>
      <trkpt lat="43.36057" lon="2.21773">
        <ele>529.7</ele>
        <time>2019-08-04T06:02:10.000Z</time>
      </trkpt>
      <trkpt lat="43.36058" lon="2.2177">
        <ele>529.7</ele>
        <time>2019-08-04T06:02:11.000Z</time>
      </trkpt>
      <trkpt lat="43.36059" lon="2.21767">
        <ele>529.7</ele>
        <time>2019-08-04T06:02:12.000Z</time>
      </trkpt>
      <trkpt lat="43.3606" lon="2.21765">
        <ele>529.6</ele>
        <time>2019-08-04T06:02:13.000Z</time>
      </trkpt>
      <trkpt lat="43.3606" lon="2.21762">
        <ele>529.6</ele>
        <time>2019-08-04T06:02:14.000Z</time>
      </trkpt>
      <trkpt lat="43.36061" lon="2.21759">
        <ele>529.6</ele>
        <time>2019-08-04T06:02:15.000Z</time>
      </trkpt>
      <trkpt lat="43.36062" lon="2.21757">
        <ele>529.6</ele>
        <time>2019-08-04T06:02:16.000Z</time>
      </trkpt>
      <trkpt lat="43.36063" lon="2.21754">
        <ele>529.6</ele>
        <time>2019-08-04T06:02:17.000Z</time>
      </trkpt>
      <trkpt lat="43.36064" lon="2.21752">
        <ele>529.6</ele>
        <time>2019-08-04T06:02:18.000Z</time>
      </trkpt>
      <trkpt lat="43.36065" lon="2.21749">
        <ele>529.7</ele>
        <time>2019-08-04T06:02:19.000Z</time>
      </trkpt>
      <trkpt lat="43.36066" lon="2.21747">
        <ele>529.8</ele>
        <time>2019-08-04T06:02:20.000Z</time>
      </trkpt>
      <trkpt lat="43.36068" lon="2.21744">
        <ele>529.8</ele>
        <time>2019-08-04T06:02:21.000Z</time>
      </trkpt>
      <trkpt lat="43.36069" lon="2.21742">
        <ele>529.9</ele>
        <time>2019-08-04T06:02:22.000Z</time>
      </trkpt>
      <trkpt lat="43.3607" lon="2.2174">
        <ele>530</ele>
        <time>2019-08-04T06:02:23.000Z</time>
      </trkpt>
      <trkpt lat="43.36072" lon="2.21737">
        <ele>530.1</ele>
        <time>2019-08-04T06:02:24.000Z</time>
      </trkpt>
      <trkpt lat="43.36073" lon="2.21735">
        <ele>530.2</ele>
        <time>2019-08-04T06:02:25.000Z</time>
      </trkpt>
      <trkpt lat="43.36074" lon="2.21732">
        <ele>530.3</ele>
        <time>2019-08-04T06:02:26.000Z</time>
      </trkpt>
      <trkpt lat="43.36075" lon="2.2173">
        <ele>530.4</ele>
        <time>2019-08-04T06:02:27.000Z</time>
      </trkpt>
      <trkpt lat="43.36076" lon="2.21727">
        <ele>530.4</ele>
        <time>2019-08-04T06:02:28.000Z</time>
      </trkpt>
      <trkpt lat="43.36077" lon="2.21724">
        <ele>530.5</ele>
        <time>2019-08-04T06:02:29.000Z</time>
      </trkpt>
      <trkpt lat="43.36078" lon="2.21721">
        <ele>530.5</ele>
        <time>2019-08-04T06:02:30.000Z</time>
      </trkpt>
      <trkpt lat="43.36078" lon="2.21718">
        <ele>530.6</ele>
        <time>2019-08-04T06:02:31.000Z</time>
      </trkpt>
      <trkpt lat="43.36079" lon="2.21715">
        <ele>530.6</ele>
        <time>2019-08-04T06:02:32.000Z</time>
      </trkpt>
      <trkpt lat="43.3608" lon="2.21712">
        <ele>530.7</ele>
        <time>2019-08-04T06:02:33.000Z</time>
      </trkpt>
      <trkpt lat="43.3608" lon="2.21709">
        <ele>530.7</ele>
        <time>2019-08-04T06:02:34.000Z</time>
      </trkpt>
      <trkpt lat="43.36081" lon="2.21706">
        <ele>530.8</ele>
        <time>2019-08-04T06:02:35.000Z</time>
      </trkpt>
      <trkpt lat="43.36082" lon="2.21703">
        <ele>530.8</ele>
        <time>2019-08-04T06:02:36.000Z</time>
      </trkpt>
      <trkpt lat="43.36082" lon="2.217">
        <ele>530.9</ele>
        <time>2019-08-04T06:02:37.000Z</time>
      </trkpt>
      <trkpt lat="43.36083" lon="2.21697">
        <ele>531</ele>
        <time>2019-08-04T06:02:38.000Z</time>
      </trkpt>
      <trkpt lat="43.36084" lon="2.21695">
        <ele>531</ele>
        <time>2019-08-04T06:02:39.000Z</time>
      </trkpt>
      <trkpt lat="43.36084" lon="2.21692">
        <ele>531.1</ele>
        <time>2019-08-04T06:02:40.000Z</time>
      </trkpt>
      <trkpt lat="43.36085" lon="2.21689">
        <ele>531.2</ele>
        <time>2019-08-04T06:02:41.000Z</time>
      </trkpt>
      <trkpt lat="43.36086" lon="2.21686">
        <ele>531.2</ele>
        <time>2019-08-04T06:02:42.000Z</time>
      </trkpt>
      <trkpt lat="43.36086" lon="2.21683">
        <ele>531.3</ele>
        <time>2019-08-04T06:02:43.000Z</time>
      </trkpt>
      <trkpt lat="43.36087" lon="2.2168">
        <ele>531.4</ele>
        <time>2019-08-04T06:02:44.000Z</time>
      </trkpt>
      <trkpt lat="43.36087" lon="2.21677">
        <ele>531.4</ele>
        <time>2019-08-04T06:02:45.000Z</time>
      </trkpt>
      <trkpt lat="43.36088" lon="2.21673">
        <ele>531.5</ele>
        <time>2019-08-04T06:02:46.000Z</time>
      </trkpt>
      <trkpt lat="43.36088" lon="2.2167">
        <ele>531.5</ele>
        <time>2019-08-04T06:02:47.000Z</time>
      </trkpt>
      <trkpt lat="43.36088" lon="2.21667">
        <ele>531.5</ele>
        <time>2019-08-04T06:02:48.000Z</time>
      </trkpt>
      <trkpt lat="43.36089" lon="2.21664">
        <ele>531.7</ele>
        <time>2019-08-04T06:02:49.000Z</time>
      </trkpt>
      <trkpt lat="43.36089" lon="2.21661">
        <ele>531.9</ele>
        <time>2019-08-04T06:02:50.000Z</time>
      </trkpt>
      <trkpt lat="43.3609" lon="2.21658">
        <ele>532</ele>
        <time>2019-08-04T06:02:51.000Z</time>
      </trkpt>
      <trkpt lat="43.3609" lon="2.21655">
        <ele>532.2</ele>
        <time>2019-08-04T06:02:52.000Z</time>
      </trkpt>
      <trkpt lat="43.36091" lon="2.21652">
        <ele>532.3</ele>
        <time>2019-08-04T06:02:53.000Z</time>
      </trkpt>
      <trkpt lat="43.36092" lon="2.21649">
        <ele>532.5</ele>
        <time>2019-08-04T06:02:54.000Z</time>
      </trkpt>
      <trkpt lat="43.36092" lon="2.21647">
        <ele>532.6</ele>
        <time>2019-08-04T06:02:55.000Z</time>
      </trkpt>
      <trkpt lat="43.36092" lon="2.21644">
        <ele>532.7</ele>
        <time>2019-08-04T06:02:56.000Z</time>
      </trkpt>
      <trkpt lat="43.36093" lon="2.21641">
        <ele>532.9</ele>
        <time>2019-08-04T06:02:57.000Z</time>
      </trkpt>
      <trkpt lat="43.36093" lon="2.21638">
        <ele>533</ele>
        <time>2019-08-04T06:02:58.000Z</time>
      </trkpt>
      <trkpt lat="43.36093" lon="2.21635">
        <ele>533.1</ele>
        <time>2019-08-04T06:02:59.000Z</time>
      </trkpt>
      <trkpt lat="43.36094" lon="2.21632">
        <ele>533.3</ele>
        <time>2019-08-04T06:03:00.000Z</time>
      </trkpt>
      <trkpt lat="43.36094" lon="2.21629">
        <ele>533.4</ele>
        <time>2019-08-04T06:03:01.000Z</time>
      </trkpt>
      <trkpt lat="43.36093" lon="2.21625">
        <ele>533.5</ele>
        <time>2019-08-04T06:03:02.000Z</time>
      </trkpt>
      <trkpt lat="43.36093" lon="2.21622">
        <ele>533.5</ele>
        <time>2019-08-04T06:03:03.000Z</time>
      </trkpt>
      <trkpt lat="43.36093" lon="2.21619">
        <ele>533.6</ele>
        <time>2019-08-04T06:03:04.000Z</time>
      </trkpt>
      <trkpt lat="43.36092" lon="2.21616">
        <ele>533.7</ele>
        <time>2019-08-04T06:03:05.000Z</time>
      </trkpt>
      <trkpt lat="43.36092" lon="2.21612">
        <ele>533.7</ele>
        <time>2019-08-04T06:03:06.000Z</time>
      </trkpt>
      <trkpt lat="43.36091" lon="2.21609">
        <ele>533.8</ele>
        <time>2019-08-04T06:03:07.000Z</time>
      </trkpt>
      <trkpt lat="43.3609" lon="2.21606">
        <ele>533.8</ele>
        <time>2019-08-04T06:03:08.000Z</time>
      </trkpt>
      <trkpt lat="43.3609" lon="2.21602">
        <ele>533.9</ele>
        <time>2019-08-04T06:03:09.000Z</time>
      </trkpt>
      <trkpt lat="43.36089" lon="2.21599">
        <ele>533.9</ele>
        <time>2019-08-04T06:03:10.000Z</time>
      </trkpt>
      <trkpt lat="43.36088" lon="2.21596">
        <ele>533.9</ele>
        <time>2019-08-04T06:03:11.000Z</time>
      </trkpt>
      <trkpt lat="43.36087" lon="2.21592">
        <ele>534</ele>
        <time>2019-08-04T06:03:12.000Z</time>
      </trkpt>
      <trkpt lat="43.36086" lon="2.21589">
        <ele>534</ele>
        <time>2019-08-04T06:03:13.000Z</time>
      </trkpt>
      <trkpt lat="43.36085" lon="2.21586">
        <ele>534</ele>
        <time>2019-08-04T06:03:14.000Z</time>
      </trkpt>
      <trkpt lat="43.36083" lon="2.21582">
        <ele>534</ele>
        <time>2019-08-04T06:03:15.000Z</time>
      </trkpt>
      <trkpt lat="43.36082" lon="2.21579">
        <ele>533.8</ele>
        <time>2019-08-04T06:03:16.000Z</time>
      </trkpt>
      <trkpt lat="43.36081" lon="2.21576">
        <ele>533.7</ele>
        <time>2019-08-04T06:03:17.000Z</time>
      </trkpt>
      <trkpt lat="43.36081" lon="2.21573">
        <ele>533.5</ele>
        <time>2019-08-04T06:03:18.000Z</time>
      </trkpt>
      <trkpt lat="43.3608" lon="2.2157">
        <ele>533.4</ele>
        <time>2019-08-04T06:03:19.000Z</time>
      </trkpt>
      <trkpt lat="43.36079" lon="2.21567">
        <ele>533.3</ele>
        <time>2019-08-04T06:03:20.000Z</time>
      </trkpt>
      <trkpt lat="43.36078" lon="2.21564">
        <ele>533.2</ele>
        <time>2019-08-04T06:03:21.000Z</time>
      </trkpt>
      <trkpt lat="43.36077" lon="2.21561">
        <ele>533</ele>
        <time>2019-08-04T06:03:22.000Z</time>
      </trkpt>
      <trkpt lat="43.36077" lon="2.21558">
        <ele>532.9</ele>
        <time>2019-08-04T06:03:23.000Z</time>
      </trkpt>
      <trkpt lat="43.36076" lon="2.21555">
        <ele>532.8</ele>
        <time>2019-08-04T06:03:24.000Z</time>
      </trkpt>
      <trkpt lat="43.36075" lon="2.21552">
        <ele>532.7</ele>
        <time>2019-08-04T06:03:25.000Z</time>
      </trkpt>
      <trkpt lat="43.36074" lon="2.21549">
        <ele>532.6</ele>
        <time>2019-08-04T06:03:26.000Z</time>
      </trkpt>
      <trkpt lat="43.36073" lon="2.21545">
        <ele>532.5</ele>
        <time>2019-08-04T06:03:27.000Z</time>
      </trkpt>
      <trkpt lat="43.36073" lon="2.21542">
        <ele>532.3</ele>
        <time>2019-08-04T06:03:28.000Z</time>
      </trkpt>
      <trkpt lat="43.36072" lon="2.21539">
        <ele>532.2</ele>
        <time>2019-08-04T06:03:29.000Z</time>
      </trkpt>
      <trkpt lat="43.36071" lon="2.21535">
        <ele>532.1</ele>
        <time>2019-08-04T06:03:30.000Z</time>
      </trkpt>
      <trkpt lat="43.3607" lon="2.21532">
        <ele>531.9</ele>
        <time>2019-08-04T06:03:31.000Z</time>
      </trkpt>
      <trkpt lat="43.36069" lon="2.21528">
        <ele>531.8</ele>
        <time>2019-08-04T06:03:32.000Z</time>
      </trkpt>
      <trkpt lat="43.36068" lon="2.21525">
        <ele>531.7</ele>
        <time>2019-08-04T06:03:33.000Z</time>
      </trkpt>
      <trkpt lat="43.36067" lon="2.21522">
        <ele>531.5</ele>
        <time>2019-08-04T06:03:34.000Z</time>
      </trkpt>
      <trkpt lat="43.36066" lon="2.21519">
        <ele>531.4</ele>
        <time>2019-08-04T06:03:35.000Z</time>
      </trkpt>
      <trkpt lat="43.36065" lon="2.21516">
        <ele>531.3</ele>
        <time>2019-08-04T06:03:36.000Z</time>
      </trkpt>
      <trkpt lat="43.36064" lon="2.21513">
        <ele>531.2</ele>
        <time>2019-08-04T06:03:37.000Z</time>
      </trkpt>
      <trkpt lat="43.36063" lon="2.2151">
        <ele>531.1</ele>
        <time>2019-08-04T06:03:38.000Z</time>
      </trkpt>
      <trkpt lat="43.36062" lon="2.21508">
        <ele>531</ele>
        <time>2019-08-04T06:03:39.000Z</time>
      </trkpt>
      <trkpt lat="43.36061" lon="2.21506">
        <ele>530.9</ele>
        <time>2019-08-04T06:03:40.000Z</time>
      </trkpt>
      <trkpt lat="43.36061" lon="2.21503">
        <ele>530.8</ele>
        <time>2019-08-04T06:03:41.000Z</time>
      </trkpt>
      <trkpt lat="43.3606" lon="2.215">
        <ele>530.7</ele>
        <time>2019-08-04T06:03:42.000Z</time>
      </trkpt>
      <trkpt lat="43.36059" lon="2.21497">
        <ele>530.6</ele>
        <time>2019-08-04T06:03:43.000Z</time>
      </trkpt>
      <trkpt lat="43.36058" lon="2.21494">
        <ele>530.6</ele>
        <time>2019-08-04T06:03:44.000Z</time>
      </trkpt>
      <trkpt lat="43.36057" lon="2.2149">
        <ele>530.5</ele>
        <time>2019-08-04T06:03:45.000Z</time>
      </trkpt>
      <trkpt lat="43.36056" lon="2.21487">
        <ele>530.5</ele>
        <time>2019-08-04T06:03:46.000Z</time>
      </trkpt>
      <trkpt lat="43.36055" lon="2.21483">
        <ele>530.4</ele>
        <time>2019-08-04T06:03:47.000Z</time>
      </trkpt>
      <trkpt lat="43.36054" lon="2.21479">
        <ele>530.4</ele>
        <time>2019-08-04T06:03:48.000Z</time>
      </trkpt>
      <trkpt lat="43.36054" lon="2.21475">
        <ele>530.3</ele>
        <time>2019-08-04T06:03:49.000Z</time>
      </trkpt>
      <trkpt lat="43.36053" lon="2.21472">
        <ele>530.3</ele>
        <time>2019-08-04T06:03:50.000Z</time>
      </trkpt>
      <trkpt lat="43.36052" lon="2.21468">
        <ele>530.2</ele>
        <time>2019-08-04T06:03:51.000Z</time>
      </trkpt>
      <trkpt lat="43.36051" lon="2.21465">
        <ele>530.2</ele>
        <time>2019-08-04T06:03:52.000Z</time>
      </trkpt>
      <trkpt lat="43.3605" lon="2.21461">
        <ele>530.1</ele>
        <time>2019-08-04T06:03:53.000Z</time>
      </trkpt>
      <trkpt lat="43.36049" lon="2.21458">
        <ele>530</ele>
        <time>2019-08-04T06:03:54.000Z</time>
      </trkpt>
      <trkpt lat="43.36049" lon="2.21455">
        <ele>530</ele>
        <time>2019-08-04T06:03:55.000Z</time>
      </trkpt>
      <trkpt lat="43.36048" lon="2.21451">
        <ele>529.9</ele>
        <time>2019-08-04T06:03:56.000Z</time>
      </trkpt>
      <trkpt lat="43.36047" lon="2.21448">
        <ele>529.8</ele>
        <time>2019-08-04T06:03:57.000Z</time>
      </trkpt>
      <trkpt lat="43.36046" lon="2.21445">
        <ele>529.8</ele>
        <time>2019-08-04T06:03:58.000Z</time>
      </trkpt>
      <trkpt lat="43.36045" lon="2.21442">
        <ele>529.7</ele>
        <time>2019-08-04T06:03:59.000Z</time>
      </trkpt>
      <trkpt lat="43.36044" lon="2.21439">
        <ele>529.6</ele>
        <time>2019-08-04T06:04:00.000Z</time>
      </trkpt>
      <trkpt lat="43.36043" lon="2.21436">
        <ele>529.5</ele>
        <time>2019-08-04T06:04:01.000Z</time>
      </trkpt>
      <trkpt lat="43.36042" lon="2.21433">
        <ele>529.5</ele>
        <time>2019-08-04T06:04:02.000Z</time>
      </trkpt>
      <trkpt lat="43.36041" lon="2.21429">
        <ele>529.4</ele>
        <time>2019-08-04T06:04:03.000Z</time>
      </trkpt>
      <trkpt lat="43.36041" lon="2.21426">
        <ele>529.3</ele>
        <time>2019-08-04T06:04:04.000Z</time>
      </trkpt>
      <trkpt lat="43.3604" lon="2.21423">
        <ele>529.3</ele>
        <time>2019-08-04T06:04:05.000Z</time>
      </trkpt>
      <trkpt lat="43.36039" lon="2.2142">
        <ele>529.2</ele>
        <time>2019-08-04T06:04:06.000Z</time>
      </trkpt>
      <trkpt lat="43.36038" lon="2.21417">
        <ele>529.1</ele>
        <time>2019-08-04T06:04:07.000Z</time>
      </trkpt>
      <trkpt lat="43.36038" lon="2.21414">
        <ele>529</ele>
        <time>2019-08-04T06:04:08.000Z</time>
      </trkpt>
      <trkpt lat="43.36037" lon="2.21411">
        <ele>528.8</ele>
        <time>2019-08-04T06:04:09.000Z</time>
      </trkpt>
      <trkpt lat="43.36036" lon="2.21408">
        <ele>528.6</ele>
        <time>2019-08-04T06:04:10.000Z</time>
      </trkpt>
      <trkpt lat="43.36036" lon="2.21404">
        <ele>528.4</ele>
        <time>2019-08-04T06:04:11.000Z</time>
      </trkpt>
      <trkpt lat="43.36035" lon="2.21401">
        <ele>528.2</ele>
        <time>2019-08-04T06:04:12.000Z</time>
      </trkpt>
      <trkpt lat="43.36034" lon="2.21398">
        <ele>528</ele>
        <time>2019-08-04T06:04:13.000Z</time>
      </trkpt>
      <trkpt lat="43.36033" lon="2.21395">
        <ele>527.8</ele>
        <time>2019-08-04T06:04:14.000Z</time>
      </trkpt>
      <trkpt lat="43.36033" lon="2.21391">
        <ele>527.6</ele>
        <time>2019-08-04T06:04:15.000Z</time>
      </trkpt>
      <trkpt lat="43.36032" lon="2.21388">
        <ele>527.4</ele>
        <time>2019-08-04T06:04:16.000Z</time>
      </trkpt>
      <trkpt lat="43.36031" lon="2.21384">
        <ele>527.2</ele>
        <time>2019-08-04T06:04:17.000Z</time>
      </trkpt>
      <trkpt lat="43.3603" lon="2.21381">
        <ele>527</ele>
        <time>2019-08-04T06:04:18.000Z</time>
      </trkpt>
      <trkpt lat="43.36029" lon="2.21377">
        <ele>526.8</ele>
        <time>2019-08-04T06:04:19.000Z</time>
      </trkpt>
      <trkpt lat="43.36029" lon="2.21374">
        <ele>526.5</ele>
        <time>2019-08-04T06:04:20.000Z</time>
      </trkpt>
      <trkpt lat="43.36028" lon="2.2137">
        <ele>526.3</ele>
        <time>2019-08-04T06:04:21.000Z</time>
      </trkpt>
      <trkpt lat="43.36027" lon="2.21367">
        <ele>526.1</ele>
        <time>2019-08-04T06:04:22.000Z</time>
      </trkpt>
      <trkpt lat="43.36026" lon="2.21363">
        <ele>525.9</ele>
        <time>2019-08-04T06:04:23.000Z</time>
      </trkpt>
      <trkpt lat="43.36025" lon="2.2136">
        <ele>525.7</ele>
        <time>2019-08-04T06:04:24.000Z</time>
      </trkpt>
      <trkpt lat="43.36025" lon="2.21356">
        <ele>525.5</ele>
        <time>2019-08-04T06:04:25.000Z</time>
      </trkpt>
      <trkpt lat="43.36024" lon="2.21352">
        <ele>525.3</ele>
        <time>2019-08-04T06:04:26.000Z</time>
      </trkpt>
      <trkpt lat="43.36024" lon="2.21349">
        <ele>525.1</ele>
        <time>2019-08-04T06:04:27.000Z</time>
      </trkpt>
      <trkpt lat="43.36024" lon="2.21345">
        <ele>525</ele>
        <time>2019-08-04T06:04:28.000Z</time>
      </trkpt>
      <trkpt lat="43.36023" lon="2.21342">
        <ele>524.8</ele>
        <time>2019-08-04T06:04:29.000Z</time>
      </trkpt>
      <trkpt lat="43.36023" lon="2.21338">
        <ele>524.7</ele>
        <time>2019-08-04T06:04:30.000Z</time>
      </trkpt>
      <trkpt lat="43.36023" lon="2.21335">
        <ele>524.6</ele>
        <time>2019-08-04T06:04:31.000Z</time>
      </trkpt>
      <trkpt lat="43.36023" lon="2.21331">
        <ele>524.4</ele>
        <time>2019-08-04T06:04:32.000Z</time>
      </trkpt>
      <trkpt lat="43.36023" lon="2.21327">
        <ele>524.2</ele>
        <time>2019-08-04T06:04:33.000Z</time>
      </trkpt>
      <trkpt lat="43.36023" lon="2.21324">
        <ele>524.1</ele>
        <time>2019-08-04T06:04:34.000Z</time>
      </trkpt>
      <trkpt lat="43.36024" lon="2.2132">
        <ele>523.9</ele>
        <time>2019-08-04T06:04:35.000Z</time>
      </trkpt>
      <trkpt lat="43.36024" lon="2.21316">
        <ele>523.8</ele>
        <time>2019-08-04T06:04:36.000Z</time>
      </trkpt>
      <trkpt lat="43.36024" lon="2.21312">
        <ele>523.6</ele>
        <time>2019-08-04T06:04:37.000Z</time>
      </trkpt>
      <trkpt lat="43.36024" lon="2.21308">
        <ele>523.5</ele>
        <time>2019-08-04T06:04:38.000Z</time>
      </trkpt>
      <trkpt lat="43.36024" lon="2.21304">
        <ele>523.3</ele>
        <time>2019-08-04T06:04:39.000Z</time>
      </trkpt>
      <trkpt lat="43.36024" lon="2.213">
        <ele>523.1</ele>
        <time>2019-08-04T06:04:40.000Z</time>
      </trkpt>
      <trkpt lat="43.36024" lon="2.21296">
        <ele>523</ele>
        <time>2019-08-04T06:04:41.000Z</time>
      </trkpt>
      <trkpt lat="43.36025" lon="2.21293">
        <ele>522.8</ele>
        <time>2019-08-04T06:04:42.000Z</time>
      </trkpt>
      <trkpt lat="43.36025" lon="2.21289">
        <ele>522.7</ele>
        <time>2019-08-04T06:04:43.000Z</time>
      </trkpt>
      <trkpt lat="43.36025" lon="2.21285">
        <ele>522.5</ele>
        <time>2019-08-04T06:04:44.000Z</time>
      </trkpt>
      <trkpt lat="43.36025" lon="2.21281">
        <ele>522.4</ele>
        <time>2019-08-04T06:04:45.000Z</time>
      </trkpt>
      <trkpt lat="43.36025" lon="2.21278">
        <ele>522.2</ele>
        <time>2019-08-04T06:04:46.000Z</time>
      </trkpt>
      <trkpt lat="43.36025" lon="2.21274">
        <ele>522.1</ele>
        <time>2019-08-04T06:04:47.000Z</time>
      </trkpt>
      <trkpt lat="43.36025" lon="2.21271">
        <ele>521.9</ele>
        <time>2019-08-04T06:04:48.000Z</time>
      </trkpt>
      <trkpt lat="43.36025" lon="2.21267">
        <ele>521.8</ele>
        <time>2019-08-04T06:04:49.000Z</time>
      </trkpt>
      <trkpt lat="43.36025" lon="2.21263">
        <ele>521.6</ele>
        <time>2019-08-04T06:04:50.000Z</time>
      </trkpt>
      <trkpt lat="43.36026" lon="2.2126">
        <ele>521.5</ele>
        <time>2019-08-04T06:04:51.000Z</time>
      </trkpt>
      <trkpt lat="43.36026" lon="2.21256">
        <ele>521.3</ele>
        <time>2019-08-04T06:04:52.000Z</time>
      </trkpt>
      <trkpt lat="43.36026" lon="2.21253">
        <ele>521.2</ele>
        <time>2019-08-04T06:04:53.000Z</time>
      </trkpt>
      <trkpt lat="43.36026" lon="2.21249">
        <ele>521.1</ele>
        <time>2019-08-04T06:04:54.000Z</time>
      </trkpt>
      <trkpt lat="43.36026" lon="2.21245">
        <ele>521.1</ele>
        <time>2019-08-04T06:04:55.000Z</time>
      </trkpt>
      <trkpt lat="43.36026" lon="2.21242">
        <ele>521.2</ele>
        <time>2019-08-04T06:04:56.000Z</time>
      </trkpt>
      <trkpt lat="43.36027" lon="2.21238">
        <ele>521.2</ele>
        <time>2019-08-04T06:04:57.000Z</time>
      </trkpt>
      <trkpt lat="43.36027" lon="2.21234">
        <ele>521.2</ele>
        <time>2019-08-04T06:04:58.000Z</time>
      </trkpt>
      <trkpt lat="43.36027" lon="2.21231">
        <ele>521.2</ele>
        <time>2019-08-04T06:04:59.000Z</time>
      </trkpt>
      <trkpt lat="43.36027" lon="2.21227">
        <ele>521.2</ele>
        <time>2019-08-04T06:05:00.000Z</time>
      </trkpt>
      <trkpt lat="43.36027" lon="2.21223">
        <ele>521.3</ele>
        <time>2019-08-04T06:05:01.000Z</time>
      </trkpt>
      <trkpt lat="43.36027" lon="2.2122">
        <ele>521.3</ele>
        <time>2019-08-04T06:05:02.000Z</time>
      </trkpt>
      <trkpt lat="43.36028" lon="2.21216">
        <ele>521.3</ele>
        <time>2019-08-04T06:05:03.000Z</time>
      </trkpt>
      <trkpt lat="43.36028" lon="2.21212">
        <ele>521.3</ele>
        <time>2019-08-04T06:05:04.000Z</time>
      </trkpt>
      <trkpt lat="43.36028" lon="2.21209">
        <ele>521.3</ele>
        <time>2019-08-04T06:05:05.000Z</time>
      </trkpt>
      <trkpt lat="43.36028" lon="2.21205">
        <ele>521.3</ele>
        <time>2019-08-04T06:05:06.000Z</time>
      </trkpt>
      <trkpt lat="43.36028" lon="2.21201">
        <ele>521.4</ele>
        <time>2019-08-04T06:05:07.000Z</time>
      </trkpt>
      <trkpt lat="43.36028" lon="2.21197">
        <ele>521.4</ele>
        <time>2019-08-04T06:05:08.000Z</time>
      </trkpt>
      <trkpt lat="43.36028" lon="2.21194">
        <ele>521.4</ele>
        <time>2019-08-04T06:05:09.000Z</time>
      </trkpt>
      <trkpt lat="43.36028" lon="2.2119">
        <ele>521.4</ele>
        <time>2019-08-04T06:05:10.000Z</time>
      </trkpt>
      <trkpt lat="43.36028" lon="2.21186">
        <ele>521.4</ele>
        <time>2019-08-04T06:05:11.000Z</time>
      </trkpt>
      <trkpt lat="43.36029" lon="2.21182">
        <ele>521.4</ele>
        <time>2019-08-04T06:05:12.000Z</time>
      </trkpt>
      <trkpt lat="43.36029" lon="2.21178">
        <ele>521.4</ele>
        <time>2019-08-04T06:05:13.000Z</time>
      </trkpt>
      <trkpt lat="43.36029" lon="2.21174">
        <ele>521.4</ele>
        <time>2019-08-04T06:05:14.000Z</time>
      </trkpt>
      <trkpt lat="43.36029" lon="2.21171">
        <ele>521.4</ele>
        <time>2019-08-04T06:05:15.000Z</time>
      </trkpt>
      <trkpt lat="43.36029" lon="2.21167">
        <ele>521.4</ele>
        <time>2019-08-04T06:05:16.000Z</time>
      </trkpt>
      <trkpt lat="43.36028" lon="2.21163">
        <ele>521.2</ele>
        <time>2019-08-04T06:05:17.000Z</time>
      </trkpt>
      <trkpt lat="43.36028" lon="2.21159">
        <ele>521</ele>
        <time>2019-08-04T06:05:18.000Z</time>
      </trkpt>
      <trkpt lat="43.36028" lon="2.21155">
        <ele>520.9</ele>
        <time>2019-08-04T06:05:19.000Z</time>
      </trkpt>
      <trkpt lat="43.36028" lon="2.21151">
        <ele>520.7</ele>
        <time>2019-08-04T06:05:20.000Z</time>
      </trkpt>
      <trkpt lat="43.36028" lon="2.21147">
        <ele>520.5</ele>
        <time>2019-08-04T06:05:21.000Z</time>
      </trkpt>
      <trkpt lat="43.36028" lon="2.21143">
        <ele>520.3</ele>
        <time>2019-08-04T06:05:22.000Z</time>
      </trkpt>
      <trkpt lat="43.36028" lon="2.21139">
        <ele>520.1</ele>
        <time>2019-08-04T06:05:23.000Z</time>
      </trkpt>
      <trkpt lat="43.36027" lon="2.21135">
        <ele>519.9</ele>
        <time>2019-08-04T06:05:24.000Z</time>
      </trkpt>
      <trkpt lat="43.36027" lon="2.21131">
        <ele>519.7</ele>
        <time>2019-08-04T06:05:25.000Z</time>
      </trkpt>
      <trkpt lat="43.36027" lon="2.21127">
        <ele>519.5</ele>
        <time>2019-08-04T06:05:26.000Z</time>
      </trkpt>
      <trkpt lat="43.36026" lon="2.21123">
        <ele>519.3</ele>
        <time>2019-08-04T06:05:27.000Z</time>
      </trkpt>
      <trkpt lat="43.36026" lon="2.21119">
        <ele>519</ele>
        <time>2019-08-04T06:05:28.000Z</time>
      </trkpt>
      <trkpt lat="43.36025" lon="2.21115">
        <ele>518.8</ele>
        <time>2019-08-04T06:05:29.000Z</time>
      </trkpt>
      <trkpt lat="43.36025" lon="2.21111">
        <ele>518.6</ele>
        <time>2019-08-04T06:05:30.000Z</time>
      </trkpt>
      <trkpt lat="43.36024" lon="2.21108">
        <ele>518.4</ele>
        <time>2019-08-04T06:05:31.000Z</time>
      </trkpt>
      <trkpt lat="43.36023" lon="2.21104">
        <ele>518.2</ele>
        <time>2019-08-04T06:05:32.000Z</time>
      </trkpt>
      <trkpt lat="43.36023" lon="2.21101">
        <ele>518</ele>
        <time>2019-08-04T06:05:33.000Z</time>
      </trkpt>
      <trkpt lat="43.36022" lon="2.21097">
        <ele>517.8</ele>
        <time>2019-08-04T06:05:34.000Z</time>
      </trkpt>
      <trkpt lat="43.36022" lon="2.21094">
        <ele>517.6</ele>
        <time>2019-08-04T06:05:35.000Z</time>
      </trkpt>
      <trkpt lat="43.36021" lon="2.21091">
        <ele>517.4</ele>
        <time>2019-08-04T06:05:36.000Z</time>
      </trkpt>
      <trkpt lat="43.36021" lon="2.21088">
        <ele>517.2</ele>
        <time>2019-08-04T06:05:37.000Z</time>
      </trkpt>
      <trkpt lat="43.3602" lon="2.21084">
        <ele>517</ele>
        <time>2019-08-04T06:05:38.000Z</time>
      </trkpt>
      <trkpt lat="43.3602" lon="2.21081">
        <ele>516.8</ele>
        <time>2019-08-04T06:05:39.000Z</time>
      </trkpt>
      <trkpt lat="43.36019" lon="2.21077">
        <ele>516.7</ele>
        <time>2019-08-04T06:05:40.000Z</time>
      </trkpt>
      <trkpt lat="43.36018" lon="2.21073">
        <ele>516.6</ele>
        <time>2019-08-04T06:05:41.000Z</time>
      </trkpt>
      <trkpt lat="43.36018" lon="2.21069">
        <ele>516.5</ele>
        <time>2019-08-04T06:05:42.000Z</time>
      </trkpt>
      <trkpt lat="43.36017" lon="2.21065">
        <ele>516.4</ele>
        <time>2019-08-04T06:05:43.000Z</time>
      </trkpt>
      <trkpt lat="43.36017" lon="2.21061">
        <ele>516.3</ele>
        <time>2019-08-04T06:05:44.000Z</time>
      </trkpt>
      <trkpt lat="43.36016" lon="2.21056">
        <ele>516.2</ele>
        <time>2019-08-04T06:05:45.000Z</time>
      </trkpt>
      <trkpt lat="43.36016" lon="2.21052">
        <ele>516.1</ele>
        <time>2019-08-04T06:05:46.000Z</time>
      </trkpt>
      <trkpt lat="43.36015" lon="2.21048">
        <ele>515.9</ele>
        <time>2019-08-04T06:05:47.000Z</time>
      </trkpt>
      <trkpt lat="43.36015" lon="2.21044">
        <ele>515.8</ele>
        <time>2019-08-04T06:05:48.000Z</time>
      </trkpt>
      <trkpt lat="43.36014" lon="2.2104">
        <ele>515.7</ele>
        <time>2019-08-04T06:05:49.000Z</time>
      </trkpt>
      <trkpt lat="43.36014" lon="2.21036">
        <ele>515.6</ele>
        <time>2019-08-04T06:05:50.000Z</time>
      </trkpt>
      <trkpt lat="43.36013" lon="2.21032">
        <ele>515.5</ele>
        <time>2019-08-04T06:05:51.000Z</time>
      </trkpt>
      <trkpt lat="43.36013" lon="2.21028">
        <ele>515.4</ele>
        <time>2019-08-04T06:05:52.000Z</time>
      </trkpt>
      <trkpt lat="43.36012" lon="2.21024">
        <ele>515.4</ele>
        <time>2019-08-04T06:05:53.000Z</time>
      </trkpt>
      <trkpt lat="43.36012" lon="2.2102">
        <ele>515.3</ele>
        <time>2019-08-04T06:05:54.000Z</time>
      </trkpt>
      <trkpt lat="43.36011" lon="2.21017">
        <ele>515.2</ele>
        <time>2019-08-04T06:05:55.000Z</time>
      </trkpt>
      <trkpt lat="43.36011" lon="2.21013">
        <ele>515.1</ele>
        <time>2019-08-04T06:05:56.000Z</time>
      </trkpt>
      <trkpt lat="43.3601" lon="2.21009">
        <ele>515</ele>
        <time>2019-08-04T06:05:57.000Z</time>
      </trkpt>
      <trkpt lat="43.3601" lon="2.21005">
        <ele>514.9</ele>
        <time>2019-08-04T06:05:58.000Z</time>
      </trkpt>
      <trkpt lat="43.36009" lon="2.21002">
        <ele>514.8</ele>
        <time>2019-08-04T06:05:59.000Z</time>
      </trkpt>
      <trkpt lat="43.36009" lon="2.20998">
        <ele>514.6</ele>
        <time>2019-08-04T06:06:00.000Z</time>
      </trkpt>
      <trkpt lat="43.36008" lon="2.20994">
        <ele>514.3</ele>
        <time>2019-08-04T06:06:01.000Z</time>
      </trkpt>
      <trkpt lat="43.36007" lon="2.2099">
        <ele>514</ele>
        <time>2019-08-04T06:06:02.000Z</time>
      </trkpt>
      <trkpt lat="43.36007" lon="2.20987">
        <ele>513.6</ele>
        <time>2019-08-04T06:06:03.000Z</time>
      </trkpt>
      <trkpt lat="43.36006" lon="2.20983">
        <ele>513.3</ele>
        <time>2019-08-04T06:06:04.000Z</time>
      </trkpt>
      <trkpt lat="43.36005" lon="2.20979">
        <ele>513</ele>
        <time>2019-08-04T06:06:05.000Z</time>
      </trkpt>
      <trkpt lat="43.36004" lon="2.20975">
        <ele>512.6</ele>
        <time>2019-08-04T06:06:06.000Z</time>
      </trkpt>
      <trkpt lat="43.36004" lon="2.20971">
        <ele>512.2</ele>
        <time>2019-08-04T06:06:07.000Z</time>
      </trkpt>
      <trkpt lat="43.36003" lon="2.20966">
        <ele>511.9</ele>
        <time>2019-08-04T06:06:08.000Z</time>
      </trkpt>
      <trkpt lat="43.36002" lon="2.20962">
        <ele>511.5</ele>
        <time>2019-08-04T06:06:09.000Z</time>
      </trkpt>
      <trkpt lat="43.36002" lon="2.20958">
        <ele>511.2</ele>
        <time>2019-08-04T06:06:10.000Z</time>
      </trkpt>
      <trkpt lat="43.36001" lon="2.20954">
        <ele>510.8</ele>
        <time>2019-08-04T06:06:11.000Z</time>
      </trkpt>
      <trkpt lat="43.36001" lon="2.2095">
        <ele>510.5</ele>
        <time>2019-08-04T06:06:12.000Z</time>
      </trkpt>
      <trkpt lat="43.36001" lon="2.20946">
        <ele>510.1</ele>
        <time>2019-08-04T06:06:13.000Z</time>
      </trkpt>
      <trkpt lat="43.36" lon="2.20941">
        <ele>509.8</ele>
        <time>2019-08-04T06:06:14.000Z</time>
      </trkpt>
      <trkpt lat="43.36" lon="2.20937">
        <ele>509.5</ele>
        <time>2019-08-04T06:06:15.000Z</time>
      </trkpt>
      <trkpt lat="43.36" lon="2.20933">
        <ele>509.2</ele>
        <time>2019-08-04T06:06:16.000Z</time>
      </trkpt>
      <trkpt lat="43.36001" lon="2.20929">
        <ele>509</ele>
        <time>2019-08-04T06:06:17.000Z</time>
      </trkpt>
      <trkpt lat="43.36001" lon="2.20925">
        <ele>508.7</ele>
        <time>2019-08-04T06:06:18.000Z</time>
      </trkpt>
      <trkpt lat="43.36002" lon="2.20921">
        <ele>508.5</ele>
        <time>2019-08-04T06:06:19.000Z</time>
      </trkpt>
      <trkpt lat="43.36003" lon="2.20916">
        <ele>508.3</ele>
        <time>2019-08-04T06:06:20.000Z</time>
      </trkpt>
      <trkpt lat="43.36004" lon="2.20912">
        <ele>507.9</ele>
        <time>2019-08-04T06:06:21.000Z</time>
      </trkpt>
      <trkpt lat="43.36005" lon="2.20908">
        <ele>507.6</ele>
        <time>2019-08-04T06:06:22.000Z</time>
      </trkpt>
      <trkpt lat="43.36007" lon="2.20904">
        <ele>507.2</ele>
        <time>2019-08-04T06:06:23.000Z</time>
      </trkpt>
      <trkpt lat="43.36008" lon="2.209">
        <ele>506.9</ele>
        <time>2019-08-04T06:06:24.000Z</time>
      </trkpt>
      <trkpt lat="43.3601" lon="2.20896">
        <ele>506.6</ele>
        <time>2019-08-04T06:06:25.000Z</time>
      </trkpt>
      <trkpt lat="43.36012" lon="2.20892">
        <ele>506.3</ele>
        <time>2019-08-04T06:06:26.000Z</time>
      </trkpt>
      <trkpt lat="43.36014" lon="2.20888">
        <ele>506</ele>
        <time>2019-08-04T06:06:27.000Z</time>
      </trkpt>
      <trkpt lat="43.36016" lon="2.20884">
        <ele>505.8</ele>
        <time>2019-08-04T06:06:28.000Z</time>
      </trkpt>
      <trkpt lat="43.36018" lon="2.20881">
        <ele>505.6</ele>
        <time>2019-08-04T06:06:29.000Z</time>
      </trkpt>
      <trkpt lat="43.3602" lon="2.20877">
        <ele>505.4</ele>
        <time>2019-08-04T06:06:30.000Z</time>
      </trkpt>
      <trkpt lat="43.36022" lon="2.20873">
        <ele>505.2</ele>
        <time>2019-08-04T06:06:31.000Z</time>
      </trkpt>
      <trkpt lat="43.36024" lon="2.2087">
        <ele>505</ele>
        <time>2019-08-04T06:06:32.000Z</time>
      </trkpt>
      <trkpt lat="43.36026" lon="2.20867">
        <ele>504.9</ele>
        <time>2019-08-04T06:06:33.000Z</time>
      </trkpt>
      <trkpt lat="43.36028" lon="2.20864">
        <ele>504.7</ele>
        <time>2019-08-04T06:06:34.000Z</time>
      </trkpt>
      <trkpt lat="43.3603" lon="2.20861">
        <ele>504.6</ele>
        <time>2019-08-04T06:06:35.000Z</time>
      </trkpt>
      <trkpt lat="43.36032" lon="2.20859">
        <ele>504.5</ele>
        <time>2019-08-04T06:06:36.000Z</time>
      </trkpt>
      <trkpt lat="43.36034" lon="2.20856">
        <ele>504.5</ele>
        <time>2019-08-04T06:06:37.000Z</time>
      </trkpt>
      <trkpt lat="43.36036" lon="2.20854">
        <ele>504.5</ele>
        <time>2019-08-04T06:06:38.000Z</time>
      </trkpt>
      <trkpt lat="43.36038" lon="2.20852">
        <ele>504.5</ele>
        <time>2019-08-04T06:06:39.000Z</time>
      </trkpt>
      <trkpt lat="43.36041" lon="2.2085">
        <ele>504.5</ele>
        <time>2019-08-04T06:06:40.000Z</time>
      </trkpt>
      <trkpt lat="43.36043" lon="2.20848">
        <ele>504.6</ele>
        <time>2019-08-04T06:06:41.000Z</time>
      </trkpt>
      <trkpt lat="43.36046" lon="2.20846">
        <ele>504.8</ele>
        <time>2019-08-04T06:06:42.000Z</time>
      </trkpt>
      <trkpt lat="43.36049" lon="2.20844">
        <ele>504.9</ele>
        <time>2019-08-04T06:06:43.000Z</time>
      </trkpt>
      <trkpt lat="43.36052" lon="2.20843">
        <ele>505.1</ele>
        <time>2019-08-04T06:06:44.000Z</time>
      </trkpt>
      <trkpt lat="43.36055" lon="2.20841">
        <ele>505.3</ele>
        <time>2019-08-04T06:06:45.000Z</time>
      </trkpt>
      <trkpt lat="43.36058" lon="2.2084">
        <ele>505.5</ele>
        <time>2019-08-04T06:06:46.000Z</time>
      </trkpt>
      <trkpt lat="43.36062" lon="2.20838">
        <ele>505.8</ele>
        <time>2019-08-04T06:06:47.000Z</time>
      </trkpt>
      <trkpt lat="43.36065" lon="2.20837">
        <ele>506</ele>
        <time>2019-08-04T06:06:48.000Z</time>
      </trkpt>
      <trkpt lat="43.36068" lon="2.20835">
        <ele>506.2</ele>
        <time>2019-08-04T06:06:49.000Z</time>
      </trkpt>
      <trkpt lat="43.36071" lon="2.20834">
        <ele>506.5</ele>
        <time>2019-08-04T06:06:50.000Z</time>
      </trkpt>
      <trkpt lat="43.36074" lon="2.20833">
        <ele>506.6</ele>
        <time>2019-08-04T06:06:51.000Z</time>
      </trkpt>
      <trkpt lat="43.36077" lon="2.20831">
        <ele>506.7</ele>
        <time>2019-08-04T06:06:52.000Z</time>
      </trkpt>
      <trkpt lat="43.3608" lon="2.2083">
        <ele>506.7</ele>
        <time>2019-08-04T06:06:53.000Z</time>
      </trkpt>
      <trkpt lat="43.36083" lon="2.20829">
        <ele>506.8</ele>
        <time>2019-08-04T06:06:54.000Z</time>
      </trkpt>
      <trkpt lat="43.36086" lon="2.20827">
        <ele>506.7</ele>
        <time>2019-08-04T06:06:55.000Z</time>
      </trkpt>
      <trkpt lat="43.36089" lon="2.20826">
        <ele>506.7</ele>
        <time>2019-08-04T06:06:56.000Z</time>
      </trkpt>
      <trkpt lat="43.36091" lon="2.20825">
        <ele>506.7</ele>
        <time>2019-08-04T06:06:57.000Z</time>
      </trkpt>
      <trkpt lat="43.36094" lon="2.20823">
        <ele>506.6</ele>
        <time>2019-08-04T06:06:58.000Z</time>
      </trkpt>
      <trkpt lat="43.36096" lon="2.20822">
        <ele>506.6</ele>
        <time>2019-08-04T06:06:59.000Z</time>
      </trkpt>
      <trkpt lat="43.36099" lon="2.20821">
        <ele>506.5</ele>
        <time>2019-08-04T06:07:00.000Z</time>
      </trkpt>
      <trkpt lat="43.36102" lon="2.2082">
        <ele>506.5</ele>
        <time>2019-08-04T06:07:01.000Z</time>
      </trkpt>
      <trkpt lat="43.36104" lon="2.20819">
        <ele>506.5</ele>
        <time>2019-08-04T06:07:02.000Z</time>
      </trkpt>
      <trkpt lat="43.36107" lon="2.20818">
        <ele>506.5</ele>
        <time>2019-08-04T06:07:03.000Z</time>
      </trkpt>
      <trkpt lat="43.36109" lon="2.20817">
        <ele>506.5</ele>
        <time>2019-08-04T06:07:04.000Z</time>
      </trkpt>
      <trkpt lat="43.36112" lon="2.20816">
        <ele>506.6</ele>
        <time>2019-08-04T06:07:05.000Z</time>
      </trkpt>
      <trkpt lat="43.36114" lon="2.20815">
        <ele>506.6</ele>
        <time>2019-08-04T06:07:06.000Z</time>
      </trkpt>
      <trkpt lat="43.36117" lon="2.20814">
        <ele>506.6</ele>
        <time>2019-08-04T06:07:07.000Z</time>
      </trkpt>
      <trkpt lat="43.3612" lon="2.20813">
        <ele>506.6</ele>
        <time>2019-08-04T06:07:08.000Z</time>
      </trkpt>
      <trkpt lat="43.36122" lon="2.20812">
        <ele>506.6</ele>
        <time>2019-08-04T06:07:09.000Z</time>
      </trkpt>
      <trkpt lat="43.36125" lon="2.2081">
        <ele>506.5</ele>
        <time>2019-08-04T06:07:10.000Z</time>
      </trkpt>
      <trkpt lat="43.36128" lon="2.20809">
        <ele>506.3</ele>
        <time>2019-08-04T06:07:11.000Z</time>
      </trkpt>
      <trkpt lat="43.36131" lon="2.20807">
        <ele>506.2</ele>
        <time>2019-08-04T06:07:12.000Z</time>
      </trkpt>
      <trkpt lat="43.36134" lon="2.20805">
        <ele>506</ele>
        <time>2019-08-04T06:07:13.000Z</time>
      </trkpt>
      <trkpt lat="43.36137" lon="2.20803">
        <ele>505.8</ele>
        <time>2019-08-04T06:07:14.000Z</time>
      </trkpt>
      <trkpt lat="43.3614" lon="2.20802">
        <ele>505.6</ele>
        <time>2019-08-04T06:07:15.000Z</time>
      </trkpt>
      <trkpt lat="43.36143" lon="2.208">
        <ele>505.4</ele>
        <time>2019-08-04T06:07:16.000Z</time>
      </trkpt>
      <trkpt lat="43.36147" lon="2.20798">
        <ele>505.2</ele>
        <time>2019-08-04T06:07:17.000Z</time>
      </trkpt>
      <trkpt lat="43.3615" lon="2.20796">
        <ele>505.1</ele>
        <time>2019-08-04T06:07:18.000Z</time>
      </trkpt>
      <trkpt lat="43.36153" lon="2.20795">
        <ele>504.9</ele>
        <time>2019-08-04T06:07:19.000Z</time>
      </trkpt>
      <trkpt lat="43.36156" lon="2.20793">
        <ele>504.8</ele>
        <time>2019-08-04T06:07:20.000Z</time>
      </trkpt>
      <trkpt lat="43.36159" lon="2.20792">
        <ele>504.7</ele>
        <time>2019-08-04T06:07:21.000Z</time>
      </trkpt>
      <trkpt lat="43.36162" lon="2.20791">
        <ele>504.7</ele>
        <time>2019-08-04T06:07:22.000Z</time>
      </trkpt>
      <trkpt lat="43.36165" lon="2.20789">
        <ele>504.7</ele>
        <time>2019-08-04T06:07:23.000Z</time>
      </trkpt>
      <trkpt lat="43.36168" lon="2.20789">
        <ele>504.7</ele>
        <time>2019-08-04T06:07:24.000Z</time>
      </trkpt>
      <trkpt lat="43.36171" lon="2.20788">
        <ele>504.6</ele>
        <time>2019-08-04T06:07:25.000Z</time>
      </trkpt>
      <trkpt lat="43.36174" lon="2.20788">
        <ele>504.6</ele>
        <time>2019-08-04T06:07:26.000Z</time>
      </trkpt>
      <trkpt lat="43.36177" lon="2.20787">
        <ele>504.6</ele>
        <time>2019-08-04T06:07:27.000Z</time>
      </trkpt>
      <trkpt lat="43.3618" lon="2.20787">
        <ele>504.6</ele>
        <time>2019-08-04T06:07:28.000Z</time>
      </trkpt>
      <trkpt lat="43.36182" lon="2.20787">
        <ele>504.7</ele>
        <time>2019-08-04T06:07:29.000Z</time>
      </trkpt>
      <trkpt lat="43.36185" lon="2.20787">
        <ele>504.7</ele>
        <time>2019-08-04T06:07:30.000Z</time>
      </trkpt>
      <trkpt lat="43.36188" lon="2.20787">
        <ele>504.8</ele>
        <time>2019-08-04T06:07:31.000Z</time>
      </trkpt>
      <trkpt lat="43.36191" lon="2.20787">
        <ele>504.8</ele>
        <time>2019-08-04T06:07:32.000Z</time>
      </trkpt>
      <trkpt lat="43.36194" lon="2.20786">
        <ele>504.8</ele>
        <time>2019-08-04T06:07:33.000Z</time>
      </trkpt>
      <trkpt lat="43.36196" lon="2.20786">
        <ele>504.8</ele>
        <time>2019-08-04T06:07:34.000Z</time>
      </trkpt>
      <trkpt lat="43.36199" lon="2.20786">
        <ele>504.7</ele>
        <time>2019-08-04T06:07:35.000Z</time>
      </trkpt>
      <trkpt lat="43.36202" lon="2.20785">
        <ele>504.7</ele>
        <time>2019-08-04T06:07:36.000Z</time>
      </trkpt>
      <trkpt lat="43.36204" lon="2.20785">
        <ele>504.6</ele>
        <time>2019-08-04T06:07:37.000Z</time>
      </trkpt>
      <trkpt lat="43.36207" lon="2.20784">
        <ele>504.5</ele>
        <time>2019-08-04T06:07:38.000Z</time>
      </trkpt>
      <trkpt lat="43.3621" lon="2.20783">
        <ele>504.4</ele>
        <time>2019-08-04T06:07:39.000Z</time>
      </trkpt>
      <trkpt lat="43.36213" lon="2.20782">
        <ele>504.2</ele>
        <time>2019-08-04T06:07:40.000Z</time>
      </trkpt>
      <trkpt lat="43.36216" lon="2.20781">
        <ele>504.1</ele>
        <time>2019-08-04T06:07:41.000Z</time>
      </trkpt>
      <trkpt lat="43.36219" lon="2.2078">
        <ele>503.9</ele>
        <time>2019-08-04T06:07:42.000Z</time>
      </trkpt>
      <trkpt lat="43.36222" lon="2.20779">
        <ele>503.7</ele>
        <time>2019-08-04T06:07:43.000Z</time>
      </trkpt>
      <trkpt lat="43.36225" lon="2.20778">
        <ele>503.5</ele>
        <time>2019-08-04T06:07:44.000Z</time>
      </trkpt>
      <trkpt lat="43.36228" lon="2.20777">
        <ele>503.3</ele>
        <time>2019-08-04T06:07:45.000Z</time>
      </trkpt>
      <trkpt lat="43.36232" lon="2.20776">
        <ele>503</ele>
        <time>2019-08-04T06:07:46.000Z</time>
      </trkpt>
      <trkpt lat="43.36235" lon="2.20775">
        <ele>502.8</ele>
        <time>2019-08-04T06:07:47.000Z</time>
      </trkpt>
      <trkpt lat="43.36238" lon="2.20774">
        <ele>502.5</ele>
        <time>2019-08-04T06:07:48.000Z</time>
      </trkpt>
      <trkpt lat="43.36241" lon="2.20773">
        <ele>502.3</ele>
        <time>2019-08-04T06:07:49.000Z</time>
      </trkpt>
      <trkpt lat="43.36244" lon="2.20772">
        <ele>502</ele>
        <time>2019-08-04T06:07:50.000Z</time>
      </trkpt>
      <trkpt lat="43.36247" lon="2.2077">
        <ele>501.7</ele>
        <time>2019-08-04T06:07:51.000Z</time>
      </trkpt>
      <trkpt lat="43.3625" lon="2.20769">
        <ele>501.5</ele>
        <time>2019-08-04T06:07:52.000Z</time>
      </trkpt>
      <trkpt lat="43.36253" lon="2.20768">
        <ele>501.2</ele>
        <time>2019-08-04T06:07:53.000Z</time>
      </trkpt>
      <trkpt lat="43.36256" lon="2.20766">
        <ele>500.9</ele>
        <time>2019-08-04T06:07:54.000Z</time>
      </trkpt>
      <trkpt lat="43.36259" lon="2.20765">
        <ele>500.6</ele>
        <time>2019-08-04T06:07:55.000Z</time>
      </trkpt>
      <trkpt lat="43.36262" lon="2.20764">
        <ele>500.2</ele>
        <time>2019-08-04T06:07:56.000Z</time>
      </trkpt>
      <trkpt lat="43.36265" lon="2.20762">
        <ele>499.9</ele>
        <time>2019-08-04T06:07:57.000Z</time>
      </trkpt>
      <trkpt lat="43.36267" lon="2.20761">
        <ele>499.6</ele>
        <time>2019-08-04T06:07:58.000Z</time>
      </trkpt>
      <trkpt lat="43.3627" lon="2.20759">
        <ele>499.2</ele>
        <time>2019-08-04T06:07:59.000Z</time>
      </trkpt>
      <trkpt lat="43.36273" lon="2.20758">
        <ele>498.9</ele>
        <time>2019-08-04T06:08:00.000Z</time>
      </trkpt>
      <trkpt lat="43.36276" lon="2.20756">
        <ele>498.5</ele>
        <time>2019-08-04T06:08:01.000Z</time>
      </trkpt>
      <trkpt lat="43.36279" lon="2.20755">
        <ele>498.1</ele>
        <time>2019-08-04T06:08:02.000Z</time>
      </trkpt>
      <trkpt lat="43.36282" lon="2.20753">
        <ele>497.7</ele>
        <time>2019-08-04T06:08:03.000Z</time>
      </trkpt>
      <trkpt lat="43.36285" lon="2.20752">
        <ele>497.3</ele>
        <time>2019-08-04T06:08:04.000Z</time>
      </trkpt>
      <trkpt lat="43.36288" lon="2.2075">
        <ele>496.9</ele>
        <time>2019-08-04T06:08:05.000Z</time>
      </trkpt>
      <trkpt lat="43.36291" lon="2.20749">
        <ele>496.9</ele>
        <time>2019-08-04T06:08:06.000Z</time>
      </trkpt>
      <trkpt lat="43.36293" lon="2.20747">
        <ele>496.8</ele>
        <time>2019-08-04T06:08:07.000Z</time>
      </trkpt>
      <trkpt lat="43.36296" lon="2.20745">
        <ele>496.8</ele>
        <time>2019-08-04T06:08:08.000Z</time>
      </trkpt>
      <trkpt lat="43.36299" lon="2.20744">
        <ele>496.8</ele>
        <time>2019-08-04T06:08:09.000Z</time>
      </trkpt>
      <trkpt lat="43.36302" lon="2.20742">
        <ele>496.8</ele>
        <time>2019-08-04T06:08:10.000Z</time>
      </trkpt>
      <trkpt lat="43.36305" lon="2.20741">
        <ele>496.8</ele>
        <time>2019-08-04T06:08:11.000Z</time>
      </trkpt>
      <trkpt lat="43.36308" lon="2.2074">
        <ele>496.8</ele>
        <time>2019-08-04T06:08:12.000Z</time>
      </trkpt>
      <trkpt lat="43.3631" lon="2.20738">
        <ele>496.8</ele>
        <time>2019-08-04T06:08:13.000Z</time>
      </trkpt>
      <trkpt lat="43.36313" lon="2.20737">
        <ele>496.9</ele>
        <time>2019-08-04T06:08:14.000Z</time>
      </trkpt>
      <trkpt lat="43.36316" lon="2.20736">
        <ele>496.9</ele>
        <time>2019-08-04T06:08:15.000Z</time>
      </trkpt>
      <trkpt lat="43.36319" lon="2.20735">
        <ele>497</ele>
        <time>2019-08-04T06:08:16.000Z</time>
      </trkpt>
      <trkpt lat="43.36322" lon="2.20735">
        <ele>497.1</ele>
        <time>2019-08-04T06:08:17.000Z</time>
      </trkpt>
      <trkpt lat="43.36324" lon="2.20734">
        <ele>497.2</ele>
        <time>2019-08-04T06:08:18.000Z</time>
      </trkpt>
      <trkpt lat="43.36327" lon="2.20733">
        <ele>497.3</ele>
        <time>2019-08-04T06:08:19.000Z</time>
      </trkpt>
      <trkpt lat="43.3633" lon="2.20733">
        <ele>497.4</ele>
        <time>2019-08-04T06:08:20.000Z</time>
      </trkpt>
      <trkpt lat="43.36333" lon="2.20732">
        <ele>497.6</ele>
        <time>2019-08-04T06:08:21.000Z</time>
      </trkpt>
      <trkpt lat="43.36336" lon="2.20732">
        <ele>497.7</ele>
        <time>2019-08-04T06:08:22.000Z</time>
      </trkpt>
      <trkpt lat="43.36339" lon="2.20732">
        <ele>497.8</ele>
        <time>2019-08-04T06:08:23.000Z</time>
      </trkpt>
      <trkpt lat="43.36342" lon="2.20732">
        <ele>498</ele>
        <time>2019-08-04T06:08:24.000Z</time>
      </trkpt>
      <trkpt lat="43.36345" lon="2.20732">
        <ele>498.1</ele>
        <time>2019-08-04T06:08:25.000Z</time>
      </trkpt>
      <trkpt lat="43.36348" lon="2.20732">
        <ele>498.3</ele>
        <time>2019-08-04T06:08:26.000Z</time>
      </trkpt>
      <trkpt lat="43.3635" lon="2.20732">
        <ele>498.4</ele>
        <time>2019-08-04T06:08:27.000Z</time>
      </trkpt>
      <trkpt lat="43.36353" lon="2.20732">
        <ele>498.5</ele>
        <time>2019-08-04T06:08:28.000Z</time>
      </trkpt>
      <trkpt lat="43.36356" lon="2.20732">
        <ele>498.7</ele>
        <time>2019-08-04T06:08:29.000Z</time>
      </trkpt>
      <trkpt lat="43.36359" lon="2.20732">
        <ele>498.8</ele>
        <time>2019-08-04T06:08:30.000Z</time>
      </trkpt>
      <trkpt lat="43.36362" lon="2.20732">
        <ele>499</ele>
        <time>2019-08-04T06:08:31.000Z</time>
      </trkpt>
      <trkpt lat="43.36365" lon="2.20732">
        <ele>499.1</ele>
        <time>2019-08-04T06:08:32.000Z</time>
      </trkpt>
      <trkpt lat="43.36367" lon="2.20732">
        <ele>499.2</ele>
        <time>2019-08-04T06:08:33.000Z</time>
      </trkpt>
      <trkpt lat="43.3637" lon="2.20732">
        <ele>499.4</ele>
        <time>2019-08-04T06:08:34.000Z</time>
      </trkpt>
      <trkpt lat="43.36373" lon="2.20732">
        <ele>499.5</ele>
        <time>2019-08-04T06:08:35.000Z</time>
      </trkpt>
      <trkpt lat="43.36375" lon="2.20732">
        <ele>499.6</ele>
        <time>2019-08-04T06:08:36.000Z</time>
      </trkpt>
      <trkpt lat="43.36378" lon="2.20732">
        <ele>499.7</ele>
        <time>2019-08-04T06:08:37.000Z</time>
      </trkpt>
      <trkpt lat="43.3638" lon="2.20732">
        <ele>499.9</ele>
        <time>2019-08-04T06:08:38.000Z</time>
      </trkpt>
      <trkpt lat="43.36383" lon="2.20732">
        <ele>500</ele>
        <time>2019-08-04T06:08:39.000Z</time>
      </trkpt>
      <trkpt lat="43.36385" lon="2.20732">
        <ele>500.1</ele>
        <time>2019-08-04T06:08:40.000Z</time>
      </trkpt>
      <trkpt lat="43.36388" lon="2.20731">
        <ele>500.2</ele>
        <time>2019-08-04T06:08:41.000Z</time>
      </trkpt>
      <trkpt lat="43.3639" lon="2.20731">
        <ele>500.4</ele>
        <time>2019-08-04T06:08:42.000Z</time>
      </trkpt>
      <trkpt lat="43.36393" lon="2.20731">
        <ele>500.5</ele>
        <time>2019-08-04T06:08:43.000Z</time>
      </trkpt>
      <trkpt lat="43.36396" lon="2.2073">
        <ele>500.7</ele>
        <time>2019-08-04T06:08:44.000Z</time>
      </trkpt>
      <trkpt lat="43.36398" lon="2.2073">
        <ele>500.8</ele>
        <time>2019-08-04T06:08:45.000Z</time>
      </trkpt>
      <trkpt lat="43.36401" lon="2.20729">
        <ele>501</ele>
        <time>2019-08-04T06:08:46.000Z</time>
      </trkpt>
      <trkpt lat="43.36404" lon="2.20728">
        <ele>501.1</ele>
        <time>2019-08-04T06:08:47.000Z</time>
      </trkpt>
      <trkpt lat="43.36406" lon="2.20727">
        <ele>501.3</ele>
        <time>2019-08-04T06:08:48.000Z</time>
      </trkpt>
      <trkpt lat="43.36409" lon="2.20726">
        <ele>501.4</ele>
        <time>2019-08-04T06:08:49.000Z</time>
      </trkpt>
      <trkpt lat="43.36412" lon="2.20725">
        <ele>501.6</ele>
        <time>2019-08-04T06:08:50.000Z</time>
      </trkpt>
      <trkpt lat="43.36414" lon="2.20724">
        <ele>501.8</ele>
        <time>2019-08-04T06:08:51.000Z</time>
      </trkpt>
      <trkpt lat="43.36416" lon="2.20723">
        <ele>502</ele>
        <time>2019-08-04T06:08:52.000Z</time>
      </trkpt>
      <trkpt lat="43.36419" lon="2.20722">
        <ele>502.1</ele>
        <time>2019-08-04T06:08:53.000Z</time>
      </trkpt>
      <trkpt lat="43.36421" lon="2.2072">
        <ele>502.3</ele>
        <time>2019-08-04T06:08:54.000Z</time>
      </trkpt>
      <trkpt lat="43.36422" lon="2.20719">
        <ele>502.4</ele>
        <time>2019-08-04T06:08:55.000Z</time>
      </trkpt>
      <trkpt lat="43.36424" lon="2.20717">
        <ele>502.5</ele>
        <time>2019-08-04T06:08:56.000Z</time>
      </trkpt>
      <trkpt lat="43.36425" lon="2.20716">
        <ele>502.6</ele>
        <time>2019-08-04T06:08:57.000Z</time>
      </trkpt>
      <trkpt lat="43.36426" lon="2.20715">
        <ele>502.7</ele>
        <time>2019-08-04T06:08:58.000Z</time>
      </trkpt>
      <trkpt lat="43.36427" lon="2.20714">
        <ele>502.8</ele>
        <time>2019-08-04T06:08:59.000Z</time>
      </trkpt>
      <trkpt lat="43.36427" lon="2.20714">
        <ele>502.9</ele>
        <time>2019-08-04T06:09:00.000Z</time>
      </trkpt>
      <trkpt lat="43.36428" lon="2.20713">
        <ele>502.9</ele>
        <time>2019-08-04T06:09:01.000Z</time>
      </trkpt>
      <trkpt lat="43.36428" lon="2.20713">
        <ele>503</ele>
        <time>2019-08-04T06:09:02.000Z</time>
      </trkpt>
      <trkpt lat="43.36429" lon="2.20713">
        <ele>503</ele>
        <time>2019-08-04T06:09:03.000Z</time>
      </trkpt>
      <trkpt lat="43.36429" lon="2.20713">
        <ele>503</ele>
        <time>2019-08-04T06:09:04.000Z</time>
      </trkpt>
      <trkpt lat="43.36429" lon="2.20713">
        <ele>503</ele>
        <time>2019-08-04T06:09:05.000Z</time>
      </trkpt>
      <trkpt lat="43.36429" lon="2.20713">
        <ele>503</ele>
        <time>2019-08-04T06:09:06.000Z</time>
      </trkpt>
      <trkpt lat="43.36429" lon="2.20713">
        <ele>503</ele>
        <time>2019-08-04T06:09:07.000Z</time>
      </trkpt>
      <trkpt lat="43.36429" lon="2.20713">
        <ele>503</ele>
        <time>2019-08-04T06:09:08.000Z</time>
      </trkpt>
      <trkpt lat="43.36429" lon="2.20713">
        <ele>503</ele>
        <time>2019-08-04T06:09:09.000Z</time>
      </trkpt>
      <trkpt lat="43.36429" lon="2.20713">
        <ele>503</ele>
        <time>2019-08-04T06:09:10.000Z</time>
      </trkpt>
      <trkpt lat="43.36429" lon="2.20713">
        <ele>503</ele>
        <time>2019-08-04T06:09:11.000Z</time>
      </trkpt>
      <trkpt lat="43.36429" lon="2.20713">
        <ele>503</ele>
        <time>2019-08-04T06:09:12.000Z</time>
      </trkpt>
      <trkpt lat="43.3643" lon="2.20714">
        <ele>503</ele>
        <time>2019-08-04T06:09:13.000Z</time>
      </trkpt>
      <trkpt lat="43.3643" lon="2.20714">
        <ele>503</ele>
        <time>2019-08-04T06:09:14.000Z</time>
      </trkpt>
      <trkpt lat="43.3643" lon="2.20714">
        <ele>503</ele>
        <time>2019-08-04T06:09:15.000Z</time>
      </trkpt>
      <trkpt lat="43.3643" lon="2.20714">
        <ele>503.1</ele>
        <time>2019-08-04T06:09:16.000Z</time>
      </trkpt>
      <trkpt lat="43.3643" lon="2.20714">
        <ele>503.1</ele>
        <time>2019-08-04T06:09:17.000Z</time>
      </trkpt>
      <trkpt lat="43.3643" lon="2.20714">
        <ele>503.1</ele>
        <time>2019-08-04T06:09:18.000Z</time>
      </trkpt>
      <trkpt lat="43.3643" lon="2.20714">
        <ele>503.1</ele>
        <time>2019-08-04T06:09:19.000Z</time>
      </trkpt>
      <trkpt lat="43.3643" lon="2.20714">
        <ele>503.1</ele>
        <time>2019-08-04T06:09:20.000Z</time>
      </trkpt>
      <trkpt lat="43.3643" lon="2.20714">
        <ele>503.1</ele>
        <time>2019-08-04T06:09:21.000Z</time>
      </trkpt>
      <trkpt lat="43.3643" lon="2.20714">
        <ele>503.1</ele>
        <time>2019-08-04T06:09:22.000Z</time>
      </trkpt>
      <trkpt lat="43.3643" lon="2.20714">
        <ele>503.1</ele>
        <time>2019-08-04T06:09:23.000Z</time>
      </trkpt>
      <trkpt lat="43.3643" lon="2.20714">
        <ele>503.1</ele>
        <time>2019-08-04T06:09:24.000Z</time>
      </trkpt>
      <trkpt lat="43.36431" lon="2.20713">
        <ele>503.1</ele>
        <time>2019-08-04T06:09:25.000Z</time>
      </trkpt>
      <trkpt lat="43.36431" lon="2.20713">
        <ele>503.1</ele>
        <time>2019-08-04T06:09:26.000Z</time>
      </trkpt>
      <trkpt lat="43.36431" lon="2.20712">
        <ele>503.2</ele>
        <time>2019-08-04T06:09:27.000Z</time>
      </trkpt>
      <trkpt lat="43.36432" lon="2.20711">
        <ele>503.2</ele>
        <time>2019-08-04T06:09:28.000Z</time>
      </trkpt>
      <trkpt lat="43.36432" lon="2.2071">
        <ele>503.3</ele>
        <time>2019-08-04T06:09:29.000Z</time>
      </trkpt>
      <trkpt lat="43.36433" lon="2.20709">
        <ele>503.5</ele>
        <time>2019-08-04T06:09:30.000Z</time>
      </trkpt>
      <trkpt lat="43.36433" lon="2.20707">
        <ele>503.6</ele>
        <time>2019-08-04T06:09:31.000Z</time>
      </trkpt>
      <trkpt lat="43.36434" lon="2.20706">
        <ele>503.7</ele>
        <time>2019-08-04T06:09:32.000Z</time>
      </trkpt>
      <trkpt lat="43.36434" lon="2.20704">
        <ele>503.8</ele>
        <time>2019-08-04T06:09:33.000Z</time>
      </trkpt>
      <trkpt lat="43.36434" lon="2.20702">
        <ele>503.9</ele>
        <time>2019-08-04T06:09:34.000Z</time>
      </trkpt>
      <trkpt lat="43.36435" lon="2.20701">
        <ele>504</ele>
        <time>2019-08-04T06:09:35.000Z</time>
      </trkpt>
      <trkpt lat="43.36435" lon="2.20699">
        <ele>504.1</ele>
        <time>2019-08-04T06:09:36.000Z</time>
      </trkpt>
      <trkpt lat="43.36435" lon="2.20697">
        <ele>504.2</ele>
        <time>2019-08-04T06:09:37.000Z</time>
      </trkpt>
      <trkpt lat="43.36435" lon="2.20696">
        <ele>504.3</ele>
        <time>2019-08-04T06:09:38.000Z</time>
      </trkpt>
      <trkpt lat="43.36436" lon="2.20695">
        <ele>504.4</ele>
        <time>2019-08-04T06:09:39.000Z</time>
      </trkpt>
      <trkpt lat="43.36436" lon="2.20693">
        <ele>504.5</ele>
        <time>2019-08-04T06:09:40.000Z</time>
      </trkpt>
      <trkpt lat="43.36436" lon="2.20692">
        <ele>504.6</ele>
        <time>2019-08-04T06:09:41.000Z</time>
      </trkpt>
      <trkpt lat="43.36436" lon="2.20691">
        <ele>504.7</ele>
        <time>2019-08-04T06:09:42.000Z</time>
      </trkpt>
      <trkpt lat="43.36436" lon="2.20691">
        <ele>504.7</ele>
        <time>2019-08-04T06:09:43.000Z</time>
      </trkpt>
      <trkpt lat="43.36436" lon="2.2069">
        <ele>504.8</ele>
        <time>2019-08-04T06:09:44.000Z</time>
      </trkpt>
      <trkpt lat="43.36437" lon="2.2069">
        <ele>504.8</ele>
        <time>2019-08-04T06:09:45.000Z</time>
      </trkpt>
      <trkpt lat="43.36437" lon="2.20689">
        <ele>504.8</ele>
        <time>2019-08-04T06:09:46.000Z</time>
      </trkpt>
      <trkpt lat="43.36437" lon="2.20689">
        <ele>504.8</ele>
        <time>2019-08-04T06:09:47.000Z</time>
      </trkpt>
      <trkpt lat="43.36437" lon="2.20689">
        <ele>504.8</ele>
        <time>2019-08-04T06:09:48.000Z</time>
      </trkpt>
      <trkpt lat="43.36437" lon="2.2069">
        <ele>504.8</ele>
        <time>2019-08-04T06:09:49.000Z</time>
      </trkpt>
      <trkpt lat="43.36437" lon="2.2069">
        <ele>504.8</ele>
        <time>2019-08-04T06:09:50.000Z</time>
      </trkpt>
      <trkpt lat="43.36437" lon="2.2069">
        <ele>504.8</ele>
        <time>2019-08-04T06:09:51.000Z</time>
      </trkpt>
      <trkpt lat="43.36437" lon="2.2069">
        <ele>504.8</ele>
        <time>2019-08-04T06:09:52.000Z</time>
      </trkpt>
      <trkpt lat="43.36437" lon="2.2069">
        <ele>504.8</ele>
        <time>2019-08-04T06:09:53.000Z</time>
      </trkpt>
      <trkpt lat="43.36437" lon="2.2069">
        <ele>504.8</ele>
        <time>2019-08-04T06:09:54.000Z</time>
      </trkpt>
      <trkpt lat="43.36437" lon="2.2069">
        <ele>504.8</ele>
        <time>2019-08-04T06:09:55.000Z</time>
      </trkpt>
      <trkpt lat="43.36437" lon="2.2069">
        <ele>504.8</ele>
        <time>2019-08-04T06:09:56.000Z</time>
      </trkpt>
      <trkpt lat="43.36437" lon="2.2069">
        <ele>504.8</ele>
        <time>2019-08-04T06:09:57.000Z</time>
      </trkpt>
      <trkpt lat="43.36437" lon="2.2069">
        <ele>504.8</ele>
        <time>2019-08-04T06:09:58.000Z</time>
      </trkpt>
      <trkpt lat="43.36437" lon="2.2069">
        <ele>504.8</ele>
        <time>2019-08-04T06:09:59.000Z</time>
      </trkpt>
      <trkpt lat="43.36437" lon="2.20691">
        <ele>504.8</ele>
        <time>2019-08-04T06:10:00.000Z</time>
      </trkpt>
      <trkpt lat="43.36437" lon="2.20691">
        <ele>504.8</ele>
        <time>2019-08-04T06:10:01.000Z</time>
      </trkpt>
      <trkpt lat="43.36437" lon="2.20691">
        <ele>504.8</ele>
        <time>2019-08-04T06:10:02.000Z</time>
      </trkpt>
      <trkpt lat="43.36437" lon="2.20691">
        <ele>504.8</ele>
        <time>2019-08-04T06:10:03.000Z</time>
      </trkpt>
      <trkpt lat="43.36437" lon="2.2069">
        <ele>504.8</ele>
        <time>2019-08-04T06:10:04.000Z</time>
      </trkpt>
      <trkpt lat="43.36436" lon="2.2069">
        <ele>504.7</ele>
        <time>2019-08-04T06:10:05.000Z</time>
      </trkpt>
      <trkpt lat="43.36436" lon="2.2069">
        <ele>504.7</ele>
        <time>2019-08-04T06:10:06.000Z</time>
      </trkpt>
      <trkpt lat="43.36436" lon="2.20691">
        <ele>504.7</ele>
        <time>2019-08-04T06:10:07.000Z</time>
      </trkpt>
      <trkpt lat="43.36436" lon="2.20691">
        <ele>504.6</ele>
        <time>2019-08-04T06:10:08.000Z</time>
      </trkpt>
      <trkpt lat="43.36436" lon="2.20692">
        <ele>504.6</ele>
        <time>2019-08-04T06:10:09.000Z</time>
      </trkpt>
      <trkpt lat="43.36436" lon="2.20692">
        <ele>504.6</ele>
        <time>2019-08-04T06:10:10.000Z</time>
      </trkpt>
      <trkpt lat="43.36436" lon="2.20693">
        <ele>504.6</ele>
        <time>2019-08-04T06:10:11.000Z</time>
      </trkpt>
      <trkpt lat="43.36437" lon="2.20694">
        <ele>504.6</ele>
        <time>2019-08-04T06:10:12.000Z</time>
      </trkpt>
      <trkpt lat="43.36437" lon="2.20694">
        <ele>504.6</ele>
        <time>2019-08-04T06:10:13.000Z</time>
      </trkpt>
      <trkpt lat="43.36437" lon="2.20695">
        <ele>504.6</ele>
        <time>2019-08-04T06:10:14.000Z</time>
      </trkpt>
      <trkpt lat="43.36438" lon="2.20695">
        <ele>504.6</ele>
        <time>2019-08-04T06:10:15.000Z</time>
      </trkpt>
      <trkpt lat="43.36438" lon="2.20695">
        <ele>504.6</ele>
        <time>2019-08-04T06:10:16.000Z</time>
      </trkpt>
      <trkpt lat="43.36438" lon="2.20696">
        <ele>504.6</ele>
        <time>2019-08-04T06:10:17.000Z</time>
      </trkpt>
      <trkpt lat="43.36438" lon="2.20696">
        <ele>504.6</ele>
        <time>2019-08-04T06:10:18.000Z</time>
      </trkpt>
      <trkpt lat="43.36438" lon="2.20696">
        <ele>504.6</ele>
        <time>2019-08-04T06:10:19.000Z</time>
      </trkpt>
      <trkpt lat="43.36439" lon="2.20696">
        <ele>504.6</ele>
        <time>2019-08-04T06:10:20.000Z</time>
      </trkpt>
      <trkpt lat="43.36439" lon="2.20696">
        <ele>504.6</ele>
        <time>2019-08-04T06:10:21.000Z</time>
      </trkpt>
      <trkpt lat="43.36439" lon="2.20696">
        <ele>504.6</ele>
        <time>2019-08-04T06:10:22.000Z</time>
      </trkpt>
      <trkpt lat="43.36439" lon="2.20696">
        <ele>504.6</ele>
        <time>2019-08-04T06:10:23.000Z</time>
      </trkpt>
      <trkpt lat="43.36439" lon="2.20696">
        <ele>504.6</ele>
        <time>2019-08-04T06:10:24.000Z</time>
      </trkpt>
      <trkpt lat="43.36439" lon="2.20696">
        <ele>504.6</ele>
        <time>2019-08-04T06:10:25.000Z</time>
      </trkpt>
      <trkpt lat="43.36439" lon="2.20696">
        <ele>504.6</ele>
        <time>2019-08-04T06:10:26.000Z</time>
      </trkpt>
      <trkpt lat="43.36439" lon="2.20696">
        <ele>504.6</ele>
        <time>2019-08-04T06:10:27.000Z</time>
      </trkpt>
      <trkpt lat="43.36439" lon="2.20696">
        <ele>504.6</ele>
        <time>2019-08-04T06:10:28.000Z</time>
      </trkpt>
      <trkpt lat="43.36439" lon="2.20696">
        <ele>504.6</ele>
        <time>2019-08-04T06:10:29.000Z</time>
      </trkpt>
      <trkpt lat="43.36439" lon="2.20696">
        <ele>504.6</ele>
        <time>2019-08-04T06:10:30.000Z</time>
      </trkpt>
      <trkpt lat="43.36439" lon="2.20696">
        <ele>504.6</ele>
        <time>2019-08-04T06:10:31.000Z</time>
      </trkpt>
      <trkpt lat="43.36439" lon="2.20696">
        <ele>504.6</ele>
        <time>2019-08-04T06:10:32.000Z</time>
      </trkpt>
      <trkpt lat="43.36439" lon="2.20697">
        <ele>504.5</ele>
        <time>2019-08-04T06:10:33.000Z</time>
      </trkpt>
      <trkpt lat="43.36439" lon="2.20697">
        <ele>504.5</ele>
        <time>2019-08-04T06:10:34.000Z</time>
      </trkpt>
      <trkpt lat="43.36439" lon="2.20697">
        <ele>504.5</ele>
        <time>2019-08-04T06:10:35.000Z</time>
      </trkpt>
      <trkpt lat="43.36439" lon="2.20697">
        <ele>504.5</ele>
        <time>2019-08-04T06:10:36.000Z</time>
      </trkpt>
      <trkpt lat="43.36439" lon="2.20697">
        <ele>504.5</ele>
        <time>2019-08-04T06:10:37.000Z</time>
      </trkpt>
      <trkpt lat="43.36439" lon="2.20697">
        <ele>504.5</ele>
        <time>2019-08-04T06:10:38.000Z</time>
      </trkpt>
      <trkpt lat="43.36439" lon="2.20697">
        <ele>504.5</ele>
        <time>2019-08-04T06:10:39.000Z</time>
      </trkpt>
      <trkpt lat="43.36439" lon="2.20697">
        <ele>504.5</ele>
        <time>2019-08-04T06:10:40.000Z</time>
      </trkpt>
      <trkpt lat="43.36439" lon="2.20697">
        <ele>504.5</ele>
        <time>2019-08-04T06:10:41.000Z</time>
      </trkpt>
      <trkpt lat="43.36439" lon="2.20697">
        <ele>504.5</ele>
        <time>2019-08-04T06:10:42.000Z</time>
      </trkpt>
      <trkpt lat="43.36439" lon="2.20697">
        <ele>504.5</ele>
        <time>2019-08-04T06:10:43.000Z</time>
      </trkpt>
      <trkpt lat="43.36439" lon="2.20697">
        <ele>504.5</ele>
        <time>2019-08-04T06:10:44.000Z</time>
      </trkpt>
      <trkpt lat="43.36439" lon="2.20697">
        <ele>504.5</ele>
        <time>2019-08-04T06:10:45.000Z</time>
      </trkpt>
      <trkpt lat="43.36439" lon="2.20697">
        <ele>504.5</ele>
        <time>2019-08-04T06:10:46.000Z</time>
      </trkpt>
      <trkpt lat="43.36439" lon="2.20697">
        <ele>504.5</ele>
        <time>2019-08-04T06:10:47.000Z</time>
      </trkpt>
      <trkpt lat="43.36439" lon="2.20697">
        <ele>504.5</ele>
        <time>2019-08-04T06:10:48.000Z</time>
      </trkpt>
      <trkpt lat="43.36439" lon="2.20697">
        <ele>504.5</ele>
        <time>2019-08-04T06:10:49.000Z</time>
      </trkpt>
      <trkpt lat="43.36439" lon="2.20697">
        <ele>504.5</ele>
        <time>2019-08-04T06:10:50.000Z</time>
      </trkpt>
      <trkpt lat="43.36439" lon="2.20697">
        <ele>504.5</ele>
        <time>2019-08-04T06:10:51.000Z</time>
      </trkpt>
      <trkpt lat="43.36439" lon="2.20697">
        <ele>504.5</ele>
        <time>2019-08-04T06:10:52.000Z</time>
      </trkpt>
      <trkpt lat="43.36439" lon="2.20697">
        <ele>504.5</ele>
        <time>2019-08-04T06:10:53.000Z</time>
      </trkpt>
      <trkpt lat="43.36439" lon="2.20697">
        <ele>504.5</ele>
        <time>2019-08-04T06:10:54.000Z</time>
      </trkpt>
      <trkpt lat="43.36439" lon="2.20697">
        <ele>504.5</ele>
        <time>2019-08-04T06:10:55.000Z</time>
      </trkpt>
      <trkpt lat="43.36439" lon="2.20697">
        <ele>504.5</ele>
        <time>2019-08-04T06:10:56.000Z</time>
      </trkpt>
      <trkpt lat="43.36439" lon="2.20697">
        <ele>504.5</ele>
        <time>2019-08-04T06:10:57.000Z</time>
      </trkpt>
      <trkpt lat="43.36439" lon="2.20697">
        <ele>504.5</ele>
        <time>2019-08-04T06:10:58.000Z</time>
      </trkpt>
      <trkpt lat="43.36439" lon="2.20697">
        <ele>504.5</ele>
        <time>2019-08-04T06:10:59.000Z</time>
      </trkpt>
      <trkpt lat="43.36439" lon="2.20697">
        <ele>504.5</ele>
        <time>2019-08-04T06:11:00.000Z</time>
      </trkpt>
      <trkpt lat="43.36439" lon="2.20698">
        <ele>504.5</ele>
        <time>2019-08-04T06:11:01.000Z</time>
      </trkpt>
      <trkpt lat="43.36439" lon="2.20698">
        <ele>504.5</ele>
        <time>2019-08-04T06:11:02.000Z</time>
      </trkpt>
      <trkpt lat="43.36439" lon="2.20698">
        <ele>504.5</ele>
        <time>2019-08-04T06:11:03.000Z</time>
      </trkpt>
      <trkpt lat="43.36439" lon="2.20698">
        <ele>504.5</ele>
        <time>2019-08-04T06:11:04.000Z</time>
      </trkpt>
      <trkpt lat="43.36439" lon="2.20699">
        <ele>504.4</ele>
        <time>2019-08-04T06:11:05.000Z</time>
      </trkpt>
      <trkpt lat="43.36439" lon="2.207">
        <ele>504.4</ele>
        <time>2019-08-04T06:11:06.000Z</time>
      </trkpt>
      <trkpt lat="43.36439" lon="2.20701">
        <ele>504.3</ele>
        <time>2019-08-04T06:11:07.000Z</time>
      </trkpt>
      <trkpt lat="43.36439" lon="2.20702">
        <ele>504.2</ele>
        <time>2019-08-04T06:11:08.000Z</time>
      </trkpt>
      <trkpt lat="43.36439" lon="2.20703">
        <ele>504.1</ele>
        <time>2019-08-04T06:11:09.000Z</time>
      </trkpt>
      <trkpt lat="43.36439" lon="2.20705">
        <ele>504</ele>
        <time>2019-08-04T06:11:10.000Z</time>
      </trkpt>
      <trkpt lat="43.36438" lon="2.20707">
        <ele>503.9</ele>
        <time>2019-08-04T06:11:11.000Z</time>
      </trkpt>
      <trkpt lat="43.36438" lon="2.20708">
        <ele>503.8</ele>
        <time>2019-08-04T06:11:12.000Z</time>
      </trkpt>
      <trkpt lat="43.36438" lon="2.2071">
        <ele>503.7</ele>
        <time>2019-08-04T06:11:13.000Z</time>
      </trkpt>
      <trkpt lat="43.36438" lon="2.20711">
        <ele>503.6</ele>
        <time>2019-08-04T06:11:14.000Z</time>
      </trkpt>
      <trkpt lat="43.36438" lon="2.20712">
        <ele>503.5</ele>
        <time>2019-08-04T06:11:15.000Z</time>
      </trkpt>
      <trkpt lat="43.36437" lon="2.20713">
        <ele>503.4</ele>
        <time>2019-08-04T06:11:16.000Z</time>
      </trkpt>
      <trkpt lat="43.36437" lon="2.20714">
        <ele>503.4</ele>
        <time>2019-08-04T06:11:17.000Z</time>
      </trkpt>
      <trkpt lat="43.36437" lon="2.20715">
        <ele>503.3</ele>
        <time>2019-08-04T06:11:18.000Z</time>
      </trkpt>
      <trkpt lat="43.36436" lon="2.20716">
        <ele>503.2</ele>
        <time>2019-08-04T06:11:19.000Z</time>
      </trkpt>
      <trkpt lat="43.36436" lon="2.20717">
        <ele>503.1</ele>
        <time>2019-08-04T06:11:20.000Z</time>
      </trkpt>
      <trkpt lat="43.36436" lon="2.20718">
        <ele>503.1</ele>
        <time>2019-08-04T06:11:21.000Z</time>
      </trkpt>
      <trkpt lat="43.36435" lon="2.20719">
        <ele>503</ele>
        <time>2019-08-04T06:11:22.000Z</time>
      </trkpt>
      <trkpt lat="43.36435" lon="2.2072">
        <ele>502.9</ele>
        <time>2019-08-04T06:11:23.000Z</time>
      </trkpt>
      <trkpt lat="43.36434" lon="2.2072">
        <ele>502.9</ele>
        <time>2019-08-04T06:11:24.000Z</time>
      </trkpt>
      <trkpt lat="43.36434" lon="2.20721">
        <ele>502.8</ele>
        <time>2019-08-04T06:11:25.000Z</time>
      </trkpt>
      <trkpt lat="43.36435" lon="2.20722">
        <ele>502.8</ele>
        <time>2019-08-04T06:11:26.000Z</time>
      </trkpt>
      <trkpt lat="43.36435" lon="2.20722">
        <ele>502.8</ele>
        <time>2019-08-04T06:11:27.000Z</time>
      </trkpt>
      <trkpt lat="43.36436" lon="2.20723">
        <ele>502.8</ele>
        <time>2019-08-04T06:11:28.000Z</time>
      </trkpt>
      <trkpt lat="43.36438" lon="2.20723">
        <ele>502.9</ele>
        <time>2019-08-04T06:11:29.000Z</time>
      </trkpt>
      <trkpt lat="43.36439" lon="2.20723">
        <ele>502.9</ele>
        <time>2019-08-04T06:11:30.000Z</time>
      </trkpt>
      <trkpt lat="43.36441" lon="2.20724">
        <ele>503</ele>
        <time>2019-08-04T06:11:31.000Z</time>
      </trkpt>
      <trkpt lat="43.36442" lon="2.20724">
        <ele>503</ele>
        <time>2019-08-04T06:11:32.000Z</time>
      </trkpt>
      <trkpt lat="43.36443" lon="2.20724">
        <ele>503</ele>
        <time>2019-08-04T06:11:33.000Z</time>
      </trkpt>
      <trkpt lat="43.36444" lon="2.20724">
        <ele>503</ele>
        <time>2019-08-04T06:11:34.000Z</time>
      </trkpt>
      <trkpt lat="43.36444" lon="2.20725">
        <ele>503</ele>
        <time>2019-08-04T06:11:35.000Z</time>
      </trkpt>
      <trkpt lat="43.36444" lon="2.20725">
        <ele>503</ele>
        <time>2019-08-04T06:11:36.000Z</time>
      </trkpt>
      <trkpt lat="43.36445" lon="2.20726">
        <ele>503</ele>
        <time>2019-08-04T06:11:37.000Z</time>
      </trkpt>
      <trkpt lat="43.36446" lon="2.20726">
        <ele>503</ele>
        <time>2019-08-04T06:11:38.000Z</time>
      </trkpt>
      <trkpt lat="43.36446" lon="2.20727">
        <ele>503</ele>
        <time>2019-08-04T06:11:39.000Z</time>
      </trkpt>
      <trkpt lat="43.36447" lon="2.20728">
        <ele>502.9</ele>
        <time>2019-08-04T06:11:40.000Z</time>
      </trkpt>
      <trkpt lat="43.36448" lon="2.20729">
        <ele>502.9</ele>
        <time>2019-08-04T06:11:41.000Z</time>
      </trkpt>
      <trkpt lat="43.36449" lon="2.2073">
        <ele>502.9</ele>
        <time>2019-08-04T06:11:42.000Z</time>
      </trkpt>
      <trkpt lat="43.3645" lon="2.2073">
        <ele>502.9</ele>
        <time>2019-08-04T06:11:43.000Z</time>
      </trkpt>
      <trkpt lat="43.36451" lon="2.20731">
        <ele>502.8</ele>
        <time>2019-08-04T06:11:44.000Z</time>
      </trkpt>
      <trkpt lat="43.36452" lon="2.20731">
        <ele>502.8</ele>
        <time>2019-08-04T06:11:45.000Z</time>
      </trkpt>
      <trkpt lat="43.36453" lon="2.20732">
        <ele>502.9</ele>
        <time>2019-08-04T06:11:46.000Z</time>
      </trkpt>
      <trkpt lat="43.36454" lon="2.20732">
        <ele>502.9</ele>
        <time>2019-08-04T06:11:47.000Z</time>
      </trkpt>
      <trkpt lat="43.36455" lon="2.20732">
        <ele>502.9</ele>
        <time>2019-08-04T06:11:48.000Z</time>
      </trkpt>
      <trkpt lat="43.36456" lon="2.20732">
        <ele>502.9</ele>
        <time>2019-08-04T06:11:49.000Z</time>
      </trkpt>
      <trkpt lat="43.36457" lon="2.20732">
        <ele>503</ele>
        <time>2019-08-04T06:11:50.000Z</time>
      </trkpt>
      <trkpt lat="43.36458" lon="2.20732">
        <ele>503</ele>
        <time>2019-08-04T06:11:51.000Z</time>
      </trkpt>
      <trkpt lat="43.36459" lon="2.20732">
        <ele>503</ele>
        <time>2019-08-04T06:11:52.000Z</time>
      </trkpt>
      <trkpt lat="43.3646" lon="2.20732">
        <ele>503.1</ele>
        <time>2019-08-04T06:11:53.000Z</time>
      </trkpt>
      <trkpt lat="43.36461" lon="2.20732">
        <ele>503.1</ele>
        <time>2019-08-04T06:11:54.000Z</time>
      </trkpt>
      <trkpt lat="43.36462" lon="2.20732">
        <ele>503.1</ele>
        <time>2019-08-04T06:11:55.000Z</time>
      </trkpt>
      <trkpt lat="43.36463" lon="2.20732">
        <ele>503.1</ele>
        <time>2019-08-04T06:11:56.000Z</time>
      </trkpt>
      <trkpt lat="43.36463" lon="2.20732">
        <ele>503.1</ele>
        <time>2019-08-04T06:11:57.000Z</time>
      </trkpt>
      <trkpt lat="43.36464" lon="2.20733">
        <ele>503.1</ele>
        <time>2019-08-04T06:11:58.000Z</time>
      </trkpt>
      <trkpt lat="43.36464" lon="2.20733">
        <ele>503.1</ele>
        <time>2019-08-04T06:11:59.000Z</time>
      </trkpt>
      <trkpt lat="43.36465" lon="2.20733">
        <ele>503.1</ele>
        <time>2019-08-04T06:12:00.000Z</time>
      </trkpt>
      <trkpt lat="43.36465" lon="2.20734">
        <ele>503.1</ele>
        <time>2019-08-04T06:12:01.000Z</time>
      </trkpt>
      <trkpt lat="43.36465" lon="2.20734">
        <ele>503</ele>
        <time>2019-08-04T06:12:02.000Z</time>
      </trkpt>
      <trkpt lat="43.36465" lon="2.20735">
        <ele>503</ele>
        <time>2019-08-04T06:12:03.000Z</time>
      </trkpt>
      <trkpt lat="43.36464" lon="2.20736">
        <ele>502.9</ele>
        <time>2019-08-04T06:12:04.000Z</time>
      </trkpt>
      <trkpt lat="43.36464" lon="2.20736">
        <ele>502.8</ele>
        <time>2019-08-04T06:12:05.000Z</time>
      </trkpt>
      <trkpt lat="43.36463" lon="2.20736">
        <ele>502.8</ele>
        <time>2019-08-04T06:12:06.000Z</time>
      </trkpt>
      <trkpt lat="43.36462" lon="2.20737">
        <ele>502.7</ele>
        <time>2019-08-04T06:12:07.000Z</time>
      </trkpt>
      <trkpt lat="43.36461" lon="2.20736">
        <ele>502.7</ele>
        <time>2019-08-04T06:12:08.000Z</time>
      </trkpt>
      <trkpt lat="43.3646" lon="2.20736">
        <ele>502.7</ele>
        <time>2019-08-04T06:12:09.000Z</time>
      </trkpt>
      <trkpt lat="43.3646" lon="2.20736">
        <ele>502.7</ele>
        <time>2019-08-04T06:12:10.000Z</time>
      </trkpt>
      <trkpt lat="43.36459" lon="2.20736">
        <ele>502.7</ele>
        <time>2019-08-04T06:12:11.000Z</time>
      </trkpt>
      <trkpt lat="43.36458" lon="2.20735">
        <ele>502.7</ele>
        <time>2019-08-04T06:12:12.000Z</time>
      </trkpt>
      <trkpt lat="43.36458" lon="2.20735">
        <ele>502.8</ele>
        <time>2019-08-04T06:12:13.000Z</time>
      </trkpt>
      <trkpt lat="43.36457" lon="2.20734">
        <ele>502.8</ele>
        <time>2019-08-04T06:12:14.000Z</time>
      </trkpt>
      <trkpt lat="43.36456" lon="2.20734">
        <ele>502.8</ele>
        <time>2019-08-04T06:12:15.000Z</time>
      </trkpt>
      <trkpt lat="43.36455" lon="2.20734">
        <ele>502.8</ele>
        <time>2019-08-04T06:12:16.000Z</time>
      </trkpt>
      <trkpt lat="43.36454" lon="2.20733">
        <ele>502.8</ele>
        <time>2019-08-04T06:12:17.000Z</time>
      </trkpt>
      <trkpt lat="43.36453" lon="2.20733">
        <ele>502.8</ele>
        <time>2019-08-04T06:12:18.000Z</time>
      </trkpt>
      <trkpt lat="43.36452" lon="2.20732">
        <ele>502.8</ele>
        <time>2019-08-04T06:12:19.000Z</time>
      </trkpt>
      <trkpt lat="43.36451" lon="2.20732">
        <ele>502.8</ele>
        <time>2019-08-04T06:12:20.000Z</time>
      </trkpt>
      <trkpt lat="43.3645" lon="2.20731">
        <ele>502.8</ele>
        <time>2019-08-04T06:12:21.000Z</time>
      </trkpt>
      <trkpt lat="43.36449" lon="2.20731">
        <ele>502.8</ele>
        <time>2019-08-04T06:12:22.000Z</time>
      </trkpt>
      <trkpt lat="43.36448" lon="2.2073">
        <ele>502.8</ele>
        <time>2019-08-04T06:12:23.000Z</time>
      </trkpt>
      <trkpt lat="43.36446" lon="2.2073">
        <ele>502.8</ele>
        <time>2019-08-04T06:12:24.000Z</time>
      </trkpt>
      <trkpt lat="43.36445" lon="2.2073">
        <ele>502.8</ele>
        <time>2019-08-04T06:12:25.000Z</time>
      </trkpt>
      <trkpt lat="43.36444" lon="2.20729">
        <ele>502.7</ele>
        <time>2019-08-04T06:12:26.000Z</time>
      </trkpt>
      <trkpt lat="43.36443" lon="2.20729">
        <ele>502.7</ele>
        <time>2019-08-04T06:12:27.000Z</time>
      </trkpt>
      <trkpt lat="43.36442" lon="2.20729">
        <ele>502.7</ele>
        <time>2019-08-04T06:12:28.000Z</time>
      </trkpt>
      <trkpt lat="43.36441" lon="2.20729">
        <ele>502.7</ele>
        <time>2019-08-04T06:12:29.000Z</time>
      </trkpt>
      <trkpt lat="43.3644" lon="2.20728">
        <ele>502.7</ele>
        <time>2019-08-04T06:12:30.000Z</time>
      </trkpt>
      <trkpt lat="43.3644" lon="2.20728">
        <ele>502.6</ele>
        <time>2019-08-04T06:12:31.000Z</time>
      </trkpt>
      <trkpt lat="43.36439" lon="2.20728">
        <ele>502.6</ele>
        <time>2019-08-04T06:12:32.000Z</time>
      </trkpt>
      <trkpt lat="43.36438" lon="2.20727">
        <ele>502.6</ele>
        <time>2019-08-04T06:12:33.000Z</time>
      </trkpt>
      <trkpt lat="43.36436" lon="2.20726">
        <ele>502.6</ele>
        <time>2019-08-04T06:12:34.000Z</time>
      </trkpt>
      <trkpt lat="43.36435" lon="2.20725">
        <ele>502.7</ele>
        <time>2019-08-04T06:12:35.000Z</time>
      </trkpt>
      <trkpt lat="43.36434" lon="2.20723">
        <ele>502.7</ele>
        <time>2019-08-04T06:12:36.000Z</time>
      </trkpt>
      <trkpt lat="43.36432" lon="2.20721">
        <ele>502.7</ele>
        <time>2019-08-04T06:12:37.000Z</time>
      </trkpt>
      <trkpt lat="43.36431" lon="2.20719">
        <ele>502.8</ele>
        <time>2019-08-04T06:12:38.000Z</time>
      </trkpt>
      <trkpt lat="43.36431" lon="2.20716">
        <ele>502.9</ele>
        <time>2019-08-04T06:12:39.000Z</time>
      </trkpt>
      <trkpt lat="43.36431" lon="2.20713">
        <ele>503.1</ele>
        <time>2019-08-04T06:12:40.000Z</time>
      </trkpt>
      <trkpt lat="43.36431" lon="2.20709">
        <ele>503.3</ele>
        <time>2019-08-04T06:12:41.000Z</time>
      </trkpt>
      <trkpt lat="43.36431" lon="2.20705">
        <ele>503.5</ele>
        <time>2019-08-04T06:12:42.000Z</time>
      </trkpt>
      <trkpt lat="43.36431" lon="2.20701">
        <ele>503.8</ele>
        <time>2019-08-04T06:12:43.000Z</time>
      </trkpt>
      <trkpt lat="43.36432" lon="2.20698">
        <ele>503.9</ele>
        <time>2019-08-04T06:12:44.000Z</time>
      </trkpt>
      <trkpt lat="43.36432" lon="2.20695">
        <ele>504.1</ele>
        <time>2019-08-04T06:12:45.000Z</time>
      </trkpt>
      <trkpt lat="43.36432" lon="2.20692">
        <ele>504.3</ele>
        <time>2019-08-04T06:12:46.000Z</time>
      </trkpt>
      <trkpt lat="43.36432" lon="2.20689">
        <ele>504.5</ele>
        <time>2019-08-04T06:12:47.000Z</time>
      </trkpt>
      <trkpt lat="43.36432" lon="2.20687">
        <ele>504.6</ele>
        <time>2019-08-04T06:12:48.000Z</time>
      </trkpt>
      <trkpt lat="43.36432" lon="2.20684">
        <ele>504.7</ele>
        <time>2019-08-04T06:12:49.000Z</time>
      </trkpt>
      <trkpt lat="43.36432" lon="2.20682">
        <ele>504.9</ele>
        <time>2019-08-04T06:12:50.000Z</time>
      </trkpt>
      <trkpt lat="43.36433" lon="2.2068">
        <ele>505</ele>
        <time>2019-08-04T06:12:51.000Z</time>
      </trkpt>
      <trkpt lat="43.36433" lon="2.20678">
        <ele>505.1</ele>
        <time>2019-08-04T06:12:52.000Z</time>
      </trkpt>
      <trkpt lat="43.36433" lon="2.20676">
        <ele>505.3</ele>
        <time>2019-08-04T06:12:53.000Z</time>
      </trkpt>
      <trkpt lat="43.36433" lon="2.20674">
        <ele>505.4</ele>
        <time>2019-08-04T06:12:54.000Z</time>
      </trkpt>
      <trkpt lat="43.36434" lon="2.20673">
        <ele>505.5</ele>
        <time>2019-08-04T06:12:55.000Z</time>
      </trkpt>
      <trkpt lat="43.36434" lon="2.20672">
        <ele>505.6</ele>
        <time>2019-08-04T06:12:56.000Z</time>
      </trkpt>
      <trkpt lat="43.36434" lon="2.20671">
        <ele>505.7</ele>
        <time>2019-08-04T06:12:57.000Z</time>
      </trkpt>
      <trkpt lat="43.36435" lon="2.2067">
        <ele>505.8</ele>
        <time>2019-08-04T06:12:58.000Z</time>
      </trkpt>
      <trkpt lat="43.36435" lon="2.2067">
        <ele>505.8</ele>
        <time>2019-08-04T06:12:59.000Z</time>
      </trkpt>
      <trkpt lat="43.36436" lon="2.20669">
        <ele>505.9</ele>
        <time>2019-08-04T06:13:00.000Z</time>
      </trkpt>
      <trkpt lat="43.36436" lon="2.20669">
        <ele>506</ele>
        <time>2019-08-04T06:13:01.000Z</time>
      </trkpt>
      <trkpt lat="43.36437" lon="2.20669">
        <ele>506</ele>
        <time>2019-08-04T06:13:02.000Z</time>
      </trkpt>
      <trkpt lat="43.36438" lon="2.20669">
        <ele>506.1</ele>
        <time>2019-08-04T06:13:03.000Z</time>
      </trkpt>
      <trkpt lat="43.36439" lon="2.2067">
        <ele>506.2</ele>
        <time>2019-08-04T06:13:04.000Z</time>
      </trkpt>
      <trkpt lat="43.3644" lon="2.2067">
        <ele>506.3</ele>
        <time>2019-08-04T06:13:05.000Z</time>
      </trkpt>
      <trkpt lat="43.36441" lon="2.20671">
        <ele>506.3</ele>
        <time>2019-08-04T06:13:06.000Z</time>
      </trkpt>
      <trkpt lat="43.36442" lon="2.20671">
        <ele>506.4</ele>
        <time>2019-08-04T06:13:07.000Z</time>
      </trkpt>
      <trkpt lat="43.36443" lon="2.20672">
        <ele>506.5</ele>
        <time>2019-08-04T06:13:08.000Z</time>
      </trkpt>
      <trkpt lat="43.36444" lon="2.20673">
        <ele>506.5</ele>
        <time>2019-08-04T06:13:09.000Z</time>
      </trkpt>
      <trkpt lat="43.36444" lon="2.20673">
        <ele>506.5</ele>
        <time>2019-08-04T06:13:10.000Z</time>
      </trkpt>
      <trkpt lat="43.36445" lon="2.20674">
        <ele>506.6</ele>
        <time>2019-08-04T06:13:11.000Z</time>
      </trkpt>
      <trkpt lat="43.36446" lon="2.20675">
        <ele>506.6</ele>
        <time>2019-08-04T06:13:12.000Z</time>
      </trkpt>
      <trkpt lat="43.36447" lon="2.20675">
        <ele>506.6</ele>
        <time>2019-08-04T06:13:13.000Z</time>
      </trkpt>
      <trkpt lat="43.36447" lon="2.20676">
        <ele>506.6</ele>
        <time>2019-08-04T06:13:14.000Z</time>
      </trkpt>
      <trkpt lat="43.36448" lon="2.20677">
        <ele>506.7</ele>
        <time>2019-08-04T06:13:15.000Z</time>
      </trkpt>
      <trkpt lat="43.36449" lon="2.20677">
        <ele>506.7</ele>
        <time>2019-08-04T06:13:16.000Z</time>
      </trkpt>
      <trkpt lat="43.3645" lon="2.20678">
        <ele>506.8</ele>
        <time>2019-08-04T06:13:17.000Z</time>
      </trkpt>
      <trkpt lat="43.36451" lon="2.20678">
        <ele>506.8</ele>
        <time>2019-08-04T06:13:18.000Z</time>
      </trkpt>
      <trkpt lat="43.36452" lon="2.20679">
        <ele>506.9</ele>
        <time>2019-08-04T06:13:19.000Z</time>
      </trkpt>
      <trkpt lat="43.36453" lon="2.20679">
        <ele>507</ele>
        <time>2019-08-04T06:13:20.000Z</time>
      </trkpt>
      <trkpt lat="43.36455" lon="2.2068">
        <ele>507.1</ele>
        <time>2019-08-04T06:13:21.000Z</time>
      </trkpt>
      <trkpt lat="43.36457" lon="2.2068">
        <ele>507.2</ele>
        <time>2019-08-04T06:13:22.000Z</time>
      </trkpt>
      <trkpt lat="43.36458" lon="2.20681">
        <ele>507.3</ele>
        <time>2019-08-04T06:13:23.000Z</time>
      </trkpt>
      <trkpt lat="43.3646" lon="2.20682">
        <ele>507.4</ele>
        <time>2019-08-04T06:13:24.000Z</time>
      </trkpt>
      <trkpt lat="43.36462" lon="2.20682">
        <ele>507.5</ele>
        <time>2019-08-04T06:13:25.000Z</time>
      </trkpt>
      <trkpt lat="43.36464" lon="2.20683">
        <ele>507.6</ele>
        <time>2019-08-04T06:13:26.000Z</time>
      </trkpt>
      <trkpt lat="43.36466" lon="2.20684">
        <ele>507.7</ele>
        <time>2019-08-04T06:13:27.000Z</time>
      </trkpt>
      <trkpt lat="43.36468" lon="2.20685">
        <ele>507.8</ele>
        <time>2019-08-04T06:13:28.000Z</time>
      </trkpt>
      <trkpt lat="43.3647" lon="2.20686">
        <ele>507.9</ele>
        <time>2019-08-04T06:13:29.000Z</time>
      </trkpt>
      <trkpt lat="43.36472" lon="2.20688">
        <ele>507.9</ele>
        <time>2019-08-04T06:13:30.000Z</time>
      </trkpt>
      <trkpt lat="43.36474" lon="2.20689">
        <ele>508</ele>
        <time>2019-08-04T06:13:31.000Z</time>
      </trkpt>
      <trkpt lat="43.36476" lon="2.2069">
        <ele>508</ele>
        <time>2019-08-04T06:13:32.000Z</time>
      </trkpt>
      <trkpt lat="43.36478" lon="2.20691">
        <ele>508</ele>
        <time>2019-08-04T06:13:33.000Z</time>
      </trkpt>
      <trkpt lat="43.3648" lon="2.20692">
        <ele>508.1</ele>
        <time>2019-08-04T06:13:34.000Z</time>
      </trkpt>
      <trkpt lat="43.36482" lon="2.20693">
        <ele>508.1</ele>
        <time>2019-08-04T06:13:35.000Z</time>
      </trkpt>
      <trkpt lat="43.36484" lon="2.20694">
        <ele>508.1</ele>
        <time>2019-08-04T06:13:36.000Z</time>
      </trkpt>
      <trkpt lat="43.36486" lon="2.20695">
        <ele>508.2</ele>
        <time>2019-08-04T06:13:37.000Z</time>
      </trkpt>
      <trkpt lat="43.36488" lon="2.20696">
        <ele>508.2</ele>
        <time>2019-08-04T06:13:38.000Z</time>
      </trkpt>
      <trkpt lat="43.3649" lon="2.20697">
        <ele>508.3</ele>
        <time>2019-08-04T06:13:39.000Z</time>
      </trkpt>
      <trkpt lat="43.36492" lon="2.20697">
        <ele>508.3</ele>
        <time>2019-08-04T06:13:40.000Z</time>
      </trkpt>
      <trkpt lat="43.36494" lon="2.20698">
        <ele>508.4</ele>
        <time>2019-08-04T06:13:41.000Z</time>
      </trkpt>
      <trkpt lat="43.36495" lon="2.20699">
        <ele>508.5</ele>
        <time>2019-08-04T06:13:42.000Z</time>
      </trkpt>
      <trkpt lat="43.36497" lon="2.20699">
        <ele>508.5</ele>
        <time>2019-08-04T06:13:43.000Z</time>
      </trkpt>
      <trkpt lat="43.36499" lon="2.207">
        <ele>508.6</ele>
        <time>2019-08-04T06:13:44.000Z</time>
      </trkpt>
      <trkpt lat="43.36501" lon="2.207">
        <ele>508.7</ele>
        <time>2019-08-04T06:13:45.000Z</time>
      </trkpt>
      <trkpt lat="43.36502" lon="2.20701">
        <ele>508.9</ele>
        <time>2019-08-04T06:13:46.000Z</time>
      </trkpt>
      <trkpt lat="43.36504" lon="2.20701">
        <ele>509.2</ele>
        <time>2019-08-04T06:13:47.000Z</time>
      </trkpt>
      <trkpt lat="43.36506" lon="2.20701">
        <ele>509.4</ele>
        <time>2019-08-04T06:13:48.000Z</time>
      </trkpt>
      <trkpt lat="43.36507" lon="2.20702">
        <ele>509.6</ele>
        <time>2019-08-04T06:13:49.000Z</time>
      </trkpt>
      <trkpt lat="43.36509" lon="2.20702">
        <ele>509.9</ele>
        <time>2019-08-04T06:13:50.000Z</time>
      </trkpt>
      <trkpt lat="43.36511" lon="2.20703">
        <ele>510.1</ele>
        <time>2019-08-04T06:13:51.000Z</time>
      </trkpt>
      <trkpt lat="43.36512" lon="2.20703">
        <ele>510.3</ele>
        <time>2019-08-04T06:13:52.000Z</time>
      </trkpt>
      <trkpt lat="43.36514" lon="2.20704">
        <ele>510.5</ele>
        <time>2019-08-04T06:13:53.000Z</time>
      </trkpt>
      <trkpt lat="43.36515" lon="2.20704">
        <ele>510.6</ele>
        <time>2019-08-04T06:13:54.000Z</time>
      </trkpt>
      <trkpt lat="43.36517" lon="2.20705">
        <ele>510.8</ele>
        <time>2019-08-04T06:13:55.000Z</time>
      </trkpt>
      <trkpt lat="43.36519" lon="2.20706">
        <ele>511</ele>
        <time>2019-08-04T06:13:56.000Z</time>
      </trkpt>
      <trkpt lat="43.3652" lon="2.20707">
        <ele>511.1</ele>
        <time>2019-08-04T06:13:57.000Z</time>
      </trkpt>
      <trkpt lat="43.36522" lon="2.20707">
        <ele>511.2</ele>
        <time>2019-08-04T06:13:58.000Z</time>
      </trkpt>
      <trkpt lat="43.36523" lon="2.20708">
        <ele>511.3</ele>
        <time>2019-08-04T06:13:59.000Z</time>
      </trkpt>
      <trkpt lat="43.36525" lon="2.20709">
        <ele>511.4</ele>
        <time>2019-08-04T06:14:00.000Z</time>
      </trkpt>
      <trkpt lat="43.36526" lon="2.2071">
        <ele>511.5</ele>
        <time>2019-08-04T06:14:01.000Z</time>
      </trkpt>
      <trkpt lat="43.36528" lon="2.20711">
        <ele>511.6</ele>
        <time>2019-08-04T06:14:02.000Z</time>
      </trkpt>
      <trkpt lat="43.36529" lon="2.20711">
        <ele>511.6</ele>
        <time>2019-08-04T06:14:03.000Z</time>
      </trkpt>
      <trkpt lat="43.3653" lon="2.20712">
        <ele>511.7</ele>
        <time>2019-08-04T06:14:04.000Z</time>
      </trkpt>
      <trkpt lat="43.36532" lon="2.20713">
        <ele>511.7</ele>
        <time>2019-08-04T06:14:05.000Z</time>
      </trkpt>
      <trkpt lat="43.36533" lon="2.20713">
        <ele>511.8</ele>
        <time>2019-08-04T06:14:06.000Z</time>
      </trkpt>
      <trkpt lat="43.36534" lon="2.20714">
        <ele>511.8</ele>
        <time>2019-08-04T06:14:07.000Z</time>
      </trkpt>
      <trkpt lat="43.36535" lon="2.20715">
        <ele>511.8</ele>
        <time>2019-08-04T06:14:08.000Z</time>
      </trkpt>
      <trkpt lat="43.36536" lon="2.20715">
        <ele>511.9</ele>
        <time>2019-08-04T06:14:09.000Z</time>
      </trkpt>
      <trkpt lat="43.36538" lon="2.20716">
        <ele>511.9</ele>
        <time>2019-08-04T06:14:10.000Z</time>
      </trkpt>
      <trkpt lat="43.36539" lon="2.20717">
        <ele>512</ele>
        <time>2019-08-04T06:14:11.000Z</time>
      </trkpt>
      <trkpt lat="43.3654" lon="2.20717">
        <ele>512.1</ele>
        <time>2019-08-04T06:14:12.000Z</time>
      </trkpt>
      <trkpt lat="43.36542" lon="2.20718">
        <ele>512.1</ele>
        <time>2019-08-04T06:14:13.000Z</time>
      </trkpt>
      <trkpt lat="43.36543" lon="2.20719">
        <ele>512.2</ele>
        <time>2019-08-04T06:14:14.000Z</time>
      </trkpt>
      <trkpt lat="43.36545" lon="2.20719">
        <ele>512.3</ele>
        <time>2019-08-04T06:14:15.000Z</time>
      </trkpt>
      <trkpt lat="43.36547" lon="2.2072">
        <ele>512.3</ele>
        <time>2019-08-04T06:14:16.000Z</time>
      </trkpt>
      <trkpt lat="43.36548" lon="2.20721">
        <ele>512.3</ele>
        <time>2019-08-04T06:14:17.000Z</time>
      </trkpt>
      <trkpt lat="43.36549" lon="2.20721">
        <ele>512.4</ele>
        <time>2019-08-04T06:14:18.000Z</time>
      </trkpt>
      <trkpt lat="43.36551" lon="2.20722">
        <ele>512.4</ele>
        <time>2019-08-04T06:14:19.000Z</time>
      </trkpt>
      <trkpt lat="43.36552" lon="2.20723">
        <ele>512.4</ele>
        <time>2019-08-04T06:14:20.000Z</time>
      </trkpt>
      <trkpt lat="43.36553" lon="2.20723">
        <ele>512.4</ele>
        <time>2019-08-04T06:14:21.000Z</time>
      </trkpt>
      <trkpt lat="43.36554" lon="2.20724">
        <ele>512.3</ele>
        <time>2019-08-04T06:14:22.000Z</time>
      </trkpt>
      <trkpt lat="43.36554" lon="2.20724">
        <ele>512.3</ele>
        <time>2019-08-04T06:14:23.000Z</time>
      </trkpt>
      <trkpt lat="43.36555" lon="2.20725">
        <ele>512.3</ele>
        <time>2019-08-04T06:14:24.000Z</time>
      </trkpt>
      <trkpt lat="43.36556" lon="2.20726">
        <ele>512.2</ele>
        <time>2019-08-04T06:14:25.000Z</time>
      </trkpt>
      <trkpt lat="43.36557" lon="2.20726">
        <ele>512.2</ele>
        <time>2019-08-04T06:14:26.000Z</time>
      </trkpt>
      <trkpt lat="43.36558" lon="2.20727">
        <ele>512.1</ele>
        <time>2019-08-04T06:14:27.000Z</time>
      </trkpt>
      <trkpt lat="43.36559" lon="2.20727">
        <ele>512.1</ele>
        <time>2019-08-04T06:14:28.000Z</time>
      </trkpt>
      <trkpt lat="43.3656" lon="2.20728">
        <ele>512</ele>
        <time>2019-08-04T06:14:29.000Z</time>
      </trkpt>
      <trkpt lat="43.36561" lon="2.20729">
        <ele>512</ele>
        <time>2019-08-04T06:14:30.000Z</time>
      </trkpt>
      <trkpt lat="43.36562" lon="2.2073">
        <ele>511.9</ele>
        <time>2019-08-04T06:14:31.000Z</time>
      </trkpt>
      <trkpt lat="43.36563" lon="2.2073">
        <ele>511.9</ele>
        <time>2019-08-04T06:14:32.000Z</time>
      </trkpt>
      <trkpt lat="43.36564" lon="2.20731">
        <ele>511.8</ele>
        <time>2019-08-04T06:14:33.000Z</time>
      </trkpt>
      <trkpt lat="43.36565" lon="2.20732">
        <ele>511.7</ele>
        <time>2019-08-04T06:14:34.000Z</time>
      </trkpt>
      <trkpt lat="43.36566" lon="2.20732">
        <ele>511.7</ele>
        <time>2019-08-04T06:14:35.000Z</time>
      </trkpt>
      <trkpt lat="43.36567" lon="2.20733">
        <ele>511.6</ele>
        <time>2019-08-04T06:14:36.000Z</time>
      </trkpt>
      <trkpt lat="43.36568" lon="2.20734">
        <ele>511.5</ele>
        <time>2019-08-04T06:14:37.000Z</time>
      </trkpt>
      <trkpt lat="43.36569" lon="2.20734">
        <ele>511.4</ele>
        <time>2019-08-04T06:14:38.000Z</time>
      </trkpt>
      <trkpt lat="43.3657" lon="2.20735">
        <ele>511.3</ele>
        <time>2019-08-04T06:14:39.000Z</time>
      </trkpt>
      <trkpt lat="43.3657" lon="2.20736">
        <ele>511.1</ele>
        <time>2019-08-04T06:14:40.000Z</time>
      </trkpt>
      <trkpt lat="43.36571" lon="2.20736">
        <ele>511</ele>
        <time>2019-08-04T06:14:41.000Z</time>
      </trkpt>
      <trkpt lat="43.36572" lon="2.20737">
        <ele>510.9</ele>
        <time>2019-08-04T06:14:42.000Z</time>
      </trkpt>
      <trkpt lat="43.36573" lon="2.20738">
        <ele>510.7</ele>
        <time>2019-08-04T06:14:43.000Z</time>
      </trkpt>
      <trkpt lat="43.36574" lon="2.20739">
        <ele>510.5</ele>
        <time>2019-08-04T06:14:44.000Z</time>
      </trkpt>
      <trkpt lat="43.36575" lon="2.2074">
        <ele>510.3</ele>
        <time>2019-08-04T06:14:45.000Z</time>
      </trkpt>
      <trkpt lat="43.36576" lon="2.20741">
        <ele>510.1</ele>
        <time>2019-08-04T06:14:46.000Z</time>
      </trkpt>
      <trkpt lat="43.36577" lon="2.20742">
        <ele>509.9</ele>
        <time>2019-08-04T06:14:47.000Z</time>
      </trkpt>
      <trkpt lat="43.36578" lon="2.20743">
        <ele>509.6</ele>
        <time>2019-08-04T06:14:48.000Z</time>
      </trkpt>
      <trkpt lat="43.36579" lon="2.20745">
        <ele>509.3</ele>
        <time>2019-08-04T06:14:49.000Z</time>
      </trkpt>
      <trkpt lat="43.3658" lon="2.20746">
        <ele>509</ele>
        <time>2019-08-04T06:14:50.000Z</time>
      </trkpt>
      <trkpt lat="43.36581" lon="2.20747">
        <ele>508.7</ele>
        <time>2019-08-04T06:14:51.000Z</time>
      </trkpt>
      <trkpt lat="43.36583" lon="2.20749">
        <ele>508.3</ele>
        <time>2019-08-04T06:14:52.000Z</time>
      </trkpt>
      <trkpt lat="43.36584" lon="2.20751">
        <ele>508.2</ele>
        <time>2019-08-04T06:14:53.000Z</time>
      </trkpt>
      <trkpt lat="43.36585" lon="2.20752">
        <ele>508.7</ele>
        <time>2019-08-04T06:14:54.000Z</time>
      </trkpt>
      <trkpt lat="43.36586" lon="2.20754">
        <ele>509.2</ele>
        <time>2019-08-04T06:14:55.000Z</time>
      </trkpt>
      <trkpt lat="43.36588" lon="2.20756">
        <ele>509.7</ele>
        <time>2019-08-04T06:14:56.000Z</time>
      </trkpt>
      <trkpt lat="43.36589" lon="2.20758">
        <ele>510.1</ele>
        <time>2019-08-04T06:14:57.000Z</time>
      </trkpt>
      <trkpt lat="43.36591" lon="2.2076">
        <ele>510.6</ele>
        <time>2019-08-04T06:14:58.000Z</time>
      </trkpt>
      <trkpt lat="43.36592" lon="2.20763">
        <ele>511.1</ele>
        <time>2019-08-04T06:14:59.000Z</time>
      </trkpt>
      <trkpt lat="43.36594" lon="2.20765">
        <ele>511.6</ele>
        <time>2019-08-04T06:15:00.000Z</time>
      </trkpt>
      <trkpt lat="43.36595" lon="2.20767">
        <ele>512</ele>
        <time>2019-08-04T06:15:01.000Z</time>
      </trkpt>
      <trkpt lat="43.36597" lon="2.20768">
        <ele>512.5</ele>
        <time>2019-08-04T06:15:02.000Z</time>
      </trkpt>
      <trkpt lat="43.36599" lon="2.2077">
        <ele>513</ele>
        <time>2019-08-04T06:15:03.000Z</time>
      </trkpt>
      <trkpt lat="43.366" lon="2.20771">
        <ele>513.4</ele>
        <time>2019-08-04T06:15:04.000Z</time>
      </trkpt>
      <trkpt lat="43.36602" lon="2.20773">
        <ele>513.9</ele>
        <time>2019-08-04T06:15:05.000Z</time>
      </trkpt>
      <trkpt lat="43.36604" lon="2.20774">
        <ele>514.4</ele>
        <time>2019-08-04T06:15:06.000Z</time>
      </trkpt>
      <trkpt lat="43.36607" lon="2.20775">
        <ele>514.9</ele>
        <time>2019-08-04T06:15:07.000Z</time>
      </trkpt>
      <trkpt lat="43.36609" lon="2.20776">
        <ele>515.4</ele>
        <time>2019-08-04T06:15:08.000Z</time>
      </trkpt>
      <trkpt lat="43.36611" lon="2.20777">
        <ele>515.9</ele>
        <time>2019-08-04T06:15:09.000Z</time>
      </trkpt>
      <trkpt lat="43.36614" lon="2.20779">
        <ele>516.4</ele>
        <time>2019-08-04T06:15:10.000Z</time>
      </trkpt>
      <trkpt lat="43.36616" lon="2.20781">
        <ele>516.9</ele>
        <time>2019-08-04T06:15:11.000Z</time>
      </trkpt>
      <trkpt lat="43.36619" lon="2.20783">
        <ele>517.3</ele>
        <time>2019-08-04T06:15:12.000Z</time>
      </trkpt>
      <trkpt lat="43.36621" lon="2.20785">
        <ele>517.7</ele>
        <time>2019-08-04T06:15:13.000Z</time>
      </trkpt>
      <trkpt lat="43.36624" lon="2.20787">
        <ele>518.1</ele>
        <time>2019-08-04T06:15:14.000Z</time>
      </trkpt>
      <trkpt lat="43.36626" lon="2.2079">
        <ele>518.4</ele>
        <time>2019-08-04T06:15:15.000Z</time>
      </trkpt>
      <trkpt lat="43.36629" lon="2.20792">
        <ele>518.6</ele>
        <time>2019-08-04T06:15:16.000Z</time>
      </trkpt>
      <trkpt lat="43.36631" lon="2.20794">
        <ele>518.9</ele>
        <time>2019-08-04T06:15:17.000Z</time>
      </trkpt>
      <trkpt lat="43.36633" lon="2.20796">
        <ele>519.1</ele>
        <time>2019-08-04T06:15:18.000Z</time>
      </trkpt>
      <trkpt lat="43.36636" lon="2.20798">
        <ele>519.2</ele>
        <time>2019-08-04T06:15:19.000Z</time>
      </trkpt>
      <trkpt lat="43.36638" lon="2.20799">
        <ele>519.4</ele>
        <time>2019-08-04T06:15:20.000Z</time>
      </trkpt>
      <trkpt lat="43.3664" lon="2.20801">
        <ele>519.6</ele>
        <time>2019-08-04T06:15:21.000Z</time>
      </trkpt>
      <trkpt lat="43.36642" lon="2.20802">
        <ele>519.7</ele>
        <time>2019-08-04T06:15:22.000Z</time>
      </trkpt>
      <trkpt lat="43.36644" lon="2.20803">
        <ele>519.9</ele>
        <time>2019-08-04T06:15:23.000Z</time>
      </trkpt>
      <trkpt lat="43.36646" lon="2.20804">
        <ele>520</ele>
        <time>2019-08-04T06:15:24.000Z</time>
      </trkpt>
      <trkpt lat="43.36648" lon="2.20805">
        <ele>520.1</ele>
        <time>2019-08-04T06:15:25.000Z</time>
      </trkpt>
      <trkpt lat="43.3665" lon="2.20807">
        <ele>520.2</ele>
        <time>2019-08-04T06:15:26.000Z</time>
      </trkpt>
      <trkpt lat="43.36652" lon="2.20808">
        <ele>520.3</ele>
        <time>2019-08-04T06:15:27.000Z</time>
      </trkpt>
      <trkpt lat="43.36654" lon="2.20809">
        <ele>520.4</ele>
        <time>2019-08-04T06:15:28.000Z</time>
      </trkpt>
      <trkpt lat="43.36656" lon="2.2081">
        <ele>520.5</ele>
        <time>2019-08-04T06:15:29.000Z</time>
      </trkpt>
      <trkpt lat="43.36658" lon="2.20811">
        <ele>520.5</ele>
        <time>2019-08-04T06:15:30.000Z</time>
      </trkpt>
      <trkpt lat="43.3666" lon="2.20812">
        <ele>520.5</ele>
        <time>2019-08-04T06:15:31.000Z</time>
      </trkpt>
      <trkpt lat="43.36662" lon="2.20813">
        <ele>520.5</ele>
        <time>2019-08-04T06:15:32.000Z</time>
      </trkpt>
      <trkpt lat="43.36664" lon="2.20815">
        <ele>520.5</ele>
        <time>2019-08-04T06:15:33.000Z</time>
      </trkpt>
      <trkpt lat="43.36665" lon="2.20816">
        <ele>520.5</ele>
        <time>2019-08-04T06:15:34.000Z</time>
      </trkpt>
      <trkpt lat="43.36667" lon="2.20817">
        <ele>520.5</ele>
        <time>2019-08-04T06:15:35.000Z</time>
      </trkpt>
      <trkpt lat="43.36669" lon="2.20818">
        <ele>520.7</ele>
        <time>2019-08-04T06:15:36.000Z</time>
      </trkpt>
      <trkpt lat="43.36671" lon="2.20819">
        <ele>521</ele>
        <time>2019-08-04T06:15:37.000Z</time>
      </trkpt>
      <trkpt lat="43.36672" lon="2.2082">
        <ele>521.2</ele>
        <time>2019-08-04T06:15:38.000Z</time>
      </trkpt>
      <trkpt lat="43.36674" lon="2.20821">
        <ele>521.4</ele>
        <time>2019-08-04T06:15:39.000Z</time>
      </trkpt>
      <trkpt lat="43.36675" lon="2.20822">
        <ele>521.6</ele>
        <time>2019-08-04T06:15:40.000Z</time>
      </trkpt>
      <trkpt lat="43.36676" lon="2.20823">
        <ele>521.8</ele>
        <time>2019-08-04T06:15:41.000Z</time>
      </trkpt>
      <trkpt lat="43.36678" lon="2.20824">
        <ele>521.9</ele>
        <time>2019-08-04T06:15:42.000Z</time>
      </trkpt>
      <trkpt lat="43.36679" lon="2.20824">
        <ele>522.1</ele>
        <time>2019-08-04T06:15:43.000Z</time>
      </trkpt>
      <trkpt lat="43.3668" lon="2.20825">
        <ele>522.2</ele>
        <time>2019-08-04T06:15:44.000Z</time>
      </trkpt>
      <trkpt lat="43.36681" lon="2.20826">
        <ele>522.3</ele>
        <time>2019-08-04T06:15:45.000Z</time>
      </trkpt>
      <trkpt lat="43.36682" lon="2.20827">
        <ele>522.4</ele>
        <time>2019-08-04T06:15:46.000Z</time>
      </trkpt>
      <trkpt lat="43.36683" lon="2.20828">
        <ele>522.4</ele>
        <time>2019-08-04T06:15:47.000Z</time>
      </trkpt>
      <trkpt lat="43.36684" lon="2.20829">
        <ele>522.5</ele>
        <time>2019-08-04T06:15:48.000Z</time>
      </trkpt>
      <trkpt lat="43.36685" lon="2.2083">
        <ele>522.5</ele>
        <time>2019-08-04T06:15:49.000Z</time>
      </trkpt>
      <trkpt lat="43.36686" lon="2.20831">
        <ele>522.5</ele>
        <time>2019-08-04T06:15:50.000Z</time>
      </trkpt>
      <trkpt lat="43.36687" lon="2.20833">
        <ele>522.4</ele>
        <time>2019-08-04T06:15:51.000Z</time>
      </trkpt>
      <trkpt lat="43.36688" lon="2.20834">
        <ele>522.6</ele>
        <time>2019-08-04T06:15:52.000Z</time>
      </trkpt>
      <trkpt lat="43.36689" lon="2.20835">
        <ele>522.9</ele>
        <time>2019-08-04T06:15:53.000Z</time>
      </trkpt>
      <trkpt lat="43.3669" lon="2.20836">
        <ele>523.2</ele>
        <time>2019-08-04T06:15:54.000Z</time>
      </trkpt>
      <trkpt lat="43.36691" lon="2.20838">
        <ele>523.5</ele>
        <time>2019-08-04T06:15:55.000Z</time>
      </trkpt>
      <trkpt lat="43.36692" lon="2.20838">
        <ele>523.9</ele>
        <time>2019-08-04T06:15:56.000Z</time>
      </trkpt>
      <trkpt lat="43.36693" lon="2.20839">
        <ele>524.1</ele>
        <time>2019-08-04T06:15:57.000Z</time>
      </trkpt>
      <trkpt lat="43.36694" lon="2.2084">
        <ele>524.4</ele>
        <time>2019-08-04T06:15:58.000Z</time>
      </trkpt>
      <trkpt lat="43.36695" lon="2.20841">
        <ele>524.7</ele>
        <time>2019-08-04T06:15:59.000Z</time>
      </trkpt>
      <trkpt lat="43.36696" lon="2.20841">
        <ele>525</ele>
        <time>2019-08-04T06:16:00.000Z</time>
      </trkpt>
      <trkpt lat="43.36697" lon="2.20842">
        <ele>525.3</ele>
        <time>2019-08-04T06:16:01.000Z</time>
      </trkpt>
      <trkpt lat="43.36698" lon="2.20842">
        <ele>525.6</ele>
        <time>2019-08-04T06:16:02.000Z</time>
      </trkpt>
      <trkpt lat="43.36699" lon="2.20842">
        <ele>525.9</ele>
        <time>2019-08-04T06:16:03.000Z</time>
      </trkpt>
      <trkpt lat="43.367" lon="2.20843">
        <ele>526.1</ele>
        <time>2019-08-04T06:16:04.000Z</time>
      </trkpt>
      <trkpt lat="43.36701" lon="2.20843">
        <ele>526.4</ele>
        <time>2019-08-04T06:16:05.000Z</time>
      </trkpt>
      <trkpt lat="43.36703" lon="2.20844">
        <ele>526.7</ele>
        <time>2019-08-04T06:16:06.000Z</time>
      </trkpt>
      <trkpt lat="43.36704" lon="2.20844">
        <ele>527</ele>
        <time>2019-08-04T06:16:07.000Z</time>
      </trkpt>
      <trkpt lat="43.36705" lon="2.20845">
        <ele>527.2</ele>
        <time>2019-08-04T06:16:08.000Z</time>
      </trkpt>
      <trkpt lat="43.36706" lon="2.20846">
        <ele>527.5</ele>
        <time>2019-08-04T06:16:09.000Z</time>
      </trkpt>
      <trkpt lat="43.36707" lon="2.20847">
        <ele>527.7</ele>
        <time>2019-08-04T06:16:10.000Z</time>
      </trkpt>
      <trkpt lat="43.36708" lon="2.20847">
        <ele>527.9</ele>
        <time>2019-08-04T06:16:11.000Z</time>
      </trkpt>
      <trkpt lat="43.36709" lon="2.20849">
        <ele>528.2</ele>
        <time>2019-08-04T06:16:12.000Z</time>
      </trkpt>
      <trkpt lat="43.3671" lon="2.2085">
        <ele>528.4</ele>
        <time>2019-08-04T06:16:13.000Z</time>
      </trkpt>
      <trkpt lat="43.36711" lon="2.20851">
        <ele>528.6</ele>
        <time>2019-08-04T06:16:14.000Z</time>
      </trkpt>
      <trkpt lat="43.36712" lon="2.20852">
        <ele>528.8</ele>
        <time>2019-08-04T06:16:15.000Z</time>
      </trkpt>
      <trkpt lat="43.36713" lon="2.20853">
        <ele>529</ele>
        <time>2019-08-04T06:16:16.000Z</time>
      </trkpt>
      <trkpt lat="43.36714" lon="2.20854">
        <ele>529.1</ele>
        <time>2019-08-04T06:16:17.000Z</time>
      </trkpt>
      <trkpt lat="43.36715" lon="2.20855">
        <ele>529.3</ele>
        <time>2019-08-04T06:16:18.000Z</time>
      </trkpt>
      <trkpt lat="43.36716" lon="2.20856">
        <ele>529.4</ele>
        <time>2019-08-04T06:16:19.000Z</time>
      </trkpt>
      <trkpt lat="43.36717" lon="2.20857">
        <ele>529.6</ele>
        <time>2019-08-04T06:16:20.000Z</time>
      </trkpt>
      <trkpt lat="43.36718" lon="2.20858">
        <ele>529.7</ele>
        <time>2019-08-04T06:16:21.000Z</time>
      </trkpt>
      <trkpt lat="43.36719" lon="2.20859">
        <ele>529.9</ele>
        <time>2019-08-04T06:16:22.000Z</time>
      </trkpt>
      <trkpt lat="43.3672" lon="2.2086">
        <ele>530.1</ele>
        <time>2019-08-04T06:16:23.000Z</time>
      </trkpt>
      <trkpt lat="43.36721" lon="2.2086">
        <ele>530.2</ele>
        <time>2019-08-04T06:16:24.000Z</time>
      </trkpt>
      <trkpt lat="43.36722" lon="2.20861">
        <ele>530.4</ele>
        <time>2019-08-04T06:16:25.000Z</time>
      </trkpt>
      <trkpt lat="43.36723" lon="2.20861">
        <ele>530.5</ele>
        <time>2019-08-04T06:16:26.000Z</time>
      </trkpt>
      <trkpt lat="43.36725" lon="2.20861">
        <ele>530.7</ele>
        <time>2019-08-04T06:16:27.000Z</time>
      </trkpt>
      <trkpt lat="43.36726" lon="2.20861">
        <ele>531</ele>
        <time>2019-08-04T06:16:28.000Z</time>
      </trkpt>
      <trkpt lat="43.36728" lon="2.20861">
        <ele>531.2</ele>
        <time>2019-08-04T06:16:29.000Z</time>
      </trkpt>
      <trkpt lat="43.36729" lon="2.20861">
        <ele>531.5</ele>
        <time>2019-08-04T06:16:30.000Z</time>
      </trkpt>
      <trkpt lat="43.36731" lon="2.20861">
        <ele>531.8</ele>
        <time>2019-08-04T06:16:31.000Z</time>
      </trkpt>
      <trkpt lat="43.36733" lon="2.20861">
        <ele>532.1</ele>
        <time>2019-08-04T06:16:32.000Z</time>
      </trkpt>
      <trkpt lat="43.36735" lon="2.20861">
        <ele>532.4</ele>
        <time>2019-08-04T06:16:33.000Z</time>
      </trkpt>
      <trkpt lat="43.36736" lon="2.20861">
        <ele>532.7</ele>
        <time>2019-08-04T06:16:34.000Z</time>
      </trkpt>
      <trkpt lat="43.36738" lon="2.20861">
        <ele>533</ele>
        <time>2019-08-04T06:16:35.000Z</time>
      </trkpt>
      <trkpt lat="43.36739" lon="2.2086">
        <ele>533.2</ele>
        <time>2019-08-04T06:16:36.000Z</time>
      </trkpt>
      <trkpt lat="43.3674" lon="2.2086">
        <ele>533.4</ele>
        <time>2019-08-04T06:16:37.000Z</time>
      </trkpt>
      <trkpt lat="43.36741" lon="2.2086">
        <ele>533.6</ele>
        <time>2019-08-04T06:16:38.000Z</time>
      </trkpt>
      <trkpt lat="43.36742" lon="2.2086">
        <ele>533.9</ele>
        <time>2019-08-04T06:16:39.000Z</time>
      </trkpt>
      <trkpt lat="43.36743" lon="2.2086">
        <ele>534</ele>
        <time>2019-08-04T06:16:40.000Z</time>
      </trkpt>
      <trkpt lat="43.36745" lon="2.2086">
        <ele>534.2</ele>
        <time>2019-08-04T06:16:41.000Z</time>
      </trkpt>
      <trkpt lat="43.36746" lon="2.2086">
        <ele>534.4</ele>
        <time>2019-08-04T06:16:42.000Z</time>
      </trkpt>
      <trkpt lat="43.36747" lon="2.2086">
        <ele>534.5</ele>
        <time>2019-08-04T06:16:43.000Z</time>
      </trkpt>
      <trkpt lat="43.36748" lon="2.2086">
        <ele>534.7</ele>
        <time>2019-08-04T06:16:44.000Z</time>
      </trkpt>
      <trkpt lat="43.36749" lon="2.20861">
        <ele>534.8</ele>
        <time>2019-08-04T06:16:45.000Z</time>
      </trkpt>
      <trkpt lat="43.3675" lon="2.20861">
        <ele>534.9</ele>
        <time>2019-08-04T06:16:46.000Z</time>
      </trkpt>
      <trkpt lat="43.36751" lon="2.20861">
        <ele>535.1</ele>
        <time>2019-08-04T06:16:47.000Z</time>
      </trkpt>
      <trkpt lat="43.36752" lon="2.20862">
        <ele>535.4</ele>
        <time>2019-08-04T06:16:48.000Z</time>
      </trkpt>
      <trkpt lat="43.36753" lon="2.20862">
        <ele>535.6</ele>
        <time>2019-08-04T06:16:49.000Z</time>
      </trkpt>
      <trkpt lat="43.36754" lon="2.20863">
        <ele>535.8</ele>
        <time>2019-08-04T06:16:50.000Z</time>
      </trkpt>
      <trkpt lat="43.36755" lon="2.20863">
        <ele>536.1</ele>
        <time>2019-08-04T06:16:51.000Z</time>
      </trkpt>
      <trkpt lat="43.36756" lon="2.20864">
        <ele>536.3</ele>
        <time>2019-08-04T06:16:52.000Z</time>
      </trkpt>
      <trkpt lat="43.36757" lon="2.20865">
        <ele>536.5</ele>
        <time>2019-08-04T06:16:53.000Z</time>
      </trkpt>
      <trkpt lat="43.36758" lon="2.20865">
        <ele>536.8</ele>
        <time>2019-08-04T06:16:54.000Z</time>
      </trkpt>
      <trkpt lat="43.36759" lon="2.20866">
        <ele>537</ele>
        <time>2019-08-04T06:16:55.000Z</time>
      </trkpt>
      <trkpt lat="43.3676" lon="2.20867">
        <ele>537.2</ele>
        <time>2019-08-04T06:16:56.000Z</time>
      </trkpt>
      <trkpt lat="43.36761" lon="2.20868">
        <ele>537.5</ele>
        <time>2019-08-04T06:16:57.000Z</time>
      </trkpt>
      <trkpt lat="43.36762" lon="2.20869">
        <ele>537.7</ele>
        <time>2019-08-04T06:16:58.000Z</time>
      </trkpt>
      <trkpt lat="43.36764" lon="2.2087">
        <ele>538</ele>
        <time>2019-08-04T06:16:59.000Z</time>
      </trkpt>
      <trkpt lat="43.36765" lon="2.20871">
        <ele>538.2</ele>
        <time>2019-08-04T06:17:00.000Z</time>
      </trkpt>
      <trkpt lat="43.36766" lon="2.20872">
        <ele>538.5</ele>
        <time>2019-08-04T06:17:01.000Z</time>
      </trkpt>
      <trkpt lat="43.36768" lon="2.20873">
        <ele>538.7</ele>
        <time>2019-08-04T06:17:02.000Z</time>
      </trkpt>
      <trkpt lat="43.36769" lon="2.20874">
        <ele>538.9</ele>
        <time>2019-08-04T06:17:03.000Z</time>
      </trkpt>
      <trkpt lat="43.36771" lon="2.20876">
        <ele>539.2</ele>
        <time>2019-08-04T06:17:04.000Z</time>
      </trkpt>
      <trkpt lat="43.36772" lon="2.20877">
        <ele>539.4</ele>
        <time>2019-08-04T06:17:05.000Z</time>
      </trkpt>
      <trkpt lat="43.36773" lon="2.20879">
        <ele>539.6</ele>
        <time>2019-08-04T06:17:06.000Z</time>
      </trkpt>
      <trkpt lat="43.36775" lon="2.2088">
        <ele>539.9</ele>
        <time>2019-08-04T06:17:07.000Z</time>
      </trkpt>
      <trkpt lat="43.36777" lon="2.20882">
        <ele>540.1</ele>
        <time>2019-08-04T06:17:08.000Z</time>
      </trkpt>
      <trkpt lat="43.36778" lon="2.20884">
        <ele>540.3</ele>
        <time>2019-08-04T06:17:09.000Z</time>
      </trkpt>
      <trkpt lat="43.3678" lon="2.20886">
        <ele>540.5</ele>
        <time>2019-08-04T06:17:10.000Z</time>
      </trkpt>
      <trkpt lat="43.36781" lon="2.20888">
        <ele>540.7</ele>
        <time>2019-08-04T06:17:11.000Z</time>
      </trkpt>
      <trkpt lat="43.36783" lon="2.2089">
        <ele>540.9</ele>
        <time>2019-08-04T06:17:12.000Z</time>
      </trkpt>
      <trkpt lat="43.36784" lon="2.20892">
        <ele>541</ele>
        <time>2019-08-04T06:17:13.000Z</time>
      </trkpt>
      <trkpt lat="43.36786" lon="2.20894">
        <ele>541.1</ele>
        <time>2019-08-04T06:17:14.000Z</time>
      </trkpt>
      <trkpt lat="43.36787" lon="2.20896">
        <ele>541.2</ele>
        <time>2019-08-04T06:17:15.000Z</time>
      </trkpt>
      <trkpt lat="43.36788" lon="2.20898">
        <ele>541.2</ele>
        <time>2019-08-04T06:17:16.000Z</time>
      </trkpt>
      <trkpt lat="43.36789" lon="2.209">
        <ele>541.2</ele>
        <time>2019-08-04T06:17:17.000Z</time>
      </trkpt>
      <trkpt lat="43.3679" lon="2.20901">
        <ele>541.2</ele>
        <time>2019-08-04T06:17:18.000Z</time>
      </trkpt>
      <trkpt lat="43.3679" lon="2.20903">
        <ele>541.1</ele>
        <time>2019-08-04T06:17:19.000Z</time>
      </trkpt>
      <trkpt lat="43.36791" lon="2.20905">
        <ele>541.1</ele>
        <time>2019-08-04T06:17:20.000Z</time>
      </trkpt>
      <trkpt lat="43.36792" lon="2.20907">
        <ele>541</ele>
        <time>2019-08-04T06:17:21.000Z</time>
      </trkpt>
      <trkpt lat="43.36792" lon="2.20908">
        <ele>540.9</ele>
        <time>2019-08-04T06:17:22.000Z</time>
      </trkpt>
      <trkpt lat="43.36793" lon="2.2091">
        <ele>540.8</ele>
        <time>2019-08-04T06:17:23.000Z</time>
      </trkpt>
      <trkpt lat="43.36793" lon="2.20912">
        <ele>540.7</ele>
        <time>2019-08-04T06:17:24.000Z</time>
      </trkpt>
      <trkpt lat="43.36794" lon="2.20913">
        <ele>540.6</ele>
        <time>2019-08-04T06:17:25.000Z</time>
      </trkpt>
      <trkpt lat="43.36794" lon="2.20915">
        <ele>540.5</ele>
        <time>2019-08-04T06:17:26.000Z</time>
      </trkpt>
      <trkpt lat="43.36795" lon="2.20917">
        <ele>540.5</ele>
        <time>2019-08-04T06:17:27.000Z</time>
      </trkpt>
      <trkpt lat="43.36795" lon="2.2092">
        <ele>540.7</ele>
        <time>2019-08-04T06:17:28.000Z</time>
      </trkpt>
      <trkpt lat="43.36796" lon="2.20922">
        <ele>540.9</ele>
        <time>2019-08-04T06:17:29.000Z</time>
      </trkpt>
      <trkpt lat="43.36796" lon="2.20925">
        <ele>541.1</ele>
        <time>2019-08-04T06:17:30.000Z</time>
      </trkpt>
      <trkpt lat="43.36796" lon="2.20927">
        <ele>541.3</ele>
        <time>2019-08-04T06:17:31.000Z</time>
      </trkpt>
      <trkpt lat="43.36796" lon="2.2093">
        <ele>541.4</ele>
        <time>2019-08-04T06:17:32.000Z</time>
      </trkpt>
      <trkpt lat="43.36796" lon="2.20932">
        <ele>541.5</ele>
        <time>2019-08-04T06:17:33.000Z</time>
      </trkpt>
      <trkpt lat="43.36797" lon="2.20935">
        <ele>541.7</ele>
        <time>2019-08-04T06:17:34.000Z</time>
      </trkpt>
      <trkpt lat="43.36797" lon="2.20937">
        <ele>541.9</ele>
        <time>2019-08-04T06:17:35.000Z</time>
      </trkpt>
      <trkpt lat="43.36798" lon="2.20939">
        <ele>542.2</ele>
        <time>2019-08-04T06:17:36.000Z</time>
      </trkpt>
      <trkpt lat="43.36799" lon="2.20941">
        <ele>542.6</ele>
        <time>2019-08-04T06:17:37.000Z</time>
      </trkpt>
      <trkpt lat="43.368" lon="2.20943">
        <ele>543</ele>
        <time>2019-08-04T06:17:38.000Z</time>
      </trkpt>
      <trkpt lat="43.36802" lon="2.20945">
        <ele>543.4</ele>
        <time>2019-08-04T06:17:39.000Z</time>
      </trkpt>
      <trkpt lat="43.36803" lon="2.20947">
        <ele>543.7</ele>
        <time>2019-08-04T06:17:40.000Z</time>
      </trkpt>
      <trkpt lat="43.36804" lon="2.20949">
        <ele>544.1</ele>
        <time>2019-08-04T06:17:41.000Z</time>
      </trkpt>
      <trkpt lat="43.36805" lon="2.20951">
        <ele>544.4</ele>
        <time>2019-08-04T06:17:42.000Z</time>
      </trkpt>
      <trkpt lat="43.36806" lon="2.20953">
        <ele>544.7</ele>
        <time>2019-08-04T06:17:43.000Z</time>
      </trkpt>
      <trkpt lat="43.36807" lon="2.20954">
        <ele>545</ele>
        <time>2019-08-04T06:17:44.000Z</time>
      </trkpt>
      <trkpt lat="43.36809" lon="2.20956">
        <ele>545.3</ele>
        <time>2019-08-04T06:17:45.000Z</time>
      </trkpt>
      <trkpt lat="43.36809" lon="2.20958">
        <ele>545.5</ele>
        <time>2019-08-04T06:17:46.000Z</time>
      </trkpt>
      <trkpt lat="43.3681" lon="2.2096">
        <ele>545.8</ele>
        <time>2019-08-04T06:17:47.000Z</time>
      </trkpt>
      <trkpt lat="43.36811" lon="2.20961">
        <ele>546</ele>
        <time>2019-08-04T06:17:48.000Z</time>
      </trkpt>
      <trkpt lat="43.36812" lon="2.20963">
        <ele>546.2</ele>
        <time>2019-08-04T06:17:49.000Z</time>
      </trkpt>
      <trkpt lat="43.36813" lon="2.20964">
        <ele>546.3</ele>
        <time>2019-08-04T06:17:50.000Z</time>
      </trkpt>
      <trkpt lat="43.36813" lon="2.20966">
        <ele>546.5</ele>
        <time>2019-08-04T06:17:51.000Z</time>
      </trkpt>
      <trkpt lat="43.36814" lon="2.20968">
        <ele>546.6</ele>
        <time>2019-08-04T06:17:52.000Z</time>
      </trkpt>
      <trkpt lat="43.36814" lon="2.20969">
        <ele>546.7</ele>
        <time>2019-08-04T06:17:53.000Z</time>
      </trkpt>
      <trkpt lat="43.36814" lon="2.20971">
        <ele>546.8</ele>
        <time>2019-08-04T06:17:54.000Z</time>
      </trkpt>
      <trkpt lat="43.36815" lon="2.20972">
        <ele>546.8</ele>
        <time>2019-08-04T06:17:55.000Z</time>
      </trkpt>
      <trkpt lat="43.36815" lon="2.20974">
        <ele>546.9</ele>
        <time>2019-08-04T06:17:56.000Z</time>
      </trkpt>
      <trkpt lat="43.36815" lon="2.20975">
        <ele>546.9</ele>
        <time>2019-08-04T06:17:57.000Z</time>
      </trkpt>
      <trkpt lat="43.36815" lon="2.20977">
        <ele>546.9</ele>
        <time>2019-08-04T06:17:58.000Z</time>
      </trkpt>
      <trkpt lat="43.36815" lon="2.20978">
        <ele>547</ele>
        <time>2019-08-04T06:17:59.000Z</time>
      </trkpt>
      <trkpt lat="43.36815" lon="2.2098">
        <ele>547</ele>
        <time>2019-08-04T06:18:00.000Z</time>
      </trkpt>
      <trkpt lat="43.36815" lon="2.20981">
        <ele>547</ele>
        <time>2019-08-04T06:18:01.000Z</time>
      </trkpt>
      <trkpt lat="43.36815" lon="2.20983">
        <ele>547</ele>
        <time>2019-08-04T06:18:02.000Z</time>
      </trkpt>
      <trkpt lat="43.36815" lon="2.20984">
        <ele>547.1</ele>
        <time>2019-08-04T06:18:03.000Z</time>
      </trkpt>
      <trkpt lat="43.36815" lon="2.20986">
        <ele>547.1</ele>
        <time>2019-08-04T06:18:04.000Z</time>
      </trkpt>
      <trkpt lat="43.36815" lon="2.20988">
        <ele>547.1</ele>
        <time>2019-08-04T06:18:05.000Z</time>
      </trkpt>
      <trkpt lat="43.36816" lon="2.20989">
        <ele>547.2</ele>
        <time>2019-08-04T06:18:06.000Z</time>
      </trkpt>
      <trkpt lat="43.36816" lon="2.20991">
        <ele>547.2</ele>
        <time>2019-08-04T06:18:07.000Z</time>
      </trkpt>
      <trkpt lat="43.36816" lon="2.20992">
        <ele>547.2</ele>
        <time>2019-08-04T06:18:08.000Z</time>
      </trkpt>
      <trkpt lat="43.36816" lon="2.20994">
        <ele>547.3</ele>
        <time>2019-08-04T06:18:09.000Z</time>
      </trkpt>
      <trkpt lat="43.36816" lon="2.20995">
        <ele>547.3</ele>
        <time>2019-08-04T06:18:10.000Z</time>
      </trkpt>
      <trkpt lat="43.36816" lon="2.20997">
        <ele>547.3</ele>
        <time>2019-08-04T06:18:11.000Z</time>
      </trkpt>
      <trkpt lat="43.36817" lon="2.20998">
        <ele>547.4</ele>
        <time>2019-08-04T06:18:12.000Z</time>
      </trkpt>
      <trkpt lat="43.36817" lon="2.21">
        <ele>547.4</ele>
        <time>2019-08-04T06:18:13.000Z</time>
      </trkpt>
      <trkpt lat="43.36817" lon="2.21001">
        <ele>547.5</ele>
        <time>2019-08-04T06:18:14.000Z</time>
      </trkpt>
      <trkpt lat="43.36817" lon="2.21003">
        <ele>547.6</ele>
        <time>2019-08-04T06:18:15.000Z</time>
      </trkpt>
      <trkpt lat="43.36817" lon="2.21004">
        <ele>547.6</ele>
        <time>2019-08-04T06:18:16.000Z</time>
      </trkpt>
      <trkpt lat="43.36818" lon="2.21006">
        <ele>547.7</ele>
        <time>2019-08-04T06:18:17.000Z</time>
      </trkpt>
      <trkpt lat="43.36818" lon="2.21007">
        <ele>547.8</ele>
        <time>2019-08-04T06:18:18.000Z</time>
      </trkpt>
      <trkpt lat="43.36818" lon="2.21009">
        <ele>547.9</ele>
        <time>2019-08-04T06:18:19.000Z</time>
      </trkpt>
      <trkpt lat="43.36818" lon="2.21011">
        <ele>548</ele>
        <time>2019-08-04T06:18:20.000Z</time>
      </trkpt>
      <trkpt lat="43.36819" lon="2.21012">
        <ele>548.1</ele>
        <time>2019-08-04T06:18:21.000Z</time>
      </trkpt>
      <trkpt lat="43.36819" lon="2.21014">
        <ele>548.1</ele>
        <time>2019-08-04T06:18:22.000Z</time>
      </trkpt>
      <trkpt lat="43.3682" lon="2.21016">
        <ele>548.2</ele>
        <time>2019-08-04T06:18:23.000Z</time>
      </trkpt>
      <trkpt lat="43.3682" lon="2.21017">
        <ele>548.3</ele>
        <time>2019-08-04T06:18:24.000Z</time>
      </trkpt>
      <trkpt lat="43.3682" lon="2.21019">
        <ele>548.4</ele>
        <time>2019-08-04T06:18:25.000Z</time>
      </trkpt>
      <trkpt lat="43.36821" lon="2.21021">
        <ele>548.5</ele>
        <time>2019-08-04T06:18:26.000Z</time>
      </trkpt>
      <trkpt lat="43.36821" lon="2.21023">
        <ele>548.6</ele>
        <time>2019-08-04T06:18:27.000Z</time>
      </trkpt>
      <trkpt lat="43.36822" lon="2.21025">
        <ele>548.7</ele>
        <time>2019-08-04T06:18:28.000Z</time>
      </trkpt>
      <trkpt lat="43.36822" lon="2.21026">
        <ele>548.8</ele>
        <time>2019-08-04T06:18:29.000Z</time>
      </trkpt>
      <trkpt lat="43.36822" lon="2.21028">
        <ele>548.8</ele>
        <time>2019-08-04T06:18:30.000Z</time>
      </trkpt>
      <trkpt lat="43.36822" lon="2.2103">
        <ele>548.9</ele>
        <time>2019-08-04T06:18:31.000Z</time>
      </trkpt>
      <trkpt lat="43.36822" lon="2.21032">
        <ele>548.9</ele>
        <time>2019-08-04T06:18:32.000Z</time>
      </trkpt>
      <trkpt lat="43.36822" lon="2.21033">
        <ele>549</ele>
        <time>2019-08-04T06:18:33.000Z</time>
      </trkpt>
      <trkpt lat="43.36822" lon="2.21035">
        <ele>549</ele>
        <time>2019-08-04T06:18:34.000Z</time>
      </trkpt>
      <trkpt lat="43.36822" lon="2.21037">
        <ele>549</ele>
        <time>2019-08-04T06:18:35.000Z</time>
      </trkpt>
      <trkpt lat="43.36822" lon="2.21038">
        <ele>549</ele>
        <time>2019-08-04T06:18:36.000Z</time>
      </trkpt>
      <trkpt lat="43.36822" lon="2.2104">
        <ele>549.1</ele>
        <time>2019-08-04T06:18:37.000Z</time>
      </trkpt>
      <trkpt lat="43.36822" lon="2.21042">
        <ele>549.1</ele>
        <time>2019-08-04T06:18:38.000Z</time>
      </trkpt>
      <trkpt lat="43.36822" lon="2.21043">
        <ele>549.1</ele>
        <time>2019-08-04T06:18:39.000Z</time>
      </trkpt>
      <trkpt lat="43.36822" lon="2.21045">
        <ele>549.2</ele>
        <time>2019-08-04T06:18:40.000Z</time>
      </trkpt>
      <trkpt lat="43.36822" lon="2.21047">
        <ele>549.2</ele>
        <time>2019-08-04T06:18:41.000Z</time>
      </trkpt>
      <trkpt lat="43.36822" lon="2.21048">
        <ele>549.2</ele>
        <time>2019-08-04T06:18:42.000Z</time>
      </trkpt>
      <trkpt lat="43.36822" lon="2.2105">
        <ele>549.3</ele>
        <time>2019-08-04T06:18:43.000Z</time>
      </trkpt>
      <trkpt lat="43.36822" lon="2.21051">
        <ele>549.3</ele>
        <time>2019-08-04T06:18:44.000Z</time>
      </trkpt>
      <trkpt lat="43.36822" lon="2.21053">
        <ele>549.3</ele>
        <time>2019-08-04T06:18:45.000Z</time>
      </trkpt>
      <trkpt lat="43.36822" lon="2.21054">
        <ele>549.3</ele>
        <time>2019-08-04T06:18:46.000Z</time>
      </trkpt>
      <trkpt lat="43.36822" lon="2.21055">
        <ele>549.4</ele>
        <time>2019-08-04T06:18:47.000Z</time>
      </trkpt>
      <trkpt lat="43.36822" lon="2.21056">
        <ele>549.4</ele>
        <time>2019-08-04T06:18:48.000Z</time>
      </trkpt>
      <trkpt lat="43.36822" lon="2.21056">
        <ele>549.4</ele>
        <time>2019-08-04T06:18:49.000Z</time>
      </trkpt>
      <trkpt lat="43.36822" lon="2.21057">
        <ele>549.4</ele>
        <time>2019-08-04T06:18:50.000Z</time>
      </trkpt>
      <trkpt lat="43.36822" lon="2.21057">
        <ele>549.5</ele>
        <time>2019-08-04T06:18:51.000Z</time>
      </trkpt>
      <trkpt lat="43.36823" lon="2.21058">
        <ele>549.5</ele>
        <time>2019-08-04T06:18:52.000Z</time>
      </trkpt>
      <trkpt lat="43.36823" lon="2.21058">
        <ele>549.5</ele>
        <time>2019-08-04T06:18:53.000Z</time>
      </trkpt>
      <trkpt lat="43.36823" lon="2.21059">
        <ele>549.5</ele>
        <time>2019-08-04T06:18:54.000Z</time>
      </trkpt>
      <trkpt lat="43.36824" lon="2.21059">
        <ele>549.6</ele>
        <time>2019-08-04T06:18:55.000Z</time>
      </trkpt>
      <trkpt lat="43.36824" lon="2.2106">
        <ele>549.6</ele>
        <time>2019-08-04T06:18:56.000Z</time>
      </trkpt>
      <trkpt lat="43.36825" lon="2.2106">
        <ele>549.6</ele>
        <time>2019-08-04T06:18:57.000Z</time>
      </trkpt>
      <trkpt lat="43.36825" lon="2.21061">
        <ele>549.7</ele>
        <time>2019-08-04T06:18:58.000Z</time>
      </trkpt>
      <trkpt lat="43.36826" lon="2.21061">
        <ele>549.7</ele>
        <time>2019-08-04T06:18:59.000Z</time>
      </trkpt>
      <trkpt lat="43.36827" lon="2.21062">
        <ele>549.7</ele>
        <time>2019-08-04T06:19:00.000Z</time>
      </trkpt>
      <trkpt lat="43.36827" lon="2.21062">
        <ele>549.8</ele>
        <time>2019-08-04T06:19:01.000Z</time>
      </trkpt>
      <trkpt lat="43.36828" lon="2.21063">
        <ele>549.8</ele>
        <time>2019-08-04T06:19:02.000Z</time>
      </trkpt>
      <trkpt lat="43.36828" lon="2.21063">
        <ele>549.8</ele>
        <time>2019-08-04T06:19:03.000Z</time>
      </trkpt>
      <trkpt lat="43.36829" lon="2.21063">
        <ele>549.8</ele>
        <time>2019-08-04T06:19:04.000Z</time>
      </trkpt>
      <trkpt lat="43.3683" lon="2.21064">
        <ele>549.9</ele>
        <time>2019-08-04T06:19:05.000Z</time>
      </trkpt>
      <trkpt lat="43.3683" lon="2.21064">
        <ele>549.9</ele>
        <time>2019-08-04T06:19:06.000Z</time>
      </trkpt>
      <trkpt lat="43.36831" lon="2.21065">
        <ele>549.9</ele>
        <time>2019-08-04T06:19:07.000Z</time>
      </trkpt>
      <trkpt lat="43.36831" lon="2.21065">
        <ele>549.9</ele>
        <time>2019-08-04T06:19:08.000Z</time>
      </trkpt>
      <trkpt lat="43.36832" lon="2.21065">
        <ele>549.9</ele>
        <time>2019-08-04T06:19:09.000Z</time>
      </trkpt>
      <trkpt lat="43.36832" lon="2.21065">
        <ele>549.9</ele>
        <time>2019-08-04T06:19:10.000Z</time>
      </trkpt>
      <trkpt lat="43.36832" lon="2.21066">
        <ele>550</ele>
        <time>2019-08-04T06:19:11.000Z</time>
      </trkpt>
      <trkpt lat="43.36832" lon="2.21066">
        <ele>550</ele>
        <time>2019-08-04T06:19:12.000Z</time>
      </trkpt>
      <trkpt lat="43.36832" lon="2.21066">
        <ele>550</ele>
        <time>2019-08-04T06:19:13.000Z</time>
      </trkpt>
      <trkpt lat="43.36832" lon="2.21066">
        <ele>550</ele>
        <time>2019-08-04T06:19:14.000Z</time>
      </trkpt>
      <trkpt lat="43.36832" lon="2.21067">
        <ele>550</ele>
        <time>2019-08-04T06:19:15.000Z</time>
      </trkpt>
      <trkpt lat="43.36833" lon="2.21068">
        <ele>550</ele>
        <time>2019-08-04T06:19:16.000Z</time>
      </trkpt>
      <trkpt lat="43.36833" lon="2.21068">
        <ele>550</ele>
        <time>2019-08-04T06:19:17.000Z</time>
      </trkpt>
      <trkpt lat="43.36833" lon="2.21069">
        <ele>550</ele>
        <time>2019-08-04T06:19:18.000Z</time>
      </trkpt>
      <trkpt lat="43.36834" lon="2.21069">
        <ele>550.1</ele>
        <time>2019-08-04T06:19:19.000Z</time>
      </trkpt>
      <trkpt lat="43.36834" lon="2.2107">
        <ele>550.2</ele>
        <time>2019-08-04T06:19:20.000Z</time>
      </trkpt>
      <trkpt lat="43.36834" lon="2.2107">
        <ele>550.2</ele>
        <time>2019-08-04T06:19:21.000Z</time>
      </trkpt>
      <trkpt lat="43.36834" lon="2.21071">
        <ele>550.2</ele>
        <time>2019-08-04T06:19:22.000Z</time>
      </trkpt>
      <trkpt lat="43.36834" lon="2.21071">
        <ele>550.2</ele>
        <time>2019-08-04T06:19:23.000Z</time>
      </trkpt>
      <trkpt lat="43.36834" lon="2.21071">
        <ele>550.2</ele>
        <time>2019-08-04T06:19:24.000Z</time>
      </trkpt>
      <trkpt lat="43.36834" lon="2.21071">
        <ele>550.2</ele>
        <time>2019-08-04T06:19:25.000Z</time>
      </trkpt>
      <trkpt lat="43.36834" lon="2.21071">
        <ele>550.1</ele>
        <time>2019-08-04T06:19:26.000Z</time>
      </trkpt>
      <trkpt lat="43.36834" lon="2.21071">
        <ele>550.1</ele>
        <time>2019-08-04T06:19:27.000Z</time>
      </trkpt>
      <trkpt lat="43.36833" lon="2.21071">
        <ele>550</ele>
        <time>2019-08-04T06:19:28.000Z</time>
      </trkpt>
      <trkpt lat="43.36833" lon="2.21071">
        <ele>550</ele>
        <time>2019-08-04T06:19:29.000Z</time>
      </trkpt>
      <trkpt lat="43.36833" lon="2.21071">
        <ele>550</ele>
        <time>2019-08-04T06:19:30.000Z</time>
      </trkpt>
      <trkpt lat="43.36833" lon="2.21071">
        <ele>550</ele>
        <time>2019-08-04T06:19:31.000Z</time>
      </trkpt>
      <trkpt lat="43.36833" lon="2.21071">
        <ele>550</ele>
        <time>2019-08-04T06:19:32.000Z</time>
      </trkpt>
      <trkpt lat="43.36833" lon="2.21071">
        <ele>550</ele>
        <time>2019-08-04T06:19:33.000Z</time>
      </trkpt>
      <trkpt lat="43.36833" lon="2.21071">
        <ele>550</ele>
        <time>2019-08-04T06:19:34.000Z</time>
      </trkpt>
      <trkpt lat="43.36833" lon="2.21071">
        <ele>550</ele>
        <time>2019-08-04T06:19:35.000Z</time>
      </trkpt>
      <trkpt lat="43.36833" lon="2.21072">
        <ele>550</ele>
        <time>2019-08-04T06:19:36.000Z</time>
      </trkpt>
      <trkpt lat="43.36833" lon="2.21072">
        <ele>550</ele>
        <time>2019-08-04T06:19:37.000Z</time>
      </trkpt>
      <trkpt lat="43.36833" lon="2.21072">
        <ele>550</ele>
        <time>2019-08-04T06:19:38.000Z</time>
      </trkpt>
      <trkpt lat="43.36833" lon="2.21072">
        <ele>550</ele>
        <time>2019-08-04T06:19:39.000Z</time>
      </trkpt>
      <trkpt lat="43.36833" lon="2.21072">
        <ele>550</ele>
        <time>2019-08-04T06:19:40.000Z</time>
      </trkpt>
      <trkpt lat="43.36833" lon="2.21072">
        <ele>550</ele>
        <time>2019-08-04T06:19:41.000Z</time>
      </trkpt>
      <trkpt lat="43.36833" lon="2.21072">
        <ele>550</ele>
        <time>2019-08-04T06:19:42.000Z</time>
      </trkpt>
      <trkpt lat="43.36833" lon="2.21071">
        <ele>550</ele>
        <time>2019-08-04T06:19:43.000Z</time>
      </trkpt>
      <trkpt lat="43.36833" lon="2.21071">
        <ele>550</ele>
        <time>2019-08-04T06:19:44.000Z</time>
      </trkpt>
      <trkpt lat="43.36834" lon="2.21071">
        <ele>550.2</ele>
        <time>2019-08-04T06:19:45.000Z</time>
      </trkpt>
      <trkpt lat="43.36835" lon="2.21071">
        <ele>550.4</ele>
        <time>2019-08-04T06:19:46.000Z</time>
      </trkpt>
      <trkpt lat="43.36835" lon="2.21072">
        <ele>550.6</ele>
        <time>2019-08-04T06:19:47.000Z</time>
      </trkpt>
      <trkpt lat="43.36836" lon="2.21072">
        <ele>550.8</ele>
        <time>2019-08-04T06:19:48.000Z</time>
      </trkpt>
      <trkpt lat="43.36836" lon="2.21073">
        <ele>550.9</ele>
        <time>2019-08-04T06:19:49.000Z</time>
      </trkpt>
      <trkpt lat="43.36837" lon="2.21073">
        <ele>551</ele>
        <time>2019-08-04T06:19:50.000Z</time>
      </trkpt>
      <trkpt lat="43.36837" lon="2.21073">
        <ele>551.1</ele>
        <time>2019-08-04T06:19:51.000Z</time>
      </trkpt>
      <trkpt lat="43.36837" lon="2.21074">
        <ele>551.2</ele>
        <time>2019-08-04T06:19:52.000Z</time>
      </trkpt>
      <trkpt lat="43.36837" lon="2.21074">
        <ele>551.2</ele>
        <time>2019-08-04T06:19:53.000Z</time>
      </trkpt>
      <trkpt lat="43.36837" lon="2.21074">
        <ele>551.2</ele>
        <time>2019-08-04T06:19:54.000Z</time>
      </trkpt>
      <trkpt lat="43.36837" lon="2.21074">
        <ele>551.2</ele>
        <time>2019-08-04T06:19:55.000Z</time>
      </trkpt>
      <trkpt lat="43.36838" lon="2.21074">
        <ele>551.3</ele>
        <time>2019-08-04T06:19:56.000Z</time>
      </trkpt>
      <trkpt lat="43.36838" lon="2.21074">
        <ele>551.5</ele>
        <time>2019-08-04T06:19:57.000Z</time>
      </trkpt>
      <trkpt lat="43.36839" lon="2.21075">
        <ele>551.7</ele>
        <time>2019-08-04T06:19:58.000Z</time>
      </trkpt>
      <trkpt lat="43.3684" lon="2.21075">
        <ele>551.9</ele>
        <time>2019-08-04T06:19:59.000Z</time>
      </trkpt>
      <trkpt lat="43.3684" lon="2.21076">
        <ele>552.2</ele>
        <time>2019-08-04T06:20:00.000Z</time>
      </trkpt>
      <trkpt lat="43.36841" lon="2.21077">
        <ele>552.4</ele>
        <time>2019-08-04T06:20:01.000Z</time>
      </trkpt>
      <trkpt lat="43.36842" lon="2.21077">
        <ele>552.6</ele>
        <time>2019-08-04T06:20:02.000Z</time>
      </trkpt>
      <trkpt lat="43.36843" lon="2.21078">
        <ele>552.8</ele>
        <time>2019-08-04T06:20:03.000Z</time>
      </trkpt>
      <trkpt lat="43.36843" lon="2.21078">
        <ele>553</ele>
        <time>2019-08-04T06:20:04.000Z</time>
      </trkpt>
      <trkpt lat="43.36844" lon="2.21079">
        <ele>553.2</ele>
        <time>2019-08-04T06:20:05.000Z</time>
      </trkpt>
      <trkpt lat="43.36845" lon="2.21079">
        <ele>553.4</ele>
        <time>2019-08-04T06:20:06.000Z</time>
      </trkpt>
      <trkpt lat="43.36845" lon="2.2108">
        <ele>553.6</ele>
        <time>2019-08-04T06:20:07.000Z</time>
      </trkpt>
      <trkpt lat="43.36846" lon="2.2108">
        <ele>553.9</ele>
        <time>2019-08-04T06:20:08.000Z</time>
      </trkpt>
      <trkpt lat="43.36847" lon="2.2108">
        <ele>554.1</ele>
        <time>2019-08-04T06:20:09.000Z</time>
      </trkpt>
      <trkpt lat="43.36848" lon="2.2108">
        <ele>554.3</ele>
        <time>2019-08-04T06:20:10.000Z</time>
      </trkpt>
      <trkpt lat="43.36849" lon="2.2108">
        <ele>554.6</ele>
        <time>2019-08-04T06:20:11.000Z</time>
      </trkpt>
      <trkpt lat="43.3685" lon="2.21081">
        <ele>554.9</ele>
        <time>2019-08-04T06:20:12.000Z</time>
      </trkpt>
      <trkpt lat="43.3685" lon="2.21081">
        <ele>555.2</ele>
        <time>2019-08-04T06:20:13.000Z</time>
      </trkpt>
      <trkpt lat="43.36851" lon="2.21081">
        <ele>555.4</ele>
        <time>2019-08-04T06:20:14.000Z</time>
      </trkpt>
      <trkpt lat="43.36852" lon="2.21082">
        <ele>555.7</ele>
        <time>2019-08-04T06:20:15.000Z</time>
      </trkpt>
      <trkpt lat="43.36853" lon="2.21083">
        <ele>556</ele>
        <time>2019-08-04T06:20:16.000Z</time>
      </trkpt>
      <trkpt lat="43.36854" lon="2.21084">
        <ele>556.3</ele>
        <time>2019-08-04T06:20:17.000Z</time>
      </trkpt>
      <trkpt lat="43.36855" lon="2.21085">
        <ele>556.6</ele>
        <time>2019-08-04T06:20:18.000Z</time>
      </trkpt>
      <trkpt lat="43.36856" lon="2.21086">
        <ele>556.9</ele>
        <time>2019-08-04T06:20:19.000Z</time>
      </trkpt>
      <trkpt lat="43.36857" lon="2.21087">
        <ele>557.2</ele>
        <time>2019-08-04T06:20:20.000Z</time>
      </trkpt>
      <trkpt lat="43.36858" lon="2.21088">
        <ele>557.5</ele>
        <time>2019-08-04T06:20:21.000Z</time>
      </trkpt>
      <trkpt lat="43.36859" lon="2.2109">
        <ele>557.7</ele>
        <time>2019-08-04T06:20:22.000Z</time>
      </trkpt>
      <trkpt lat="43.3686" lon="2.21092">
        <ele>558</ele>
        <time>2019-08-04T06:20:23.000Z</time>
      </trkpt>
      <trkpt lat="43.36861" lon="2.21093">
        <ele>558.2</ele>
        <time>2019-08-04T06:20:24.000Z</time>
      </trkpt>
      <trkpt lat="43.36862" lon="2.21095">
        <ele>558.4</ele>
        <time>2019-08-04T06:20:25.000Z</time>
      </trkpt>
      <trkpt lat="43.36863" lon="2.21097">
        <ele>558.6</ele>
        <time>2019-08-04T06:20:26.000Z</time>
      </trkpt>
      <trkpt lat="43.36864" lon="2.21098">
        <ele>558.8</ele>
        <time>2019-08-04T06:20:27.000Z</time>
      </trkpt>
      <trkpt lat="43.36865" lon="2.211">
        <ele>559</ele>
        <time>2019-08-04T06:20:28.000Z</time>
      </trkpt>
      <trkpt lat="43.36866" lon="2.21102">
        <ele>559.2</ele>
        <time>2019-08-04T06:20:29.000Z</time>
      </trkpt>
      <trkpt lat="43.36867" lon="2.21103">
        <ele>559.4</ele>
        <time>2019-08-04T06:20:30.000Z</time>
      </trkpt>
      <trkpt lat="43.36868" lon="2.21105">
        <ele>559.6</ele>
        <time>2019-08-04T06:20:31.000Z</time>
      </trkpt>
      <trkpt lat="43.36868" lon="2.21106">
        <ele>559.8</ele>
        <time>2019-08-04T06:20:32.000Z</time>
      </trkpt>
      <trkpt lat="43.36869" lon="2.21107">
        <ele>560</ele>
        <time>2019-08-04T06:20:33.000Z</time>
      </trkpt>
      <trkpt lat="43.3687" lon="2.21108">
        <ele>560.2</ele>
        <time>2019-08-04T06:20:34.000Z</time>
      </trkpt>
      <trkpt lat="43.36871" lon="2.21109">
        <ele>560.4</ele>
        <time>2019-08-04T06:20:35.000Z</time>
      </trkpt>
      <trkpt lat="43.36872" lon="2.21109">
        <ele>560.6</ele>
        <time>2019-08-04T06:20:36.000Z</time>
      </trkpt>
      <trkpt lat="43.36873" lon="2.21109">
        <ele>560.9</ele>
        <time>2019-08-04T06:20:37.000Z</time>
      </trkpt>
      <trkpt lat="43.36875" lon="2.21109">
        <ele>561.1</ele>
        <time>2019-08-04T06:20:38.000Z</time>
      </trkpt>
      <trkpt lat="43.36876" lon="2.21109">
        <ele>561.4</ele>
        <time>2019-08-04T06:20:39.000Z</time>
      </trkpt>
      <trkpt lat="43.36877" lon="2.21108">
        <ele>561.7</ele>
        <time>2019-08-04T06:20:40.000Z</time>
      </trkpt>
      <trkpt lat="43.36878" lon="2.21108">
        <ele>562</ele>
        <time>2019-08-04T06:20:41.000Z</time>
      </trkpt>
      <trkpt lat="43.36879" lon="2.21107">
        <ele>562.4</ele>
        <time>2019-08-04T06:20:42.000Z</time>
      </trkpt>
      <trkpt lat="43.3688" lon="2.21106">
        <ele>562.7</ele>
        <time>2019-08-04T06:20:43.000Z</time>
      </trkpt>
      <trkpt lat="43.36881" lon="2.21105">
        <ele>563</ele>
        <time>2019-08-04T06:20:44.000Z</time>
      </trkpt>
      <trkpt lat="43.36883" lon="2.21104">
        <ele>563.4</ele>
        <time>2019-08-04T06:20:45.000Z</time>
      </trkpt>
      <trkpt lat="43.36884" lon="2.21104">
        <ele>563.7</ele>
        <time>2019-08-04T06:20:46.000Z</time>
      </trkpt>
      <trkpt lat="43.36885" lon="2.21103">
        <ele>564.1</ele>
        <time>2019-08-04T06:20:47.000Z</time>
      </trkpt>
      <trkpt lat="43.36886" lon="2.21102">
        <ele>564.4</ele>
        <time>2019-08-04T06:20:48.000Z</time>
      </trkpt>
      <trkpt lat="43.36887" lon="2.21101">
        <ele>564.8</ele>
        <time>2019-08-04T06:20:49.000Z</time>
      </trkpt>
      <trkpt lat="43.36888" lon="2.21101">
        <ele>565.1</ele>
        <time>2019-08-04T06:20:50.000Z</time>
      </trkpt>
      <trkpt lat="43.36889" lon="2.211">
        <ele>565.4</ele>
        <time>2019-08-04T06:20:51.000Z</time>
      </trkpt>
      <trkpt lat="43.3689" lon="2.211">
        <ele>565.7</ele>
        <time>2019-08-04T06:20:52.000Z</time>
      </trkpt>
      <trkpt lat="43.36892" lon="2.211">
        <ele>566</ele>
        <time>2019-08-04T06:20:53.000Z</time>
      </trkpt>
      <trkpt lat="43.36893" lon="2.21101">
        <ele>566.2</ele>
        <time>2019-08-04T06:20:54.000Z</time>
      </trkpt>
      <trkpt lat="43.36894" lon="2.21101">
        <ele>566.5</ele>
        <time>2019-08-04T06:20:55.000Z</time>
      </trkpt>
      <trkpt lat="43.36895" lon="2.21101">
        <ele>566.7</ele>
        <time>2019-08-04T06:20:56.000Z</time>
      </trkpt>
      <trkpt lat="43.36895" lon="2.21102">
        <ele>566.9</ele>
        <time>2019-08-04T06:20:57.000Z</time>
      </trkpt>
      <trkpt lat="43.36896" lon="2.21103">
        <ele>567</ele>
        <time>2019-08-04T06:20:58.000Z</time>
      </trkpt>
      <trkpt lat="43.36897" lon="2.21103">
        <ele>567.2</ele>
        <time>2019-08-04T06:20:59.000Z</time>
      </trkpt>
      <trkpt lat="43.36898" lon="2.21104">
        <ele>567.4</ele>
        <time>2019-08-04T06:21:00.000Z</time>
      </trkpt>
      <trkpt lat="43.36899" lon="2.21105">
        <ele>567.5</ele>
        <time>2019-08-04T06:21:01.000Z</time>
      </trkpt>
      <trkpt lat="43.369" lon="2.21106">
        <ele>567.6</ele>
        <time>2019-08-04T06:21:02.000Z</time>
      </trkpt>
      <trkpt lat="43.36901" lon="2.21107">
        <ele>567.8</ele>
        <time>2019-08-04T06:21:03.000Z</time>
      </trkpt>
      <trkpt lat="43.36902" lon="2.21108">
        <ele>567.9</ele>
        <time>2019-08-04T06:21:04.000Z</time>
      </trkpt>
      <trkpt lat="43.36903" lon="2.21109">
        <ele>568</ele>
        <time>2019-08-04T06:21:05.000Z</time>
      </trkpt>
      <trkpt lat="43.36904" lon="2.2111">
        <ele>568.1</ele>
        <time>2019-08-04T06:21:06.000Z</time>
      </trkpt>
      <trkpt lat="43.36905" lon="2.21111">
        <ele>568.3</ele>
        <time>2019-08-04T06:21:07.000Z</time>
      </trkpt>
      <trkpt lat="43.36906" lon="2.21112">
        <ele>568.4</ele>
        <time>2019-08-04T06:21:08.000Z</time>
      </trkpt>
      <trkpt lat="43.36907" lon="2.21113">
        <ele>568.5</ele>
        <time>2019-08-04T06:21:09.000Z</time>
      </trkpt>
      <trkpt lat="43.36909" lon="2.21114">
        <ele>568.7</ele>
        <time>2019-08-04T06:21:10.000Z</time>
      </trkpt>
      <trkpt lat="43.3691" lon="2.21115">
        <ele>568.8</ele>
        <time>2019-08-04T06:21:11.000Z</time>
      </trkpt>
      <trkpt lat="43.36911" lon="2.21116">
        <ele>568.9</ele>
        <time>2019-08-04T06:21:12.000Z</time>
      </trkpt>
      <trkpt lat="43.36912" lon="2.21117">
        <ele>569</ele>
        <time>2019-08-04T06:21:13.000Z</time>
      </trkpt>
      <trkpt lat="43.36913" lon="2.21118">
        <ele>569.1</ele>
        <time>2019-08-04T06:21:14.000Z</time>
      </trkpt>
      <trkpt lat="43.36914" lon="2.21119">
        <ele>569.2</ele>
        <time>2019-08-04T06:21:15.000Z</time>
      </trkpt>
      <trkpt lat="43.36915" lon="2.2112">
        <ele>569.4</ele>
        <time>2019-08-04T06:21:16.000Z</time>
      </trkpt>
      <trkpt lat="43.36916" lon="2.21121">
        <ele>569.5</ele>
        <time>2019-08-04T06:21:17.000Z</time>
      </trkpt>
      <trkpt lat="43.36917" lon="2.21122">
        <ele>569.6</ele>
        <time>2019-08-04T06:21:18.000Z</time>
      </trkpt>
      <trkpt lat="43.36918" lon="2.21123">
        <ele>569.7</ele>
        <time>2019-08-04T06:21:19.000Z</time>
      </trkpt>
      <trkpt lat="43.36919" lon="2.21123">
        <ele>569.8</ele>
        <time>2019-08-04T06:21:20.000Z</time>
      </trkpt>
      <trkpt lat="43.3692" lon="2.21124">
        <ele>569.8</ele>
        <time>2019-08-04T06:21:21.000Z</time>
      </trkpt>
      <trkpt lat="43.36921" lon="2.21125">
        <ele>570</ele>
        <time>2019-08-04T06:21:22.000Z</time>
      </trkpt>
      <trkpt lat="43.36922" lon="2.21126">
        <ele>570</ele>
        <time>2019-08-04T06:21:23.000Z</time>
      </trkpt>
      <trkpt lat="43.36923" lon="2.21126">
        <ele>570.1</ele>
        <time>2019-08-04T06:21:24.000Z</time>
      </trkpt>
      <trkpt lat="43.36924" lon="2.21127">
        <ele>570.2</ele>
        <time>2019-08-04T06:21:25.000Z</time>
      </trkpt>
      <trkpt lat="43.36925" lon="2.21128">
        <ele>570.4</ele>
        <time>2019-08-04T06:21:26.000Z</time>
      </trkpt>
      <trkpt lat="43.36926" lon="2.21128">
        <ele>570.4</ele>
        <time>2019-08-04T06:21:27.000Z</time>
      </trkpt>
      <trkpt lat="43.36927" lon="2.21129">
        <ele>570.6</ele>
        <time>2019-08-04T06:21:28.000Z</time>
      </trkpt>
      <trkpt lat="43.36927" lon="2.2113">
        <ele>570.7</ele>
        <time>2019-08-04T06:21:29.000Z</time>
      </trkpt>
      <trkpt lat="43.36928" lon="2.2113">
        <ele>570.8</ele>
        <time>2019-08-04T06:21:30.000Z</time>
      </trkpt>
      <trkpt lat="43.36929" lon="2.21131">
        <ele>570.9</ele>
        <time>2019-08-04T06:21:31.000Z</time>
      </trkpt>
      <trkpt lat="43.3693" lon="2.21131">
        <ele>571</ele>
        <time>2019-08-04T06:21:32.000Z</time>
      </trkpt>
      <trkpt lat="43.36931" lon="2.21132">
        <ele>571.2</ele>
        <time>2019-08-04T06:21:33.000Z</time>
      </trkpt>
      <trkpt lat="43.36932" lon="2.21133">
        <ele>571.3</ele>
        <time>2019-08-04T06:21:34.000Z</time>
      </trkpt>
      <trkpt lat="43.36933" lon="2.21133">
        <ele>571.4</ele>
        <time>2019-08-04T06:21:35.000Z</time>
      </trkpt>
      <trkpt lat="43.36934" lon="2.21134">
        <ele>571.6</ele>
        <time>2019-08-04T06:21:36.000Z</time>
      </trkpt>
      <trkpt lat="43.36935" lon="2.21134">
        <ele>571.8</ele>
        <time>2019-08-04T06:21:37.000Z</time>
      </trkpt>
      <trkpt lat="43.36936" lon="2.21135">
        <ele>571.9</ele>
        <time>2019-08-04T06:21:38.000Z</time>
      </trkpt>
      <trkpt lat="43.36937" lon="2.21135">
        <ele>572.1</ele>
        <time>2019-08-04T06:21:39.000Z</time>
      </trkpt>
      <trkpt lat="43.36938" lon="2.21135">
        <ele>572.3</ele>
        <time>2019-08-04T06:21:40.000Z</time>
      </trkpt>
      <trkpt lat="43.36939" lon="2.21135">
        <ele>572.6</ele>
        <time>2019-08-04T06:21:41.000Z</time>
      </trkpt>
      <trkpt lat="43.3694" lon="2.21135">
        <ele>572.8</ele>
        <time>2019-08-04T06:21:42.000Z</time>
      </trkpt>
      <trkpt lat="43.36941" lon="2.21135">
        <ele>573.1</ele>
        <time>2019-08-04T06:21:43.000Z</time>
      </trkpt>
      <trkpt lat="43.36943" lon="2.21134">
        <ele>573.4</ele>
        <time>2019-08-04T06:21:44.000Z</time>
      </trkpt>
      <trkpt lat="43.36944" lon="2.21134">
        <ele>573.7</ele>
        <time>2019-08-04T06:21:45.000Z</time>
      </trkpt>
      <trkpt lat="43.36945" lon="2.21133">
        <ele>574</ele>
        <time>2019-08-04T06:21:46.000Z</time>
      </trkpt>
      <trkpt lat="43.36946" lon="2.21132">
        <ele>574.4</ele>
        <time>2019-08-04T06:21:47.000Z</time>
      </trkpt>
      <trkpt lat="43.36947" lon="2.21131">
        <ele>574.7</ele>
        <time>2019-08-04T06:21:48.000Z</time>
      </trkpt>
      <trkpt lat="43.36948" lon="2.2113">
        <ele>575</ele>
        <time>2019-08-04T06:21:49.000Z</time>
      </trkpt>
      <trkpt lat="43.36949" lon="2.2113">
        <ele>575.3</ele>
        <time>2019-08-04T06:21:50.000Z</time>
      </trkpt>
      <trkpt lat="43.3695" lon="2.21129">
        <ele>575.6</ele>
        <time>2019-08-04T06:21:51.000Z</time>
      </trkpt>
      <trkpt lat="43.36951" lon="2.21128">
        <ele>575.9</ele>
        <time>2019-08-04T06:21:52.000Z</time>
      </trkpt>
      <trkpt lat="43.36952" lon="2.21128">
        <ele>576.1</ele>
        <time>2019-08-04T06:21:53.000Z</time>
      </trkpt>
      <trkpt lat="43.36953" lon="2.21128">
        <ele>576.3</ele>
        <time>2019-08-04T06:21:54.000Z</time>
      </trkpt>
      <trkpt lat="43.36954" lon="2.21127">
        <ele>576.6</ele>
        <time>2019-08-04T06:21:55.000Z</time>
      </trkpt>
      <trkpt lat="43.36954" lon="2.21127">
        <ele>576.7</ele>
        <time>2019-08-04T06:21:56.000Z</time>
      </trkpt>
      <trkpt lat="43.36955" lon="2.21127">
        <ele>576.9</ele>
        <time>2019-08-04T06:21:57.000Z</time>
      </trkpt>
      <trkpt lat="43.36956" lon="2.21127">
        <ele>577.1</ele>
        <time>2019-08-04T06:21:58.000Z</time>
      </trkpt>
      <trkpt lat="43.36956" lon="2.21127">
        <ele>577.2</ele>
        <time>2019-08-04T06:21:59.000Z</time>
      </trkpt>
      <trkpt lat="43.36957" lon="2.21127">
        <ele>577.3</ele>
        <time>2019-08-04T06:22:00.000Z</time>
      </trkpt>
      <trkpt lat="43.36957" lon="2.21127">
        <ele>577.4</ele>
        <time>2019-08-04T06:22:01.000Z</time>
      </trkpt>
      <trkpt lat="43.36958" lon="2.21127">
        <ele>577.5</ele>
        <time>2019-08-04T06:22:02.000Z</time>
      </trkpt>
      <trkpt lat="43.36958" lon="2.21127">
        <ele>577.6</ele>
        <time>2019-08-04T06:22:03.000Z</time>
      </trkpt>
      <trkpt lat="43.36958" lon="2.21127">
        <ele>577.6</ele>
        <time>2019-08-04T06:22:04.000Z</time>
      </trkpt>
      <trkpt lat="43.36958" lon="2.21127">
        <ele>577.6</ele>
        <time>2019-08-04T06:22:05.000Z</time>
      </trkpt>
      <trkpt lat="43.36959" lon="2.21127">
        <ele>577.6</ele>
        <time>2019-08-04T06:22:06.000Z</time>
      </trkpt>
      <trkpt lat="43.36959" lon="2.21127">
        <ele>577.6</ele>
        <time>2019-08-04T06:22:07.000Z</time>
      </trkpt>
      <trkpt lat="43.36959" lon="2.21127">
        <ele>577.6</ele>
        <time>2019-08-04T06:22:08.000Z</time>
      </trkpt>
      <trkpt lat="43.36958" lon="2.21127">
        <ele>577.6</ele>
        <time>2019-08-04T06:22:09.000Z</time>
      </trkpt>
      <trkpt lat="43.36958" lon="2.21127">
        <ele>577.6</ele>
        <time>2019-08-04T06:22:10.000Z</time>
      </trkpt>
      <trkpt lat="43.36958" lon="2.21127">
        <ele>577.6</ele>
        <time>2019-08-04T06:22:11.000Z</time>
      </trkpt>
      <trkpt lat="43.36959" lon="2.21127">
        <ele>577.6</ele>
        <time>2019-08-04T06:22:12.000Z</time>
      </trkpt>
      <trkpt lat="43.36959" lon="2.21127">
        <ele>577.7</ele>
        <time>2019-08-04T06:22:13.000Z</time>
      </trkpt>
      <trkpt lat="43.36959" lon="2.21126">
        <ele>577.8</ele>
        <time>2019-08-04T06:22:14.000Z</time>
      </trkpt>
      <trkpt lat="43.3696" lon="2.21126">
        <ele>577.9</ele>
        <time>2019-08-04T06:22:15.000Z</time>
      </trkpt>
      <trkpt lat="43.3696" lon="2.21126">
        <ele>578.1</ele>
        <time>2019-08-04T06:22:16.000Z</time>
      </trkpt>
      <trkpt lat="43.36961" lon="2.21125">
        <ele>578.2</ele>
        <time>2019-08-04T06:22:17.000Z</time>
      </trkpt>
      <trkpt lat="43.36961" lon="2.21125">
        <ele>578.4</ele>
        <time>2019-08-04T06:22:18.000Z</time>
      </trkpt>
      <trkpt lat="43.36962" lon="2.21125">
        <ele>578.6</ele>
        <time>2019-08-04T06:22:19.000Z</time>
      </trkpt>
      <trkpt lat="43.36963" lon="2.21124">
        <ele>578.8</ele>
        <time>2019-08-04T06:22:20.000Z</time>
      </trkpt>
      <trkpt lat="43.36964" lon="2.21124">
        <ele>579</ele>
        <time>2019-08-04T06:22:21.000Z</time>
      </trkpt>
      <trkpt lat="43.36965" lon="2.21124">
        <ele>579.1</ele>
        <time>2019-08-04T06:22:22.000Z</time>
      </trkpt>
      <trkpt lat="43.36965" lon="2.21124">
        <ele>579.3</ele>
        <time>2019-08-04T06:22:23.000Z</time>
      </trkpt>
      <trkpt lat="43.36966" lon="2.21124">
        <ele>579.5</ele>
        <time>2019-08-04T06:22:24.000Z</time>
      </trkpt>
      <trkpt lat="43.36967" lon="2.21124">
        <ele>579.6</ele>
        <time>2019-08-04T06:22:25.000Z</time>
      </trkpt>
      <trkpt lat="43.36968" lon="2.21124">
        <ele>579.8</ele>
        <time>2019-08-04T06:22:26.000Z</time>
      </trkpt>
      <trkpt lat="43.36968" lon="2.21125">
        <ele>579.9</ele>
        <time>2019-08-04T06:22:27.000Z</time>
      </trkpt>
      <trkpt lat="43.36969" lon="2.21125">
        <ele>579.9</ele>
        <time>2019-08-04T06:22:28.000Z</time>
      </trkpt>
      <trkpt lat="43.36969" lon="2.21126">
        <ele>580</ele>
        <time>2019-08-04T06:22:29.000Z</time>
      </trkpt>
      <trkpt lat="43.3697" lon="2.21127">
        <ele>580</ele>
        <time>2019-08-04T06:22:30.000Z</time>
      </trkpt>
      <trkpt lat="43.3697" lon="2.21127">
        <ele>580</ele>
        <time>2019-08-04T06:22:31.000Z</time>
      </trkpt>
      <trkpt lat="43.3697" lon="2.21128">
        <ele>580</ele>
        <time>2019-08-04T06:22:32.000Z</time>
      </trkpt>
      <trkpt lat="43.36971" lon="2.21129">
        <ele>580</ele>
        <time>2019-08-04T06:22:33.000Z</time>
      </trkpt>
      <trkpt lat="43.36971" lon="2.2113">
        <ele>580</ele>
        <time>2019-08-04T06:22:34.000Z</time>
      </trkpt>
      <trkpt lat="43.36971" lon="2.21131">
        <ele>580</ele>
        <time>2019-08-04T06:22:35.000Z</time>
      </trkpt>
      <trkpt lat="43.36971" lon="2.21131">
        <ele>580</ele>
        <time>2019-08-04T06:22:36.000Z</time>
      </trkpt>
      <trkpt lat="43.36971" lon="2.21132">
        <ele>580</ele>
        <time>2019-08-04T06:22:37.000Z</time>
      </trkpt>
      <trkpt lat="43.36971" lon="2.21132">
        <ele>579.9</ele>
        <time>2019-08-04T06:22:38.000Z</time>
      </trkpt>
      <trkpt lat="43.36971" lon="2.21132">
        <ele>579.9</ele>
        <time>2019-08-04T06:22:39.000Z</time>
      </trkpt>
      <trkpt lat="43.36971" lon="2.21132">
        <ele>579.9</ele>
        <time>2019-08-04T06:22:40.000Z</time>
      </trkpt>
      <trkpt lat="43.36971" lon="2.21133">
        <ele>579.9</ele>
        <time>2019-08-04T06:22:41.000Z</time>
      </trkpt>
      <trkpt lat="43.36971" lon="2.21133">
        <ele>579.9</ele>
        <time>2019-08-04T06:22:42.000Z</time>
      </trkpt>
      <trkpt lat="43.36971" lon="2.21133">
        <ele>579.9</ele>
        <time>2019-08-04T06:22:43.000Z</time>
      </trkpt>
      <trkpt lat="43.36971" lon="2.21133">
        <ele>579.9</ele>
        <time>2019-08-04T06:22:44.000Z</time>
      </trkpt>
      <trkpt lat="43.36971" lon="2.21133">
        <ele>579.9</ele>
        <time>2019-08-04T06:22:45.000Z</time>
      </trkpt>
      <trkpt lat="43.36971" lon="2.21133">
        <ele>579.9</ele>
        <time>2019-08-04T06:22:46.000Z</time>
      </trkpt>
      <trkpt lat="43.36971" lon="2.21133">
        <ele>579.9</ele>
        <time>2019-08-04T06:22:47.000Z</time>
      </trkpt>
      <trkpt lat="43.36971" lon="2.21133">
        <ele>579.9</ele>
        <time>2019-08-04T06:22:48.000Z</time>
      </trkpt>
      <trkpt lat="43.36971" lon="2.21133">
        <ele>579.9</ele>
        <time>2019-08-04T06:22:49.000Z</time>
      </trkpt>
      <trkpt lat="43.36971" lon="2.21133">
        <ele>579.9</ele>
        <time>2019-08-04T06:22:50.000Z</time>
      </trkpt>
      <trkpt lat="43.36971" lon="2.21133">
        <ele>579.9</ele>
        <time>2019-08-04T06:22:51.000Z</time>
      </trkpt>
      <trkpt lat="43.36971" lon="2.21133">
        <ele>579.9</ele>
        <time>2019-08-04T06:22:52.000Z</time>
      </trkpt>
      <trkpt lat="43.36972" lon="2.21133">
        <ele>579.9</ele>
        <time>2019-08-04T06:22:53.000Z</time>
      </trkpt>
      <trkpt lat="43.36972" lon="2.21134">
        <ele>579.9</ele>
        <time>2019-08-04T06:22:54.000Z</time>
      </trkpt>
      <trkpt lat="43.36972" lon="2.21135">
        <ele>579.9</ele>
        <time>2019-08-04T06:22:55.000Z</time>
      </trkpt>
      <trkpt lat="43.36972" lon="2.21136">
        <ele>579.8</ele>
        <time>2019-08-04T06:22:56.000Z</time>
      </trkpt>
      <trkpt lat="43.36972" lon="2.21138">
        <ele>579.8</ele>
        <time>2019-08-04T06:22:57.000Z</time>
      </trkpt>
      <trkpt lat="43.36972" lon="2.21139">
        <ele>579.7</ele>
        <time>2019-08-04T06:22:58.000Z</time>
      </trkpt>
      <trkpt lat="43.36973" lon="2.2114">
        <ele>579.7</ele>
        <time>2019-08-04T06:22:59.000Z</time>
      </trkpt>
      <trkpt lat="43.36973" lon="2.21141">
        <ele>579.6</ele>
        <time>2019-08-04T06:23:00.000Z</time>
      </trkpt>
      <trkpt lat="43.36973" lon="2.21142">
        <ele>579.7</ele>
        <time>2019-08-04T06:23:01.000Z</time>
      </trkpt>
      <trkpt lat="43.36973" lon="2.21142">
        <ele>579.7</ele>
        <time>2019-08-04T06:23:02.000Z</time>
      </trkpt>
      <trkpt lat="43.36974" lon="2.21143">
        <ele>579.8</ele>
        <time>2019-08-04T06:23:03.000Z</time>
      </trkpt>
      <trkpt lat="43.36975" lon="2.21143">
        <ele>580</ele>
        <time>2019-08-04T06:23:04.000Z</time>
      </trkpt>
      <trkpt lat="43.36976" lon="2.21143">
        <ele>580.2</ele>
        <time>2019-08-04T06:23:05.000Z</time>
      </trkpt>
      <trkpt lat="43.36977" lon="2.21143">
        <ele>580.4</ele>
        <time>2019-08-04T06:23:06.000Z</time>
      </trkpt>
      <trkpt lat="43.36978" lon="2.21143">
        <ele>580.7</ele>
        <time>2019-08-04T06:23:07.000Z</time>
      </trkpt>
      <trkpt lat="43.36979" lon="2.21143">
        <ele>581</ele>
        <time>2019-08-04T06:23:08.000Z</time>
      </trkpt>
      <trkpt lat="43.36981" lon="2.21143">
        <ele>581.3</ele>
        <time>2019-08-04T06:23:09.000Z</time>
      </trkpt>
      <trkpt lat="43.36982" lon="2.21143">
        <ele>581.7</ele>
        <time>2019-08-04T06:23:10.000Z</time>
      </trkpt>
      <trkpt lat="43.36983" lon="2.21143">
        <ele>581.9</ele>
        <time>2019-08-04T06:23:11.000Z</time>
      </trkpt>
      <trkpt lat="43.36984" lon="2.21143">
        <ele>582.2</ele>
        <time>2019-08-04T06:23:12.000Z</time>
      </trkpt>
      <trkpt lat="43.36985" lon="2.21143">
        <ele>582.4</ele>
        <time>2019-08-04T06:23:13.000Z</time>
      </trkpt>
      <trkpt lat="43.36986" lon="2.21143">
        <ele>582.6</ele>
        <time>2019-08-04T06:23:14.000Z</time>
      </trkpt>
      <trkpt lat="43.36987" lon="2.21143">
        <ele>582.7</ele>
        <time>2019-08-04T06:23:15.000Z</time>
      </trkpt>
      <trkpt lat="43.36987" lon="2.21143">
        <ele>582.8</ele>
        <time>2019-08-04T06:23:16.000Z</time>
      </trkpt>
      <trkpt lat="43.36987" lon="2.21143">
        <ele>582.9</ele>
        <time>2019-08-04T06:23:17.000Z</time>
      </trkpt>
      <trkpt lat="43.36988" lon="2.21143">
        <ele>583</ele>
        <time>2019-08-04T06:23:18.000Z</time>
      </trkpt>
      <trkpt lat="43.36988" lon="2.21144">
        <ele>583</ele>
        <time>2019-08-04T06:23:19.000Z</time>
      </trkpt>
      <trkpt lat="43.36989" lon="2.21144">
        <ele>583.1</ele>
        <time>2019-08-04T06:23:20.000Z</time>
      </trkpt>
      <trkpt lat="43.36989" lon="2.21144">
        <ele>583.2</ele>
        <time>2019-08-04T06:23:21.000Z</time>
      </trkpt>
      <trkpt lat="43.36989" lon="2.21145">
        <ele>583.3</ele>
        <time>2019-08-04T06:23:22.000Z</time>
      </trkpt>
      <trkpt lat="43.3699" lon="2.21146">
        <ele>583.3</ele>
        <time>2019-08-04T06:23:23.000Z</time>
      </trkpt>
      <trkpt lat="43.3699" lon="2.21147">
        <ele>583.4</ele>
        <time>2019-08-04T06:23:24.000Z</time>
      </trkpt>
      <trkpt lat="43.36991" lon="2.21148">
        <ele>583.4</ele>
        <time>2019-08-04T06:23:25.000Z</time>
      </trkpt>
      <trkpt lat="43.36991" lon="2.21149">
        <ele>583.5</ele>
        <time>2019-08-04T06:23:26.000Z</time>
      </trkpt>
      <trkpt lat="43.36992" lon="2.21151">
        <ele>583.6</ele>
        <time>2019-08-04T06:23:27.000Z</time>
      </trkpt>
      <trkpt lat="43.36992" lon="2.21152">
        <ele>583.7</ele>
        <time>2019-08-04T06:23:28.000Z</time>
      </trkpt>
      <trkpt lat="43.36993" lon="2.21153">
        <ele>583.7</ele>
        <time>2019-08-04T06:23:29.000Z</time>
      </trkpt>
      <trkpt lat="43.36993" lon="2.21154">
        <ele>583.8</ele>
        <time>2019-08-04T06:23:30.000Z</time>
      </trkpt>
      <trkpt lat="43.36994" lon="2.21156">
        <ele>583.9</ele>
        <time>2019-08-04T06:23:31.000Z</time>
      </trkpt>
      <trkpt lat="43.36995" lon="2.21157">
        <ele>584</ele>
        <time>2019-08-04T06:23:32.000Z</time>
      </trkpt>
      <trkpt lat="43.36995" lon="2.21158">
        <ele>584.1</ele>
        <time>2019-08-04T06:23:33.000Z</time>
      </trkpt>
      <trkpt lat="43.36996" lon="2.21159">
        <ele>584.2</ele>
        <time>2019-08-04T06:23:34.000Z</time>
      </trkpt>
      <trkpt lat="43.36996" lon="2.2116">
        <ele>584.3</ele>
        <time>2019-08-04T06:23:35.000Z</time>
      </trkpt>
      <trkpt lat="43.36997" lon="2.21161">
        <ele>584.4</ele>
        <time>2019-08-04T06:23:36.000Z</time>
      </trkpt>
      <trkpt lat="43.36998" lon="2.21162">
        <ele>584.5</ele>
        <time>2019-08-04T06:23:37.000Z</time>
      </trkpt>
      <trkpt lat="43.36998" lon="2.21163">
        <ele>584.7</ele>
        <time>2019-08-04T06:23:38.000Z</time>
      </trkpt>
      <trkpt lat="43.36999" lon="2.21163">
        <ele>584.8</ele>
        <time>2019-08-04T06:23:39.000Z</time>
      </trkpt>
      <trkpt lat="43.36999" lon="2.21164">
        <ele>584.9</ele>
        <time>2019-08-04T06:23:40.000Z</time>
      </trkpt>
      <trkpt lat="43.37" lon="2.21165">
        <ele>585.1</ele>
        <time>2019-08-04T06:23:41.000Z</time>
      </trkpt>
      <trkpt lat="43.37001" lon="2.21166">
        <ele>585.1</ele>
        <time>2019-08-04T06:23:42.000Z</time>
      </trkpt>
      <trkpt lat="43.37001" lon="2.21167">
        <ele>585.2</ele>
        <time>2019-08-04T06:23:43.000Z</time>
      </trkpt>
      <trkpt lat="43.37002" lon="2.21168">
        <ele>585.2</ele>
        <time>2019-08-04T06:23:44.000Z</time>
      </trkpt>
      <trkpt lat="43.37003" lon="2.21169">
        <ele>585.2</ele>
        <time>2019-08-04T06:23:45.000Z</time>
      </trkpt>
      <trkpt lat="43.37003" lon="2.2117">
        <ele>585.2</ele>
        <time>2019-08-04T06:23:46.000Z</time>
      </trkpt>
      <trkpt lat="43.37004" lon="2.21171">
        <ele>585.2</ele>
        <time>2019-08-04T06:23:47.000Z</time>
      </trkpt>
      <trkpt lat="43.37005" lon="2.21172">
        <ele>585.2</ele>
        <time>2019-08-04T06:23:48.000Z</time>
      </trkpt>
      <trkpt lat="43.37005" lon="2.21174">
        <ele>585.2</ele>
        <time>2019-08-04T06:23:49.000Z</time>
      </trkpt>
      <trkpt lat="43.37006" lon="2.21175">
        <ele>585.2</ele>
        <time>2019-08-04T06:23:50.000Z</time>
      </trkpt>
      <trkpt lat="43.37006" lon="2.21176">
        <ele>585.2</ele>
        <time>2019-08-04T06:23:51.000Z</time>
      </trkpt>
      <trkpt lat="43.37007" lon="2.21178">
        <ele>585.1</ele>
        <time>2019-08-04T06:23:52.000Z</time>
      </trkpt>
      <trkpt lat="43.37007" lon="2.21179">
        <ele>585.1</ele>
        <time>2019-08-04T06:23:53.000Z</time>
      </trkpt>
      <trkpt lat="43.37008" lon="2.2118">
        <ele>585.1</ele>
        <time>2019-08-04T06:23:54.000Z</time>
      </trkpt>
      <trkpt lat="43.37009" lon="2.21182">
        <ele>585.1</ele>
        <time>2019-08-04T06:23:55.000Z</time>
      </trkpt>
      <trkpt lat="43.3701" lon="2.21183">
        <ele>585.1</ele>
        <time>2019-08-04T06:23:56.000Z</time>
      </trkpt>
      <trkpt lat="43.37011" lon="2.21185">
        <ele>585.1</ele>
        <time>2019-08-04T06:23:57.000Z</time>
      </trkpt>
      <trkpt lat="43.37012" lon="2.21186">
        <ele>585.1</ele>
        <time>2019-08-04T06:23:58.000Z</time>
      </trkpt>
      <trkpt lat="43.37013" lon="2.21188">
        <ele>585.2</ele>
        <time>2019-08-04T06:23:59.000Z</time>
      </trkpt>
      <trkpt lat="43.37014" lon="2.21189">
        <ele>585.2</ele>
        <time>2019-08-04T06:24:00.000Z</time>
      </trkpt>
      <trkpt lat="43.37015" lon="2.21191">
        <ele>585.2</ele>
        <time>2019-08-04T06:24:01.000Z</time>
      </trkpt>
      <trkpt lat="43.37016" lon="2.21193">
        <ele>585.3</ele>
        <time>2019-08-04T06:24:02.000Z</time>
      </trkpt>
      <trkpt lat="43.37017" lon="2.21194">
        <ele>585.2</ele>
        <time>2019-08-04T06:24:03.000Z</time>
      </trkpt>
      <trkpt lat="43.37018" lon="2.21196">
        <ele>585.2</ele>
        <time>2019-08-04T06:24:04.000Z</time>
      </trkpt>
      <trkpt lat="43.37019" lon="2.21198">
        <ele>585.2</ele>
        <time>2019-08-04T06:24:05.000Z</time>
      </trkpt>
      <trkpt lat="43.37019" lon="2.212">
        <ele>585.1</ele>
        <time>2019-08-04T06:24:06.000Z</time>
      </trkpt>
      <trkpt lat="43.3702" lon="2.21202">
        <ele>585</ele>
        <time>2019-08-04T06:24:07.000Z</time>
      </trkpt>
      <trkpt lat="43.37021" lon="2.21204">
        <ele>585</ele>
        <time>2019-08-04T06:24:08.000Z</time>
      </trkpt>
      <trkpt lat="43.37022" lon="2.21206">
        <ele>584.9</ele>
        <time>2019-08-04T06:24:09.000Z</time>
      </trkpt>
      <trkpt lat="43.37023" lon="2.21208">
        <ele>584.9</ele>
        <time>2019-08-04T06:24:10.000Z</time>
      </trkpt>
      <trkpt lat="43.37024" lon="2.2121">
        <ele>584.9</ele>
        <time>2019-08-04T06:24:11.000Z</time>
      </trkpt>
      <trkpt lat="43.37025" lon="2.21212">
        <ele>584.9</ele>
        <time>2019-08-04T06:24:12.000Z</time>
      </trkpt>
      <trkpt lat="43.37026" lon="2.21213">
        <ele>585</ele>
        <time>2019-08-04T06:24:13.000Z</time>
      </trkpt>
      <trkpt lat="43.37028" lon="2.21215">
        <ele>585.1</ele>
        <time>2019-08-04T06:24:14.000Z</time>
      </trkpt>
      <trkpt lat="43.37029" lon="2.21216">
        <ele>585.3</ele>
        <time>2019-08-04T06:24:15.000Z</time>
      </trkpt>
      <trkpt lat="43.37031" lon="2.21217">
        <ele>585.4</ele>
        <time>2019-08-04T06:24:16.000Z</time>
      </trkpt>
      <trkpt lat="43.37033" lon="2.21218">
        <ele>585.6</ele>
        <time>2019-08-04T06:24:17.000Z</time>
      </trkpt>
      <trkpt lat="43.37035" lon="2.21219">
        <ele>585.8</ele>
        <time>2019-08-04T06:24:18.000Z</time>
      </trkpt>
      <trkpt lat="43.37037" lon="2.2122">
        <ele>585.9</ele>
        <time>2019-08-04T06:24:19.000Z</time>
      </trkpt>
      <trkpt lat="43.37038" lon="2.21221">
        <ele>586.1</ele>
        <time>2019-08-04T06:24:20.000Z</time>
      </trkpt>
      <trkpt lat="43.3704" lon="2.21221">
        <ele>586.3</ele>
        <time>2019-08-04T06:24:21.000Z</time>
      </trkpt>
      <trkpt lat="43.37042" lon="2.21222">
        <ele>586.6</ele>
        <time>2019-08-04T06:24:22.000Z</time>
      </trkpt>
      <trkpt lat="43.37044" lon="2.21223">
        <ele>586.8</ele>
        <time>2019-08-04T06:24:23.000Z</time>
      </trkpt>
      <trkpt lat="43.37046" lon="2.21223">
        <ele>587</ele>
        <time>2019-08-04T06:24:24.000Z</time>
      </trkpt>
      <trkpt lat="43.37047" lon="2.21224">
        <ele>587.2</ele>
        <time>2019-08-04T06:24:25.000Z</time>
      </trkpt>
      <trkpt lat="43.37049" lon="2.21224">
        <ele>587.4</ele>
        <time>2019-08-04T06:24:26.000Z</time>
      </trkpt>
      <trkpt lat="43.37051" lon="2.21224">
        <ele>587.6</ele>
        <time>2019-08-04T06:24:27.000Z</time>
      </trkpt>
      <trkpt lat="43.37052" lon="2.21225">
        <ele>587.8</ele>
        <time>2019-08-04T06:24:28.000Z</time>
      </trkpt>
      <trkpt lat="43.37054" lon="2.21225">
        <ele>588.1</ele>
        <time>2019-08-04T06:24:29.000Z</time>
      </trkpt>
      <trkpt lat="43.37056" lon="2.21225">
        <ele>588.3</ele>
        <time>2019-08-04T06:24:30.000Z</time>
      </trkpt>
      <trkpt lat="43.37057" lon="2.21226">
        <ele>588.5</ele>
        <time>2019-08-04T06:24:31.000Z</time>
      </trkpt>
      <trkpt lat="43.37059" lon="2.21226">
        <ele>588.7</ele>
        <time>2019-08-04T06:24:32.000Z</time>
      </trkpt>
      <trkpt lat="43.3706" lon="2.21226">
        <ele>588.9</ele>
        <time>2019-08-04T06:24:33.000Z</time>
      </trkpt>
      <trkpt lat="43.37062" lon="2.21227">
        <ele>589</ele>
        <time>2019-08-04T06:24:34.000Z</time>
      </trkpt>
      <trkpt lat="43.37063" lon="2.21227">
        <ele>589.2</ele>
        <time>2019-08-04T06:24:35.000Z</time>
      </trkpt>
      <trkpt lat="43.37064" lon="2.21227">
        <ele>589.4</ele>
        <time>2019-08-04T06:24:36.000Z</time>
      </trkpt>
      <trkpt lat="43.37066" lon="2.21228">
        <ele>589.5</ele>
        <time>2019-08-04T06:24:37.000Z</time>
      </trkpt>
      <trkpt lat="43.37067" lon="2.21228">
        <ele>589.7</ele>
        <time>2019-08-04T06:24:38.000Z</time>
      </trkpt>
      <trkpt lat="43.37068" lon="2.21229">
        <ele>589.8</ele>
        <time>2019-08-04T06:24:39.000Z</time>
      </trkpt>
      <trkpt lat="43.3707" lon="2.21229">
        <ele>590</ele>
        <time>2019-08-04T06:24:40.000Z</time>
      </trkpt>
      <trkpt lat="43.37071" lon="2.2123">
        <ele>590.2</ele>
        <time>2019-08-04T06:24:41.000Z</time>
      </trkpt>
      <trkpt lat="43.37073" lon="2.2123">
        <ele>590.3</ele>
        <time>2019-08-04T06:24:42.000Z</time>
      </trkpt>
      <trkpt lat="43.37074" lon="2.21231">
        <ele>590.5</ele>
        <time>2019-08-04T06:24:43.000Z</time>
      </trkpt>
      <trkpt lat="43.37076" lon="2.21231">
        <ele>590.7</ele>
        <time>2019-08-04T06:24:44.000Z</time>
      </trkpt>
      <trkpt lat="43.37078" lon="2.21232">
        <ele>590.9</ele>
        <time>2019-08-04T06:24:45.000Z</time>
      </trkpt>
      <trkpt lat="43.37079" lon="2.21232">
        <ele>591.1</ele>
        <time>2019-08-04T06:24:46.000Z</time>
      </trkpt>
      <trkpt lat="43.37081" lon="2.21233">
        <ele>591.3</ele>
        <time>2019-08-04T06:24:47.000Z</time>
      </trkpt>
      <trkpt lat="43.37082" lon="2.21233">
        <ele>591.5</ele>
        <time>2019-08-04T06:24:48.000Z</time>
      </trkpt>
      <trkpt lat="43.37084" lon="2.21233">
        <ele>591.6</ele>
        <time>2019-08-04T06:24:49.000Z</time>
      </trkpt>
      <trkpt lat="43.37085" lon="2.21234">
        <ele>591.8</ele>
        <time>2019-08-04T06:24:50.000Z</time>
      </trkpt>
      <trkpt lat="43.37087" lon="2.21234">
        <ele>591.9</ele>
        <time>2019-08-04T06:24:51.000Z</time>
      </trkpt>
      <trkpt lat="43.37088" lon="2.21234">
        <ele>592</ele>
        <time>2019-08-04T06:24:52.000Z</time>
      </trkpt>
      <trkpt lat="43.3709" lon="2.21234">
        <ele>592.1</ele>
        <time>2019-08-04T06:24:53.000Z</time>
      </trkpt>
      <trkpt lat="43.37091" lon="2.21234">
        <ele>592.2</ele>
        <time>2019-08-04T06:24:54.000Z</time>
      </trkpt>
      <trkpt lat="43.37093" lon="2.21234">
        <ele>592.3</ele>
        <time>2019-08-04T06:24:55.000Z</time>
      </trkpt>
      <trkpt lat="43.37094" lon="2.21235">
        <ele>592.4</ele>
        <time>2019-08-04T06:24:56.000Z</time>
      </trkpt>
      <trkpt lat="43.37095" lon="2.21235">
        <ele>592.5</ele>
        <time>2019-08-04T06:24:57.000Z</time>
      </trkpt>
      <trkpt lat="43.37096" lon="2.21235">
        <ele>592.5</ele>
        <time>2019-08-04T06:24:58.000Z</time>
      </trkpt>
      <trkpt lat="43.37097" lon="2.21235">
        <ele>592.6</ele>
        <time>2019-08-04T06:24:59.000Z</time>
      </trkpt>
      <trkpt lat="43.37098" lon="2.21236">
        <ele>592.6</ele>
        <time>2019-08-04T06:25:00.000Z</time>
      </trkpt>
      <trkpt lat="43.37099" lon="2.21236">
        <ele>592.7</ele>
        <time>2019-08-04T06:25:01.000Z</time>
      </trkpt>
      <trkpt lat="43.37099" lon="2.21236">
        <ele>592.7</ele>
        <time>2019-08-04T06:25:02.000Z</time>
      </trkpt>
      <trkpt lat="43.371" lon="2.21236">
        <ele>592.8</ele>
        <time>2019-08-04T06:25:03.000Z</time>
      </trkpt>
      <trkpt lat="43.371" lon="2.21236">
        <ele>592.8</ele>
        <time>2019-08-04T06:25:04.000Z</time>
      </trkpt>
      <trkpt lat="43.371" lon="2.21236">
        <ele>592.8</ele>
        <time>2019-08-04T06:25:05.000Z</time>
      </trkpt>
      <trkpt lat="43.37101" lon="2.21236">
        <ele>592.9</ele>
        <time>2019-08-04T06:25:06.000Z</time>
      </trkpt>
      <trkpt lat="43.37101" lon="2.21236">
        <ele>592.9</ele>
        <time>2019-08-04T06:25:07.000Z</time>
      </trkpt>
      <trkpt lat="43.37102" lon="2.21236">
        <ele>593</ele>
        <time>2019-08-04T06:25:08.000Z</time>
      </trkpt>
      <trkpt lat="43.37103" lon="2.21236">
        <ele>593</ele>
        <time>2019-08-04T06:25:09.000Z</time>
      </trkpt>
      <trkpt lat="43.37103" lon="2.21236">
        <ele>593.1</ele>
        <time>2019-08-04T06:25:10.000Z</time>
      </trkpt>
      <trkpt lat="43.37104" lon="2.21236">
        <ele>593.1</ele>
        <time>2019-08-04T06:25:11.000Z</time>
      </trkpt>
      <trkpt lat="43.37105" lon="2.21236">
        <ele>593.2</ele>
        <time>2019-08-04T06:25:12.000Z</time>
      </trkpt>
      <trkpt lat="43.37105" lon="2.21236">
        <ele>593.2</ele>
        <time>2019-08-04T06:25:13.000Z</time>
      </trkpt>
      <trkpt lat="43.37106" lon="2.21237">
        <ele>593.2</ele>
        <time>2019-08-04T06:25:14.000Z</time>
      </trkpt>
      <trkpt lat="43.37107" lon="2.21237">
        <ele>593.2</ele>
        <time>2019-08-04T06:25:15.000Z</time>
      </trkpt>
      <trkpt lat="43.37107" lon="2.21237">
        <ele>593.3</ele>
        <time>2019-08-04T06:25:16.000Z</time>
      </trkpt>
      <trkpt lat="43.37108" lon="2.21237">
        <ele>593.3</ele>
        <time>2019-08-04T06:25:17.000Z</time>
      </trkpt>
      <trkpt lat="43.37108" lon="2.21237">
        <ele>593.3</ele>
        <time>2019-08-04T06:25:18.000Z</time>
      </trkpt>
      <trkpt lat="43.37108" lon="2.21237">
        <ele>593.4</ele>
        <time>2019-08-04T06:25:19.000Z</time>
      </trkpt>
      <trkpt lat="43.37108" lon="2.21237">
        <ele>593.4</ele>
        <time>2019-08-04T06:25:20.000Z</time>
      </trkpt>
      <trkpt lat="43.37109" lon="2.21236">
        <ele>593.5</ele>
        <time>2019-08-04T06:25:21.000Z</time>
      </trkpt>
      <trkpt lat="43.37109" lon="2.21236">
        <ele>593.5</ele>
        <time>2019-08-04T06:25:22.000Z</time>
      </trkpt>
      <trkpt lat="43.37109" lon="2.21236">
        <ele>593.6</ele>
        <time>2019-08-04T06:25:23.000Z</time>
      </trkpt>
      <trkpt lat="43.37109" lon="2.21235">
        <ele>593.6</ele>
        <time>2019-08-04T06:25:24.000Z</time>
      </trkpt>
      <trkpt lat="43.37109" lon="2.21235">
        <ele>593.6</ele>
        <time>2019-08-04T06:25:25.000Z</time>
      </trkpt>
      <trkpt lat="43.37109" lon="2.21234">
        <ele>593.7</ele>
        <time>2019-08-04T06:25:26.000Z</time>
      </trkpt>
      <trkpt lat="43.37109" lon="2.21234">
        <ele>593.7</ele>
        <time>2019-08-04T06:25:27.000Z</time>
      </trkpt>
      <trkpt lat="43.37109" lon="2.21234">
        <ele>593.7</ele>
        <time>2019-08-04T06:25:28.000Z</time>
      </trkpt>
      <trkpt lat="43.37109" lon="2.21234">
        <ele>593.7</ele>
        <time>2019-08-04T06:25:29.000Z</time>
      </trkpt>
      <trkpt lat="43.37109" lon="2.21234">
        <ele>593.8</ele>
        <time>2019-08-04T06:25:30.000Z</time>
      </trkpt>
      <trkpt lat="43.37109" lon="2.21234">
        <ele>593.8</ele>
        <time>2019-08-04T06:25:31.000Z</time>
      </trkpt>
      <trkpt lat="43.3711" lon="2.21235">
        <ele>593.8</ele>
        <time>2019-08-04T06:25:32.000Z</time>
      </trkpt>
      <trkpt lat="43.3711" lon="2.21235">
        <ele>593.8</ele>
        <time>2019-08-04T06:25:33.000Z</time>
      </trkpt>
      <trkpt lat="43.37111" lon="2.21236">
        <ele>593.8</ele>
        <time>2019-08-04T06:25:34.000Z</time>
      </trkpt>
      <trkpt lat="43.37112" lon="2.21236">
        <ele>593.7</ele>
        <time>2019-08-04T06:25:35.000Z</time>
      </trkpt>
      <trkpt lat="43.37112" lon="2.21237">
        <ele>593.7</ele>
        <time>2019-08-04T06:25:36.000Z</time>
      </trkpt>
      <trkpt lat="43.37112" lon="2.21237">
        <ele>593.7</ele>
        <time>2019-08-04T06:25:37.000Z</time>
      </trkpt>
      <trkpt lat="43.37112" lon="2.21237">
        <ele>593.7</ele>
        <time>2019-08-04T06:25:38.000Z</time>
      </trkpt>
      <trkpt lat="43.37111" lon="2.21237">
        <ele>593.7</ele>
        <time>2019-08-04T06:25:39.000Z</time>
      </trkpt>
      <trkpt lat="43.37111" lon="2.21237">
        <ele>593.7</ele>
        <time>2019-08-04T06:25:40.000Z</time>
      </trkpt>
      <trkpt lat="43.37111" lon="2.21237">
        <ele>593.6</ele>
        <time>2019-08-04T06:25:41.000Z</time>
      </trkpt>
      <trkpt lat="43.37111" lon="2.21237">
        <ele>593.6</ele>
        <time>2019-08-04T06:25:42.000Z</time>
      </trkpt>
      <trkpt lat="43.37111" lon="2.21236">
        <ele>593.6</ele>
        <time>2019-08-04T06:25:43.000Z</time>
      </trkpt>
      <trkpt lat="43.37111" lon="2.21236">
        <ele>593.7</ele>
        <time>2019-08-04T06:25:44.000Z</time>
      </trkpt>
      <trkpt lat="43.37111" lon="2.21236">
        <ele>593.7</ele>
        <time>2019-08-04T06:25:45.000Z</time>
      </trkpt>
      <trkpt lat="43.37111" lon="2.21237">
        <ele>593.6</ele>
        <time>2019-08-04T06:25:46.000Z</time>
      </trkpt>
      <trkpt lat="43.37111" lon="2.21237">
        <ele>593.6</ele>
        <time>2019-08-04T06:25:47.000Z</time>
      </trkpt>
      <trkpt lat="43.37111" lon="2.21237">
        <ele>593.6</ele>
        <time>2019-08-04T06:25:48.000Z</time>
      </trkpt>
      <trkpt lat="43.37111" lon="2.21238">
        <ele>593.5</ele>
        <time>2019-08-04T06:25:49.000Z</time>
      </trkpt>
      <trkpt lat="43.37111" lon="2.21238">
        <ele>593.5</ele>
        <time>2019-08-04T06:25:50.000Z</time>
      </trkpt>
      <trkpt lat="43.37111" lon="2.21239">
        <ele>593.5</ele>
        <time>2019-08-04T06:25:51.000Z</time>
      </trkpt>
      <trkpt lat="43.37112" lon="2.2124">
        <ele>593.4</ele>
        <time>2019-08-04T06:25:52.000Z</time>
      </trkpt>
      <trkpt lat="43.37113" lon="2.21241">
        <ele>593.4</ele>
        <time>2019-08-04T06:25:53.000Z</time>
      </trkpt>
      <trkpt lat="43.37114" lon="2.21242">
        <ele>593.4</ele>
        <time>2019-08-04T06:25:54.000Z</time>
      </trkpt>
      <trkpt lat="43.37116" lon="2.21242">
        <ele>593.5</ele>
        <time>2019-08-04T06:25:55.000Z</time>
      </trkpt>
      <trkpt lat="43.37118" lon="2.21243">
        <ele>593.6</ele>
        <time>2019-08-04T06:25:56.000Z</time>
      </trkpt>
      <trkpt lat="43.3712" lon="2.21244">
        <ele>593.7</ele>
        <time>2019-08-04T06:25:57.000Z</time>
      </trkpt>
      <trkpt lat="43.37122" lon="2.21245">
        <ele>593.8</ele>
        <time>2019-08-04T06:25:58.000Z</time>
      </trkpt>
      <trkpt lat="43.37125" lon="2.21245">
        <ele>594</ele>
        <time>2019-08-04T06:25:59.000Z</time>
      </trkpt>
      <trkpt lat="43.37128" lon="2.21246">
        <ele>594.2</ele>
        <time>2019-08-04T06:26:00.000Z</time>
      </trkpt>
      <trkpt lat="43.3713" lon="2.21246">
        <ele>594.3</ele>
        <time>2019-08-04T06:26:01.000Z</time>
      </trkpt>
      <trkpt lat="43.37133" lon="2.21246">
        <ele>594.5</ele>
        <time>2019-08-04T06:26:02.000Z</time>
      </trkpt>
      <trkpt lat="43.37135" lon="2.21247">
        <ele>594.7</ele>
        <time>2019-08-04T06:26:03.000Z</time>
      </trkpt>
      <trkpt lat="43.37137" lon="2.21247">
        <ele>594.8</ele>
        <time>2019-08-04T06:26:04.000Z</time>
      </trkpt>
      <trkpt lat="43.37139" lon="2.21247">
        <ele>595</ele>
        <time>2019-08-04T06:26:05.000Z</time>
      </trkpt>
      <trkpt lat="43.37141" lon="2.21247">
        <ele>595.1</ele>
        <time>2019-08-04T06:26:06.000Z</time>
      </trkpt>
      <trkpt lat="43.37143" lon="2.21248">
        <ele>595.2</ele>
        <time>2019-08-04T06:26:07.000Z</time>
      </trkpt>
      <trkpt lat="43.37145" lon="2.21248">
        <ele>595.3</ele>
        <time>2019-08-04T06:26:08.000Z</time>
      </trkpt>
      <trkpt lat="43.37147" lon="2.21249">
        <ele>595.4</ele>
        <time>2019-08-04T06:26:09.000Z</time>
      </trkpt>
      <trkpt lat="43.37149" lon="2.2125">
        <ele>595.5</ele>
        <time>2019-08-04T06:26:10.000Z</time>
      </trkpt>
      <trkpt lat="43.37151" lon="2.21252">
        <ele>595.4</ele>
        <time>2019-08-04T06:26:11.000Z</time>
      </trkpt>
      <trkpt lat="43.37153" lon="2.21253">
        <ele>595.4</ele>
        <time>2019-08-04T06:26:12.000Z</time>
      </trkpt>
      <trkpt lat="43.37155" lon="2.21255">
        <ele>595.4</ele>
        <time>2019-08-04T06:26:13.000Z</time>
      </trkpt>
      <trkpt lat="43.37157" lon="2.21257">
        <ele>595.3</ele>
        <time>2019-08-04T06:26:14.000Z</time>
      </trkpt>
      <trkpt lat="43.37159" lon="2.21258">
        <ele>595.2</ele>
        <time>2019-08-04T06:26:15.000Z</time>
      </trkpt>
      <trkpt lat="43.37161" lon="2.2126">
        <ele>595.1</ele>
        <time>2019-08-04T06:26:16.000Z</time>
      </trkpt>
      <trkpt lat="43.37162" lon="2.21261">
        <ele>595.1</ele>
        <time>2019-08-04T06:26:17.000Z</time>
      </trkpt>
      <trkpt lat="43.37163" lon="2.21262">
        <ele>595</ele>
        <time>2019-08-04T06:26:18.000Z</time>
      </trkpt>
      <trkpt lat="43.37164" lon="2.21262">
        <ele>595</ele>
        <time>2019-08-04T06:26:19.000Z</time>
      </trkpt>
      <trkpt lat="43.37165" lon="2.21263">
        <ele>595</ele>
        <time>2019-08-04T06:26:20.000Z</time>
      </trkpt>
      <trkpt lat="43.37165" lon="2.21263">
        <ele>595</ele>
        <time>2019-08-04T06:26:21.000Z</time>
      </trkpt>
      <trkpt lat="43.37165" lon="2.21263">
        <ele>595</ele>
        <time>2019-08-04T06:26:22.000Z</time>
      </trkpt>
      <trkpt lat="43.37165" lon="2.21264">
        <ele>594.9</ele>
        <time>2019-08-04T06:26:23.000Z</time>
      </trkpt>
      <trkpt lat="43.37166" lon="2.21264">
        <ele>594.9</ele>
        <time>2019-08-04T06:26:24.000Z</time>
      </trkpt>
      <trkpt lat="43.37166" lon="2.21265">
        <ele>594.8</ele>
        <time>2019-08-04T06:26:25.000Z</time>
      </trkpt>
      <trkpt lat="43.37166" lon="2.21266">
        <ele>594.6</ele>
        <time>2019-08-04T06:26:26.000Z</time>
      </trkpt>
      <trkpt lat="43.37166" lon="2.21267">
        <ele>594.5</ele>
        <time>2019-08-04T06:26:27.000Z</time>
      </trkpt>
      <trkpt lat="43.37167" lon="2.21268">
        <ele>594.4</ele>
        <time>2019-08-04T06:26:28.000Z</time>
      </trkpt>
      <trkpt lat="43.37167" lon="2.21269">
        <ele>594.2</ele>
        <time>2019-08-04T06:26:29.000Z</time>
      </trkpt>
      <trkpt lat="43.37167" lon="2.2127">
        <ele>594.2</ele>
        <time>2019-08-04T06:26:30.000Z</time>
      </trkpt>
      <trkpt lat="43.37167" lon="2.2127">
        <ele>594.1</ele>
        <time>2019-08-04T06:26:31.000Z</time>
      </trkpt>
      <trkpt lat="43.37167" lon="2.2127">
        <ele>594.1</ele>
        <time>2019-08-04T06:26:32.000Z</time>
      </trkpt>
      <trkpt lat="43.37167" lon="2.2127">
        <ele>594.2</ele>
        <time>2019-08-04T06:26:33.000Z</time>
      </trkpt>
      <trkpt lat="43.37166" lon="2.21269">
        <ele>594.2</ele>
        <time>2019-08-04T06:26:34.000Z</time>
      </trkpt>
      <trkpt lat="43.37166" lon="2.21269">
        <ele>594.3</ele>
        <time>2019-08-04T06:26:35.000Z</time>
      </trkpt>
      <trkpt lat="43.37166" lon="2.21268">
        <ele>594.4</ele>
        <time>2019-08-04T06:26:36.000Z</time>
      </trkpt>
      <trkpt lat="43.37165" lon="2.21267">
        <ele>594.4</ele>
        <time>2019-08-04T06:26:37.000Z</time>
      </trkpt>
      <trkpt lat="43.37165" lon="2.21266">
        <ele>594.5</ele>
        <time>2019-08-04T06:26:38.000Z</time>
      </trkpt>
      <trkpt lat="43.37165" lon="2.21265">
        <ele>594.7</ele>
        <time>2019-08-04T06:26:39.000Z</time>
      </trkpt>
      <trkpt lat="43.37164" lon="2.21264">
        <ele>594.8</ele>
        <time>2019-08-04T06:26:40.000Z</time>
      </trkpt>
      <trkpt lat="43.37163" lon="2.21263">
        <ele>594.9</ele>
        <time>2019-08-04T06:26:41.000Z</time>
      </trkpt>
      <trkpt lat="43.37163" lon="2.21262">
        <ele>595</ele>
        <time>2019-08-04T06:26:42.000Z</time>
      </trkpt>
      <trkpt lat="43.37162" lon="2.21261">
        <ele>595.1</ele>
        <time>2019-08-04T06:26:43.000Z</time>
      </trkpt>
      <trkpt lat="43.37161" lon="2.2126">
        <ele>595.2</ele>
        <time>2019-08-04T06:26:44.000Z</time>
      </trkpt>
      <trkpt lat="43.3716" lon="2.21259">
        <ele>595.2</ele>
        <time>2019-08-04T06:26:45.000Z</time>
      </trkpt>
      <trkpt lat="43.37159" lon="2.21258">
        <ele>595.3</ele>
        <time>2019-08-04T06:26:46.000Z</time>
      </trkpt>
      <trkpt lat="43.37158" lon="2.21257">
        <ele>595.4</ele>
        <time>2019-08-04T06:26:47.000Z</time>
      </trkpt>
      <trkpt lat="43.37157" lon="2.21256">
        <ele>595.4</ele>
        <time>2019-08-04T06:26:48.000Z</time>
      </trkpt>
      <trkpt lat="43.37156" lon="2.21255">
        <ele>595.4</ele>
        <time>2019-08-04T06:26:49.000Z</time>
      </trkpt>
      <trkpt lat="43.37155" lon="2.21254">
        <ele>595.4</ele>
        <time>2019-08-04T06:26:50.000Z</time>
      </trkpt>
      <trkpt lat="43.37154" lon="2.21254">
        <ele>595.4</ele>
        <time>2019-08-04T06:26:51.000Z</time>
      </trkpt>
      <trkpt lat="43.37152" lon="2.21253">
        <ele>595.4</ele>
        <time>2019-08-04T06:26:52.000Z</time>
      </trkpt>
      <trkpt lat="43.37151" lon="2.21253">
        <ele>595.3</ele>
        <time>2019-08-04T06:26:53.000Z</time>
      </trkpt>
      <trkpt lat="43.3715" lon="2.21252">
        <ele>595.3</ele>
        <time>2019-08-04T06:26:54.000Z</time>
      </trkpt>
      <trkpt lat="43.37149" lon="2.21252">
        <ele>595.3</ele>
        <time>2019-08-04T06:26:55.000Z</time>
      </trkpt>
      <trkpt lat="43.37148" lon="2.21252">
        <ele>595.2</ele>
        <time>2019-08-04T06:26:56.000Z</time>
      </trkpt>
      <trkpt lat="43.37147" lon="2.21251">
        <ele>595.2</ele>
        <time>2019-08-04T06:26:57.000Z</time>
      </trkpt>
      <trkpt lat="43.37146" lon="2.21251">
        <ele>595.2</ele>
        <time>2019-08-04T06:26:58.000Z</time>
      </trkpt>
      <trkpt lat="43.37146" lon="2.21251">
        <ele>595.1</ele>
        <time>2019-08-04T06:26:59.000Z</time>
      </trkpt>
      <trkpt lat="43.37145" lon="2.21251">
        <ele>595.1</ele>
        <time>2019-08-04T06:27:00.000Z</time>
      </trkpt>
      <trkpt lat="43.37145" lon="2.2125">
        <ele>595.1</ele>
        <time>2019-08-04T06:27:01.000Z</time>
      </trkpt>
      <trkpt lat="43.37145" lon="2.2125">
        <ele>595.2</ele>
        <time>2019-08-04T06:27:02.000Z</time>
      </trkpt>
      <trkpt lat="43.37145" lon="2.2125">
        <ele>595.2</ele>
        <time>2019-08-04T06:27:03.000Z</time>
      </trkpt>
      <trkpt lat="43.37145" lon="2.2125">
        <ele>595.2</ele>
        <time>2019-08-04T06:27:04.000Z</time>
      </trkpt>
      <trkpt lat="43.37145" lon="2.21249">
        <ele>595.3</ele>
        <time>2019-08-04T06:27:05.000Z</time>
      </trkpt>
      <trkpt lat="43.37145" lon="2.21249">
        <ele>595.3</ele>
        <time>2019-08-04T06:27:06.000Z</time>
      </trkpt>
      <trkpt lat="43.37146" lon="2.21249">
        <ele>595.4</ele>
        <time>2019-08-04T06:27:07.000Z</time>
      </trkpt>
      <trkpt lat="43.37146" lon="2.21249">
        <ele>595.4</ele>
        <time>2019-08-04T06:27:08.000Z</time>
      </trkpt>
      <trkpt lat="43.37147" lon="2.21248">
        <ele>595.5</ele>
        <time>2019-08-04T06:27:09.000Z</time>
      </trkpt>
      <trkpt lat="43.37147" lon="2.21248">
        <ele>595.5</ele>
        <time>2019-08-04T06:27:10.000Z</time>
      </trkpt>
      <trkpt lat="43.37148" lon="2.21248">
        <ele>595.6</ele>
        <time>2019-08-04T06:27:11.000Z</time>
      </trkpt>
      <trkpt lat="43.37148" lon="2.21248">
        <ele>595.6</ele>
        <time>2019-08-04T06:27:12.000Z</time>
      </trkpt>
      <trkpt lat="43.37149" lon="2.21248">
        <ele>595.7</ele>
        <time>2019-08-04T06:27:13.000Z</time>
      </trkpt>
      <trkpt lat="43.37149" lon="2.21248">
        <ele>595.7</ele>
        <time>2019-08-04T06:27:14.000Z</time>
      </trkpt>
      <trkpt lat="43.3715" lon="2.21248">
        <ele>595.8</ele>
        <time>2019-08-04T06:27:15.000Z</time>
      </trkpt>
      <trkpt lat="43.37151" lon="2.21249">
        <ele>595.8</ele>
        <time>2019-08-04T06:27:16.000Z</time>
      </trkpt>
      <trkpt lat="43.37151" lon="2.21249">
        <ele>595.8</ele>
        <time>2019-08-04T06:27:17.000Z</time>
      </trkpt>
      <trkpt lat="43.37152" lon="2.2125">
        <ele>595.9</ele>
        <time>2019-08-04T06:27:18.000Z</time>
      </trkpt>
      <trkpt lat="43.37153" lon="2.2125">
        <ele>595.9</ele>
        <time>2019-08-04T06:27:19.000Z</time>
      </trkpt>
      <trkpt lat="43.37155" lon="2.21251">
        <ele>595.9</ele>
        <time>2019-08-04T06:27:20.000Z</time>
      </trkpt>
      <trkpt lat="43.37156" lon="2.21252">
        <ele>595.9</ele>
        <time>2019-08-04T06:27:21.000Z</time>
      </trkpt>
      <trkpt lat="43.37157" lon="2.21252">
        <ele>595.9</ele>
        <time>2019-08-04T06:27:22.000Z</time>
      </trkpt>
      <trkpt lat="43.37158" lon="2.21253">
        <ele>595.8</ele>
        <time>2019-08-04T06:27:23.000Z</time>
      </trkpt>
      <trkpt lat="43.3716" lon="2.21254">
        <ele>595.8</ele>
        <time>2019-08-04T06:27:24.000Z</time>
      </trkpt>
      <trkpt lat="43.37161" lon="2.21255">
        <ele>595.8</ele>
        <time>2019-08-04T06:27:25.000Z</time>
      </trkpt>
      <trkpt lat="43.37163" lon="2.21256">
        <ele>595.8</ele>
        <time>2019-08-04T06:27:26.000Z</time>
      </trkpt>
      <trkpt lat="43.37164" lon="2.21257">
        <ele>595.7</ele>
        <time>2019-08-04T06:27:27.000Z</time>
      </trkpt>
      <trkpt lat="43.37165" lon="2.21259">
        <ele>595.6</ele>
        <time>2019-08-04T06:27:28.000Z</time>
      </trkpt>
      <trkpt lat="43.37166" lon="2.2126">
        <ele>595.6</ele>
        <time>2019-08-04T06:27:29.000Z</time>
      </trkpt>
      <trkpt lat="43.37167" lon="2.21261">
        <ele>595.5</ele>
        <time>2019-08-04T06:27:30.000Z</time>
      </trkpt>
      <trkpt lat="43.37169" lon="2.21262">
        <ele>595.4</ele>
        <time>2019-08-04T06:27:31.000Z</time>
      </trkpt>
      <trkpt lat="43.3717" lon="2.21263">
        <ele>595.3</ele>
        <time>2019-08-04T06:27:32.000Z</time>
      </trkpt>
      <trkpt lat="43.3717" lon="2.21264">
        <ele>595.3</ele>
        <time>2019-08-04T06:27:33.000Z</time>
      </trkpt>
      <trkpt lat="43.37171" lon="2.21265">
        <ele>595.2</ele>
        <time>2019-08-04T06:27:34.000Z</time>
      </trkpt>
      <trkpt lat="43.37172" lon="2.21266">
        <ele>595.1</ele>
        <time>2019-08-04T06:27:35.000Z</time>
      </trkpt>
      <trkpt lat="43.37173" lon="2.21267">
        <ele>595</ele>
        <time>2019-08-04T06:27:36.000Z</time>
      </trkpt>
      <trkpt lat="43.37175" lon="2.21268">
        <ele>595</ele>
        <time>2019-08-04T06:27:37.000Z</time>
      </trkpt>
      <trkpt lat="43.37176" lon="2.21269">
        <ele>594.9</ele>
        <time>2019-08-04T06:27:38.000Z</time>
      </trkpt>
      <trkpt lat="43.37178" lon="2.21269">
        <ele>594.9</ele>
        <time>2019-08-04T06:27:39.000Z</time>
      </trkpt>
      <trkpt lat="43.3718" lon="2.2127">
        <ele>595</ele>
        <time>2019-08-04T06:27:40.000Z</time>
      </trkpt>
      <trkpt lat="43.37182" lon="2.21271">
        <ele>595</ele>
        <time>2019-08-04T06:27:41.000Z</time>
      </trkpt>
      <trkpt lat="43.37185" lon="2.21272">
        <ele>595.1</ele>
        <time>2019-08-04T06:27:42.000Z</time>
      </trkpt>
      <trkpt lat="43.37188" lon="2.21272">
        <ele>595.2</ele>
        <time>2019-08-04T06:27:43.000Z</time>
      </trkpt>
      <trkpt lat="43.3719" lon="2.21273">
        <ele>595.3</ele>
        <time>2019-08-04T06:27:44.000Z</time>
      </trkpt>
      <trkpt lat="43.37193" lon="2.21273">
        <ele>595.4</ele>
        <time>2019-08-04T06:27:45.000Z</time>
      </trkpt>
      <trkpt lat="43.37196" lon="2.21273">
        <ele>595.6</ele>
        <time>2019-08-04T06:27:46.000Z</time>
      </trkpt>
      <trkpt lat="43.37198" lon="2.21273">
        <ele>595.8</ele>
        <time>2019-08-04T06:27:47.000Z</time>
      </trkpt>
      <trkpt lat="43.37201" lon="2.21273">
        <ele>596</ele>
        <time>2019-08-04T06:27:48.000Z</time>
      </trkpt>
      <trkpt lat="43.37203" lon="2.21272">
        <ele>596.2</ele>
        <time>2019-08-04T06:27:49.000Z</time>
      </trkpt>
      <trkpt lat="43.37205" lon="2.21272">
        <ele>596.4</ele>
        <time>2019-08-04T06:27:50.000Z</time>
      </trkpt>
      <trkpt lat="43.37207" lon="2.21271">
        <ele>596.7</ele>
        <time>2019-08-04T06:27:51.000Z</time>
      </trkpt>
      <trkpt lat="43.37209" lon="2.2127">
        <ele>596.9</ele>
        <time>2019-08-04T06:27:52.000Z</time>
      </trkpt>
      <trkpt lat="43.37211" lon="2.21269">
        <ele>597.1</ele>
        <time>2019-08-04T06:27:53.000Z</time>
      </trkpt>
      <trkpt lat="43.37213" lon="2.21268">
        <ele>597.4</ele>
        <time>2019-08-04T06:27:54.000Z</time>
      </trkpt>
      <trkpt lat="43.37215" lon="2.21267">
        <ele>597.7</ele>
        <time>2019-08-04T06:27:55.000Z</time>
      </trkpt>
      <trkpt lat="43.37217" lon="2.21266">
        <ele>598</ele>
        <time>2019-08-04T06:27:56.000Z</time>
      </trkpt>
      <trkpt lat="43.37218" lon="2.21264">
        <ele>598.3</ele>
        <time>2019-08-04T06:27:57.000Z</time>
      </trkpt>
      <trkpt lat="43.3722" lon="2.21263">
        <ele>598.6</ele>
        <time>2019-08-04T06:27:58.000Z</time>
      </trkpt>
      <trkpt lat="43.37222" lon="2.21261">
        <ele>598.9</ele>
        <time>2019-08-04T06:27:59.000Z</time>
      </trkpt>
      <trkpt lat="43.37223" lon="2.2126">
        <ele>599.2</ele>
        <time>2019-08-04T06:28:00.000Z</time>
      </trkpt>
      <trkpt lat="43.37225" lon="2.21258">
        <ele>599.5</ele>
        <time>2019-08-04T06:28:01.000Z</time>
      </trkpt>
      <trkpt lat="43.37227" lon="2.21256">
        <ele>599.8</ele>
        <time>2019-08-04T06:28:02.000Z</time>
      </trkpt>
      <trkpt lat="43.37228" lon="2.21254">
        <ele>600.1</ele>
        <time>2019-08-04T06:28:03.000Z</time>
      </trkpt>
      <trkpt lat="43.3723" lon="2.21253">
        <ele>600.5</ele>
        <time>2019-08-04T06:28:04.000Z</time>
      </trkpt>
      <trkpt lat="43.37232" lon="2.21251">
        <ele>600.8</ele>
        <time>2019-08-04T06:28:05.000Z</time>
      </trkpt>
      <trkpt lat="43.37233" lon="2.21249">
        <ele>601</ele>
        <time>2019-08-04T06:28:06.000Z</time>
      </trkpt>
      <trkpt lat="43.37235" lon="2.21247">
        <ele>601.2</ele>
        <time>2019-08-04T06:28:07.000Z</time>
      </trkpt>
      <trkpt lat="43.37236" lon="2.21246">
        <ele>601.4</ele>
        <time>2019-08-04T06:28:08.000Z</time>
      </trkpt>
      <trkpt lat="43.37238" lon="2.21244">
        <ele>601.6</ele>
        <time>2019-08-04T06:28:09.000Z</time>
      </trkpt>
      <trkpt lat="43.3724" lon="2.21242">
        <ele>601.8</ele>
        <time>2019-08-04T06:28:10.000Z</time>
      </trkpt>
      <trkpt lat="43.37241" lon="2.2124">
        <ele>602</ele>
        <time>2019-08-04T06:28:11.000Z</time>
      </trkpt>
      <trkpt lat="43.37243" lon="2.21239">
        <ele>602.2</ele>
        <time>2019-08-04T06:28:12.000Z</time>
      </trkpt>
      <trkpt lat="43.37245" lon="2.21237">
        <ele>602.4</ele>
        <time>2019-08-04T06:28:13.000Z</time>
      </trkpt>
      <trkpt lat="43.37247" lon="2.21235">
        <ele>602.5</ele>
        <time>2019-08-04T06:28:14.000Z</time>
      </trkpt>
      <trkpt lat="43.37248" lon="2.21234">
        <ele>602.7</ele>
        <time>2019-08-04T06:28:15.000Z</time>
      </trkpt>
      <trkpt lat="43.3725" lon="2.21232">
        <ele>602.9</ele>
        <time>2019-08-04T06:28:16.000Z</time>
      </trkpt>
      <trkpt lat="43.37252" lon="2.21231">
        <ele>602.8</ele>
        <time>2019-08-04T06:28:17.000Z</time>
      </trkpt>
      <trkpt lat="43.37254" lon="2.21229">
        <ele>602.8</ele>
        <time>2019-08-04T06:28:18.000Z</time>
      </trkpt>
      <trkpt lat="43.37256" lon="2.21228">
        <ele>602.8</ele>
        <time>2019-08-04T06:28:19.000Z</time>
      </trkpt>
      <trkpt lat="43.37257" lon="2.21227">
        <ele>602.7</ele>
        <time>2019-08-04T06:28:20.000Z</time>
      </trkpt>
      <trkpt lat="43.37259" lon="2.21226">
        <ele>602.7</ele>
        <time>2019-08-04T06:28:21.000Z</time>
      </trkpt>
      <trkpt lat="43.37261" lon="2.21225">
        <ele>602.6</ele>
        <time>2019-08-04T06:28:22.000Z</time>
      </trkpt>
      <trkpt lat="43.37263" lon="2.21224">
        <ele>602.6</ele>
        <time>2019-08-04T06:28:23.000Z</time>
      </trkpt>
      <trkpt lat="43.37265" lon="2.21223">
        <ele>602.5</ele>
        <time>2019-08-04T06:28:24.000Z</time>
      </trkpt>
      <trkpt lat="43.37267" lon="2.21222">
        <ele>602.4</ele>
        <time>2019-08-04T06:28:25.000Z</time>
      </trkpt>
      <trkpt lat="43.37269" lon="2.21222">
        <ele>602.4</ele>
        <time>2019-08-04T06:28:26.000Z</time>
      </trkpt>
      <trkpt lat="43.37271" lon="2.21221">
        <ele>602.3</ele>
        <time>2019-08-04T06:28:27.000Z</time>
      </trkpt>
      <trkpt lat="43.37273" lon="2.21221">
        <ele>602.2</ele>
        <time>2019-08-04T06:28:28.000Z</time>
      </trkpt>
      <trkpt lat="43.37275" lon="2.21221">
        <ele>602.1</ele>
        <time>2019-08-04T06:28:29.000Z</time>
      </trkpt>
      <trkpt lat="43.37277" lon="2.21221">
        <ele>602</ele>
        <time>2019-08-04T06:28:30.000Z</time>
      </trkpt>
      <trkpt lat="43.3728" lon="2.2122">
        <ele>601.9</ele>
        <time>2019-08-04T06:28:31.000Z</time>
      </trkpt>
      <trkpt lat="43.37282" lon="2.21221">
        <ele>601.8</ele>
        <time>2019-08-04T06:28:32.000Z</time>
      </trkpt>
      <trkpt lat="43.37284" lon="2.21221">
        <ele>601.7</ele>
        <time>2019-08-04T06:28:33.000Z</time>
      </trkpt>
      <trkpt lat="43.37286" lon="2.21221">
        <ele>601.5</ele>
        <time>2019-08-04T06:28:34.000Z</time>
      </trkpt>
      <trkpt lat="43.37288" lon="2.21222">
        <ele>601.4</ele>
        <time>2019-08-04T06:28:35.000Z</time>
      </trkpt>
      <trkpt lat="43.3729" lon="2.21222">
        <ele>601.3</ele>
        <time>2019-08-04T06:28:36.000Z</time>
      </trkpt>
      <trkpt lat="43.37292" lon="2.21222">
        <ele>601.1</ele>
        <time>2019-08-04T06:28:37.000Z</time>
      </trkpt>
      <trkpt lat="43.37294" lon="2.21223">
        <ele>601</ele>
        <time>2019-08-04T06:28:38.000Z</time>
      </trkpt>
      <trkpt lat="43.37297" lon="2.21224">
        <ele>600.8</ele>
        <time>2019-08-04T06:28:39.000Z</time>
      </trkpt>
      <trkpt lat="43.37299" lon="2.21224">
        <ele>600.7</ele>
        <time>2019-08-04T06:28:40.000Z</time>
      </trkpt>
      <trkpt lat="43.373" lon="2.21225">
        <ele>600.6</ele>
        <time>2019-08-04T06:28:41.000Z</time>
      </trkpt>
      <trkpt lat="43.37302" lon="2.21225">
        <ele>600.4</ele>
        <time>2019-08-04T06:28:42.000Z</time>
      </trkpt>
      <trkpt lat="43.37304" lon="2.21226">
        <ele>600.3</ele>
        <time>2019-08-04T06:28:43.000Z</time>
      </trkpt>
      <trkpt lat="43.37306" lon="2.21226">
        <ele>600.2</ele>
        <time>2019-08-04T06:28:44.000Z</time>
      </trkpt>
      <trkpt lat="43.37307" lon="2.21226">
        <ele>600.1</ele>
        <time>2019-08-04T06:28:45.000Z</time>
      </trkpt>
      <trkpt lat="43.37309" lon="2.21227">
        <ele>600</ele>
        <time>2019-08-04T06:28:46.000Z</time>
      </trkpt>
      <trkpt lat="43.3731" lon="2.21227">
        <ele>599.9</ele>
        <time>2019-08-04T06:28:47.000Z</time>
      </trkpt>
      <trkpt lat="43.37312" lon="2.21227">
        <ele>599.8</ele>
        <time>2019-08-04T06:28:48.000Z</time>
      </trkpt>
      <trkpt lat="43.37313" lon="2.21227">
        <ele>599.7</ele>
        <time>2019-08-04T06:28:49.000Z</time>
      </trkpt>
      <trkpt lat="43.37315" lon="2.21227">
        <ele>599.7</ele>
        <time>2019-08-04T06:28:50.000Z</time>
      </trkpt>
      <trkpt lat="43.37316" lon="2.21226">
        <ele>599.6</ele>
        <time>2019-08-04T06:28:51.000Z</time>
      </trkpt>
      <trkpt lat="43.37318" lon="2.21226">
        <ele>599.5</ele>
        <time>2019-08-04T06:28:52.000Z</time>
      </trkpt>
      <trkpt lat="43.3732" lon="2.21225">
        <ele>599.5</ele>
        <time>2019-08-04T06:28:53.000Z</time>
      </trkpt>
      <trkpt lat="43.37322" lon="2.21225">
        <ele>599.4</ele>
        <time>2019-08-04T06:28:54.000Z</time>
      </trkpt>
      <trkpt lat="43.37324" lon="2.21224">
        <ele>599.4</ele>
        <time>2019-08-04T06:28:55.000Z</time>
      </trkpt>
      <trkpt lat="43.37326" lon="2.21222">
        <ele>599.4</ele>
        <time>2019-08-04T06:28:56.000Z</time>
      </trkpt>
      <trkpt lat="43.37328" lon="2.21221">
        <ele>599.4</ele>
        <time>2019-08-04T06:28:57.000Z</time>
      </trkpt>
      <trkpt lat="43.3733" lon="2.2122">
        <ele>599.4</ele>
        <time>2019-08-04T06:28:58.000Z</time>
      </trkpt>
      <trkpt lat="43.37331" lon="2.21218">
        <ele>599.4</ele>
        <time>2019-08-04T06:28:59.000Z</time>
      </trkpt>
      <trkpt lat="43.37333" lon="2.21216">
        <ele>599.5</ele>
        <time>2019-08-04T06:29:00.000Z</time>
      </trkpt>
      <trkpt lat="43.37334" lon="2.21214">
        <ele>599.6</ele>
        <time>2019-08-04T06:29:01.000Z</time>
      </trkpt>
      <trkpt lat="43.37335" lon="2.21212">
        <ele>599.7</ele>
        <time>2019-08-04T06:29:02.000Z</time>
      </trkpt>
      <trkpt lat="43.37336" lon="2.2121">
        <ele>599.9</ele>
        <time>2019-08-04T06:29:03.000Z</time>
      </trkpt>
      <trkpt lat="43.37338" lon="2.21208">
        <ele>600</ele>
        <time>2019-08-04T06:29:04.000Z</time>
      </trkpt>
      <trkpt lat="43.37339" lon="2.21206">
        <ele>600.2</ele>
        <time>2019-08-04T06:29:05.000Z</time>
      </trkpt>
      <trkpt lat="43.3734" lon="2.21203">
        <ele>600.3</ele>
        <time>2019-08-04T06:29:06.000Z</time>
      </trkpt>
      <trkpt lat="43.37341" lon="2.21201">
        <ele>600.5</ele>
        <time>2019-08-04T06:29:07.000Z</time>
      </trkpt>
      <trkpt lat="43.37342" lon="2.21198">
        <ele>600.6</ele>
        <time>2019-08-04T06:29:08.000Z</time>
      </trkpt>
      <trkpt lat="43.37343" lon="2.21196">
        <ele>600.8</ele>
        <time>2019-08-04T06:29:09.000Z</time>
      </trkpt>
      <trkpt lat="43.37344" lon="2.21193">
        <ele>600.9</ele>
        <time>2019-08-04T06:29:10.000Z</time>
      </trkpt>
      <trkpt lat="43.37345" lon="2.21191">
        <ele>601.1</ele>
        <time>2019-08-04T06:29:11.000Z</time>
      </trkpt>
      <trkpt lat="43.37346" lon="2.21188">
        <ele>601.3</ele>
        <time>2019-08-04T06:29:12.000Z</time>
      </trkpt>
      <trkpt lat="43.37347" lon="2.21186">
        <ele>601.4</ele>
        <time>2019-08-04T06:29:13.000Z</time>
      </trkpt>
      <trkpt lat="43.37348" lon="2.21183">
        <ele>601.5</ele>
        <time>2019-08-04T06:29:14.000Z</time>
      </trkpt>
      <trkpt lat="43.37349" lon="2.21181">
        <ele>601.7</ele>
        <time>2019-08-04T06:29:15.000Z</time>
      </trkpt>
      <trkpt lat="43.3735" lon="2.21178">
        <ele>601.8</ele>
        <time>2019-08-04T06:29:16.000Z</time>
      </trkpt>
      <trkpt lat="43.37351" lon="2.21176">
        <ele>602</ele>
        <time>2019-08-04T06:29:17.000Z</time>
      </trkpt>
      <trkpt lat="43.37352" lon="2.21174">
        <ele>602.1</ele>
        <time>2019-08-04T06:29:18.000Z</time>
      </trkpt>
      <trkpt lat="43.37352" lon="2.21171">
        <ele>602.3</ele>
        <time>2019-08-04T06:29:19.000Z</time>
      </trkpt>
      <trkpt lat="43.37353" lon="2.21169">
        <ele>602.4</ele>
        <time>2019-08-04T06:29:20.000Z</time>
      </trkpt>
      <trkpt lat="43.37354" lon="2.21167">
        <ele>602.5</ele>
        <time>2019-08-04T06:29:21.000Z</time>
      </trkpt>
      <trkpt lat="43.37355" lon="2.21165">
        <ele>602.6</ele>
        <time>2019-08-04T06:29:22.000Z</time>
      </trkpt>
      <trkpt lat="43.37356" lon="2.21163">
        <ele>602.6</ele>
        <time>2019-08-04T06:29:23.000Z</time>
      </trkpt>
      <trkpt lat="43.37357" lon="2.21161">
        <ele>602.7</ele>
        <time>2019-08-04T06:29:24.000Z</time>
      </trkpt>
      <trkpt lat="43.37358" lon="2.21159">
        <ele>602.7</ele>
        <time>2019-08-04T06:29:25.000Z</time>
      </trkpt>
      <trkpt lat="43.37359" lon="2.21158">
        <ele>602.7</ele>
        <time>2019-08-04T06:29:26.000Z</time>
      </trkpt>
      <trkpt lat="43.3736" lon="2.21157">
        <ele>602.7</ele>
        <time>2019-08-04T06:29:27.000Z</time>
      </trkpt>
      <trkpt lat="43.37362" lon="2.21156">
        <ele>602.7</ele>
        <time>2019-08-04T06:29:28.000Z</time>
      </trkpt>
      <trkpt lat="43.37363" lon="2.21156">
        <ele>602.7</ele>
        <time>2019-08-04T06:29:29.000Z</time>
      </trkpt>
      <trkpt lat="43.37365" lon="2.21156">
        <ele>602.7</ele>
        <time>2019-08-04T06:29:30.000Z</time>
      </trkpt>
      <trkpt lat="43.37366" lon="2.21156">
        <ele>602.7</ele>
        <time>2019-08-04T06:29:31.000Z</time>
      </trkpt>
      <trkpt lat="43.37368" lon="2.21157">
        <ele>602.6</ele>
        <time>2019-08-04T06:29:32.000Z</time>
      </trkpt>
      <trkpt lat="43.3737" lon="2.21157">
        <ele>602.6</ele>
        <time>2019-08-04T06:29:33.000Z</time>
      </trkpt>
      <trkpt lat="43.37372" lon="2.21158">
        <ele>602.5</ele>
        <time>2019-08-04T06:29:34.000Z</time>
      </trkpt>
      <trkpt lat="43.37373" lon="2.21158">
        <ele>602.4</ele>
        <time>2019-08-04T06:29:35.000Z</time>
      </trkpt>
      <trkpt lat="43.37375" lon="2.21159">
        <ele>602.4</ele>
        <time>2019-08-04T06:29:36.000Z</time>
      </trkpt>
      <trkpt lat="43.37377" lon="2.21159">
        <ele>602.3</ele>
        <time>2019-08-04T06:29:37.000Z</time>
      </trkpt>
      <trkpt lat="43.37379" lon="2.21159">
        <ele>602.3</ele>
        <time>2019-08-04T06:29:38.000Z</time>
      </trkpt>
      <trkpt lat="43.37381" lon="2.21158">
        <ele>602.3</ele>
        <time>2019-08-04T06:29:39.000Z</time>
      </trkpt>
      <trkpt lat="43.37382" lon="2.21158">
        <ele>602.3</ele>
        <time>2019-08-04T06:29:40.000Z</time>
      </trkpt>
      <trkpt lat="43.37384" lon="2.21157">
        <ele>602.3</ele>
        <time>2019-08-04T06:29:41.000Z</time>
      </trkpt>
      <trkpt lat="43.37386" lon="2.21157">
        <ele>602.3</ele>
        <time>2019-08-04T06:29:42.000Z</time>
      </trkpt>
      <trkpt lat="43.37388" lon="2.21156">
        <ele>602.3</ele>
        <time>2019-08-04T06:29:43.000Z</time>
      </trkpt>
      <trkpt lat="43.37391" lon="2.21155">
        <ele>602.3</ele>
        <time>2019-08-04T06:29:44.000Z</time>
      </trkpt>
      <trkpt lat="43.37393" lon="2.21154">
        <ele>602.3</ele>
        <time>2019-08-04T06:29:45.000Z</time>
      </trkpt>
      <trkpt lat="43.37395" lon="2.21153">
        <ele>602.4</ele>
        <time>2019-08-04T06:29:46.000Z</time>
      </trkpt>
      <trkpt lat="43.37398" lon="2.21151">
        <ele>602.4</ele>
        <time>2019-08-04T06:29:47.000Z</time>
      </trkpt>
      <trkpt lat="43.374" lon="2.2115">
        <ele>602.5</ele>
        <time>2019-08-04T06:29:48.000Z</time>
      </trkpt>
      <trkpt lat="43.37403" lon="2.21148">
        <ele>602.5</ele>
        <time>2019-08-04T06:29:49.000Z</time>
      </trkpt>
      <trkpt lat="43.37405" lon="2.21147">
        <ele>602.6</ele>
        <time>2019-08-04T06:29:50.000Z</time>
      </trkpt>
      <trkpt lat="43.37407" lon="2.21145">
        <ele>602.7</ele>
        <time>2019-08-04T06:29:51.000Z</time>
      </trkpt>
      <trkpt lat="43.37409" lon="2.21144">
        <ele>602.7</ele>
        <time>2019-08-04T06:29:52.000Z</time>
      </trkpt>
      <trkpt lat="43.37411" lon="2.21143">
        <ele>602.8</ele>
        <time>2019-08-04T06:29:53.000Z</time>
      </trkpt>
      <trkpt lat="43.37413" lon="2.21142">
        <ele>602.8</ele>
        <time>2019-08-04T06:29:54.000Z</time>
      </trkpt>
      <trkpt lat="43.37415" lon="2.21141">
        <ele>602.8</ele>
        <time>2019-08-04T06:29:55.000Z</time>
      </trkpt>
      <trkpt lat="43.37416" lon="2.21141">
        <ele>602.9</ele>
        <time>2019-08-04T06:29:56.000Z</time>
      </trkpt>
      <trkpt lat="43.37418" lon="2.2114">
        <ele>602.9</ele>
        <time>2019-08-04T06:29:57.000Z</time>
      </trkpt>
      <trkpt lat="43.37419" lon="2.2114">
        <ele>603</ele>
        <time>2019-08-04T06:29:58.000Z</time>
      </trkpt>
      <trkpt lat="43.37421" lon="2.2114">
        <ele>603.1</ele>
        <time>2019-08-04T06:29:59.000Z</time>
      </trkpt>
      <trkpt lat="43.37422" lon="2.21139">
        <ele>603.2</ele>
        <time>2019-08-04T06:30:00.000Z</time>
      </trkpt>
      <trkpt lat="43.37424" lon="2.21139">
        <ele>603.3</ele>
        <time>2019-08-04T06:30:01.000Z</time>
      </trkpt>
      <trkpt lat="43.37425" lon="2.21138">
        <ele>603.4</ele>
        <time>2019-08-04T06:30:02.000Z</time>
      </trkpt>
      <trkpt lat="43.37427" lon="2.21138">
        <ele>603.5</ele>
        <time>2019-08-04T06:30:03.000Z</time>
      </trkpt>
      <trkpt lat="43.37428" lon="2.21138">
        <ele>603.5</ele>
        <time>2019-08-04T06:30:04.000Z</time>
      </trkpt>
      <trkpt lat="43.37429" lon="2.21139">
        <ele>603.6</ele>
        <time>2019-08-04T06:30:05.000Z</time>
      </trkpt>
      <trkpt lat="43.3743" lon="2.21139">
        <ele>603.6</ele>
        <time>2019-08-04T06:30:06.000Z</time>
      </trkpt>
      <trkpt lat="43.37431" lon="2.21139">
        <ele>603.6</ele>
        <time>2019-08-04T06:30:07.000Z</time>
      </trkpt>
      <trkpt lat="43.37432" lon="2.2114">
        <ele>603.6</ele>
        <time>2019-08-04T06:30:08.000Z</time>
      </trkpt>
      <trkpt lat="43.37432" lon="2.2114">
        <ele>603.6</ele>
        <time>2019-08-04T06:30:09.000Z</time>
      </trkpt>
      <trkpt lat="43.37432" lon="2.2114">
        <ele>603.6</ele>
        <time>2019-08-04T06:30:10.000Z</time>
      </trkpt>
      <trkpt lat="43.37433" lon="2.2114">
        <ele>603.6</ele>
        <time>2019-08-04T06:30:11.000Z</time>
      </trkpt>
      <trkpt lat="43.37433" lon="2.2114">
        <ele>603.6</ele>
        <time>2019-08-04T06:30:12.000Z</time>
      </trkpt>
      <trkpt lat="43.37433" lon="2.2114">
        <ele>603.6</ele>
        <time>2019-08-04T06:30:13.000Z</time>
      </trkpt>
      <trkpt lat="43.37433" lon="2.2114">
        <ele>603.6</ele>
        <time>2019-08-04T06:30:14.000Z</time>
      </trkpt>
      <trkpt lat="43.37433" lon="2.2114">
        <ele>603.6</ele>
        <time>2019-08-04T06:30:15.000Z</time>
      </trkpt>
      <trkpt lat="43.37433" lon="2.2114">
        <ele>603.6</ele>
        <time>2019-08-04T06:30:16.000Z</time>
      </trkpt>
      <trkpt lat="43.37433" lon="2.2114">
        <ele>603.6</ele>
        <time>2019-08-04T06:30:17.000Z</time>
      </trkpt>
      <trkpt lat="43.37433" lon="2.21141">
        <ele>603.6</ele>
        <time>2019-08-04T06:30:18.000Z</time>
      </trkpt>
      <trkpt lat="43.37433" lon="2.21141">
        <ele>603.6</ele>
        <time>2019-08-04T06:30:19.000Z</time>
      </trkpt>
      <trkpt lat="43.37433" lon="2.21141">
        <ele>603.6</ele>
        <time>2019-08-04T06:30:20.000Z</time>
      </trkpt>
      <trkpt lat="43.37433" lon="2.21141">
        <ele>603.6</ele>
        <time>2019-08-04T06:30:21.000Z</time>
      </trkpt>
      <trkpt lat="43.37433" lon="2.21141">
        <ele>603.6</ele>
        <time>2019-08-04T06:30:22.000Z</time>
      </trkpt>
      <trkpt lat="43.37433" lon="2.21141">
        <ele>603.6</ele>
        <time>2019-08-04T06:30:23.000Z</time>
      </trkpt>
      <trkpt lat="43.37433" lon="2.21141">
        <ele>603.6</ele>
        <time>2019-08-04T06:30:24.000Z</time>
      </trkpt>
      <trkpt lat="43.37433" lon="2.21141">
        <ele>603.6</ele>
        <time>2019-08-04T06:30:25.000Z</time>
      </trkpt>
      <trkpt lat="43.37433" lon="2.21141">
        <ele>603.6</ele>
        <time>2019-08-04T06:30:26.000Z</time>
      </trkpt>
      <trkpt lat="43.37433" lon="2.21141">
        <ele>603.6</ele>
        <time>2019-08-04T06:30:27.000Z</time>
      </trkpt>
      <trkpt lat="43.37433" lon="2.21141">
        <ele>603.6</ele>
        <time>2019-08-04T06:30:28.000Z</time>
      </trkpt>
      <trkpt lat="43.37433" lon="2.21141">
        <ele>603.6</ele>
        <time>2019-08-04T06:30:29.000Z</time>
      </trkpt>
      <trkpt lat="43.37433" lon="2.21141">
        <ele>603.6</ele>
        <time>2019-08-04T06:30:30.000Z</time>
      </trkpt>
      <trkpt lat="43.37433" lon="2.2114">
        <ele>603.6</ele>
        <time>2019-08-04T06:30:31.000Z</time>
      </trkpt>
      <trkpt lat="43.37433" lon="2.2114">
        <ele>603.6</ele>
        <time>2019-08-04T06:30:32.000Z</time>
      </trkpt>
      <trkpt lat="43.37433" lon="2.2114">
        <ele>603.6</ele>
        <time>2019-08-04T06:30:33.000Z</time>
      </trkpt>
      <trkpt lat="43.37433" lon="2.21141">
        <ele>603.6</ele>
        <time>2019-08-04T06:30:34.000Z</time>
      </trkpt>
      <trkpt lat="43.37433" lon="2.21141">
        <ele>603.6</ele>
        <time>2019-08-04T06:30:35.000Z</time>
      </trkpt>
      <trkpt lat="43.37433" lon="2.21141">
        <ele>603.6</ele>
        <time>2019-08-04T06:30:36.000Z</time>
      </trkpt>
      <trkpt lat="43.37433" lon="2.21141">
        <ele>603.6</ele>
        <time>2019-08-04T06:30:37.000Z</time>
      </trkpt>
      <trkpt lat="43.37433" lon="2.21141">
        <ele>603.6</ele>
        <time>2019-08-04T06:30:38.000Z</time>
      </trkpt>
      <trkpt lat="43.37432" lon="2.21141">
        <ele>603.5</ele>
        <time>2019-08-04T06:30:39.000Z</time>
      </trkpt>
      <trkpt lat="43.37432" lon="2.21141">
        <ele>603.5</ele>
        <time>2019-08-04T06:30:40.000Z</time>
      </trkpt>
      <trkpt lat="43.37431" lon="2.21142">
        <ele>603.5</ele>
        <time>2019-08-04T06:30:41.000Z</time>
      </trkpt>
      <trkpt lat="43.37431" lon="2.21142">
        <ele>603.4</ele>
        <time>2019-08-04T06:30:42.000Z</time>
      </trkpt>
      <trkpt lat="43.37431" lon="2.21142">
        <ele>603.4</ele>
        <time>2019-08-04T06:30:43.000Z</time>
      </trkpt>
      <trkpt lat="43.37431" lon="2.21142">
        <ele>603.4</ele>
        <time>2019-08-04T06:30:44.000Z</time>
      </trkpt>
      <trkpt lat="43.3743" lon="2.21142">
        <ele>603.4</ele>
        <time>2019-08-04T06:30:45.000Z</time>
      </trkpt>
      <trkpt lat="43.3743" lon="2.21143">
        <ele>603.3</ele>
        <time>2019-08-04T06:30:46.000Z</time>
      </trkpt>
      <trkpt lat="43.3743" lon="2.21143">
        <ele>603.3</ele>
        <time>2019-08-04T06:30:47.000Z</time>
      </trkpt>
      <trkpt lat="43.3743" lon="2.21143">
        <ele>603.3</ele>
        <time>2019-08-04T06:30:48.000Z</time>
      </trkpt>
      <trkpt lat="43.3743" lon="2.21143">
        <ele>603.3</ele>
        <time>2019-08-04T06:30:49.000Z</time>
      </trkpt>
      <trkpt lat="43.3743" lon="2.21143">
        <ele>603.3</ele>
        <time>2019-08-04T06:30:50.000Z</time>
      </trkpt>
      <trkpt lat="43.3743" lon="2.21143">
        <ele>603.3</ele>
        <time>2019-08-04T06:30:51.000Z</time>
      </trkpt>
      <trkpt lat="43.3743" lon="2.21143">
        <ele>603.3</ele>
        <time>2019-08-04T06:30:52.000Z</time>
      </trkpt>
      <trkpt lat="43.3743" lon="2.21143">
        <ele>603.3</ele>
        <time>2019-08-04T06:30:53.000Z</time>
      </trkpt>
      <trkpt lat="43.3743" lon="2.21143">
        <ele>603.3</ele>
        <time>2019-08-04T06:30:54.000Z</time>
      </trkpt>
      <trkpt lat="43.3743" lon="2.21143">
        <ele>603.3</ele>
        <time>2019-08-04T06:30:55.000Z</time>
      </trkpt>
      <trkpt lat="43.3743" lon="2.21143">
        <ele>603.3</ele>
        <time>2019-08-04T06:30:56.000Z</time>
      </trkpt>
      <trkpt lat="43.3743" lon="2.21143">
        <ele>603.3</ele>
        <time>2019-08-04T06:30:57.000Z</time>
      </trkpt>
      <trkpt lat="43.3743" lon="2.21143">
        <ele>603.3</ele>
        <time>2019-08-04T06:30:58.000Z</time>
      </trkpt>
      <trkpt lat="43.3743" lon="2.21143">
        <ele>603.3</ele>
        <time>2019-08-04T06:30:59.000Z</time>
      </trkpt>
      <trkpt lat="43.3743" lon="2.21143">
        <ele>603.3</ele>
        <time>2019-08-04T06:31:00.000Z</time>
      </trkpt>
      <trkpt lat="43.37431" lon="2.21143">
        <ele>603.3</ele>
        <time>2019-08-04T06:31:01.000Z</time>
      </trkpt>
      <trkpt lat="43.37431" lon="2.21143">
        <ele>603.3</ele>
        <time>2019-08-04T06:31:02.000Z</time>
      </trkpt>
      <trkpt lat="43.37431" lon="2.21143">
        <ele>603.4</ele>
        <time>2019-08-04T06:31:03.000Z</time>
      </trkpt>
      <trkpt lat="43.37431" lon="2.21143">
        <ele>603.3</ele>
        <time>2019-08-04T06:31:04.000Z</time>
      </trkpt>
      <trkpt lat="43.37431" lon="2.21143">
        <ele>603.3</ele>
        <time>2019-08-04T06:31:05.000Z</time>
      </trkpt>
      <trkpt lat="43.37432" lon="2.21144">
        <ele>603.3</ele>
        <time>2019-08-04T06:31:06.000Z</time>
      </trkpt>
      <trkpt lat="43.37432" lon="2.21144">
        <ele>603.3</ele>
        <time>2019-08-04T06:31:07.000Z</time>
      </trkpt>
      <trkpt lat="43.37432" lon="2.21144">
        <ele>603.3</ele>
        <time>2019-08-04T06:31:08.000Z</time>
      </trkpt>
      <trkpt lat="43.37432" lon="2.21145">
        <ele>603.3</ele>
        <time>2019-08-04T06:31:09.000Z</time>
      </trkpt>
      <trkpt lat="43.37432" lon="2.21145">
        <ele>603.2</ele>
        <time>2019-08-04T06:31:10.000Z</time>
      </trkpt>
      <trkpt lat="43.37432" lon="2.21146">
        <ele>603.2</ele>
        <time>2019-08-04T06:31:11.000Z</time>
      </trkpt>
      <trkpt lat="43.37431" lon="2.21146">
        <ele>603.1</ele>
        <time>2019-08-04T06:31:12.000Z</time>
      </trkpt>
      <trkpt lat="43.3743" lon="2.21147">
        <ele>603.1</ele>
        <time>2019-08-04T06:31:13.000Z</time>
      </trkpt>
      <trkpt lat="43.3743" lon="2.21148">
        <ele>603</ele>
        <time>2019-08-04T06:31:14.000Z</time>
      </trkpt>
      <trkpt lat="43.37428" lon="2.21148">
        <ele>602.9</ele>
        <time>2019-08-04T06:31:15.000Z</time>
      </trkpt>
      <trkpt lat="43.37427" lon="2.21149">
        <ele>602.7</ele>
        <time>2019-08-04T06:31:16.000Z</time>
      </trkpt>
      <trkpt lat="43.37426" lon="2.2115">
        <ele>602.6</ele>
        <time>2019-08-04T06:31:17.000Z</time>
      </trkpt>
      <trkpt lat="43.37424" lon="2.21151">
        <ele>602.5</ele>
        <time>2019-08-04T06:31:18.000Z</time>
      </trkpt>
      <trkpt lat="43.37422" lon="2.21152">
        <ele>602.3</ele>
        <time>2019-08-04T06:31:19.000Z</time>
      </trkpt>
      <trkpt lat="43.37421" lon="2.21153">
        <ele>602.2</ele>
        <time>2019-08-04T06:31:20.000Z</time>
      </trkpt>
      <trkpt lat="43.37419" lon="2.21154">
        <ele>602</ele>
        <time>2019-08-04T06:31:21.000Z</time>
      </trkpt>
      <trkpt lat="43.37418" lon="2.21155">
        <ele>601.9</ele>
        <time>2019-08-04T06:31:22.000Z</time>
      </trkpt>
      <trkpt lat="43.37416" lon="2.21156">
        <ele>601.8</ele>
        <time>2019-08-04T06:31:23.000Z</time>
      </trkpt>
      <trkpt lat="43.37415" lon="2.21157">
        <ele>601.8</ele>
        <time>2019-08-04T06:31:24.000Z</time>
      </trkpt>
      <trkpt lat="43.37414" lon="2.21157">
        <ele>601.7</ele>
        <time>2019-08-04T06:31:25.000Z</time>
      </trkpt>
      <trkpt lat="43.37413" lon="2.21158">
        <ele>601.7</ele>
        <time>2019-08-04T06:31:26.000Z</time>
      </trkpt>
      <trkpt lat="43.37412" lon="2.21159">
        <ele>601.7</ele>
        <time>2019-08-04T06:31:27.000Z</time>
      </trkpt>
      <trkpt lat="43.37411" lon="2.2116">
        <ele>601.6</ele>
        <time>2019-08-04T06:31:28.000Z</time>
      </trkpt>
      <trkpt lat="43.3741" lon="2.2116">
        <ele>601.6</ele>
        <time>2019-08-04T06:31:29.000Z</time>
      </trkpt>
      <trkpt lat="43.37408" lon="2.21161">
        <ele>601.6</ele>
        <time>2019-08-04T06:31:30.000Z</time>
      </trkpt>
      <trkpt lat="43.37407" lon="2.21162">
        <ele>601.6</ele>
        <time>2019-08-04T06:31:31.000Z</time>
      </trkpt>
      <trkpt lat="43.37406" lon="2.21162">
        <ele>601.5</ele>
        <time>2019-08-04T06:31:32.000Z</time>
      </trkpt>
      <trkpt lat="43.37405" lon="2.21163">
        <ele>601.5</ele>
        <time>2019-08-04T06:31:33.000Z</time>
      </trkpt>
      <trkpt lat="43.37403" lon="2.21164">
        <ele>601.5</ele>
        <time>2019-08-04T06:31:34.000Z</time>
      </trkpt>
      <trkpt lat="43.37401" lon="2.21164">
        <ele>601.5</ele>
        <time>2019-08-04T06:31:35.000Z</time>
      </trkpt>
      <trkpt lat="43.374" lon="2.21165">
        <ele>601.5</ele>
        <time>2019-08-04T06:31:36.000Z</time>
      </trkpt>
      <trkpt lat="43.37398" lon="2.21166">
        <ele>601.5</ele>
        <time>2019-08-04T06:31:37.000Z</time>
      </trkpt>
      <trkpt lat="43.37396" lon="2.21167">
        <ele>601.5</ele>
        <time>2019-08-04T06:31:38.000Z</time>
      </trkpt>
      <trkpt lat="43.37393" lon="2.21167">
        <ele>601.5</ele>
        <time>2019-08-04T06:31:39.000Z</time>
      </trkpt>
      <trkpt lat="43.37391" lon="2.21168">
        <ele>601.5</ele>
        <time>2019-08-04T06:31:40.000Z</time>
      </trkpt>
      <trkpt lat="43.37389" lon="2.21169">
        <ele>601.6</ele>
        <time>2019-08-04T06:31:41.000Z</time>
      </trkpt>
      <trkpt lat="43.37386" lon="2.21169">
        <ele>601.6</ele>
        <time>2019-08-04T06:31:42.000Z</time>
      </trkpt>
      <trkpt lat="43.37384" lon="2.2117">
        <ele>601.6</ele>
        <time>2019-08-04T06:31:43.000Z</time>
      </trkpt>
      <trkpt lat="43.37382" lon="2.2117">
        <ele>601.7</ele>
        <time>2019-08-04T06:31:44.000Z</time>
      </trkpt>
      <trkpt lat="43.37379" lon="2.2117">
        <ele>601.7</ele>
        <time>2019-08-04T06:31:45.000Z</time>
      </trkpt>
      <trkpt lat="43.37377" lon="2.2117">
        <ele>601.8</ele>
        <time>2019-08-04T06:31:46.000Z</time>
      </trkpt>
      <trkpt lat="43.37375" lon="2.2117">
        <ele>601.8</ele>
        <time>2019-08-04T06:31:47.000Z</time>
      </trkpt>
      <trkpt lat="43.37373" lon="2.2117">
        <ele>601.8</ele>
        <time>2019-08-04T06:31:48.000Z</time>
      </trkpt>
      <trkpt lat="43.37372" lon="2.21171">
        <ele>601.9</ele>
        <time>2019-08-04T06:31:49.000Z</time>
      </trkpt>
      <trkpt lat="43.3737" lon="2.21172">
        <ele>601.8</ele>
        <time>2019-08-04T06:31:50.000Z</time>
      </trkpt>
      <trkpt lat="43.37368" lon="2.21173">
        <ele>601.8</ele>
        <time>2019-08-04T06:31:51.000Z</time>
      </trkpt>
      <trkpt lat="43.37367" lon="2.21175">
        <ele>601.7</ele>
        <time>2019-08-04T06:31:52.000Z</time>
      </trkpt>
      <trkpt lat="43.37366" lon="2.21177">
        <ele>601.6</ele>
        <time>2019-08-04T06:31:53.000Z</time>
      </trkpt>
      <trkpt lat="43.37365" lon="2.21179">
        <ele>601.5</ele>
        <time>2019-08-04T06:31:54.000Z</time>
      </trkpt>
      <trkpt lat="43.37364" lon="2.21181">
        <ele>601.4</ele>
        <time>2019-08-04T06:31:55.000Z</time>
      </trkpt>
      <trkpt lat="43.37362" lon="2.21184">
        <ele>601.3</ele>
        <time>2019-08-04T06:31:56.000Z</time>
      </trkpt>
      <trkpt lat="43.37362" lon="2.21186">
        <ele>601.2</ele>
        <time>2019-08-04T06:31:57.000Z</time>
      </trkpt>
      <trkpt lat="43.37361" lon="2.21188">
        <ele>601.1</ele>
        <time>2019-08-04T06:31:58.000Z</time>
      </trkpt>
      <trkpt lat="43.3736" lon="2.21191">
        <ele>600.9</ele>
        <time>2019-08-04T06:31:59.000Z</time>
      </trkpt>
      <trkpt lat="43.37359" lon="2.21193">
        <ele>600.8</ele>
        <time>2019-08-04T06:32:00.000Z</time>
      </trkpt>
      <trkpt lat="43.37358" lon="2.21195">
        <ele>600.7</ele>
        <time>2019-08-04T06:32:01.000Z</time>
      </trkpt>
      <trkpt lat="43.37357" lon="2.21197">
        <ele>600.6</ele>
        <time>2019-08-04T06:32:02.000Z</time>
      </trkpt>
      <trkpt lat="43.37356" lon="2.21199">
        <ele>600.5</ele>
        <time>2019-08-04T06:32:03.000Z</time>
      </trkpt>
      <trkpt lat="43.37355" lon="2.21201">
        <ele>600.3</ele>
        <time>2019-08-04T06:32:04.000Z</time>
      </trkpt>
      <trkpt lat="43.37354" lon="2.21203">
        <ele>600.2</ele>
        <time>2019-08-04T06:32:05.000Z</time>
      </trkpt>
      <trkpt lat="43.37353" lon="2.21205">
        <ele>600.1</ele>
        <time>2019-08-04T06:32:06.000Z</time>
      </trkpt>
      <trkpt lat="43.37352" lon="2.21207">
        <ele>600</ele>
        <time>2019-08-04T06:32:07.000Z</time>
      </trkpt>
      <trkpt lat="43.37351" lon="2.21209">
        <ele>599.9</ele>
        <time>2019-08-04T06:32:08.000Z</time>
      </trkpt>
      <trkpt lat="43.3735" lon="2.2121">
        <ele>599.8</ele>
        <time>2019-08-04T06:32:09.000Z</time>
      </trkpt>
      <trkpt lat="43.37349" lon="2.21212">
        <ele>599.6</ele>
        <time>2019-08-04T06:32:10.000Z</time>
      </trkpt>
      <trkpt lat="43.37347" lon="2.21214">
        <ele>599.5</ele>
        <time>2019-08-04T06:32:11.000Z</time>
      </trkpt>
      <trkpt lat="43.37346" lon="2.21216">
        <ele>599.4</ele>
        <time>2019-08-04T06:32:12.000Z</time>
      </trkpt>
      <trkpt lat="43.37345" lon="2.21218">
        <ele>599.3</ele>
        <time>2019-08-04T06:32:13.000Z</time>
      </trkpt>
      <trkpt lat="43.37343" lon="2.21221">
        <ele>599.1</ele>
        <time>2019-08-04T06:32:14.000Z</time>
      </trkpt>
      <trkpt lat="43.37342" lon="2.21223">
        <ele>599</ele>
        <time>2019-08-04T06:32:15.000Z</time>
      </trkpt>
      <trkpt lat="43.3734" lon="2.21225">
        <ele>598.8</ele>
        <time>2019-08-04T06:32:16.000Z</time>
      </trkpt>
      <trkpt lat="43.37339" lon="2.21227">
        <ele>598.7</ele>
        <time>2019-08-04T06:32:17.000Z</time>
      </trkpt>
      <trkpt lat="43.37337" lon="2.21229">
        <ele>598.5</ele>
        <time>2019-08-04T06:32:18.000Z</time>
      </trkpt>
      <trkpt lat="43.37335" lon="2.21231">
        <ele>598.4</ele>
        <time>2019-08-04T06:32:19.000Z</time>
      </trkpt>
      <trkpt lat="43.37334" lon="2.21232">
        <ele>598.3</ele>
        <time>2019-08-04T06:32:20.000Z</time>
      </trkpt>
      <trkpt lat="43.37332" lon="2.21234">
        <ele>598.2</ele>
        <time>2019-08-04T06:32:21.000Z</time>
      </trkpt>
      <trkpt lat="43.3733" lon="2.21236">
        <ele>598.2</ele>
        <time>2019-08-04T06:32:22.000Z</time>
      </trkpt>
      <trkpt lat="43.37328" lon="2.21237">
        <ele>598.2</ele>
        <time>2019-08-04T06:32:23.000Z</time>
      </trkpt>
      <trkpt lat="43.37326" lon="2.21239">
        <ele>598.3</ele>
        <time>2019-08-04T06:32:24.000Z</time>
      </trkpt>
      <trkpt lat="43.37324" lon="2.2124">
        <ele>598.3</ele>
        <time>2019-08-04T06:32:25.000Z</time>
      </trkpt>
      <trkpt lat="43.37322" lon="2.21241">
        <ele>598.3</ele>
        <time>2019-08-04T06:32:26.000Z</time>
      </trkpt>
      <trkpt lat="43.3732" lon="2.21242">
        <ele>598.4</ele>
        <time>2019-08-04T06:32:27.000Z</time>
      </trkpt>
      <trkpt lat="43.37319" lon="2.21243">
        <ele>598.4</ele>
        <time>2019-08-04T06:32:28.000Z</time>
      </trkpt>
      <trkpt lat="43.37317" lon="2.21243">
        <ele>598.4</ele>
        <time>2019-08-04T06:32:29.000Z</time>
      </trkpt>
      <trkpt lat="43.37316" lon="2.21244">
        <ele>598.5</ele>
        <time>2019-08-04T06:32:30.000Z</time>
      </trkpt>
      <trkpt lat="43.37314" lon="2.21244">
        <ele>598.5</ele>
        <time>2019-08-04T06:32:31.000Z</time>
      </trkpt>
      <trkpt lat="43.37313" lon="2.21245">
        <ele>598.6</ele>
        <time>2019-08-04T06:32:32.000Z</time>
      </trkpt>
      <trkpt lat="43.37311" lon="2.21245">
        <ele>598.7</ele>
        <time>2019-08-04T06:32:33.000Z</time>
      </trkpt>
      <trkpt lat="43.3731" lon="2.21245">
        <ele>598.7</ele>
        <time>2019-08-04T06:32:34.000Z</time>
      </trkpt>
      <trkpt lat="43.37308" lon="2.21245">
        <ele>598.8</ele>
        <time>2019-08-04T06:32:35.000Z</time>
      </trkpt>
      <trkpt lat="43.37307" lon="2.21245">
        <ele>598.9</ele>
        <time>2019-08-04T06:32:36.000Z</time>
      </trkpt>
      <trkpt lat="43.37305" lon="2.21245">
        <ele>599</ele>
        <time>2019-08-04T06:32:37.000Z</time>
      </trkpt>
      <trkpt lat="43.37303" lon="2.21244">
        <ele>599.2</ele>
        <time>2019-08-04T06:32:38.000Z</time>
      </trkpt>
      <trkpt lat="43.37302" lon="2.21244">
        <ele>599.3</ele>
        <time>2019-08-04T06:32:39.000Z</time>
      </trkpt>
      <trkpt lat="43.373" lon="2.21244">
        <ele>599.4</ele>
        <time>2019-08-04T06:32:40.000Z</time>
      </trkpt>
      <trkpt lat="43.37298" lon="2.21243">
        <ele>599.5</ele>
        <time>2019-08-04T06:32:41.000Z</time>
      </trkpt>
      <trkpt lat="43.37296" lon="2.21243">
        <ele>599.6</ele>
        <time>2019-08-04T06:32:42.000Z</time>
      </trkpt>
      <trkpt lat="43.37295" lon="2.21243">
        <ele>599.8</ele>
        <time>2019-08-04T06:32:43.000Z</time>
      </trkpt>
      <trkpt lat="43.37293" lon="2.21242">
        <ele>599.9</ele>
        <time>2019-08-04T06:32:44.000Z</time>
      </trkpt>
      <trkpt lat="43.37292" lon="2.21242">
        <ele>600</ele>
        <time>2019-08-04T06:32:45.000Z</time>
      </trkpt>
      <trkpt lat="43.3729" lon="2.21241">
        <ele>600.1</ele>
        <time>2019-08-04T06:32:46.000Z</time>
      </trkpt>
      <trkpt lat="43.37289" lon="2.21241">
        <ele>600.2</ele>
        <time>2019-08-04T06:32:47.000Z</time>
      </trkpt>
      <trkpt lat="43.37287" lon="2.21241">
        <ele>600.3</ele>
        <time>2019-08-04T06:32:48.000Z</time>
      </trkpt>
      <trkpt lat="43.37285" lon="2.2124">
        <ele>600.4</ele>
        <time>2019-08-04T06:32:49.000Z</time>
      </trkpt>
      <trkpt lat="43.37284" lon="2.2124">
        <ele>600.6</ele>
        <time>2019-08-04T06:32:50.000Z</time>
      </trkpt>
      <trkpt lat="43.37282" lon="2.2124">
        <ele>600.7</ele>
        <time>2019-08-04T06:32:51.000Z</time>
      </trkpt>
      <trkpt lat="43.3728" lon="2.21239">
        <ele>600.8</ele>
        <time>2019-08-04T06:32:52.000Z</time>
      </trkpt>
      <trkpt lat="43.37279" lon="2.21239">
        <ele>600.9</ele>
        <time>2019-08-04T06:32:53.000Z</time>
      </trkpt>
      <trkpt lat="43.37277" lon="2.21239">
        <ele>601</ele>
        <time>2019-08-04T06:32:54.000Z</time>
      </trkpt>
      <trkpt lat="43.37275" lon="2.21239">
        <ele>601.1</ele>
        <time>2019-08-04T06:32:55.000Z</time>
      </trkpt>
      <trkpt lat="43.37273" lon="2.21239">
        <ele>601.2</ele>
        <time>2019-08-04T06:32:56.000Z</time>
      </trkpt>
      <trkpt lat="43.37271" lon="2.21239">
        <ele>601.3</ele>
        <time>2019-08-04T06:32:57.000Z</time>
      </trkpt>
      <trkpt lat="43.37269" lon="2.2124">
        <ele>601.4</ele>
        <time>2019-08-04T06:32:58.000Z</time>
      </trkpt>
      <trkpt lat="43.37267" lon="2.2124">
        <ele>601.5</ele>
        <time>2019-08-04T06:32:59.000Z</time>
      </trkpt>
      <trkpt lat="43.37266" lon="2.21241">
        <ele>601.5</ele>
        <time>2019-08-04T06:33:00.000Z</time>
      </trkpt>
      <trkpt lat="43.37264" lon="2.21242">
        <ele>601.6</ele>
        <time>2019-08-04T06:33:01.000Z</time>
      </trkpt>
      <trkpt lat="43.37262" lon="2.21243">
        <ele>601.6</ele>
        <time>2019-08-04T06:33:02.000Z</time>
      </trkpt>
      <trkpt lat="43.3726" lon="2.21245">
        <ele>601.7</ele>
        <time>2019-08-04T06:33:03.000Z</time>
      </trkpt>
      <trkpt lat="43.37258" lon="2.21246">
        <ele>601.7</ele>
        <time>2019-08-04T06:33:04.000Z</time>
      </trkpt>
      <trkpt lat="43.37256" lon="2.21248">
        <ele>601.7</ele>
        <time>2019-08-04T06:33:05.000Z</time>
      </trkpt>
      <trkpt lat="43.37254" lon="2.2125">
        <ele>601.7</ele>
        <time>2019-08-04T06:33:06.000Z</time>
      </trkpt>
      <trkpt lat="43.37252" lon="2.21252">
        <ele>601.6</ele>
        <time>2019-08-04T06:33:07.000Z</time>
      </trkpt>
      <trkpt lat="43.3725" lon="2.21254">
        <ele>601.5</ele>
        <time>2019-08-04T06:33:08.000Z</time>
      </trkpt>
      <trkpt lat="43.37248" lon="2.21257">
        <ele>601.1</ele>
        <time>2019-08-04T06:33:09.000Z</time>
      </trkpt>
      <trkpt lat="43.37246" lon="2.21259">
        <ele>600.7</ele>
        <time>2019-08-04T06:33:10.000Z</time>
      </trkpt>
      <trkpt lat="43.37244" lon="2.21261">
        <ele>600.4</ele>
        <time>2019-08-04T06:33:11.000Z</time>
      </trkpt>
      <trkpt lat="43.37242" lon="2.21262">
        <ele>600</ele>
        <time>2019-08-04T06:33:12.000Z</time>
      </trkpt>
      <trkpt lat="43.3724" lon="2.21264">
        <ele>599.7</ele>
        <time>2019-08-04T06:33:13.000Z</time>
      </trkpt>
      <trkpt lat="43.37238" lon="2.21266">
        <ele>599.3</ele>
        <time>2019-08-04T06:33:14.000Z</time>
      </trkpt>
      <trkpt lat="43.37236" lon="2.21267">
        <ele>599</ele>
        <time>2019-08-04T06:33:15.000Z</time>
      </trkpt>
      <trkpt lat="43.37234" lon="2.21269">
        <ele>598.7</ele>
        <time>2019-08-04T06:33:16.000Z</time>
      </trkpt>
      <trkpt lat="43.37232" lon="2.2127">
        <ele>598.4</ele>
        <time>2019-08-04T06:33:17.000Z</time>
      </trkpt>
      <trkpt lat="43.3723" lon="2.21272">
        <ele>598.1</ele>
        <time>2019-08-04T06:33:18.000Z</time>
      </trkpt>
      <trkpt lat="43.37228" lon="2.21273">
        <ele>597.8</ele>
        <time>2019-08-04T06:33:19.000Z</time>
      </trkpt>
      <trkpt lat="43.37226" lon="2.21275">
        <ele>597.5</ele>
        <time>2019-08-04T06:33:20.000Z</time>
      </trkpt>
      <trkpt lat="43.37225" lon="2.21276">
        <ele>597.1</ele>
        <time>2019-08-04T06:33:21.000Z</time>
      </trkpt>
      <trkpt lat="43.37223" lon="2.21278">
        <ele>596.8</ele>
        <time>2019-08-04T06:33:22.000Z</time>
      </trkpt>
      <trkpt lat="43.3722" lon="2.2128">
        <ele>596.4</ele>
        <time>2019-08-04T06:33:23.000Z</time>
      </trkpt>
      <trkpt lat="43.37218" lon="2.21281">
        <ele>596</ele>
        <time>2019-08-04T06:33:24.000Z</time>
      </trkpt>
      <trkpt lat="43.37215" lon="2.21283">
        <ele>595.6</ele>
        <time>2019-08-04T06:33:25.000Z</time>
      </trkpt>
      <trkpt lat="43.37212" lon="2.21285">
        <ele>595.2</ele>
        <time>2019-08-04T06:33:26.000Z</time>
      </trkpt>
      <trkpt lat="43.3721" lon="2.21286">
        <ele>594.9</ele>
        <time>2019-08-04T06:33:27.000Z</time>
      </trkpt>
      <trkpt lat="43.37207" lon="2.21287">
        <ele>594.6</ele>
        <time>2019-08-04T06:33:28.000Z</time>
      </trkpt>
      <trkpt lat="43.37205" lon="2.21287">
        <ele>594.4</ele>
        <time>2019-08-04T06:33:29.000Z</time>
      </trkpt>
      <trkpt lat="43.37203" lon="2.21287">
        <ele>594.2</ele>
        <time>2019-08-04T06:33:30.000Z</time>
      </trkpt>
      <trkpt lat="43.37201" lon="2.21288">
        <ele>594</ele>
        <time>2019-08-04T06:33:31.000Z</time>
      </trkpt>
      <trkpt lat="43.37199" lon="2.21288">
        <ele>593.8</ele>
        <time>2019-08-04T06:33:32.000Z</time>
      </trkpt>
      <trkpt lat="43.37197" lon="2.21287">
        <ele>593.7</ele>
        <time>2019-08-04T06:33:33.000Z</time>
      </trkpt>
      <trkpt lat="43.37195" lon="2.21287">
        <ele>593.6</ele>
        <time>2019-08-04T06:33:34.000Z</time>
      </trkpt>
      <trkpt lat="43.37193" lon="2.21287">
        <ele>593.5</ele>
        <time>2019-08-04T06:33:35.000Z</time>
      </trkpt>
      <trkpt lat="43.37191" lon="2.21287">
        <ele>593.5</ele>
        <time>2019-08-04T06:33:36.000Z</time>
      </trkpt>
      <trkpt lat="43.37189" lon="2.21286">
        <ele>593.4</ele>
        <time>2019-08-04T06:33:37.000Z</time>
      </trkpt>
      <trkpt lat="43.37188" lon="2.21286">
        <ele>593.4</ele>
        <time>2019-08-04T06:33:38.000Z</time>
      </trkpt>
      <trkpt lat="43.37186" lon="2.21285">
        <ele>593.3</ele>
        <time>2019-08-04T06:33:39.000Z</time>
      </trkpt>
      <trkpt lat="43.37184" lon="2.21284">
        <ele>593.3</ele>
        <time>2019-08-04T06:33:40.000Z</time>
      </trkpt>
      <trkpt lat="43.37182" lon="2.21283">
        <ele>593.3</ele>
        <time>2019-08-04T06:33:41.000Z</time>
      </trkpt>
      <trkpt lat="43.3718" lon="2.21281">
        <ele>593.4</ele>
        <time>2019-08-04T06:33:42.000Z</time>
      </trkpt>
      <trkpt lat="43.37178" lon="2.2128">
        <ele>593.5</ele>
        <time>2019-08-04T06:33:43.000Z</time>
      </trkpt>
      <trkpt lat="43.37176" lon="2.21279">
        <ele>593.5</ele>
        <time>2019-08-04T06:33:44.000Z</time>
      </trkpt>
      <trkpt lat="43.37174" lon="2.21277">
        <ele>593.6</ele>
        <time>2019-08-04T06:33:45.000Z</time>
      </trkpt>
      <trkpt lat="43.37172" lon="2.21276">
        <ele>593.7</ele>
        <time>2019-08-04T06:33:46.000Z</time>
      </trkpt>
      <trkpt lat="43.3717" lon="2.21274">
        <ele>593.7</ele>
        <time>2019-08-04T06:33:47.000Z</time>
      </trkpt>
      <trkpt lat="43.37167" lon="2.21273">
        <ele>593.7</ele>
        <time>2019-08-04T06:33:48.000Z</time>
      </trkpt>
      <trkpt lat="43.37165" lon="2.21271">
        <ele>593.8</ele>
        <time>2019-08-04T06:33:49.000Z</time>
      </trkpt>
      <trkpt lat="43.37162" lon="2.2127">
        <ele>593.8</ele>
        <time>2019-08-04T06:33:50.000Z</time>
      </trkpt>
      <trkpt lat="43.3716" lon="2.21268">
        <ele>593.9</ele>
        <time>2019-08-04T06:33:51.000Z</time>
      </trkpt>
      <trkpt lat="43.37158" lon="2.21266">
        <ele>594</ele>
        <time>2019-08-04T06:33:52.000Z</time>
      </trkpt>
      <trkpt lat="43.37155" lon="2.21264">
        <ele>594</ele>
        <time>2019-08-04T06:33:53.000Z</time>
      </trkpt>
      <trkpt lat="43.37153" lon="2.21262">
        <ele>594.1</ele>
        <time>2019-08-04T06:33:54.000Z</time>
      </trkpt>
      <trkpt lat="43.37151" lon="2.21261">
        <ele>594.2</ele>
        <time>2019-08-04T06:33:55.000Z</time>
      </trkpt>
      <trkpt lat="43.37149" lon="2.2126">
        <ele>594.2</ele>
        <time>2019-08-04T06:33:56.000Z</time>
      </trkpt>
      <trkpt lat="43.37147" lon="2.21259">
        <ele>594.2</ele>
        <time>2019-08-04T06:33:57.000Z</time>
      </trkpt>
      <trkpt lat="43.37146" lon="2.21258">
        <ele>594.2</ele>
        <time>2019-08-04T06:33:58.000Z</time>
      </trkpt>
      <trkpt lat="43.37144" lon="2.21257">
        <ele>594.1</ele>
        <time>2019-08-04T06:33:59.000Z</time>
      </trkpt>
      <trkpt lat="43.37143" lon="2.21257">
        <ele>594.1</ele>
        <time>2019-08-04T06:34:00.000Z</time>
      </trkpt>
      <trkpt lat="43.37141" lon="2.21256">
        <ele>594</ele>
        <time>2019-08-04T06:34:01.000Z</time>
      </trkpt>
      <trkpt lat="43.3714" lon="2.21256">
        <ele>593.9</ele>
        <time>2019-08-04T06:34:02.000Z</time>
      </trkpt>
      <trkpt lat="43.37138" lon="2.21256">
        <ele>593.8</ele>
        <time>2019-08-04T06:34:03.000Z</time>
      </trkpt>
      <trkpt lat="43.37136" lon="2.21255">
        <ele>593.7</ele>
        <time>2019-08-04T06:34:04.000Z</time>
      </trkpt>
      <trkpt lat="43.37134" lon="2.21255">
        <ele>593.6</ele>
        <time>2019-08-04T06:34:05.000Z</time>
      </trkpt>
      <trkpt lat="43.37132" lon="2.21254">
        <ele>593.5</ele>
        <time>2019-08-04T06:34:06.000Z</time>
      </trkpt>
      <trkpt lat="43.3713" lon="2.21253">
        <ele>593.5</ele>
        <time>2019-08-04T06:34:07.000Z</time>
      </trkpt>
      <trkpt lat="43.37128" lon="2.21253">
        <ele>593.4</ele>
        <time>2019-08-04T06:34:08.000Z</time>
      </trkpt>
      <trkpt lat="43.37127" lon="2.21252">
        <ele>593.4</ele>
        <time>2019-08-04T06:34:09.000Z</time>
      </trkpt>
      <trkpt lat="43.37127" lon="2.21252">
        <ele>593.4</ele>
        <time>2019-08-04T06:34:10.000Z</time>
      </trkpt>
      <trkpt lat="43.37126" lon="2.21252">
        <ele>593.3</ele>
        <time>2019-08-04T06:34:11.000Z</time>
      </trkpt>
      <trkpt lat="43.37125" lon="2.21252">
        <ele>593.3</ele>
        <time>2019-08-04T06:34:12.000Z</time>
      </trkpt>
      <trkpt lat="43.37123" lon="2.21251">
        <ele>593.2</ele>
        <time>2019-08-04T06:34:13.000Z</time>
      </trkpt>
      <trkpt lat="43.37122" lon="2.21251">
        <ele>593.1</ele>
        <time>2019-08-04T06:34:14.000Z</time>
      </trkpt>
      <trkpt lat="43.37121" lon="2.21251">
        <ele>593</ele>
        <time>2019-08-04T06:34:15.000Z</time>
      </trkpt>
      <trkpt lat="43.3712" lon="2.21251">
        <ele>593</ele>
        <time>2019-08-04T06:34:16.000Z</time>
      </trkpt>
      <trkpt lat="43.37119" lon="2.2125">
        <ele>592.9</ele>
        <time>2019-08-04T06:34:17.000Z</time>
      </trkpt>
      <trkpt lat="43.37118" lon="2.2125">
        <ele>592.9</ele>
        <time>2019-08-04T06:34:18.000Z</time>
      </trkpt>
      <trkpt lat="43.37117" lon="2.2125">
        <ele>592.9</ele>
        <time>2019-08-04T06:34:19.000Z</time>
      </trkpt>
      <trkpt lat="43.37117" lon="2.2125">
        <ele>592.9</ele>
        <time>2019-08-04T06:34:20.000Z</time>
      </trkpt>
      <trkpt lat="43.37116" lon="2.21249">
        <ele>592.8</ele>
        <time>2019-08-04T06:34:21.000Z</time>
      </trkpt>
      <trkpt lat="43.37116" lon="2.21249">
        <ele>592.8</ele>
        <time>2019-08-04T06:34:22.000Z</time>
      </trkpt>
      <trkpt lat="43.37115" lon="2.21249">
        <ele>592.8</ele>
        <time>2019-08-04T06:34:23.000Z</time>
      </trkpt>
      <trkpt lat="43.37115" lon="2.21249">
        <ele>592.8</ele>
        <time>2019-08-04T06:34:24.000Z</time>
      </trkpt>
      <trkpt lat="43.37114" lon="2.21249">
        <ele>592.7</ele>
        <time>2019-08-04T06:34:25.000Z</time>
      </trkpt>
      <trkpt lat="43.37114" lon="2.21248">
        <ele>592.7</ele>
        <time>2019-08-04T06:34:26.000Z</time>
      </trkpt>
      <trkpt lat="43.37113" lon="2.21248">
        <ele>592.7</ele>
        <time>2019-08-04T06:34:27.000Z</time>
      </trkpt>
      <trkpt lat="43.37113" lon="2.21248">
        <ele>592.7</ele>
        <time>2019-08-04T06:34:28.000Z</time>
      </trkpt>
      <trkpt lat="43.37112" lon="2.21248">
        <ele>592.6</ele>
        <time>2019-08-04T06:34:29.000Z</time>
      </trkpt>
      <trkpt lat="43.37111" lon="2.21247">
        <ele>592.6</ele>
        <time>2019-08-04T06:34:30.000Z</time>
      </trkpt>
      <trkpt lat="43.3711" lon="2.21247">
        <ele>592.6</ele>
        <time>2019-08-04T06:34:31.000Z</time>
      </trkpt>
      <trkpt lat="43.37109" lon="2.21246">
        <ele>592.6</ele>
        <time>2019-08-04T06:34:32.000Z</time>
      </trkpt>
      <trkpt lat="43.37108" lon="2.21246">
        <ele>592.5</ele>
        <time>2019-08-04T06:34:33.000Z</time>
      </trkpt>
      <trkpt lat="43.37107" lon="2.21245">
        <ele>592.5</ele>
        <time>2019-08-04T06:34:34.000Z</time>
      </trkpt>
      <trkpt lat="43.37106" lon="2.21245">
        <ele>592.4</ele>
        <time>2019-08-04T06:34:35.000Z</time>
      </trkpt>
      <trkpt lat="43.37105" lon="2.21245">
        <ele>592.3</ele>
        <time>2019-08-04T06:34:36.000Z</time>
      </trkpt>
      <trkpt lat="43.37103" lon="2.21245">
        <ele>592.2</ele>
        <time>2019-08-04T06:34:37.000Z</time>
      </trkpt>
      <trkpt lat="43.37102" lon="2.21245">
        <ele>592.1</ele>
        <time>2019-08-04T06:34:38.000Z</time>
      </trkpt>
      <trkpt lat="43.37101" lon="2.21245">
        <ele>591.9</ele>
        <time>2019-08-04T06:34:39.000Z</time>
      </trkpt>
      <trkpt lat="43.37099" lon="2.21245">
        <ele>591.8</ele>
        <time>2019-08-04T06:34:40.000Z</time>
      </trkpt>
      <trkpt lat="43.37098" lon="2.21245">
        <ele>591.7</ele>
        <time>2019-08-04T06:34:41.000Z</time>
      </trkpt>
      <trkpt lat="43.37097" lon="2.21245">
        <ele>591.6</ele>
        <time>2019-08-04T06:34:42.000Z</time>
      </trkpt>
      <trkpt lat="43.37096" lon="2.21245">
        <ele>591.5</ele>
        <time>2019-08-04T06:34:43.000Z</time>
      </trkpt>
      <trkpt lat="43.37095" lon="2.21245">
        <ele>591.4</ele>
        <time>2019-08-04T06:34:44.000Z</time>
      </trkpt>
      <trkpt lat="43.37094" lon="2.21245">
        <ele>591.3</ele>
        <time>2019-08-04T06:34:45.000Z</time>
      </trkpt>
      <trkpt lat="43.37093" lon="2.21245">
        <ele>591.3</ele>
        <time>2019-08-04T06:34:46.000Z</time>
      </trkpt>
      <trkpt lat="43.37091" lon="2.21245">
        <ele>591.2</ele>
        <time>2019-08-04T06:34:47.000Z</time>
      </trkpt>
      <trkpt lat="43.3709" lon="2.21245">
        <ele>591.1</ele>
        <time>2019-08-04T06:34:48.000Z</time>
      </trkpt>
      <trkpt lat="43.37088" lon="2.21244">
        <ele>591</ele>
        <time>2019-08-04T06:34:49.000Z</time>
      </trkpt>
      <trkpt lat="43.37086" lon="2.21244">
        <ele>590.9</ele>
        <time>2019-08-04T06:34:50.000Z</time>
      </trkpt>
      <trkpt lat="43.37084" lon="2.21243">
        <ele>590.7</ele>
        <time>2019-08-04T06:34:51.000Z</time>
      </trkpt>
      <trkpt lat="43.37082" lon="2.21242">
        <ele>590.5</ele>
        <time>2019-08-04T06:34:52.000Z</time>
      </trkpt>
      <trkpt lat="43.3708" lon="2.21242">
        <ele>590.3</ele>
        <time>2019-08-04T06:34:53.000Z</time>
      </trkpt>
      <trkpt lat="43.37078" lon="2.21241">
        <ele>590</ele>
        <time>2019-08-04T06:34:54.000Z</time>
      </trkpt>
      <trkpt lat="43.37076" lon="2.21241">
        <ele>589.8</ele>
        <time>2019-08-04T06:34:55.000Z</time>
      </trkpt>
      <trkpt lat="43.37074" lon="2.21241">
        <ele>589.5</ele>
        <time>2019-08-04T06:34:56.000Z</time>
      </trkpt>
      <trkpt lat="43.37072" lon="2.21241">
        <ele>589.3</ele>
        <time>2019-08-04T06:34:57.000Z</time>
      </trkpt>
      <trkpt lat="43.3707" lon="2.21241">
        <ele>589</ele>
        <time>2019-08-04T06:34:58.000Z</time>
      </trkpt>
      <trkpt lat="43.37069" lon="2.21241">
        <ele>588.8</ele>
        <time>2019-08-04T06:34:59.000Z</time>
      </trkpt>
      <trkpt lat="43.37067" lon="2.21241">
        <ele>588.6</ele>
        <time>2019-08-04T06:35:00.000Z</time>
      </trkpt>
      <trkpt lat="43.37066" lon="2.21241">
        <ele>588.3</ele>
        <time>2019-08-04T06:35:01.000Z</time>
      </trkpt>
      <trkpt lat="43.37065" lon="2.21241">
        <ele>588.1</ele>
        <time>2019-08-04T06:35:02.000Z</time>
      </trkpt>
      <trkpt lat="43.37063" lon="2.21242">
        <ele>587.9</ele>
        <time>2019-08-04T06:35:03.000Z</time>
      </trkpt>
      <trkpt lat="43.37062" lon="2.21242">
        <ele>587.7</ele>
        <time>2019-08-04T06:35:04.000Z</time>
      </trkpt>
      <trkpt lat="43.37061" lon="2.21242">
        <ele>587.5</ele>
        <time>2019-08-04T06:35:05.000Z</time>
      </trkpt>
      <trkpt lat="43.3706" lon="2.21242">
        <ele>587.3</ele>
        <time>2019-08-04T06:35:06.000Z</time>
      </trkpt>
      <trkpt lat="43.37059" lon="2.21243">
        <ele>587.1</ele>
        <time>2019-08-04T06:35:07.000Z</time>
      </trkpt>
      <trkpt lat="43.37057" lon="2.21243">
        <ele>586.9</ele>
        <time>2019-08-04T06:35:08.000Z</time>
      </trkpt>
      <trkpt lat="43.37056" lon="2.21243">
        <ele>586.8</ele>
        <time>2019-08-04T06:35:09.000Z</time>
      </trkpt>
      <trkpt lat="43.37055" lon="2.21242">
        <ele>586.6</ele>
        <time>2019-08-04T06:35:10.000Z</time>
      </trkpt>
      <trkpt lat="43.37054" lon="2.21242">
        <ele>586.5</ele>
        <time>2019-08-04T06:35:11.000Z</time>
      </trkpt>
      <trkpt lat="43.37053" lon="2.21242">
        <ele>586.3</ele>
        <time>2019-08-04T06:35:12.000Z</time>
      </trkpt>
      <trkpt lat="43.37051" lon="2.21241">
        <ele>586.2</ele>
        <time>2019-08-04T06:35:13.000Z</time>
      </trkpt>
      <trkpt lat="43.3705" lon="2.2124">
        <ele>586.1</ele>
        <time>2019-08-04T06:35:14.000Z</time>
      </trkpt>
      <trkpt lat="43.37049" lon="2.2124">
        <ele>585.9</ele>
        <time>2019-08-04T06:35:15.000Z</time>
      </trkpt>
      <trkpt lat="43.37047" lon="2.21239">
        <ele>585.8</ele>
        <time>2019-08-04T06:35:16.000Z</time>
      </trkpt>
      <trkpt lat="43.37046" lon="2.21237">
        <ele>585.7</ele>
        <time>2019-08-04T06:35:17.000Z</time>
      </trkpt>
      <trkpt lat="43.37044" lon="2.21236">
        <ele>585.6</ele>
        <time>2019-08-04T06:35:18.000Z</time>
      </trkpt>
      <trkpt lat="43.37042" lon="2.21235">
        <ele>585.4</ele>
        <time>2019-08-04T06:35:19.000Z</time>
      </trkpt>
      <trkpt lat="43.3704" lon="2.21233">
        <ele>585.3</ele>
        <time>2019-08-04T06:35:20.000Z</time>
      </trkpt>
      <trkpt lat="43.37038" lon="2.21232">
        <ele>585.1</ele>
        <time>2019-08-04T06:35:21.000Z</time>
      </trkpt>
      <trkpt lat="43.37036" lon="2.2123">
        <ele>585</ele>
        <time>2019-08-04T06:35:22.000Z</time>
      </trkpt>
      <trkpt lat="43.37034" lon="2.21228">
        <ele>584.8</ele>
        <time>2019-08-04T06:35:23.000Z</time>
      </trkpt>
      <trkpt lat="43.37032" lon="2.21227">
        <ele>584.7</ele>
        <time>2019-08-04T06:35:24.000Z</time>
      </trkpt>
      <trkpt lat="43.3703" lon="2.21226">
        <ele>584.5</ele>
        <time>2019-08-04T06:35:25.000Z</time>
      </trkpt>
      <trkpt lat="43.37029" lon="2.21225">
        <ele>584.3</ele>
        <time>2019-08-04T06:35:26.000Z</time>
      </trkpt>
      <trkpt lat="43.37027" lon="2.21224">
        <ele>584.2</ele>
        <time>2019-08-04T06:35:27.000Z</time>
      </trkpt>
      <trkpt lat="43.37025" lon="2.21223">
        <ele>584</ele>
        <time>2019-08-04T06:35:28.000Z</time>
      </trkpt>
      <trkpt lat="43.37024" lon="2.21222">
        <ele>583.9</ele>
        <time>2019-08-04T06:35:29.000Z</time>
      </trkpt>
      <trkpt lat="43.37024" lon="2.21221">
        <ele>583.9</ele>
        <time>2019-08-04T06:35:30.000Z</time>
      </trkpt>
      <trkpt lat="43.37023" lon="2.21221">
        <ele>583.9</ele>
        <time>2019-08-04T06:35:31.000Z</time>
      </trkpt>
      <trkpt lat="43.37023" lon="2.2122">
        <ele>583.9</ele>
        <time>2019-08-04T06:35:32.000Z</time>
      </trkpt>
      <trkpt lat="43.37023" lon="2.2122">
        <ele>583.9</ele>
        <time>2019-08-04T06:35:33.000Z</time>
      </trkpt>
      <trkpt lat="43.37023" lon="2.2122">
        <ele>583.9</ele>
        <time>2019-08-04T06:35:34.000Z</time>
      </trkpt>
      <trkpt lat="43.37023" lon="2.2122">
        <ele>583.9</ele>
        <time>2019-08-04T06:35:35.000Z</time>
      </trkpt>
      <trkpt lat="43.37024" lon="2.21221">
        <ele>584</ele>
        <time>2019-08-04T06:35:36.000Z</time>
      </trkpt>
      <trkpt lat="43.37024" lon="2.21222">
        <ele>584</ele>
        <time>2019-08-04T06:35:37.000Z</time>
      </trkpt>
      <trkpt lat="43.37025" lon="2.21222">
        <ele>584</ele>
        <time>2019-08-04T06:35:38.000Z</time>
      </trkpt>
      <trkpt lat="43.37026" lon="2.21223">
        <ele>584.1</ele>
        <time>2019-08-04T06:35:39.000Z</time>
      </trkpt>
      <trkpt lat="43.37026" lon="2.21224">
        <ele>584.1</ele>
        <time>2019-08-04T06:35:40.000Z</time>
      </trkpt>
      <trkpt lat="43.37027" lon="2.21224">
        <ele>584.2</ele>
        <time>2019-08-04T06:35:41.000Z</time>
      </trkpt>
      <trkpt lat="43.37028" lon="2.21225">
        <ele>584.3</ele>
        <time>2019-08-04T06:35:42.000Z</time>
      </trkpt>
      <trkpt lat="43.37029" lon="2.21225">
        <ele>584.4</ele>
        <time>2019-08-04T06:35:43.000Z</time>
      </trkpt>
      <trkpt lat="43.3703" lon="2.21225">
        <ele>584.5</ele>
        <time>2019-08-04T06:35:44.000Z</time>
      </trkpt>
      <trkpt lat="43.37031" lon="2.21225">
        <ele>584.6</ele>
        <time>2019-08-04T06:35:45.000Z</time>
      </trkpt>
      <trkpt lat="43.37031" lon="2.21225">
        <ele>584.7</ele>
        <time>2019-08-04T06:35:46.000Z</time>
      </trkpt>
      <trkpt lat="43.37032" lon="2.21226">
        <ele>584.8</ele>
        <time>2019-08-04T06:35:47.000Z</time>
      </trkpt>
      <trkpt lat="43.37033" lon="2.21226">
        <ele>584.9</ele>
        <time>2019-08-04T06:35:48.000Z</time>
      </trkpt>
      <trkpt lat="43.37034" lon="2.21226">
        <ele>585</ele>
        <time>2019-08-04T06:35:49.000Z</time>
      </trkpt>
      <trkpt lat="43.37035" lon="2.21227">
        <ele>585.1</ele>
        <time>2019-08-04T06:35:50.000Z</time>
      </trkpt>
      <trkpt lat="43.37036" lon="2.21227">
        <ele>585.2</ele>
        <time>2019-08-04T06:35:51.000Z</time>
      </trkpt>
      <trkpt lat="43.37036" lon="2.21228">
        <ele>585.2</ele>
        <time>2019-08-04T06:35:52.000Z</time>
      </trkpt>
      <trkpt lat="43.37037" lon="2.21228">
        <ele>585.3</ele>
        <time>2019-08-04T06:35:53.000Z</time>
      </trkpt>
      <trkpt lat="43.37038" lon="2.21229">
        <ele>585.4</ele>
        <time>2019-08-04T06:35:54.000Z</time>
      </trkpt>
      <trkpt lat="43.37039" lon="2.21229">
        <ele>585.5</ele>
        <time>2019-08-04T06:35:55.000Z</time>
      </trkpt>
      <trkpt lat="43.3704" lon="2.2123">
        <ele>585.5</ele>
        <time>2019-08-04T06:35:56.000Z</time>
      </trkpt>
      <trkpt lat="43.37041" lon="2.2123">
        <ele>585.6</ele>
        <time>2019-08-04T06:35:57.000Z</time>
      </trkpt>
      <trkpt lat="43.37041" lon="2.21231">
        <ele>585.7</ele>
        <time>2019-08-04T06:35:58.000Z</time>
      </trkpt>
      <trkpt lat="43.37042" lon="2.21231">
        <ele>585.7</ele>
        <time>2019-08-04T06:35:59.000Z</time>
      </trkpt>
      <trkpt lat="43.37043" lon="2.21232">
        <ele>585.8</ele>
        <time>2019-08-04T06:36:00.000Z</time>
      </trkpt>
      <trkpt lat="43.37043" lon="2.21232">
        <ele>585.9</ele>
        <time>2019-08-04T06:36:01.000Z</time>
      </trkpt>
      <trkpt lat="43.37044" lon="2.21233">
        <ele>585.9</ele>
        <time>2019-08-04T06:36:02.000Z</time>
      </trkpt>
      <trkpt lat="43.37044" lon="2.21233">
        <ele>585.9</ele>
        <time>2019-08-04T06:36:03.000Z</time>
      </trkpt>
      <trkpt lat="43.37045" lon="2.21233">
        <ele>585.9</ele>
        <time>2019-08-04T06:36:04.000Z</time>
      </trkpt>
      <trkpt lat="43.37045" lon="2.21233">
        <ele>585.9</ele>
        <time>2019-08-04T06:36:05.000Z</time>
      </trkpt>
      <trkpt lat="43.37045" lon="2.21233">
        <ele>585.9</ele>
        <time>2019-08-04T06:36:06.000Z</time>
      </trkpt>
      <trkpt lat="43.37044" lon="2.21233">
        <ele>585.9</ele>
        <time>2019-08-04T06:36:07.000Z</time>
      </trkpt>
      <trkpt lat="43.37044" lon="2.21233">
        <ele>585.9</ele>
        <time>2019-08-04T06:36:08.000Z</time>
      </trkpt>
      <trkpt lat="43.37044" lon="2.21233">
        <ele>585.8</ele>
        <time>2019-08-04T06:36:09.000Z</time>
      </trkpt>
      <trkpt lat="43.37043" lon="2.21232">
        <ele>585.8</ele>
        <time>2019-08-04T06:36:10.000Z</time>
      </trkpt>
      <trkpt lat="43.37042" lon="2.21231">
        <ele>585.8</ele>
        <time>2019-08-04T06:36:11.000Z</time>
      </trkpt>
      <trkpt lat="43.37041" lon="2.2123">
        <ele>585.8</ele>
        <time>2019-08-04T06:36:12.000Z</time>
      </trkpt>
      <trkpt lat="43.37041" lon="2.21229">
        <ele>585.8</ele>
        <time>2019-08-04T06:36:13.000Z</time>
      </trkpt>
      <trkpt lat="43.3704" lon="2.21227">
        <ele>585.7</ele>
        <time>2019-08-04T06:36:14.000Z</time>
      </trkpt>
      <trkpt lat="43.37039" lon="2.21226">
        <ele>585.7</ele>
        <time>2019-08-04T06:36:15.000Z</time>
      </trkpt>
      <trkpt lat="43.37037" lon="2.21224">
        <ele>585.7</ele>
        <time>2019-08-04T06:36:16.000Z</time>
      </trkpt>
      <trkpt lat="43.37036" lon="2.21223">
        <ele>585.6</ele>
        <time>2019-08-04T06:36:17.000Z</time>
      </trkpt>
      <trkpt lat="43.37035" lon="2.21222">
        <ele>585.5</ele>
        <time>2019-08-04T06:36:18.000Z</time>
      </trkpt>
      <trkpt lat="43.37034" lon="2.21221">
        <ele>585.4</ele>
        <time>2019-08-04T06:36:19.000Z</time>
      </trkpt>
      <trkpt lat="43.37032" lon="2.2122">
        <ele>585.3</ele>
        <time>2019-08-04T06:36:20.000Z</time>
      </trkpt>
      <trkpt lat="43.37031" lon="2.2122">
        <ele>585.1</ele>
        <time>2019-08-04T06:36:21.000Z</time>
      </trkpt>
      <trkpt lat="43.3703" lon="2.21219">
        <ele>585</ele>
        <time>2019-08-04T06:36:22.000Z</time>
      </trkpt>
      <trkpt lat="43.37028" lon="2.21219">
        <ele>584.8</ele>
        <time>2019-08-04T06:36:23.000Z</time>
      </trkpt>
      <trkpt lat="43.37027" lon="2.21218">
        <ele>584.7</ele>
        <time>2019-08-04T06:36:24.000Z</time>
      </trkpt>
      <trkpt lat="43.37026" lon="2.21217">
        <ele>584.6</ele>
        <time>2019-08-04T06:36:25.000Z</time>
      </trkpt>
      <trkpt lat="43.37025" lon="2.21216">
        <ele>584.5</ele>
        <time>2019-08-04T06:36:26.000Z</time>
      </trkpt>
      <trkpt lat="43.37024" lon="2.21216">
        <ele>584.5</ele>
        <time>2019-08-04T06:36:27.000Z</time>
      </trkpt>
      <trkpt lat="43.37024" lon="2.21215">
        <ele>584.5</ele>
        <time>2019-08-04T06:36:28.000Z</time>
      </trkpt>
      <trkpt lat="43.37024" lon="2.21214">
        <ele>584.6</ele>
        <time>2019-08-04T06:36:29.000Z</time>
      </trkpt>
      <trkpt lat="43.37024" lon="2.21213">
        <ele>584.7</ele>
        <time>2019-08-04T06:36:30.000Z</time>
      </trkpt>
      <trkpt lat="43.37024" lon="2.21213">
        <ele>584.8</ele>
        <time>2019-08-04T06:36:31.000Z</time>
      </trkpt>
      <trkpt lat="43.37025" lon="2.21212">
        <ele>584.9</ele>
        <time>2019-08-04T06:36:32.000Z</time>
      </trkpt>
      <trkpt lat="43.37026" lon="2.21213">
        <ele>585</ele>
        <time>2019-08-04T06:36:33.000Z</time>
      </trkpt>
      <trkpt lat="43.37026" lon="2.21213">
        <ele>585</ele>
        <time>2019-08-04T06:36:34.000Z</time>
      </trkpt>
      <trkpt lat="43.37027" lon="2.21214">
        <ele>585</ele>
        <time>2019-08-04T06:36:35.000Z</time>
      </trkpt>
      <trkpt lat="43.37027" lon="2.21215">
        <ele>585</ele>
        <time>2019-08-04T06:36:36.000Z</time>
      </trkpt>
      <trkpt lat="43.37027" lon="2.21216">
        <ele>584.9</ele>
        <time>2019-08-04T06:36:37.000Z</time>
      </trkpt>
      <trkpt lat="43.37028" lon="2.21217">
        <ele>584.9</ele>
        <time>2019-08-04T06:36:38.000Z</time>
      </trkpt>
      <trkpt lat="43.37028" lon="2.21218">
        <ele>584.9</ele>
        <time>2019-08-04T06:36:39.000Z</time>
      </trkpt>
      <trkpt lat="43.37029" lon="2.2122">
        <ele>584.9</ele>
        <time>2019-08-04T06:36:40.000Z</time>
      </trkpt>
      <trkpt lat="43.3703" lon="2.21221">
        <ele>585</ele>
        <time>2019-08-04T06:36:41.000Z</time>
      </trkpt>
      <trkpt lat="43.37032" lon="2.21221">
        <ele>585.1</ele>
        <time>2019-08-04T06:36:42.000Z</time>
      </trkpt>
      <trkpt lat="43.37033" lon="2.21222">
        <ele>585.2</ele>
        <time>2019-08-04T06:36:43.000Z</time>
      </trkpt>
      <trkpt lat="43.37035" lon="2.21223">
        <ele>585.4</ele>
        <time>2019-08-04T06:36:44.000Z</time>
      </trkpt>
      <trkpt lat="43.37036" lon="2.21224">
        <ele>585.6</ele>
        <time>2019-08-04T06:36:45.000Z</time>
      </trkpt>
      <trkpt lat="43.37038" lon="2.21225">
        <ele>585.8</ele>
        <time>2019-08-04T06:36:46.000Z</time>
      </trkpt>
      <trkpt lat="43.3704" lon="2.21226">
        <ele>585.9</ele>
        <time>2019-08-04T06:36:47.000Z</time>
      </trkpt>
      <trkpt lat="43.37041" lon="2.21227">
        <ele>586.1</ele>
        <time>2019-08-04T06:36:48.000Z</time>
      </trkpt>
      <trkpt lat="43.37043" lon="2.21228">
        <ele>586.2</ele>
        <time>2019-08-04T06:36:49.000Z</time>
      </trkpt>
      <trkpt lat="43.37045" lon="2.21229">
        <ele>586.4</ele>
        <time>2019-08-04T06:36:50.000Z</time>
      </trkpt>
      <trkpt lat="43.37046" lon="2.2123">
        <ele>586.5</ele>
        <time>2019-08-04T06:36:51.000Z</time>
      </trkpt>
      <trkpt lat="43.37048" lon="2.21231">
        <ele>586.7</ele>
        <time>2019-08-04T06:36:52.000Z</time>
      </trkpt>
      <trkpt lat="43.3705" lon="2.21232">
        <ele>586.9</ele>
        <time>2019-08-04T06:36:53.000Z</time>
      </trkpt>
      <trkpt lat="43.37052" lon="2.21232">
        <ele>587.1</ele>
        <time>2019-08-04T06:36:54.000Z</time>
      </trkpt>
      <trkpt lat="43.37054" lon="2.21233">
        <ele>587.4</ele>
        <time>2019-08-04T06:36:55.000Z</time>
      </trkpt>
      <trkpt lat="43.37056" lon="2.21233">
        <ele>587.7</ele>
        <time>2019-08-04T06:36:56.000Z</time>
      </trkpt>
      <trkpt lat="43.37059" lon="2.21233">
        <ele>588.1</ele>
        <time>2019-08-04T06:36:57.000Z</time>
      </trkpt>
      <trkpt lat="43.37061" lon="2.21233">
        <ele>588.4</ele>
        <time>2019-08-04T06:36:58.000Z</time>
      </trkpt>
      <trkpt lat="43.37064" lon="2.21233">
        <ele>588.8</ele>
        <time>2019-08-04T06:36:59.000Z</time>
      </trkpt>
      <trkpt lat="43.37066" lon="2.21233">
        <ele>589.2</ele>
        <time>2019-08-04T06:37:00.000Z</time>
      </trkpt>
      <trkpt lat="43.37069" lon="2.21233">
        <ele>589.6</ele>
        <time>2019-08-04T06:37:01.000Z</time>
      </trkpt>
      <trkpt lat="43.37071" lon="2.21232">
        <ele>589.9</ele>
        <time>2019-08-04T06:37:02.000Z</time>
      </trkpt>
      <trkpt lat="43.37074" lon="2.21232">
        <ele>590.3</ele>
        <time>2019-08-04T06:37:03.000Z</time>
      </trkpt>
      <trkpt lat="43.37076" lon="2.21232">
        <ele>590.6</ele>
        <time>2019-08-04T06:37:04.000Z</time>
      </trkpt>
      <trkpt lat="43.37078" lon="2.21233">
        <ele>590.9</ele>
        <time>2019-08-04T06:37:05.000Z</time>
      </trkpt>
      <trkpt lat="43.3708" lon="2.21233">
        <ele>591.2</ele>
        <time>2019-08-04T06:37:06.000Z</time>
      </trkpt>
      <trkpt lat="43.37082" lon="2.21233">
        <ele>591.5</ele>
        <time>2019-08-04T06:37:07.000Z</time>
      </trkpt>
      <trkpt lat="43.37084" lon="2.21233">
        <ele>591.7</ele>
        <time>2019-08-04T06:37:08.000Z</time>
      </trkpt>
      <trkpt lat="43.37086" lon="2.21234">
        <ele>591.8</ele>
        <time>2019-08-04T06:37:09.000Z</time>
      </trkpt>
      <trkpt lat="43.37088" lon="2.21234">
        <ele>592</ele>
        <time>2019-08-04T06:37:10.000Z</time>
      </trkpt>
      <trkpt lat="43.37091" lon="2.21235">
        <ele>592.1</ele>
        <time>2019-08-04T06:37:11.000Z</time>
      </trkpt>
      <trkpt lat="43.37093" lon="2.21235">
        <ele>592.2</ele>
        <time>2019-08-04T06:37:12.000Z</time>
      </trkpt>
      <trkpt lat="43.37095" lon="2.21236">
        <ele>592.4</ele>
        <time>2019-08-04T06:37:13.000Z</time>
      </trkpt>
      <trkpt lat="43.37097" lon="2.21236">
        <ele>592.5</ele>
        <time>2019-08-04T06:37:14.000Z</time>
      </trkpt>
      <trkpt lat="43.371" lon="2.21237">
        <ele>592.6</ele>
        <time>2019-08-04T06:37:15.000Z</time>
      </trkpt>
      <trkpt lat="43.37102" lon="2.21238">
        <ele>592.8</ele>
        <time>2019-08-04T06:37:16.000Z</time>
      </trkpt>
      <trkpt lat="43.37105" lon="2.21239">
        <ele>592.9</ele>
        <time>2019-08-04T06:37:17.000Z</time>
      </trkpt>
      <trkpt lat="43.37107" lon="2.21239">
        <ele>593</ele>
        <time>2019-08-04T06:37:18.000Z</time>
      </trkpt>
      <trkpt lat="43.37109" lon="2.2124">
        <ele>593.2</ele>
        <time>2019-08-04T06:37:19.000Z</time>
      </trkpt>
      <trkpt lat="43.37112" lon="2.21241">
        <ele>593.3</ele>
        <time>2019-08-04T06:37:20.000Z</time>
      </trkpt>
      <trkpt lat="43.37115" lon="2.21242">
        <ele>593.5</ele>
        <time>2019-08-04T06:37:21.000Z</time>
      </trkpt>
      <trkpt lat="43.37117" lon="2.21243">
        <ele>593.6</ele>
        <time>2019-08-04T06:37:22.000Z</time>
      </trkpt>
      <trkpt lat="43.3712" lon="2.21244">
        <ele>593.7</ele>
        <time>2019-08-04T06:37:23.000Z</time>
      </trkpt>
      <trkpt lat="43.37123" lon="2.21244">
        <ele>593.9</ele>
        <time>2019-08-04T06:37:24.000Z</time>
      </trkpt>
      <trkpt lat="43.37125" lon="2.21245">
        <ele>594</ele>
        <time>2019-08-04T06:37:25.000Z</time>
      </trkpt>
      <trkpt lat="43.37128" lon="2.21246">
        <ele>594.1</ele>
        <time>2019-08-04T06:37:26.000Z</time>
      </trkpt>
      <trkpt lat="43.37131" lon="2.21247">
        <ele>594.3</ele>
        <time>2019-08-04T06:37:27.000Z</time>
      </trkpt>
      <trkpt lat="43.37133" lon="2.21248">
        <ele>594.4</ele>
        <time>2019-08-04T06:37:28.000Z</time>
      </trkpt>
      <trkpt lat="43.37135" lon="2.21249">
        <ele>594.5</ele>
        <time>2019-08-04T06:37:29.000Z</time>
      </trkpt>
      <trkpt lat="43.37136" lon="2.21249">
        <ele>594.5</ele>
        <time>2019-08-04T06:37:30.000Z</time>
      </trkpt>
      <trkpt lat="43.37138" lon="2.21249">
        <ele>594.6</ele>
        <time>2019-08-04T06:37:31.000Z</time>
      </trkpt>
      <trkpt lat="43.37139" lon="2.2125">
        <ele>594.7</ele>
        <time>2019-08-04T06:37:32.000Z</time>
      </trkpt>
      <trkpt lat="43.3714" lon="2.21249">
        <ele>594.8</ele>
        <time>2019-08-04T06:37:33.000Z</time>
      </trkpt>
      <trkpt lat="43.37141" lon="2.21249">
        <ele>594.9</ele>
        <time>2019-08-04T06:37:34.000Z</time>
      </trkpt>
      <trkpt lat="43.37142" lon="2.21249">
        <ele>595.1</ele>
        <time>2019-08-04T06:37:35.000Z</time>
      </trkpt>
      <trkpt lat="43.37143" lon="2.21248">
        <ele>595.2</ele>
        <time>2019-08-04T06:37:36.000Z</time>
      </trkpt>
      <trkpt lat="43.37144" lon="2.21248">
        <ele>595.3</ele>
        <time>2019-08-04T06:37:37.000Z</time>
      </trkpt>
      <trkpt lat="43.37146" lon="2.21248">
        <ele>595.5</ele>
        <time>2019-08-04T06:37:38.000Z</time>
      </trkpt>
      <trkpt lat="43.37147" lon="2.21248">
        <ele>595.6</ele>
        <time>2019-08-04T06:37:39.000Z</time>
      </trkpt>
      <trkpt lat="43.37149" lon="2.21249">
        <ele>595.6</ele>
        <time>2019-08-04T06:37:40.000Z</time>
      </trkpt>
      <trkpt lat="43.3715" lon="2.2125">
        <ele>595.7</ele>
        <time>2019-08-04T06:37:41.000Z</time>
      </trkpt>
      <trkpt lat="43.37152" lon="2.21251">
        <ele>595.7</ele>
        <time>2019-08-04T06:37:42.000Z</time>
      </trkpt>
      <trkpt lat="43.37154" lon="2.21252">
        <ele>595.6</ele>
        <time>2019-08-04T06:37:43.000Z</time>
      </trkpt>
      <trkpt lat="43.37156" lon="2.21254">
        <ele>595.6</ele>
        <time>2019-08-04T06:37:44.000Z</time>
      </trkpt>
      <trkpt lat="43.37158" lon="2.21256">
        <ele>595.5</ele>
        <time>2019-08-04T06:37:45.000Z</time>
      </trkpt>
      <trkpt lat="43.3716" lon="2.21257">
        <ele>595.4</ele>
        <time>2019-08-04T06:37:46.000Z</time>
      </trkpt>
      <trkpt lat="43.37162" lon="2.21259">
        <ele>595.4</ele>
        <time>2019-08-04T06:37:47.000Z</time>
      </trkpt>
      <trkpt lat="43.37164" lon="2.2126">
        <ele>595.3</ele>
        <time>2019-08-04T06:37:48.000Z</time>
      </trkpt>
      <trkpt lat="43.37166" lon="2.21262">
        <ele>595.3</ele>
        <time>2019-08-04T06:37:49.000Z</time>
      </trkpt>
      <trkpt lat="43.37167" lon="2.21263">
        <ele>595.2</ele>
        <time>2019-08-04T06:37:50.000Z</time>
      </trkpt>
      <trkpt lat="43.37169" lon="2.21264">
        <ele>595.1</ele>
        <time>2019-08-04T06:37:51.000Z</time>
      </trkpt>
      <trkpt lat="43.3717" lon="2.21266">
        <ele>595</ele>
        <time>2019-08-04T06:37:52.000Z</time>
      </trkpt>
      <trkpt lat="43.3717" lon="2.21267">
        <ele>594.8</ele>
        <time>2019-08-04T06:37:53.000Z</time>
      </trkpt>
      <trkpt lat="43.37171" lon="2.21268">
        <ele>594.7</ele>
        <time>2019-08-04T06:37:54.000Z</time>
      </trkpt>
      <trkpt lat="43.37171" lon="2.2127">
        <ele>594.5</ele>
        <time>2019-08-04T06:37:55.000Z</time>
      </trkpt>
      <trkpt lat="43.37172" lon="2.21271">
        <ele>594.3</ele>
        <time>2019-08-04T06:37:56.000Z</time>
      </trkpt>
      <trkpt lat="43.37172" lon="2.21273">
        <ele>594.1</ele>
        <time>2019-08-04T06:37:57.000Z</time>
      </trkpt>
      <trkpt lat="43.37173" lon="2.21275">
        <ele>593.8</ele>
        <time>2019-08-04T06:37:58.000Z</time>
      </trkpt>
      <trkpt lat="43.37173" lon="2.21277">
        <ele>593.6</ele>
        <time>2019-08-04T06:37:59.000Z</time>
      </trkpt>
      <trkpt lat="43.37174" lon="2.21278">
        <ele>593.4</ele>
        <time>2019-08-04T06:38:00.000Z</time>
      </trkpt>
      <trkpt lat="43.37174" lon="2.2128">
        <ele>593.2</ele>
        <time>2019-08-04T06:38:01.000Z</time>
      </trkpt>
      <trkpt lat="43.37175" lon="2.21282">
        <ele>593</ele>
        <time>2019-08-04T06:38:02.000Z</time>
      </trkpt>
      <trkpt lat="43.37175" lon="2.21283">
        <ele>592.9</ele>
        <time>2019-08-04T06:38:03.000Z</time>
      </trkpt>
      <trkpt lat="43.37176" lon="2.21284">
        <ele>592.7</ele>
        <time>2019-08-04T06:38:04.000Z</time>
      </trkpt>
      <trkpt lat="43.37177" lon="2.21286">
        <ele>592.6</ele>
        <time>2019-08-04T06:38:05.000Z</time>
      </trkpt>
      <trkpt lat="43.37178" lon="2.21287">
        <ele>592.5</ele>
        <time>2019-08-04T06:38:06.000Z</time>
      </trkpt>
      <trkpt lat="43.37178" lon="2.21288">
        <ele>592.4</ele>
        <time>2019-08-04T06:38:07.000Z</time>
      </trkpt>
      <trkpt lat="43.37179" lon="2.21289">
        <ele>592.3</ele>
        <time>2019-08-04T06:38:08.000Z</time>
      </trkpt>
      <trkpt lat="43.3718" lon="2.2129">
        <ele>592.2</ele>
        <time>2019-08-04T06:38:09.000Z</time>
      </trkpt>
      <trkpt lat="43.37181" lon="2.21291">
        <ele>592.2</ele>
        <time>2019-08-04T06:38:10.000Z</time>
      </trkpt>
      <trkpt lat="43.37182" lon="2.21292">
        <ele>592.1</ele>
        <time>2019-08-04T06:38:11.000Z</time>
      </trkpt>
      <trkpt lat="43.37184" lon="2.21293">
        <ele>592.1</ele>
        <time>2019-08-04T06:38:12.000Z</time>
      </trkpt>
      <trkpt lat="43.37185" lon="2.21293">
        <ele>592.1</ele>
        <time>2019-08-04T06:38:13.000Z</time>
      </trkpt>
      <trkpt lat="43.37186" lon="2.21294">
        <ele>592</ele>
        <time>2019-08-04T06:38:14.000Z</time>
      </trkpt>
      <trkpt lat="43.37187" lon="2.21295">
        <ele>592</ele>
        <time>2019-08-04T06:38:15.000Z</time>
      </trkpt>
      <trkpt lat="43.37188" lon="2.21296">
        <ele>592</ele>
        <time>2019-08-04T06:38:16.000Z</time>
      </trkpt>
      <trkpt lat="43.37189" lon="2.21297">
        <ele>592</ele>
        <time>2019-08-04T06:38:17.000Z</time>
      </trkpt>
      <trkpt lat="43.3719" lon="2.21297">
        <ele>591.9</ele>
        <time>2019-08-04T06:38:18.000Z</time>
      </trkpt>
      <trkpt lat="43.37191" lon="2.21298">
        <ele>591.9</ele>
        <time>2019-08-04T06:38:19.000Z</time>
      </trkpt>
      <trkpt lat="43.37192" lon="2.21299">
        <ele>591.8</ele>
        <time>2019-08-04T06:38:20.000Z</time>
      </trkpt>
      <trkpt lat="43.37193" lon="2.213">
        <ele>591.8</ele>
        <time>2019-08-04T06:38:21.000Z</time>
      </trkpt>
      <trkpt lat="43.37194" lon="2.21301">
        <ele>591.8</ele>
        <time>2019-08-04T06:38:22.000Z</time>
      </trkpt>
      <trkpt lat="43.37196" lon="2.21302">
        <ele>591.7</ele>
        <time>2019-08-04T06:38:23.000Z</time>
      </trkpt>
      <trkpt lat="43.37197" lon="2.21303">
        <ele>591.7</ele>
        <time>2019-08-04T06:38:24.000Z</time>
      </trkpt>
      <trkpt lat="43.37199" lon="2.21303">
        <ele>591.7</ele>
        <time>2019-08-04T06:38:25.000Z</time>
      </trkpt>
      <trkpt lat="43.372" lon="2.21304">
        <ele>591.8</ele>
        <time>2019-08-04T06:38:26.000Z</time>
      </trkpt>
      <trkpt lat="43.37202" lon="2.21305">
        <ele>591.8</ele>
        <time>2019-08-04T06:38:27.000Z</time>
      </trkpt>
      <trkpt lat="43.37204" lon="2.21306">
        <ele>591.9</ele>
        <time>2019-08-04T06:38:28.000Z</time>
      </trkpt>
      <trkpt lat="43.37206" lon="2.21306">
        <ele>591.9</ele>
        <time>2019-08-04T06:38:29.000Z</time>
      </trkpt>
      <trkpt lat="43.37208" lon="2.21307">
        <ele>592</ele>
        <time>2019-08-04T06:38:30.000Z</time>
      </trkpt>
      <trkpt lat="43.3721" lon="2.21307">
        <ele>592.1</ele>
        <time>2019-08-04T06:38:31.000Z</time>
      </trkpt>
      <trkpt lat="43.37212" lon="2.21308">
        <ele>592.1</ele>
        <time>2019-08-04T06:38:32.000Z</time>
      </trkpt>
      <trkpt lat="43.37214" lon="2.21308">
        <ele>592.2</ele>
        <time>2019-08-04T06:38:33.000Z</time>
      </trkpt>
      <trkpt lat="43.37215" lon="2.21309">
        <ele>592.3</ele>
        <time>2019-08-04T06:38:34.000Z</time>
      </trkpt>
      <trkpt lat="43.37217" lon="2.21309">
        <ele>592.3</ele>
        <time>2019-08-04T06:38:35.000Z</time>
      </trkpt>
      <trkpt lat="43.37219" lon="2.2131">
        <ele>592.4</ele>
        <time>2019-08-04T06:38:36.000Z</time>
      </trkpt>
      <trkpt lat="43.3722" lon="2.2131">
        <ele>592.4</ele>
        <time>2019-08-04T06:38:37.000Z</time>
      </trkpt>
      <trkpt lat="43.37221" lon="2.21311">
        <ele>592.4</ele>
        <time>2019-08-04T06:38:38.000Z</time>
      </trkpt>
      <trkpt lat="43.37222" lon="2.21312">
        <ele>592.4</ele>
        <time>2019-08-04T06:38:39.000Z</time>
      </trkpt>
      <trkpt lat="43.37223" lon="2.21313">
        <ele>592.4</ele>
        <time>2019-08-04T06:38:40.000Z</time>
      </trkpt>
      <trkpt lat="43.37224" lon="2.21314">
        <ele>592.3</ele>
        <time>2019-08-04T06:38:41.000Z</time>
      </trkpt>
      <trkpt lat="43.37225" lon="2.21315">
        <ele>592.3</ele>
        <time>2019-08-04T06:38:42.000Z</time>
      </trkpt>
      <trkpt lat="43.37225" lon="2.21316">
        <ele>592.2</ele>
        <time>2019-08-04T06:38:43.000Z</time>
      </trkpt>
      <trkpt lat="43.37226" lon="2.21317">
        <ele>592.1</ele>
        <time>2019-08-04T06:38:44.000Z</time>
      </trkpt>
      <trkpt lat="43.37226" lon="2.21318">
        <ele>592</ele>
        <time>2019-08-04T06:38:45.000Z</time>
      </trkpt>
      <trkpt lat="43.37227" lon="2.21319">
        <ele>591.9</ele>
        <time>2019-08-04T06:38:46.000Z</time>
      </trkpt>
      <trkpt lat="43.37227" lon="2.2132">
        <ele>591.7</ele>
        <time>2019-08-04T06:38:47.000Z</time>
      </trkpt>
      <trkpt lat="43.37227" lon="2.21321">
        <ele>591.6</ele>
        <time>2019-08-04T06:38:48.000Z</time>
      </trkpt>
      <trkpt lat="43.37227" lon="2.21322">
        <ele>591.5</ele>
        <time>2019-08-04T06:38:49.000Z</time>
      </trkpt>
      <trkpt lat="43.37227" lon="2.21323">
        <ele>591.4</ele>
        <time>2019-08-04T06:38:50.000Z</time>
      </trkpt>
      <trkpt lat="43.37227" lon="2.21324">
        <ele>591.3</ele>
        <time>2019-08-04T06:38:51.000Z</time>
      </trkpt>
      <trkpt lat="43.37227" lon="2.21325">
        <ele>591.2</ele>
        <time>2019-08-04T06:38:52.000Z</time>
      </trkpt>
      <trkpt lat="43.37227" lon="2.21325">
        <ele>591.1</ele>
        <time>2019-08-04T06:38:53.000Z</time>
      </trkpt>
      <trkpt lat="43.37227" lon="2.21326">
        <ele>591</ele>
        <time>2019-08-04T06:38:54.000Z</time>
      </trkpt>
      <trkpt lat="43.37227" lon="2.21326">
        <ele>591</ele>
        <time>2019-08-04T06:38:55.000Z</time>
      </trkpt>
      <trkpt lat="43.37227" lon="2.21326">
        <ele>590.9</ele>
        <time>2019-08-04T06:38:56.000Z</time>
      </trkpt>
      <trkpt lat="43.37227" lon="2.21327">
        <ele>590.9</ele>
        <time>2019-08-04T06:38:57.000Z</time>
      </trkpt>
      <trkpt lat="43.37227" lon="2.21327">
        <ele>590.9</ele>
        <time>2019-08-04T06:38:58.000Z</time>
      </trkpt>
      <trkpt lat="43.37227" lon="2.21327">
        <ele>590.8</ele>
        <time>2019-08-04T06:38:59.000Z</time>
      </trkpt>
      <trkpt lat="43.37227" lon="2.21328">
        <ele>590.8</ele>
        <time>2019-08-04T06:39:00.000Z</time>
      </trkpt>
      <trkpt lat="43.37227" lon="2.21328">
        <ele>590.8</ele>
        <time>2019-08-04T06:39:01.000Z</time>
      </trkpt>
      <trkpt lat="43.37228" lon="2.21329">
        <ele>590.7</ele>
        <time>2019-08-04T06:39:02.000Z</time>
      </trkpt>
      <trkpt lat="43.37228" lon="2.21329">
        <ele>590.7</ele>
        <time>2019-08-04T06:39:03.000Z</time>
      </trkpt>
      <trkpt lat="43.37229" lon="2.2133">
        <ele>590.6</ele>
        <time>2019-08-04T06:39:04.000Z</time>
      </trkpt>
      <trkpt lat="43.37229" lon="2.21331">
        <ele>590.6</ele>
        <time>2019-08-04T06:39:05.000Z</time>
      </trkpt>
      <trkpt lat="43.3723" lon="2.21331">
        <ele>590.5</ele>
        <time>2019-08-04T06:39:06.000Z</time>
      </trkpt>
      <trkpt lat="43.3723" lon="2.21332">
        <ele>590.5</ele>
        <time>2019-08-04T06:39:07.000Z</time>
      </trkpt>
      <trkpt lat="43.3723" lon="2.21333">
        <ele>590.4</ele>
        <time>2019-08-04T06:39:08.000Z</time>
      </trkpt>
      <trkpt lat="43.3723" lon="2.21333">
        <ele>590.4</ele>
        <time>2019-08-04T06:39:09.000Z</time>
      </trkpt>
      <trkpt lat="43.3723" lon="2.21333">
        <ele>590.3</ele>
        <time>2019-08-04T06:39:10.000Z</time>
      </trkpt>
      <trkpt lat="43.3723" lon="2.21333">
        <ele>590.3</ele>
        <time>2019-08-04T06:39:11.000Z</time>
      </trkpt>
      <trkpt lat="43.3723" lon="2.21334">
        <ele>590.3</ele>
        <time>2019-08-04T06:39:12.000Z</time>
      </trkpt>
      <trkpt lat="43.3723" lon="2.21334">
        <ele>590.4</ele>
        <time>2019-08-04T06:39:13.000Z</time>
      </trkpt>
      <trkpt lat="43.3723" lon="2.21334">
        <ele>590.4</ele>
        <time>2019-08-04T06:39:14.000Z</time>
      </trkpt>
      <trkpt lat="43.3723" lon="2.21335">
        <ele>590.5</ele>
        <time>2019-08-04T06:39:15.000Z</time>
      </trkpt>
      <trkpt lat="43.37231" lon="2.21335">
        <ele>590.6</ele>
        <time>2019-08-04T06:39:16.000Z</time>
      </trkpt>
      <trkpt lat="43.37232" lon="2.21335">
        <ele>590.6</ele>
        <time>2019-08-04T06:39:17.000Z</time>
      </trkpt>
      <trkpt lat="43.37232" lon="2.21335">
        <ele>590.7</ele>
        <time>2019-08-04T06:39:18.000Z</time>
      </trkpt>
      <trkpt lat="43.37233" lon="2.21335">
        <ele>590.7</ele>
        <time>2019-08-04T06:39:19.000Z</time>
      </trkpt>
      <trkpt lat="43.37234" lon="2.21335">
        <ele>590.8</ele>
        <time>2019-08-04T06:39:20.000Z</time>
      </trkpt>
      <trkpt lat="43.37234" lon="2.21335">
        <ele>590.8</ele>
        <time>2019-08-04T06:39:21.000Z</time>
      </trkpt>
      <trkpt lat="43.37235" lon="2.21335">
        <ele>590.8</ele>
        <time>2019-08-04T06:39:22.000Z</time>
      </trkpt>
      <trkpt lat="43.37235" lon="2.21334">
        <ele>590.9</ele>
        <time>2019-08-04T06:39:23.000Z</time>
      </trkpt>
      <trkpt lat="43.37236" lon="2.21334">
        <ele>590.9</ele>
        <time>2019-08-04T06:39:24.000Z</time>
      </trkpt>
      <trkpt lat="43.37236" lon="2.21334">
        <ele>590.9</ele>
        <time>2019-08-04T06:39:25.000Z</time>
      </trkpt>
      <trkpt lat="43.37236" lon="2.21333">
        <ele>590.8</ele>
        <time>2019-08-04T06:39:26.000Z</time>
      </trkpt>
      <trkpt lat="43.37237" lon="2.21333">
        <ele>590.9</ele>
        <time>2019-08-04T06:39:27.000Z</time>
      </trkpt>
      <trkpt lat="43.37237" lon="2.21333">
        <ele>591</ele>
        <time>2019-08-04T06:39:28.000Z</time>
      </trkpt>
      <trkpt lat="43.37237" lon="2.21332">
        <ele>591.1</ele>
        <time>2019-08-04T06:39:29.000Z</time>
      </trkpt>
      <trkpt lat="43.37237" lon="2.21331">
        <ele>591.2</ele>
        <time>2019-08-04T06:39:30.000Z</time>
      </trkpt>
      <trkpt lat="43.37238" lon="2.2133">
        <ele>591.3</ele>
        <time>2019-08-04T06:39:31.000Z</time>
      </trkpt>
      <trkpt lat="43.37238" lon="2.2133">
        <ele>591.5</ele>
        <time>2019-08-04T06:39:32.000Z</time>
      </trkpt>
      <trkpt lat="43.37239" lon="2.21329">
        <ele>591.6</ele>
        <time>2019-08-04T06:39:33.000Z</time>
      </trkpt>
      <trkpt lat="43.37239" lon="2.21327">
        <ele>591.8</ele>
        <time>2019-08-04T06:39:34.000Z</time>
      </trkpt>
      <trkpt lat="43.3724" lon="2.21326">
        <ele>592</ele>
        <time>2019-08-04T06:39:35.000Z</time>
      </trkpt>
      <trkpt lat="43.37241" lon="2.21325">
        <ele>592.2</ele>
        <time>2019-08-04T06:39:36.000Z</time>
      </trkpt>
      <trkpt lat="43.37241" lon="2.21324">
        <ele>592.4</ele>
        <time>2019-08-04T06:39:37.000Z</time>
      </trkpt>
      <trkpt lat="43.37242" lon="2.21323">
        <ele>592.6</ele>
        <time>2019-08-04T06:39:38.000Z</time>
      </trkpt>
      <trkpt lat="43.37243" lon="2.21322">
        <ele>592.8</ele>
        <time>2019-08-04T06:39:39.000Z</time>
      </trkpt>
      <trkpt lat="43.37244" lon="2.21322">
        <ele>592.9</ele>
        <time>2019-08-04T06:39:40.000Z</time>
      </trkpt>
      <trkpt lat="43.37244" lon="2.21321">
        <ele>593</ele>
        <time>2019-08-04T06:39:41.000Z</time>
      </trkpt>
      <trkpt lat="43.37245" lon="2.21321">
        <ele>593.1</ele>
        <time>2019-08-04T06:39:42.000Z</time>
      </trkpt>
      <trkpt lat="43.37246" lon="2.2132">
        <ele>593.2</ele>
        <time>2019-08-04T06:39:43.000Z</time>
      </trkpt>
      <trkpt lat="43.37246" lon="2.2132">
        <ele>593.3</ele>
        <time>2019-08-04T06:39:44.000Z</time>
      </trkpt>
      <trkpt lat="43.37247" lon="2.2132">
        <ele>593.4</ele>
        <time>2019-08-04T06:39:45.000Z</time>
      </trkpt>
      <trkpt lat="43.37247" lon="2.2132">
        <ele>593.4</ele>
        <time>2019-08-04T06:39:46.000Z</time>
      </trkpt>
      <trkpt lat="43.37248" lon="2.2132">
        <ele>593.5</ele>
        <time>2019-08-04T06:39:47.000Z</time>
      </trkpt>
      <trkpt lat="43.37248" lon="2.21319">
        <ele>593.5</ele>
        <time>2019-08-04T06:39:48.000Z</time>
      </trkpt>
      <trkpt lat="43.37248" lon="2.21319">
        <ele>593.5</ele>
        <time>2019-08-04T06:39:49.000Z</time>
      </trkpt>
      <trkpt lat="43.37249" lon="2.21319">
        <ele>593.6</ele>
        <time>2019-08-04T06:39:50.000Z</time>
      </trkpt>
      <trkpt lat="43.37249" lon="2.21319">
        <ele>593.6</ele>
        <time>2019-08-04T06:39:51.000Z</time>
      </trkpt>
      <trkpt lat="43.37249" lon="2.21319">
        <ele>593.6</ele>
        <time>2019-08-04T06:39:52.000Z</time>
      </trkpt>
      <trkpt lat="43.37249" lon="2.21319">
        <ele>593.6</ele>
        <time>2019-08-04T06:39:53.000Z</time>
      </trkpt>
      <trkpt lat="43.37249" lon="2.21319">
        <ele>593.6</ele>
        <time>2019-08-04T06:39:54.000Z</time>
      </trkpt>
      <trkpt lat="43.37249" lon="2.21319">
        <ele>593.6</ele>
        <time>2019-08-04T06:39:55.000Z</time>
      </trkpt>
      <trkpt lat="43.37249" lon="2.21319">
        <ele>593.6</ele>
        <time>2019-08-04T06:39:56.000Z</time>
      </trkpt>
      <trkpt lat="43.37249" lon="2.21319">
        <ele>593.6</ele>
        <time>2019-08-04T06:39:57.000Z</time>
      </trkpt>
      <trkpt lat="43.37249" lon="2.21319">
        <ele>593.6</ele>
        <time>2019-08-04T06:39:58.000Z</time>
      </trkpt>
      <trkpt lat="43.37249" lon="2.21319">
        <ele>593.6</ele>
        <time>2019-08-04T06:39:59.000Z</time>
      </trkpt>
      <trkpt lat="43.37249" lon="2.21319">
        <ele>593.6</ele>
        <time>2019-08-04T06:40:00.000Z</time>
      </trkpt>
      <trkpt lat="43.37249" lon="2.21319">
        <ele>593.6</ele>
        <time>2019-08-04T06:40:01.000Z</time>
      </trkpt>
      <trkpt lat="43.37248" lon="2.21319">
        <ele>593.5</ele>
        <time>2019-08-04T06:40:02.000Z</time>
      </trkpt>
      <trkpt lat="43.37248" lon="2.2132">
        <ele>593.4</ele>
        <time>2019-08-04T06:40:03.000Z</time>
      </trkpt>
      <trkpt lat="43.37248" lon="2.2132">
        <ele>593.4</ele>
        <time>2019-08-04T06:40:04.000Z</time>
      </trkpt>
      <trkpt lat="43.37247" lon="2.21321">
        <ele>593.3</ele>
        <time>2019-08-04T06:40:05.000Z</time>
      </trkpt>
      <trkpt lat="43.37247" lon="2.21321">
        <ele>593.3</ele>
        <time>2019-08-04T06:40:06.000Z</time>
      </trkpt>
      <trkpt lat="43.37246" lon="2.21321">
        <ele>593.2</ele>
        <time>2019-08-04T06:40:07.000Z</time>
      </trkpt>
      <trkpt lat="43.37246" lon="2.21321">
        <ele>593.2</ele>
        <time>2019-08-04T06:40:08.000Z</time>
      </trkpt>
      <trkpt lat="43.37246" lon="2.21321">
        <ele>593.2</ele>
        <time>2019-08-04T06:40:09.000Z</time>
      </trkpt>
      <trkpt lat="43.37245" lon="2.21321">
        <ele>593.2</ele>
        <time>2019-08-04T06:40:10.000Z</time>
      </trkpt>
      <trkpt lat="43.37246" lon="2.2132">
        <ele>593.2</ele>
        <time>2019-08-04T06:40:11.000Z</time>
      </trkpt>
      <trkpt lat="43.37246" lon="2.21319">
        <ele>593.4</ele>
        <time>2019-08-04T06:40:12.000Z</time>
      </trkpt>
      <trkpt lat="43.37246" lon="2.21318">
        <ele>593.5</ele>
        <time>2019-08-04T06:40:13.000Z</time>
      </trkpt>
      <trkpt lat="43.37247" lon="2.21317">
        <ele>593.7</ele>
        <time>2019-08-04T06:40:14.000Z</time>
      </trkpt>
      <trkpt lat="43.37248" lon="2.21316">
        <ele>593.9</ele>
        <time>2019-08-04T06:40:15.000Z</time>
      </trkpt>
      <trkpt lat="43.37248" lon="2.21315">
        <ele>594</ele>
        <time>2019-08-04T06:40:16.000Z</time>
      </trkpt>
      <trkpt lat="43.37248" lon="2.21315">
        <ele>594.1</ele>
        <time>2019-08-04T06:40:17.000Z</time>
      </trkpt>
      <trkpt lat="43.37249" lon="2.21314">
        <ele>594.2</ele>
        <time>2019-08-04T06:40:18.000Z</time>
      </trkpt>
      <trkpt lat="43.37249" lon="2.21314">
        <ele>594.2</ele>
        <time>2019-08-04T06:40:19.000Z</time>
      </trkpt>
      <trkpt lat="43.37249" lon="2.21314">
        <ele>594.3</ele>
        <time>2019-08-04T06:40:20.000Z</time>
      </trkpt>
      <trkpt lat="43.37249" lon="2.21314">
        <ele>594.3</ele>
        <time>2019-08-04T06:40:21.000Z</time>
      </trkpt>
      <trkpt lat="43.37249" lon="2.21314">
        <ele>594.3</ele>
        <time>2019-08-04T06:40:22.000Z</time>
      </trkpt>
      <trkpt lat="43.37249" lon="2.21314">
        <ele>594.3</ele>
        <time>2019-08-04T06:40:23.000Z</time>
      </trkpt>
      <trkpt lat="43.37249" lon="2.21314">
        <ele>594.3</ele>
        <time>2019-08-04T06:40:24.000Z</time>
      </trkpt>
      <trkpt lat="43.37249" lon="2.21314">
        <ele>594.3</ele>
        <time>2019-08-04T06:40:25.000Z</time>
      </trkpt>
      <trkpt lat="43.37249" lon="2.21314">
        <ele>594.3</ele>
        <time>2019-08-04T06:40:26.000Z</time>
      </trkpt>
      <trkpt lat="43.37249" lon="2.21314">
        <ele>594.3</ele>
        <time>2019-08-04T06:40:27.000Z</time>
      </trkpt>
      <trkpt lat="43.37249" lon="2.21314">
        <ele>594.3</ele>
        <time>2019-08-04T06:40:28.000Z</time>
      </trkpt>
      <trkpt lat="43.37249" lon="2.21314">
        <ele>594.3</ele>
        <time>2019-08-04T06:40:29.000Z</time>
      </trkpt>
      <trkpt lat="43.37249" lon="2.21314">
        <ele>594.3</ele>
        <time>2019-08-04T06:40:30.000Z</time>
      </trkpt>
      <trkpt lat="43.37249" lon="2.21314">
        <ele>594.3</ele>
        <time>2019-08-04T06:40:31.000Z</time>
      </trkpt>
      <trkpt lat="43.37249" lon="2.21314">
        <ele>594.3</ele>
        <time>2019-08-04T06:40:32.000Z</time>
      </trkpt>
      <trkpt lat="43.37249" lon="2.21314">
        <ele>594.3</ele>
        <time>2019-08-04T06:40:33.000Z</time>
      </trkpt>
      <trkpt lat="43.37249" lon="2.21314">
        <ele>594.3</ele>
        <time>2019-08-04T06:40:34.000Z</time>
      </trkpt>
      <trkpt lat="43.37249" lon="2.21314">
        <ele>594.3</ele>
        <time>2019-08-04T06:40:35.000Z</time>
      </trkpt>
      <trkpt lat="43.37249" lon="2.21314">
        <ele>594.3</ele>
        <time>2019-08-04T06:40:36.000Z</time>
      </trkpt>
      <trkpt lat="43.37249" lon="2.21314">
        <ele>594.3</ele>
        <time>2019-08-04T06:40:37.000Z</time>
      </trkpt>
      <trkpt lat="43.37249" lon="2.21314">
        <ele>594.3</ele>
        <time>2019-08-04T06:40:38.000Z</time>
      </trkpt>
      <trkpt lat="43.37249" lon="2.21314">
        <ele>594.3</ele>
        <time>2019-08-04T06:40:39.000Z</time>
      </trkpt>
      <trkpt lat="43.37249" lon="2.21314">
        <ele>594.3</ele>
        <time>2019-08-04T06:40:40.000Z</time>
      </trkpt>
      <trkpt lat="43.37249" lon="2.21314">
        <ele>594.3</ele>
        <time>2019-08-04T06:40:41.000Z</time>
      </trkpt>
      <trkpt lat="43.37249" lon="2.21314">
        <ele>594.3</ele>
        <time>2019-08-04T06:40:42.000Z</time>
      </trkpt>
      <trkpt lat="43.37249" lon="2.21314">
        <ele>594.3</ele>
        <time>2019-08-04T06:40:43.000Z</time>
      </trkpt>
      <trkpt lat="43.37249" lon="2.21314">
        <ele>594.3</ele>
        <time>2019-08-04T06:40:44.000Z</time>
      </trkpt>
      <trkpt lat="43.37249" lon="2.21314">
        <ele>594.3</ele>
        <time>2019-08-04T06:40:45.000Z</time>
      </trkpt>
      <trkpt lat="43.3725" lon="2.21314">
        <ele>594.3</ele>
        <time>2019-08-04T06:40:46.000Z</time>
      </trkpt>
      <trkpt lat="43.37252" lon="2.21315">
        <ele>594.3</ele>
        <time>2019-08-04T06:40:47.000Z</time>
      </trkpt>
      <trkpt lat="43.37253" lon="2.21315">
        <ele>594.3</ele>
        <time>2019-08-04T06:40:48.000Z</time>
      </trkpt>
      <trkpt lat="43.37253" lon="2.21316">
        <ele>594.2</ele>
        <time>2019-08-04T06:40:49.000Z</time>
      </trkpt>
      <trkpt lat="43.37254" lon="2.21317">
        <ele>594.2</ele>
        <time>2019-08-04T06:40:50.000Z</time>
      </trkpt>
      <trkpt lat="43.37254" lon="2.21317">
        <ele>594.1</ele>
        <time>2019-08-04T06:40:51.000Z</time>
      </trkpt>
      <trkpt lat="43.37255" lon="2.21318">
        <ele>594.1</ele>
        <time>2019-08-04T06:40:52.000Z</time>
      </trkpt>
      <trkpt lat="43.37255" lon="2.21318">
        <ele>594.1</ele>
        <time>2019-08-04T06:40:53.000Z</time>
      </trkpt>
      <trkpt lat="43.37256" lon="2.21319">
        <ele>594.1</ele>
        <time>2019-08-04T06:40:54.000Z</time>
      </trkpt>
      <trkpt lat="43.37256" lon="2.21319">
        <ele>594.1</ele>
        <time>2019-08-04T06:40:55.000Z</time>
      </trkpt>
      <trkpt lat="43.37257" lon="2.21319">
        <ele>594.1</ele>
        <time>2019-08-04T06:40:56.000Z</time>
      </trkpt>
      <trkpt lat="43.37257" lon="2.21319">
        <ele>594.2</ele>
        <time>2019-08-04T06:40:57.000Z</time>
      </trkpt>
      <trkpt lat="43.37258" lon="2.21318">
        <ele>594.3</ele>
        <time>2019-08-04T06:40:58.000Z</time>
      </trkpt>
      <trkpt lat="43.37259" lon="2.21317">
        <ele>594.4</ele>
        <time>2019-08-04T06:40:59.000Z</time>
      </trkpt>
      <trkpt lat="43.37259" lon="2.21316">
        <ele>594.6</ele>
        <time>2019-08-04T06:41:00.000Z</time>
      </trkpt>
      <trkpt lat="43.3726" lon="2.21314">
        <ele>594.8</ele>
        <time>2019-08-04T06:41:01.000Z</time>
      </trkpt>
      <trkpt lat="43.37261" lon="2.21313">
        <ele>595</ele>
        <time>2019-08-04T06:41:02.000Z</time>
      </trkpt>
      <trkpt lat="43.37262" lon="2.21311">
        <ele>595.2</ele>
        <time>2019-08-04T06:41:03.000Z</time>
      </trkpt>
      <trkpt lat="43.37263" lon="2.2131">
        <ele>595.3</ele>
        <time>2019-08-04T06:41:04.000Z</time>
      </trkpt>
      <trkpt lat="43.37264" lon="2.2131">
        <ele>595.4</ele>
        <time>2019-08-04T06:41:05.000Z</time>
      </trkpt>
      <trkpt lat="43.37265" lon="2.21309">
        <ele>595.6</ele>
        <time>2019-08-04T06:41:06.000Z</time>
      </trkpt>
      <trkpt lat="43.37266" lon="2.21308">
        <ele>595.7</ele>
        <time>2019-08-04T06:41:07.000Z</time>
      </trkpt>
      <trkpt lat="43.37267" lon="2.21307">
        <ele>595.8</ele>
        <time>2019-08-04T06:41:08.000Z</time>
      </trkpt>
      <trkpt lat="43.37268" lon="2.21307">
        <ele>595.9</ele>
        <time>2019-08-04T06:41:09.000Z</time>
      </trkpt>
      <trkpt lat="43.37269" lon="2.21306">
        <ele>596</ele>
        <time>2019-08-04T06:41:10.000Z</time>
      </trkpt>
      <trkpt lat="43.3727" lon="2.21305">
        <ele>596.1</ele>
        <time>2019-08-04T06:41:11.000Z</time>
      </trkpt>
      <trkpt lat="43.37271" lon="2.21304">
        <ele>596.2</ele>
        <time>2019-08-04T06:41:12.000Z</time>
      </trkpt>
      <trkpt lat="43.37272" lon="2.21303">
        <ele>596.3</ele>
        <time>2019-08-04T06:41:13.000Z</time>
      </trkpt>
      <trkpt lat="43.37273" lon="2.21302">
        <ele>596.4</ele>
        <time>2019-08-04T06:41:14.000Z</time>
      </trkpt>
      <trkpt lat="43.37274" lon="2.21301">
        <ele>596.5</ele>
        <time>2019-08-04T06:41:15.000Z</time>
      </trkpt>
      <trkpt lat="43.37274" lon="2.21301">
        <ele>596.6</ele>
        <time>2019-08-04T06:41:16.000Z</time>
      </trkpt>
      <trkpt lat="43.37275" lon="2.213">
        <ele>596.7</ele>
        <time>2019-08-04T06:41:17.000Z</time>
      </trkpt>
      <trkpt lat="43.37276" lon="2.21299">
        <ele>596.8</ele>
        <time>2019-08-04T06:41:18.000Z</time>
      </trkpt>
      <trkpt lat="43.37277" lon="2.21298">
        <ele>596.8</ele>
        <time>2019-08-04T06:41:19.000Z</time>
      </trkpt>
      <trkpt lat="43.37277" lon="2.21298">
        <ele>596.9</ele>
        <time>2019-08-04T06:41:20.000Z</time>
      </trkpt>
      <trkpt lat="43.37278" lon="2.21297">
        <ele>597</ele>
        <time>2019-08-04T06:41:21.000Z</time>
      </trkpt>
      <trkpt lat="43.3728" lon="2.21297">
        <ele>597</ele>
        <time>2019-08-04T06:41:22.000Z</time>
      </trkpt>
      <trkpt lat="43.37281" lon="2.21296">
        <ele>597.1</ele>
        <time>2019-08-04T06:41:23.000Z</time>
      </trkpt>
      <trkpt lat="43.37282" lon="2.21296">
        <ele>597.1</ele>
        <time>2019-08-04T06:41:24.000Z</time>
      </trkpt>
      <trkpt lat="43.37283" lon="2.21295">
        <ele>597.2</ele>
        <time>2019-08-04T06:41:25.000Z</time>
      </trkpt>
      <trkpt lat="43.37285" lon="2.21295">
        <ele>597.2</ele>
        <time>2019-08-04T06:41:26.000Z</time>
      </trkpt>
      <trkpt lat="43.37286" lon="2.21295">
        <ele>597.3</ele>
        <time>2019-08-04T06:41:27.000Z</time>
      </trkpt>
      <trkpt lat="43.37288" lon="2.21294">
        <ele>597.3</ele>
        <time>2019-08-04T06:41:28.000Z</time>
      </trkpt>
      <trkpt lat="43.37289" lon="2.21294">
        <ele>597.3</ele>
        <time>2019-08-04T06:41:29.000Z</time>
      </trkpt>
      <trkpt lat="43.37291" lon="2.21294">
        <ele>597.4</ele>
        <time>2019-08-04T06:41:30.000Z</time>
      </trkpt>
      <trkpt lat="43.37292" lon="2.21294">
        <ele>597.4</ele>
        <time>2019-08-04T06:41:31.000Z</time>
      </trkpt>
      <trkpt lat="43.37293" lon="2.21293">
        <ele>597.4</ele>
        <time>2019-08-04T06:41:32.000Z</time>
      </trkpt>
      <trkpt lat="43.37294" lon="2.21293">
        <ele>597.5</ele>
        <time>2019-08-04T06:41:33.000Z</time>
      </trkpt>
      <trkpt lat="43.37296" lon="2.21293">
        <ele>597.5</ele>
        <time>2019-08-04T06:41:34.000Z</time>
      </trkpt>
      <trkpt lat="43.37297" lon="2.21293">
        <ele>597.5</ele>
        <time>2019-08-04T06:41:35.000Z</time>
      </trkpt>
      <trkpt lat="43.37298" lon="2.21293">
        <ele>597.5</ele>
        <time>2019-08-04T06:41:36.000Z</time>
      </trkpt>
      <trkpt lat="43.37299" lon="2.21293">
        <ele>597.5</ele>
        <time>2019-08-04T06:41:37.000Z</time>
      </trkpt>
      <trkpt lat="43.373" lon="2.21293">
        <ele>597.6</ele>
        <time>2019-08-04T06:41:38.000Z</time>
      </trkpt>
      <trkpt lat="43.37301" lon="2.21293">
        <ele>597.6</ele>
        <time>2019-08-04T06:41:39.000Z</time>
      </trkpt>
      <trkpt lat="43.37301" lon="2.21293">
        <ele>597.6</ele>
        <time>2019-08-04T06:41:40.000Z</time>
      </trkpt>
      <trkpt lat="43.37302" lon="2.21293">
        <ele>597.6</ele>
        <time>2019-08-04T06:41:41.000Z</time>
      </trkpt>
      <trkpt lat="43.37303" lon="2.21293">
        <ele>597.6</ele>
        <time>2019-08-04T06:41:42.000Z</time>
      </trkpt>
      <trkpt lat="43.37303" lon="2.21293">
        <ele>597.6</ele>
        <time>2019-08-04T06:41:43.000Z</time>
      </trkpt>
      <trkpt lat="43.37304" lon="2.21293">
        <ele>597.6</ele>
        <time>2019-08-04T06:41:44.000Z</time>
      </trkpt>
      <trkpt lat="43.37304" lon="2.21293">
        <ele>597.6</ele>
        <time>2019-08-04T06:41:45.000Z</time>
      </trkpt>
      <trkpt lat="43.37304" lon="2.21293">
        <ele>597.6</ele>
        <time>2019-08-04T06:41:46.000Z</time>
      </trkpt>
      <trkpt lat="43.37304" lon="2.21294">
        <ele>597.6</ele>
        <time>2019-08-04T06:41:47.000Z</time>
      </trkpt>
      <trkpt lat="43.37305" lon="2.21294">
        <ele>597.6</ele>
        <time>2019-08-04T06:41:48.000Z</time>
      </trkpt>
      <trkpt lat="43.37305" lon="2.21294">
        <ele>597.6</ele>
        <time>2019-08-04T06:41:49.000Z</time>
      </trkpt>
      <trkpt lat="43.37306" lon="2.21294">
        <ele>597.6</ele>
        <time>2019-08-04T06:41:50.000Z</time>
      </trkpt>
      <trkpt lat="43.37307" lon="2.21295">
        <ele>597.6</ele>
        <time>2019-08-04T06:41:51.000Z</time>
      </trkpt>
      <trkpt lat="43.37307" lon="2.21295">
        <ele>597.6</ele>
        <time>2019-08-04T06:41:52.000Z</time>
      </trkpt>
      <trkpt lat="43.37308" lon="2.21295">
        <ele>597.6</ele>
        <time>2019-08-04T06:41:53.000Z</time>
      </trkpt>
      <trkpt lat="43.37309" lon="2.21296">
        <ele>597.6</ele>
        <time>2019-08-04T06:41:54.000Z</time>
      </trkpt>
      <trkpt lat="43.37309" lon="2.21296">
        <ele>597.6</ele>
        <time>2019-08-04T06:41:55.000Z</time>
      </trkpt>
      <trkpt lat="43.3731" lon="2.21297">
        <ele>597.6</ele>
        <time>2019-08-04T06:41:56.000Z</time>
      </trkpt>
      <trkpt lat="43.3731" lon="2.21298">
        <ele>597.6</ele>
        <time>2019-08-04T06:41:57.000Z</time>
      </trkpt>
      <trkpt lat="43.37311" lon="2.21299">
        <ele>597.6</ele>
        <time>2019-08-04T06:41:58.000Z</time>
      </trkpt>
      <trkpt lat="43.37311" lon="2.213">
        <ele>597.6</ele>
        <time>2019-08-04T06:41:59.000Z</time>
      </trkpt>
      <trkpt lat="43.37312" lon="2.21301">
        <ele>597.6</ele>
        <time>2019-08-04T06:42:00.000Z</time>
      </trkpt>
      <trkpt lat="43.37312" lon="2.21301">
        <ele>597.6</ele>
        <time>2019-08-04T06:42:01.000Z</time>
      </trkpt>
      <trkpt lat="43.37312" lon="2.21302">
        <ele>597.6</ele>
        <time>2019-08-04T06:42:02.000Z</time>
      </trkpt>
      <trkpt lat="43.37313" lon="2.21302">
        <ele>597.6</ele>
        <time>2019-08-04T06:42:03.000Z</time>
      </trkpt>
      <trkpt lat="43.37313" lon="2.21303">
        <ele>597.6</ele>
        <time>2019-08-04T06:42:04.000Z</time>
      </trkpt>
      <trkpt lat="43.37313" lon="2.21304">
        <ele>597.6</ele>
        <time>2019-08-04T06:42:05.000Z</time>
      </trkpt>
      <trkpt lat="43.37313" lon="2.21305">
        <ele>597.6</ele>
        <time>2019-08-04T06:42:06.000Z</time>
      </trkpt>
      <trkpt lat="43.37314" lon="2.21306">
        <ele>597.6</ele>
        <time>2019-08-04T06:42:07.000Z</time>
      </trkpt>
      <trkpt lat="43.37314" lon="2.21307">
        <ele>597.6</ele>
        <time>2019-08-04T06:42:08.000Z</time>
      </trkpt>
      <trkpt lat="43.37315" lon="2.21308">
        <ele>597.6</ele>
        <time>2019-08-04T06:42:09.000Z</time>
      </trkpt>
      <trkpt lat="43.37315" lon="2.2131">
        <ele>597.6</ele>
        <time>2019-08-04T06:42:10.000Z</time>
      </trkpt>
      <trkpt lat="43.37315" lon="2.21312">
        <ele>597.6</ele>
        <time>2019-08-04T06:42:11.000Z</time>
      </trkpt>
      <trkpt lat="43.37316" lon="2.21313">
        <ele>597.6</ele>
        <time>2019-08-04T06:42:12.000Z</time>
      </trkpt>
      <trkpt lat="43.37316" lon="2.21315">
        <ele>597.6</ele>
        <time>2019-08-04T06:42:13.000Z</time>
      </trkpt>
      <trkpt lat="43.37316" lon="2.21316">
        <ele>597.6</ele>
        <time>2019-08-04T06:42:14.000Z</time>
      </trkpt>
      <trkpt lat="43.37316" lon="2.21318">
        <ele>597.6</ele>
        <time>2019-08-04T06:42:15.000Z</time>
      </trkpt>
      <trkpt lat="43.37316" lon="2.21319">
        <ele>597.6</ele>
        <time>2019-08-04T06:42:16.000Z</time>
      </trkpt>
      <trkpt lat="43.37316" lon="2.2132">
        <ele>597.6</ele>
        <time>2019-08-04T06:42:17.000Z</time>
      </trkpt>
      <trkpt lat="43.37316" lon="2.21322">
        <ele>597.6</ele>
        <time>2019-08-04T06:42:18.000Z</time>
      </trkpt>
      <trkpt lat="43.37316" lon="2.21323">
        <ele>597.6</ele>
        <time>2019-08-04T06:42:19.000Z</time>
      </trkpt>
      <trkpt lat="43.37316" lon="2.21324">
        <ele>597.6</ele>
        <time>2019-08-04T06:42:20.000Z</time>
      </trkpt>
      <trkpt lat="43.37316" lon="2.21325">
        <ele>597.6</ele>
        <time>2019-08-04T06:42:21.000Z</time>
      </trkpt>
      <trkpt lat="43.37316" lon="2.21326">
        <ele>597.6</ele>
        <time>2019-08-04T06:42:22.000Z</time>
      </trkpt>
      <trkpt lat="43.37317" lon="2.21327">
        <ele>597.6</ele>
        <time>2019-08-04T06:42:23.000Z</time>
      </trkpt>
      <trkpt lat="43.37317" lon="2.21328">
        <ele>597.7</ele>
        <time>2019-08-04T06:42:24.000Z</time>
      </trkpt>
      <trkpt lat="43.37318" lon="2.21329">
        <ele>597.7</ele>
        <time>2019-08-04T06:42:25.000Z</time>
      </trkpt>
      <trkpt lat="43.37318" lon="2.2133">
        <ele>597.8</ele>
        <time>2019-08-04T06:42:26.000Z</time>
      </trkpt>
      <trkpt lat="43.37319" lon="2.21331">
        <ele>597.8</ele>
        <time>2019-08-04T06:42:27.000Z</time>
      </trkpt>
      <trkpt lat="43.3732" lon="2.21332">
        <ele>597.8</ele>
        <time>2019-08-04T06:42:28.000Z</time>
      </trkpt>
      <trkpt lat="43.3732" lon="2.21333">
        <ele>597.9</ele>
        <time>2019-08-04T06:42:29.000Z</time>
      </trkpt>
      <trkpt lat="43.37321" lon="2.21334">
        <ele>598.1</ele>
        <time>2019-08-04T06:42:30.000Z</time>
      </trkpt>
      <trkpt lat="43.37321" lon="2.21335">
        <ele>598.2</ele>
        <time>2019-08-04T06:42:31.000Z</time>
      </trkpt>
      <trkpt lat="43.37321" lon="2.21336">
        <ele>598.4</ele>
        <time>2019-08-04T06:42:32.000Z</time>
      </trkpt>
      <trkpt lat="43.37322" lon="2.21337">
        <ele>598.5</ele>
        <time>2019-08-04T06:42:33.000Z</time>
      </trkpt>
      <trkpt lat="43.37322" lon="2.21338">
        <ele>598.7</ele>
        <time>2019-08-04T06:42:34.000Z</time>
      </trkpt>
      <trkpt lat="43.37322" lon="2.21339">
        <ele>598.8</ele>
        <time>2019-08-04T06:42:35.000Z</time>
      </trkpt>
      <trkpt lat="43.37323" lon="2.21339">
        <ele>598.9</ele>
        <time>2019-08-04T06:42:36.000Z</time>
      </trkpt>
      <trkpt lat="43.37323" lon="2.2134">
        <ele>599.1</ele>
        <time>2019-08-04T06:42:37.000Z</time>
      </trkpt>
      <trkpt lat="43.37323" lon="2.21341">
        <ele>599.2</ele>
        <time>2019-08-04T06:42:38.000Z</time>
      </trkpt>
      <trkpt lat="43.37324" lon="2.21342">
        <ele>599.3</ele>
        <time>2019-08-04T06:42:39.000Z</time>
      </trkpt>
      <trkpt lat="43.37324" lon="2.21342">
        <ele>599.4</ele>
        <time>2019-08-04T06:42:40.000Z</time>
      </trkpt>
      <trkpt lat="43.37324" lon="2.21343">
        <ele>599.5</ele>
        <time>2019-08-04T06:42:41.000Z</time>
      </trkpt>
      <trkpt lat="43.37325" lon="2.21343">
        <ele>599.7</ele>
        <time>2019-08-04T06:42:42.000Z</time>
      </trkpt>
      <trkpt lat="43.37325" lon="2.21343">
        <ele>599.7</ele>
        <time>2019-08-04T06:42:43.000Z</time>
      </trkpt>
      <trkpt lat="43.37326" lon="2.21343">
        <ele>599.8</ele>
        <time>2019-08-04T06:42:44.000Z</time>
      </trkpt>
      <trkpt lat="43.37327" lon="2.21343">
        <ele>599.8</ele>
        <time>2019-08-04T06:42:45.000Z</time>
      </trkpt>
      <trkpt lat="43.37328" lon="2.21343">
        <ele>599.9</ele>
        <time>2019-08-04T06:42:46.000Z</time>
      </trkpt>
      <trkpt lat="43.37329" lon="2.21342">
        <ele>599.9</ele>
        <time>2019-08-04T06:42:47.000Z</time>
      </trkpt>
      <trkpt lat="43.3733" lon="2.21341">
        <ele>599.9</ele>
        <time>2019-08-04T06:42:48.000Z</time>
      </trkpt>
      <trkpt lat="43.37331" lon="2.2134">
        <ele>599.8</ele>
        <time>2019-08-04T06:42:49.000Z</time>
      </trkpt>
      <trkpt lat="43.37333" lon="2.21339">
        <ele>599.8</ele>
        <time>2019-08-04T06:42:50.000Z</time>
      </trkpt>
      <trkpt lat="43.37334" lon="2.21338">
        <ele>599.7</ele>
        <time>2019-08-04T06:42:51.000Z</time>
      </trkpt>
      <trkpt lat="43.37335" lon="2.21336">
        <ele>599.6</ele>
        <time>2019-08-04T06:42:52.000Z</time>
      </trkpt>
      <trkpt lat="43.37336" lon="2.21335">
        <ele>599.4</ele>
        <time>2019-08-04T06:42:53.000Z</time>
      </trkpt>
      <trkpt lat="43.37338" lon="2.21333">
        <ele>599.3</ele>
        <time>2019-08-04T06:42:54.000Z</time>
      </trkpt>
      <trkpt lat="43.37339" lon="2.21331">
        <ele>599.4</ele>
        <time>2019-08-04T06:42:55.000Z</time>
      </trkpt>
      <trkpt lat="43.37341" lon="2.21329">
        <ele>599.4</ele>
        <time>2019-08-04T06:42:56.000Z</time>
      </trkpt>
      <trkpt lat="43.37343" lon="2.21327">
        <ele>599.5</ele>
        <time>2019-08-04T06:42:57.000Z</time>
      </trkpt>
      <trkpt lat="43.37345" lon="2.21325">
        <ele>599.5</ele>
        <time>2019-08-04T06:42:58.000Z</time>
      </trkpt>
      <trkpt lat="43.37347" lon="2.21322">
        <ele>599.6</ele>
        <time>2019-08-04T06:42:59.000Z</time>
      </trkpt>
      <trkpt lat="43.37349" lon="2.2132">
        <ele>599.6</ele>
        <time>2019-08-04T06:43:00.000Z</time>
      </trkpt>
      <trkpt lat="43.37351" lon="2.21317">
        <ele>599.7</ele>
        <time>2019-08-04T06:43:01.000Z</time>
      </trkpt>
      <trkpt lat="43.37353" lon="2.21315">
        <ele>599.7</ele>
        <time>2019-08-04T06:43:02.000Z</time>
      </trkpt>
      <trkpt lat="43.37356" lon="2.21313">
        <ele>599.8</ele>
        <time>2019-08-04T06:43:03.000Z</time>
      </trkpt>
      <trkpt lat="43.37358" lon="2.2131">
        <ele>599.8</ele>
        <time>2019-08-04T06:43:04.000Z</time>
      </trkpt>
      <trkpt lat="43.3736" lon="2.21308">
        <ele>599.8</ele>
        <time>2019-08-04T06:43:05.000Z</time>
      </trkpt>
      <trkpt lat="43.37362" lon="2.21306">
        <ele>599.8</ele>
        <time>2019-08-04T06:43:06.000Z</time>
      </trkpt>
      <trkpt lat="43.37364" lon="2.21304">
        <ele>599.9</ele>
        <time>2019-08-04T06:43:07.000Z</time>
      </trkpt>
      <trkpt lat="43.37366" lon="2.21302">
        <ele>599.9</ele>
        <time>2019-08-04T06:43:08.000Z</time>
      </trkpt>
      <trkpt lat="43.37368" lon="2.213">
        <ele>599.9</ele>
        <time>2019-08-04T06:43:09.000Z</time>
      </trkpt>
      <trkpt lat="43.3737" lon="2.21298">
        <ele>599.8</ele>
        <time>2019-08-04T06:43:10.000Z</time>
      </trkpt>
      <trkpt lat="43.37372" lon="2.21296">
        <ele>599.8</ele>
        <time>2019-08-04T06:43:11.000Z</time>
      </trkpt>
      <trkpt lat="43.37373" lon="2.21294">
        <ele>599.8</ele>
        <time>2019-08-04T06:43:12.000Z</time>
      </trkpt>
      <trkpt lat="43.37375" lon="2.21292">
        <ele>599.8</ele>
        <time>2019-08-04T06:43:13.000Z</time>
      </trkpt>
      <trkpt lat="43.37377" lon="2.2129">
        <ele>599.8</ele>
        <time>2019-08-04T06:43:14.000Z</time>
      </trkpt>
      <trkpt lat="43.3738" lon="2.21288">
        <ele>599.7</ele>
        <time>2019-08-04T06:43:15.000Z</time>
      </trkpt>
      <trkpt lat="43.37382" lon="2.21285">
        <ele>599.6</ele>
        <time>2019-08-04T06:43:16.000Z</time>
      </trkpt>
      <trkpt lat="43.37384" lon="2.21283">
        <ele>599.6</ele>
        <time>2019-08-04T06:43:17.000Z</time>
      </trkpt>
      <trkpt lat="43.37386" lon="2.2128">
        <ele>599.5</ele>
        <time>2019-08-04T06:43:18.000Z</time>
      </trkpt>
      <trkpt lat="43.37389" lon="2.21278">
        <ele>599.4</ele>
        <time>2019-08-04T06:43:19.000Z</time>
      </trkpt>
      <trkpt lat="43.37391" lon="2.21276">
        <ele>599.4</ele>
        <time>2019-08-04T06:43:20.000Z</time>
      </trkpt>
      <trkpt lat="43.37393" lon="2.21273">
        <ele>599.3</ele>
        <time>2019-08-04T06:43:21.000Z</time>
      </trkpt>
      <trkpt lat="43.37395" lon="2.21271">
        <ele>599.2</ele>
        <time>2019-08-04T06:43:22.000Z</time>
      </trkpt>
      <trkpt lat="43.37397" lon="2.21269">
        <ele>599.1</ele>
        <time>2019-08-04T06:43:23.000Z</time>
      </trkpt>
      <trkpt lat="43.37399" lon="2.21267">
        <ele>599</ele>
        <time>2019-08-04T06:43:24.000Z</time>
      </trkpt>
      <trkpt lat="43.37401" lon="2.21265">
        <ele>598.9</ele>
        <time>2019-08-04T06:43:25.000Z</time>
      </trkpt>
      <trkpt lat="43.37403" lon="2.21263">
        <ele>598.8</ele>
        <time>2019-08-04T06:43:26.000Z</time>
      </trkpt>
      <trkpt lat="43.37404" lon="2.21261">
        <ele>598.7</ele>
        <time>2019-08-04T06:43:27.000Z</time>
      </trkpt>
      <trkpt lat="43.37406" lon="2.21259">
        <ele>598.6</ele>
        <time>2019-08-04T06:43:28.000Z</time>
      </trkpt>
      <trkpt lat="43.37408" lon="2.21258">
        <ele>598.5</ele>
        <time>2019-08-04T06:43:29.000Z</time>
      </trkpt>
      <trkpt lat="43.37409" lon="2.21256">
        <ele>598.4</ele>
        <time>2019-08-04T06:43:30.000Z</time>
      </trkpt>
      <trkpt lat="43.37411" lon="2.21254">
        <ele>598.3</ele>
        <time>2019-08-04T06:43:31.000Z</time>
      </trkpt>
      <trkpt lat="43.37413" lon="2.21253">
        <ele>598.2</ele>
        <time>2019-08-04T06:43:32.000Z</time>
      </trkpt>
      <trkpt lat="43.37414" lon="2.21251">
        <ele>598.1</ele>
        <time>2019-08-04T06:43:33.000Z</time>
      </trkpt>
      <trkpt lat="43.37416" lon="2.21249">
        <ele>598</ele>
        <time>2019-08-04T06:43:34.000Z</time>
      </trkpt>
      <trkpt lat="43.37417" lon="2.21248">
        <ele>598.1</ele>
        <time>2019-08-04T06:43:35.000Z</time>
      </trkpt>
      <trkpt lat="43.37419" lon="2.21246">
        <ele>598.2</ele>
        <time>2019-08-04T06:43:36.000Z</time>
      </trkpt>
      <trkpt lat="43.3742" lon="2.21244">
        <ele>598.3</ele>
        <time>2019-08-04T06:43:37.000Z</time>
      </trkpt>
      <trkpt lat="43.37422" lon="2.21243">
        <ele>598.4</ele>
        <time>2019-08-04T06:43:38.000Z</time>
      </trkpt>
      <trkpt lat="43.37424" lon="2.21241">
        <ele>598.5</ele>
        <time>2019-08-04T06:43:39.000Z</time>
      </trkpt>
      <trkpt lat="43.37425" lon="2.2124">
        <ele>598.6</ele>
        <time>2019-08-04T06:43:40.000Z</time>
      </trkpt>
      <trkpt lat="43.37427" lon="2.21238">
        <ele>598.7</ele>
        <time>2019-08-04T06:43:41.000Z</time>
      </trkpt>
      <trkpt lat="43.37429" lon="2.21237">
        <ele>598.8</ele>
        <time>2019-08-04T06:43:42.000Z</time>
      </trkpt>
      <trkpt lat="43.37431" lon="2.21236">
        <ele>598.9</ele>
        <time>2019-08-04T06:43:43.000Z</time>
      </trkpt>
      <trkpt lat="43.37433" lon="2.21234">
        <ele>599</ele>
        <time>2019-08-04T06:43:44.000Z</time>
      </trkpt>
      <trkpt lat="43.37435" lon="2.21233">
        <ele>599.1</ele>
        <time>2019-08-04T06:43:45.000Z</time>
      </trkpt>
      <trkpt lat="43.37437" lon="2.21232">
        <ele>599.2</ele>
        <time>2019-08-04T06:43:46.000Z</time>
      </trkpt>
      <trkpt lat="43.37438" lon="2.21231">
        <ele>599.3</ele>
        <time>2019-08-04T06:43:47.000Z</time>
      </trkpt>
      <trkpt lat="43.3744" lon="2.2123">
        <ele>599.4</ele>
        <time>2019-08-04T06:43:48.000Z</time>
      </trkpt>
      <trkpt lat="43.37441" lon="2.21229">
        <ele>599.5</ele>
        <time>2019-08-04T06:43:49.000Z</time>
      </trkpt>
      <trkpt lat="43.37442" lon="2.21228">
        <ele>599.6</ele>
        <time>2019-08-04T06:43:50.000Z</time>
      </trkpt>
      <trkpt lat="43.37443" lon="2.21227">
        <ele>599.6</ele>
        <time>2019-08-04T06:43:51.000Z</time>
      </trkpt>
      <trkpt lat="43.37444" lon="2.21226">
        <ele>599.7</ele>
        <time>2019-08-04T06:43:52.000Z</time>
      </trkpt>
      <trkpt lat="43.37444" lon="2.21225">
        <ele>599.8</ele>
        <time>2019-08-04T06:43:53.000Z</time>
      </trkpt>
      <trkpt lat="43.37445" lon="2.21224">
        <ele>599.8</ele>
        <time>2019-08-04T06:43:54.000Z</time>
      </trkpt>
      <trkpt lat="43.37445" lon="2.21223">
        <ele>599.9</ele>
        <time>2019-08-04T06:43:55.000Z</time>
      </trkpt>
      <trkpt lat="43.37445" lon="2.21222">
        <ele>599.9</ele>
        <time>2019-08-04T06:43:56.000Z</time>
      </trkpt>
      <trkpt lat="43.37446" lon="2.2122">
        <ele>600</ele>
        <time>2019-08-04T06:43:57.000Z</time>
      </trkpt>
      <trkpt lat="43.37447" lon="2.21219">
        <ele>600.1</ele>
        <time>2019-08-04T06:43:58.000Z</time>
      </trkpt>
      <trkpt lat="43.37448" lon="2.21217">
        <ele>600.2</ele>
        <time>2019-08-04T06:43:59.000Z</time>
      </trkpt>
      <trkpt lat="43.37448" lon="2.21216">
        <ele>600.3</ele>
        <time>2019-08-04T06:44:00.000Z</time>
      </trkpt>
      <trkpt lat="43.3745" lon="2.21215">
        <ele>600.4</ele>
        <time>2019-08-04T06:44:01.000Z</time>
      </trkpt>
      <trkpt lat="43.37451" lon="2.21214">
        <ele>600.5</ele>
        <time>2019-08-04T06:44:02.000Z</time>
      </trkpt>
      <trkpt lat="43.37452" lon="2.21213">
        <ele>600.6</ele>
        <time>2019-08-04T06:44:03.000Z</time>
      </trkpt>
      <trkpt lat="43.37453" lon="2.21212">
        <ele>600.6</ele>
        <time>2019-08-04T06:44:04.000Z</time>
      </trkpt>
      <trkpt lat="43.37454" lon="2.21212">
        <ele>600.7</ele>
        <time>2019-08-04T06:44:05.000Z</time>
      </trkpt>
      <trkpt lat="43.37456" lon="2.21213">
        <ele>600.7</ele>
        <time>2019-08-04T06:44:06.000Z</time>
      </trkpt>
      <trkpt lat="43.37457" lon="2.21213">
        <ele>600.8</ele>
        <time>2019-08-04T06:44:07.000Z</time>
      </trkpt>
      <trkpt lat="43.37459" lon="2.21213">
        <ele>600.8</ele>
        <time>2019-08-04T06:44:08.000Z</time>
      </trkpt>
      <trkpt lat="43.3746" lon="2.21212">
        <ele>600.9</ele>
        <time>2019-08-04T06:44:09.000Z</time>
      </trkpt>
      <trkpt lat="43.37462" lon="2.21211">
        <ele>601</ele>
        <time>2019-08-04T06:44:10.000Z</time>
      </trkpt>
      <trkpt lat="43.37463" lon="2.21209">
        <ele>601.1</ele>
        <time>2019-08-04T06:44:11.000Z</time>
      </trkpt>
      <trkpt lat="43.37464" lon="2.21207">
        <ele>601.3</ele>
        <time>2019-08-04T06:44:12.000Z</time>
      </trkpt>
      <trkpt lat="43.37466" lon="2.21206">
        <ele>601.4</ele>
        <time>2019-08-04T06:44:13.000Z</time>
      </trkpt>
      <trkpt lat="43.37467" lon="2.21204">
        <ele>601.5</ele>
        <time>2019-08-04T06:44:14.000Z</time>
      </trkpt>
      <trkpt lat="43.37468" lon="2.21202">
        <ele>601.6</ele>
        <time>2019-08-04T06:44:15.000Z</time>
      </trkpt>
      <trkpt lat="43.37469" lon="2.21201">
        <ele>601.8</ele>
        <time>2019-08-04T06:44:16.000Z</time>
      </trkpt>
      <trkpt lat="43.3747" lon="2.21199">
        <ele>601.9</ele>
        <time>2019-08-04T06:44:17.000Z</time>
      </trkpt>
      <trkpt lat="43.3747" lon="2.21197">
        <ele>602</ele>
        <time>2019-08-04T06:44:18.000Z</time>
      </trkpt>
      <trkpt lat="43.37471" lon="2.21196">
        <ele>602.1</ele>
        <time>2019-08-04T06:44:19.000Z</time>
      </trkpt>
      <trkpt lat="43.37471" lon="2.21194">
        <ele>602.2</ele>
        <time>2019-08-04T06:44:20.000Z</time>
      </trkpt>
      <trkpt lat="43.37472" lon="2.21193">
        <ele>602.3</ele>
        <time>2019-08-04T06:44:21.000Z</time>
      </trkpt>
      <trkpt lat="43.37472" lon="2.21191">
        <ele>602.4</ele>
        <time>2019-08-04T06:44:22.000Z</time>
      </trkpt>
      <trkpt lat="43.37472" lon="2.21189">
        <ele>602.5</ele>
        <time>2019-08-04T06:44:23.000Z</time>
      </trkpt>
      <trkpt lat="43.37473" lon="2.21188">
        <ele>602.6</ele>
        <time>2019-08-04T06:44:24.000Z</time>
      </trkpt>
      <trkpt lat="43.37473" lon="2.21187">
        <ele>602.7</ele>
        <time>2019-08-04T06:44:25.000Z</time>
      </trkpt>
      <trkpt lat="43.37474" lon="2.21185">
        <ele>602.8</ele>
        <time>2019-08-04T06:44:26.000Z</time>
      </trkpt>
      <trkpt lat="43.37475" lon="2.21184">
        <ele>602.9</ele>
        <time>2019-08-04T06:44:27.000Z</time>
      </trkpt>
      <trkpt lat="43.37476" lon="2.21183">
        <ele>603</ele>
        <time>2019-08-04T06:44:28.000Z</time>
      </trkpt>
      <trkpt lat="43.37477" lon="2.21182">
        <ele>603.1</ele>
        <time>2019-08-04T06:44:29.000Z</time>
      </trkpt>
      <trkpt lat="43.37479" lon="2.21181">
        <ele>603.2</ele>
        <time>2019-08-04T06:44:30.000Z</time>
      </trkpt>
      <trkpt lat="43.37481" lon="2.21181">
        <ele>603.3</ele>
        <time>2019-08-04T06:44:31.000Z</time>
      </trkpt>
      <trkpt lat="43.37483" lon="2.2118">
        <ele>603.5</ele>
        <time>2019-08-04T06:44:32.000Z</time>
      </trkpt>
      <trkpt lat="43.37485" lon="2.21179">
        <ele>603.6</ele>
        <time>2019-08-04T06:44:33.000Z</time>
      </trkpt>
      <trkpt lat="43.37487" lon="2.21178">
        <ele>603.8</ele>
        <time>2019-08-04T06:44:34.000Z</time>
      </trkpt>
      <trkpt lat="43.37489" lon="2.21177">
        <ele>603.9</ele>
        <time>2019-08-04T06:44:35.000Z</time>
      </trkpt>
      <trkpt lat="43.37492" lon="2.21175">
        <ele>604.1</ele>
        <time>2019-08-04T06:44:36.000Z</time>
      </trkpt>
      <trkpt lat="43.37494" lon="2.21174">
        <ele>604.3</ele>
        <time>2019-08-04T06:44:37.000Z</time>
      </trkpt>
      <trkpt lat="43.37496" lon="2.21173">
        <ele>604.4</ele>
        <time>2019-08-04T06:44:38.000Z</time>
      </trkpt>
      <trkpt lat="43.37499" lon="2.21172">
        <ele>604.6</ele>
        <time>2019-08-04T06:44:39.000Z</time>
      </trkpt>
      <trkpt lat="43.37501" lon="2.21171">
        <ele>604.8</ele>
        <time>2019-08-04T06:44:40.000Z</time>
      </trkpt>
      <trkpt lat="43.37503" lon="2.2117">
        <ele>605</ele>
        <time>2019-08-04T06:44:41.000Z</time>
      </trkpt>
      <trkpt lat="43.37505" lon="2.2117">
        <ele>605.1</ele>
        <time>2019-08-04T06:44:42.000Z</time>
      </trkpt>
      <trkpt lat="43.37507" lon="2.2117">
        <ele>605.3</ele>
        <time>2019-08-04T06:44:43.000Z</time>
      </trkpt>
      <trkpt lat="43.37509" lon="2.2117">
        <ele>605.4</ele>
        <time>2019-08-04T06:44:44.000Z</time>
      </trkpt>
      <trkpt lat="43.37511" lon="2.2117">
        <ele>605.5</ele>
        <time>2019-08-04T06:44:45.000Z</time>
      </trkpt>
      <trkpt lat="43.37513" lon="2.21171">
        <ele>605.5</ele>
        <time>2019-08-04T06:44:46.000Z</time>
      </trkpt>
      <trkpt lat="43.37514" lon="2.21171">
        <ele>605.6</ele>
        <time>2019-08-04T06:44:47.000Z</time>
      </trkpt>
      <trkpt lat="43.37516" lon="2.21172">
        <ele>605.7</ele>
        <time>2019-08-04T06:44:48.000Z</time>
      </trkpt>
      <trkpt lat="43.37517" lon="2.21173">
        <ele>605.7</ele>
        <time>2019-08-04T06:44:49.000Z</time>
      </trkpt>
      <trkpt lat="43.37519" lon="2.21174">
        <ele>605.7</ele>
        <time>2019-08-04T06:44:50.000Z</time>
      </trkpt>
      <trkpt lat="43.3752" lon="2.21174">
        <ele>605.8</ele>
        <time>2019-08-04T06:44:51.000Z</time>
      </trkpt>
      <trkpt lat="43.37521" lon="2.21175">
        <ele>605.8</ele>
        <time>2019-08-04T06:44:52.000Z</time>
      </trkpt>
      <trkpt lat="43.37522" lon="2.21176">
        <ele>605.8</ele>
        <time>2019-08-04T06:44:53.000Z</time>
      </trkpt>
      <trkpt lat="43.37523" lon="2.21177">
        <ele>605.8</ele>
        <time>2019-08-04T06:44:54.000Z</time>
      </trkpt>
      <trkpt lat="43.37524" lon="2.21177">
        <ele>605.9</ele>
        <time>2019-08-04T06:44:55.000Z</time>
      </trkpt>
      <trkpt lat="43.37524" lon="2.21178">
        <ele>605.9</ele>
        <time>2019-08-04T06:44:56.000Z</time>
      </trkpt>
      <trkpt lat="43.37525" lon="2.21179">
        <ele>605.8</ele>
        <time>2019-08-04T06:44:57.000Z</time>
      </trkpt>
      <trkpt lat="43.37525" lon="2.2118">
        <ele>605.8</ele>
        <time>2019-08-04T06:44:58.000Z</time>
      </trkpt>
      <trkpt lat="43.37525" lon="2.21181">
        <ele>605.7</ele>
        <time>2019-08-04T06:44:59.000Z</time>
      </trkpt>
      <trkpt lat="43.37525" lon="2.21183">
        <ele>605.7</ele>
        <time>2019-08-04T06:45:00.000Z</time>
      </trkpt>
      <trkpt lat="43.37525" lon="2.21184">
        <ele>605.6</ele>
        <time>2019-08-04T06:45:01.000Z</time>
      </trkpt>
      <trkpt lat="43.37525" lon="2.21186">
        <ele>605.5</ele>
        <time>2019-08-04T06:45:02.000Z</time>
      </trkpt>
      <trkpt lat="43.37524" lon="2.21187">
        <ele>605.4</ele>
        <time>2019-08-04T06:45:03.000Z</time>
      </trkpt>
      <trkpt lat="43.37524" lon="2.21188">
        <ele>605.3</ele>
        <time>2019-08-04T06:45:04.000Z</time>
      </trkpt>
      <trkpt lat="43.37523" lon="2.2119">
        <ele>605.2</ele>
        <time>2019-08-04T06:45:05.000Z</time>
      </trkpt>
      <trkpt lat="43.37523" lon="2.21191">
        <ele>605.1</ele>
        <time>2019-08-04T06:45:06.000Z</time>
      </trkpt>
      <trkpt lat="43.37522" lon="2.21192">
        <ele>605</ele>
        <time>2019-08-04T06:45:07.000Z</time>
      </trkpt>
      <trkpt lat="43.37522" lon="2.21193">
        <ele>604.9</ele>
        <time>2019-08-04T06:45:08.000Z</time>
      </trkpt>
      <trkpt lat="43.37521" lon="2.21194">
        <ele>604.8</ele>
        <time>2019-08-04T06:45:09.000Z</time>
      </trkpt>
      <trkpt lat="43.37521" lon="2.21195">
        <ele>604.7</ele>
        <time>2019-08-04T06:45:10.000Z</time>
      </trkpt>
      <trkpt lat="43.37521" lon="2.21196">
        <ele>604.7</ele>
        <time>2019-08-04T06:45:11.000Z</time>
      </trkpt>
      <trkpt lat="43.37521" lon="2.21197">
        <ele>604.6</ele>
        <time>2019-08-04T06:45:12.000Z</time>
      </trkpt>
      <trkpt lat="43.37522" lon="2.21198">
        <ele>604.6</ele>
        <time>2019-08-04T06:45:13.000Z</time>
      </trkpt>
      <trkpt lat="43.37522" lon="2.21199">
        <ele>604.6</ele>
        <time>2019-08-04T06:45:14.000Z</time>
      </trkpt>
      <trkpt lat="43.37522" lon="2.212">
        <ele>604.6</ele>
        <time>2019-08-04T06:45:15.000Z</time>
      </trkpt>
      <trkpt lat="43.37523" lon="2.212">
        <ele>604.6</ele>
        <time>2019-08-04T06:45:16.000Z</time>
      </trkpt>
      <trkpt lat="43.37524" lon="2.21201">
        <ele>604.6</ele>
        <time>2019-08-04T06:45:17.000Z</time>
      </trkpt>
      <trkpt lat="43.37525" lon="2.21202">
        <ele>604.7</ele>
        <time>2019-08-04T06:45:18.000Z</time>
      </trkpt>
      <trkpt lat="43.37526" lon="2.21201">
        <ele>604.8</ele>
        <time>2019-08-04T06:45:19.000Z</time>
      </trkpt>
      <trkpt lat="43.37527" lon="2.21201">
        <ele>604.8</ele>
        <time>2019-08-04T06:45:20.000Z</time>
      </trkpt>
      <trkpt lat="43.37528" lon="2.212">
        <ele>604.9</ele>
        <time>2019-08-04T06:45:21.000Z</time>
      </trkpt>
      <trkpt lat="43.37528" lon="2.21199">
        <ele>605</ele>
        <time>2019-08-04T06:45:22.000Z</time>
      </trkpt>
      <trkpt lat="43.37529" lon="2.21198">
        <ele>605.1</ele>
        <time>2019-08-04T06:45:23.000Z</time>
      </trkpt>
      <trkpt lat="43.37529" lon="2.21196">
        <ele>605.2</ele>
        <time>2019-08-04T06:45:24.000Z</time>
      </trkpt>
      <trkpt lat="43.3753" lon="2.21195">
        <ele>605.4</ele>
        <time>2019-08-04T06:45:25.000Z</time>
      </trkpt>
      <trkpt lat="43.37531" lon="2.21193">
        <ele>605.5</ele>
        <time>2019-08-04T06:45:26.000Z</time>
      </trkpt>
      <trkpt lat="43.37531" lon="2.21192">
        <ele>605.6</ele>
        <time>2019-08-04T06:45:27.000Z</time>
      </trkpt>
      <trkpt lat="43.37532" lon="2.2119">
        <ele>605.7</ele>
        <time>2019-08-04T06:45:28.000Z</time>
      </trkpt>
      <trkpt lat="43.37533" lon="2.21189">
        <ele>605.9</ele>
        <time>2019-08-04T06:45:29.000Z</time>
      </trkpt>
      <trkpt lat="43.37534" lon="2.21188">
        <ele>606</ele>
        <time>2019-08-04T06:45:30.000Z</time>
      </trkpt>
      <trkpt lat="43.37535" lon="2.21186">
        <ele>606.1</ele>
        <time>2019-08-04T06:45:31.000Z</time>
      </trkpt>
      <trkpt lat="43.37536" lon="2.21185">
        <ele>606.3</ele>
        <time>2019-08-04T06:45:32.000Z</time>
      </trkpt>
      <trkpt lat="43.37537" lon="2.21184">
        <ele>606.4</ele>
        <time>2019-08-04T06:45:33.000Z</time>
      </trkpt>
      <trkpt lat="43.37538" lon="2.21182">
        <ele>606.5</ele>
        <time>2019-08-04T06:45:34.000Z</time>
      </trkpt>
      <trkpt lat="43.37538" lon="2.21181">
        <ele>606.6</ele>
        <time>2019-08-04T06:45:35.000Z</time>
      </trkpt>
      <trkpt lat="43.37539" lon="2.21179">
        <ele>606.7</ele>
        <time>2019-08-04T06:45:36.000Z</time>
      </trkpt>
      <trkpt lat="43.37539" lon="2.21178">
        <ele>606.8</ele>
        <time>2019-08-04T06:45:37.000Z</time>
      </trkpt>
      <trkpt lat="43.37539" lon="2.21177">
        <ele>606.9</ele>
        <time>2019-08-04T06:45:38.000Z</time>
      </trkpt>
      <trkpt lat="43.37539" lon="2.21176">
        <ele>606.9</ele>
        <time>2019-08-04T06:45:39.000Z</time>
      </trkpt>
      <trkpt lat="43.37539" lon="2.21175">
        <ele>607</ele>
        <time>2019-08-04T06:45:40.000Z</time>
      </trkpt>
      <trkpt lat="43.37539" lon="2.21174">
        <ele>607</ele>
        <time>2019-08-04T06:45:41.000Z</time>
      </trkpt>
      <trkpt lat="43.37539" lon="2.21172">
        <ele>607.1</ele>
        <time>2019-08-04T06:45:42.000Z</time>
      </trkpt>
      <trkpt lat="43.37539" lon="2.21171">
        <ele>607.1</ele>
        <time>2019-08-04T06:45:43.000Z</time>
      </trkpt>
      <trkpt lat="43.37539" lon="2.21169">
        <ele>607.2</ele>
        <time>2019-08-04T06:45:44.000Z</time>
      </trkpt>
      <trkpt lat="43.37539" lon="2.21168">
        <ele>607.3</ele>
        <time>2019-08-04T06:45:45.000Z</time>
      </trkpt>
      <trkpt lat="43.37539" lon="2.21166">
        <ele>607.3</ele>
        <time>2019-08-04T06:45:46.000Z</time>
      </trkpt>
      <trkpt lat="43.37539" lon="2.21165">
        <ele>607.4</ele>
        <time>2019-08-04T06:45:47.000Z</time>
      </trkpt>
      <trkpt lat="43.37539" lon="2.21164">
        <ele>607.4</ele>
        <time>2019-08-04T06:45:48.000Z</time>
      </trkpt>
      <trkpt lat="43.37539" lon="2.21163">
        <ele>607.4</ele>
        <time>2019-08-04T06:45:49.000Z</time>
      </trkpt>
      <trkpt lat="43.37539" lon="2.21162">
        <ele>607.5</ele>
        <time>2019-08-04T06:45:50.000Z</time>
      </trkpt>
      <trkpt lat="43.37539" lon="2.21162">
        <ele>607.5</ele>
        <time>2019-08-04T06:45:51.000Z</time>
      </trkpt>
      <trkpt lat="43.37539" lon="2.21162">
        <ele>607.5</ele>
        <time>2019-08-04T06:45:52.000Z</time>
      </trkpt>
      <trkpt lat="43.37539" lon="2.21161">
        <ele>607.5</ele>
        <time>2019-08-04T06:45:53.000Z</time>
      </trkpt>
      <trkpt lat="43.37539" lon="2.21161">
        <ele>607.5</ele>
        <time>2019-08-04T06:45:54.000Z</time>
      </trkpt>
      <trkpt lat="43.37539" lon="2.21161">
        <ele>607.5</ele>
        <time>2019-08-04T06:45:55.000Z</time>
      </trkpt>
      <trkpt lat="43.37539" lon="2.21161">
        <ele>607.5</ele>
        <time>2019-08-04T06:45:56.000Z</time>
      </trkpt>
      <trkpt lat="43.37539" lon="2.21161">
        <ele>607.5</ele>
        <time>2019-08-04T06:45:57.000Z</time>
      </trkpt>
      <trkpt lat="43.37539" lon="2.21161">
        <ele>607.5</ele>
        <time>2019-08-04T06:45:58.000Z</time>
      </trkpt>
      <trkpt lat="43.37539" lon="2.21161">
        <ele>607.5</ele>
        <time>2019-08-04T06:45:59.000Z</time>
      </trkpt>
      <trkpt lat="43.37539" lon="2.21161">
        <ele>607.5</ele>
        <time>2019-08-04T06:46:00.000Z</time>
      </trkpt>
      <trkpt lat="43.37539" lon="2.21161">
        <ele>607.5</ele>
        <time>2019-08-04T06:46:01.000Z</time>
      </trkpt>
      <trkpt lat="43.37539" lon="2.21161">
        <ele>607.5</ele>
        <time>2019-08-04T06:46:02.000Z</time>
      </trkpt>
      <trkpt lat="43.37539" lon="2.21161">
        <ele>607.5</ele>
        <time>2019-08-04T06:46:03.000Z</time>
      </trkpt>
      <trkpt lat="43.37539" lon="2.21161">
        <ele>607.5</ele>
        <time>2019-08-04T06:46:04.000Z</time>
      </trkpt>
      <trkpt lat="43.37539" lon="2.21161">
        <ele>607.5</ele>
        <time>2019-08-04T06:46:05.000Z</time>
      </trkpt>
      <trkpt lat="43.37539" lon="2.21161">
        <ele>607.5</ele>
        <time>2019-08-04T06:46:06.000Z</time>
      </trkpt>
      <trkpt lat="43.37539" lon="2.21162">
        <ele>607.5</ele>
        <time>2019-08-04T06:46:07.000Z</time>
      </trkpt>
      <trkpt lat="43.37539" lon="2.21162">
        <ele>607.5</ele>
        <time>2019-08-04T06:46:08.000Z</time>
      </trkpt>
      <trkpt lat="43.37539" lon="2.21164">
        <ele>607.4</ele>
        <time>2019-08-04T06:46:09.000Z</time>
      </trkpt>
      <trkpt lat="43.37539" lon="2.21165">
        <ele>607.4</ele>
        <time>2019-08-04T06:46:10.000Z</time>
      </trkpt>
      <trkpt lat="43.37539" lon="2.21166">
        <ele>607.3</ele>
        <time>2019-08-04T06:46:11.000Z</time>
      </trkpt>
      <trkpt lat="43.37539" lon="2.21168">
        <ele>607.3</ele>
        <time>2019-08-04T06:46:12.000Z</time>
      </trkpt>
      <trkpt lat="43.37539" lon="2.21169">
        <ele>607.2</ele>
        <time>2019-08-04T06:46:13.000Z</time>
      </trkpt>
      <trkpt lat="43.37539" lon="2.21171">
        <ele>607.2</ele>
        <time>2019-08-04T06:46:14.000Z</time>
      </trkpt>
      <trkpt lat="43.3754" lon="2.21172">
        <ele>607.1</ele>
        <time>2019-08-04T06:46:15.000Z</time>
      </trkpt>
      <trkpt lat="43.3754" lon="2.21173">
        <ele>607.1</ele>
        <time>2019-08-04T06:46:16.000Z</time>
      </trkpt>
      <trkpt lat="43.3754" lon="2.21175">
        <ele>607</ele>
        <time>2019-08-04T06:46:17.000Z</time>
      </trkpt>
      <trkpt lat="43.37541" lon="2.21176">
        <ele>607</ele>
        <time>2019-08-04T06:46:18.000Z</time>
      </trkpt>
      <trkpt lat="43.37541" lon="2.21178">
        <ele>606.9</ele>
        <time>2019-08-04T06:46:19.000Z</time>
      </trkpt>
      <trkpt lat="43.37541" lon="2.21179">
        <ele>606.9</ele>
        <time>2019-08-04T06:46:20.000Z</time>
      </trkpt>
      <trkpt lat="43.37541" lon="2.2118">
        <ele>606.8</ele>
        <time>2019-08-04T06:46:21.000Z</time>
      </trkpt>
      <trkpt lat="43.37542" lon="2.21182">
        <ele>606.8</ele>
        <time>2019-08-04T06:46:22.000Z</time>
      </trkpt>
      <trkpt lat="43.37542" lon="2.21183">
        <ele>606.7</ele>
        <time>2019-08-04T06:46:23.000Z</time>
      </trkpt>
      <trkpt lat="43.37542" lon="2.21184">
        <ele>606.7</ele>
        <time>2019-08-04T06:46:24.000Z</time>
      </trkpt>
      <trkpt lat="43.37542" lon="2.21186">
        <ele>606.6</ele>
        <time>2019-08-04T06:46:25.000Z</time>
      </trkpt>
      <trkpt lat="43.37542" lon="2.21187">
        <ele>606.5</ele>
        <time>2019-08-04T06:46:26.000Z</time>
      </trkpt>
      <trkpt lat="43.37542" lon="2.21189">
        <ele>606.5</ele>
        <time>2019-08-04T06:46:27.000Z</time>
      </trkpt>
      <trkpt lat="43.37542" lon="2.2119">
        <ele>606.4</ele>
        <time>2019-08-04T06:46:28.000Z</time>
      </trkpt>
      <trkpt lat="43.37542" lon="2.21192">
        <ele>606.3</ele>
        <time>2019-08-04T06:46:29.000Z</time>
      </trkpt>
      <trkpt lat="43.37542" lon="2.21193">
        <ele>606.3</ele>
        <time>2019-08-04T06:46:30.000Z</time>
      </trkpt>
      <trkpt lat="43.37542" lon="2.21195">
        <ele>606.2</ele>
        <time>2019-08-04T06:46:31.000Z</time>
      </trkpt>
      <trkpt lat="43.37542" lon="2.21196">
        <ele>606.1</ele>
        <time>2019-08-04T06:46:32.000Z</time>
      </trkpt>
      <trkpt lat="43.37542" lon="2.21197">
        <ele>606.1</ele>
        <time>2019-08-04T06:46:33.000Z</time>
      </trkpt>
      <trkpt lat="43.37543" lon="2.21198">
        <ele>606.1</ele>
        <time>2019-08-04T06:46:34.000Z</time>
      </trkpt>
      <trkpt lat="43.37543" lon="2.21199">
        <ele>606</ele>
        <time>2019-08-04T06:46:35.000Z</time>
      </trkpt>
      <trkpt lat="43.37543" lon="2.212">
        <ele>606</ele>
        <time>2019-08-04T06:46:36.000Z</time>
      </trkpt>
      <trkpt lat="43.37543" lon="2.212">
        <ele>606</ele>
        <time>2019-08-04T06:46:37.000Z</time>
      </trkpt>
      <trkpt lat="43.37544" lon="2.21201">
        <ele>606</ele>
        <time>2019-08-04T06:46:38.000Z</time>
      </trkpt>
      <trkpt lat="43.37544" lon="2.21201">
        <ele>606</ele>
        <time>2019-08-04T06:46:39.000Z</time>
      </trkpt>
      <trkpt lat="43.37544" lon="2.21202">
        <ele>606</ele>
        <time>2019-08-04T06:46:40.000Z</time>
      </trkpt>
      <trkpt lat="43.37544" lon="2.21202">
        <ele>606</ele>
        <time>2019-08-04T06:46:41.000Z</time>
      </trkpt>
      <trkpt lat="43.37544" lon="2.21202">
        <ele>606</ele>
        <time>2019-08-04T06:46:42.000Z</time>
      </trkpt>
      <trkpt lat="43.37545" lon="2.21202">
        <ele>606</ele>
        <time>2019-08-04T06:46:43.000Z</time>
      </trkpt>
      <trkpt lat="43.37545" lon="2.21202">
        <ele>606</ele>
        <time>2019-08-04T06:46:44.000Z</time>
      </trkpt>
      <trkpt lat="43.37545" lon="2.21202">
        <ele>606</ele>
        <time>2019-08-04T06:46:45.000Z</time>
      </trkpt>
      <trkpt lat="43.37545" lon="2.21202">
        <ele>606</ele>
        <time>2019-08-04T06:46:46.000Z</time>
      </trkpt>
      <trkpt lat="43.37545" lon="2.21202">
        <ele>606</ele>
        <time>2019-08-04T06:46:47.000Z</time>
      </trkpt>
      <trkpt lat="43.37545" lon="2.21202">
        <ele>606</ele>
        <time>2019-08-04T06:46:48.000Z</time>
      </trkpt>
      <trkpt lat="43.37545" lon="2.21202">
        <ele>606</ele>
        <time>2019-08-04T06:46:49.000Z</time>
      </trkpt>
      <trkpt lat="43.37545" lon="2.21202">
        <ele>606</ele>
        <time>2019-08-04T06:46:50.000Z</time>
      </trkpt>
      <trkpt lat="43.37545" lon="2.21202">
        <ele>606</ele>
        <time>2019-08-04T06:46:51.000Z</time>
      </trkpt>
      <trkpt lat="43.37545" lon="2.21202">
        <ele>606</ele>
        <time>2019-08-04T06:46:52.000Z</time>
      </trkpt>
      <trkpt lat="43.37545" lon="2.21202">
        <ele>606</ele>
        <time>2019-08-04T06:46:53.000Z</time>
      </trkpt>
      <trkpt lat="43.37545" lon="2.21202">
        <ele>606</ele>
        <time>2019-08-04T06:46:54.000Z</time>
      </trkpt>
      <trkpt lat="43.37545" lon="2.21202">
        <ele>606</ele>
        <time>2019-08-04T06:46:55.000Z</time>
      </trkpt>
      <trkpt lat="43.37545" lon="2.21202">
        <ele>606</ele>
        <time>2019-08-04T06:46:56.000Z</time>
      </trkpt>
      <trkpt lat="43.37545" lon="2.21202">
        <ele>606</ele>
        <time>2019-08-04T06:46:57.000Z</time>
      </trkpt>
      <trkpt lat="43.37545" lon="2.21202">
        <ele>606</ele>
        <time>2019-08-04T06:46:58.000Z</time>
      </trkpt>
      <trkpt lat="43.37545" lon="2.21202">
        <ele>606</ele>
        <time>2019-08-04T06:46:59.000Z</time>
      </trkpt>
      <trkpt lat="43.37545" lon="2.21202">
        <ele>606</ele>
        <time>2019-08-04T06:47:00.000Z</time>
      </trkpt>
      <trkpt lat="43.37545" lon="2.21202">
        <ele>606</ele>
        <time>2019-08-04T06:47:01.000Z</time>
      </trkpt>
      <trkpt lat="43.37545" lon="2.21202">
        <ele>606</ele>
        <time>2019-08-04T06:47:02.000Z</time>
      </trkpt>
      <trkpt lat="43.37545" lon="2.21202">
        <ele>606</ele>
        <time>2019-08-04T06:47:03.000Z</time>
      </trkpt>
      <trkpt lat="43.37545" lon="2.21202">
        <ele>606</ele>
        <time>2019-08-04T06:47:04.000Z</time>
      </trkpt>
      <trkpt lat="43.37545" lon="2.21202">
        <ele>606</ele>
        <time>2019-08-04T06:47:05.000Z</time>
      </trkpt>
      <trkpt lat="43.37545" lon="2.21202">
        <ele>606</ele>
        <time>2019-08-04T06:47:06.000Z</time>
      </trkpt>
      <trkpt lat="43.37545" lon="2.21202">
        <ele>606</ele>
        <time>2019-08-04T06:47:07.000Z</time>
      </trkpt>
      <trkpt lat="43.37545" lon="2.21202">
        <ele>606</ele>
        <time>2019-08-04T06:47:08.000Z</time>
      </trkpt>
      <trkpt lat="43.37545" lon="2.21202">
        <ele>606</ele>
        <time>2019-08-04T06:47:09.000Z</time>
      </trkpt>
      <trkpt lat="43.37545" lon="2.21202">
        <ele>606</ele>
        <time>2019-08-04T06:47:10.000Z</time>
      </trkpt>
      <trkpt lat="43.37545" lon="2.21202">
        <ele>606</ele>
        <time>2019-08-04T06:47:11.000Z</time>
      </trkpt>
      <trkpt lat="43.37545" lon="2.21202">
        <ele>606</ele>
        <time>2019-08-04T06:47:12.000Z</time>
      </trkpt>
      <trkpt lat="43.37545" lon="2.21202">
        <ele>606</ele>
        <time>2019-08-04T06:47:13.000Z</time>
      </trkpt>
      <trkpt lat="43.37545" lon="2.21202">
        <ele>606</ele>
        <time>2019-08-04T06:47:14.000Z</time>
      </trkpt>
      <trkpt lat="43.37545" lon="2.21202">
        <ele>606</ele>
        <time>2019-08-04T06:47:15.000Z</time>
      </trkpt>
      <trkpt lat="43.37545" lon="2.21202">
        <ele>606</ele>
        <time>2019-08-04T06:47:16.000Z</time>
      </trkpt>
      <trkpt lat="43.37545" lon="2.21202">
        <ele>606</ele>
        <time>2019-08-04T06:47:17.000Z</time>
      </trkpt>
      <trkpt lat="43.37545" lon="2.21202">
        <ele>606</ele>
        <time>2019-08-04T06:47:18.000Z</time>
      </trkpt>
      <trkpt lat="43.37545" lon="2.21202">
        <ele>606</ele>
        <time>2019-08-04T06:47:19.000Z</time>
      </trkpt>
      <trkpt lat="43.37545" lon="2.21202">
        <ele>606</ele>
        <time>2019-08-04T06:47:20.000Z</time>
      </trkpt>
      <trkpt lat="43.37545" lon="2.21202">
        <ele>606</ele>
        <time>2019-08-04T06:47:21.000Z</time>
      </trkpt>
      <trkpt lat="43.37545" lon="2.21202">
        <ele>606</ele>
        <time>2019-08-04T06:47:22.000Z</time>
      </trkpt>
      <trkpt lat="43.37545" lon="2.21202">
        <ele>606</ele>
        <time>2019-08-04T06:47:23.000Z</time>
      </trkpt>
      <trkpt lat="43.37545" lon="2.21202">
        <ele>606</ele>
        <time>2019-08-04T06:47:24.000Z</time>
      </trkpt>
      <trkpt lat="43.37545" lon="2.21202">
        <ele>606</ele>
        <time>2019-08-04T06:47:25.000Z</time>
      </trkpt>
      <trkpt lat="43.37545" lon="2.21202">
        <ele>606.1</ele>
        <time>2019-08-04T06:47:26.000Z</time>
      </trkpt>
      <trkpt lat="43.37545" lon="2.21202">
        <ele>606.1</ele>
        <time>2019-08-04T06:47:27.000Z</time>
      </trkpt>
      <trkpt lat="43.37545" lon="2.21201">
        <ele>606.1</ele>
        <time>2019-08-04T06:47:28.000Z</time>
      </trkpt>
      <trkpt lat="43.37545" lon="2.21201">
        <ele>606.1</ele>
        <time>2019-08-04T06:47:29.000Z</time>
      </trkpt>
      <trkpt lat="43.37545" lon="2.21201">
        <ele>606.1</ele>
        <time>2019-08-04T06:47:30.000Z</time>
      </trkpt>
      <trkpt lat="43.37545" lon="2.21201">
        <ele>606.1</ele>
        <time>2019-08-04T06:47:31.000Z</time>
      </trkpt>
      <trkpt lat="43.37545" lon="2.21201">
        <ele>606.1</ele>
        <time>2019-08-04T06:47:32.000Z</time>
      </trkpt>
      <trkpt lat="43.37545" lon="2.21201">
        <ele>606.1</ele>
        <time>2019-08-04T06:47:33.000Z</time>
      </trkpt>
      <trkpt lat="43.37545" lon="2.21201">
        <ele>606.1</ele>
        <time>2019-08-04T06:47:34.000Z</time>
      </trkpt>
      <trkpt lat="43.37545" lon="2.21201">
        <ele>606.1</ele>
        <time>2019-08-04T06:47:35.000Z</time>
      </trkpt>
      <trkpt lat="43.37545" lon="2.21201">
        <ele>606.1</ele>
        <time>2019-08-04T06:47:36.000Z</time>
      </trkpt>
      <trkpt lat="43.37545" lon="2.21201">
        <ele>606.1</ele>
        <time>2019-08-04T06:47:37.000Z</time>
      </trkpt>
      <trkpt lat="43.37545" lon="2.21201">
        <ele>606.1</ele>
        <time>2019-08-04T06:47:38.000Z</time>
      </trkpt>
      <trkpt lat="43.37545" lon="2.21201">
        <ele>606.1</ele>
        <time>2019-08-04T06:47:39.000Z</time>
      </trkpt>
      <trkpt lat="43.37545" lon="2.21201">
        <ele>606.1</ele>
        <time>2019-08-04T06:47:40.000Z</time>
      </trkpt>
      <trkpt lat="43.37545" lon="2.21201">
        <ele>606.1</ele>
        <time>2019-08-04T06:47:41.000Z</time>
      </trkpt>
      <trkpt lat="43.37545" lon="2.21201">
        <ele>606.1</ele>
        <time>2019-08-04T06:47:42.000Z</time>
      </trkpt>
      <trkpt lat="43.37545" lon="2.21201">
        <ele>606.1</ele>
        <time>2019-08-04T06:47:43.000Z</time>
      </trkpt>
      <trkpt lat="43.37545" lon="2.21201">
        <ele>606.1</ele>
        <time>2019-08-04T06:47:44.000Z</time>
      </trkpt>
      <trkpt lat="43.37545" lon="2.21201">
        <ele>606.1</ele>
        <time>2019-08-04T06:47:45.000Z</time>
      </trkpt>
      <trkpt lat="43.37545" lon="2.21201">
        <ele>606.1</ele>
        <time>2019-08-04T06:47:46.000Z</time>
      </trkpt>
      <trkpt lat="43.37545" lon="2.21201">
        <ele>606.1</ele>
        <time>2019-08-04T06:47:47.000Z</time>
      </trkpt>
      <trkpt lat="43.37545" lon="2.21201">
        <ele>606.1</ele>
        <time>2019-08-04T06:47:48.000Z</time>
      </trkpt>
      <trkpt lat="43.37545" lon="2.21201">
        <ele>606.1</ele>
        <time>2019-08-04T06:47:49.000Z</time>
      </trkpt>
      <trkpt lat="43.37545" lon="2.21201">
        <ele>606.1</ele>
        <time>2019-08-04T06:47:50.000Z</time>
      </trkpt>
      <trkpt lat="43.37545" lon="2.21201">
        <ele>606.1</ele>
        <time>2019-08-04T06:47:51.000Z</time>
      </trkpt>
      <trkpt lat="43.37545" lon="2.21201">
        <ele>606.1</ele>
        <time>2019-08-04T06:47:52.000Z</time>
      </trkpt>
      <trkpt lat="43.37545" lon="2.21201">
        <ele>606.1</ele>
        <time>2019-08-04T06:47:53.000Z</time>
      </trkpt>
      <trkpt lat="43.37545" lon="2.21201">
        <ele>606.1</ele>
        <time>2019-08-04T06:47:54.000Z</time>
      </trkpt>
      <trkpt lat="43.37545" lon="2.21201">
        <ele>606.1</ele>
        <time>2019-08-04T06:47:55.000Z</time>
      </trkpt>
      <trkpt lat="43.37545" lon="2.21201">
        <ele>606.1</ele>
        <time>2019-08-04T06:47:56.000Z</time>
      </trkpt>
      <trkpt lat="43.37545" lon="2.21201">
        <ele>606.1</ele>
        <time>2019-08-04T06:47:57.000Z</time>
      </trkpt>
      <trkpt lat="43.37545" lon="2.21201">
        <ele>606.1</ele>
        <time>2019-08-04T06:47:58.000Z</time>
      </trkpt>
      <trkpt lat="43.37545" lon="2.21201">
        <ele>606.1</ele>
        <time>2019-08-04T06:47:59.000Z</time>
      </trkpt>
      <trkpt lat="43.37545" lon="2.21201">
        <ele>606.1</ele>
        <time>2019-08-04T06:48:00.000Z</time>
      </trkpt>
      <trkpt lat="43.37545" lon="2.21201">
        <ele>606.1</ele>
        <time>2019-08-04T06:48:01.000Z</time>
      </trkpt>
      <trkpt lat="43.37545" lon="2.21201">
        <ele>606.1</ele>
        <time>2019-08-04T06:48:02.000Z</time>
      </trkpt>
      <trkpt lat="43.37545" lon="2.21201">
        <ele>606.1</ele>
        <time>2019-08-04T06:48:03.000Z</time>
      </trkpt>
      <trkpt lat="43.37545" lon="2.21201">
        <ele>606.1</ele>
        <time>2019-08-04T06:48:04.000Z</time>
      </trkpt>
      <trkpt lat="43.37545" lon="2.21201">
        <ele>606.1</ele>
        <time>2019-08-04T06:48:05.000Z</time>
      </trkpt>
      <trkpt lat="43.37545" lon="2.21201">
        <ele>606.1</ele>
        <time>2019-08-04T06:48:06.000Z</time>
      </trkpt>
      <trkpt lat="43.37545" lon="2.21201">
        <ele>606.1</ele>
        <time>2019-08-04T06:48:07.000Z</time>
      </trkpt>
      <trkpt lat="43.37546" lon="2.21201">
        <ele>606.1</ele>
        <time>2019-08-04T06:48:08.000Z</time>
      </trkpt>
      <trkpt lat="43.37546" lon="2.21201">
        <ele>606.2</ele>
        <time>2019-08-04T06:48:09.000Z</time>
      </trkpt>
      <trkpt lat="43.37547" lon="2.21201">
        <ele>606.2</ele>
        <time>2019-08-04T06:48:10.000Z</time>
      </trkpt>
      <trkpt lat="43.37548" lon="2.21201">
        <ele>606.3</ele>
        <time>2019-08-04T06:48:11.000Z</time>
      </trkpt>
      <trkpt lat="43.37548" lon="2.21201">
        <ele>606.3</ele>
        <time>2019-08-04T06:48:12.000Z</time>
      </trkpt>
      <trkpt lat="43.37549" lon="2.212">
        <ele>606.4</ele>
        <time>2019-08-04T06:48:13.000Z</time>
      </trkpt>
      <trkpt lat="43.37549" lon="2.212">
        <ele>606.4</ele>
        <time>2019-08-04T06:48:14.000Z</time>
      </trkpt>
      <trkpt lat="43.3755" lon="2.212">
        <ele>606.4</ele>
        <time>2019-08-04T06:48:15.000Z</time>
      </trkpt>
      <trkpt lat="43.3755" lon="2.212">
        <ele>606.5</ele>
        <time>2019-08-04T06:48:16.000Z</time>
      </trkpt>
      <trkpt lat="43.37551" lon="2.21201">
        <ele>606.5</ele>
        <time>2019-08-04T06:48:17.000Z</time>
      </trkpt>
      <trkpt lat="43.37552" lon="2.21201">
        <ele>606.6</ele>
        <time>2019-08-04T06:48:18.000Z</time>
      </trkpt>
      <trkpt lat="43.37553" lon="2.21201">
        <ele>606.6</ele>
        <time>2019-08-04T06:48:19.000Z</time>
      </trkpt>
      <trkpt lat="43.37553" lon="2.21202">
        <ele>606.6</ele>
        <time>2019-08-04T06:48:20.000Z</time>
      </trkpt>
      <trkpt lat="43.37554" lon="2.21202">
        <ele>606.6</ele>
        <time>2019-08-04T06:48:21.000Z</time>
      </trkpt>
      <trkpt lat="43.37555" lon="2.21203">
        <ele>606.6</ele>
        <time>2019-08-04T06:48:22.000Z</time>
      </trkpt>
      <trkpt lat="43.37555" lon="2.21204">
        <ele>606.6</ele>
        <time>2019-08-04T06:48:23.000Z</time>
      </trkpt>
      <trkpt lat="43.37555" lon="2.21206">
        <ele>606.6</ele>
        <time>2019-08-04T06:48:24.000Z</time>
      </trkpt>
      <trkpt lat="43.37555" lon="2.21207">
        <ele>606.5</ele>
        <time>2019-08-04T06:48:25.000Z</time>
      </trkpt>
      <trkpt lat="43.37555" lon="2.21209">
        <ele>606.4</ele>
        <time>2019-08-04T06:48:26.000Z</time>
      </trkpt>
      <trkpt lat="43.37554" lon="2.21211">
        <ele>606.3</ele>
        <time>2019-08-04T06:48:27.000Z</time>
      </trkpt>
      <trkpt lat="43.37554" lon="2.21213">
        <ele>606.2</ele>
        <time>2019-08-04T06:48:28.000Z</time>
      </trkpt>
      <trkpt lat="43.37553" lon="2.21215">
        <ele>606</ele>
        <time>2019-08-04T06:48:29.000Z</time>
      </trkpt>
      <trkpt lat="43.37552" lon="2.21217">
        <ele>605.9</ele>
        <time>2019-08-04T06:48:30.000Z</time>
      </trkpt>
      <trkpt lat="43.37552" lon="2.2122">
        <ele>605.7</ele>
        <time>2019-08-04T06:48:31.000Z</time>
      </trkpt>
      <trkpt lat="43.37551" lon="2.21222">
        <ele>605.5</ele>
        <time>2019-08-04T06:48:32.000Z</time>
      </trkpt>
      <trkpt lat="43.3755" lon="2.21225">
        <ele>605.3</ele>
        <time>2019-08-04T06:48:33.000Z</time>
      </trkpt>
      <trkpt lat="43.37549" lon="2.21228">
        <ele>605.2</ele>
        <time>2019-08-04T06:48:34.000Z</time>
      </trkpt>
      <trkpt lat="43.37549" lon="2.21231">
        <ele>605</ele>
        <time>2019-08-04T06:48:35.000Z</time>
      </trkpt>
      <trkpt lat="43.37548" lon="2.21233">
        <ele>604.8</ele>
        <time>2019-08-04T06:48:36.000Z</time>
      </trkpt>
      <trkpt lat="43.37548" lon="2.21236">
        <ele>604.7</ele>
        <time>2019-08-04T06:48:37.000Z</time>
      </trkpt>
      <trkpt lat="43.37548" lon="2.21239">
        <ele>604.6</ele>
        <time>2019-08-04T06:48:38.000Z</time>
      </trkpt>
      <trkpt lat="43.37549" lon="2.21241">
        <ele>604.5</ele>
        <time>2019-08-04T06:48:39.000Z</time>
      </trkpt>
      <trkpt lat="43.37549" lon="2.21244">
        <ele>604.4</ele>
        <time>2019-08-04T06:48:40.000Z</time>
      </trkpt>
      <trkpt lat="43.37551" lon="2.21246">
        <ele>604.4</ele>
        <time>2019-08-04T06:48:41.000Z</time>
      </trkpt>
      <trkpt lat="43.37552" lon="2.21249">
        <ele>604.4</ele>
        <time>2019-08-04T06:48:42.000Z</time>
      </trkpt>
      <trkpt lat="43.37553" lon="2.21251">
        <ele>604.5</ele>
        <time>2019-08-04T06:48:43.000Z</time>
      </trkpt>
      <trkpt lat="43.37555" lon="2.21253">
        <ele>604.6</ele>
        <time>2019-08-04T06:48:44.000Z</time>
      </trkpt>
      <trkpt lat="43.37556" lon="2.21255">
        <ele>604.8</ele>
        <time>2019-08-04T06:48:45.000Z</time>
      </trkpt>
      <trkpt lat="43.37558" lon="2.21257">
        <ele>604.9</ele>
        <time>2019-08-04T06:48:46.000Z</time>
      </trkpt>
      <trkpt lat="43.37559" lon="2.21259">
        <ele>605.1</ele>
        <time>2019-08-04T06:48:47.000Z</time>
      </trkpt>
      <trkpt lat="43.37561" lon="2.21261">
        <ele>605.2</ele>
        <time>2019-08-04T06:48:48.000Z</time>
      </trkpt>
      <trkpt lat="43.37563" lon="2.21263">
        <ele>605.3</ele>
        <time>2019-08-04T06:48:49.000Z</time>
      </trkpt>
      <trkpt lat="43.37564" lon="2.21265">
        <ele>605.5</ele>
        <time>2019-08-04T06:48:50.000Z</time>
      </trkpt>
      <trkpt lat="43.37566" lon="2.21266">
        <ele>605.6</ele>
        <time>2019-08-04T06:48:51.000Z</time>
      </trkpt>
      <trkpt lat="43.37568" lon="2.21268">
        <ele>605.7</ele>
        <time>2019-08-04T06:48:52.000Z</time>
      </trkpt>
      <trkpt lat="43.37569" lon="2.2127">
        <ele>605.8</ele>
        <time>2019-08-04T06:48:53.000Z</time>
      </trkpt>
      <trkpt lat="43.37571" lon="2.21273">
        <ele>605.9</ele>
        <time>2019-08-04T06:48:54.000Z</time>
      </trkpt>
      <trkpt lat="43.37572" lon="2.21275">
        <ele>606</ele>
        <time>2019-08-04T06:48:55.000Z</time>
      </trkpt>
      <trkpt lat="43.37574" lon="2.21278">
        <ele>606.1</ele>
        <time>2019-08-04T06:48:56.000Z</time>
      </trkpt>
      <trkpt lat="43.37575" lon="2.2128">
        <ele>606.2</ele>
        <time>2019-08-04T06:48:57.000Z</time>
      </trkpt>
      <trkpt lat="43.37576" lon="2.21283">
        <ele>606.2</ele>
        <time>2019-08-04T06:48:58.000Z</time>
      </trkpt>
      <trkpt lat="43.37578" lon="2.21286">
        <ele>606.3</ele>
        <time>2019-08-04T06:48:59.000Z</time>
      </trkpt>
      <trkpt lat="43.37579" lon="2.21289">
        <ele>606.3</ele>
        <time>2019-08-04T06:49:00.000Z</time>
      </trkpt>
      <trkpt lat="43.37581" lon="2.21292">
        <ele>606.4</ele>
        <time>2019-08-04T06:49:01.000Z</time>
      </trkpt>
      <trkpt lat="43.37582" lon="2.21295">
        <ele>606.4</ele>
        <time>2019-08-04T06:49:02.000Z</time>
      </trkpt>
      <trkpt lat="43.37583" lon="2.21298">
        <ele>606.4</ele>
        <time>2019-08-04T06:49:03.000Z</time>
      </trkpt>
      <trkpt lat="43.37585" lon="2.21301">
        <ele>606.4</ele>
        <time>2019-08-04T06:49:04.000Z</time>
      </trkpt>
      <trkpt lat="43.37586" lon="2.21305">
        <ele>606.5</ele>
        <time>2019-08-04T06:49:05.000Z</time>
      </trkpt>
      <trkpt lat="43.37588" lon="2.21308">
        <ele>606.5</ele>
        <time>2019-08-04T06:49:06.000Z</time>
      </trkpt>
      <trkpt lat="43.37589" lon="2.21311">
        <ele>606.5</ele>
        <time>2019-08-04T06:49:07.000Z</time>
      </trkpt>
      <trkpt lat="43.37591" lon="2.21314">
        <ele>606.6</ele>
        <time>2019-08-04T06:49:08.000Z</time>
      </trkpt>
      <trkpt lat="43.37592" lon="2.21317">
        <ele>606.6</ele>
        <time>2019-08-04T06:49:09.000Z</time>
      </trkpt>
      <trkpt lat="43.37594" lon="2.2132">
        <ele>606.7</ele>
        <time>2019-08-04T06:49:10.000Z</time>
      </trkpt>
      <trkpt lat="43.37595" lon="2.21323">
        <ele>606.7</ele>
        <time>2019-08-04T06:49:11.000Z</time>
      </trkpt>
      <trkpt lat="43.37597" lon="2.21326">
        <ele>606.7</ele>
        <time>2019-08-04T06:49:12.000Z</time>
      </trkpt>
      <trkpt lat="43.37598" lon="2.21329">
        <ele>606.8</ele>
        <time>2019-08-04T06:49:13.000Z</time>
      </trkpt>
      <trkpt lat="43.376" lon="2.21332">
        <ele>606.8</ele>
        <time>2019-08-04T06:49:14.000Z</time>
      </trkpt>
      <trkpt lat="43.37602" lon="2.21335">
        <ele>606.8</ele>
        <time>2019-08-04T06:49:15.000Z</time>
      </trkpt>
      <trkpt lat="43.37603" lon="2.21338">
        <ele>606.8</ele>
        <time>2019-08-04T06:49:16.000Z</time>
      </trkpt>
      <trkpt lat="43.37605" lon="2.21341">
        <ele>606.8</ele>
        <time>2019-08-04T06:49:17.000Z</time>
      </trkpt>
      <trkpt lat="43.37606" lon="2.21343">
        <ele>606.9</ele>
        <time>2019-08-04T06:49:18.000Z</time>
      </trkpt>
      <trkpt lat="43.37608" lon="2.21346">
        <ele>606.9</ele>
        <time>2019-08-04T06:49:19.000Z</time>
      </trkpt>
      <trkpt lat="43.3761" lon="2.21348">
        <ele>606.9</ele>
        <time>2019-08-04T06:49:20.000Z</time>
      </trkpt>
      <trkpt lat="43.37612" lon="2.21351">
        <ele>606.9</ele>
        <time>2019-08-04T06:49:21.000Z</time>
      </trkpt>
      <trkpt lat="43.37614" lon="2.21353">
        <ele>607</ele>
        <time>2019-08-04T06:49:22.000Z</time>
      </trkpt>
      <trkpt lat="43.37617" lon="2.21355">
        <ele>607.1</ele>
        <time>2019-08-04T06:49:23.000Z</time>
      </trkpt>
      <trkpt lat="43.3762" lon="2.21357">
        <ele>607.2</ele>
        <time>2019-08-04T06:49:24.000Z</time>
      </trkpt>
      <trkpt lat="43.37624" lon="2.21359">
        <ele>607.3</ele>
        <time>2019-08-04T06:49:25.000Z</time>
      </trkpt>
      <trkpt lat="43.37627" lon="2.21361">
        <ele>607.4</ele>
        <time>2019-08-04T06:49:26.000Z</time>
      </trkpt>
      <trkpt lat="43.3763" lon="2.21363">
        <ele>607.5</ele>
        <time>2019-08-04T06:49:27.000Z</time>
      </trkpt>
      <trkpt lat="43.37633" lon="2.21365">
        <ele>607.7</ele>
        <time>2019-08-04T06:49:28.000Z</time>
      </trkpt>
      <trkpt lat="43.37636" lon="2.21367">
        <ele>607.7</ele>
        <time>2019-08-04T06:49:29.000Z</time>
      </trkpt>
      <trkpt lat="43.37639" lon="2.21368">
        <ele>607.8</ele>
        <time>2019-08-04T06:49:30.000Z</time>
      </trkpt>
      <trkpt lat="43.37642" lon="2.2137">
        <ele>607.9</ele>
        <time>2019-08-04T06:49:31.000Z</time>
      </trkpt>
      <trkpt lat="43.37645" lon="2.21372">
        <ele>608</ele>
        <time>2019-08-04T06:49:32.000Z</time>
      </trkpt>
      <trkpt lat="43.37648" lon="2.21374">
        <ele>608.1</ele>
        <time>2019-08-04T06:49:33.000Z</time>
      </trkpt>
      <trkpt lat="43.37651" lon="2.21376">
        <ele>608.2</ele>
        <time>2019-08-04T06:49:34.000Z</time>
      </trkpt>
      <trkpt lat="43.37654" lon="2.21378">
        <ele>608.3</ele>
        <time>2019-08-04T06:49:35.000Z</time>
      </trkpt>
      <trkpt lat="43.37657" lon="2.2138">
        <ele>608.4</ele>
        <time>2019-08-04T06:49:36.000Z</time>
      </trkpt>
      <trkpt lat="43.3766" lon="2.21381">
        <ele>608.5</ele>
        <time>2019-08-04T06:49:37.000Z</time>
      </trkpt>
      <trkpt lat="43.37663" lon="2.21383">
        <ele>608.6</ele>
        <time>2019-08-04T06:49:38.000Z</time>
      </trkpt>
      <trkpt lat="43.37665" lon="2.21384">
        <ele>608.7</ele>
        <time>2019-08-04T06:49:39.000Z</time>
      </trkpt>
      <trkpt lat="43.37668" lon="2.21385">
        <ele>608.8</ele>
        <time>2019-08-04T06:49:40.000Z</time>
      </trkpt>
      <trkpt lat="43.37671" lon="2.21387">
        <ele>608.8</ele>
        <time>2019-08-04T06:49:41.000Z</time>
      </trkpt>
      <trkpt lat="43.37673" lon="2.21388">
        <ele>608.8</ele>
        <time>2019-08-04T06:49:42.000Z</time>
      </trkpt>
      <trkpt lat="43.37675" lon="2.21388">
        <ele>608.9</ele>
        <time>2019-08-04T06:49:43.000Z</time>
      </trkpt>
      <trkpt lat="43.37678" lon="2.21389">
        <ele>608.9</ele>
        <time>2019-08-04T06:49:44.000Z</time>
      </trkpt>
      <trkpt lat="43.3768" lon="2.2139">
        <ele>608.9</ele>
        <time>2019-08-04T06:49:45.000Z</time>
      </trkpt>
      <trkpt lat="43.37682" lon="2.21391">
        <ele>608.9</ele>
        <time>2019-08-04T06:49:46.000Z</time>
      </trkpt>
      <trkpt lat="43.37685" lon="2.21392">
        <ele>609</ele>
        <time>2019-08-04T06:49:47.000Z</time>
      </trkpt>
      <trkpt lat="43.37687" lon="2.21393">
        <ele>609</ele>
        <time>2019-08-04T06:49:48.000Z</time>
      </trkpt>
      <trkpt lat="43.37689" lon="2.21393">
        <ele>609</ele>
        <time>2019-08-04T06:49:49.000Z</time>
      </trkpt>
      <trkpt lat="43.37691" lon="2.21394">
        <ele>609.1</ele>
        <time>2019-08-04T06:49:50.000Z</time>
      </trkpt>
      <trkpt lat="43.37694" lon="2.21394">
        <ele>609.1</ele>
        <time>2019-08-04T06:49:51.000Z</time>
      </trkpt>
      <trkpt lat="43.37696" lon="2.21395">
        <ele>609.1</ele>
        <time>2019-08-04T06:49:52.000Z</time>
      </trkpt>
      <trkpt lat="43.37698" lon="2.21395">
        <ele>609.2</ele>
        <time>2019-08-04T06:49:53.000Z</time>
      </trkpt>
      <trkpt lat="43.377" lon="2.21395">
        <ele>609.2</ele>
        <time>2019-08-04T06:49:54.000Z</time>
      </trkpt>
      <trkpt lat="43.37702" lon="2.21395">
        <ele>609.3</ele>
        <time>2019-08-04T06:49:55.000Z</time>
      </trkpt>
      <trkpt lat="43.37705" lon="2.21395">
        <ele>609.3</ele>
        <time>2019-08-04T06:49:56.000Z</time>
      </trkpt>
      <trkpt lat="43.37707" lon="2.21395">
        <ele>609.4</ele>
        <time>2019-08-04T06:49:57.000Z</time>
      </trkpt>
      <trkpt lat="43.37709" lon="2.21394">
        <ele>609.4</ele>
        <time>2019-08-04T06:49:58.000Z</time>
      </trkpt>
      <trkpt lat="43.37711" lon="2.21394">
        <ele>609.5</ele>
        <time>2019-08-04T06:49:59.000Z</time>
      </trkpt>
      <trkpt lat="43.37713" lon="2.21393">
        <ele>609.5</ele>
        <time>2019-08-04T06:50:00.000Z</time>
      </trkpt>
      <trkpt lat="43.37716" lon="2.21392">
        <ele>609.6</ele>
        <time>2019-08-04T06:50:01.000Z</time>
      </trkpt>
      <trkpt lat="43.37718" lon="2.21391">
        <ele>609.7</ele>
        <time>2019-08-04T06:50:02.000Z</time>
      </trkpt>
      <trkpt lat="43.3772" lon="2.21389">
        <ele>609.7</ele>
        <time>2019-08-04T06:50:03.000Z</time>
      </trkpt>
      <trkpt lat="43.37722" lon="2.21388">
        <ele>609.8</ele>
        <time>2019-08-04T06:50:04.000Z</time>
      </trkpt>
      <trkpt lat="43.37725" lon="2.21386">
        <ele>609.9</ele>
        <time>2019-08-04T06:50:05.000Z</time>
      </trkpt>
      <trkpt lat="43.37727" lon="2.21384">
        <ele>609.9</ele>
        <time>2019-08-04T06:50:06.000Z</time>
      </trkpt>
      <trkpt lat="43.37729" lon="2.21382">
        <ele>610</ele>
        <time>2019-08-04T06:50:07.000Z</time>
      </trkpt>
      <trkpt lat="43.37731" lon="2.21379">
        <ele>610.1</ele>
        <time>2019-08-04T06:50:08.000Z</time>
      </trkpt>
      <trkpt lat="43.37733" lon="2.21377">
        <ele>610.2</ele>
        <time>2019-08-04T06:50:09.000Z</time>
      </trkpt>
      <trkpt lat="43.37735" lon="2.21374">
        <ele>610.2</ele>
        <time>2019-08-04T06:50:10.000Z</time>
      </trkpt>
      <trkpt lat="43.37737" lon="2.21372">
        <ele>610.3</ele>
        <time>2019-08-04T06:50:11.000Z</time>
      </trkpt>
      <trkpt lat="43.37739" lon="2.21369">
        <ele>610.4</ele>
        <time>2019-08-04T06:50:12.000Z</time>
      </trkpt>
      <trkpt lat="43.37741" lon="2.21366">
        <ele>610.5</ele>
        <time>2019-08-04T06:50:13.000Z</time>
      </trkpt>
      <trkpt lat="43.37743" lon="2.21364">
        <ele>610.5</ele>
        <time>2019-08-04T06:50:14.000Z</time>
      </trkpt>
      <trkpt lat="43.37745" lon="2.21361">
        <ele>610.6</ele>
        <time>2019-08-04T06:50:15.000Z</time>
      </trkpt>
      <trkpt lat="43.37747" lon="2.21358">
        <ele>610.7</ele>
        <time>2019-08-04T06:50:16.000Z</time>
      </trkpt>
      <trkpt lat="43.37748" lon="2.21355">
        <ele>610.7</ele>
        <time>2019-08-04T06:50:17.000Z</time>
      </trkpt>
      <trkpt lat="43.3775" lon="2.21352">
        <ele>610.8</ele>
        <time>2019-08-04T06:50:18.000Z</time>
      </trkpt>
      <trkpt lat="43.37751" lon="2.21349">
        <ele>610.9</ele>
        <time>2019-08-04T06:50:19.000Z</time>
      </trkpt>
      <trkpt lat="43.37753" lon="2.21346">
        <ele>611</ele>
        <time>2019-08-04T06:50:20.000Z</time>
      </trkpt>
      <trkpt lat="43.37754" lon="2.21343">
        <ele>611.1</ele>
        <time>2019-08-04T06:50:21.000Z</time>
      </trkpt>
      <trkpt lat="43.37755" lon="2.2134">
        <ele>611.2</ele>
        <time>2019-08-04T06:50:22.000Z</time>
      </trkpt>
      <trkpt lat="43.37757" lon="2.21337">
        <ele>611.3</ele>
        <time>2019-08-04T06:50:23.000Z</time>
      </trkpt>
      <trkpt lat="43.37758" lon="2.21334">
        <ele>611.4</ele>
        <time>2019-08-04T06:50:24.000Z</time>
      </trkpt>
      <trkpt lat="43.37759" lon="2.21332">
        <ele>611.5</ele>
        <time>2019-08-04T06:50:25.000Z</time>
      </trkpt>
      <trkpt lat="43.37761" lon="2.21329">
        <ele>611.6</ele>
        <time>2019-08-04T06:50:26.000Z</time>
      </trkpt>
      <trkpt lat="43.37762" lon="2.21327">
        <ele>611.7</ele>
        <time>2019-08-04T06:50:27.000Z</time>
      </trkpt>
      <trkpt lat="43.37763" lon="2.21324">
        <ele>611.8</ele>
        <time>2019-08-04T06:50:28.000Z</time>
      </trkpt>
      <trkpt lat="43.37764" lon="2.21322">
        <ele>611.9</ele>
        <time>2019-08-04T06:50:29.000Z</time>
      </trkpt>
      <trkpt lat="43.37766" lon="2.2132">
        <ele>611.9</ele>
        <time>2019-08-04T06:50:30.000Z</time>
      </trkpt>
      <trkpt lat="43.37767" lon="2.21318">
        <ele>612</ele>
        <time>2019-08-04T06:50:31.000Z</time>
      </trkpt>
      <trkpt lat="43.37768" lon="2.21315">
        <ele>612.1</ele>
        <time>2019-08-04T06:50:32.000Z</time>
      </trkpt>
      <trkpt lat="43.37769" lon="2.21313">
        <ele>612.2</ele>
        <time>2019-08-04T06:50:33.000Z</time>
      </trkpt>
      <trkpt lat="43.37771" lon="2.21311">
        <ele>612.3</ele>
        <time>2019-08-04T06:50:34.000Z</time>
      </trkpt>
      <trkpt lat="43.37772" lon="2.21309">
        <ele>612.3</ele>
        <time>2019-08-04T06:50:35.000Z</time>
      </trkpt>
      <trkpt lat="43.37773" lon="2.21307">
        <ele>612.4</ele>
        <time>2019-08-04T06:50:36.000Z</time>
      </trkpt>
      <trkpt lat="43.37775" lon="2.21305">
        <ele>612.5</ele>
        <time>2019-08-04T06:50:37.000Z</time>
      </trkpt>
      <trkpt lat="43.37776" lon="2.21303">
        <ele>612.5</ele>
        <time>2019-08-04T06:50:38.000Z</time>
      </trkpt>
      <trkpt lat="43.37777" lon="2.21301">
        <ele>612.6</ele>
        <time>2019-08-04T06:50:39.000Z</time>
      </trkpt>
      <trkpt lat="43.37778" lon="2.213">
        <ele>612.6</ele>
        <time>2019-08-04T06:50:40.000Z</time>
      </trkpt>
      <trkpt lat="43.37779" lon="2.21298">
        <ele>612.7</ele>
        <time>2019-08-04T06:50:41.000Z</time>
      </trkpt>
      <trkpt lat="43.37781" lon="2.21295">
        <ele>612.7</ele>
        <time>2019-08-04T06:50:42.000Z</time>
      </trkpt>
      <trkpt lat="43.37782" lon="2.21293">
        <ele>612.8</ele>
        <time>2019-08-04T06:50:43.000Z</time>
      </trkpt>
      <trkpt lat="43.37783" lon="2.21291">
        <ele>612.8</ele>
        <time>2019-08-04T06:50:44.000Z</time>
      </trkpt>
      <trkpt lat="43.37785" lon="2.21289">
        <ele>612.8</ele>
        <time>2019-08-04T06:50:45.000Z</time>
      </trkpt>
      <trkpt lat="43.37786" lon="2.21286">
        <ele>612.9</ele>
        <time>2019-08-04T06:50:46.000Z</time>
      </trkpt>
      <trkpt lat="43.37788" lon="2.21284">
        <ele>612.9</ele>
        <time>2019-08-04T06:50:47.000Z</time>
      </trkpt>
      <trkpt lat="43.37789" lon="2.21282">
        <ele>613</ele>
        <time>2019-08-04T06:50:48.000Z</time>
      </trkpt>
      <trkpt lat="43.37791" lon="2.2128">
        <ele>613</ele>
        <time>2019-08-04T06:50:49.000Z</time>
      </trkpt>
      <trkpt lat="43.37792" lon="2.21278">
        <ele>613</ele>
        <time>2019-08-04T06:50:50.000Z</time>
      </trkpt>
      <trkpt lat="43.37794" lon="2.21276">
        <ele>613</ele>
        <time>2019-08-04T06:50:51.000Z</time>
      </trkpt>
      <trkpt lat="43.37795" lon="2.21275">
        <ele>613</ele>
        <time>2019-08-04T06:50:52.000Z</time>
      </trkpt>
      <trkpt lat="43.37796" lon="2.21275">
        <ele>613.1</ele>
        <time>2019-08-04T06:50:53.000Z</time>
      </trkpt>
      <trkpt lat="43.37797" lon="2.21275">
        <ele>613.1</ele>
        <time>2019-08-04T06:50:54.000Z</time>
      </trkpt>
      <trkpt lat="43.37798" lon="2.21275">
        <ele>613.1</ele>
        <time>2019-08-04T06:50:55.000Z</time>
      </trkpt>
      <trkpt lat="43.37798" lon="2.21276">
        <ele>613.1</ele>
        <time>2019-08-04T06:50:56.000Z</time>
      </trkpt>
      <trkpt lat="43.37798" lon="2.21276">
        <ele>613.1</ele>
        <time>2019-08-04T06:50:57.000Z</time>
      </trkpt>
      <trkpt lat="43.37798" lon="2.21278">
        <ele>613.1</ele>
        <time>2019-08-04T06:50:58.000Z</time>
      </trkpt>
      <trkpt lat="43.37797" lon="2.21279">
        <ele>613.1</ele>
        <time>2019-08-04T06:50:59.000Z</time>
      </trkpt>
      <trkpt lat="43.37796" lon="2.2128">
        <ele>613.1</ele>
        <time>2019-08-04T06:51:00.000Z</time>
      </trkpt>
      <trkpt lat="43.37794" lon="2.21281">
        <ele>613</ele>
        <time>2019-08-04T06:51:01.000Z</time>
      </trkpt>
      <trkpt lat="43.37793" lon="2.21283">
        <ele>613</ele>
        <time>2019-08-04T06:51:02.000Z</time>
      </trkpt>
      <trkpt lat="43.37791" lon="2.21284">
        <ele>613</ele>
        <time>2019-08-04T06:51:03.000Z</time>
      </trkpt>
      <trkpt lat="43.3779" lon="2.21286">
        <ele>613</ele>
        <time>2019-08-04T06:51:04.000Z</time>
      </trkpt>
      <trkpt lat="43.37789" lon="2.21288">
        <ele>612.9</ele>
        <time>2019-08-04T06:51:05.000Z</time>
      </trkpt>
      <trkpt lat="43.37787" lon="2.2129">
        <ele>612.9</ele>
        <time>2019-08-04T06:51:06.000Z</time>
      </trkpt>
      <trkpt lat="43.37786" lon="2.21292">
        <ele>612.9</ele>
        <time>2019-08-04T06:51:07.000Z</time>
      </trkpt>
      <trkpt lat="43.37786" lon="2.21293">
        <ele>612.8</ele>
        <time>2019-08-04T06:51:08.000Z</time>
      </trkpt>
      <trkpt lat="43.37785" lon="2.21295">
        <ele>612.8</ele>
        <time>2019-08-04T06:51:09.000Z</time>
      </trkpt>
      <trkpt lat="43.37784" lon="2.21296">
        <ele>612.8</ele>
        <time>2019-08-04T06:51:10.000Z</time>
      </trkpt>
      <trkpt lat="43.37783" lon="2.21297">
        <ele>612.8</ele>
        <time>2019-08-04T06:51:11.000Z</time>
      </trkpt>
      <trkpt lat="43.37783" lon="2.21299">
        <ele>612.7</ele>
        <time>2019-08-04T06:51:12.000Z</time>
      </trkpt>
      <trkpt lat="43.37782" lon="2.21301">
        <ele>612.7</ele>
        <time>2019-08-04T06:51:13.000Z</time>
      </trkpt>
      <trkpt lat="43.37781" lon="2.21304">
        <ele>612.7</ele>
        <time>2019-08-04T06:51:14.000Z</time>
      </trkpt>
      <trkpt lat="43.3778" lon="2.21307">
        <ele>612.6</ele>
        <time>2019-08-04T06:51:15.000Z</time>
      </trkpt>
      <trkpt lat="43.37779" lon="2.2131">
        <ele>612.6</ele>
        <time>2019-08-04T06:51:16.000Z</time>
      </trkpt>
      <trkpt lat="43.37777" lon="2.21313">
        <ele>612.5</ele>
        <time>2019-08-04T06:51:17.000Z</time>
      </trkpt>
      <trkpt lat="43.37776" lon="2.21317">
        <ele>612.4</ele>
        <time>2019-08-04T06:51:18.000Z</time>
      </trkpt>
      <trkpt lat="43.37775" lon="2.21321">
        <ele>612.3</ele>
        <time>2019-08-04T06:51:19.000Z</time>
      </trkpt>
      <trkpt lat="43.37773" lon="2.21325">
        <ele>612.2</ele>
        <time>2019-08-04T06:51:20.000Z</time>
      </trkpt>
      <trkpt lat="43.37772" lon="2.21329">
        <ele>612.1</ele>
        <time>2019-08-04T06:51:21.000Z</time>
      </trkpt>
      <trkpt lat="43.37771" lon="2.21333">
        <ele>612</ele>
        <time>2019-08-04T06:51:22.000Z</time>
      </trkpt>
      <trkpt lat="43.3777" lon="2.21336">
        <ele>611.9</ele>
        <time>2019-08-04T06:51:23.000Z</time>
      </trkpt>
      <trkpt lat="43.37769" lon="2.2134">
        <ele>611.8</ele>
        <time>2019-08-04T06:51:24.000Z</time>
      </trkpt>
      <trkpt lat="43.37768" lon="2.21343">
        <ele>611.7</ele>
        <time>2019-08-04T06:51:25.000Z</time>
      </trkpt>
      <trkpt lat="43.37767" lon="2.21346">
        <ele>611.6</ele>
        <time>2019-08-04T06:51:26.000Z</time>
      </trkpt>
      <trkpt lat="43.37766" lon="2.21349">
        <ele>611.5</ele>
        <time>2019-08-04T06:51:27.000Z</time>
      </trkpt>
      <trkpt lat="43.37765" lon="2.21352">
        <ele>611.5</ele>
        <time>2019-08-04T06:51:28.000Z</time>
      </trkpt>
      <trkpt lat="43.37765" lon="2.21354">
        <ele>611.4</ele>
        <time>2019-08-04T06:51:29.000Z</time>
      </trkpt>
      <trkpt lat="43.37764" lon="2.21357">
        <ele>611.3</ele>
        <time>2019-08-04T06:51:30.000Z</time>
      </trkpt>
      <trkpt lat="43.37764" lon="2.2136">
        <ele>611.3</ele>
        <time>2019-08-04T06:51:31.000Z</time>
      </trkpt>
      <trkpt lat="43.37763" lon="2.21363">
        <ele>611.2</ele>
        <time>2019-08-04T06:51:32.000Z</time>
      </trkpt>
      <trkpt lat="43.37763" lon="2.21366">
        <ele>611.2</ele>
        <time>2019-08-04T06:51:33.000Z</time>
      </trkpt>
      <trkpt lat="43.37763" lon="2.21368">
        <ele>611.1</ele>
        <time>2019-08-04T06:51:34.000Z</time>
      </trkpt>
      <trkpt lat="43.37763" lon="2.21371">
        <ele>611.1</ele>
        <time>2019-08-04T06:51:35.000Z</time>
      </trkpt>
      <trkpt lat="43.37763" lon="2.21374">
        <ele>611.1</ele>
        <time>2019-08-04T06:51:36.000Z</time>
      </trkpt>
      <trkpt lat="43.37763" lon="2.21377">
        <ele>611</ele>
        <time>2019-08-04T06:51:37.000Z</time>
      </trkpt>
      <trkpt lat="43.37763" lon="2.2138">
        <ele>611</ele>
        <time>2019-08-04T06:51:38.000Z</time>
      </trkpt>
      <trkpt lat="43.37763" lon="2.21383">
        <ele>611</ele>
        <time>2019-08-04T06:51:39.000Z</time>
      </trkpt>
      <trkpt lat="43.37764" lon="2.21386">
        <ele>610.9</ele>
        <time>2019-08-04T06:51:40.000Z</time>
      </trkpt>
      <trkpt lat="43.37764" lon="2.21389">
        <ele>610.9</ele>
        <time>2019-08-04T06:51:41.000Z</time>
      </trkpt>
      <trkpt lat="43.37764" lon="2.21392">
        <ele>610.9</ele>
        <time>2019-08-04T06:51:42.000Z</time>
      </trkpt>
      <trkpt lat="43.37765" lon="2.21395">
        <ele>610.8</ele>
        <time>2019-08-04T06:51:43.000Z</time>
      </trkpt>
      <trkpt lat="43.37765" lon="2.21398">
        <ele>610.8</ele>
        <time>2019-08-04T06:51:44.000Z</time>
      </trkpt>
      <trkpt lat="43.37765" lon="2.21401">
        <ele>610.8</ele>
        <time>2019-08-04T06:51:45.000Z</time>
      </trkpt>
      <trkpt lat="43.37766" lon="2.21404">
        <ele>610.8</ele>
        <time>2019-08-04T06:51:46.000Z</time>
      </trkpt>
      <trkpt lat="43.37766" lon="2.21407">
        <ele>610.7</ele>
        <time>2019-08-04T06:51:47.000Z</time>
      </trkpt>
      <trkpt lat="43.37767" lon="2.2141">
        <ele>610.7</ele>
        <time>2019-08-04T06:51:48.000Z</time>
      </trkpt>
      <trkpt lat="43.37768" lon="2.21413">
        <ele>610.7</ele>
        <time>2019-08-04T06:51:49.000Z</time>
      </trkpt>
      <trkpt lat="43.37769" lon="2.21416">
        <ele>610.7</ele>
        <time>2019-08-04T06:51:50.000Z</time>
      </trkpt>
      <trkpt lat="43.37771" lon="2.21418">
        <ele>610.7</ele>
        <time>2019-08-04T06:51:51.000Z</time>
      </trkpt>
      <trkpt lat="43.37772" lon="2.21421">
        <ele>610.6</ele>
        <time>2019-08-04T06:51:52.000Z</time>
      </trkpt>
      <trkpt lat="43.37774" lon="2.21423">
        <ele>610.6</ele>
        <time>2019-08-04T06:51:53.000Z</time>
      </trkpt>
      <trkpt lat="43.37776" lon="2.21426">
        <ele>610.6</ele>
        <time>2019-08-04T06:51:54.000Z</time>
      </trkpt>
      <trkpt lat="43.37779" lon="2.21428">
        <ele>610.5</ele>
        <time>2019-08-04T06:51:55.000Z</time>
      </trkpt>
      <trkpt lat="43.37781" lon="2.2143">
        <ele>610.5</ele>
        <time>2019-08-04T06:51:56.000Z</time>
      </trkpt>
      <trkpt lat="43.37783" lon="2.21432">
        <ele>610.5</ele>
        <time>2019-08-04T06:51:57.000Z</time>
      </trkpt>
      <trkpt lat="43.37785" lon="2.21433">
        <ele>610.5</ele>
        <time>2019-08-04T06:51:58.000Z</time>
      </trkpt>
      <trkpt lat="43.37787" lon="2.21435">
        <ele>610.5</ele>
        <time>2019-08-04T06:51:59.000Z</time>
      </trkpt>
      <trkpt lat="43.37789" lon="2.21436">
        <ele>610.5</ele>
        <time>2019-08-04T06:52:00.000Z</time>
      </trkpt>
      <trkpt lat="43.37791" lon="2.21438">
        <ele>610.5</ele>
        <time>2019-08-04T06:52:01.000Z</time>
      </trkpt>
      <trkpt lat="43.37793" lon="2.21439">
        <ele>610.5</ele>
        <time>2019-08-04T06:52:02.000Z</time>
      </trkpt>
      <trkpt lat="43.37795" lon="2.2144">
        <ele>610.5</ele>
        <time>2019-08-04T06:52:03.000Z</time>
      </trkpt>
      <trkpt lat="43.37797" lon="2.21442">
        <ele>610.4</ele>
        <time>2019-08-04T06:52:04.000Z</time>
      </trkpt>
      <trkpt lat="43.37798" lon="2.21443">
        <ele>610.4</ele>
        <time>2019-08-04T06:52:05.000Z</time>
      </trkpt>
      <trkpt lat="43.378" lon="2.21445">
        <ele>610.4</ele>
        <time>2019-08-04T06:52:06.000Z</time>
      </trkpt>
      <trkpt lat="43.37802" lon="2.21447">
        <ele>610.3</ele>
        <time>2019-08-04T06:52:07.000Z</time>
      </trkpt>
      <trkpt lat="43.37804" lon="2.21449">
        <ele>610.3</ele>
        <time>2019-08-04T06:52:08.000Z</time>
      </trkpt>
      <trkpt lat="43.37806" lon="2.21451">
        <ele>610.2</ele>
        <time>2019-08-04T06:52:09.000Z</time>
      </trkpt>
      <trkpt lat="43.37808" lon="2.21453">
        <ele>610.2</ele>
        <time>2019-08-04T06:52:10.000Z</time>
      </trkpt>
      <trkpt lat="43.3781" lon="2.21455">
        <ele>610.1</ele>
        <time>2019-08-04T06:52:11.000Z</time>
      </trkpt>
      <trkpt lat="43.37812" lon="2.21456">
        <ele>610.1</ele>
        <time>2019-08-04T06:52:12.000Z</time>
      </trkpt>
      <trkpt lat="43.37814" lon="2.21457">
        <ele>610.1</ele>
        <time>2019-08-04T06:52:13.000Z</time>
      </trkpt>
      <trkpt lat="43.37816" lon="2.21458">
        <ele>610.1</ele>
        <time>2019-08-04T06:52:14.000Z</time>
      </trkpt>
      <trkpt lat="43.37818" lon="2.21459">
        <ele>610.1</ele>
        <time>2019-08-04T06:52:15.000Z</time>
      </trkpt>
      <trkpt lat="43.37821" lon="2.21459">
        <ele>610.1</ele>
        <time>2019-08-04T06:52:16.000Z</time>
      </trkpt>
      <trkpt lat="43.37823" lon="2.21459">
        <ele>610.2</ele>
        <time>2019-08-04T06:52:17.000Z</time>
      </trkpt>
      <trkpt lat="43.37825" lon="2.21459">
        <ele>610.3</ele>
        <time>2019-08-04T06:52:18.000Z</time>
      </trkpt>
      <trkpt lat="43.37828" lon="2.21459">
        <ele>610.3</ele>
        <time>2019-08-04T06:52:19.000Z</time>
      </trkpt>
      <trkpt lat="43.3783" lon="2.21458">
        <ele>610.4</ele>
        <time>2019-08-04T06:52:20.000Z</time>
      </trkpt>
      <trkpt lat="43.37832" lon="2.21457">
        <ele>610.5</ele>
        <time>2019-08-04T06:52:21.000Z</time>
      </trkpt>
      <trkpt lat="43.37835" lon="2.21456">
        <ele>610.6</ele>
        <time>2019-08-04T06:52:22.000Z</time>
      </trkpt>
      <trkpt lat="43.37837" lon="2.21455">
        <ele>610.7</ele>
        <time>2019-08-04T06:52:23.000Z</time>
      </trkpt>
      <trkpt lat="43.37839" lon="2.21454">
        <ele>610.8</ele>
        <time>2019-08-04T06:52:24.000Z</time>
      </trkpt>
      <trkpt lat="43.37841" lon="2.21453">
        <ele>610.8</ele>
        <time>2019-08-04T06:52:25.000Z</time>
      </trkpt>
      <trkpt lat="43.37843" lon="2.21452">
        <ele>610.9</ele>
        <time>2019-08-04T06:52:26.000Z</time>
      </trkpt>
      <trkpt lat="43.37844" lon="2.2145">
        <ele>611</ele>
        <time>2019-08-04T06:52:27.000Z</time>
      </trkpt>
      <trkpt lat="43.37846" lon="2.21449">
        <ele>611.1</ele>
        <time>2019-08-04T06:52:28.000Z</time>
      </trkpt>
      <trkpt lat="43.37847" lon="2.21448">
        <ele>611.1</ele>
        <time>2019-08-04T06:52:29.000Z</time>
      </trkpt>
      <trkpt lat="43.37848" lon="2.21447">
        <ele>611.2</ele>
        <time>2019-08-04T06:52:30.000Z</time>
      </trkpt>
      <trkpt lat="43.3785" lon="2.21445">
        <ele>611.3</ele>
        <time>2019-08-04T06:52:31.000Z</time>
      </trkpt>
      <trkpt lat="43.37851" lon="2.21444">
        <ele>611.3</ele>
        <time>2019-08-04T06:52:32.000Z</time>
      </trkpt>
      <trkpt lat="43.37852" lon="2.21443">
        <ele>611.4</ele>
        <time>2019-08-04T06:52:33.000Z</time>
      </trkpt>
      <trkpt lat="43.37853" lon="2.21442">
        <ele>611.5</ele>
        <time>2019-08-04T06:52:34.000Z</time>
      </trkpt>
      <trkpt lat="43.37854" lon="2.2144">
        <ele>611.6</ele>
        <time>2019-08-04T06:52:35.000Z</time>
      </trkpt>
      <trkpt lat="43.37856" lon="2.21439">
        <ele>611.7</ele>
        <time>2019-08-04T06:52:36.000Z</time>
      </trkpt>
      <trkpt lat="43.37857" lon="2.21437">
        <ele>611.8</ele>
        <time>2019-08-04T06:52:37.000Z</time>
      </trkpt>
      <trkpt lat="43.37859" lon="2.21435">
        <ele>611.9</ele>
        <time>2019-08-04T06:52:38.000Z</time>
      </trkpt>
      <trkpt lat="43.37861" lon="2.21434">
        <ele>612</ele>
        <time>2019-08-04T06:52:39.000Z</time>
      </trkpt>
      <trkpt lat="43.37863" lon="2.21432">
        <ele>612.1</ele>
        <time>2019-08-04T06:52:40.000Z</time>
      </trkpt>
      <trkpt lat="43.37865" lon="2.2143">
        <ele>612.2</ele>
        <time>2019-08-04T06:52:41.000Z</time>
      </trkpt>
      <trkpt lat="43.37867" lon="2.21428">
        <ele>612.3</ele>
        <time>2019-08-04T06:52:42.000Z</time>
      </trkpt>
      <trkpt lat="43.37869" lon="2.21426">
        <ele>612.4</ele>
        <time>2019-08-04T06:52:43.000Z</time>
      </trkpt>
      <trkpt lat="43.37871" lon="2.21424">
        <ele>612.5</ele>
        <time>2019-08-04T06:52:44.000Z</time>
      </trkpt>
      <trkpt lat="43.37874" lon="2.21422">
        <ele>612.7</ele>
        <time>2019-08-04T06:52:45.000Z</time>
      </trkpt>
      <trkpt lat="43.37876" lon="2.21421">
        <ele>612.8</ele>
        <time>2019-08-04T06:52:46.000Z</time>
      </trkpt>
      <trkpt lat="43.37878" lon="2.21419">
        <ele>612.9</ele>
        <time>2019-08-04T06:52:47.000Z</time>
      </trkpt>
      <trkpt lat="43.3788" lon="2.21418">
        <ele>612.9</ele>
        <time>2019-08-04T06:52:48.000Z</time>
      </trkpt>
      <trkpt lat="43.37882" lon="2.21416">
        <ele>613</ele>
        <time>2019-08-04T06:52:49.000Z</time>
      </trkpt>
      <trkpt lat="43.37885" lon="2.21415">
        <ele>613.1</ele>
        <time>2019-08-04T06:52:50.000Z</time>
      </trkpt>
      <trkpt lat="43.37887" lon="2.21415">
        <ele>613.1</ele>
        <time>2019-08-04T06:52:51.000Z</time>
      </trkpt>
      <trkpt lat="43.37889" lon="2.21414">
        <ele>613.1</ele>
        <time>2019-08-04T06:52:52.000Z</time>
      </trkpt>
      <trkpt lat="43.37891" lon="2.21414">
        <ele>613.2</ele>
        <time>2019-08-04T06:52:53.000Z</time>
      </trkpt>
      <trkpt lat="43.37894" lon="2.21413">
        <ele>613.2</ele>
        <time>2019-08-04T06:52:54.000Z</time>
      </trkpt>
      <trkpt lat="43.37896" lon="2.21413">
        <ele>613.2</ele>
        <time>2019-08-04T06:52:55.000Z</time>
      </trkpt>
      <trkpt lat="43.37897" lon="2.21413">
        <ele>613.2</ele>
        <time>2019-08-04T06:52:56.000Z</time>
      </trkpt>
      <trkpt lat="43.37899" lon="2.21413">
        <ele>613.2</ele>
        <time>2019-08-04T06:52:57.000Z</time>
      </trkpt>
      <trkpt lat="43.379" lon="2.21413">
        <ele>613.3</ele>
        <time>2019-08-04T06:52:58.000Z</time>
      </trkpt>
      <trkpt lat="43.37902" lon="2.21412">
        <ele>613.3</ele>
        <time>2019-08-04T06:52:59.000Z</time>
      </trkpt>
      <trkpt lat="43.37903" lon="2.21412">
        <ele>613.3</ele>
        <time>2019-08-04T06:53:00.000Z</time>
      </trkpt>
      <trkpt lat="43.37903" lon="2.21412">
        <ele>613.3</ele>
        <time>2019-08-04T06:53:01.000Z</time>
      </trkpt>
      <trkpt lat="43.37904" lon="2.21412">
        <ele>613.3</ele>
        <time>2019-08-04T06:53:02.000Z</time>
      </trkpt>
      <trkpt lat="43.37905" lon="2.21412">
        <ele>613.3</ele>
        <time>2019-08-04T06:53:03.000Z</time>
      </trkpt>
      <trkpt lat="43.37905" lon="2.21412">
        <ele>613.3</ele>
        <time>2019-08-04T06:53:04.000Z</time>
      </trkpt>
      <trkpt lat="43.37905" lon="2.21411">
        <ele>613.3</ele>
        <time>2019-08-04T06:53:05.000Z</time>
      </trkpt>
      <trkpt lat="43.37905" lon="2.21411">
        <ele>613.4</ele>
        <time>2019-08-04T06:53:06.000Z</time>
      </trkpt>
      <trkpt lat="43.37905" lon="2.21411">
        <ele>613.4</ele>
        <time>2019-08-04T06:53:07.000Z</time>
      </trkpt>
      <trkpt lat="43.37905" lon="2.21411">
        <ele>613.4</ele>
        <time>2019-08-04T06:53:08.000Z</time>
      </trkpt>
      <trkpt lat="43.37906" lon="2.21411">
        <ele>613.4</ele>
        <time>2019-08-04T06:53:09.000Z</time>
      </trkpt>
      <trkpt lat="43.37906" lon="2.2141">
        <ele>613.4</ele>
        <time>2019-08-04T06:53:10.000Z</time>
      </trkpt>
      <trkpt lat="43.37907" lon="2.2141">
        <ele>613.5</ele>
        <time>2019-08-04T06:53:11.000Z</time>
      </trkpt>
      <trkpt lat="43.37908" lon="2.21409">
        <ele>613.5</ele>
        <time>2019-08-04T06:53:12.000Z</time>
      </trkpt>
      <trkpt lat="43.37908" lon="2.21409">
        <ele>613.5</ele>
        <time>2019-08-04T06:53:13.000Z</time>
      </trkpt>
      <trkpt lat="43.37908" lon="2.21409">
        <ele>613.5</ele>
        <time>2019-08-04T06:53:14.000Z</time>
      </trkpt>
      <trkpt lat="43.37909" lon="2.21408">
        <ele>613.6</ele>
        <time>2019-08-04T06:53:15.000Z</time>
      </trkpt>
      <trkpt lat="43.37909" lon="2.21408">
        <ele>613.6</ele>
        <time>2019-08-04T06:53:16.000Z</time>
      </trkpt>
      <trkpt lat="43.37909" lon="2.21408">
        <ele>613.6</ele>
        <time>2019-08-04T06:53:17.000Z</time>
      </trkpt>
      <trkpt lat="43.37909" lon="2.21408">
        <ele>613.6</ele>
        <time>2019-08-04T06:53:18.000Z</time>
      </trkpt>
      <trkpt lat="43.37909" lon="2.21408">
        <ele>613.6</ele>
        <time>2019-08-04T06:53:19.000Z</time>
      </trkpt>
      <trkpt lat="43.3791" lon="2.21407">
        <ele>613.6</ele>
        <time>2019-08-04T06:53:20.000Z</time>
      </trkpt>
      <trkpt lat="43.3791" lon="2.21407">
        <ele>613.7</ele>
        <time>2019-08-04T06:53:21.000Z</time>
      </trkpt>
      <trkpt lat="43.3791" lon="2.21406">
        <ele>613.7</ele>
        <time>2019-08-04T06:53:22.000Z</time>
      </trkpt>
      <trkpt lat="43.37911" lon="2.21405">
        <ele>613.8</ele>
        <time>2019-08-04T06:53:23.000Z</time>
      </trkpt>
      <trkpt lat="43.37911" lon="2.21404">
        <ele>613.9</ele>
        <time>2019-08-04T06:53:24.000Z</time>
      </trkpt>
      <trkpt lat="43.37912" lon="2.21403">
        <ele>614</ele>
        <time>2019-08-04T06:53:25.000Z</time>
      </trkpt>
      <trkpt lat="43.37913" lon="2.21401">
        <ele>614.1</ele>
        <time>2019-08-04T06:53:26.000Z</time>
      </trkpt>
      <trkpt lat="43.37914" lon="2.214">
        <ele>614.2</ele>
        <time>2019-08-04T06:53:27.000Z</time>
      </trkpt>
      <trkpt lat="43.37915" lon="2.21398">
        <ele>614.3</ele>
        <time>2019-08-04T06:53:28.000Z</time>
      </trkpt>
      <trkpt lat="43.37916" lon="2.21397">
        <ele>614.4</ele>
        <time>2019-08-04T06:53:29.000Z</time>
      </trkpt>
      <trkpt lat="43.37917" lon="2.21395">
        <ele>614.6</ele>
        <time>2019-08-04T06:53:30.000Z</time>
      </trkpt>
      <trkpt lat="43.37918" lon="2.21393">
        <ele>614.6</ele>
        <time>2019-08-04T06:53:31.000Z</time>
      </trkpt>
      <trkpt lat="43.3792" lon="2.21392">
        <ele>614.7</ele>
        <time>2019-08-04T06:53:32.000Z</time>
      </trkpt>
      <trkpt lat="43.37921" lon="2.2139">
        <ele>614.8</ele>
        <time>2019-08-04T06:53:33.000Z</time>
      </trkpt>
      <trkpt lat="43.37922" lon="2.21388">
        <ele>614.9</ele>
        <time>2019-08-04T06:53:34.000Z</time>
      </trkpt>
      <trkpt lat="43.37924" lon="2.21386">
        <ele>615</ele>
        <time>2019-08-04T06:53:35.000Z</time>
      </trkpt>
      <trkpt lat="43.37925" lon="2.21385">
        <ele>615.1</ele>
        <time>2019-08-04T06:53:36.000Z</time>
      </trkpt>
      <trkpt lat="43.37927" lon="2.21383">
        <ele>615.1</ele>
        <time>2019-08-04T06:53:37.000Z</time>
      </trkpt>
      <trkpt lat="43.37928" lon="2.21381">
        <ele>615.2</ele>
        <time>2019-08-04T06:53:38.000Z</time>
      </trkpt>
      <trkpt lat="43.3793" lon="2.2138">
        <ele>615.3</ele>
        <time>2019-08-04T06:53:39.000Z</time>
      </trkpt>
      <trkpt lat="43.37931" lon="2.21379">
        <ele>615.4</ele>
        <time>2019-08-04T06:53:40.000Z</time>
      </trkpt>
      <trkpt lat="43.37932" lon="2.21377">
        <ele>615.5</ele>
        <time>2019-08-04T06:53:41.000Z</time>
      </trkpt>
      <trkpt lat="43.37934" lon="2.21376">
        <ele>615.5</ele>
        <time>2019-08-04T06:53:42.000Z</time>
      </trkpt>
      <trkpt lat="43.37935" lon="2.21375">
        <ele>615.6</ele>
        <time>2019-08-04T06:53:43.000Z</time>
      </trkpt>
      <trkpt lat="43.37936" lon="2.21374">
        <ele>615.6</ele>
        <time>2019-08-04T06:53:44.000Z</time>
      </trkpt>
      <trkpt lat="43.37938" lon="2.21373">
        <ele>615.7</ele>
        <time>2019-08-04T06:53:45.000Z</time>
      </trkpt>
      <trkpt lat="43.37939" lon="2.21372">
        <ele>615.7</ele>
        <time>2019-08-04T06:53:46.000Z</time>
      </trkpt>
      <trkpt lat="43.3794" lon="2.21372">
        <ele>615.7</ele>
        <time>2019-08-04T06:53:47.000Z</time>
      </trkpt>
      <trkpt lat="43.37941" lon="2.21371">
        <ele>615.8</ele>
        <time>2019-08-04T06:53:48.000Z</time>
      </trkpt>
      <trkpt lat="43.37941" lon="2.2137">
        <ele>615.8</ele>
        <time>2019-08-04T06:53:49.000Z</time>
      </trkpt>
      <trkpt lat="43.37942" lon="2.2137">
        <ele>615.9</ele>
        <time>2019-08-04T06:53:50.000Z</time>
      </trkpt>
      <trkpt lat="43.37943" lon="2.21369">
        <ele>615.9</ele>
        <time>2019-08-04T06:53:51.000Z</time>
      </trkpt>
      <trkpt lat="43.37943" lon="2.21369">
        <ele>615.9</ele>
        <time>2019-08-04T06:53:52.000Z</time>
      </trkpt>
      <trkpt lat="43.37943" lon="2.21368">
        <ele>615.9</ele>
        <time>2019-08-04T06:53:53.000Z</time>
      </trkpt>
      <trkpt lat="43.37944" lon="2.21368">
        <ele>616</ele>
        <time>2019-08-04T06:53:54.000Z</time>
      </trkpt>
      <trkpt lat="43.37946" lon="2.21367">
        <ele>616</ele>
        <time>2019-08-04T06:53:55.000Z</time>
      </trkpt>
      <trkpt lat="43.37948" lon="2.21365">
        <ele>616.1</ele>
        <time>2019-08-04T06:53:56.000Z</time>
      </trkpt>
      <trkpt lat="43.37949" lon="2.21364">
        <ele>616.2</ele>
        <time>2019-08-04T06:53:57.000Z</time>
      </trkpt>
      <trkpt lat="43.37951" lon="2.21364">
        <ele>616.2</ele>
        <time>2019-08-04T06:53:58.000Z</time>
      </trkpt>
      <trkpt lat="43.37952" lon="2.21363">
        <ele>616.3</ele>
        <time>2019-08-04T06:53:59.000Z</time>
      </trkpt>
      <trkpt lat="43.37952" lon="2.21363">
        <ele>616.3</ele>
        <time>2019-08-04T06:54:00.000Z</time>
      </trkpt>
      <trkpt lat="43.37953" lon="2.21363">
        <ele>616.3</ele>
        <time>2019-08-04T06:54:01.000Z</time>
      </trkpt>
      <trkpt lat="43.37953" lon="2.21363">
        <ele>616.3</ele>
        <time>2019-08-04T06:54:02.000Z</time>
      </trkpt>
      <trkpt lat="43.37954" lon="2.21363">
        <ele>616.3</ele>
        <time>2019-08-04T06:54:03.000Z</time>
      </trkpt>
      <trkpt lat="43.37954" lon="2.21362">
        <ele>616.3</ele>
        <time>2019-08-04T06:54:04.000Z</time>
      </trkpt>
      <trkpt lat="43.37955" lon="2.21362">
        <ele>616.3</ele>
        <time>2019-08-04T06:54:05.000Z</time>
      </trkpt>
      <trkpt lat="43.37955" lon="2.21363">
        <ele>616.2</ele>
        <time>2019-08-04T06:54:06.000Z</time>
      </trkpt>
      <trkpt lat="43.37957" lon="2.21363">
        <ele>616.2</ele>
        <time>2019-08-04T06:54:07.000Z</time>
      </trkpt>
      <trkpt lat="43.37958" lon="2.21363">
        <ele>616.2</ele>
        <time>2019-08-04T06:54:08.000Z</time>
      </trkpt>
      <trkpt lat="43.37959" lon="2.21364">
        <ele>616.1</ele>
        <time>2019-08-04T06:54:09.000Z</time>
      </trkpt>
      <trkpt lat="43.37961" lon="2.21364">
        <ele>616</ele>
        <time>2019-08-04T06:54:10.000Z</time>
      </trkpt>
      <trkpt lat="43.37962" lon="2.21365">
        <ele>615.9</ele>
        <time>2019-08-04T06:54:11.000Z</time>
      </trkpt>
      <trkpt lat="43.37964" lon="2.21366">
        <ele>615.7</ele>
        <time>2019-08-04T06:54:12.000Z</time>
      </trkpt>
      <trkpt lat="43.37965" lon="2.21368">
        <ele>615.6</ele>
        <time>2019-08-04T06:54:13.000Z</time>
      </trkpt>
      <trkpt lat="43.37967" lon="2.21369">
        <ele>615.4</ele>
        <time>2019-08-04T06:54:14.000Z</time>
      </trkpt>
      <trkpt lat="43.37968" lon="2.21371">
        <ele>615.2</ele>
        <time>2019-08-04T06:54:15.000Z</time>
      </trkpt>
      <trkpt lat="43.3797" lon="2.21373">
        <ele>615</ele>
        <time>2019-08-04T06:54:16.000Z</time>
      </trkpt>
      <trkpt lat="43.37972" lon="2.21374">
        <ele>614.7</ele>
        <time>2019-08-04T06:54:17.000Z</time>
      </trkpt>
      <trkpt lat="43.37975" lon="2.21376">
        <ele>614.5</ele>
        <time>2019-08-04T06:54:18.000Z</time>
      </trkpt>
      <trkpt lat="43.37977" lon="2.21378">
        <ele>614.2</ele>
        <time>2019-08-04T06:54:19.000Z</time>
      </trkpt>
      <trkpt lat="43.37981" lon="2.2138">
        <ele>613.9</ele>
        <time>2019-08-04T06:54:20.000Z</time>
      </trkpt>
      <trkpt lat="43.37985" lon="2.21382">
        <ele>613.6</ele>
        <time>2019-08-04T06:54:21.000Z</time>
      </trkpt>
      <trkpt lat="43.37989" lon="2.21383">
        <ele>613.3</ele>
        <time>2019-08-04T06:54:22.000Z</time>
      </trkpt>
      <trkpt lat="43.37993" lon="2.21385">
        <ele>613</ele>
        <time>2019-08-04T06:54:23.000Z</time>
      </trkpt>
      <trkpt lat="43.37997" lon="2.21387">
        <ele>612.6</ele>
        <time>2019-08-04T06:54:24.000Z</time>
      </trkpt>
      <trkpt lat="43.38002" lon="2.21389">
        <ele>612.3</ele>
        <time>2019-08-04T06:54:25.000Z</time>
      </trkpt>
      <trkpt lat="43.38007" lon="2.21392">
        <ele>612.1</ele>
        <time>2019-08-04T06:54:26.000Z</time>
      </trkpt>
      <trkpt lat="43.38012" lon="2.21394">
        <ele>611.9</ele>
        <time>2019-08-04T06:54:27.000Z</time>
      </trkpt>
      <trkpt lat="43.38017" lon="2.21396">
        <ele>611.7</ele>
        <time>2019-08-04T06:54:28.000Z</time>
      </trkpt>
      <trkpt lat="43.3802" lon="2.21397">
        <ele>611.6</ele>
        <time>2019-08-04T06:54:29.000Z</time>
      </trkpt>
      <trkpt lat="43.38024" lon="2.21399">
        <ele>611.5</ele>
        <time>2019-08-04T06:54:30.000Z</time>
      </trkpt>
      <trkpt lat="43.38026" lon="2.21399">
        <ele>611.4</ele>
        <time>2019-08-04T06:54:31.000Z</time>
      </trkpt>
      <trkpt lat="43.38029" lon="2.214">
        <ele>611.4</ele>
        <time>2019-08-04T06:54:32.000Z</time>
      </trkpt>
      <trkpt lat="43.38031" lon="2.214">
        <ele>611.3</ele>
        <time>2019-08-04T06:54:33.000Z</time>
      </trkpt>
      <trkpt lat="43.38032" lon="2.214">
        <ele>611.4</ele>
        <time>2019-08-04T06:54:34.000Z</time>
      </trkpt>
      <trkpt lat="43.38034" lon="2.214">
        <ele>611.4</ele>
        <time>2019-08-04T06:54:35.000Z</time>
      </trkpt>
      <trkpt lat="43.38036" lon="2.214">
        <ele>611.5</ele>
        <time>2019-08-04T06:54:36.000Z</time>
      </trkpt>
      <trkpt lat="43.38038" lon="2.21399">
        <ele>611.5</ele>
        <time>2019-08-04T06:54:37.000Z</time>
      </trkpt>
      <trkpt lat="43.38039" lon="2.21399">
        <ele>611.6</ele>
        <time>2019-08-04T06:54:38.000Z</time>
      </trkpt>
      <trkpt lat="43.38041" lon="2.21399">
        <ele>611.7</ele>
        <time>2019-08-04T06:54:39.000Z</time>
      </trkpt>
      <trkpt lat="43.38043" lon="2.21398">
        <ele>611.7</ele>
        <time>2019-08-04T06:54:40.000Z</time>
      </trkpt>
      <trkpt lat="43.38044" lon="2.21398">
        <ele>611.8</ele>
        <time>2019-08-04T06:54:41.000Z</time>
      </trkpt>
      <trkpt lat="43.38046" lon="2.21398">
        <ele>611.8</ele>
        <time>2019-08-04T06:54:42.000Z</time>
      </trkpt>
      <trkpt lat="43.38048" lon="2.21397">
        <ele>611.9</ele>
        <time>2019-08-04T06:54:43.000Z</time>
      </trkpt>
      <trkpt lat="43.38049" lon="2.21397">
        <ele>611.9</ele>
        <time>2019-08-04T06:54:44.000Z</time>
      </trkpt>
      <trkpt lat="43.38051" lon="2.21397">
        <ele>612</ele>
        <time>2019-08-04T06:54:45.000Z</time>
      </trkpt>
      <trkpt lat="43.38052" lon="2.21397">
        <ele>612</ele>
        <time>2019-08-04T06:54:46.000Z</time>
      </trkpt>
      <trkpt lat="43.38054" lon="2.21397">
        <ele>612</ele>
        <time>2019-08-04T06:54:47.000Z</time>
      </trkpt>
      <trkpt lat="43.38055" lon="2.21396">
        <ele>612.1</ele>
        <time>2019-08-04T06:54:48.000Z</time>
      </trkpt>
      <trkpt lat="43.38057" lon="2.21396">
        <ele>612.2</ele>
        <time>2019-08-04T06:54:49.000Z</time>
      </trkpt>
      <trkpt lat="43.38058" lon="2.21395">
        <ele>612.3</ele>
        <time>2019-08-04T06:54:50.000Z</time>
      </trkpt>
      <trkpt lat="43.3806" lon="2.21394">
        <ele>612.4</ele>
        <time>2019-08-04T06:54:51.000Z</time>
      </trkpt>
      <trkpt lat="43.38061" lon="2.21393">
        <ele>612.5</ele>
        <time>2019-08-04T06:54:52.000Z</time>
      </trkpt>
      <trkpt lat="43.38062" lon="2.21392">
        <ele>612.7</ele>
        <time>2019-08-04T06:54:53.000Z</time>
      </trkpt>
      <trkpt lat="43.38063" lon="2.21391">
        <ele>612.8</ele>
        <time>2019-08-04T06:54:54.000Z</time>
      </trkpt>
      <trkpt lat="43.38065" lon="2.2139">
        <ele>613</ele>
        <time>2019-08-04T06:54:55.000Z</time>
      </trkpt>
      <trkpt lat="43.38066" lon="2.21389">
        <ele>613.1</ele>
        <time>2019-08-04T06:54:56.000Z</time>
      </trkpt>
      <trkpt lat="43.38067" lon="2.21388">
        <ele>613.3</ele>
        <time>2019-08-04T06:54:57.000Z</time>
      </trkpt>
      <trkpt lat="43.38069" lon="2.21387">
        <ele>613.4</ele>
        <time>2019-08-04T06:54:58.000Z</time>
      </trkpt>
      <trkpt lat="43.3807" lon="2.21386">
        <ele>613.5</ele>
        <time>2019-08-04T06:54:59.000Z</time>
      </trkpt>
      <trkpt lat="43.38071" lon="2.21385">
        <ele>613.6</ele>
        <time>2019-08-04T06:55:00.000Z</time>
      </trkpt>
      <trkpt lat="43.38073" lon="2.21384">
        <ele>613.7</ele>
        <time>2019-08-04T06:55:01.000Z</time>
      </trkpt>
      <trkpt lat="43.38074" lon="2.21384">
        <ele>613.8</ele>
        <time>2019-08-04T06:55:02.000Z</time>
      </trkpt>
      <trkpt lat="43.38075" lon="2.21383">
        <ele>613.9</ele>
        <time>2019-08-04T06:55:03.000Z</time>
      </trkpt>
      <trkpt lat="43.38076" lon="2.21383">
        <ele>614</ele>
        <time>2019-08-04T06:55:04.000Z</time>
      </trkpt>
      <trkpt lat="43.38077" lon="2.21382">
        <ele>614</ele>
        <time>2019-08-04T06:55:05.000Z</time>
      </trkpt>
      <trkpt lat="43.38078" lon="2.21382">
        <ele>614.1</ele>
        <time>2019-08-04T06:55:06.000Z</time>
      </trkpt>
      <trkpt lat="43.38079" lon="2.21382">
        <ele>614.1</ele>
        <time>2019-08-04T06:55:07.000Z</time>
      </trkpt>
      <trkpt lat="43.38079" lon="2.21382">
        <ele>614.1</ele>
        <time>2019-08-04T06:55:08.000Z</time>
      </trkpt>
      <trkpt lat="43.3808" lon="2.21382">
        <ele>614.1</ele>
        <time>2019-08-04T06:55:09.000Z</time>
      </trkpt>
      <trkpt lat="43.3808" lon="2.21382">
        <ele>614.1</ele>
        <time>2019-08-04T06:55:10.000Z</time>
      </trkpt>
      <trkpt lat="43.3808" lon="2.21382">
        <ele>614.1</ele>
        <time>2019-08-04T06:55:11.000Z</time>
      </trkpt>
      <trkpt lat="43.3808" lon="2.21382">
        <ele>614.1</ele>
        <time>2019-08-04T06:55:12.000Z</time>
      </trkpt>
      <trkpt lat="43.3808" lon="2.21382">
        <ele>614.1</ele>
        <time>2019-08-04T06:55:13.000Z</time>
      </trkpt>
      <trkpt lat="43.38082" lon="2.21383">
        <ele>614</ele>
        <time>2019-08-04T06:55:14.000Z</time>
      </trkpt>
      <trkpt lat="43.38084" lon="2.21383">
        <ele>614</ele>
        <time>2019-08-04T06:55:15.000Z</time>
      </trkpt>
      <trkpt lat="43.38084" lon="2.21384">
        <ele>614</ele>
        <time>2019-08-04T06:55:16.000Z</time>
      </trkpt>
      <trkpt lat="43.38085" lon="2.21384">
        <ele>614</ele>
        <time>2019-08-04T06:55:17.000Z</time>
      </trkpt>
      <trkpt lat="43.38086" lon="2.21384">
        <ele>614</ele>
        <time>2019-08-04T06:55:18.000Z</time>
      </trkpt>
      <trkpt lat="43.38087" lon="2.21385">
        <ele>614</ele>
        <time>2019-08-04T06:55:19.000Z</time>
      </trkpt>
      <trkpt lat="43.38088" lon="2.21385">
        <ele>614</ele>
        <time>2019-08-04T06:55:20.000Z</time>
      </trkpt>
      <trkpt lat="43.38088" lon="2.21385">
        <ele>614</ele>
        <time>2019-08-04T06:55:21.000Z</time>
      </trkpt>
      <trkpt lat="43.38088" lon="2.21385">
        <ele>614</ele>
        <time>2019-08-04T06:55:22.000Z</time>
      </trkpt>
      <trkpt lat="43.38088" lon="2.21385">
        <ele>614</ele>
        <time>2019-08-04T06:55:23.000Z</time>
      </trkpt>
      <trkpt lat="43.38088" lon="2.21385">
        <ele>614</ele>
        <time>2019-08-04T06:55:24.000Z</time>
      </trkpt>
      <trkpt lat="43.38089" lon="2.21385">
        <ele>614</ele>
        <time>2019-08-04T06:55:25.000Z</time>
      </trkpt>
      <trkpt lat="43.38089" lon="2.21385">
        <ele>614</ele>
        <time>2019-08-04T06:55:26.000Z</time>
      </trkpt>
      <trkpt lat="43.38089" lon="2.21385">
        <ele>614</ele>
        <time>2019-08-04T06:55:27.000Z</time>
      </trkpt>
      <trkpt lat="43.3809" lon="2.21385">
        <ele>614</ele>
        <time>2019-08-04T06:55:28.000Z</time>
      </trkpt>
      <trkpt lat="43.38091" lon="2.21385">
        <ele>614</ele>
        <time>2019-08-04T06:55:29.000Z</time>
      </trkpt>
      <trkpt lat="43.38092" lon="2.21386">
        <ele>614.1</ele>
        <time>2019-08-04T06:55:30.000Z</time>
      </trkpt>
      <trkpt lat="43.38093" lon="2.21386">
        <ele>614.1</ele>
        <time>2019-08-04T06:55:31.000Z</time>
      </trkpt>
      <trkpt lat="43.38094" lon="2.21386">
        <ele>614.1</ele>
        <time>2019-08-04T06:55:32.000Z</time>
      </trkpt>
      <trkpt lat="43.38095" lon="2.21386">
        <ele>614.1</ele>
        <time>2019-08-04T06:55:33.000Z</time>
      </trkpt>
      <trkpt lat="43.38095" lon="2.21387">
        <ele>614</ele>
        <time>2019-08-04T06:55:34.000Z</time>
      </trkpt>
      <trkpt lat="43.38096" lon="2.21388">
        <ele>614</ele>
        <time>2019-08-04T06:55:35.000Z</time>
      </trkpt>
      <trkpt lat="43.38097" lon="2.21388">
        <ele>613.9</ele>
        <time>2019-08-04T06:55:36.000Z</time>
      </trkpt>
      <trkpt lat="43.38098" lon="2.21389">
        <ele>613.9</ele>
        <time>2019-08-04T06:55:37.000Z</time>
      </trkpt>
      <trkpt lat="43.38098" lon="2.2139">
        <ele>613.8</ele>
        <time>2019-08-04T06:55:38.000Z</time>
      </trkpt>
      <trkpt lat="43.38099" lon="2.21392">
        <ele>613.7</ele>
        <time>2019-08-04T06:55:39.000Z</time>
      </trkpt>
      <trkpt lat="43.381" lon="2.21393">
        <ele>613.5</ele>
        <time>2019-08-04T06:55:40.000Z</time>
      </trkpt>
      <trkpt lat="43.38101" lon="2.21394">
        <ele>613.4</ele>
        <time>2019-08-04T06:55:41.000Z</time>
      </trkpt>
      <trkpt lat="43.38101" lon="2.21396">
        <ele>613.3</ele>
        <time>2019-08-04T06:55:42.000Z</time>
      </trkpt>
      <trkpt lat="43.38102" lon="2.21397">
        <ele>613.2</ele>
        <time>2019-08-04T06:55:43.000Z</time>
      </trkpt>
      <trkpt lat="43.38103" lon="2.21398">
        <ele>613</ele>
        <time>2019-08-04T06:55:44.000Z</time>
      </trkpt>
      <trkpt lat="43.38104" lon="2.214">
        <ele>612.9</ele>
        <time>2019-08-04T06:55:45.000Z</time>
      </trkpt>
      <trkpt lat="43.38106" lon="2.21401">
        <ele>612.8</ele>
        <time>2019-08-04T06:55:46.000Z</time>
      </trkpt>
      <trkpt lat="43.38107" lon="2.21402">
        <ele>612.8</ele>
        <time>2019-08-04T06:55:47.000Z</time>
      </trkpt>
      <trkpt lat="43.38109" lon="2.21404">
        <ele>612.7</ele>
        <time>2019-08-04T06:55:48.000Z</time>
      </trkpt>
      <trkpt lat="43.38111" lon="2.21405">
        <ele>612.7</ele>
        <time>2019-08-04T06:55:49.000Z</time>
      </trkpt>
      <trkpt lat="43.38113" lon="2.21406">
        <ele>612.7</ele>
        <time>2019-08-04T06:55:50.000Z</time>
      </trkpt>
      <trkpt lat="43.38116" lon="2.21406">
        <ele>612.7</ele>
        <time>2019-08-04T06:55:51.000Z</time>
      </trkpt>
      <trkpt lat="43.38118" lon="2.21407">
        <ele>612.7</ele>
        <time>2019-08-04T06:55:52.000Z</time>
      </trkpt>
      <trkpt lat="43.3812" lon="2.21408">
        <ele>612.7</ele>
        <time>2019-08-04T06:55:53.000Z</time>
      </trkpt>
      <trkpt lat="43.38122" lon="2.21409">
        <ele>612.6</ele>
        <time>2019-08-04T06:55:54.000Z</time>
      </trkpt>
      <trkpt lat="43.38124" lon="2.2141">
        <ele>612.7</ele>
        <time>2019-08-04T06:55:55.000Z</time>
      </trkpt>
      <trkpt lat="43.38127" lon="2.21411">
        <ele>612.7</ele>
        <time>2019-08-04T06:55:56.000Z</time>
      </trkpt>
      <trkpt lat="43.38129" lon="2.21411">
        <ele>612.8</ele>
        <time>2019-08-04T06:55:57.000Z</time>
      </trkpt>
      <trkpt lat="43.38132" lon="2.21411">
        <ele>612.9</ele>
        <time>2019-08-04T06:55:58.000Z</time>
      </trkpt>
      <trkpt lat="43.38134" lon="2.21411">
        <ele>613</ele>
        <time>2019-08-04T06:55:59.000Z</time>
      </trkpt>
      <trkpt lat="43.38137" lon="2.21412">
        <ele>613</ele>
        <time>2019-08-04T06:56:00.000Z</time>
      </trkpt>
      <trkpt lat="43.38139" lon="2.21414">
        <ele>613</ele>
        <time>2019-08-04T06:56:01.000Z</time>
      </trkpt>
      <trkpt lat="43.38141" lon="2.21416">
        <ele>612.9</ele>
        <time>2019-08-04T06:56:02.000Z</time>
      </trkpt>
      <trkpt lat="43.38143" lon="2.21417">
        <ele>612.9</ele>
        <time>2019-08-04T06:56:03.000Z</time>
      </trkpt>
      <trkpt lat="43.38145" lon="2.21419">
        <ele>612.9</ele>
        <time>2019-08-04T06:56:04.000Z</time>
      </trkpt>
      <trkpt lat="43.38147" lon="2.21421">
        <ele>613</ele>
        <time>2019-08-04T06:56:05.000Z</time>
      </trkpt>
      <trkpt lat="43.38148" lon="2.21423">
        <ele>613</ele>
        <time>2019-08-04T06:56:06.000Z</time>
      </trkpt>
      <trkpt lat="43.3815" lon="2.21424">
        <ele>613.1</ele>
        <time>2019-08-04T06:56:07.000Z</time>
      </trkpt>
      <trkpt lat="43.38151" lon="2.21426">
        <ele>613.1</ele>
        <time>2019-08-04T06:56:08.000Z</time>
      </trkpt>
      <trkpt lat="43.38153" lon="2.21428">
        <ele>613.2</ele>
        <time>2019-08-04T06:56:09.000Z</time>
      </trkpt>
      <trkpt lat="43.38154" lon="2.21429">
        <ele>613.2</ele>
        <time>2019-08-04T06:56:10.000Z</time>
      </trkpt>
      <trkpt lat="43.38156" lon="2.21431">
        <ele>613.2</ele>
        <time>2019-08-04T06:56:11.000Z</time>
      </trkpt>
      <trkpt lat="43.38157" lon="2.21433">
        <ele>613.3</ele>
        <time>2019-08-04T06:56:12.000Z</time>
      </trkpt>
      <trkpt lat="43.38159" lon="2.21434">
        <ele>613.3</ele>
        <time>2019-08-04T06:56:13.000Z</time>
      </trkpt>
      <trkpt lat="43.3816" lon="2.21436">
        <ele>613.3</ele>
        <time>2019-08-04T06:56:14.000Z</time>
      </trkpt>
      <trkpt lat="43.38162" lon="2.21437">
        <ele>613.3</ele>
        <time>2019-08-04T06:56:15.000Z</time>
      </trkpt>
      <trkpt lat="43.38163" lon="2.21439">
        <ele>613.4</ele>
        <time>2019-08-04T06:56:16.000Z</time>
      </trkpt>
      <trkpt lat="43.38165" lon="2.2144">
        <ele>613.4</ele>
        <time>2019-08-04T06:56:17.000Z</time>
      </trkpt>
      <trkpt lat="43.38166" lon="2.21441">
        <ele>613.4</ele>
        <time>2019-08-04T06:56:18.000Z</time>
      </trkpt>
      <trkpt lat="43.38168" lon="2.21443">
        <ele>613.4</ele>
        <time>2019-08-04T06:56:19.000Z</time>
      </trkpt>
      <trkpt lat="43.38169" lon="2.21444">
        <ele>613.4</ele>
        <time>2019-08-04T06:56:20.000Z</time>
      </trkpt>
      <trkpt lat="43.3817" lon="2.21445">
        <ele>613.5</ele>
        <time>2019-08-04T06:56:21.000Z</time>
      </trkpt>
      <trkpt lat="43.38172" lon="2.21446">
        <ele>613.5</ele>
        <time>2019-08-04T06:56:22.000Z</time>
      </trkpt>
      <trkpt lat="43.38173" lon="2.21447">
        <ele>613.5</ele>
        <time>2019-08-04T06:56:23.000Z</time>
      </trkpt>
      <trkpt lat="43.38174" lon="2.21448">
        <ele>613.5</ele>
        <time>2019-08-04T06:56:24.000Z</time>
      </trkpt>
      <trkpt lat="43.38175" lon="2.21448">
        <ele>613.6</ele>
        <time>2019-08-04T06:56:25.000Z</time>
      </trkpt>
      <trkpt lat="43.38176" lon="2.21449">
        <ele>613.6</ele>
        <time>2019-08-04T06:56:26.000Z</time>
      </trkpt>
      <trkpt lat="43.38177" lon="2.21449">
        <ele>613.6</ele>
        <time>2019-08-04T06:56:27.000Z</time>
      </trkpt>
      <trkpt lat="43.38178" lon="2.2145">
        <ele>613.7</ele>
        <time>2019-08-04T06:56:28.000Z</time>
      </trkpt>
      <trkpt lat="43.3818" lon="2.2145">
        <ele>613.7</ele>
        <time>2019-08-04T06:56:29.000Z</time>
      </trkpt>
      <trkpt lat="43.38181" lon="2.21451">
        <ele>613.7</ele>
        <time>2019-08-04T06:56:30.000Z</time>
      </trkpt>
      <trkpt lat="43.38182" lon="2.21451">
        <ele>613.7</ele>
        <time>2019-08-04T06:56:31.000Z</time>
      </trkpt>
      <trkpt lat="43.38183" lon="2.21452">
        <ele>613.8</ele>
        <time>2019-08-04T06:56:32.000Z</time>
      </trkpt>
      <trkpt lat="43.38185" lon="2.21453">
        <ele>613.8</ele>
        <time>2019-08-04T06:56:33.000Z</time>
      </trkpt>
      <trkpt lat="43.38186" lon="2.21453">
        <ele>613.8</ele>
        <time>2019-08-04T06:56:34.000Z</time>
      </trkpt>
      <trkpt lat="43.38188" lon="2.21454">
        <ele>613.9</ele>
        <time>2019-08-04T06:56:35.000Z</time>
      </trkpt>
      <trkpt lat="43.38189" lon="2.21455">
        <ele>613.9</ele>
        <time>2019-08-04T06:56:36.000Z</time>
      </trkpt>
      <trkpt lat="43.38191" lon="2.21457">
        <ele>613.9</ele>
        <time>2019-08-04T06:56:37.000Z</time>
      </trkpt>
      <trkpt lat="43.38192" lon="2.21458">
        <ele>613.9</ele>
        <time>2019-08-04T06:56:38.000Z</time>
      </trkpt>
      <trkpt lat="43.38194" lon="2.21459">
        <ele>613.9</ele>
        <time>2019-08-04T06:56:39.000Z</time>
      </trkpt>
      <trkpt lat="43.38195" lon="2.21461">
        <ele>613.9</ele>
        <time>2019-08-04T06:56:40.000Z</time>
      </trkpt>
      <trkpt lat="43.38196" lon="2.21462">
        <ele>613.9</ele>
        <time>2019-08-04T06:56:41.000Z</time>
      </trkpt>
      <trkpt lat="43.38197" lon="2.21463">
        <ele>613.9</ele>
        <time>2019-08-04T06:56:42.000Z</time>
      </trkpt>
      <trkpt lat="43.38198" lon="2.21465">
        <ele>613.9</ele>
        <time>2019-08-04T06:56:43.000Z</time>
      </trkpt>
      <trkpt lat="43.382" lon="2.21465">
        <ele>613.9</ele>
        <time>2019-08-04T06:56:44.000Z</time>
      </trkpt>
      <trkpt lat="43.38201" lon="2.21466">
        <ele>614</ele>
        <time>2019-08-04T06:56:45.000Z</time>
      </trkpt>
      <trkpt lat="43.38203" lon="2.21467">
        <ele>614</ele>
        <time>2019-08-04T06:56:46.000Z</time>
      </trkpt>
      <trkpt lat="43.38205" lon="2.21468">
        <ele>614.1</ele>
        <time>2019-08-04T06:56:47.000Z</time>
      </trkpt>
      <trkpt lat="43.38207" lon="2.21469">
        <ele>614.1</ele>
        <time>2019-08-04T06:56:48.000Z</time>
      </trkpt>
      <trkpt lat="43.38209" lon="2.2147">
        <ele>614.1</ele>
        <time>2019-08-04T06:56:49.000Z</time>
      </trkpt>
      <trkpt lat="43.38211" lon="2.21471">
        <ele>614.1</ele>
        <time>2019-08-04T06:56:50.000Z</time>
      </trkpt>
      <trkpt lat="43.38213" lon="2.21472">
        <ele>614.1</ele>
        <time>2019-08-04T06:56:51.000Z</time>
      </trkpt>
      <trkpt lat="43.38215" lon="2.21473">
        <ele>614.2</ele>
        <time>2019-08-04T06:56:52.000Z</time>
      </trkpt>
      <trkpt lat="43.38216" lon="2.21474">
        <ele>614.2</ele>
        <time>2019-08-04T06:56:53.000Z</time>
      </trkpt>
      <trkpt lat="43.38218" lon="2.21475">
        <ele>614.2</ele>
        <time>2019-08-04T06:56:54.000Z</time>
      </trkpt>
      <trkpt lat="43.3822" lon="2.21476">
        <ele>614.2</ele>
        <time>2019-08-04T06:56:55.000Z</time>
      </trkpt>
      <trkpt lat="43.38222" lon="2.21477">
        <ele>614.2</ele>
        <time>2019-08-04T06:56:56.000Z</time>
      </trkpt>
      <trkpt lat="43.38223" lon="2.21477">
        <ele>614.3</ele>
        <time>2019-08-04T06:56:57.000Z</time>
      </trkpt>
      <trkpt lat="43.38225" lon="2.21477">
        <ele>614.3</ele>
        <time>2019-08-04T06:56:58.000Z</time>
      </trkpt>
      <trkpt lat="43.38227" lon="2.21477">
        <ele>614.4</ele>
        <time>2019-08-04T06:56:59.000Z</time>
      </trkpt>
      <trkpt lat="43.38229" lon="2.21477">
        <ele>614.4</ele>
        <time>2019-08-04T06:57:00.000Z</time>
      </trkpt>
      <trkpt lat="43.38231" lon="2.21477">
        <ele>614.5</ele>
        <time>2019-08-04T06:57:01.000Z</time>
      </trkpt>
      <trkpt lat="43.38233" lon="2.21477">
        <ele>614.6</ele>
        <time>2019-08-04T06:57:02.000Z</time>
      </trkpt>
      <trkpt lat="43.38235" lon="2.21476">
        <ele>614.7</ele>
        <time>2019-08-04T06:57:03.000Z</time>
      </trkpt>
      <trkpt lat="43.38237" lon="2.21475">
        <ele>614.8</ele>
        <time>2019-08-04T06:57:04.000Z</time>
      </trkpt>
      <trkpt lat="43.38239" lon="2.21474">
        <ele>614.9</ele>
        <time>2019-08-04T06:57:05.000Z</time>
      </trkpt>
      <trkpt lat="43.38241" lon="2.21473">
        <ele>615</ele>
        <time>2019-08-04T06:57:06.000Z</time>
      </trkpt>
      <trkpt lat="43.38243" lon="2.21472">
        <ele>615.1</ele>
        <time>2019-08-04T06:57:07.000Z</time>
      </trkpt>
      <trkpt lat="43.38245" lon="2.21471">
        <ele>615.2</ele>
        <time>2019-08-04T06:57:08.000Z</time>
      </trkpt>
      <trkpt lat="43.38247" lon="2.2147">
        <ele>615.4</ele>
        <time>2019-08-04T06:57:09.000Z</time>
      </trkpt>
      <trkpt lat="43.38249" lon="2.21468">
        <ele>615.5</ele>
        <time>2019-08-04T06:57:10.000Z</time>
      </trkpt>
      <trkpt lat="43.38251" lon="2.21467">
        <ele>615.6</ele>
        <time>2019-08-04T06:57:11.000Z</time>
      </trkpt>
      <trkpt lat="43.38253" lon="2.21466">
        <ele>615.7</ele>
        <time>2019-08-04T06:57:12.000Z</time>
      </trkpt>
      <trkpt lat="43.38254" lon="2.21464">
        <ele>615.8</ele>
        <time>2019-08-04T06:57:13.000Z</time>
      </trkpt>
      <trkpt lat="43.38255" lon="2.21463">
        <ele>615.9</ele>
        <time>2019-08-04T06:57:14.000Z</time>
      </trkpt>
      <trkpt lat="43.38257" lon="2.21462">
        <ele>615.9</ele>
        <time>2019-08-04T06:57:15.000Z</time>
      </trkpt>
      <trkpt lat="43.38258" lon="2.21461">
        <ele>616</ele>
        <time>2019-08-04T06:57:16.000Z</time>
      </trkpt>
      <trkpt lat="43.38259" lon="2.21461">
        <ele>616</ele>
        <time>2019-08-04T06:57:17.000Z</time>
      </trkpt>
      <trkpt lat="43.3826" lon="2.21461">
        <ele>616.1</ele>
        <time>2019-08-04T06:57:18.000Z</time>
      </trkpt>
      <trkpt lat="43.38262" lon="2.21461">
        <ele>616.1</ele>
        <time>2019-08-04T06:57:19.000Z</time>
      </trkpt>
      <trkpt lat="43.38263" lon="2.21462">
        <ele>616.1</ele>
        <time>2019-08-04T06:57:20.000Z</time>
      </trkpt>
      <trkpt lat="43.38264" lon="2.21462">
        <ele>616</ele>
        <time>2019-08-04T06:57:21.000Z</time>
      </trkpt>
      <trkpt lat="43.38265" lon="2.21463">
        <ele>616</ele>
        <time>2019-08-04T06:57:22.000Z</time>
      </trkpt>
      <trkpt lat="43.38266" lon="2.21464">
        <ele>616</ele>
        <time>2019-08-04T06:57:23.000Z</time>
      </trkpt>
      <trkpt lat="43.38267" lon="2.21464">
        <ele>616</ele>
        <time>2019-08-04T06:57:24.000Z</time>
      </trkpt>
      <trkpt lat="43.38268" lon="2.21464">
        <ele>616</ele>
        <time>2019-08-04T06:57:25.000Z</time>
      </trkpt>
      <trkpt lat="43.38269" lon="2.21464">
        <ele>616</ele>
        <time>2019-08-04T06:57:26.000Z</time>
      </trkpt>
      <trkpt lat="43.3827" lon="2.21465">
        <ele>616</ele>
        <time>2019-08-04T06:57:27.000Z</time>
      </trkpt>
      <trkpt lat="43.38271" lon="2.21466">
        <ele>616</ele>
        <time>2019-08-04T06:57:28.000Z</time>
      </trkpt>
      <trkpt lat="43.38273" lon="2.21467">
        <ele>616</ele>
        <time>2019-08-04T06:57:29.000Z</time>
      </trkpt>
      <trkpt lat="43.38274" lon="2.21469">
        <ele>615.9</ele>
        <time>2019-08-04T06:57:30.000Z</time>
      </trkpt>
      <trkpt lat="43.38276" lon="2.21471">
        <ele>615.8</ele>
        <time>2019-08-04T06:57:31.000Z</time>
      </trkpt>
      <trkpt lat="43.38278" lon="2.21472">
        <ele>615.8</ele>
        <time>2019-08-04T06:57:32.000Z</time>
      </trkpt>
      <trkpt lat="43.38281" lon="2.21473">
        <ele>615.8</ele>
        <time>2019-08-04T06:57:33.000Z</time>
      </trkpt>
      <trkpt lat="43.38283" lon="2.21474">
        <ele>615.8</ele>
        <time>2019-08-04T06:57:34.000Z</time>
      </trkpt>
      <trkpt lat="43.38286" lon="2.21475">
        <ele>615.8</ele>
        <time>2019-08-04T06:57:35.000Z</time>
      </trkpt>
      <trkpt lat="43.38288" lon="2.21475">
        <ele>615.8</ele>
        <time>2019-08-04T06:57:36.000Z</time>
      </trkpt>
      <trkpt lat="43.3829" lon="2.21475">
        <ele>615.8</ele>
        <time>2019-08-04T06:57:37.000Z</time>
      </trkpt>
      <trkpt lat="43.38293" lon="2.21475">
        <ele>615.9</ele>
        <time>2019-08-04T06:57:38.000Z</time>
      </trkpt>
      <trkpt lat="43.38295" lon="2.21475">
        <ele>615.9</ele>
        <time>2019-08-04T06:57:39.000Z</time>
      </trkpt>
      <trkpt lat="43.38297" lon="2.21475">
        <ele>615.9</ele>
        <time>2019-08-04T06:57:40.000Z</time>
      </trkpt>
      <trkpt lat="43.38299" lon="2.21475">
        <ele>615.9</ele>
        <time>2019-08-04T06:57:41.000Z</time>
      </trkpt>
      <trkpt lat="43.38301" lon="2.21475">
        <ele>616</ele>
        <time>2019-08-04T06:57:42.000Z</time>
      </trkpt>
      <trkpt lat="43.38302" lon="2.21476">
        <ele>616</ele>
        <time>2019-08-04T06:57:43.000Z</time>
      </trkpt>
      <trkpt lat="43.38304" lon="2.21476">
        <ele>616</ele>
        <time>2019-08-04T06:57:44.000Z</time>
      </trkpt>
      <trkpt lat="43.38305" lon="2.21476">
        <ele>616</ele>
        <time>2019-08-04T06:57:45.000Z</time>
      </trkpt>
      <trkpt lat="43.38306" lon="2.21477">
        <ele>616</ele>
        <time>2019-08-04T06:57:46.000Z</time>
      </trkpt>
      <trkpt lat="43.38308" lon="2.21477">
        <ele>616</ele>
        <time>2019-08-04T06:57:47.000Z</time>
      </trkpt>
      <trkpt lat="43.38309" lon="2.21477">
        <ele>616</ele>
        <time>2019-08-04T06:57:48.000Z</time>
      </trkpt>
      <trkpt lat="43.3831" lon="2.21478">
        <ele>616</ele>
        <time>2019-08-04T06:57:49.000Z</time>
      </trkpt>
      <trkpt lat="43.38311" lon="2.21478">
        <ele>616</ele>
        <time>2019-08-04T06:57:50.000Z</time>
      </trkpt>
      <trkpt lat="43.38312" lon="2.21479">
        <ele>616</ele>
        <time>2019-08-04T06:57:51.000Z</time>
      </trkpt>
      <trkpt lat="43.38313" lon="2.21479">
        <ele>615.9</ele>
        <time>2019-08-04T06:57:52.000Z</time>
      </trkpt>
      <trkpt lat="43.38314" lon="2.2148">
        <ele>615.9</ele>
        <time>2019-08-04T06:57:53.000Z</time>
      </trkpt>
      <trkpt lat="43.38315" lon="2.2148">
        <ele>615.9</ele>
        <time>2019-08-04T06:57:54.000Z</time>
      </trkpt>
      <trkpt lat="43.38317" lon="2.21481">
        <ele>615.9</ele>
        <time>2019-08-04T06:57:55.000Z</time>
      </trkpt>
      <trkpt lat="43.38318" lon="2.21482">
        <ele>615.9</ele>
        <time>2019-08-04T06:57:56.000Z</time>
      </trkpt>
      <trkpt lat="43.38319" lon="2.21482">
        <ele>615.9</ele>
        <time>2019-08-04T06:57:57.000Z</time>
      </trkpt>
      <trkpt lat="43.3832" lon="2.21483">
        <ele>615.8</ele>
        <time>2019-08-04T06:57:58.000Z</time>
      </trkpt>
      <trkpt lat="43.38322" lon="2.21484">
        <ele>615.8</ele>
        <time>2019-08-04T06:57:59.000Z</time>
      </trkpt>
      <trkpt lat="43.38323" lon="2.21485">
        <ele>615.8</ele>
        <time>2019-08-04T06:58:00.000Z</time>
      </trkpt>
      <trkpt lat="43.38324" lon="2.21485">
        <ele>615.7</ele>
        <time>2019-08-04T06:58:01.000Z</time>
      </trkpt>
      <trkpt lat="43.38326" lon="2.21486">
        <ele>615.7</ele>
        <time>2019-08-04T06:58:02.000Z</time>
      </trkpt>
      <trkpt lat="43.38327" lon="2.21487">
        <ele>615.7</ele>
        <time>2019-08-04T06:58:03.000Z</time>
      </trkpt>
      <trkpt lat="43.38328" lon="2.21488">
        <ele>615.6</ele>
        <time>2019-08-04T06:58:04.000Z</time>
      </trkpt>
      <trkpt lat="43.3833" lon="2.21489">
        <ele>615.6</ele>
        <time>2019-08-04T06:58:05.000Z</time>
      </trkpt>
      <trkpt lat="43.38331" lon="2.2149">
        <ele>615.6</ele>
        <time>2019-08-04T06:58:06.000Z</time>
      </trkpt>
      <trkpt lat="43.38333" lon="2.21491">
        <ele>615.5</ele>
        <time>2019-08-04T06:58:07.000Z</time>
      </trkpt>
      <trkpt lat="43.38334" lon="2.21492">
        <ele>615.5</ele>
        <time>2019-08-04T06:58:08.000Z</time>
      </trkpt>
      <trkpt lat="43.38336" lon="2.21493">
        <ele>615.5</ele>
        <time>2019-08-04T06:58:09.000Z</time>
      </trkpt>
      <trkpt lat="43.38337" lon="2.21495">
        <ele>615.4</ele>
        <time>2019-08-04T06:58:10.000Z</time>
      </trkpt>
      <trkpt lat="43.38339" lon="2.21496">
        <ele>615.4</ele>
        <time>2019-08-04T06:58:11.000Z</time>
      </trkpt>
      <trkpt lat="43.3834" lon="2.21497">
        <ele>615.4</ele>
        <time>2019-08-04T06:58:12.000Z</time>
      </trkpt>
      <trkpt lat="43.38341" lon="2.21499">
        <ele>615.4</ele>
        <time>2019-08-04T06:58:13.000Z</time>
      </trkpt>
      <trkpt lat="43.38342" lon="2.215">
        <ele>615.3</ele>
        <time>2019-08-04T06:58:14.000Z</time>
      </trkpt>
      <trkpt lat="43.38343" lon="2.21501">
        <ele>615.3</ele>
        <time>2019-08-04T06:58:15.000Z</time>
      </trkpt>
      <trkpt lat="43.38344" lon="2.21503">
        <ele>615.2</ele>
        <time>2019-08-04T06:58:16.000Z</time>
      </trkpt>
      <trkpt lat="43.38345" lon="2.21504">
        <ele>615.2</ele>
        <time>2019-08-04T06:58:17.000Z</time>
      </trkpt>
      <trkpt lat="43.38345" lon="2.21506">
        <ele>615.1</ele>
        <time>2019-08-04T06:58:18.000Z</time>
      </trkpt>
      <trkpt lat="43.38345" lon="2.21508">
        <ele>615</ele>
        <time>2019-08-04T06:58:19.000Z</time>
      </trkpt>
      <trkpt lat="43.38345" lon="2.21509">
        <ele>614.9</ele>
        <time>2019-08-04T06:58:20.000Z</time>
      </trkpt>
      <trkpt lat="43.38345" lon="2.21511">
        <ele>614.8</ele>
        <time>2019-08-04T06:58:21.000Z</time>
      </trkpt>
      <trkpt lat="43.38345" lon="2.21513">
        <ele>614.7</ele>
        <time>2019-08-04T06:58:22.000Z</time>
      </trkpt>
      <trkpt lat="43.38345" lon="2.21514">
        <ele>614.6</ele>
        <time>2019-08-04T06:58:23.000Z</time>
      </trkpt>
      <trkpt lat="43.38345" lon="2.21516">
        <ele>614.5</ele>
        <time>2019-08-04T06:58:24.000Z</time>
      </trkpt>
      <trkpt lat="43.38346" lon="2.21518">
        <ele>614.4</ele>
        <time>2019-08-04T06:58:25.000Z</time>
      </trkpt>
      <trkpt lat="43.38346" lon="2.2152">
        <ele>614.3</ele>
        <time>2019-08-04T06:58:26.000Z</time>
      </trkpt>
      <trkpt lat="43.38346" lon="2.21522">
        <ele>614.2</ele>
        <time>2019-08-04T06:58:27.000Z</time>
      </trkpt>
      <trkpt lat="43.38347" lon="2.21524">
        <ele>614.1</ele>
        <time>2019-08-04T06:58:28.000Z</time>
      </trkpt>
      <trkpt lat="43.38348" lon="2.21526">
        <ele>614</ele>
        <time>2019-08-04T06:58:29.000Z</time>
      </trkpt>
      <trkpt lat="43.38349" lon="2.21528">
        <ele>614</ele>
        <time>2019-08-04T06:58:30.000Z</time>
      </trkpt>
      <trkpt lat="43.3835" lon="2.2153">
        <ele>613.9</ele>
        <time>2019-08-04T06:58:31.000Z</time>
      </trkpt>
      <trkpt lat="43.38351" lon="2.21532">
        <ele>613.9</ele>
        <time>2019-08-04T06:58:32.000Z</time>
      </trkpt>
      <trkpt lat="43.38352" lon="2.21533">
        <ele>613.9</ele>
        <time>2019-08-04T06:58:33.000Z</time>
      </trkpt>
      <trkpt lat="43.38353" lon="2.21534">
        <ele>613.8</ele>
        <time>2019-08-04T06:58:34.000Z</time>
      </trkpt>
      <trkpt lat="43.38354" lon="2.21535">
        <ele>613.8</ele>
        <time>2019-08-04T06:58:35.000Z</time>
      </trkpt>
      <trkpt lat="43.38355" lon="2.21536">
        <ele>613.9</ele>
        <time>2019-08-04T06:58:36.000Z</time>
      </trkpt>
      <trkpt lat="43.38357" lon="2.21536">
        <ele>613.9</ele>
        <time>2019-08-04T06:58:37.000Z</time>
      </trkpt>
      <trkpt lat="43.38358" lon="2.21537">
        <ele>614</ele>
        <time>2019-08-04T06:58:38.000Z</time>
      </trkpt>
      <trkpt lat="43.3836" lon="2.21537">
        <ele>614</ele>
        <time>2019-08-04T06:58:39.000Z</time>
      </trkpt>
      <trkpt lat="43.38361" lon="2.21537">
        <ele>614.1</ele>
        <time>2019-08-04T06:58:40.000Z</time>
      </trkpt>
      <trkpt lat="43.38363" lon="2.21537">
        <ele>614.2</ele>
        <time>2019-08-04T06:58:41.000Z</time>
      </trkpt>
      <trkpt lat="43.38364" lon="2.21537">
        <ele>614.2</ele>
        <time>2019-08-04T06:58:42.000Z</time>
      </trkpt>
      <trkpt lat="43.38365" lon="2.21538">
        <ele>614.2</ele>
        <time>2019-08-04T06:58:43.000Z</time>
      </trkpt>
      <trkpt lat="43.38367" lon="2.21539">
        <ele>614.2</ele>
        <time>2019-08-04T06:58:44.000Z</time>
      </trkpt>
      <trkpt lat="43.38368" lon="2.2154">
        <ele>614.2</ele>
        <time>2019-08-04T06:58:45.000Z</time>
      </trkpt>
      <trkpt lat="43.38369" lon="2.21542">
        <ele>614.2</ele>
        <time>2019-08-04T06:58:46.000Z</time>
      </trkpt>
      <trkpt lat="43.3837" lon="2.21544">
        <ele>614.2</ele>
        <time>2019-08-04T06:58:47.000Z</time>
      </trkpt>
      <trkpt lat="43.38371" lon="2.21546">
        <ele>614.1</ele>
        <time>2019-08-04T06:58:48.000Z</time>
      </trkpt>
      <trkpt lat="43.38372" lon="2.21547">
        <ele>614.1</ele>
        <time>2019-08-04T06:58:49.000Z</time>
      </trkpt>
      <trkpt lat="43.38373" lon="2.21549">
        <ele>614</ele>
        <time>2019-08-04T06:58:50.000Z</time>
      </trkpt>
      <trkpt lat="43.38374" lon="2.21551">
        <ele>614</ele>
        <time>2019-08-04T06:58:51.000Z</time>
      </trkpt>
      <trkpt lat="43.38376" lon="2.21552">
        <ele>614</ele>
        <time>2019-08-04T06:58:52.000Z</time>
      </trkpt>
      <trkpt lat="43.38377" lon="2.21553">
        <ele>614.1</ele>
        <time>2019-08-04T06:58:53.000Z</time>
      </trkpt>
      <trkpt lat="43.38379" lon="2.21554">
        <ele>614.1</ele>
        <time>2019-08-04T06:58:54.000Z</time>
      </trkpt>
      <trkpt lat="43.38381" lon="2.21556">
        <ele>614.2</ele>
        <time>2019-08-04T06:58:55.000Z</time>
      </trkpt>
      <trkpt lat="43.38383" lon="2.21557">
        <ele>614.2</ele>
        <time>2019-08-04T06:58:56.000Z</time>
      </trkpt>
      <trkpt lat="43.38386" lon="2.21558">
        <ele>614.3</ele>
        <time>2019-08-04T06:58:57.000Z</time>
      </trkpt>
      <trkpt lat="43.38388" lon="2.21558">
        <ele>614.4</ele>
        <time>2019-08-04T06:58:58.000Z</time>
      </trkpt>
      <trkpt lat="43.3839" lon="2.21559">
        <ele>614.5</ele>
        <time>2019-08-04T06:58:59.000Z</time>
      </trkpt>
      <trkpt lat="43.38392" lon="2.21559">
        <ele>614.6</ele>
        <time>2019-08-04T06:59:00.000Z</time>
      </trkpt>
      <trkpt lat="43.38394" lon="2.21559">
        <ele>614.7</ele>
        <time>2019-08-04T06:59:01.000Z</time>
      </trkpt>
      <trkpt lat="43.38397" lon="2.21559">
        <ele>614.8</ele>
        <time>2019-08-04T06:59:02.000Z</time>
      </trkpt>
      <trkpt lat="43.38399" lon="2.21558">
        <ele>615</ele>
        <time>2019-08-04T06:59:03.000Z</time>
      </trkpt>
      <trkpt lat="43.38401" lon="2.21557">
        <ele>615.1</ele>
        <time>2019-08-04T06:59:04.000Z</time>
      </trkpt>
      <trkpt lat="43.38403" lon="2.21556">
        <ele>615.3</ele>
        <time>2019-08-04T06:59:05.000Z</time>
      </trkpt>
      <trkpt lat="43.38405" lon="2.21555">
        <ele>615.4</ele>
        <time>2019-08-04T06:59:06.000Z</time>
      </trkpt>
      <trkpt lat="43.38408" lon="2.21555">
        <ele>615.6</ele>
        <time>2019-08-04T06:59:07.000Z</time>
      </trkpt>
      <trkpt lat="43.3841" lon="2.21554">
        <ele>615.7</ele>
        <time>2019-08-04T06:59:08.000Z</time>
      </trkpt>
      <trkpt lat="43.38412" lon="2.21554">
        <ele>615.8</ele>
        <time>2019-08-04T06:59:09.000Z</time>
      </trkpt>
      <trkpt lat="43.38414" lon="2.21554">
        <ele>615.9</ele>
        <time>2019-08-04T06:59:10.000Z</time>
      </trkpt>
      <trkpt lat="43.38417" lon="2.21555">
        <ele>616</ele>
        <time>2019-08-04T06:59:11.000Z</time>
      </trkpt>
      <trkpt lat="43.38419" lon="2.21557">
        <ele>616.4</ele>
        <time>2019-08-04T06:59:12.000Z</time>
      </trkpt>
      <trkpt lat="43.38423" lon="2.21559">
        <ele>616.8</ele>
        <time>2019-08-04T06:59:13.000Z</time>
      </trkpt>
      <trkpt lat="43.38426" lon="2.21562">
        <ele>617.2</ele>
        <time>2019-08-04T06:59:14.000Z</time>
      </trkpt>
      <trkpt lat="43.3843" lon="2.21565">
        <ele>617.7</ele>
        <time>2019-08-04T06:59:15.000Z</time>
      </trkpt>
      <trkpt lat="43.38433" lon="2.21569">
        <ele>618.2</ele>
        <time>2019-08-04T06:59:16.000Z</time>
      </trkpt>
      <trkpt lat="43.38436" lon="2.21573">
        <ele>618.7</ele>
        <time>2019-08-04T06:59:17.000Z</time>
      </trkpt>
      <trkpt lat="43.3844" lon="2.21577">
        <ele>619.2</ele>
        <time>2019-08-04T06:59:18.000Z</time>
      </trkpt>
      <trkpt lat="43.38443" lon="2.21582">
        <ele>619.7</ele>
        <time>2019-08-04T06:59:19.000Z</time>
      </trkpt>
      <trkpt lat="43.38445" lon="2.21586">
        <ele>620</ele>
        <time>2019-08-04T06:59:20.000Z</time>
      </trkpt>
      <trkpt lat="43.38447" lon="2.2159">
        <ele>620.3</ele>
        <time>2019-08-04T06:59:21.000Z</time>
      </trkpt>
      <trkpt lat="43.38449" lon="2.21594">
        <ele>620.5</ele>
        <time>2019-08-04T06:59:22.000Z</time>
      </trkpt>
      <trkpt lat="43.3845" lon="2.21597">
        <ele>620.6</ele>
        <time>2019-08-04T06:59:23.000Z</time>
      </trkpt>
      <trkpt lat="43.38451" lon="2.216">
        <ele>620.6</ele>
        <time>2019-08-04T06:59:24.000Z</time>
      </trkpt>
      <trkpt lat="43.38451" lon="2.21603">
        <ele>620.5</ele>
        <time>2019-08-04T06:59:25.000Z</time>
      </trkpt>
      <trkpt lat="43.3845" lon="2.21605">
        <ele>620.4</ele>
        <time>2019-08-04T06:59:26.000Z</time>
      </trkpt>
      <trkpt lat="43.3845" lon="2.21608">
        <ele>620.3</ele>
        <time>2019-08-04T06:59:27.000Z</time>
      </trkpt>
      <trkpt lat="43.3845" lon="2.2161">
        <ele>620.2</ele>
        <time>2019-08-04T06:59:28.000Z</time>
      </trkpt>
      <trkpt lat="43.3845" lon="2.21612">
        <ele>620.1</ele>
        <time>2019-08-04T06:59:29.000Z</time>
      </trkpt>
      <trkpt lat="43.3845" lon="2.21614">
        <ele>620</ele>
        <time>2019-08-04T06:59:30.000Z</time>
      </trkpt>
      <trkpt lat="43.38449" lon="2.21616">
        <ele>619.9</ele>
        <time>2019-08-04T06:59:31.000Z</time>
      </trkpt>
      <trkpt lat="43.38449" lon="2.21618">
        <ele>619.8</ele>
        <time>2019-08-04T06:59:32.000Z</time>
      </trkpt>
      <trkpt lat="43.38449" lon="2.2162">
        <ele>619.6</ele>
        <time>2019-08-04T06:59:33.000Z</time>
      </trkpt>
      <trkpt lat="43.38448" lon="2.21621">
        <ele>619.5</ele>
        <time>2019-08-04T06:59:34.000Z</time>
      </trkpt>
      <trkpt lat="43.38448" lon="2.21623">
        <ele>619.4</ele>
        <time>2019-08-04T06:59:35.000Z</time>
      </trkpt>
      <trkpt lat="43.38448" lon="2.21625">
        <ele>619.3</ele>
        <time>2019-08-04T06:59:36.000Z</time>
      </trkpt>
      <trkpt lat="43.38447" lon="2.21626">
        <ele>619.1</ele>
        <time>2019-08-04T06:59:37.000Z</time>
      </trkpt>
      <trkpt lat="43.38447" lon="2.21628">
        <ele>619</ele>
        <time>2019-08-04T06:59:38.000Z</time>
      </trkpt>
      <trkpt lat="43.38447" lon="2.21629">
        <ele>618.9</ele>
        <time>2019-08-04T06:59:39.000Z</time>
      </trkpt>
      <trkpt lat="43.38446" lon="2.2163">
        <ele>618.8</ele>
        <time>2019-08-04T06:59:40.000Z</time>
      </trkpt>
      <trkpt lat="43.38446" lon="2.21632">
        <ele>618.7</ele>
        <time>2019-08-04T06:59:41.000Z</time>
      </trkpt>
      <trkpt lat="43.38446" lon="2.21635">
        <ele>618.6</ele>
        <time>2019-08-04T06:59:42.000Z</time>
      </trkpt>
      <trkpt lat="43.38446" lon="2.21637">
        <ele>618.5</ele>
        <time>2019-08-04T06:59:43.000Z</time>
      </trkpt>
      <trkpt lat="43.38446" lon="2.2164">
        <ele>618.4</ele>
        <time>2019-08-04T06:59:44.000Z</time>
      </trkpt>
      <trkpt lat="43.38446" lon="2.21643">
        <ele>618.4</ele>
        <time>2019-08-04T06:59:45.000Z</time>
      </trkpt>
      <trkpt lat="43.38446" lon="2.21645">
        <ele>618.3</ele>
        <time>2019-08-04T06:59:46.000Z</time>
      </trkpt>
      <trkpt lat="43.38446" lon="2.21647">
        <ele>618.2</ele>
        <time>2019-08-04T06:59:47.000Z</time>
      </trkpt>
      <trkpt lat="43.38446" lon="2.21649">
        <ele>618.1</ele>
        <time>2019-08-04T06:59:48.000Z</time>
      </trkpt>
      <trkpt lat="43.38446" lon="2.21651">
        <ele>618.1</ele>
        <time>2019-08-04T06:59:49.000Z</time>
      </trkpt>
      <trkpt lat="43.38446" lon="2.21653">
        <ele>618.1</ele>
        <time>2019-08-04T06:59:50.000Z</time>
      </trkpt>
      <trkpt lat="43.38446" lon="2.21655">
        <ele>618.1</ele>
        <time>2019-08-04T06:59:51.000Z</time>
      </trkpt>
      <trkpt lat="43.38447" lon="2.21657">
        <ele>618.1</ele>
        <time>2019-08-04T06:59:52.000Z</time>
      </trkpt>
      <trkpt lat="43.38447" lon="2.2166">
        <ele>618.1</ele>
        <time>2019-08-04T06:59:53.000Z</time>
      </trkpt>
      <trkpt lat="43.38448" lon="2.21662">
        <ele>618.2</ele>
        <time>2019-08-04T06:59:54.000Z</time>
      </trkpt>
      <trkpt lat="43.38449" lon="2.21664">
        <ele>618.2</ele>
        <time>2019-08-04T06:59:55.000Z</time>
      </trkpt>
      <trkpt lat="43.3845" lon="2.21667">
        <ele>618.3</ele>
        <time>2019-08-04T06:59:56.000Z</time>
      </trkpt>
      <trkpt lat="43.3845" lon="2.2167">
        <ele>618.4</ele>
        <time>2019-08-04T06:59:57.000Z</time>
      </trkpt>
      <trkpt lat="43.38451" lon="2.21672">
        <ele>618.4</ele>
        <time>2019-08-04T06:59:58.000Z</time>
      </trkpt>
      <trkpt lat="43.38452" lon="2.21675">
        <ele>618.4</ele>
        <time>2019-08-04T06:59:59.000Z</time>
      </trkpt>
      <trkpt lat="43.38452" lon="2.21677">
        <ele>618.4</ele>
        <time>2019-08-04T07:00:00.000Z</time>
      </trkpt>
      <trkpt lat="43.38453" lon="2.2168">
        <ele>618.4</ele>
        <time>2019-08-04T07:00:01.000Z</time>
      </trkpt>
      <trkpt lat="43.38453" lon="2.21682">
        <ele>618.4</ele>
        <time>2019-08-04T07:00:02.000Z</time>
      </trkpt>
      <trkpt lat="43.38454" lon="2.21684">
        <ele>618.4</ele>
        <time>2019-08-04T07:00:03.000Z</time>
      </trkpt>
      <trkpt lat="43.38455" lon="2.21686">
        <ele>618.4</ele>
        <time>2019-08-04T07:00:04.000Z</time>
      </trkpt>
      <trkpt lat="43.38455" lon="2.21689">
        <ele>618.4</ele>
        <time>2019-08-04T07:00:05.000Z</time>
      </trkpt>
      <trkpt lat="43.38456" lon="2.21691">
        <ele>618.5</ele>
        <time>2019-08-04T07:00:06.000Z</time>
      </trkpt>
      <trkpt lat="43.38457" lon="2.21693">
        <ele>618.6</ele>
        <time>2019-08-04T07:00:07.000Z</time>
      </trkpt>
      <trkpt lat="43.38459" lon="2.21695">
        <ele>618.7</ele>
        <time>2019-08-04T07:00:08.000Z</time>
      </trkpt>
      <trkpt lat="43.38461" lon="2.21697">
        <ele>618.9</ele>
        <time>2019-08-04T07:00:09.000Z</time>
      </trkpt>
      <trkpt lat="43.38463" lon="2.21699">
        <ele>619.1</ele>
        <time>2019-08-04T07:00:10.000Z</time>
      </trkpt>
      <trkpt lat="43.38465" lon="2.21701">
        <ele>619.3</ele>
        <time>2019-08-04T07:00:11.000Z</time>
      </trkpt>
      <trkpt lat="43.38467" lon="2.21703">
        <ele>619.4</ele>
        <time>2019-08-04T07:00:12.000Z</time>
      </trkpt>
      <trkpt lat="43.38469" lon="2.21705">
        <ele>619.6</ele>
        <time>2019-08-04T07:00:13.000Z</time>
      </trkpt>
      <trkpt lat="43.38471" lon="2.21707">
        <ele>619.8</ele>
        <time>2019-08-04T07:00:14.000Z</time>
      </trkpt>
      <trkpt lat="43.38473" lon="2.21708">
        <ele>619.9</ele>
        <time>2019-08-04T07:00:15.000Z</time>
      </trkpt>
      <trkpt lat="43.38474" lon="2.2171">
        <ele>619.9</ele>
        <time>2019-08-04T07:00:16.000Z</time>
      </trkpt>
      <trkpt lat="43.38476" lon="2.21712">
        <ele>620</ele>
        <time>2019-08-04T07:00:17.000Z</time>
      </trkpt>
      <trkpt lat="43.38477" lon="2.21713">
        <ele>620.1</ele>
        <time>2019-08-04T07:00:18.000Z</time>
      </trkpt>
      <trkpt lat="43.38479" lon="2.21714">
        <ele>620.3</ele>
        <time>2019-08-04T07:00:19.000Z</time>
      </trkpt>
      <trkpt lat="43.38481" lon="2.21714">
        <ele>620.6</ele>
        <time>2019-08-04T07:00:20.000Z</time>
      </trkpt>
      <trkpt lat="43.38484" lon="2.21713">
        <ele>621</ele>
        <time>2019-08-04T07:00:21.000Z</time>
      </trkpt>
      <trkpt lat="43.38487" lon="2.21713">
        <ele>621.4</ele>
        <time>2019-08-04T07:00:22.000Z</time>
      </trkpt>
      <trkpt lat="43.38489" lon="2.21713">
        <ele>621.7</ele>
        <time>2019-08-04T07:00:23.000Z</time>
      </trkpt>
      <trkpt lat="43.38492" lon="2.21713">
        <ele>622</ele>
        <time>2019-08-04T07:00:24.000Z</time>
      </trkpt>
      <trkpt lat="43.38495" lon="2.21714">
        <ele>622.3</ele>
        <time>2019-08-04T07:00:25.000Z</time>
      </trkpt>
      <trkpt lat="43.38497" lon="2.21714">
        <ele>622.5</ele>
        <time>2019-08-04T07:00:26.000Z</time>
      </trkpt>
      <trkpt lat="43.385" lon="2.21715">
        <ele>622.7</ele>
        <time>2019-08-04T07:00:27.000Z</time>
      </trkpt>
      <trkpt lat="43.38502" lon="2.21716">
        <ele>622.8</ele>
        <time>2019-08-04T07:00:28.000Z</time>
      </trkpt>
      <trkpt lat="43.38504" lon="2.21717">
        <ele>623</ele>
        <time>2019-08-04T07:00:29.000Z</time>
      </trkpt>
      <trkpt lat="43.38507" lon="2.21717">
        <ele>623.1</ele>
        <time>2019-08-04T07:00:30.000Z</time>
      </trkpt>
      <trkpt lat="43.38509" lon="2.21717">
        <ele>623.3</ele>
        <time>2019-08-04T07:00:31.000Z</time>
      </trkpt>
      <trkpt lat="43.38511" lon="2.21717">
        <ele>623.4</ele>
        <time>2019-08-04T07:00:32.000Z</time>
      </trkpt>
      <trkpt lat="43.38513" lon="2.21717">
        <ele>623.6</ele>
        <time>2019-08-04T07:00:33.000Z</time>
      </trkpt>
      <trkpt lat="43.38515" lon="2.21717">
        <ele>623.8</ele>
        <time>2019-08-04T07:00:34.000Z</time>
      </trkpt>
      <trkpt lat="43.38517" lon="2.21716">
        <ele>624</ele>
        <time>2019-08-04T07:00:35.000Z</time>
      </trkpt>
      <trkpt lat="43.3852" lon="2.21716">
        <ele>624.2</ele>
        <time>2019-08-04T07:00:36.000Z</time>
      </trkpt>
      <trkpt lat="43.38522" lon="2.21716">
        <ele>624.5</ele>
        <time>2019-08-04T07:00:37.000Z</time>
      </trkpt>
      <trkpt lat="43.38524" lon="2.21716">
        <ele>624.7</ele>
        <time>2019-08-04T07:00:38.000Z</time>
      </trkpt>
      <trkpt lat="43.38527" lon="2.21716">
        <ele>624.8</ele>
        <time>2019-08-04T07:00:39.000Z</time>
      </trkpt>
      <trkpt lat="43.38529" lon="2.21716">
        <ele>625</ele>
        <time>2019-08-04T07:00:40.000Z</time>
      </trkpt>
      <trkpt lat="43.38531" lon="2.21716">
        <ele>625.2</ele>
        <time>2019-08-04T07:00:41.000Z</time>
      </trkpt>
      <trkpt lat="43.38534" lon="2.21716">
        <ele>625.4</ele>
        <time>2019-08-04T07:00:42.000Z</time>
      </trkpt>
      <trkpt lat="43.38536" lon="2.21717">
        <ele>625.5</ele>
        <time>2019-08-04T07:00:43.000Z</time>
      </trkpt>
      <trkpt lat="43.38538" lon="2.21717">
        <ele>625.7</ele>
        <time>2019-08-04T07:00:44.000Z</time>
      </trkpt>
      <trkpt lat="43.3854" lon="2.21717">
        <ele>625.8</ele>
        <time>2019-08-04T07:00:45.000Z</time>
      </trkpt>
      <trkpt lat="43.38542" lon="2.21718">
        <ele>625.9</ele>
        <time>2019-08-04T07:00:46.000Z</time>
      </trkpt>
      <trkpt lat="43.38544" lon="2.21719">
        <ele>626</ele>
        <time>2019-08-04T07:00:47.000Z</time>
      </trkpt>
      <trkpt lat="43.38546" lon="2.21719">
        <ele>626.1</ele>
        <time>2019-08-04T07:00:48.000Z</time>
      </trkpt>
      <trkpt lat="43.38547" lon="2.2172">
        <ele>626.2</ele>
        <time>2019-08-04T07:00:49.000Z</time>
      </trkpt>
      <trkpt lat="43.38549" lon="2.21721">
        <ele>626.2</ele>
        <time>2019-08-04T07:00:50.000Z</time>
      </trkpt>
      <trkpt lat="43.38551" lon="2.21721">
        <ele>626.3</ele>
        <time>2019-08-04T07:00:51.000Z</time>
      </trkpt>
      <trkpt lat="43.38552" lon="2.21722">
        <ele>626.4</ele>
        <time>2019-08-04T07:00:52.000Z</time>
      </trkpt>
      <trkpt lat="43.38554" lon="2.21722">
        <ele>626.5</ele>
        <time>2019-08-04T07:00:53.000Z</time>
      </trkpt>
      <trkpt lat="43.38556" lon="2.21723">
        <ele>626.6</ele>
        <time>2019-08-04T07:00:54.000Z</time>
      </trkpt>
      <trkpt lat="43.38557" lon="2.21723">
        <ele>626.7</ele>
        <time>2019-08-04T07:00:55.000Z</time>
      </trkpt>
      <trkpt lat="43.38559" lon="2.21724">
        <ele>626.8</ele>
        <time>2019-08-04T07:00:56.000Z</time>
      </trkpt>
      <trkpt lat="43.38561" lon="2.21724">
        <ele>627</ele>
        <time>2019-08-04T07:00:57.000Z</time>
      </trkpt>
      <trkpt lat="43.38563" lon="2.21725">
        <ele>627.1</ele>
        <time>2019-08-04T07:00:58.000Z</time>
      </trkpt>
      <trkpt lat="43.38565" lon="2.21725">
        <ele>627.3</ele>
        <time>2019-08-04T07:00:59.000Z</time>
      </trkpt>
      <trkpt lat="43.38567" lon="2.21725">
        <ele>627.4</ele>
        <time>2019-08-04T07:01:00.000Z</time>
      </trkpt>
      <trkpt lat="43.38569" lon="2.21725">
        <ele>627.6</ele>
        <time>2019-08-04T07:01:01.000Z</time>
      </trkpt>
      <trkpt lat="43.38572" lon="2.21725">
        <ele>627.8</ele>
        <time>2019-08-04T07:01:02.000Z</time>
      </trkpt>
      <trkpt lat="43.38574" lon="2.21725">
        <ele>628</ele>
        <time>2019-08-04T07:01:03.000Z</time>
      </trkpt>
      <trkpt lat="43.38576" lon="2.21725">
        <ele>628.2</ele>
        <time>2019-08-04T07:01:04.000Z</time>
      </trkpt>
      <trkpt lat="43.38579" lon="2.21726">
        <ele>628.4</ele>
        <time>2019-08-04T07:01:05.000Z</time>
      </trkpt>
      <trkpt lat="43.38582" lon="2.21726">
        <ele>628.6</ele>
        <time>2019-08-04T07:01:06.000Z</time>
      </trkpt>
      <trkpt lat="43.38584" lon="2.21726">
        <ele>628.8</ele>
        <time>2019-08-04T07:01:07.000Z</time>
      </trkpt>
      <trkpt lat="43.38587" lon="2.21726">
        <ele>629.1</ele>
        <time>2019-08-04T07:01:08.000Z</time>
      </trkpt>
      <trkpt lat="43.38589" lon="2.21727">
        <ele>629.3</ele>
        <time>2019-08-04T07:01:09.000Z</time>
      </trkpt>
      <trkpt lat="43.38591" lon="2.21727">
        <ele>629.4</ele>
        <time>2019-08-04T07:01:10.000Z</time>
      </trkpt>
      <trkpt lat="43.38592" lon="2.21727">
        <ele>629.6</ele>
        <time>2019-08-04T07:01:11.000Z</time>
      </trkpt>
      <trkpt lat="43.38593" lon="2.21727">
        <ele>629.6</ele>
        <time>2019-08-04T07:01:12.000Z</time>
      </trkpt>
      <trkpt lat="43.38593" lon="2.21727">
        <ele>629.7</ele>
        <time>2019-08-04T07:01:13.000Z</time>
      </trkpt>
      <trkpt lat="43.38593" lon="2.21726">
        <ele>629.7</ele>
        <time>2019-08-04T07:01:14.000Z</time>
      </trkpt>
      <trkpt lat="43.38594" lon="2.21726">
        <ele>629.8</ele>
        <time>2019-08-04T07:01:15.000Z</time>
      </trkpt>
      <trkpt lat="43.38594" lon="2.21726">
        <ele>629.8</ele>
        <time>2019-08-04T07:01:16.000Z</time>
      </trkpt>
      <trkpt lat="43.38594" lon="2.21725">
        <ele>629.9</ele>
        <time>2019-08-04T07:01:17.000Z</time>
      </trkpt>
      <trkpt lat="43.38595" lon="2.21725">
        <ele>629.9</ele>
        <time>2019-08-04T07:01:18.000Z</time>
      </trkpt>
      <trkpt lat="43.38595" lon="2.21725">
        <ele>630</ele>
        <time>2019-08-04T07:01:19.000Z</time>
      </trkpt>
      <trkpt lat="43.38595" lon="2.21725">
        <ele>630</ele>
        <time>2019-08-04T07:01:20.000Z</time>
      </trkpt>
      <trkpt lat="43.38596" lon="2.21725">
        <ele>630.1</ele>
        <time>2019-08-04T07:01:21.000Z</time>
      </trkpt>
      <trkpt lat="43.38596" lon="2.21724">
        <ele>630.1</ele>
        <time>2019-08-04T07:01:22.000Z</time>
      </trkpt>
      <trkpt lat="43.38596" lon="2.21724">
        <ele>630.2</ele>
        <time>2019-08-04T07:01:23.000Z</time>
      </trkpt>
      <trkpt lat="43.38596" lon="2.21724">
        <ele>630.2</ele>
        <time>2019-08-04T07:01:24.000Z</time>
      </trkpt>
      <trkpt lat="43.38596" lon="2.21724">
        <ele>630.2</ele>
        <time>2019-08-04T07:01:25.000Z</time>
      </trkpt>
      <trkpt lat="43.38597" lon="2.21724">
        <ele>630.2</ele>
        <time>2019-08-04T07:01:26.000Z</time>
      </trkpt>
      <trkpt lat="43.38597" lon="2.21724">
        <ele>630.3</ele>
        <time>2019-08-04T07:01:27.000Z</time>
      </trkpt>
      <trkpt lat="43.38597" lon="2.21724">
        <ele>630.3</ele>
        <time>2019-08-04T07:01:28.000Z</time>
      </trkpt>
      <trkpt lat="43.38597" lon="2.21724">
        <ele>630.3</ele>
        <time>2019-08-04T07:01:29.000Z</time>
      </trkpt>
      <trkpt lat="43.38597" lon="2.21724">
        <ele>630.3</ele>
        <time>2019-08-04T07:01:30.000Z</time>
      </trkpt>
      <trkpt lat="43.38597" lon="2.21724">
        <ele>630.3</ele>
        <time>2019-08-04T07:01:31.000Z</time>
      </trkpt>
      <trkpt lat="43.38597" lon="2.21724">
        <ele>630.3</ele>
        <time>2019-08-04T07:01:32.000Z</time>
      </trkpt>
      <trkpt lat="43.38597" lon="2.21724">
        <ele>630.3</ele>
        <time>2019-08-04T07:01:33.000Z</time>
      </trkpt>
      <trkpt lat="43.38597" lon="2.21724">
        <ele>630.3</ele>
        <time>2019-08-04T07:01:34.000Z</time>
      </trkpt>
      <trkpt lat="43.38597" lon="2.21724">
        <ele>630.3</ele>
        <time>2019-08-04T07:01:35.000Z</time>
      </trkpt>
      <trkpt lat="43.38597" lon="2.21724">
        <ele>630.3</ele>
        <time>2019-08-04T07:01:36.000Z</time>
      </trkpt>
      <trkpt lat="43.38597" lon="2.21724">
        <ele>630.3</ele>
        <time>2019-08-04T07:01:37.000Z</time>
      </trkpt>
      <trkpt lat="43.38597" lon="2.21724">
        <ele>630.3</ele>
        <time>2019-08-04T07:01:38.000Z</time>
      </trkpt>
      <trkpt lat="43.38597" lon="2.21724">
        <ele>630.3</ele>
        <time>2019-08-04T07:01:39.000Z</time>
      </trkpt>
      <trkpt lat="43.38597" lon="2.21724">
        <ele>630.3</ele>
        <time>2019-08-04T07:01:40.000Z</time>
      </trkpt>
      <trkpt lat="43.38597" lon="2.21724">
        <ele>630.3</ele>
        <time>2019-08-04T07:01:41.000Z</time>
      </trkpt>
      <trkpt lat="43.38597" lon="2.21724">
        <ele>630.3</ele>
        <time>2019-08-04T07:01:42.000Z</time>
      </trkpt>
      <trkpt lat="43.38597" lon="2.21724">
        <ele>630.3</ele>
        <time>2019-08-04T07:01:43.000Z</time>
      </trkpt>
      <trkpt lat="43.38597" lon="2.21724">
        <ele>630.3</ele>
        <time>2019-08-04T07:01:44.000Z</time>
      </trkpt>
      <trkpt lat="43.38597" lon="2.21724">
        <ele>630.3</ele>
        <time>2019-08-04T07:01:45.000Z</time>
      </trkpt>
      <trkpt lat="43.38597" lon="2.21724">
        <ele>630.3</ele>
        <time>2019-08-04T07:01:46.000Z</time>
      </trkpt>
      <trkpt lat="43.38597" lon="2.21724">
        <ele>630.3</ele>
        <time>2019-08-04T07:01:47.000Z</time>
      </trkpt>
      <trkpt lat="43.38597" lon="2.21724">
        <ele>630.3</ele>
        <time>2019-08-04T07:01:48.000Z</time>
      </trkpt>
      <trkpt lat="43.38597" lon="2.21724">
        <ele>630.3</ele>
        <time>2019-08-04T07:01:49.000Z</time>
      </trkpt>
      <trkpt lat="43.38597" lon="2.21724">
        <ele>630.3</ele>
        <time>2019-08-04T07:01:50.000Z</time>
      </trkpt>
      <trkpt lat="43.38597" lon="2.21724">
        <ele>630.3</ele>
        <time>2019-08-04T07:01:51.000Z</time>
      </trkpt>
      <trkpt lat="43.38597" lon="2.21724">
        <ele>630.3</ele>
        <time>2019-08-04T07:01:52.000Z</time>
      </trkpt>
      <trkpt lat="43.38597" lon="2.21724">
        <ele>630.3</ele>
        <time>2019-08-04T07:01:53.000Z</time>
      </trkpt>
      <trkpt lat="43.38597" lon="2.21724">
        <ele>630.3</ele>
        <time>2019-08-04T07:01:54.000Z</time>
      </trkpt>
      <trkpt lat="43.38598" lon="2.21725">
        <ele>630.4</ele>
        <time>2019-08-04T07:01:55.000Z</time>
      </trkpt>
      <trkpt lat="43.38599" lon="2.21725">
        <ele>630.4</ele>
        <time>2019-08-04T07:01:56.000Z</time>
      </trkpt>
      <trkpt lat="43.386" lon="2.21727">
        <ele>630.4</ele>
        <time>2019-08-04T07:01:57.000Z</time>
      </trkpt>
      <trkpt lat="43.38602" lon="2.21728">
        <ele>630.5</ele>
        <time>2019-08-04T07:01:58.000Z</time>
      </trkpt>
      <trkpt lat="43.38603" lon="2.21728">
        <ele>630.5</ele>
        <time>2019-08-04T07:01:59.000Z</time>
      </trkpt>
      <trkpt lat="43.38604" lon="2.21729">
        <ele>630.6</ele>
        <time>2019-08-04T07:02:00.000Z</time>
      </trkpt>
      <trkpt lat="43.38605" lon="2.2173">
        <ele>630.6</ele>
        <time>2019-08-04T07:02:01.000Z</time>
      </trkpt>
      <trkpt lat="43.38605" lon="2.2173">
        <ele>630.6</ele>
        <time>2019-08-04T07:02:02.000Z</time>
      </trkpt>
      <trkpt lat="43.38606" lon="2.21731">
        <ele>630.7</ele>
        <time>2019-08-04T07:02:03.000Z</time>
      </trkpt>
      <trkpt lat="43.38607" lon="2.21732">
        <ele>630.7</ele>
        <time>2019-08-04T07:02:04.000Z</time>
      </trkpt>
      <trkpt lat="43.38607" lon="2.21732">
        <ele>630.7</ele>
        <time>2019-08-04T07:02:05.000Z</time>
      </trkpt>
      <trkpt lat="43.38608" lon="2.21733">
        <ele>630.7</ele>
        <time>2019-08-04T07:02:06.000Z</time>
      </trkpt>
      <trkpt lat="43.38608" lon="2.21733">
        <ele>630.7</ele>
        <time>2019-08-04T07:02:07.000Z</time>
      </trkpt>
      <trkpt lat="43.38609" lon="2.21734">
        <ele>630.8</ele>
        <time>2019-08-04T07:02:08.000Z</time>
      </trkpt>
      <trkpt lat="43.3861" lon="2.21734">
        <ele>630.8</ele>
        <time>2019-08-04T07:02:09.000Z</time>
      </trkpt>
      <trkpt lat="43.3861" lon="2.21735">
        <ele>630.8</ele>
        <time>2019-08-04T07:02:10.000Z</time>
      </trkpt>
      <trkpt lat="43.38611" lon="2.21736">
        <ele>630.8</ele>
        <time>2019-08-04T07:02:11.000Z</time>
      </trkpt>
      <trkpt lat="43.38612" lon="2.21736">
        <ele>630.8</ele>
        <time>2019-08-04T07:02:12.000Z</time>
      </trkpt>
      <trkpt lat="43.38613" lon="2.21737">
        <ele>630.9</ele>
        <time>2019-08-04T07:02:13.000Z</time>
      </trkpt>
      <trkpt lat="43.38613" lon="2.21737">
        <ele>630.9</ele>
        <time>2019-08-04T07:02:14.000Z</time>
      </trkpt>
      <trkpt lat="43.38614" lon="2.21738">
        <ele>630.9</ele>
        <time>2019-08-04T07:02:15.000Z</time>
      </trkpt>
      <trkpt lat="43.38615" lon="2.21739">
        <ele>631</ele>
        <time>2019-08-04T07:02:16.000Z</time>
      </trkpt>
      <trkpt lat="43.38616" lon="2.21739">
        <ele>631.1</ele>
        <time>2019-08-04T07:02:17.000Z</time>
      </trkpt>
      <trkpt lat="43.38618" lon="2.2174">
        <ele>631.1</ele>
        <time>2019-08-04T07:02:18.000Z</time>
      </trkpt>
      <trkpt lat="43.38619" lon="2.2174">
        <ele>631.2</ele>
        <time>2019-08-04T07:02:19.000Z</time>
      </trkpt>
      <trkpt lat="43.3862" lon="2.21741">
        <ele>631.3</ele>
        <time>2019-08-04T07:02:20.000Z</time>
      </trkpt>
      <trkpt lat="43.38621" lon="2.21741">
        <ele>631.3</ele>
        <time>2019-08-04T07:02:21.000Z</time>
      </trkpt>
      <trkpt lat="43.38622" lon="2.21742">
        <ele>631.4</ele>
        <time>2019-08-04T07:02:22.000Z</time>
      </trkpt>
      <trkpt lat="43.38624" lon="2.21743">
        <ele>631.5</ele>
        <time>2019-08-04T07:02:23.000Z</time>
      </trkpt>
      <trkpt lat="43.38625" lon="2.21743">
        <ele>631.6</ele>
        <time>2019-08-04T07:02:24.000Z</time>
      </trkpt>
      <trkpt lat="43.38626" lon="2.21744">
        <ele>631.6</ele>
        <time>2019-08-04T07:02:25.000Z</time>
      </trkpt>
      <trkpt lat="43.38627" lon="2.21744">
        <ele>631.7</ele>
        <time>2019-08-04T07:02:26.000Z</time>
      </trkpt>
      <trkpt lat="43.38629" lon="2.21745">
        <ele>631.8</ele>
        <time>2019-08-04T07:02:27.000Z</time>
      </trkpt>
      <trkpt lat="43.3863" lon="2.21745">
        <ele>631.9</ele>
        <time>2019-08-04T07:02:28.000Z</time>
      </trkpt>
      <trkpt lat="43.38632" lon="2.21746">
        <ele>632</ele>
        <time>2019-08-04T07:02:29.000Z</time>
      </trkpt>
      <trkpt lat="43.38633" lon="2.21746">
        <ele>632.1</ele>
        <time>2019-08-04T07:02:30.000Z</time>
      </trkpt>
      <trkpt lat="43.38635" lon="2.21747">
        <ele>632.2</ele>
        <time>2019-08-04T07:02:31.000Z</time>
      </trkpt>
      <trkpt lat="43.38636" lon="2.21747">
        <ele>632.3</ele>
        <time>2019-08-04T07:02:32.000Z</time>
      </trkpt>
      <trkpt lat="43.38638" lon="2.21748">
        <ele>632.4</ele>
        <time>2019-08-04T07:02:33.000Z</time>
      </trkpt>
      <trkpt lat="43.3864" lon="2.21748">
        <ele>632.6</ele>
        <time>2019-08-04T07:02:34.000Z</time>
      </trkpt>
      <trkpt lat="43.38641" lon="2.21749">
        <ele>632.7</ele>
        <time>2019-08-04T07:02:35.000Z</time>
      </trkpt>
      <trkpt lat="43.38643" lon="2.21749">
        <ele>632.8</ele>
        <time>2019-08-04T07:02:36.000Z</time>
      </trkpt>
      <trkpt lat="43.38645" lon="2.2175">
        <ele>633</ele>
        <time>2019-08-04T07:02:37.000Z</time>
      </trkpt>
      <trkpt lat="43.38647" lon="2.2175">
        <ele>633.1</ele>
        <time>2019-08-04T07:02:38.000Z</time>
      </trkpt>
      <trkpt lat="43.38649" lon="2.21751">
        <ele>633.3</ele>
        <time>2019-08-04T07:02:39.000Z</time>
      </trkpt>
      <trkpt lat="43.38651" lon="2.21752">
        <ele>633.4</ele>
        <time>2019-08-04T07:02:40.000Z</time>
      </trkpt>
      <trkpt lat="43.38653" lon="2.21752">
        <ele>633.6</ele>
        <time>2019-08-04T07:02:41.000Z</time>
      </trkpt>
      <trkpt lat="43.38655" lon="2.21753">
        <ele>633.7</ele>
        <time>2019-08-04T07:02:42.000Z</time>
      </trkpt>
      <trkpt lat="43.38656" lon="2.21754">
        <ele>633.9</ele>
        <time>2019-08-04T07:02:43.000Z</time>
      </trkpt>
      <trkpt lat="43.38657" lon="2.21754">
        <ele>634</ele>
        <time>2019-08-04T07:02:44.000Z</time>
      </trkpt>
      <trkpt lat="43.38659" lon="2.21755">
        <ele>634</ele>
        <time>2019-08-04T07:02:45.000Z</time>
      </trkpt>
      <trkpt lat="43.3866" lon="2.21756">
        <ele>634.1</ele>
        <time>2019-08-04T07:02:46.000Z</time>
      </trkpt>
      <trkpt lat="43.38661" lon="2.21757">
        <ele>634.2</ele>
        <time>2019-08-04T07:02:47.000Z</time>
      </trkpt>
      <trkpt lat="43.38661" lon="2.21758">
        <ele>634.2</ele>
        <time>2019-08-04T07:02:48.000Z</time>
      </trkpt>
      <trkpt lat="43.38662" lon="2.21758">
        <ele>634.3</ele>
        <time>2019-08-04T07:02:49.000Z</time>
      </trkpt>
      <trkpt lat="43.38663" lon="2.21759">
        <ele>634.3</ele>
        <time>2019-08-04T07:02:50.000Z</time>
      </trkpt>
      <trkpt lat="43.38663" lon="2.21759">
        <ele>634.4</ele>
        <time>2019-08-04T07:02:51.000Z</time>
      </trkpt>
      <trkpt lat="43.38664" lon="2.21759">
        <ele>634.4</ele>
        <time>2019-08-04T07:02:52.000Z</time>
      </trkpt>
      <trkpt lat="43.38664" lon="2.21759">
        <ele>634.4</ele>
        <time>2019-08-04T07:02:53.000Z</time>
      </trkpt>
      <trkpt lat="43.38665" lon="2.21759">
        <ele>634.5</ele>
        <time>2019-08-04T07:02:54.000Z</time>
      </trkpt>
      <trkpt lat="43.38665" lon="2.2176">
        <ele>634.5</ele>
        <time>2019-08-04T07:02:55.000Z</time>
      </trkpt>
      <trkpt lat="43.38665" lon="2.2176">
        <ele>634.5</ele>
        <time>2019-08-04T07:02:56.000Z</time>
      </trkpt>
      <trkpt lat="43.38666" lon="2.2176">
        <ele>634.6</ele>
        <time>2019-08-04T07:02:57.000Z</time>
      </trkpt>
      <trkpt lat="43.38666" lon="2.21761">
        <ele>634.6</ele>
        <time>2019-08-04T07:02:58.000Z</time>
      </trkpt>
      <trkpt lat="43.38667" lon="2.21761">
        <ele>634.6</ele>
        <time>2019-08-04T07:02:59.000Z</time>
      </trkpt>
      <trkpt lat="43.38668" lon="2.21762">
        <ele>634.8</ele>
        <time>2019-08-04T07:03:00.000Z</time>
      </trkpt>
      <trkpt lat="43.38668" lon="2.21762">
        <ele>634.9</ele>
        <time>2019-08-04T07:03:01.000Z</time>
      </trkpt>
      <trkpt lat="43.38669" lon="2.21763">
        <ele>635</ele>
        <time>2019-08-04T07:03:02.000Z</time>
      </trkpt>
      <trkpt lat="43.3867" lon="2.21763">
        <ele>635.1</ele>
        <time>2019-08-04T07:03:03.000Z</time>
      </trkpt>
      <trkpt lat="43.3867" lon="2.21764">
        <ele>635.2</ele>
        <time>2019-08-04T07:03:04.000Z</time>
      </trkpt>
      <trkpt lat="43.38671" lon="2.21764">
        <ele>635.4</ele>
        <time>2019-08-04T07:03:05.000Z</time>
      </trkpt>
      <trkpt lat="43.38672" lon="2.21765">
        <ele>635.5</ele>
        <time>2019-08-04T07:03:06.000Z</time>
      </trkpt>
      <trkpt lat="43.38673" lon="2.21765">
        <ele>635.6</ele>
        <time>2019-08-04T07:03:07.000Z</time>
      </trkpt>
      <trkpt lat="43.38673" lon="2.21766">
        <ele>635.7</ele>
        <time>2019-08-04T07:03:08.000Z</time>
      </trkpt>
      <trkpt lat="43.38674" lon="2.21767">
        <ele>635.8</ele>
        <time>2019-08-04T07:03:09.000Z</time>
      </trkpt>
      <trkpt lat="43.38675" lon="2.21767">
        <ele>635.9</ele>
        <time>2019-08-04T07:03:10.000Z</time>
      </trkpt>
      <trkpt lat="43.38675" lon="2.21768">
        <ele>636</ele>
        <time>2019-08-04T07:03:11.000Z</time>
      </trkpt>
      <trkpt lat="43.38676" lon="2.21769">
        <ele>636</ele>
        <time>2019-08-04T07:03:12.000Z</time>
      </trkpt>
      <trkpt lat="43.38676" lon="2.21769">
        <ele>636.1</ele>
        <time>2019-08-04T07:03:13.000Z</time>
      </trkpt>
      <trkpt lat="43.38677" lon="2.2177">
        <ele>636.2</ele>
        <time>2019-08-04T07:03:14.000Z</time>
      </trkpt>
      <trkpt lat="43.38677" lon="2.21771">
        <ele>636.2</ele>
        <time>2019-08-04T07:03:15.000Z</time>
      </trkpt>
      <trkpt lat="43.38677" lon="2.21771">
        <ele>636.2</ele>
        <time>2019-08-04T07:03:16.000Z</time>
      </trkpt>
      <trkpt lat="43.38678" lon="2.21772">
        <ele>636.3</ele>
        <time>2019-08-04T07:03:17.000Z</time>
      </trkpt>
      <trkpt lat="43.38678" lon="2.21773">
        <ele>636.3</ele>
        <time>2019-08-04T07:03:18.000Z</time>
      </trkpt>
      <trkpt lat="43.38678" lon="2.21774">
        <ele>636.3</ele>
        <time>2019-08-04T07:03:19.000Z</time>
      </trkpt>
      <trkpt lat="43.38679" lon="2.21775">
        <ele>636.3</ele>
        <time>2019-08-04T07:03:20.000Z</time>
      </trkpt>
      <trkpt lat="43.38679" lon="2.21776">
        <ele>636.4</ele>
        <time>2019-08-04T07:03:21.000Z</time>
      </trkpt>
      <trkpt lat="43.3868" lon="2.21777">
        <ele>636.4</ele>
        <time>2019-08-04T07:03:22.000Z</time>
      </trkpt>
      <trkpt lat="43.3868" lon="2.21778">
        <ele>636.3</ele>
        <time>2019-08-04T07:03:23.000Z</time>
      </trkpt>
      <trkpt lat="43.3868" lon="2.2178">
        <ele>636.4</ele>
        <time>2019-08-04T07:03:24.000Z</time>
      </trkpt>
      <trkpt lat="43.38681" lon="2.21781">
        <ele>636.3</ele>
        <time>2019-08-04T07:03:25.000Z</time>
      </trkpt>
      <trkpt lat="43.38681" lon="2.21782">
        <ele>636.3</ele>
        <time>2019-08-04T07:03:26.000Z</time>
      </trkpt>
      <trkpt lat="43.38681" lon="2.21783">
        <ele>636.3</ele>
        <time>2019-08-04T07:03:27.000Z</time>
      </trkpt>
      <trkpt lat="43.38681" lon="2.21783">
        <ele>636.3</ele>
        <time>2019-08-04T07:03:28.000Z</time>
      </trkpt>
      <trkpt lat="43.38681" lon="2.21784">
        <ele>636.2</ele>
        <time>2019-08-04T07:03:29.000Z</time>
      </trkpt>
      <trkpt lat="43.38681" lon="2.21784">
        <ele>636.2</ele>
        <time>2019-08-04T07:03:30.000Z</time>
      </trkpt>
      <trkpt lat="43.38681" lon="2.21784">
        <ele>636.2</ele>
        <time>2019-08-04T07:03:31.000Z</time>
      </trkpt>
      <trkpt lat="43.38681" lon="2.21785">
        <ele>636.2</ele>
        <time>2019-08-04T07:03:32.000Z</time>
      </trkpt>
      <trkpt lat="43.38681" lon="2.21785">
        <ele>636.1</ele>
        <time>2019-08-04T07:03:33.000Z</time>
      </trkpt>
      <trkpt lat="43.38681" lon="2.21784">
        <ele>636.1</ele>
        <time>2019-08-04T07:03:34.000Z</time>
      </trkpt>
      <trkpt lat="43.38681" lon="2.21784">
        <ele>636.1</ele>
        <time>2019-08-04T07:03:35.000Z</time>
      </trkpt>
      <trkpt lat="43.38681" lon="2.21784">
        <ele>636.1</ele>
        <time>2019-08-04T07:03:36.000Z</time>
      </trkpt>
      <trkpt lat="43.38681" lon="2.21784">
        <ele>636.2</ele>
        <time>2019-08-04T07:03:37.000Z</time>
      </trkpt>
      <trkpt lat="43.38681" lon="2.21784">
        <ele>636.2</ele>
        <time>2019-08-04T07:03:38.000Z</time>
      </trkpt>
      <trkpt lat="43.38681" lon="2.21784">
        <ele>636.2</ele>
        <time>2019-08-04T07:03:39.000Z</time>
      </trkpt>
      <trkpt lat="43.38681" lon="2.21784">
        <ele>636.3</ele>
        <time>2019-08-04T07:03:40.000Z</time>
      </trkpt>
      <trkpt lat="43.38681" lon="2.21783">
        <ele>636.3</ele>
        <time>2019-08-04T07:03:41.000Z</time>
      </trkpt>
      <trkpt lat="43.38681" lon="2.21783">
        <ele>636.3</ele>
        <time>2019-08-04T07:03:42.000Z</time>
      </trkpt>
      <trkpt lat="43.38681" lon="2.21783">
        <ele>636.3</ele>
        <time>2019-08-04T07:03:43.000Z</time>
      </trkpt>
      <trkpt lat="43.38681" lon="2.21783">
        <ele>636.3</ele>
        <time>2019-08-04T07:03:44.000Z</time>
      </trkpt>
      <trkpt lat="43.38681" lon="2.21783">
        <ele>636.3</ele>
        <time>2019-08-04T07:03:45.000Z</time>
      </trkpt>
      <trkpt lat="43.38681" lon="2.21783">
        <ele>636.3</ele>
        <time>2019-08-04T07:03:46.000Z</time>
      </trkpt>
      <trkpt lat="43.38681" lon="2.21784">
        <ele>636.3</ele>
        <time>2019-08-04T07:03:47.000Z</time>
      </trkpt>
      <trkpt lat="43.38681" lon="2.21784">
        <ele>636.3</ele>
        <time>2019-08-04T07:03:48.000Z</time>
      </trkpt>
      <trkpt lat="43.38681" lon="2.21784">
        <ele>636.3</ele>
        <time>2019-08-04T07:03:49.000Z</time>
      </trkpt>
      <trkpt lat="43.38681" lon="2.21785">
        <ele>636.2</ele>
        <time>2019-08-04T07:03:50.000Z</time>
      </trkpt>
      <trkpt lat="43.38681" lon="2.21785">
        <ele>636.2</ele>
        <time>2019-08-04T07:03:51.000Z</time>
      </trkpt>
      <trkpt lat="43.38681" lon="2.21786">
        <ele>636.2</ele>
        <time>2019-08-04T07:03:52.000Z</time>
      </trkpt>
      <trkpt lat="43.38681" lon="2.21786">
        <ele>636.2</ele>
        <time>2019-08-04T07:03:53.000Z</time>
      </trkpt>
      <trkpt lat="43.38681" lon="2.21787">
        <ele>636.1</ele>
        <time>2019-08-04T07:03:54.000Z</time>
      </trkpt>
      <trkpt lat="43.38681" lon="2.21788">
        <ele>636.1</ele>
        <time>2019-08-04T07:03:55.000Z</time>
      </trkpt>
      <trkpt lat="43.38681" lon="2.21789">
        <ele>636</ele>
        <time>2019-08-04T07:03:56.000Z</time>
      </trkpt>
      <trkpt lat="43.38681" lon="2.2179">
        <ele>635.9</ele>
        <time>2019-08-04T07:03:57.000Z</time>
      </trkpt>
      <trkpt lat="43.3868" lon="2.21791">
        <ele>635.7</ele>
        <time>2019-08-04T07:03:58.000Z</time>
      </trkpt>
      <trkpt lat="43.3868" lon="2.21792">
        <ele>635.6</ele>
        <time>2019-08-04T07:03:59.000Z</time>
      </trkpt>
      <trkpt lat="43.38679" lon="2.21793">
        <ele>635.4</ele>
        <time>2019-08-04T07:04:00.000Z</time>
      </trkpt>
      <trkpt lat="43.38678" lon="2.21794">
        <ele>635.2</ele>
        <time>2019-08-04T07:04:01.000Z</time>
      </trkpt>
      <trkpt lat="43.38677" lon="2.21796">
        <ele>635</ele>
        <time>2019-08-04T07:04:02.000Z</time>
      </trkpt>
      <trkpt lat="43.38677" lon="2.21797">
        <ele>634.9</ele>
        <time>2019-08-04T07:04:03.000Z</time>
      </trkpt>
      <trkpt lat="43.38676" lon="2.21799">
        <ele>634.7</ele>
        <time>2019-08-04T07:04:04.000Z</time>
      </trkpt>
      <trkpt lat="43.38676" lon="2.218">
        <ele>634.5</ele>
        <time>2019-08-04T07:04:05.000Z</time>
      </trkpt>
      <trkpt lat="43.38675" lon="2.21802">
        <ele>634.4</ele>
        <time>2019-08-04T07:04:06.000Z</time>
      </trkpt>
      <trkpt lat="43.38675" lon="2.21803">
        <ele>634.3</ele>
        <time>2019-08-04T07:04:07.000Z</time>
      </trkpt>
      <trkpt lat="43.38674" lon="2.21804">
        <ele>634.2</ele>
        <time>2019-08-04T07:04:08.000Z</time>
      </trkpt>
      <trkpt lat="43.38674" lon="2.21806">
        <ele>634.1</ele>
        <time>2019-08-04T07:04:09.000Z</time>
      </trkpt>
      <trkpt lat="43.38674" lon="2.21806">
        <ele>634</ele>
        <time>2019-08-04T07:04:10.000Z</time>
      </trkpt>
      <trkpt lat="43.38674" lon="2.21807">
        <ele>634</ele>
        <time>2019-08-04T07:04:11.000Z</time>
      </trkpt>
      <trkpt lat="43.38674" lon="2.21808">
        <ele>633.9</ele>
        <time>2019-08-04T07:04:12.000Z</time>
      </trkpt>
      <trkpt lat="43.38674" lon="2.21808">
        <ele>633.9</ele>
        <time>2019-08-04T07:04:13.000Z</time>
      </trkpt>
      <trkpt lat="43.38674" lon="2.21808">
        <ele>633.9</ele>
        <time>2019-08-04T07:04:14.000Z</time>
      </trkpt>
      <trkpt lat="43.38674" lon="2.21809">
        <ele>633.8</ele>
        <time>2019-08-04T07:04:15.000Z</time>
      </trkpt>
      <trkpt lat="43.38673" lon="2.21809">
        <ele>633.8</ele>
        <time>2019-08-04T07:04:16.000Z</time>
      </trkpt>
      <trkpt lat="43.38673" lon="2.2181">
        <ele>633.7</ele>
        <time>2019-08-04T07:04:17.000Z</time>
      </trkpt>
      <trkpt lat="43.38673" lon="2.2181">
        <ele>633.7</ele>
        <time>2019-08-04T07:04:18.000Z</time>
      </trkpt>
      <trkpt lat="43.38673" lon="2.2181">
        <ele>633.6</ele>
        <time>2019-08-04T07:04:19.000Z</time>
      </trkpt>
      <trkpt lat="43.38672" lon="2.21811">
        <ele>633.6</ele>
        <time>2019-08-04T07:04:20.000Z</time>
      </trkpt>
      <trkpt lat="43.38672" lon="2.21811">
        <ele>633.6</ele>
        <time>2019-08-04T07:04:21.000Z</time>
      </trkpt>
      <trkpt lat="43.38672" lon="2.21811">
        <ele>633.6</ele>
        <time>2019-08-04T07:04:22.000Z</time>
      </trkpt>
      <trkpt lat="43.38672" lon="2.21811">
        <ele>633.6</ele>
        <time>2019-08-04T07:04:23.000Z</time>
      </trkpt>
      <trkpt lat="43.38672" lon="2.21811">
        <ele>633.6</ele>
        <time>2019-08-04T07:04:24.000Z</time>
      </trkpt>
      <trkpt lat="43.38672" lon="2.21811">
        <ele>633.6</ele>
        <time>2019-08-04T07:04:25.000Z</time>
      </trkpt>
      <trkpt lat="43.38672" lon="2.21811">
        <ele>633.6</ele>
        <time>2019-08-04T07:04:26.000Z</time>
      </trkpt>
      <trkpt lat="43.38672" lon="2.21811">
        <ele>633.6</ele>
        <time>2019-08-04T07:04:27.000Z</time>
      </trkpt>
      <trkpt lat="43.38672" lon="2.21811">
        <ele>633.6</ele>
        <time>2019-08-04T07:04:28.000Z</time>
      </trkpt>
      <trkpt lat="43.38672" lon="2.21811">
        <ele>633.6</ele>
        <time>2019-08-04T07:04:29.000Z</time>
      </trkpt>
      <trkpt lat="43.38672" lon="2.21811">
        <ele>633.6</ele>
        <time>2019-08-04T07:04:30.000Z</time>
      </trkpt>
      <trkpt lat="43.38672" lon="2.21811">
        <ele>633.6</ele>
        <time>2019-08-04T07:04:31.000Z</time>
      </trkpt>
      <trkpt lat="43.38672" lon="2.21811">
        <ele>633.6</ele>
        <time>2019-08-04T07:04:32.000Z</time>
      </trkpt>
      <trkpt lat="43.38672" lon="2.21811">
        <ele>633.5</ele>
        <time>2019-08-04T07:04:33.000Z</time>
      </trkpt>
      <trkpt lat="43.38672" lon="2.21811">
        <ele>633.5</ele>
        <time>2019-08-04T07:04:34.000Z</time>
      </trkpt>
      <trkpt lat="43.38672" lon="2.21812">
        <ele>633.4</ele>
        <time>2019-08-04T07:04:35.000Z</time>
      </trkpt>
      <trkpt lat="43.38671" lon="2.21812">
        <ele>633.4</ele>
        <time>2019-08-04T07:04:36.000Z</time>
      </trkpt>
      <trkpt lat="43.38671" lon="2.21812">
        <ele>633.3</ele>
        <time>2019-08-04T07:04:37.000Z</time>
      </trkpt>
      <trkpt lat="43.38671" lon="2.21813">
        <ele>633.3</ele>
        <time>2019-08-04T07:04:38.000Z</time>
      </trkpt>
      <trkpt lat="43.38671" lon="2.21813">
        <ele>633.3</ele>
        <time>2019-08-04T07:04:39.000Z</time>
      </trkpt>
      <trkpt lat="43.38671" lon="2.21813">
        <ele>633.3</ele>
        <time>2019-08-04T07:04:40.000Z</time>
      </trkpt>
      <trkpt lat="43.38671" lon="2.21813">
        <ele>633.3</ele>
        <time>2019-08-04T07:04:41.000Z</time>
      </trkpt>
      <trkpt lat="43.38671" lon="2.21813">
        <ele>633.3</ele>
        <time>2019-08-04T07:04:42.000Z</time>
      </trkpt>
      <trkpt lat="43.38671" lon="2.21813">
        <ele>633.3</ele>
        <time>2019-08-04T07:04:43.000Z</time>
      </trkpt>
      <trkpt lat="43.38671" lon="2.21813">
        <ele>633.3</ele>
        <time>2019-08-04T07:04:44.000Z</time>
      </trkpt>
      <trkpt lat="43.38671" lon="2.21813">
        <ele>633.3</ele>
        <time>2019-08-04T07:04:45.000Z</time>
      </trkpt>
      <trkpt lat="43.38671" lon="2.21813">
        <ele>633.3</ele>
        <time>2019-08-04T07:04:46.000Z</time>
      </trkpt>
      <trkpt lat="43.38671" lon="2.21813">
        <ele>633.3</ele>
        <time>2019-08-04T07:04:47.000Z</time>
      </trkpt>
      <trkpt lat="43.38671" lon="2.21813">
        <ele>633.3</ele>
        <time>2019-08-04T07:04:48.000Z</time>
      </trkpt>
      <trkpt lat="43.38671" lon="2.21813">
        <ele>633.3</ele>
        <time>2019-08-04T07:04:49.000Z</time>
      </trkpt>
      <trkpt lat="43.38671" lon="2.21812">
        <ele>633.3</ele>
        <time>2019-08-04T07:04:50.000Z</time>
      </trkpt>
      <trkpt lat="43.3867" lon="2.21812">
        <ele>633.2</ele>
        <time>2019-08-04T07:04:51.000Z</time>
      </trkpt>
      <trkpt lat="43.38669" lon="2.21812">
        <ele>633.1</ele>
        <time>2019-08-04T07:04:52.000Z</time>
      </trkpt>
      <trkpt lat="43.38669" lon="2.21812">
        <ele>633.1</ele>
        <time>2019-08-04T07:04:53.000Z</time>
      </trkpt>
      <trkpt lat="43.38669" lon="2.21812">
        <ele>633</ele>
        <time>2019-08-04T07:04:54.000Z</time>
      </trkpt>
      <trkpt lat="43.38668" lon="2.21812">
        <ele>633</ele>
        <time>2019-08-04T07:04:55.000Z</time>
      </trkpt>
      <trkpt lat="43.38668" lon="2.21812">
        <ele>633</ele>
        <time>2019-08-04T07:04:56.000Z</time>
      </trkpt>
      <trkpt lat="43.38668" lon="2.21812">
        <ele>633</ele>
        <time>2019-08-04T07:04:57.000Z</time>
      </trkpt>
      <trkpt lat="43.38668" lon="2.21812">
        <ele>633</ele>
        <time>2019-08-04T07:04:58.000Z</time>
      </trkpt>
      <trkpt lat="43.38668" lon="2.21812">
        <ele>633</ele>
        <time>2019-08-04T07:04:59.000Z</time>
      </trkpt>
      <trkpt lat="43.38668" lon="2.21812">
        <ele>633</ele>
        <time>2019-08-04T07:05:00.000Z</time>
      </trkpt>
      <trkpt lat="43.38668" lon="2.21812">
        <ele>633</ele>
        <time>2019-08-04T07:05:01.000Z</time>
      </trkpt>
      <trkpt lat="43.38668" lon="2.21812">
        <ele>633</ele>
        <time>2019-08-04T07:05:02.000Z</time>
      </trkpt>
      <trkpt lat="43.38668" lon="2.21812">
        <ele>633</ele>
        <time>2019-08-04T07:05:03.000Z</time>
      </trkpt>
      <trkpt lat="43.38668" lon="2.21812">
        <ele>633</ele>
        <time>2019-08-04T07:05:04.000Z</time>
      </trkpt>
      <trkpt lat="43.38668" lon="2.21812">
        <ele>633</ele>
        <time>2019-08-04T07:05:05.000Z</time>
      </trkpt>
      <trkpt lat="43.38668" lon="2.21812">
        <ele>633</ele>
        <time>2019-08-04T07:05:06.000Z</time>
      </trkpt>
      <trkpt lat="43.38668" lon="2.21812">
        <ele>633</ele>
        <time>2019-08-04T07:05:07.000Z</time>
      </trkpt>
      <trkpt lat="43.38668" lon="2.21812">
        <ele>633</ele>
        <time>2019-08-04T07:05:08.000Z</time>
      </trkpt>
      <trkpt lat="43.38668" lon="2.21812">
        <ele>633</ele>
        <time>2019-08-04T07:05:09.000Z</time>
      </trkpt>
      <trkpt lat="43.38668" lon="2.21812">
        <ele>633</ele>
        <time>2019-08-04T07:05:10.000Z</time>
      </trkpt>
      <trkpt lat="43.38668" lon="2.21812">
        <ele>633</ele>
        <time>2019-08-04T07:05:11.000Z</time>
      </trkpt>
      <trkpt lat="43.38668" lon="2.21812">
        <ele>633</ele>
        <time>2019-08-04T07:05:12.000Z</time>
      </trkpt>
      <trkpt lat="43.38668" lon="2.21812">
        <ele>633</ele>
        <time>2019-08-04T07:05:13.000Z</time>
      </trkpt>
      <trkpt lat="43.38668" lon="2.21812">
        <ele>633</ele>
        <time>2019-08-04T07:05:14.000Z</time>
      </trkpt>
      <trkpt lat="43.38668" lon="2.21812">
        <ele>633</ele>
        <time>2019-08-04T07:05:15.000Z</time>
      </trkpt>
      <trkpt lat="43.38668" lon="2.21812">
        <ele>633</ele>
        <time>2019-08-04T07:05:16.000Z</time>
      </trkpt>
      <trkpt lat="43.38668" lon="2.21812">
        <ele>633</ele>
        <time>2019-08-04T07:05:17.000Z</time>
      </trkpt>
      <trkpt lat="43.38668" lon="2.21812">
        <ele>633</ele>
        <time>2019-08-04T07:05:18.000Z</time>
      </trkpt>
      <trkpt lat="43.38668" lon="2.21812">
        <ele>633</ele>
        <time>2019-08-04T07:05:19.000Z</time>
      </trkpt>
      <trkpt lat="43.38668" lon="2.21812">
        <ele>633</ele>
        <time>2019-08-04T07:05:20.000Z</time>
      </trkpt>
      <trkpt lat="43.38668" lon="2.21812">
        <ele>633</ele>
        <time>2019-08-04T07:05:21.000Z</time>
      </trkpt>
      <trkpt lat="43.38668" lon="2.21812">
        <ele>633</ele>
        <time>2019-08-04T07:05:22.000Z</time>
      </trkpt>
      <trkpt lat="43.38668" lon="2.21812">
        <ele>633</ele>
        <time>2019-08-04T07:05:23.000Z</time>
      </trkpt>
      <trkpt lat="43.38668" lon="2.21812">
        <ele>633</ele>
        <time>2019-08-04T07:05:24.000Z</time>
      </trkpt>
      <trkpt lat="43.38668" lon="2.21812">
        <ele>633</ele>
        <time>2019-08-04T07:05:25.000Z</time>
      </trkpt>
      <trkpt lat="43.38668" lon="2.21812">
        <ele>633</ele>
        <time>2019-08-04T07:05:26.000Z</time>
      </trkpt>
      <trkpt lat="43.38668" lon="2.21812">
        <ele>633</ele>
        <time>2019-08-04T07:05:27.000Z</time>
      </trkpt>
      <trkpt lat="43.38669" lon="2.21812">
        <ele>633</ele>
        <time>2019-08-04T07:05:28.000Z</time>
      </trkpt>
      <trkpt lat="43.38669" lon="2.21812">
        <ele>633.1</ele>
        <time>2019-08-04T07:05:29.000Z</time>
      </trkpt>
      <trkpt lat="43.38669" lon="2.21811">
        <ele>633.1</ele>
        <time>2019-08-04T07:05:30.000Z</time>
      </trkpt>
      <trkpt lat="43.38669" lon="2.21811">
        <ele>633.2</ele>
        <time>2019-08-04T07:05:31.000Z</time>
      </trkpt>
      <trkpt lat="43.38669" lon="2.2181">
        <ele>633.2</ele>
        <time>2019-08-04T07:05:32.000Z</time>
      </trkpt>
      <trkpt lat="43.38669" lon="2.21809">
        <ele>633.2</ele>
        <time>2019-08-04T07:05:33.000Z</time>
      </trkpt>
      <trkpt lat="43.38669" lon="2.21808">
        <ele>633.3</ele>
        <time>2019-08-04T07:05:34.000Z</time>
      </trkpt>
      <trkpt lat="43.3867" lon="2.21807">
        <ele>633.4</ele>
        <time>2019-08-04T07:05:35.000Z</time>
      </trkpt>
      <trkpt lat="43.3867" lon="2.21806">
        <ele>633.5</ele>
        <time>2019-08-04T07:05:36.000Z</time>
      </trkpt>
      <trkpt lat="43.3867" lon="2.21805">
        <ele>633.6</ele>
        <time>2019-08-04T07:05:37.000Z</time>
      </trkpt>
      <trkpt lat="43.38671" lon="2.21804">
        <ele>633.7</ele>
        <time>2019-08-04T07:05:38.000Z</time>
      </trkpt>
      <trkpt lat="43.38672" lon="2.21803">
        <ele>633.8</ele>
        <time>2019-08-04T07:05:39.000Z</time>
      </trkpt>
      <trkpt lat="43.38672" lon="2.21802">
        <ele>634</ele>
        <time>2019-08-04T07:05:40.000Z</time>
      </trkpt>
      <trkpt lat="43.38673" lon="2.218">
        <ele>634.2</ele>
        <time>2019-08-04T07:05:41.000Z</time>
      </trkpt>
      <trkpt lat="43.38674" lon="2.21799">
        <ele>634.4</ele>
        <time>2019-08-04T07:05:42.000Z</time>
      </trkpt>
      <trkpt lat="43.38675" lon="2.21797">
        <ele>634.6</ele>
        <time>2019-08-04T07:05:43.000Z</time>
      </trkpt>
      <trkpt lat="43.38676" lon="2.21796">
        <ele>634.8</ele>
        <time>2019-08-04T07:05:44.000Z</time>
      </trkpt>
      <trkpt lat="43.38677" lon="2.21794">
        <ele>635.1</ele>
        <time>2019-08-04T07:05:45.000Z</time>
      </trkpt>
      <trkpt lat="43.38678" lon="2.21792">
        <ele>635.3</ele>
        <time>2019-08-04T07:05:46.000Z</time>
      </trkpt>
      <trkpt lat="43.38679" lon="2.21791">
        <ele>635.5</ele>
        <time>2019-08-04T07:05:47.000Z</time>
      </trkpt>
      <trkpt lat="43.3868" lon="2.21789">
        <ele>635.7</ele>
        <time>2019-08-04T07:05:48.000Z</time>
      </trkpt>
      <trkpt lat="43.38681" lon="2.21788">
        <ele>635.9</ele>
        <time>2019-08-04T07:05:49.000Z</time>
      </trkpt>
      <trkpt lat="43.38681" lon="2.21787">
        <ele>636.1</ele>
        <time>2019-08-04T07:05:50.000Z</time>
      </trkpt>
      <trkpt lat="43.38682" lon="2.21786">
        <ele>636.2</ele>
        <time>2019-08-04T07:05:51.000Z</time>
      </trkpt>
      <trkpt lat="43.38682" lon="2.21785">
        <ele>636.4</ele>
        <time>2019-08-04T07:05:52.000Z</time>
      </trkpt>
      <trkpt lat="43.38682" lon="2.21784">
        <ele>636.5</ele>
        <time>2019-08-04T07:05:53.000Z</time>
      </trkpt>
      <trkpt lat="43.38683" lon="2.21784">
        <ele>636.5</ele>
        <time>2019-08-04T07:05:54.000Z</time>
      </trkpt>
      <trkpt lat="43.38683" lon="2.21783">
        <ele>636.6</ele>
        <time>2019-08-04T07:05:55.000Z</time>
      </trkpt>
      <trkpt lat="43.38683" lon="2.21783">
        <ele>636.7</ele>
        <time>2019-08-04T07:05:56.000Z</time>
      </trkpt>
      <trkpt lat="43.38683" lon="2.21783">
        <ele>636.7</ele>
        <time>2019-08-04T07:05:57.000Z</time>
      </trkpt>
      <trkpt lat="43.38683" lon="2.21782">
        <ele>636.7</ele>
        <time>2019-08-04T07:05:58.000Z</time>
      </trkpt>
      <trkpt lat="43.38683" lon="2.21782">
        <ele>636.8</ele>
        <time>2019-08-04T07:05:59.000Z</time>
      </trkpt>
      <trkpt lat="43.38684" lon="2.21782">
        <ele>636.8</ele>
        <time>2019-08-04T07:06:00.000Z</time>
      </trkpt>
      <trkpt lat="43.38684" lon="2.21782">
        <ele>636.8</ele>
        <time>2019-08-04T07:06:01.000Z</time>
      </trkpt>
      <trkpt lat="43.38684" lon="2.21782">
        <ele>636.8</ele>
        <time>2019-08-04T07:06:02.000Z</time>
      </trkpt>
      <trkpt lat="43.38684" lon="2.21782">
        <ele>636.8</ele>
        <time>2019-08-04T07:06:03.000Z</time>
      </trkpt>
      <trkpt lat="43.38684" lon="2.21782">
        <ele>636.8</ele>
        <time>2019-08-04T07:06:04.000Z</time>
      </trkpt>
      <trkpt lat="43.38683" lon="2.21782">
        <ele>636.8</ele>
        <time>2019-08-04T07:06:05.000Z</time>
      </trkpt>
      <trkpt lat="43.38683" lon="2.21782">
        <ele>636.8</ele>
        <time>2019-08-04T07:06:06.000Z</time>
      </trkpt>
      <trkpt lat="43.38683" lon="2.21782">
        <ele>636.8</ele>
        <time>2019-08-04T07:06:07.000Z</time>
      </trkpt>
      <trkpt lat="43.38683" lon="2.21782">
        <ele>636.8</ele>
        <time>2019-08-04T07:06:08.000Z</time>
      </trkpt>
      <trkpt lat="43.38683" lon="2.21782">
        <ele>636.8</ele>
        <time>2019-08-04T07:06:09.000Z</time>
      </trkpt>
      <trkpt lat="43.38683" lon="2.21782">
        <ele>636.8</ele>
        <time>2019-08-04T07:06:10.000Z</time>
      </trkpt>
      <trkpt lat="43.38683" lon="2.21782">
        <ele>636.8</ele>
        <time>2019-08-04T07:06:11.000Z</time>
      </trkpt>
      <trkpt lat="43.38683" lon="2.21782">
        <ele>636.8</ele>
        <time>2019-08-04T07:06:12.000Z</time>
      </trkpt>
      <trkpt lat="43.38683" lon="2.21782">
        <ele>636.8</ele>
        <time>2019-08-04T07:06:13.000Z</time>
      </trkpt>
      <trkpt lat="43.38683" lon="2.21782">
        <ele>636.8</ele>
        <time>2019-08-04T07:06:14.000Z</time>
      </trkpt>
      <trkpt lat="43.38683" lon="2.21782">
        <ele>636.8</ele>
        <time>2019-08-04T07:06:15.000Z</time>
      </trkpt>
      <trkpt lat="43.38683" lon="2.21782">
        <ele>636.8</ele>
        <time>2019-08-04T07:06:16.000Z</time>
      </trkpt>
      <trkpt lat="43.38683" lon="2.21782">
        <ele>636.8</ele>
        <time>2019-08-04T07:06:17.000Z</time>
      </trkpt>
      <trkpt lat="43.38683" lon="2.21782">
        <ele>636.8</ele>
        <time>2019-08-04T07:06:18.000Z</time>
      </trkpt>
      <trkpt lat="43.38683" lon="2.21782">
        <ele>636.8</ele>
        <time>2019-08-04T07:06:19.000Z</time>
      </trkpt>
      <trkpt lat="43.38683" lon="2.21782">
        <ele>636.8</ele>
        <time>2019-08-04T07:06:20.000Z</time>
      </trkpt>
      <trkpt lat="43.38683" lon="2.21782">
        <ele>636.8</ele>
        <time>2019-08-04T07:06:21.000Z</time>
      </trkpt>
      <trkpt lat="43.38683" lon="2.21782">
        <ele>636.8</ele>
        <time>2019-08-04T07:06:22.000Z</time>
      </trkpt>
      <trkpt lat="43.38683" lon="2.21782">
        <ele>636.8</ele>
        <time>2019-08-04T07:06:23.000Z</time>
      </trkpt>
      <trkpt lat="43.38683" lon="2.21782">
        <ele>636.8</ele>
        <time>2019-08-04T07:06:24.000Z</time>
      </trkpt>
      <trkpt lat="43.38683" lon="2.21782">
        <ele>636.8</ele>
        <time>2019-08-04T07:06:25.000Z</time>
      </trkpt>
      <trkpt lat="43.38683" lon="2.21782">
        <ele>636.8</ele>
        <time>2019-08-04T07:06:26.000Z</time>
      </trkpt>
      <trkpt lat="43.38683" lon="2.21782">
        <ele>636.8</ele>
        <time>2019-08-04T07:06:27.000Z</time>
      </trkpt>
      <trkpt lat="43.38683" lon="2.21782">
        <ele>636.8</ele>
        <time>2019-08-04T07:06:28.000Z</time>
      </trkpt>
      <trkpt lat="43.38683" lon="2.21782">
        <ele>636.8</ele>
        <time>2019-08-04T07:06:29.000Z</time>
      </trkpt>
      <trkpt lat="43.38683" lon="2.21782">
        <ele>636.8</ele>
        <time>2019-08-04T07:06:30.000Z</time>
      </trkpt>
      <trkpt lat="43.38683" lon="2.21782">
        <ele>636.8</ele>
        <time>2019-08-04T07:06:31.000Z</time>
      </trkpt>
      <trkpt lat="43.38683" lon="2.21782">
        <ele>636.8</ele>
        <time>2019-08-04T07:06:32.000Z</time>
      </trkpt>
      <trkpt lat="43.38683" lon="2.21782">
        <ele>636.8</ele>
        <time>2019-08-04T07:06:33.000Z</time>
      </trkpt>
      <trkpt lat="43.38683" lon="2.21782">
        <ele>636.8</ele>
        <time>2019-08-04T07:06:34.000Z</time>
      </trkpt>
      <trkpt lat="43.38683" lon="2.21782">
        <ele>636.8</ele>
        <time>2019-08-04T07:06:35.000Z</time>
      </trkpt>
      <trkpt lat="43.38683" lon="2.21782">
        <ele>636.8</ele>
        <time>2019-08-04T07:06:36.000Z</time>
      </trkpt>
      <trkpt lat="43.38683" lon="2.21782">
        <ele>636.8</ele>
        <time>2019-08-04T07:06:37.000Z</time>
      </trkpt>
      <trkpt lat="43.38683" lon="2.21782">
        <ele>636.8</ele>
        <time>2019-08-04T07:06:38.000Z</time>
      </trkpt>
      <trkpt lat="43.38683" lon="2.21782">
        <ele>636.8</ele>
        <time>2019-08-04T07:06:39.000Z</time>
      </trkpt>
      <trkpt lat="43.38683" lon="2.21782">
        <ele>636.8</ele>
        <time>2019-08-04T07:06:40.000Z</time>
      </trkpt>
      <trkpt lat="43.38683" lon="2.21782">
        <ele>636.8</ele>
        <time>2019-08-04T07:06:41.000Z</time>
      </trkpt>
      <trkpt lat="43.38684" lon="2.21782">
        <ele>636.8</ele>
        <time>2019-08-04T07:06:42.000Z</time>
      </trkpt>
      <trkpt lat="43.38684" lon="2.21782">
        <ele>636.8</ele>
        <time>2019-08-04T07:06:43.000Z</time>
      </trkpt>
      <trkpt lat="43.38684" lon="2.21782">
        <ele>636.9</ele>
        <time>2019-08-04T07:06:44.000Z</time>
      </trkpt>
      <trkpt lat="43.38685" lon="2.21781">
        <ele>637</ele>
        <time>2019-08-04T07:06:45.000Z</time>
      </trkpt>
      <trkpt lat="43.38685" lon="2.21781">
        <ele>637.2</ele>
        <time>2019-08-04T07:06:46.000Z</time>
      </trkpt>
      <trkpt lat="43.38687" lon="2.21781">
        <ele>637.4</ele>
        <time>2019-08-04T07:06:47.000Z</time>
      </trkpt>
      <trkpt lat="43.38688" lon="2.21782">
        <ele>637.5</ele>
        <time>2019-08-04T07:06:48.000Z</time>
      </trkpt>
      <trkpt lat="43.38689" lon="2.21782">
        <ele>637.6</ele>
        <time>2019-08-04T07:06:49.000Z</time>
      </trkpt>
      <trkpt lat="43.3869" lon="2.21783">
        <ele>637.8</ele>
        <time>2019-08-04T07:06:50.000Z</time>
      </trkpt>
      <trkpt lat="43.38691" lon="2.21784">
        <ele>637.9</ele>
        <time>2019-08-04T07:06:51.000Z</time>
      </trkpt>
      <trkpt lat="43.38693" lon="2.21786">
        <ele>638.1</ele>
        <time>2019-08-04T07:06:52.000Z</time>
      </trkpt>
      <trkpt lat="43.38695" lon="2.21788">
        <ele>638.4</ele>
        <time>2019-08-04T07:06:53.000Z</time>
      </trkpt>
      <trkpt lat="43.38697" lon="2.2179">
        <ele>638.6</ele>
        <time>2019-08-04T07:06:54.000Z</time>
      </trkpt>
      <trkpt lat="43.387" lon="2.21792">
        <ele>638.8</ele>
        <time>2019-08-04T07:06:55.000Z</time>
      </trkpt>
      <trkpt lat="43.38702" lon="2.21794">
        <ele>639.1</ele>
        <time>2019-08-04T07:06:56.000Z</time>
      </trkpt>
      <trkpt lat="43.38705" lon="2.21796">
        <ele>639.3</ele>
        <time>2019-08-04T07:06:57.000Z</time>
      </trkpt>
      <trkpt lat="43.38707" lon="2.21797">
        <ele>639.5</ele>
        <time>2019-08-04T07:06:58.000Z</time>
      </trkpt>
      <trkpt lat="43.38709" lon="2.21799">
        <ele>639.8</ele>
        <time>2019-08-04T07:06:59.000Z</time>
      </trkpt>
      <trkpt lat="43.38711" lon="2.218">
        <ele>639.9</ele>
        <time>2019-08-04T07:07:00.000Z</time>
      </trkpt>
      <trkpt lat="43.38713" lon="2.21802">
        <ele>640.1</ele>
        <time>2019-08-04T07:07:01.000Z</time>
      </trkpt>
      <trkpt lat="43.38715" lon="2.21803">
        <ele>640.2</ele>
        <time>2019-08-04T07:07:02.000Z</time>
      </trkpt>
      <trkpt lat="43.38717" lon="2.21805">
        <ele>640.3</ele>
        <time>2019-08-04T07:07:03.000Z</time>
      </trkpt>
      <trkpt lat="43.38718" lon="2.21806">
        <ele>640.3</ele>
        <time>2019-08-04T07:07:04.000Z</time>
      </trkpt>
      <trkpt lat="43.38719" lon="2.21808">
        <ele>640.3</ele>
        <time>2019-08-04T07:07:05.000Z</time>
      </trkpt>
      <trkpt lat="43.38721" lon="2.2181">
        <ele>640.3</ele>
        <time>2019-08-04T07:07:06.000Z</time>
      </trkpt>
      <trkpt lat="43.38722" lon="2.21811">
        <ele>640.3</ele>
        <time>2019-08-04T07:07:07.000Z</time>
      </trkpt>
      <trkpt lat="43.38723" lon="2.21813">
        <ele>640.3</ele>
        <time>2019-08-04T07:07:08.000Z</time>
      </trkpt>
      <trkpt lat="43.38724" lon="2.21815">
        <ele>640.3</ele>
        <time>2019-08-04T07:07:09.000Z</time>
      </trkpt>
      <trkpt lat="43.38726" lon="2.21817">
        <ele>640.3</ele>
        <time>2019-08-04T07:07:10.000Z</time>
      </trkpt>
      <trkpt lat="43.38727" lon="2.21819">
        <ele>640.2</ele>
        <time>2019-08-04T07:07:11.000Z</time>
      </trkpt>
      <trkpt lat="43.38729" lon="2.21821">
        <ele>640.2</ele>
        <time>2019-08-04T07:07:12.000Z</time>
      </trkpt>
      <trkpt lat="43.38731" lon="2.21823">
        <ele>640.2</ele>
        <time>2019-08-04T07:07:13.000Z</time>
      </trkpt>
      <trkpt lat="43.38733" lon="2.21825">
        <ele>640.1</ele>
        <time>2019-08-04T07:07:14.000Z</time>
      </trkpt>
      <trkpt lat="43.38734" lon="2.21827">
        <ele>640.1</ele>
        <time>2019-08-04T07:07:15.000Z</time>
      </trkpt>
      <trkpt lat="43.38736" lon="2.21829">
        <ele>640</ele>
        <time>2019-08-04T07:07:16.000Z</time>
      </trkpt>
      <trkpt lat="43.38737" lon="2.21831">
        <ele>639.9</ele>
        <time>2019-08-04T07:07:17.000Z</time>
      </trkpt>
      <trkpt lat="43.38739" lon="2.21833">
        <ele>639.8</ele>
        <time>2019-08-04T07:07:18.000Z</time>
      </trkpt>
      <trkpt lat="43.3874" lon="2.21835">
        <ele>639.9</ele>
        <time>2019-08-04T07:07:19.000Z</time>
      </trkpt>
      <trkpt lat="43.38741" lon="2.21837">
        <ele>639.9</ele>
        <time>2019-08-04T07:07:20.000Z</time>
      </trkpt>
      <trkpt lat="43.38742" lon="2.21839">
        <ele>640</ele>
        <time>2019-08-04T07:07:21.000Z</time>
      </trkpt>
      <trkpt lat="43.38743" lon="2.2184">
        <ele>640</ele>
        <time>2019-08-04T07:07:22.000Z</time>
      </trkpt>
      <trkpt lat="43.38745" lon="2.21842">
        <ele>640.1</ele>
        <time>2019-08-04T07:07:23.000Z</time>
      </trkpt>
      <trkpt lat="43.38746" lon="2.21843">
        <ele>640.1</ele>
        <time>2019-08-04T07:07:24.000Z</time>
      </trkpt>
      <trkpt lat="43.38747" lon="2.21845">
        <ele>640.2</ele>
        <time>2019-08-04T07:07:25.000Z</time>
      </trkpt>
      <trkpt lat="43.38749" lon="2.21846">
        <ele>640.3</ele>
        <time>2019-08-04T07:07:26.000Z</time>
      </trkpt>
      <trkpt lat="43.38751" lon="2.21848">
        <ele>640.4</ele>
        <time>2019-08-04T07:07:27.000Z</time>
      </trkpt>
      <trkpt lat="43.38753" lon="2.21849">
        <ele>640.5</ele>
        <time>2019-08-04T07:07:28.000Z</time>
      </trkpt>
      <trkpt lat="43.38755" lon="2.2185">
        <ele>640.6</ele>
        <time>2019-08-04T07:07:29.000Z</time>
      </trkpt>
      <trkpt lat="43.38757" lon="2.21852">
        <ele>640.8</ele>
        <time>2019-08-04T07:07:30.000Z</time>
      </trkpt>
      <trkpt lat="43.38758" lon="2.21853">
        <ele>640.9</ele>
        <time>2019-08-04T07:07:31.000Z</time>
      </trkpt>
      <trkpt lat="43.3876" lon="2.21854">
        <ele>641</ele>
        <time>2019-08-04T07:07:32.000Z</time>
      </trkpt>
      <trkpt lat="43.38762" lon="2.21856">
        <ele>641.1</ele>
        <time>2019-08-04T07:07:33.000Z</time>
      </trkpt>
      <trkpt lat="43.38764" lon="2.21857">
        <ele>641.1</ele>
        <time>2019-08-04T07:07:34.000Z</time>
      </trkpt>
      <trkpt lat="43.38765" lon="2.21858">
        <ele>641.2</ele>
        <time>2019-08-04T07:07:35.000Z</time>
      </trkpt>
      <trkpt lat="43.38767" lon="2.21859">
        <ele>641.3</ele>
        <time>2019-08-04T07:07:36.000Z</time>
      </trkpt>
      <trkpt lat="43.38768" lon="2.2186">
        <ele>641.3</ele>
        <time>2019-08-04T07:07:37.000Z</time>
      </trkpt>
      <trkpt lat="43.38769" lon="2.21861">
        <ele>641.4</ele>
        <time>2019-08-04T07:07:38.000Z</time>
      </trkpt>
      <trkpt lat="43.38771" lon="2.21862">
        <ele>641.4</ele>
        <time>2019-08-04T07:07:39.000Z</time>
      </trkpt>
      <trkpt lat="43.38772" lon="2.21863">
        <ele>641.5</ele>
        <time>2019-08-04T07:07:40.000Z</time>
      </trkpt>
      <trkpt lat="43.38774" lon="2.21864">
        <ele>641.5</ele>
        <time>2019-08-04T07:07:41.000Z</time>
      </trkpt>
      <trkpt lat="43.38775" lon="2.21865">
        <ele>641.6</ele>
        <time>2019-08-04T07:07:42.000Z</time>
      </trkpt>
      <trkpt lat="43.38777" lon="2.21865">
        <ele>641.7</ele>
        <time>2019-08-04T07:07:43.000Z</time>
      </trkpt>
      <trkpt lat="43.38778" lon="2.21866">
        <ele>641.8</ele>
        <time>2019-08-04T07:07:44.000Z</time>
      </trkpt>
      <trkpt lat="43.3878" lon="2.21867">
        <ele>641.8</ele>
        <time>2019-08-04T07:07:45.000Z</time>
      </trkpt>
      <trkpt lat="43.38781" lon="2.21867">
        <ele>641.9</ele>
        <time>2019-08-04T07:07:46.000Z</time>
      </trkpt>
      <trkpt lat="43.38783" lon="2.21868">
        <ele>641.9</ele>
        <time>2019-08-04T07:07:47.000Z</time>
      </trkpt>
      <trkpt lat="43.38784" lon="2.2187">
        <ele>642</ele>
        <time>2019-08-04T07:07:48.000Z</time>
      </trkpt>
      <trkpt lat="43.38786" lon="2.21871">
        <ele>642</ele>
        <time>2019-08-04T07:07:49.000Z</time>
      </trkpt>
      <trkpt lat="43.38788" lon="2.21872">
        <ele>642</ele>
        <time>2019-08-04T07:07:50.000Z</time>
      </trkpt>
      <trkpt lat="43.38789" lon="2.21873">
        <ele>642</ele>
        <time>2019-08-04T07:07:51.000Z</time>
      </trkpt>
      <trkpt lat="43.38791" lon="2.21874">
        <ele>642</ele>
        <time>2019-08-04T07:07:52.000Z</time>
      </trkpt>
      <trkpt lat="43.38793" lon="2.21875">
        <ele>642.1</ele>
        <time>2019-08-04T07:07:53.000Z</time>
      </trkpt>
      <trkpt lat="43.38795" lon="2.21876">
        <ele>642.1</ele>
        <time>2019-08-04T07:07:54.000Z</time>
      </trkpt>
      <trkpt lat="43.38797" lon="2.21877">
        <ele>642.2</ele>
        <time>2019-08-04T07:07:55.000Z</time>
      </trkpt>
      <trkpt lat="43.388" lon="2.21877">
        <ele>642.4</ele>
        <time>2019-08-04T07:07:56.000Z</time>
      </trkpt>
      <trkpt lat="43.38802" lon="2.21877">
        <ele>642.6</ele>
        <time>2019-08-04T07:07:57.000Z</time>
      </trkpt>
      <trkpt lat="43.38805" lon="2.21876">
        <ele>642.8</ele>
        <time>2019-08-04T07:07:58.000Z</time>
      </trkpt>
      <trkpt lat="43.38807" lon="2.21876">
        <ele>643</ele>
        <time>2019-08-04T07:07:59.000Z</time>
      </trkpt>
      <trkpt lat="43.3881" lon="2.21875">
        <ele>643.2</ele>
        <time>2019-08-04T07:08:00.000Z</time>
      </trkpt>
      <trkpt lat="43.38812" lon="2.21875">
        <ele>643.4</ele>
        <time>2019-08-04T07:08:01.000Z</time>
      </trkpt>
      <trkpt lat="43.38814" lon="2.21874">
        <ele>643.7</ele>
        <time>2019-08-04T07:08:02.000Z</time>
      </trkpt>
      <trkpt lat="43.38816" lon="2.21874">
        <ele>643.9</ele>
        <time>2019-08-04T07:08:03.000Z</time>
      </trkpt>
      <trkpt lat="43.38819" lon="2.21873">
        <ele>644.2</ele>
        <time>2019-08-04T07:08:04.000Z</time>
      </trkpt>
      <trkpt lat="43.38822" lon="2.21873">
        <ele>644.5</ele>
        <time>2019-08-04T07:08:05.000Z</time>
      </trkpt>
      <trkpt lat="43.38825" lon="2.21872">
        <ele>644.8</ele>
        <time>2019-08-04T07:08:06.000Z</time>
      </trkpt>
      <trkpt lat="43.38828" lon="2.21871">
        <ele>645.2</ele>
        <time>2019-08-04T07:08:07.000Z</time>
      </trkpt>
      <trkpt lat="43.38831" lon="2.2187">
        <ele>645.6</ele>
        <time>2019-08-04T07:08:08.000Z</time>
      </trkpt>
      <trkpt lat="43.38834" lon="2.21869">
        <ele>645.9</ele>
        <time>2019-08-04T07:08:09.000Z</time>
      </trkpt>
      <trkpt lat="43.38836" lon="2.21868">
        <ele>646.1</ele>
        <time>2019-08-04T07:08:10.000Z</time>
      </trkpt>
      <trkpt lat="43.38838" lon="2.21867">
        <ele>646.3</ele>
        <time>2019-08-04T07:08:11.000Z</time>
      </trkpt>
      <trkpt lat="43.3884" lon="2.21866">
        <ele>646.5</ele>
        <time>2019-08-04T07:08:12.000Z</time>
      </trkpt>
      <trkpt lat="43.38842" lon="2.21865">
        <ele>646.6</ele>
        <time>2019-08-04T07:08:13.000Z</time>
      </trkpt>
      <trkpt lat="43.38844" lon="2.21865">
        <ele>646.7</ele>
        <time>2019-08-04T07:08:14.000Z</time>
      </trkpt>
      <trkpt lat="43.38846" lon="2.21865">
        <ele>646.8</ele>
        <time>2019-08-04T07:08:15.000Z</time>
      </trkpt>
      <trkpt lat="43.38848" lon="2.21864">
        <ele>646.9</ele>
        <time>2019-08-04T07:08:16.000Z</time>
      </trkpt>
      <trkpt lat="43.3885" lon="2.21864">
        <ele>647</ele>
        <time>2019-08-04T07:08:17.000Z</time>
      </trkpt>
      <trkpt lat="43.38852" lon="2.21864">
        <ele>647.1</ele>
        <time>2019-08-04T07:08:18.000Z</time>
      </trkpt>
      <trkpt lat="43.38855" lon="2.21863">
        <ele>647.2</ele>
        <time>2019-08-04T07:08:19.000Z</time>
      </trkpt>
      <trkpt lat="43.38857" lon="2.21863">
        <ele>647.2</ele>
        <time>2019-08-04T07:08:20.000Z</time>
      </trkpt>
      <trkpt lat="43.38859" lon="2.21863">
        <ele>647.3</ele>
        <time>2019-08-04T07:08:21.000Z</time>
      </trkpt>
      <trkpt lat="43.38861" lon="2.21863">
        <ele>647.4</ele>
        <time>2019-08-04T07:08:22.000Z</time>
      </trkpt>
      <trkpt lat="43.38863" lon="2.21863">
        <ele>647.4</ele>
        <time>2019-08-04T07:08:23.000Z</time>
      </trkpt>
      <trkpt lat="43.38865" lon="2.21863">
        <ele>647.4</ele>
        <time>2019-08-04T07:08:24.000Z</time>
      </trkpt>
      <trkpt lat="43.38867" lon="2.21864">
        <ele>647.5</ele>
        <time>2019-08-04T07:08:25.000Z</time>
      </trkpt>
      <trkpt lat="43.3887" lon="2.21864">
        <ele>647.5</ele>
        <time>2019-08-04T07:08:26.000Z</time>
      </trkpt>
      <trkpt lat="43.38872" lon="2.21864">
        <ele>647.5</ele>
        <time>2019-08-04T07:08:27.000Z</time>
      </trkpt>
      <trkpt lat="43.38874" lon="2.21864">
        <ele>647.5</ele>
        <time>2019-08-04T07:08:28.000Z</time>
      </trkpt>
      <trkpt lat="43.38876" lon="2.21864">
        <ele>647.6</ele>
        <time>2019-08-04T07:08:29.000Z</time>
      </trkpt>
      <trkpt lat="43.38878" lon="2.21864">
        <ele>647.6</ele>
        <time>2019-08-04T07:08:30.000Z</time>
      </trkpt>
      <trkpt lat="43.3888" lon="2.21864">
        <ele>647.7</ele>
        <time>2019-08-04T07:08:31.000Z</time>
      </trkpt>
      <trkpt lat="43.38882" lon="2.21864">
        <ele>647.8</ele>
        <time>2019-08-04T07:08:32.000Z</time>
      </trkpt>
      <trkpt lat="43.38884" lon="2.21863">
        <ele>647.9</ele>
        <time>2019-08-04T07:08:33.000Z</time>
      </trkpt>
      <trkpt lat="43.38886" lon="2.21863">
        <ele>648.1</ele>
        <time>2019-08-04T07:08:34.000Z</time>
      </trkpt>
      <trkpt lat="43.38888" lon="2.21862">
        <ele>648.2</ele>
        <time>2019-08-04T07:08:35.000Z</time>
      </trkpt>
      <trkpt lat="43.3889" lon="2.21861">
        <ele>648.4</ele>
        <time>2019-08-04T07:08:36.000Z</time>
      </trkpt>
      <trkpt lat="43.38892" lon="2.2186">
        <ele>648.6</ele>
        <time>2019-08-04T07:08:37.000Z</time>
      </trkpt>
      <trkpt lat="43.38894" lon="2.21859">
        <ele>648.8</ele>
        <time>2019-08-04T07:08:38.000Z</time>
      </trkpt>
      <trkpt lat="43.38896" lon="2.21857">
        <ele>649.1</ele>
        <time>2019-08-04T07:08:39.000Z</time>
      </trkpt>
      <trkpt lat="43.38898" lon="2.21856">
        <ele>649.3</ele>
        <time>2019-08-04T07:08:40.000Z</time>
      </trkpt>
      <trkpt lat="43.38899" lon="2.21855">
        <ele>649.5</ele>
        <time>2019-08-04T07:08:41.000Z</time>
      </trkpt>
      <trkpt lat="43.38901" lon="2.21853">
        <ele>649.8</ele>
        <time>2019-08-04T07:08:42.000Z</time>
      </trkpt>
      <trkpt lat="43.38903" lon="2.21852">
        <ele>650</ele>
        <time>2019-08-04T07:08:43.000Z</time>
      </trkpt>
      <trkpt lat="43.38905" lon="2.21851">
        <ele>650.2</ele>
        <time>2019-08-04T07:08:44.000Z</time>
      </trkpt>
      <trkpt lat="43.38907" lon="2.2185">
        <ele>650.4</ele>
        <time>2019-08-04T07:08:45.000Z</time>
      </trkpt>
      <trkpt lat="43.38909" lon="2.21849">
        <ele>650.6</ele>
        <time>2019-08-04T07:08:46.000Z</time>
      </trkpt>
      <trkpt lat="43.38911" lon="2.21848">
        <ele>650.8</ele>
        <time>2019-08-04T07:08:47.000Z</time>
      </trkpt>
      <trkpt lat="43.38913" lon="2.21847">
        <ele>651</ele>
        <time>2019-08-04T07:08:48.000Z</time>
      </trkpt>
      <trkpt lat="43.38915" lon="2.21846">
        <ele>651.1</ele>
        <time>2019-08-04T07:08:49.000Z</time>
      </trkpt>
      <trkpt lat="43.38917" lon="2.21846">
        <ele>651.2</ele>
        <time>2019-08-04T07:08:50.000Z</time>
      </trkpt>
      <trkpt lat="43.38919" lon="2.21845">
        <ele>651.5</ele>
        <time>2019-08-04T07:08:51.000Z</time>
      </trkpt>
      <trkpt lat="43.38922" lon="2.21845">
        <ele>651.8</ele>
        <time>2019-08-04T07:08:52.000Z</time>
      </trkpt>
      <trkpt lat="43.38924" lon="2.21845">
        <ele>652</ele>
        <time>2019-08-04T07:08:53.000Z</time>
      </trkpt>
      <trkpt lat="43.38926" lon="2.21845">
        <ele>652.2</ele>
        <time>2019-08-04T07:08:54.000Z</time>
      </trkpt>
      <trkpt lat="43.38929" lon="2.21845">
        <ele>652.5</ele>
        <time>2019-08-04T07:08:55.000Z</time>
      </trkpt>
      <trkpt lat="43.38931" lon="2.21845">
        <ele>652.7</ele>
        <time>2019-08-04T07:08:56.000Z</time>
      </trkpt>
      <trkpt lat="43.38933" lon="2.21845">
        <ele>652.9</ele>
        <time>2019-08-04T07:08:57.000Z</time>
      </trkpt>
      <trkpt lat="43.38936" lon="2.21845">
        <ele>653.1</ele>
        <time>2019-08-04T07:08:58.000Z</time>
      </trkpt>
      <trkpt lat="43.38938" lon="2.21845">
        <ele>653.3</ele>
        <time>2019-08-04T07:08:59.000Z</time>
      </trkpt>
      <trkpt lat="43.38941" lon="2.21846">
        <ele>653.5</ele>
        <time>2019-08-04T07:09:00.000Z</time>
      </trkpt>
      <trkpt lat="43.38943" lon="2.21846">
        <ele>653.7</ele>
        <time>2019-08-04T07:09:01.000Z</time>
      </trkpt>
      <trkpt lat="43.38946" lon="2.21846">
        <ele>653.9</ele>
        <time>2019-08-04T07:09:02.000Z</time>
      </trkpt>
      <trkpt lat="43.38948" lon="2.21847">
        <ele>654</ele>
        <time>2019-08-04T07:09:03.000Z</time>
      </trkpt>
      <trkpt lat="43.3895" lon="2.21847">
        <ele>654.2</ele>
        <time>2019-08-04T07:09:04.000Z</time>
      </trkpt>
      <trkpt lat="43.38953" lon="2.21847">
        <ele>654.4</ele>
        <time>2019-08-04T07:09:05.000Z</time>
      </trkpt>
      <trkpt lat="43.38955" lon="2.21848">
        <ele>654.5</ele>
        <time>2019-08-04T07:09:06.000Z</time>
      </trkpt>
      <trkpt lat="43.38958" lon="2.21848">
        <ele>654.7</ele>
        <time>2019-08-04T07:09:07.000Z</time>
      </trkpt>
      <trkpt lat="43.3896" lon="2.21849">
        <ele>654.8</ele>
        <time>2019-08-04T07:09:08.000Z</time>
      </trkpt>
      <trkpt lat="43.38963" lon="2.21849">
        <ele>655</ele>
        <time>2019-08-04T07:09:09.000Z</time>
      </trkpt>
      <trkpt lat="43.38965" lon="2.2185">
        <ele>655.1</ele>
        <time>2019-08-04T07:09:10.000Z</time>
      </trkpt>
      <trkpt lat="43.38967" lon="2.21851">
        <ele>655.3</ele>
        <time>2019-08-04T07:09:11.000Z</time>
      </trkpt>
      <trkpt lat="43.3897" lon="2.21851">
        <ele>655.4</ele>
        <time>2019-08-04T07:09:12.000Z</time>
      </trkpt>
      <trkpt lat="43.38972" lon="2.21852">
        <ele>655.5</ele>
        <time>2019-08-04T07:09:13.000Z</time>
      </trkpt>
      <trkpt lat="43.38974" lon="2.21852">
        <ele>655.6</ele>
        <time>2019-08-04T07:09:14.000Z</time>
      </trkpt>
      <trkpt lat="43.38977" lon="2.21853">
        <ele>655.7</ele>
        <time>2019-08-04T07:09:15.000Z</time>
      </trkpt>
      <trkpt lat="43.38979" lon="2.21854">
        <ele>655.8</ele>
        <time>2019-08-04T07:09:16.000Z</time>
      </trkpt>
      <trkpt lat="43.38981" lon="2.21855">
        <ele>655.9</ele>
        <time>2019-08-04T07:09:17.000Z</time>
      </trkpt>
      <trkpt lat="43.38983" lon="2.21855">
        <ele>656</ele>
        <time>2019-08-04T07:09:18.000Z</time>
      </trkpt>
      <trkpt lat="43.38985" lon="2.21856">
        <ele>656.1</ele>
        <time>2019-08-04T07:09:19.000Z</time>
      </trkpt>
      <trkpt lat="43.38988" lon="2.21857">
        <ele>656.2</ele>
        <time>2019-08-04T07:09:20.000Z</time>
      </trkpt>
      <trkpt lat="43.3899" lon="2.21858">
        <ele>656.2</ele>
        <time>2019-08-04T07:09:21.000Z</time>
      </trkpt>
      <trkpt lat="43.38992" lon="2.21859">
        <ele>656.3</ele>
        <time>2019-08-04T07:09:22.000Z</time>
      </trkpt>
      <trkpt lat="43.38994" lon="2.2186">
        <ele>656.4</ele>
        <time>2019-08-04T07:09:23.000Z</time>
      </trkpt>
      <trkpt lat="43.38996" lon="2.21861">
        <ele>656.4</ele>
        <time>2019-08-04T07:09:24.000Z</time>
      </trkpt>
      <trkpt lat="43.38998" lon="2.21861">
        <ele>656.4</ele>
        <time>2019-08-04T07:09:25.000Z</time>
      </trkpt>
      <trkpt lat="43.39" lon="2.21862">
        <ele>656.5</ele>
        <time>2019-08-04T07:09:26.000Z</time>
      </trkpt>
      <trkpt lat="43.39002" lon="2.21864">
        <ele>656.7</ele>
        <time>2019-08-04T07:09:27.000Z</time>
      </trkpt>
      <trkpt lat="43.39004" lon="2.21865">
        <ele>656.9</ele>
        <time>2019-08-04T07:09:28.000Z</time>
      </trkpt>
      <trkpt lat="43.39006" lon="2.21866">
        <ele>657.1</ele>
        <time>2019-08-04T07:09:29.000Z</time>
      </trkpt>
      <trkpt lat="43.39008" lon="2.21867">
        <ele>657.2</ele>
        <time>2019-08-04T07:09:30.000Z</time>
      </trkpt>
      <trkpt lat="43.39011" lon="2.21869">
        <ele>657.4</ele>
        <time>2019-08-04T07:09:31.000Z</time>
      </trkpt>
      <trkpt lat="43.39013" lon="2.21871">
        <ele>657.5</ele>
        <time>2019-08-04T07:09:32.000Z</time>
      </trkpt>
      <trkpt lat="43.39015" lon="2.21872">
        <ele>657.6</ele>
        <time>2019-08-04T07:09:33.000Z</time>
      </trkpt>
      <trkpt lat="43.39017" lon="2.21874">
        <ele>657.7</ele>
        <time>2019-08-04T07:09:34.000Z</time>
      </trkpt>
      <trkpt lat="43.39019" lon="2.21876">
        <ele>657.8</ele>
        <time>2019-08-04T07:09:35.000Z</time>
      </trkpt>
      <trkpt lat="43.39022" lon="2.21879">
        <ele>657.8</ele>
        <time>2019-08-04T07:09:36.000Z</time>
      </trkpt>
      <trkpt lat="43.39024" lon="2.21881">
        <ele>657.8</ele>
        <time>2019-08-04T07:09:37.000Z</time>
      </trkpt>
      <trkpt lat="43.39026" lon="2.21883">
        <ele>657.8</ele>
        <time>2019-08-04T07:09:38.000Z</time>
      </trkpt>
      <trkpt lat="43.39028" lon="2.21885">
        <ele>657.7</ele>
        <time>2019-08-04T07:09:39.000Z</time>
      </trkpt>
      <trkpt lat="43.39029" lon="2.21888">
        <ele>657.6</ele>
        <time>2019-08-04T07:09:40.000Z</time>
      </trkpt>
      <trkpt lat="43.39031" lon="2.2189">
        <ele>657.5</ele>
        <time>2019-08-04T07:09:41.000Z</time>
      </trkpt>
      <trkpt lat="43.39033" lon="2.21892">
        <ele>657.4</ele>
        <time>2019-08-04T07:09:42.000Z</time>
      </trkpt>
      <trkpt lat="43.39034" lon="2.21895">
        <ele>657.2</ele>
        <time>2019-08-04T07:09:43.000Z</time>
      </trkpt>
      <trkpt lat="43.39036" lon="2.21897">
        <ele>657</ele>
        <time>2019-08-04T07:09:44.000Z</time>
      </trkpt>
      <trkpt lat="43.39037" lon="2.219">
        <ele>656.8</ele>
        <time>2019-08-04T07:09:45.000Z</time>
      </trkpt>
      <trkpt lat="43.39039" lon="2.21903">
        <ele>656.5</ele>
        <time>2019-08-04T07:09:46.000Z</time>
      </trkpt>
      <trkpt lat="43.3904" lon="2.21906">
        <ele>656.3</ele>
        <time>2019-08-04T07:09:47.000Z</time>
      </trkpt>
      <trkpt lat="43.39042" lon="2.21909">
        <ele>656</ele>
        <time>2019-08-04T07:09:48.000Z</time>
      </trkpt>
      <trkpt lat="43.39043" lon="2.21912">
        <ele>655.7</ele>
        <time>2019-08-04T07:09:49.000Z</time>
      </trkpt>
      <trkpt lat="43.39045" lon="2.21915">
        <ele>655.4</ele>
        <time>2019-08-04T07:09:50.000Z</time>
      </trkpt>
      <trkpt lat="43.39046" lon="2.21917">
        <ele>655.1</ele>
        <time>2019-08-04T07:09:51.000Z</time>
      </trkpt>
      <trkpt lat="43.39047" lon="2.2192">
        <ele>655.1</ele>
        <time>2019-08-04T07:09:52.000Z</time>
      </trkpt>
      <trkpt lat="43.39048" lon="2.21922">
        <ele>655.1</ele>
        <time>2019-08-04T07:09:53.000Z</time>
      </trkpt>
      <trkpt lat="43.39048" lon="2.21924">
        <ele>655.1</ele>
        <time>2019-08-04T07:09:54.000Z</time>
      </trkpt>
      <trkpt lat="43.39049" lon="2.21926">
        <ele>655.1</ele>
        <time>2019-08-04T07:09:55.000Z</time>
      </trkpt>
      <trkpt lat="43.3905" lon="2.21929">
        <ele>655</ele>
        <time>2019-08-04T07:09:56.000Z</time>
      </trkpt>
      <trkpt lat="43.39051" lon="2.21931">
        <ele>655</ele>
        <time>2019-08-04T07:09:57.000Z</time>
      </trkpt>
      <trkpt lat="43.39052" lon="2.21934">
        <ele>654.9</ele>
        <time>2019-08-04T07:09:58.000Z</time>
      </trkpt>
      <trkpt lat="43.39052" lon="2.21937">
        <ele>654.9</ele>
        <time>2019-08-04T07:09:59.000Z</time>
      </trkpt>
      <trkpt lat="43.39054" lon="2.2194">
        <ele>654.8</ele>
        <time>2019-08-04T07:10:00.000Z</time>
      </trkpt>
      <trkpt lat="43.39055" lon="2.21943">
        <ele>654.8</ele>
        <time>2019-08-04T07:10:01.000Z</time>
      </trkpt>
      <trkpt lat="43.39057" lon="2.21947">
        <ele>654.8</ele>
        <time>2019-08-04T07:10:02.000Z</time>
      </trkpt>
      <trkpt lat="43.39058" lon="2.2195">
        <ele>654.7</ele>
        <time>2019-08-04T07:10:03.000Z</time>
      </trkpt>
      <trkpt lat="43.3906" lon="2.21954">
        <ele>654.6</ele>
        <time>2019-08-04T07:10:04.000Z</time>
      </trkpt>
      <trkpt lat="43.39062" lon="2.21957">
        <ele>654.6</ele>
        <time>2019-08-04T07:10:05.000Z</time>
      </trkpt>
      <trkpt lat="43.39063" lon="2.2196">
        <ele>654.6</ele>
        <time>2019-08-04T07:10:06.000Z</time>
      </trkpt>
      <trkpt lat="43.39065" lon="2.21963">
        <ele>654.5</ele>
        <time>2019-08-04T07:10:07.000Z</time>
      </trkpt>
      <trkpt lat="43.39067" lon="2.21966">
        <ele>654.5</ele>
        <time>2019-08-04T07:10:08.000Z</time>
      </trkpt>
      <trkpt lat="43.39068" lon="2.21968">
        <ele>654.5</ele>
        <time>2019-08-04T07:10:09.000Z</time>
      </trkpt>
      <trkpt lat="43.3907" lon="2.21971">
        <ele>654.5</ele>
        <time>2019-08-04T07:10:10.000Z</time>
      </trkpt>
      <trkpt lat="43.39072" lon="2.21974">
        <ele>654.5</ele>
        <time>2019-08-04T07:10:11.000Z</time>
      </trkpt>
      <trkpt lat="43.39075" lon="2.21976">
        <ele>654.4</ele>
        <time>2019-08-04T07:10:12.000Z</time>
      </trkpt>
      <trkpt lat="43.39077" lon="2.21979">
        <ele>654.4</ele>
        <time>2019-08-04T07:10:13.000Z</time>
      </trkpt>
      <trkpt lat="43.39079" lon="2.21981">
        <ele>654.4</ele>
        <time>2019-08-04T07:10:14.000Z</time>
      </trkpt>
      <trkpt lat="43.39081" lon="2.21984">
        <ele>654.3</ele>
        <time>2019-08-04T07:10:15.000Z</time>
      </trkpt>
      <trkpt lat="43.39082" lon="2.21986">
        <ele>654.3</ele>
        <time>2019-08-04T07:10:16.000Z</time>
      </trkpt>
      <trkpt lat="43.39084" lon="2.21988">
        <ele>654.2</ele>
        <time>2019-08-04T07:10:17.000Z</time>
      </trkpt>
      <trkpt lat="43.39085" lon="2.2199">
        <ele>654.2</ele>
        <time>2019-08-04T07:10:18.000Z</time>
      </trkpt>
      <trkpt lat="43.39087" lon="2.21992">
        <ele>654.2</ele>
        <time>2019-08-04T07:10:19.000Z</time>
      </trkpt>
      <trkpt lat="43.39088" lon="2.21994">
        <ele>654.1</ele>
        <time>2019-08-04T07:10:20.000Z</time>
      </trkpt>
      <trkpt lat="43.39089" lon="2.21996">
        <ele>654</ele>
        <time>2019-08-04T07:10:21.000Z</time>
      </trkpt>
      <trkpt lat="43.3909" lon="2.21998">
        <ele>653.9</ele>
        <time>2019-08-04T07:10:22.000Z</time>
      </trkpt>
      <trkpt lat="43.39091" lon="2.22">
        <ele>653.9</ele>
        <time>2019-08-04T07:10:23.000Z</time>
      </trkpt>
      <trkpt lat="43.39092" lon="2.22002">
        <ele>653.9</ele>
        <time>2019-08-04T07:10:24.000Z</time>
      </trkpt>
      <trkpt lat="43.39093" lon="2.22004">
        <ele>653.8</ele>
        <time>2019-08-04T07:10:25.000Z</time>
      </trkpt>
      <trkpt lat="43.39094" lon="2.22006">
        <ele>653.8</ele>
        <time>2019-08-04T07:10:26.000Z</time>
      </trkpt>
      <trkpt lat="43.39095" lon="2.22008">
        <ele>653.8</ele>
        <time>2019-08-04T07:10:27.000Z</time>
      </trkpt>
      <trkpt lat="43.39096" lon="2.2201">
        <ele>653.8</ele>
        <time>2019-08-04T07:10:28.000Z</time>
      </trkpt>
      <trkpt lat="43.39097" lon="2.22012">
        <ele>653.8</ele>
        <time>2019-08-04T07:10:29.000Z</time>
      </trkpt>
      <trkpt lat="43.39098" lon="2.22014">
        <ele>653.7</ele>
        <time>2019-08-04T07:10:30.000Z</time>
      </trkpt>
      <trkpt lat="43.39099" lon="2.22017">
        <ele>653.7</ele>
        <time>2019-08-04T07:10:31.000Z</time>
      </trkpt>
      <trkpt lat="43.391" lon="2.22019">
        <ele>653.6</ele>
        <time>2019-08-04T07:10:32.000Z</time>
      </trkpt>
      <trkpt lat="43.39101" lon="2.22022">
        <ele>653.6</ele>
        <time>2019-08-04T07:10:33.000Z</time>
      </trkpt>
      <trkpt lat="43.39102" lon="2.22024">
        <ele>653.5</ele>
        <time>2019-08-04T07:10:34.000Z</time>
      </trkpt>
      <trkpt lat="43.39103" lon="2.22027">
        <ele>653.4</ele>
        <time>2019-08-04T07:10:35.000Z</time>
      </trkpt>
      <trkpt lat="43.39104" lon="2.2203">
        <ele>653.3</ele>
        <time>2019-08-04T07:10:36.000Z</time>
      </trkpt>
      <trkpt lat="43.39105" lon="2.22032">
        <ele>653.2</ele>
        <time>2019-08-04T07:10:37.000Z</time>
      </trkpt>
      <trkpt lat="43.39106" lon="2.22035">
        <ele>653.1</ele>
        <time>2019-08-04T07:10:38.000Z</time>
      </trkpt>
      <trkpt lat="43.39107" lon="2.22038">
        <ele>653</ele>
        <time>2019-08-04T07:10:39.000Z</time>
      </trkpt>
      <trkpt lat="43.39108" lon="2.22041">
        <ele>652.9</ele>
        <time>2019-08-04T07:10:40.000Z</time>
      </trkpt>
      <trkpt lat="43.3911" lon="2.22044">
        <ele>652.9</ele>
        <time>2019-08-04T07:10:41.000Z</time>
      </trkpt>
      <trkpt lat="43.39111" lon="2.22047">
        <ele>652.8</ele>
        <time>2019-08-04T07:10:42.000Z</time>
      </trkpt>
      <trkpt lat="43.39113" lon="2.2205">
        <ele>652.7</ele>
        <time>2019-08-04T07:10:43.000Z</time>
      </trkpt>
      <trkpt lat="43.39114" lon="2.22053">
        <ele>652.6</ele>
        <time>2019-08-04T07:10:44.000Z</time>
      </trkpt>
      <trkpt lat="43.39116" lon="2.22056">
        <ele>652.5</ele>
        <time>2019-08-04T07:10:45.000Z</time>
      </trkpt>
      <trkpt lat="43.39118" lon="2.22059">
        <ele>652.4</ele>
        <time>2019-08-04T07:10:46.000Z</time>
      </trkpt>
      <trkpt lat="43.3912" lon="2.22062">
        <ele>652.4</ele>
        <time>2019-08-04T07:10:47.000Z</time>
      </trkpt>
      <trkpt lat="43.39122" lon="2.22065">
        <ele>652.3</ele>
        <time>2019-08-04T07:10:48.000Z</time>
      </trkpt>
      <trkpt lat="43.39124" lon="2.22068">
        <ele>652.3</ele>
        <time>2019-08-04T07:10:49.000Z</time>
      </trkpt>
      <trkpt lat="43.39127" lon="2.2207">
        <ele>652.2</ele>
        <time>2019-08-04T07:10:50.000Z</time>
      </trkpt>
      <trkpt lat="43.39129" lon="2.22073">
        <ele>652.2</ele>
        <time>2019-08-04T07:10:51.000Z</time>
      </trkpt>
      <trkpt lat="43.39131" lon="2.22075">
        <ele>652.2</ele>
        <time>2019-08-04T07:10:52.000Z</time>
      </trkpt>
      <trkpt lat="43.39133" lon="2.22078">
        <ele>652.1</ele>
        <time>2019-08-04T07:10:53.000Z</time>
      </trkpt>
      <trkpt lat="43.39136" lon="2.2208">
        <ele>652.1</ele>
        <time>2019-08-04T07:10:54.000Z</time>
      </trkpt>
      <trkpt lat="43.39138" lon="2.22082">
        <ele>652.1</ele>
        <time>2019-08-04T07:10:55.000Z</time>
      </trkpt>
      <trkpt lat="43.3914" lon="2.22083">
        <ele>652.1</ele>
        <time>2019-08-04T07:10:56.000Z</time>
      </trkpt>
      <trkpt lat="43.39142" lon="2.22085">
        <ele>652.3</ele>
        <time>2019-08-04T07:10:57.000Z</time>
      </trkpt>
      <trkpt lat="43.39145" lon="2.22087">
        <ele>652.5</ele>
        <time>2019-08-04T07:10:58.000Z</time>
      </trkpt>
      <trkpt lat="43.39147" lon="2.22088">
        <ele>652.7</ele>
        <time>2019-08-04T07:10:59.000Z</time>
      </trkpt>
      <trkpt lat="43.39149" lon="2.2209">
        <ele>652.9</ele>
        <time>2019-08-04T07:11:00.000Z</time>
      </trkpt>
      <trkpt lat="43.39152" lon="2.22092">
        <ele>653.1</ele>
        <time>2019-08-04T07:11:01.000Z</time>
      </trkpt>
      <trkpt lat="43.39154" lon="2.22093">
        <ele>653.2</ele>
        <time>2019-08-04T07:11:02.000Z</time>
      </trkpt>
      <trkpt lat="43.39157" lon="2.22095">
        <ele>653.4</ele>
        <time>2019-08-04T07:11:03.000Z</time>
      </trkpt>
      <trkpt lat="43.39159" lon="2.22096">
        <ele>653.5</ele>
        <time>2019-08-04T07:11:04.000Z</time>
      </trkpt>
      <trkpt lat="43.39162" lon="2.22098">
        <ele>653.6</ele>
        <time>2019-08-04T07:11:05.000Z</time>
      </trkpt>
      <trkpt lat="43.39164" lon="2.221">
        <ele>653.7</ele>
        <time>2019-08-04T07:11:06.000Z</time>
      </trkpt>
      <trkpt lat="43.39166" lon="2.22101">
        <ele>653.8</ele>
        <time>2019-08-04T07:11:07.000Z</time>
      </trkpt>
      <trkpt lat="43.39168" lon="2.22102">
        <ele>653.9</ele>
        <time>2019-08-04T07:11:08.000Z</time>
      </trkpt>
      <trkpt lat="43.39171" lon="2.22104">
        <ele>654.1</ele>
        <time>2019-08-04T07:11:09.000Z</time>
      </trkpt>
      <trkpt lat="43.39173" lon="2.22105">
        <ele>654.3</ele>
        <time>2019-08-04T07:11:10.000Z</time>
      </trkpt>
      <trkpt lat="43.39175" lon="2.22106">
        <ele>654.5</ele>
        <time>2019-08-04T07:11:11.000Z</time>
      </trkpt>
      <trkpt lat="43.39177" lon="2.22107">
        <ele>654.6</ele>
        <time>2019-08-04T07:11:12.000Z</time>
      </trkpt>
      <trkpt lat="43.39178" lon="2.22108">
        <ele>654.8</ele>
        <time>2019-08-04T07:11:13.000Z</time>
      </trkpt>
      <trkpt lat="43.39181" lon="2.22108">
        <ele>655</ele>
        <time>2019-08-04T07:11:14.000Z</time>
      </trkpt>
      <trkpt lat="43.39183" lon="2.22109">
        <ele>655.1</ele>
        <time>2019-08-04T07:11:15.000Z</time>
      </trkpt>
      <trkpt lat="43.39185" lon="2.2211">
        <ele>655.3</ele>
        <time>2019-08-04T07:11:16.000Z</time>
      </trkpt>
      <trkpt lat="43.39187" lon="2.22111">
        <ele>655.5</ele>
        <time>2019-08-04T07:11:17.000Z</time>
      </trkpt>
      <trkpt lat="43.39189" lon="2.22111">
        <ele>655.7</ele>
        <time>2019-08-04T07:11:18.000Z</time>
      </trkpt>
      <trkpt lat="43.39192" lon="2.22112">
        <ele>655.8</ele>
        <time>2019-08-04T07:11:19.000Z</time>
      </trkpt>
      <trkpt lat="43.39194" lon="2.22113">
        <ele>656</ele>
        <time>2019-08-04T07:11:20.000Z</time>
      </trkpt>
      <trkpt lat="43.39197" lon="2.22113">
        <ele>656.2</ele>
        <time>2019-08-04T07:11:21.000Z</time>
      </trkpt>
      <trkpt lat="43.39199" lon="2.22114">
        <ele>656.4</ele>
        <time>2019-08-04T07:11:22.000Z</time>
      </trkpt>
      <trkpt lat="43.39201" lon="2.22115">
        <ele>656.5</ele>
        <time>2019-08-04T07:11:23.000Z</time>
      </trkpt>
      <trkpt lat="43.39204" lon="2.22115">
        <ele>656.7</ele>
        <time>2019-08-04T07:11:24.000Z</time>
      </trkpt>
      <trkpt lat="43.39206" lon="2.22116">
        <ele>656.8</ele>
        <time>2019-08-04T07:11:25.000Z</time>
      </trkpt>
      <trkpt lat="43.39208" lon="2.22117">
        <ele>657</ele>
        <time>2019-08-04T07:11:26.000Z</time>
      </trkpt>
      <trkpt lat="43.39211" lon="2.22118">
        <ele>657.1</ele>
        <time>2019-08-04T07:11:27.000Z</time>
      </trkpt>
      <trkpt lat="43.39213" lon="2.22119">
        <ele>657.2</ele>
        <time>2019-08-04T07:11:28.000Z</time>
      </trkpt>
      <trkpt lat="43.39215" lon="2.2212">
        <ele>657.3</ele>
        <time>2019-08-04T07:11:29.000Z</time>
      </trkpt>
      <trkpt lat="43.39217" lon="2.22121">
        <ele>657.4</ele>
        <time>2019-08-04T07:11:30.000Z</time>
      </trkpt>
      <trkpt lat="43.39219" lon="2.22122">
        <ele>657.4</ele>
        <time>2019-08-04T07:11:31.000Z</time>
      </trkpt>
      <trkpt lat="43.3922" lon="2.22124">
        <ele>657.5</ele>
        <time>2019-08-04T07:11:32.000Z</time>
      </trkpt>
      <trkpt lat="43.39222" lon="2.22125">
        <ele>657.5</ele>
        <time>2019-08-04T07:11:33.000Z</time>
      </trkpt>
      <trkpt lat="43.39224" lon="2.22127">
        <ele>657.5</ele>
        <time>2019-08-04T07:11:34.000Z</time>
      </trkpt>
      <trkpt lat="43.39225" lon="2.22128">
        <ele>657.4</ele>
        <time>2019-08-04T07:11:35.000Z</time>
      </trkpt>
      <trkpt lat="43.39227" lon="2.2213">
        <ele>657.4</ele>
        <time>2019-08-04T07:11:36.000Z</time>
      </trkpt>
      <trkpt lat="43.39229" lon="2.22132">
        <ele>657.3</ele>
        <time>2019-08-04T07:11:37.000Z</time>
      </trkpt>
      <trkpt lat="43.3923" lon="2.22135">
        <ele>657.3</ele>
        <time>2019-08-04T07:11:38.000Z</time>
      </trkpt>
      <trkpt lat="43.39232" lon="2.22137">
        <ele>657.2</ele>
        <time>2019-08-04T07:11:39.000Z</time>
      </trkpt>
      <trkpt lat="43.39234" lon="2.22139">
        <ele>657.1</ele>
        <time>2019-08-04T07:11:40.000Z</time>
      </trkpt>
      <trkpt lat="43.39236" lon="2.22141">
        <ele>657</ele>
        <time>2019-08-04T07:11:41.000Z</time>
      </trkpt>
      <trkpt lat="43.39238" lon="2.22144">
        <ele>656.9</ele>
        <time>2019-08-04T07:11:42.000Z</time>
      </trkpt>
      <trkpt lat="43.3924" lon="2.22146">
        <ele>656.8</ele>
        <time>2019-08-04T07:11:43.000Z</time>
      </trkpt>
      <trkpt lat="43.39242" lon="2.22147">
        <ele>656.7</ele>
        <time>2019-08-04T07:11:44.000Z</time>
      </trkpt>
      <trkpt lat="43.39244" lon="2.22149">
        <ele>656.7</ele>
        <time>2019-08-04T07:11:45.000Z</time>
      </trkpt>
      <trkpt lat="43.39246" lon="2.2215">
        <ele>656.6</ele>
        <time>2019-08-04T07:11:46.000Z</time>
      </trkpt>
      <trkpt lat="43.39249" lon="2.22152">
        <ele>656.6</ele>
        <time>2019-08-04T07:11:47.000Z</time>
      </trkpt>
      <trkpt lat="43.39251" lon="2.22153">
        <ele>656.6</ele>
        <time>2019-08-04T07:11:48.000Z</time>
      </trkpt>
      <trkpt lat="43.39254" lon="2.22154">
        <ele>656.7</ele>
        <time>2019-08-04T07:11:49.000Z</time>
      </trkpt>
      <trkpt lat="43.39256" lon="2.22155">
        <ele>656.8</ele>
        <time>2019-08-04T07:11:50.000Z</time>
      </trkpt>
      <trkpt lat="43.39259" lon="2.22155">
        <ele>656.9</ele>
        <time>2019-08-04T07:11:51.000Z</time>
      </trkpt>
      <trkpt lat="43.39261" lon="2.22156">
        <ele>657</ele>
        <time>2019-08-04T07:11:52.000Z</time>
      </trkpt>
      <trkpt lat="43.39264" lon="2.22157">
        <ele>657.1</ele>
        <time>2019-08-04T07:11:53.000Z</time>
      </trkpt>
      <trkpt lat="43.39266" lon="2.22158">
        <ele>657.2</ele>
        <time>2019-08-04T07:11:54.000Z</time>
      </trkpt>
      <trkpt lat="43.39269" lon="2.22159">
        <ele>657.3</ele>
        <time>2019-08-04T07:11:55.000Z</time>
      </trkpt>
      <trkpt lat="43.39271" lon="2.2216">
        <ele>657.3</ele>
        <time>2019-08-04T07:11:56.000Z</time>
      </trkpt>
      <trkpt lat="43.39273" lon="2.22161">
        <ele>657.4</ele>
        <time>2019-08-04T07:11:57.000Z</time>
      </trkpt>
      <trkpt lat="43.39276" lon="2.22162">
        <ele>657.5</ele>
        <time>2019-08-04T07:11:58.000Z</time>
      </trkpt>
      <trkpt lat="43.39278" lon="2.22163">
        <ele>657.5</ele>
        <time>2019-08-04T07:11:59.000Z</time>
      </trkpt>
      <trkpt lat="43.3928" lon="2.22164">
        <ele>657.5</ele>
        <time>2019-08-04T07:12:00.000Z</time>
      </trkpt>
      <trkpt lat="43.39282" lon="2.22165">
        <ele>657.5</ele>
        <time>2019-08-04T07:12:01.000Z</time>
      </trkpt>
      <trkpt lat="43.39284" lon="2.22166">
        <ele>657.5</ele>
        <time>2019-08-04T07:12:02.000Z</time>
      </trkpt>
      <trkpt lat="43.39286" lon="2.22167">
        <ele>657.6</ele>
        <time>2019-08-04T07:12:03.000Z</time>
      </trkpt>
      <trkpt lat="43.39287" lon="2.22168">
        <ele>657.6</ele>
        <time>2019-08-04T07:12:04.000Z</time>
      </trkpt>
      <trkpt lat="43.39289" lon="2.22169">
        <ele>657.7</ele>
        <time>2019-08-04T07:12:05.000Z</time>
      </trkpt>
      <trkpt lat="43.39291" lon="2.22169">
        <ele>657.8</ele>
        <time>2019-08-04T07:12:06.000Z</time>
      </trkpt>
      <trkpt lat="43.39293" lon="2.2217">
        <ele>657.9</ele>
        <time>2019-08-04T07:12:07.000Z</time>
      </trkpt>
      <trkpt lat="43.39295" lon="2.22171">
        <ele>658</ele>
        <time>2019-08-04T07:12:08.000Z</time>
      </trkpt>
      <trkpt lat="43.39297" lon="2.22171">
        <ele>658.1</ele>
        <time>2019-08-04T07:12:09.000Z</time>
      </trkpt>
      <trkpt lat="43.39299" lon="2.22172">
        <ele>658.1</ele>
        <time>2019-08-04T07:12:10.000Z</time>
      </trkpt>
      <trkpt lat="43.39301" lon="2.22173">
        <ele>658.2</ele>
        <time>2019-08-04T07:12:11.000Z</time>
      </trkpt>
      <trkpt lat="43.39302" lon="2.22175">
        <ele>658.2</ele>
        <time>2019-08-04T07:12:12.000Z</time>
      </trkpt>
      <trkpt lat="43.39304" lon="2.22177">
        <ele>658.1</ele>
        <time>2019-08-04T07:12:13.000Z</time>
      </trkpt>
      <trkpt lat="43.39306" lon="2.22179">
        <ele>658.1</ele>
        <time>2019-08-04T07:12:14.000Z</time>
      </trkpt>
      <trkpt lat="43.39308" lon="2.22181">
        <ele>658.1</ele>
        <time>2019-08-04T07:12:15.000Z</time>
      </trkpt>
      <trkpt lat="43.39309" lon="2.22182">
        <ele>658</ele>
        <time>2019-08-04T07:12:16.000Z</time>
      </trkpt>
      <trkpt lat="43.39311" lon="2.22184">
        <ele>658</ele>
        <time>2019-08-04T07:12:17.000Z</time>
      </trkpt>
      <trkpt lat="43.39313" lon="2.22185">
        <ele>658</ele>
        <time>2019-08-04T07:12:18.000Z</time>
      </trkpt>
      <trkpt lat="43.39315" lon="2.22186">
        <ele>658</ele>
        <time>2019-08-04T07:12:19.000Z</time>
      </trkpt>
      <trkpt lat="43.39317" lon="2.22187">
        <ele>658</ele>
        <time>2019-08-04T07:12:20.000Z</time>
      </trkpt>
      <trkpt lat="43.39319" lon="2.22188">
        <ele>658</ele>
        <time>2019-08-04T07:12:21.000Z</time>
      </trkpt>
      <trkpt lat="43.39321" lon="2.22189">
        <ele>658</ele>
        <time>2019-08-04T07:12:22.000Z</time>
      </trkpt>
      <trkpt lat="43.39323" lon="2.2219">
        <ele>658</ele>
        <time>2019-08-04T07:12:23.000Z</time>
      </trkpt>
      <trkpt lat="43.39325" lon="2.2219">
        <ele>658.1</ele>
        <time>2019-08-04T07:12:24.000Z</time>
      </trkpt>
      <trkpt lat="43.39327" lon="2.22191">
        <ele>658.1</ele>
        <time>2019-08-04T07:12:25.000Z</time>
      </trkpt>
      <trkpt lat="43.39329" lon="2.22191">
        <ele>658.1</ele>
        <time>2019-08-04T07:12:26.000Z</time>
      </trkpt>
      <trkpt lat="43.39331" lon="2.22192">
        <ele>658.2</ele>
        <time>2019-08-04T07:12:27.000Z</time>
      </trkpt>
      <trkpt lat="43.39333" lon="2.22193">
        <ele>658.2</ele>
        <time>2019-08-04T07:12:28.000Z</time>
      </trkpt>
      <trkpt lat="43.39335" lon="2.22193">
        <ele>658.2</ele>
        <time>2019-08-04T07:12:29.000Z</time>
      </trkpt>
      <trkpt lat="43.39336" lon="2.22194">
        <ele>658.3</ele>
        <time>2019-08-04T07:12:30.000Z</time>
      </trkpt>
      <trkpt lat="43.39338" lon="2.22195">
        <ele>658.3</ele>
        <time>2019-08-04T07:12:31.000Z</time>
      </trkpt>
      <trkpt lat="43.3934" lon="2.22196">
        <ele>658.4</ele>
        <time>2019-08-04T07:12:32.000Z</time>
      </trkpt>
      <trkpt lat="43.39343" lon="2.22198">
        <ele>658.5</ele>
        <time>2019-08-04T07:12:33.000Z</time>
      </trkpt>
      <trkpt lat="43.39346" lon="2.222">
        <ele>658.5</ele>
        <time>2019-08-04T07:12:34.000Z</time>
      </trkpt>
      <trkpt lat="43.39349" lon="2.22201">
        <ele>658.7</ele>
        <time>2019-08-04T07:12:35.000Z</time>
      </trkpt>
      <trkpt lat="43.39352" lon="2.22203">
        <ele>658.8</ele>
        <time>2019-08-04T07:12:36.000Z</time>
      </trkpt>
      <trkpt lat="43.39354" lon="2.22204">
        <ele>658.9</ele>
        <time>2019-08-04T07:12:37.000Z</time>
      </trkpt>
      <trkpt lat="43.39356" lon="2.22205">
        <ele>659</ele>
        <time>2019-08-04T07:12:38.000Z</time>
      </trkpt>
      <trkpt lat="43.39358" lon="2.22206">
        <ele>659.1</ele>
        <time>2019-08-04T07:12:39.000Z</time>
      </trkpt>
      <trkpt lat="43.3936" lon="2.22208">
        <ele>659.1</ele>
        <time>2019-08-04T07:12:40.000Z</time>
      </trkpt>
      <trkpt lat="43.39362" lon="2.2221">
        <ele>659.1</ele>
        <time>2019-08-04T07:12:41.000Z</time>
      </trkpt>
      <trkpt lat="43.39364" lon="2.22212">
        <ele>659.1</ele>
        <time>2019-08-04T07:12:42.000Z</time>
      </trkpt>
      <trkpt lat="43.39366" lon="2.22215">
        <ele>659</ele>
        <time>2019-08-04T07:12:43.000Z</time>
      </trkpt>
      <trkpt lat="43.39367" lon="2.22219">
        <ele>658.9</ele>
        <time>2019-08-04T07:12:44.000Z</time>
      </trkpt>
      <trkpt lat="43.39368" lon="2.22222">
        <ele>658.8</ele>
        <time>2019-08-04T07:12:45.000Z</time>
      </trkpt>
      <trkpt lat="43.39369" lon="2.22225">
        <ele>658.7</ele>
        <time>2019-08-04T07:12:46.000Z</time>
      </trkpt>
      <trkpt lat="43.39371" lon="2.22228">
        <ele>658.6</ele>
        <time>2019-08-04T07:12:47.000Z</time>
      </trkpt>
      <trkpt lat="43.39372" lon="2.2223">
        <ele>658.6</ele>
        <time>2019-08-04T07:12:48.000Z</time>
      </trkpt>
      <trkpt lat="43.39373" lon="2.22231">
        <ele>658.6</ele>
        <time>2019-08-04T07:12:49.000Z</time>
      </trkpt>
      <trkpt lat="43.39374" lon="2.22233">
        <ele>658.6</ele>
        <time>2019-08-04T07:12:50.000Z</time>
      </trkpt>
      <trkpt lat="43.39375" lon="2.22235">
        <ele>658.6</ele>
        <time>2019-08-04T07:12:51.000Z</time>
      </trkpt>
      <trkpt lat="43.39377" lon="2.22238">
        <ele>658.6</ele>
        <time>2019-08-04T07:12:52.000Z</time>
      </trkpt>
      <trkpt lat="43.39379" lon="2.22242">
        <ele>658.6</ele>
        <time>2019-08-04T07:12:53.000Z</time>
      </trkpt>
      <trkpt lat="43.39381" lon="2.22246">
        <ele>658.5</ele>
        <time>2019-08-04T07:12:54.000Z</time>
      </trkpt>
      <trkpt lat="43.39383" lon="2.2225">
        <ele>658.5</ele>
        <time>2019-08-04T07:12:55.000Z</time>
      </trkpt>
      <trkpt lat="43.39385" lon="2.22255">
        <ele>658.7</ele>
        <time>2019-08-04T07:12:56.000Z</time>
      </trkpt>
      <trkpt lat="43.39386" lon="2.2226">
        <ele>659</ele>
        <time>2019-08-04T07:12:57.000Z</time>
      </trkpt>
      <trkpt lat="43.39388" lon="2.22264">
        <ele>659.2</ele>
        <time>2019-08-04T07:12:58.000Z</time>
      </trkpt>
      <trkpt lat="43.39389" lon="2.22268">
        <ele>659.3</ele>
        <time>2019-08-04T07:12:59.000Z</time>
      </trkpt>
      <trkpt lat="43.3939" lon="2.22272">
        <ele>659.4</ele>
        <time>2019-08-04T07:13:00.000Z</time>
      </trkpt>
      <trkpt lat="43.39391" lon="2.22275">
        <ele>659.5</ele>
        <time>2019-08-04T07:13:01.000Z</time>
      </trkpt>
      <trkpt lat="43.39392" lon="2.22278">
        <ele>659.6</ele>
        <time>2019-08-04T07:13:02.000Z</time>
      </trkpt>
      <trkpt lat="43.39393" lon="2.22281">
        <ele>659.6</ele>
        <time>2019-08-04T07:13:03.000Z</time>
      </trkpt>
      <trkpt lat="43.39393" lon="2.22284">
        <ele>659.7</ele>
        <time>2019-08-04T07:13:04.000Z</time>
      </trkpt>
      <trkpt lat="43.39394" lon="2.22286">
        <ele>659.7</ele>
        <time>2019-08-04T07:13:05.000Z</time>
      </trkpt>
      <trkpt lat="43.39394" lon="2.22289">
        <ele>659.8</ele>
        <time>2019-08-04T07:13:06.000Z</time>
      </trkpt>
      <trkpt lat="43.39395" lon="2.22292">
        <ele>659.8</ele>
        <time>2019-08-04T07:13:07.000Z</time>
      </trkpt>
      <trkpt lat="43.39396" lon="2.22295">
        <ele>659.8</ele>
        <time>2019-08-04T07:13:08.000Z</time>
      </trkpt>
      <trkpt lat="43.39396" lon="2.22297">
        <ele>659.9</ele>
        <time>2019-08-04T07:13:09.000Z</time>
      </trkpt>
      <trkpt lat="43.39397" lon="2.223">
        <ele>659.9</ele>
        <time>2019-08-04T07:13:10.000Z</time>
      </trkpt>
      <trkpt lat="43.39398" lon="2.22303">
        <ele>660</ele>
        <time>2019-08-04T07:13:11.000Z</time>
      </trkpt>
      <trkpt lat="43.39399" lon="2.22306">
        <ele>660</ele>
        <time>2019-08-04T07:13:12.000Z</time>
      </trkpt>
      <trkpt lat="43.394" lon="2.22309">
        <ele>660.1</ele>
        <time>2019-08-04T07:13:13.000Z</time>
      </trkpt>
      <trkpt lat="43.39401" lon="2.22312">
        <ele>660.1</ele>
        <time>2019-08-04T07:13:14.000Z</time>
      </trkpt>
      <trkpt lat="43.39402" lon="2.22316">
        <ele>660.1</ele>
        <time>2019-08-04T07:13:15.000Z</time>
      </trkpt>
      <trkpt lat="43.39403" lon="2.22319">
        <ele>660.2</ele>
        <time>2019-08-04T07:13:16.000Z</time>
      </trkpt>
      <trkpt lat="43.39403" lon="2.22322">
        <ele>660.2</ele>
        <time>2019-08-04T07:13:17.000Z</time>
      </trkpt>
      <trkpt lat="43.39404" lon="2.22326">
        <ele>660.2</ele>
        <time>2019-08-04T07:13:18.000Z</time>
      </trkpt>
      <trkpt lat="43.39405" lon="2.22329">
        <ele>660.2</ele>
        <time>2019-08-04T07:13:19.000Z</time>
      </trkpt>
      <trkpt lat="43.39405" lon="2.22332">
        <ele>660.2</ele>
        <time>2019-08-04T07:13:20.000Z</time>
      </trkpt>
      <trkpt lat="43.39406" lon="2.22336">
        <ele>660.3</ele>
        <time>2019-08-04T07:13:21.000Z</time>
      </trkpt>
      <trkpt lat="43.39406" lon="2.22339">
        <ele>660.3</ele>
        <time>2019-08-04T07:13:22.000Z</time>
      </trkpt>
      <trkpt lat="43.39406" lon="2.22343">
        <ele>660.4</ele>
        <time>2019-08-04T07:13:23.000Z</time>
      </trkpt>
      <trkpt lat="43.39407" lon="2.22346">
        <ele>660.4</ele>
        <time>2019-08-04T07:13:24.000Z</time>
      </trkpt>
      <trkpt lat="43.39407" lon="2.22349">
        <ele>660.4</ele>
        <time>2019-08-04T07:13:25.000Z</time>
      </trkpt>
      <trkpt lat="43.39407" lon="2.22352">
        <ele>660.5</ele>
        <time>2019-08-04T07:13:26.000Z</time>
      </trkpt>
      <trkpt lat="43.39407" lon="2.22356">
        <ele>660.5</ele>
        <time>2019-08-04T07:13:27.000Z</time>
      </trkpt>
      <trkpt lat="43.39406" lon="2.22359">
        <ele>660.5</ele>
        <time>2019-08-04T07:13:28.000Z</time>
      </trkpt>
      <trkpt lat="43.39406" lon="2.22362">
        <ele>660.6</ele>
        <time>2019-08-04T07:13:29.000Z</time>
      </trkpt>
      <trkpt lat="43.39406" lon="2.22365">
        <ele>660.6</ele>
        <time>2019-08-04T07:13:30.000Z</time>
      </trkpt>
      <trkpt lat="43.39406" lon="2.22368">
        <ele>660.6</ele>
        <time>2019-08-04T07:13:31.000Z</time>
      </trkpt>
      <trkpt lat="43.39406" lon="2.22371">
        <ele>660.6</ele>
        <time>2019-08-04T07:13:32.000Z</time>
      </trkpt>
      <trkpt lat="43.39406" lon="2.22374">
        <ele>660.7</ele>
        <time>2019-08-04T07:13:33.000Z</time>
      </trkpt>
      <trkpt lat="43.39406" lon="2.22377">
        <ele>660.7</ele>
        <time>2019-08-04T07:13:34.000Z</time>
      </trkpt>
      <trkpt lat="43.39406" lon="2.22379">
        <ele>660.7</ele>
        <time>2019-08-04T07:13:35.000Z</time>
      </trkpt>
      <trkpt lat="43.39407" lon="2.22382">
        <ele>660.8</ele>
        <time>2019-08-04T07:13:36.000Z</time>
      </trkpt>
      <trkpt lat="43.39407" lon="2.22384">
        <ele>660.8</ele>
        <time>2019-08-04T07:13:37.000Z</time>
      </trkpt>
      <trkpt lat="43.39407" lon="2.22387">
        <ele>660.8</ele>
        <time>2019-08-04T07:13:38.000Z</time>
      </trkpt>
      <trkpt lat="43.39408" lon="2.22389">
        <ele>660.9</ele>
        <time>2019-08-04T07:13:39.000Z</time>
      </trkpt>
      <trkpt lat="43.39408" lon="2.22391">
        <ele>660.9</ele>
        <time>2019-08-04T07:13:40.000Z</time>
      </trkpt>
      <trkpt lat="43.39409" lon="2.22393">
        <ele>660.9</ele>
        <time>2019-08-04T07:13:41.000Z</time>
      </trkpt>
      <trkpt lat="43.3941" lon="2.22396">
        <ele>660.9</ele>
        <time>2019-08-04T07:13:42.000Z</time>
      </trkpt>
      <trkpt lat="43.39411" lon="2.22398">
        <ele>661</ele>
        <time>2019-08-04T07:13:43.000Z</time>
      </trkpt>
      <trkpt lat="43.39412" lon="2.224">
        <ele>661</ele>
        <time>2019-08-04T07:13:44.000Z</time>
      </trkpt>
      <trkpt lat="43.39414" lon="2.22402">
        <ele>661</ele>
        <time>2019-08-04T07:13:45.000Z</time>
      </trkpt>
      <trkpt lat="43.39415" lon="2.22404">
        <ele>661</ele>
        <time>2019-08-04T07:13:46.000Z</time>
      </trkpt>
      <trkpt lat="43.39417" lon="2.22406">
        <ele>661</ele>
        <time>2019-08-04T07:13:47.000Z</time>
      </trkpt>
      <trkpt lat="43.39419" lon="2.22409">
        <ele>661.2</ele>
        <time>2019-08-04T07:13:48.000Z</time>
      </trkpt>
      <trkpt lat="43.3942" lon="2.22411">
        <ele>661.5</ele>
        <time>2019-08-04T07:13:49.000Z</time>
      </trkpt>
      <trkpt lat="43.39422" lon="2.22413">
        <ele>661.7</ele>
        <time>2019-08-04T07:13:50.000Z</time>
      </trkpt>
      <trkpt lat="43.39424" lon="2.22414">
        <ele>661.9</ele>
        <time>2019-08-04T07:13:51.000Z</time>
      </trkpt>
      <trkpt lat="43.39426" lon="2.22416">
        <ele>662.1</ele>
        <time>2019-08-04T07:13:52.000Z</time>
      </trkpt>
      <trkpt lat="43.39428" lon="2.22418">
        <ele>662.4</ele>
        <time>2019-08-04T07:13:53.000Z</time>
      </trkpt>
      <trkpt lat="43.3943" lon="2.22419">
        <ele>662.6</ele>
        <time>2019-08-04T07:13:54.000Z</time>
      </trkpt>
      <trkpt lat="43.39431" lon="2.22421">
        <ele>662.9</ele>
        <time>2019-08-04T07:13:55.000Z</time>
      </trkpt>
      <trkpt lat="43.39433" lon="2.22422">
        <ele>663.1</ele>
        <time>2019-08-04T07:13:56.000Z</time>
      </trkpt>
      <trkpt lat="43.39435" lon="2.22424">
        <ele>663.3</ele>
        <time>2019-08-04T07:13:57.000Z</time>
      </trkpt>
      <trkpt lat="43.39437" lon="2.22425">
        <ele>663.6</ele>
        <time>2019-08-04T07:13:58.000Z</time>
      </trkpt>
      <trkpt lat="43.39439" lon="2.22426">
        <ele>663.8</ele>
        <time>2019-08-04T07:13:59.000Z</time>
      </trkpt>
      <trkpt lat="43.39441" lon="2.22427">
        <ele>664</ele>
        <time>2019-08-04T07:14:00.000Z</time>
      </trkpt>
      <trkpt lat="43.39443" lon="2.22428">
        <ele>664.2</ele>
        <time>2019-08-04T07:14:01.000Z</time>
      </trkpt>
      <trkpt lat="43.39445" lon="2.22428">
        <ele>664.4</ele>
        <time>2019-08-04T07:14:02.000Z</time>
      </trkpt>
      <trkpt lat="43.39447" lon="2.22429">
        <ele>664.6</ele>
        <time>2019-08-04T07:14:03.000Z</time>
      </trkpt>
      <trkpt lat="43.39449" lon="2.2243">
        <ele>664.8</ele>
        <time>2019-08-04T07:14:04.000Z</time>
      </trkpt>
      <trkpt lat="43.39451" lon="2.22431">
        <ele>665</ele>
        <time>2019-08-04T07:14:05.000Z</time>
      </trkpt>
      <trkpt lat="43.39453" lon="2.22431">
        <ele>665.2</ele>
        <time>2019-08-04T07:14:06.000Z</time>
      </trkpt>
      <trkpt lat="43.39455" lon="2.22432">
        <ele>665.4</ele>
        <time>2019-08-04T07:14:07.000Z</time>
      </trkpt>
      <trkpt lat="43.39458" lon="2.22433">
        <ele>665.6</ele>
        <time>2019-08-04T07:14:08.000Z</time>
      </trkpt>
      <trkpt lat="43.3946" lon="2.22433">
        <ele>665.7</ele>
        <time>2019-08-04T07:14:09.000Z</time>
      </trkpt>
      <trkpt lat="43.39462" lon="2.22434">
        <ele>665.9</ele>
        <time>2019-08-04T07:14:10.000Z</time>
      </trkpt>
      <trkpt lat="43.39464" lon="2.22435">
        <ele>666.1</ele>
        <time>2019-08-04T07:14:11.000Z</time>
      </trkpt>
      <trkpt lat="43.39467" lon="2.22435">
        <ele>666.2</ele>
        <time>2019-08-04T07:14:12.000Z</time>
      </trkpt>
      <trkpt lat="43.39469" lon="2.22436">
        <ele>666.4</ele>
        <time>2019-08-04T07:14:13.000Z</time>
      </trkpt>
      <trkpt lat="43.39471" lon="2.22437">
        <ele>666.5</ele>
        <time>2019-08-04T07:14:14.000Z</time>
      </trkpt>
      <trkpt lat="43.39473" lon="2.22438">
        <ele>666.6</ele>
        <time>2019-08-04T07:14:15.000Z</time>
      </trkpt>
      <trkpt lat="43.39475" lon="2.22439">
        <ele>666.8</ele>
        <time>2019-08-04T07:14:16.000Z</time>
      </trkpt>
      <trkpt lat="43.39477" lon="2.2244">
        <ele>666.8</ele>
        <time>2019-08-04T07:14:17.000Z</time>
      </trkpt>
      <trkpt lat="43.39479" lon="2.22441">
        <ele>666.9</ele>
        <time>2019-08-04T07:14:18.000Z</time>
      </trkpt>
      <trkpt lat="43.39481" lon="2.22442">
        <ele>667</ele>
        <time>2019-08-04T07:14:19.000Z</time>
      </trkpt>
      <trkpt lat="43.39483" lon="2.22443">
        <ele>667</ele>
        <time>2019-08-04T07:14:20.000Z</time>
      </trkpt>
      <trkpt lat="43.39485" lon="2.22444">
        <ele>667.1</ele>
        <time>2019-08-04T07:14:21.000Z</time>
      </trkpt>
      <trkpt lat="43.39487" lon="2.22446">
        <ele>667.1</ele>
        <time>2019-08-04T07:14:22.000Z</time>
      </trkpt>
      <trkpt lat="43.39489" lon="2.22447">
        <ele>667</ele>
        <time>2019-08-04T07:14:23.000Z</time>
      </trkpt>
      <trkpt lat="43.39491" lon="2.22449">
        <ele>667</ele>
        <time>2019-08-04T07:14:24.000Z</time>
      </trkpt>
      <trkpt lat="43.39492" lon="2.2245">
        <ele>666.9</ele>
        <time>2019-08-04T07:14:25.000Z</time>
      </trkpt>
      <trkpt lat="43.39494" lon="2.22452">
        <ele>666.9</ele>
        <time>2019-08-04T07:14:26.000Z</time>
      </trkpt>
      <trkpt lat="43.39495" lon="2.22454">
        <ele>666.7</ele>
        <time>2019-08-04T07:14:27.000Z</time>
      </trkpt>
      <trkpt lat="43.39497" lon="2.22456">
        <ele>666.6</ele>
        <time>2019-08-04T07:14:28.000Z</time>
      </trkpt>
      <trkpt lat="43.39498" lon="2.22458">
        <ele>666.5</ele>
        <time>2019-08-04T07:14:29.000Z</time>
      </trkpt>
      <trkpt lat="43.39499" lon="2.2246">
        <ele>666.3</ele>
        <time>2019-08-04T07:14:30.000Z</time>
      </trkpt>
      <trkpt lat="43.395" lon="2.22462">
        <ele>666.2</ele>
        <time>2019-08-04T07:14:31.000Z</time>
      </trkpt>
      <trkpt lat="43.39502" lon="2.22464">
        <ele>666.2</ele>
        <time>2019-08-04T07:14:32.000Z</time>
      </trkpt>
      <trkpt lat="43.39503" lon="2.22466">
        <ele>666.1</ele>
        <time>2019-08-04T07:14:33.000Z</time>
      </trkpt>
      <trkpt lat="43.39504" lon="2.22468">
        <ele>666.1</ele>
        <time>2019-08-04T07:14:34.000Z</time>
      </trkpt>
      <trkpt lat="43.39505" lon="2.2247">
        <ele>666.1</ele>
        <time>2019-08-04T07:14:35.000Z</time>
      </trkpt>
      <trkpt lat="43.39506" lon="2.22472">
        <ele>666.1</ele>
        <time>2019-08-04T07:14:36.000Z</time>
      </trkpt>
      <trkpt lat="43.39508" lon="2.22474">
        <ele>666.1</ele>
        <time>2019-08-04T07:14:37.000Z</time>
      </trkpt>
      <trkpt lat="43.39509" lon="2.22476">
        <ele>666.1</ele>
        <time>2019-08-04T07:14:38.000Z</time>
      </trkpt>
      <trkpt lat="43.39511" lon="2.22477">
        <ele>666.2</ele>
        <time>2019-08-04T07:14:39.000Z</time>
      </trkpt>
      <trkpt lat="43.39512" lon="2.22479">
        <ele>666.2</ele>
        <time>2019-08-04T07:14:40.000Z</time>
      </trkpt>
      <trkpt lat="43.39514" lon="2.22481">
        <ele>666.3</ele>
        <time>2019-08-04T07:14:41.000Z</time>
      </trkpt>
      <trkpt lat="43.39517" lon="2.22483">
        <ele>666.4</ele>
        <time>2019-08-04T07:14:42.000Z</time>
      </trkpt>
      <trkpt lat="43.39519" lon="2.22486">
        <ele>666.4</ele>
        <time>2019-08-04T07:14:43.000Z</time>
      </trkpt>
      <trkpt lat="43.39522" lon="2.22488">
        <ele>666.5</ele>
        <time>2019-08-04T07:14:44.000Z</time>
      </trkpt>
      <trkpt lat="43.39524" lon="2.22491">
        <ele>666.5</ele>
        <time>2019-08-04T07:14:45.000Z</time>
      </trkpt>
      <trkpt lat="43.39527" lon="2.22493">
        <ele>666.5</ele>
        <time>2019-08-04T07:14:46.000Z</time>
      </trkpt>
      <trkpt lat="43.39528" lon="2.22496">
        <ele>666.4</ele>
        <time>2019-08-04T07:14:47.000Z</time>
      </trkpt>
      <trkpt lat="43.3953" lon="2.22498">
        <ele>666.2</ele>
        <time>2019-08-04T07:14:48.000Z</time>
      </trkpt>
      <trkpt lat="43.39531" lon="2.225">
        <ele>666.1</ele>
        <time>2019-08-04T07:14:49.000Z</time>
      </trkpt>
      <trkpt lat="43.39533" lon="2.22502">
        <ele>666.3</ele>
        <time>2019-08-04T07:14:50.000Z</time>
      </trkpt>
      <trkpt lat="43.39535" lon="2.22503">
        <ele>666.6</ele>
        <time>2019-08-04T07:14:51.000Z</time>
      </trkpt>
      <trkpt lat="43.39537" lon="2.22504">
        <ele>666.9</ele>
        <time>2019-08-04T07:14:52.000Z</time>
      </trkpt>
      <trkpt lat="43.3954" lon="2.22505">
        <ele>667.2</ele>
        <time>2019-08-04T07:14:53.000Z</time>
      </trkpt>
      <trkpt lat="43.39542" lon="2.22506">
        <ele>667.5</ele>
        <time>2019-08-04T07:14:54.000Z</time>
      </trkpt>
      <trkpt lat="43.39545" lon="2.22506">
        <ele>667.7</ele>
        <time>2019-08-04T07:14:55.000Z</time>
      </trkpt>
      <trkpt lat="43.39547" lon="2.22507">
        <ele>667.9</ele>
        <time>2019-08-04T07:14:56.000Z</time>
      </trkpt>
      <trkpt lat="43.39548" lon="2.22508">
        <ele>668.1</ele>
        <time>2019-08-04T07:14:57.000Z</time>
      </trkpt>
      <trkpt lat="43.39549" lon="2.22508">
        <ele>668.3</ele>
        <time>2019-08-04T07:14:58.000Z</time>
      </trkpt>
      <trkpt lat="43.3955" lon="2.22508">
        <ele>668.3</ele>
        <time>2019-08-04T07:14:59.000Z</time>
      </trkpt>
      <trkpt lat="43.39551" lon="2.22509">
        <ele>668.4</ele>
        <time>2019-08-04T07:15:00.000Z</time>
      </trkpt>
      <trkpt lat="43.39551" lon="2.22509">
        <ele>668.5</ele>
        <time>2019-08-04T07:15:01.000Z</time>
      </trkpt>
      <trkpt lat="43.39552" lon="2.2251">
        <ele>668.5</ele>
        <time>2019-08-04T07:15:02.000Z</time>
      </trkpt>
      <trkpt lat="43.39553" lon="2.22511">
        <ele>668.6</ele>
        <time>2019-08-04T07:15:03.000Z</time>
      </trkpt>
      <trkpt lat="43.39554" lon="2.22512">
        <ele>668.6</ele>
        <time>2019-08-04T07:15:04.000Z</time>
      </trkpt>
      <trkpt lat="43.39555" lon="2.22513">
        <ele>668.7</ele>
        <time>2019-08-04T07:15:05.000Z</time>
      </trkpt>
      <trkpt lat="43.39555" lon="2.22513">
        <ele>668.7</ele>
        <time>2019-08-04T07:15:06.000Z</time>
      </trkpt>
      <trkpt lat="43.39556" lon="2.22514">
        <ele>668.8</ele>
        <time>2019-08-04T07:15:07.000Z</time>
      </trkpt>
      <trkpt lat="43.39557" lon="2.22515">
        <ele>668.8</ele>
        <time>2019-08-04T07:15:08.000Z</time>
      </trkpt>
      <trkpt lat="43.39558" lon="2.22516">
        <ele>668.9</ele>
        <time>2019-08-04T07:15:09.000Z</time>
      </trkpt>
      <trkpt lat="43.39559" lon="2.22516">
        <ele>669</ele>
        <time>2019-08-04T07:15:10.000Z</time>
      </trkpt>
      <trkpt lat="43.3956" lon="2.22517">
        <ele>669</ele>
        <time>2019-08-04T07:15:11.000Z</time>
      </trkpt>
      <trkpt lat="43.3956" lon="2.22517">
        <ele>669</ele>
        <time>2019-08-04T07:15:12.000Z</time>
      </trkpt>
      <trkpt lat="43.39561" lon="2.22518">
        <ele>669.1</ele>
        <time>2019-08-04T07:15:13.000Z</time>
      </trkpt>
      <trkpt lat="43.39561" lon="2.22518">
        <ele>669.1</ele>
        <time>2019-08-04T07:15:14.000Z</time>
      </trkpt>
      <trkpt lat="43.39562" lon="2.22519">
        <ele>669.1</ele>
        <time>2019-08-04T07:15:15.000Z</time>
      </trkpt>
      <trkpt lat="43.39562" lon="2.2252">
        <ele>669.1</ele>
        <time>2019-08-04T07:15:16.000Z</time>
      </trkpt>
      <trkpt lat="43.39563" lon="2.22521">
        <ele>669.1</ele>
        <time>2019-08-04T07:15:17.000Z</time>
      </trkpt>
      <trkpt lat="43.39563" lon="2.22522">
        <ele>669.1</ele>
        <time>2019-08-04T07:15:18.000Z</time>
      </trkpt>
      <trkpt lat="43.39564" lon="2.22522">
        <ele>669.1</ele>
        <time>2019-08-04T07:15:19.000Z</time>
      </trkpt>
      <trkpt lat="43.39565" lon="2.22524">
        <ele>669.1</ele>
        <time>2019-08-04T07:15:20.000Z</time>
      </trkpt>
      <trkpt lat="43.39565" lon="2.22525">
        <ele>669.1</ele>
        <time>2019-08-04T07:15:21.000Z</time>
      </trkpt>
      <trkpt lat="43.39566" lon="2.22525">
        <ele>669.1</ele>
        <time>2019-08-04T07:15:22.000Z</time>
      </trkpt>
      <trkpt lat="43.39566" lon="2.22526">
        <ele>669.1</ele>
        <time>2019-08-04T07:15:23.000Z</time>
      </trkpt>
      <trkpt lat="43.39567" lon="2.22526">
        <ele>669.1</ele>
        <time>2019-08-04T07:15:24.000Z</time>
      </trkpt>
      <trkpt lat="43.39567" lon="2.22527">
        <ele>669.1</ele>
        <time>2019-08-04T07:15:25.000Z</time>
      </trkpt>
      <trkpt lat="43.39568" lon="2.22529">
        <ele>669.1</ele>
        <time>2019-08-04T07:15:26.000Z</time>
      </trkpt>
      <trkpt lat="43.39569" lon="2.2253">
        <ele>669</ele>
        <time>2019-08-04T07:15:27.000Z</time>
      </trkpt>
      <trkpt lat="43.39569" lon="2.22532">
        <ele>668.9</ele>
        <time>2019-08-04T07:15:28.000Z</time>
      </trkpt>
      <trkpt lat="43.3957" lon="2.22533">
        <ele>668.9</ele>
        <time>2019-08-04T07:15:29.000Z</time>
      </trkpt>
      <trkpt lat="43.3957" lon="2.22534">
        <ele>668.8</ele>
        <time>2019-08-04T07:15:30.000Z</time>
      </trkpt>
      <trkpt lat="43.39571" lon="2.22536">
        <ele>668.8</ele>
        <time>2019-08-04T07:15:31.000Z</time>
      </trkpt>
      <trkpt lat="43.39572" lon="2.22537">
        <ele>668.7</ele>
        <time>2019-08-04T07:15:32.000Z</time>
      </trkpt>
      <trkpt lat="43.39572" lon="2.22538">
        <ele>668.7</ele>
        <time>2019-08-04T07:15:33.000Z</time>
      </trkpt>
      <trkpt lat="43.39573" lon="2.22539">
        <ele>668.6</ele>
        <time>2019-08-04T07:15:34.000Z</time>
      </trkpt>
      <trkpt lat="43.39573" lon="2.2254">
        <ele>668.6</ele>
        <time>2019-08-04T07:15:35.000Z</time>
      </trkpt>
      <trkpt lat="43.39574" lon="2.22541">
        <ele>668.5</ele>
        <time>2019-08-04T07:15:36.000Z</time>
      </trkpt>
      <trkpt lat="43.39574" lon="2.22543">
        <ele>668.4</ele>
        <time>2019-08-04T07:15:37.000Z</time>
      </trkpt>
      <trkpt lat="43.39575" lon="2.22544">
        <ele>668.4</ele>
        <time>2019-08-04T07:15:38.000Z</time>
      </trkpt>
      <trkpt lat="43.39575" lon="2.22545">
        <ele>668.3</ele>
        <time>2019-08-04T07:15:39.000Z</time>
      </trkpt>
      <trkpt lat="43.39576" lon="2.22546">
        <ele>668.2</ele>
        <time>2019-08-04T07:15:40.000Z</time>
      </trkpt>
      <trkpt lat="43.39576" lon="2.22547">
        <ele>668.2</ele>
        <time>2019-08-04T07:15:41.000Z</time>
      </trkpt>
      <trkpt lat="43.39577" lon="2.22548">
        <ele>668.1</ele>
        <time>2019-08-04T07:15:42.000Z</time>
      </trkpt>
      <trkpt lat="43.39577" lon="2.2255">
        <ele>668</ele>
        <time>2019-08-04T07:15:43.000Z</time>
      </trkpt>
      <trkpt lat="43.39578" lon="2.22551">
        <ele>667.9</ele>
        <time>2019-08-04T07:15:44.000Z</time>
      </trkpt>
      <trkpt lat="43.39578" lon="2.22552">
        <ele>667.8</ele>
        <time>2019-08-04T07:15:45.000Z</time>
      </trkpt>
      <trkpt lat="43.39579" lon="2.22553">
        <ele>667.7</ele>
        <time>2019-08-04T07:15:46.000Z</time>
      </trkpt>
      <trkpt lat="43.3958" lon="2.22554">
        <ele>667.7</ele>
        <time>2019-08-04T07:15:47.000Z</time>
      </trkpt>
      <trkpt lat="43.3958" lon="2.22556">
        <ele>667.6</ele>
        <time>2019-08-04T07:15:48.000Z</time>
      </trkpt>
      <trkpt lat="43.39581" lon="2.22557">
        <ele>667.5</ele>
        <time>2019-08-04T07:15:49.000Z</time>
      </trkpt>
      <trkpt lat="43.39581" lon="2.22558">
        <ele>667.4</ele>
        <time>2019-08-04T07:15:50.000Z</time>
      </trkpt>
      <trkpt lat="43.39582" lon="2.22559">
        <ele>667.3</ele>
        <time>2019-08-04T07:15:51.000Z</time>
      </trkpt>
      <trkpt lat="43.39583" lon="2.22559">
        <ele>667.3</ele>
        <time>2019-08-04T07:15:52.000Z</time>
      </trkpt>
      <trkpt lat="43.39583" lon="2.2256">
        <ele>667.2</ele>
        <time>2019-08-04T07:15:53.000Z</time>
      </trkpt>
      <trkpt lat="43.39584" lon="2.22561">
        <ele>667.2</ele>
        <time>2019-08-04T07:15:54.000Z</time>
      </trkpt>
      <trkpt lat="43.39585" lon="2.22561">
        <ele>667.3</ele>
        <time>2019-08-04T07:15:55.000Z</time>
      </trkpt>
      <trkpt lat="43.39585" lon="2.22562">
        <ele>667.3</ele>
        <time>2019-08-04T07:15:56.000Z</time>
      </trkpt>
      <trkpt lat="43.39586" lon="2.22562">
        <ele>667.4</ele>
        <time>2019-08-04T07:15:57.000Z</time>
      </trkpt>
      <trkpt lat="43.39587" lon="2.22562">
        <ele>667.4</ele>
        <time>2019-08-04T07:15:58.000Z</time>
      </trkpt>
      <trkpt lat="43.39587" lon="2.22562">
        <ele>667.5</ele>
        <time>2019-08-04T07:15:59.000Z</time>
      </trkpt>
      <trkpt lat="43.39588" lon="2.22562">
        <ele>667.5</ele>
        <time>2019-08-04T07:16:00.000Z</time>
      </trkpt>
      <trkpt lat="43.39588" lon="2.22562">
        <ele>667.6</ele>
        <time>2019-08-04T07:16:01.000Z</time>
      </trkpt>
      <trkpt lat="43.39588" lon="2.22562">
        <ele>667.6</ele>
        <time>2019-08-04T07:16:02.000Z</time>
      </trkpt>
      <trkpt lat="43.39588" lon="2.22562">
        <ele>667.6</ele>
        <time>2019-08-04T07:16:03.000Z</time>
      </trkpt>
      <trkpt lat="43.39588" lon="2.22562">
        <ele>667.6</ele>
        <time>2019-08-04T07:16:04.000Z</time>
      </trkpt>
      <trkpt lat="43.39588" lon="2.22562">
        <ele>667.6</ele>
        <time>2019-08-04T07:16:05.000Z</time>
      </trkpt>
      <trkpt lat="43.39588" lon="2.22562">
        <ele>667.6</ele>
        <time>2019-08-04T07:16:06.000Z</time>
      </trkpt>
      <trkpt lat="43.39588" lon="2.22562">
        <ele>667.6</ele>
        <time>2019-08-04T07:16:07.000Z</time>
      </trkpt>
      <trkpt lat="43.39588" lon="2.22562">
        <ele>667.6</ele>
        <time>2019-08-04T07:16:08.000Z</time>
      </trkpt>
      <trkpt lat="43.39588" lon="2.22562">
        <ele>667.6</ele>
        <time>2019-08-04T07:16:09.000Z</time>
      </trkpt>
      <trkpt lat="43.39588" lon="2.22562">
        <ele>667.6</ele>
        <time>2019-08-04T07:16:10.000Z</time>
      </trkpt>
      <trkpt lat="43.39588" lon="2.22562">
        <ele>667.6</ele>
        <time>2019-08-04T07:16:11.000Z</time>
      </trkpt>
      <trkpt lat="43.39588" lon="2.22562">
        <ele>667.6</ele>
        <time>2019-08-04T07:16:12.000Z</time>
      </trkpt>
      <trkpt lat="43.39588" lon="2.22562">
        <ele>667.6</ele>
        <time>2019-08-04T07:16:13.000Z</time>
      </trkpt>
      <trkpt lat="43.39588" lon="2.22562">
        <ele>667.6</ele>
        <time>2019-08-04T07:16:14.000Z</time>
      </trkpt>
      <trkpt lat="43.39588" lon="2.22562">
        <ele>667.6</ele>
        <time>2019-08-04T07:16:15.000Z</time>
      </trkpt>
      <trkpt lat="43.39588" lon="2.22563">
        <ele>667.6</ele>
        <time>2019-08-04T07:16:16.000Z</time>
      </trkpt>
      <trkpt lat="43.39589" lon="2.22564">
        <ele>667.5</ele>
        <time>2019-08-04T07:16:17.000Z</time>
      </trkpt>
      <trkpt lat="43.39589" lon="2.22564">
        <ele>667.4</ele>
        <time>2019-08-04T07:16:18.000Z</time>
      </trkpt>
      <trkpt lat="43.39589" lon="2.22565">
        <ele>667.4</ele>
        <time>2019-08-04T07:16:19.000Z</time>
      </trkpt>
      <trkpt lat="43.39589" lon="2.22566">
        <ele>667.3</ele>
        <time>2019-08-04T07:16:20.000Z</time>
      </trkpt>
      <trkpt lat="43.39589" lon="2.22567">
        <ele>667.2</ele>
        <time>2019-08-04T07:16:21.000Z</time>
      </trkpt>
      <trkpt lat="43.39589" lon="2.22568">
        <ele>667.1</ele>
        <time>2019-08-04T07:16:22.000Z</time>
      </trkpt>
      <trkpt lat="43.39588" lon="2.22568">
        <ele>667</ele>
        <time>2019-08-04T07:16:23.000Z</time>
      </trkpt>
      <trkpt lat="43.39588" lon="2.22569">
        <ele>666.9</ele>
        <time>2019-08-04T07:16:24.000Z</time>
      </trkpt>
      <trkpt lat="43.39588" lon="2.22569">
        <ele>666.9</ele>
        <time>2019-08-04T07:16:25.000Z</time>
      </trkpt>
      <trkpt lat="43.39588" lon="2.2257">
        <ele>666.8</ele>
        <time>2019-08-04T07:16:26.000Z</time>
      </trkpt>
      <trkpt lat="43.39587" lon="2.2257">
        <ele>666.7</ele>
        <time>2019-08-04T07:16:27.000Z</time>
      </trkpt>
      <trkpt lat="43.39587" lon="2.2257">
        <ele>666.7</ele>
        <time>2019-08-04T07:16:28.000Z</time>
      </trkpt>
      <trkpt lat="43.39587" lon="2.22571">
        <ele>666.6</ele>
        <time>2019-08-04T07:16:29.000Z</time>
      </trkpt>
      <trkpt lat="43.39587" lon="2.22571">
        <ele>666.6</ele>
        <time>2019-08-04T07:16:30.000Z</time>
      </trkpt>
      <trkpt lat="43.39587" lon="2.22571">
        <ele>666.5</ele>
        <time>2019-08-04T07:16:31.000Z</time>
      </trkpt>
      <trkpt lat="43.39587" lon="2.22572">
        <ele>666.5</ele>
        <time>2019-08-04T07:16:32.000Z</time>
      </trkpt>
      <trkpt lat="43.39587" lon="2.22572">
        <ele>666.5</ele>
        <time>2019-08-04T07:16:33.000Z</time>
      </trkpt>
      <trkpt lat="43.39587" lon="2.22572">
        <ele>666.4</ele>
        <time>2019-08-04T07:16:34.000Z</time>
      </trkpt>
      <trkpt lat="43.39587" lon="2.22573">
        <ele>666.4</ele>
        <time>2019-08-04T07:16:35.000Z</time>
      </trkpt>
      <trkpt lat="43.39587" lon="2.22573">
        <ele>666.4</ele>
        <time>2019-08-04T07:16:36.000Z</time>
      </trkpt>
      <trkpt lat="43.39587" lon="2.22573">
        <ele>666.4</ele>
        <time>2019-08-04T07:16:37.000Z</time>
      </trkpt>
      <trkpt lat="43.39586" lon="2.22573">
        <ele>666.4</ele>
        <time>2019-08-04T07:16:38.000Z</time>
      </trkpt>
      <trkpt lat="43.39586" lon="2.22573">
        <ele>666.3</ele>
        <time>2019-08-04T07:16:39.000Z</time>
      </trkpt>
      <trkpt lat="43.39586" lon="2.22573">
        <ele>666.3</ele>
        <time>2019-08-04T07:16:40.000Z</time>
      </trkpt>
      <trkpt lat="43.39586" lon="2.22573">
        <ele>666.3</ele>
        <time>2019-08-04T07:16:41.000Z</time>
      </trkpt>
      <trkpt lat="43.39586" lon="2.22573">
        <ele>666.3</ele>
        <time>2019-08-04T07:16:42.000Z</time>
      </trkpt>
      <trkpt lat="43.39586" lon="2.22573">
        <ele>666.3</ele>
        <time>2019-08-04T07:16:43.000Z</time>
      </trkpt>
      <trkpt lat="43.39586" lon="2.22573">
        <ele>666.3</ele>
        <time>2019-08-04T07:16:44.000Z</time>
      </trkpt>
      <trkpt lat="43.39586" lon="2.22573">
        <ele>666.3</ele>
        <time>2019-08-04T07:16:45.000Z</time>
      </trkpt>
      <trkpt lat="43.39586" lon="2.22573">
        <ele>666.3</ele>
        <time>2019-08-04T07:16:46.000Z</time>
      </trkpt>
      <trkpt lat="43.39586" lon="2.22573">
        <ele>666.3</ele>
        <time>2019-08-04T07:16:47.000Z</time>
      </trkpt>
      <trkpt lat="43.39586" lon="2.22574">
        <ele>666.2</ele>
        <time>2019-08-04T07:16:48.000Z</time>
      </trkpt>
      <trkpt lat="43.39587" lon="2.22575">
        <ele>666.1</ele>
        <time>2019-08-04T07:16:49.000Z</time>
      </trkpt>
      <trkpt lat="43.39587" lon="2.22576">
        <ele>666.1</ele>
        <time>2019-08-04T07:16:50.000Z</time>
      </trkpt>
      <trkpt lat="43.39587" lon="2.22576">
        <ele>666.1</ele>
        <time>2019-08-04T07:16:51.000Z</time>
      </trkpt>
      <trkpt lat="43.39587" lon="2.22576">
        <ele>666.1</ele>
        <time>2019-08-04T07:16:52.000Z</time>
      </trkpt>
      <trkpt lat="43.39587" lon="2.22577">
        <ele>666</ele>
        <time>2019-08-04T07:16:53.000Z</time>
      </trkpt>
      <trkpt lat="43.39587" lon="2.22577">
        <ele>666</ele>
        <time>2019-08-04T07:16:54.000Z</time>
      </trkpt>
      <trkpt lat="43.39588" lon="2.22578">
        <ele>666</ele>
        <time>2019-08-04T07:16:55.000Z</time>
      </trkpt>
      <trkpt lat="43.39588" lon="2.22579">
        <ele>665.9</ele>
        <time>2019-08-04T07:16:56.000Z</time>
      </trkpt>
      <trkpt lat="43.39588" lon="2.2258">
        <ele>665.8</ele>
        <time>2019-08-04T07:16:57.000Z</time>
      </trkpt>
      <trkpt lat="43.39589" lon="2.22581">
        <ele>665.8</ele>
        <time>2019-08-04T07:16:58.000Z</time>
      </trkpt>
      <trkpt lat="43.39589" lon="2.22583">
        <ele>665.6</ele>
        <time>2019-08-04T07:16:59.000Z</time>
      </trkpt>
      <trkpt lat="43.3959" lon="2.22584">
        <ele>665.6</ele>
        <time>2019-08-04T07:17:00.000Z</time>
      </trkpt>
      <trkpt lat="43.3959" lon="2.22586">
        <ele>665.7</ele>
        <time>2019-08-04T07:17:01.000Z</time>
      </trkpt>
      <trkpt lat="43.3959" lon="2.22588">
        <ele>665.8</ele>
        <time>2019-08-04T07:17:02.000Z</time>
      </trkpt>
      <trkpt lat="43.39591" lon="2.2259">
        <ele>665.8</ele>
        <time>2019-08-04T07:17:03.000Z</time>
      </trkpt>
      <trkpt lat="43.39591" lon="2.22592">
        <ele>665.9</ele>
        <time>2019-08-04T07:17:04.000Z</time>
      </trkpt>
      <trkpt lat="43.39591" lon="2.22594">
        <ele>665.9</ele>
        <time>2019-08-04T07:17:05.000Z</time>
      </trkpt>
      <trkpt lat="43.39591" lon="2.22596">
        <ele>665.9</ele>
        <time>2019-08-04T07:17:06.000Z</time>
      </trkpt>
      <trkpt lat="43.39591" lon="2.22597">
        <ele>666</ele>
        <time>2019-08-04T07:17:07.000Z</time>
      </trkpt>
      <trkpt lat="43.39592" lon="2.22599">
        <ele>666.1</ele>
        <time>2019-08-04T07:17:08.000Z</time>
      </trkpt>
      <trkpt lat="43.39593" lon="2.226">
        <ele>666.1</ele>
        <time>2019-08-04T07:17:09.000Z</time>
      </trkpt>
      <trkpt lat="43.39594" lon="2.22601">
        <ele>666.2</ele>
        <time>2019-08-04T07:17:10.000Z</time>
      </trkpt>
      <trkpt lat="43.39594" lon="2.22602">
        <ele>666.3</ele>
        <time>2019-08-04T07:17:11.000Z</time>
      </trkpt>
      <trkpt lat="43.39595" lon="2.22604">
        <ele>666.4</ele>
        <time>2019-08-04T07:17:12.000Z</time>
      </trkpt>
      <trkpt lat="43.39596" lon="2.22605">
        <ele>666.4</ele>
        <time>2019-08-04T07:17:13.000Z</time>
      </trkpt>
      <trkpt lat="43.39596" lon="2.22606">
        <ele>666.5</ele>
        <time>2019-08-04T07:17:14.000Z</time>
      </trkpt>
      <trkpt lat="43.39597" lon="2.22608">
        <ele>666.6</ele>
        <time>2019-08-04T07:17:15.000Z</time>
      </trkpt>
      <trkpt lat="43.39598" lon="2.2261">
        <ele>666.6</ele>
        <time>2019-08-04T07:17:16.000Z</time>
      </trkpt>
      <trkpt lat="43.39598" lon="2.22611">
        <ele>666.7</ele>
        <time>2019-08-04T07:17:17.000Z</time>
      </trkpt>
      <trkpt lat="43.39599" lon="2.22613">
        <ele>666.7</ele>
        <time>2019-08-04T07:17:18.000Z</time>
      </trkpt>
      <trkpt lat="43.39599" lon="2.22614">
        <ele>666.8</ele>
        <time>2019-08-04T07:17:19.000Z</time>
      </trkpt>
      <trkpt lat="43.39599" lon="2.22616">
        <ele>666.8</ele>
        <time>2019-08-04T07:17:20.000Z</time>
      </trkpt>
      <trkpt lat="43.396" lon="2.22617">
        <ele>666.8</ele>
        <time>2019-08-04T07:17:21.000Z</time>
      </trkpt>
      <trkpt lat="43.396" lon="2.22619">
        <ele>666.9</ele>
        <time>2019-08-04T07:17:22.000Z</time>
      </trkpt>
      <trkpt lat="43.39601" lon="2.2262">
        <ele>666.9</ele>
        <time>2019-08-04T07:17:23.000Z</time>
      </trkpt>
      <trkpt lat="43.39601" lon="2.22621">
        <ele>666.9</ele>
        <time>2019-08-04T07:17:24.000Z</time>
      </trkpt>
      <trkpt lat="43.39602" lon="2.22623">
        <ele>667</ele>
        <time>2019-08-04T07:17:25.000Z</time>
      </trkpt>
      <trkpt lat="43.39602" lon="2.22624">
        <ele>667</ele>
        <time>2019-08-04T07:17:26.000Z</time>
      </trkpt>
      <trkpt lat="43.39603" lon="2.22625">
        <ele>667.1</ele>
        <time>2019-08-04T07:17:27.000Z</time>
      </trkpt>
      <trkpt lat="43.39604" lon="2.22626">
        <ele>667.1</ele>
        <time>2019-08-04T07:17:28.000Z</time>
      </trkpt>
      <trkpt lat="43.39604" lon="2.22627">
        <ele>667.1</ele>
        <time>2019-08-04T07:17:29.000Z</time>
      </trkpt>
      <trkpt lat="43.39605" lon="2.22629">
        <ele>667.2</ele>
        <time>2019-08-04T07:17:30.000Z</time>
      </trkpt>
      <trkpt lat="43.39606" lon="2.2263">
        <ele>667.2</ele>
        <time>2019-08-04T07:17:31.000Z</time>
      </trkpt>
      <trkpt lat="43.39606" lon="2.22631">
        <ele>667.2</ele>
        <time>2019-08-04T07:17:32.000Z</time>
      </trkpt>
      <trkpt lat="43.39607" lon="2.22633">
        <ele>667.3</ele>
        <time>2019-08-04T07:17:33.000Z</time>
      </trkpt>
      <trkpt lat="43.39607" lon="2.22634">
        <ele>667.3</ele>
        <time>2019-08-04T07:17:34.000Z</time>
      </trkpt>
      <trkpt lat="43.39608" lon="2.22635">
        <ele>667.3</ele>
        <time>2019-08-04T07:17:35.000Z</time>
      </trkpt>
      <trkpt lat="43.39608" lon="2.22637">
        <ele>667.3</ele>
        <time>2019-08-04T07:17:36.000Z</time>
      </trkpt>
      <trkpt lat="43.39609" lon="2.22638">
        <ele>667.3</ele>
        <time>2019-08-04T07:17:37.000Z</time>
      </trkpt>
      <trkpt lat="43.39609" lon="2.2264">
        <ele>667.4</ele>
        <time>2019-08-04T07:17:38.000Z</time>
      </trkpt>
      <trkpt lat="43.39609" lon="2.22642">
        <ele>667.4</ele>
        <time>2019-08-04T07:17:39.000Z</time>
      </trkpt>
      <trkpt lat="43.39609" lon="2.22643">
        <ele>667.4</ele>
        <time>2019-08-04T07:17:40.000Z</time>
      </trkpt>
      <trkpt lat="43.3961" lon="2.22645">
        <ele>667.4</ele>
        <time>2019-08-04T07:17:41.000Z</time>
      </trkpt>
      <trkpt lat="43.3961" lon="2.22646">
        <ele>667.4</ele>
        <time>2019-08-04T07:17:42.000Z</time>
      </trkpt>
      <trkpt lat="43.3961" lon="2.22648">
        <ele>667.4</ele>
        <time>2019-08-04T07:17:43.000Z</time>
      </trkpt>
      <trkpt lat="43.3961" lon="2.22649">
        <ele>667.4</ele>
        <time>2019-08-04T07:17:44.000Z</time>
      </trkpt>
      <trkpt lat="43.3961" lon="2.2265">
        <ele>667.4</ele>
        <time>2019-08-04T07:17:45.000Z</time>
      </trkpt>
      <trkpt lat="43.3961" lon="2.22651">
        <ele>667.4</ele>
        <time>2019-08-04T07:17:46.000Z</time>
      </trkpt>
      <trkpt lat="43.39611" lon="2.22652">
        <ele>667.4</ele>
        <time>2019-08-04T07:17:47.000Z</time>
      </trkpt>
      <trkpt lat="43.39611" lon="2.22653">
        <ele>667.4</ele>
        <time>2019-08-04T07:17:48.000Z</time>
      </trkpt>
      <trkpt lat="43.39611" lon="2.22654">
        <ele>667.4</ele>
        <time>2019-08-04T07:17:49.000Z</time>
      </trkpt>
      <trkpt lat="43.39611" lon="2.22654">
        <ele>667.4</ele>
        <time>2019-08-04T07:17:50.000Z</time>
      </trkpt>
      <trkpt lat="43.39611" lon="2.22655">
        <ele>667.4</ele>
        <time>2019-08-04T07:17:51.000Z</time>
      </trkpt>
      <trkpt lat="43.39611" lon="2.22655">
        <ele>667.4</ele>
        <time>2019-08-04T07:17:52.000Z</time>
      </trkpt>
      <trkpt lat="43.39612" lon="2.22656">
        <ele>667.4</ele>
        <time>2019-08-04T07:17:53.000Z</time>
      </trkpt>
      <trkpt lat="43.39612" lon="2.22656">
        <ele>667.4</ele>
        <time>2019-08-04T07:17:54.000Z</time>
      </trkpt>
      <trkpt lat="43.39612" lon="2.22657">
        <ele>667.4</ele>
        <time>2019-08-04T07:17:55.000Z</time>
      </trkpt>
      <trkpt lat="43.39612" lon="2.22657">
        <ele>667.4</ele>
        <time>2019-08-04T07:17:56.000Z</time>
      </trkpt>
      <trkpt lat="43.39612" lon="2.22657">
        <ele>667.4</ele>
        <time>2019-08-04T07:17:57.000Z</time>
      </trkpt>
      <trkpt lat="43.39612" lon="2.22657">
        <ele>667.4</ele>
        <time>2019-08-04T07:17:58.000Z</time>
      </trkpt>
      <trkpt lat="43.39612" lon="2.22657">
        <ele>667.4</ele>
        <time>2019-08-04T07:17:59.000Z</time>
      </trkpt>
      <trkpt lat="43.39612" lon="2.22657">
        <ele>667.4</ele>
        <time>2019-08-04T07:18:00.000Z</time>
      </trkpt>
      <trkpt lat="43.39612" lon="2.22657">
        <ele>667.4</ele>
        <time>2019-08-04T07:18:01.000Z</time>
      </trkpt>
      <trkpt lat="43.39612" lon="2.22657">
        <ele>667.4</ele>
        <time>2019-08-04T07:18:02.000Z</time>
      </trkpt>
      <trkpt lat="43.39612" lon="2.22657">
        <ele>667.4</ele>
        <time>2019-08-04T07:18:03.000Z</time>
      </trkpt>
      <trkpt lat="43.39612" lon="2.22657">
        <ele>667.4</ele>
        <time>2019-08-04T07:18:04.000Z</time>
      </trkpt>
      <trkpt lat="43.39612" lon="2.22657">
        <ele>667.4</ele>
        <time>2019-08-04T07:18:05.000Z</time>
      </trkpt>
      <trkpt lat="43.39612" lon="2.22656">
        <ele>667.4</ele>
        <time>2019-08-04T07:18:06.000Z</time>
      </trkpt>
      <trkpt lat="43.39612" lon="2.22656">
        <ele>667.4</ele>
        <time>2019-08-04T07:18:07.000Z</time>
      </trkpt>
      <trkpt lat="43.39612" lon="2.22656">
        <ele>667.4</ele>
        <time>2019-08-04T07:18:08.000Z</time>
      </trkpt>
      <trkpt lat="43.39612" lon="2.22656">
        <ele>667.4</ele>
        <time>2019-08-04T07:18:09.000Z</time>
      </trkpt>
      <trkpt lat="43.39612" lon="2.22656">
        <ele>667.4</ele>
        <time>2019-08-04T07:18:10.000Z</time>
      </trkpt>
      <trkpt lat="43.39612" lon="2.22656">
        <ele>667.4</ele>
        <time>2019-08-04T07:18:11.000Z</time>
      </trkpt>
      <trkpt lat="43.39612" lon="2.22656">
        <ele>667.4</ele>
        <time>2019-08-04T07:18:12.000Z</time>
      </trkpt>
      <trkpt lat="43.39612" lon="2.22656">
        <ele>667.4</ele>
        <time>2019-08-04T07:18:13.000Z</time>
      </trkpt>
      <trkpt lat="43.39613" lon="2.22656">
        <ele>667.4</ele>
        <time>2019-08-04T07:18:14.000Z</time>
      </trkpt>
      <trkpt lat="43.39613" lon="2.22656">
        <ele>667.4</ele>
        <time>2019-08-04T07:18:15.000Z</time>
      </trkpt>
      <trkpt lat="43.39614" lon="2.22656">
        <ele>667.4</ele>
        <time>2019-08-04T07:18:16.000Z</time>
      </trkpt>
      <trkpt lat="43.39615" lon="2.22655">
        <ele>667.5</ele>
        <time>2019-08-04T07:18:17.000Z</time>
      </trkpt>
      <trkpt lat="43.39616" lon="2.22655">
        <ele>667.5</ele>
        <time>2019-08-04T07:18:18.000Z</time>
      </trkpt>
      <trkpt lat="43.39616" lon="2.22655">
        <ele>667.5</ele>
        <time>2019-08-04T07:18:19.000Z</time>
      </trkpt>
      <trkpt lat="43.39617" lon="2.22655">
        <ele>667.5</ele>
        <time>2019-08-04T07:18:20.000Z</time>
      </trkpt>
      <trkpt lat="43.39617" lon="2.22655">
        <ele>667.5</ele>
        <time>2019-08-04T07:18:21.000Z</time>
      </trkpt>
      <trkpt lat="43.39618" lon="2.22654">
        <ele>667.5</ele>
        <time>2019-08-04T07:18:22.000Z</time>
      </trkpt>
      <trkpt lat="43.39618" lon="2.22654">
        <ele>667.5</ele>
        <time>2019-08-04T07:18:23.000Z</time>
      </trkpt>
      <trkpt lat="43.39618" lon="2.22654">
        <ele>667.6</ele>
        <time>2019-08-04T07:18:24.000Z</time>
      </trkpt>
      <trkpt lat="43.39619" lon="2.22655">
        <ele>667.6</ele>
        <time>2019-08-04T07:18:25.000Z</time>
      </trkpt>
      <trkpt lat="43.39619" lon="2.22655">
        <ele>667.6</ele>
        <time>2019-08-04T07:18:26.000Z</time>
      </trkpt>
      <trkpt lat="43.39619" lon="2.22656">
        <ele>667.6</ele>
        <time>2019-08-04T07:18:27.000Z</time>
      </trkpt>
      <trkpt lat="43.3962" lon="2.22656">
        <ele>667.6</ele>
        <time>2019-08-04T07:18:28.000Z</time>
      </trkpt>
      <trkpt lat="43.3962" lon="2.22657">
        <ele>667.6</ele>
        <time>2019-08-04T07:18:29.000Z</time>
      </trkpt>
      <trkpt lat="43.3962" lon="2.22657">
        <ele>667.6</ele>
        <time>2019-08-04T07:18:30.000Z</time>
      </trkpt>
      <trkpt lat="43.3962" lon="2.22658">
        <ele>667.6</ele>
        <time>2019-08-04T07:18:31.000Z</time>
      </trkpt>
      <trkpt lat="43.39621" lon="2.22658">
        <ele>667.6</ele>
        <time>2019-08-04T07:18:32.000Z</time>
      </trkpt>
      <trkpt lat="43.39621" lon="2.22658">
        <ele>667.6</ele>
        <time>2019-08-04T07:18:33.000Z</time>
      </trkpt>
      <trkpt lat="43.39621" lon="2.22658">
        <ele>667.6</ele>
        <time>2019-08-04T07:18:34.000Z</time>
      </trkpt>
      <trkpt lat="43.39621" lon="2.22658">
        <ele>667.6</ele>
        <time>2019-08-04T07:18:35.000Z</time>
      </trkpt>
      <trkpt lat="43.39621" lon="2.22658">
        <ele>667.6</ele>
        <time>2019-08-04T07:18:36.000Z</time>
      </trkpt>
      <trkpt lat="43.39621" lon="2.22658">
        <ele>667.6</ele>
        <time>2019-08-04T07:18:37.000Z</time>
      </trkpt>
      <trkpt lat="43.39621" lon="2.22658">
        <ele>667.6</ele>
        <time>2019-08-04T07:18:38.000Z</time>
      </trkpt>
      <trkpt lat="43.39621" lon="2.22658">
        <ele>667.6</ele>
        <time>2019-08-04T07:18:39.000Z</time>
      </trkpt>
      <trkpt lat="43.39621" lon="2.22659">
        <ele>667.6</ele>
        <time>2019-08-04T07:18:40.000Z</time>
      </trkpt>
      <trkpt lat="43.39622" lon="2.2266">
        <ele>667.6</ele>
        <time>2019-08-04T07:18:41.000Z</time>
      </trkpt>
      <trkpt lat="43.39622" lon="2.2266">
        <ele>667.6</ele>
        <time>2019-08-04T07:18:42.000Z</time>
      </trkpt>
      <trkpt lat="43.39623" lon="2.2266">
        <ele>667.6</ele>
        <time>2019-08-04T07:18:43.000Z</time>
      </trkpt>
      <trkpt lat="43.39624" lon="2.22659">
        <ele>667.6</ele>
        <time>2019-08-04T07:18:44.000Z</time>
      </trkpt>
      <trkpt lat="43.39625" lon="2.22659">
        <ele>667.6</ele>
        <time>2019-08-04T07:18:45.000Z</time>
      </trkpt>
      <trkpt lat="43.39626" lon="2.22658">
        <ele>667.7</ele>
        <time>2019-08-04T07:18:46.000Z</time>
      </trkpt>
      <trkpt lat="43.39627" lon="2.22657">
        <ele>667.7</ele>
        <time>2019-08-04T07:18:47.000Z</time>
      </trkpt>
      <trkpt lat="43.39628" lon="2.22656">
        <ele>667.7</ele>
        <time>2019-08-04T07:18:48.000Z</time>
      </trkpt>
      <trkpt lat="43.39629" lon="2.22656">
        <ele>667.8</ele>
        <time>2019-08-04T07:18:49.000Z</time>
      </trkpt>
      <trkpt lat="43.3963" lon="2.22657">
        <ele>667.8</ele>
        <time>2019-08-04T07:18:50.000Z</time>
      </trkpt>
      <trkpt lat="43.39631" lon="2.22657">
        <ele>667.8</ele>
        <time>2019-08-04T07:18:51.000Z</time>
      </trkpt>
      <trkpt lat="43.39632" lon="2.22658">
        <ele>667.8</ele>
        <time>2019-08-04T07:18:52.000Z</time>
      </trkpt>
      <trkpt lat="43.39633" lon="2.22659">
        <ele>667.8</ele>
        <time>2019-08-04T07:18:53.000Z</time>
      </trkpt>
      <trkpt lat="43.39633" lon="2.2266">
        <ele>667.8</ele>
        <time>2019-08-04T07:18:54.000Z</time>
      </trkpt>
      <trkpt lat="43.39634" lon="2.22661">
        <ele>667.8</ele>
        <time>2019-08-04T07:18:55.000Z</time>
      </trkpt>
      <trkpt lat="43.39634" lon="2.22662">
        <ele>667.7</ele>
        <time>2019-08-04T07:18:56.000Z</time>
      </trkpt>
      <trkpt lat="43.39634" lon="2.22663">
        <ele>667.7</ele>
        <time>2019-08-04T07:18:57.000Z</time>
      </trkpt>
      <trkpt lat="43.39635" lon="2.22664">
        <ele>667.7</ele>
        <time>2019-08-04T07:18:58.000Z</time>
      </trkpt>
      <trkpt lat="43.39636" lon="2.22665">
        <ele>667.7</ele>
        <time>2019-08-04T07:18:59.000Z</time>
      </trkpt>
      <trkpt lat="43.39637" lon="2.22665">
        <ele>667.7</ele>
        <time>2019-08-04T07:19:00.000Z</time>
      </trkpt>
      <trkpt lat="43.39638" lon="2.22666">
        <ele>667.7</ele>
        <time>2019-08-04T07:19:01.000Z</time>
      </trkpt>
      <trkpt lat="43.39639" lon="2.22666">
        <ele>667.7</ele>
        <time>2019-08-04T07:19:02.000Z</time>
      </trkpt>
      <trkpt lat="43.39639" lon="2.22667">
        <ele>667.7</ele>
        <time>2019-08-04T07:19:03.000Z</time>
      </trkpt>
      <trkpt lat="43.3964" lon="2.22667">
        <ele>667.7</ele>
        <time>2019-08-04T07:19:04.000Z</time>
      </trkpt>
      <trkpt lat="43.3964" lon="2.22667">
        <ele>667.7</ele>
        <time>2019-08-04T07:19:05.000Z</time>
      </trkpt>
      <trkpt lat="43.3964" lon="2.22667">
        <ele>667.7</ele>
        <time>2019-08-04T07:19:06.000Z</time>
      </trkpt>
      <trkpt lat="43.3964" lon="2.22667">
        <ele>667.7</ele>
        <time>2019-08-04T07:19:07.000Z</time>
      </trkpt>
      <trkpt lat="43.39641" lon="2.22667">
        <ele>667.8</ele>
        <time>2019-08-04T07:19:08.000Z</time>
      </trkpt>
      <trkpt lat="43.39641" lon="2.22667">
        <ele>667.8</ele>
        <time>2019-08-04T07:19:09.000Z</time>
      </trkpt>
      <trkpt lat="43.39641" lon="2.22667">
        <ele>667.8</ele>
        <time>2019-08-04T07:19:10.000Z</time>
      </trkpt>
      <trkpt lat="43.39641" lon="2.22667">
        <ele>667.8</ele>
        <time>2019-08-04T07:19:11.000Z</time>
      </trkpt>
      <trkpt lat="43.39641" lon="2.22667">
        <ele>667.8</ele>
        <time>2019-08-04T07:19:12.000Z</time>
      </trkpt>
      <trkpt lat="43.39641" lon="2.22667">
        <ele>667.8</ele>
        <time>2019-08-04T07:19:13.000Z</time>
      </trkpt>
      <trkpt lat="43.39641" lon="2.22667">
        <ele>667.8</ele>
        <time>2019-08-04T07:19:14.000Z</time>
      </trkpt>
      <trkpt lat="43.39641" lon="2.22667">
        <ele>667.8</ele>
        <time>2019-08-04T07:19:15.000Z</time>
      </trkpt>
      <trkpt lat="43.39641" lon="2.22667">
        <ele>667.8</ele>
        <time>2019-08-04T07:19:16.000Z</time>
      </trkpt>
      <trkpt lat="43.39641" lon="2.22667">
        <ele>667.8</ele>
        <time>2019-08-04T07:19:17.000Z</time>
      </trkpt>
      <trkpt lat="43.39641" lon="2.22667">
        <ele>667.8</ele>
        <time>2019-08-04T07:19:18.000Z</time>
      </trkpt>
      <trkpt lat="43.39641" lon="2.22667">
        <ele>667.8</ele>
        <time>2019-08-04T07:19:19.000Z</time>
      </trkpt>
      <trkpt lat="43.39641" lon="2.22667">
        <ele>667.8</ele>
        <time>2019-08-04T07:19:20.000Z</time>
      </trkpt>
      <trkpt lat="43.39641" lon="2.22667">
        <ele>667.8</ele>
        <time>2019-08-04T07:19:21.000Z</time>
      </trkpt>
      <trkpt lat="43.39641" lon="2.22667">
        <ele>667.8</ele>
        <time>2019-08-04T07:19:22.000Z</time>
      </trkpt>
      <trkpt lat="43.39641" lon="2.22667">
        <ele>667.8</ele>
        <time>2019-08-04T07:19:23.000Z</time>
      </trkpt>
      <trkpt lat="43.39641" lon="2.22667">
        <ele>667.8</ele>
        <time>2019-08-04T07:19:24.000Z</time>
      </trkpt>
      <trkpt lat="43.39641" lon="2.22667">
        <ele>667.8</ele>
        <time>2019-08-04T07:19:25.000Z</time>
      </trkpt>
      <trkpt lat="43.39641" lon="2.22667">
        <ele>667.8</ele>
        <time>2019-08-04T07:19:26.000Z</time>
      </trkpt>
      <trkpt lat="43.39641" lon="2.22667">
        <ele>667.8</ele>
        <time>2019-08-04T07:19:27.000Z</time>
      </trkpt>
      <trkpt lat="43.39641" lon="2.22667">
        <ele>667.8</ele>
        <time>2019-08-04T07:19:28.000Z</time>
      </trkpt>
      <trkpt lat="43.39641" lon="2.22667">
        <ele>667.8</ele>
        <time>2019-08-04T07:19:29.000Z</time>
      </trkpt>
      <trkpt lat="43.39641" lon="2.22667">
        <ele>667.8</ele>
        <time>2019-08-04T07:19:30.000Z</time>
      </trkpt>
      <trkpt lat="43.39641" lon="2.22667">
        <ele>667.8</ele>
        <time>2019-08-04T07:19:31.000Z</time>
      </trkpt>
      <trkpt lat="43.39641" lon="2.22667">
        <ele>667.8</ele>
        <time>2019-08-04T07:19:32.000Z</time>
      </trkpt>
      <trkpt lat="43.39641" lon="2.22667">
        <ele>667.8</ele>
        <time>2019-08-04T07:19:33.000Z</time>
      </trkpt>
      <trkpt lat="43.39641" lon="2.22667">
        <ele>667.8</ele>
        <time>2019-08-04T07:19:34.000Z</time>
      </trkpt>
      <trkpt lat="43.39641" lon="2.22667">
        <ele>667.8</ele>
        <time>2019-08-04T07:19:35.000Z</time>
      </trkpt>
      <trkpt lat="43.39641" lon="2.22667">
        <ele>667.8</ele>
        <time>2019-08-04T07:19:36.000Z</time>
      </trkpt>
      <trkpt lat="43.39641" lon="2.22667">
        <ele>667.8</ele>
        <time>2019-08-04T07:19:37.000Z</time>
      </trkpt>
      <trkpt lat="43.39641" lon="2.22667">
        <ele>667.8</ele>
        <time>2019-08-04T07:19:38.000Z</time>
      </trkpt>
      <trkpt lat="43.39641" lon="2.22667">
        <ele>667.8</ele>
        <time>2019-08-04T07:19:39.000Z</time>
      </trkpt>
      <trkpt lat="43.3964" lon="2.22668">
        <ele>668</ele>
        <time>2019-08-04T07:19:40.000Z</time>
      </trkpt>
      <trkpt lat="43.3964" lon="2.22671">
        <ele>668.4</ele>
        <time>2019-08-04T07:19:41.000Z</time>
      </trkpt>
      <trkpt lat="43.3964" lon="2.22673">
        <ele>668.9</ele>
        <time>2019-08-04T07:19:42.000Z</time>
      </trkpt>
      <trkpt lat="43.39639" lon="2.22674">
        <ele>669.1</ele>
        <time>2019-08-04T07:19:43.000Z</time>
      </trkpt>
      <trkpt lat="43.39639" lon="2.22675">
        <ele>669.2</ele>
        <time>2019-08-04T07:19:44.000Z</time>
      </trkpt>
      <trkpt lat="43.39639" lon="2.22675">
        <ele>669.2</ele>
        <time>2019-08-04T07:19:45.000Z</time>
      </trkpt>
      <trkpt lat="43.39639" lon="2.22675">
        <ele>669.3</ele>
        <time>2019-08-04T07:19:46.000Z</time>
      </trkpt>
      <trkpt lat="43.39639" lon="2.22676">
        <ele>669.4</ele>
        <time>2019-08-04T07:19:47.000Z</time>
      </trkpt>
      <trkpt lat="43.39639" lon="2.22676">
        <ele>669.5</ele>
        <time>2019-08-04T07:19:48.000Z</time>
      </trkpt>
      <trkpt lat="43.39638" lon="2.22677">
        <ele>669.6</ele>
        <time>2019-08-04T07:19:49.000Z</time>
      </trkpt>
      <trkpt lat="43.39638" lon="2.22678">
        <ele>669.8</ele>
        <time>2019-08-04T07:19:50.000Z</time>
      </trkpt>
      <trkpt lat="43.39637" lon="2.22679">
        <ele>669.9</ele>
        <time>2019-08-04T07:19:51.000Z</time>
      </trkpt>
      <trkpt lat="43.39637" lon="2.2268">
        <ele>670.1</ele>
        <time>2019-08-04T07:19:52.000Z</time>
      </trkpt>
      <trkpt lat="43.39636" lon="2.22681">
        <ele>670.3</ele>
        <time>2019-08-04T07:19:53.000Z</time>
      </trkpt>
      <trkpt lat="43.39635" lon="2.22682">
        <ele>670.5</ele>
        <time>2019-08-04T07:19:54.000Z</time>
      </trkpt>
      <trkpt lat="43.39634" lon="2.22683">
        <ele>670.7</ele>
        <time>2019-08-04T07:19:55.000Z</time>
      </trkpt>
      <trkpt lat="43.39633" lon="2.22684">
        <ele>670.9</ele>
        <time>2019-08-04T07:19:56.000Z</time>
      </trkpt>
      <trkpt lat="43.39633" lon="2.22685">
        <ele>671.1</ele>
        <time>2019-08-04T07:19:57.000Z</time>
      </trkpt>
      <trkpt lat="43.39632" lon="2.22687">
        <ele>671.4</ele>
        <time>2019-08-04T07:19:58.000Z</time>
      </trkpt>
      <trkpt lat="43.39632" lon="2.22688">
        <ele>671.6</ele>
        <time>2019-08-04T07:19:59.000Z</time>
      </trkpt>
      <trkpt lat="43.39632" lon="2.2269">
        <ele>671.9</ele>
        <time>2019-08-04T07:20:00.000Z</time>
      </trkpt>
      <trkpt lat="43.39632" lon="2.22691">
        <ele>672.3</ele>
        <time>2019-08-04T07:20:01.000Z</time>
      </trkpt>
      <trkpt lat="43.39632" lon="2.22693">
        <ele>672.6</ele>
        <time>2019-08-04T07:20:02.000Z</time>
      </trkpt>
      <trkpt lat="43.39633" lon="2.22695">
        <ele>673</ele>
        <time>2019-08-04T07:20:03.000Z</time>
      </trkpt>
      <trkpt lat="43.39634" lon="2.22697">
        <ele>673.4</ele>
        <time>2019-08-04T07:20:04.000Z</time>
      </trkpt>
      <trkpt lat="43.39635" lon="2.22699">
        <ele>673.7</ele>
        <time>2019-08-04T07:20:05.000Z</time>
      </trkpt>
      <trkpt lat="43.39636" lon="2.22701">
        <ele>674.1</ele>
        <time>2019-08-04T07:20:06.000Z</time>
      </trkpt>
      <trkpt lat="43.39638" lon="2.22702">
        <ele>674.4</ele>
        <time>2019-08-04T07:20:07.000Z</time>
      </trkpt>
      <trkpt lat="43.3964" lon="2.22704">
        <ele>674.7</ele>
        <time>2019-08-04T07:20:08.000Z</time>
      </trkpt>
      <trkpt lat="43.39642" lon="2.22705">
        <ele>674.9</ele>
        <time>2019-08-04T07:20:09.000Z</time>
      </trkpt>
      <trkpt lat="43.39644" lon="2.22706">
        <ele>675.1</ele>
        <time>2019-08-04T07:20:10.000Z</time>
      </trkpt>
      <trkpt lat="43.39646" lon="2.22707">
        <ele>675.3</ele>
        <time>2019-08-04T07:20:11.000Z</time>
      </trkpt>
      <trkpt lat="43.39647" lon="2.22708">
        <ele>675.4</ele>
        <time>2019-08-04T07:20:12.000Z</time>
      </trkpt>
      <trkpt lat="43.39648" lon="2.22709">
        <ele>675.5</ele>
        <time>2019-08-04T07:20:13.000Z</time>
      </trkpt>
      <trkpt lat="43.39649" lon="2.22709">
        <ele>675.6</ele>
        <time>2019-08-04T07:20:14.000Z</time>
      </trkpt>
      <trkpt lat="43.3965" lon="2.22709">
        <ele>675.7</ele>
        <time>2019-08-04T07:20:15.000Z</time>
      </trkpt>
      <trkpt lat="43.39651" lon="2.22709">
        <ele>675.7</ele>
        <time>2019-08-04T07:20:16.000Z</time>
      </trkpt>
      <trkpt lat="43.39652" lon="2.22709">
        <ele>675.7</ele>
        <time>2019-08-04T07:20:17.000Z</time>
      </trkpt>
      <trkpt lat="43.39653" lon="2.22709">
        <ele>675.7</ele>
        <time>2019-08-04T07:20:18.000Z</time>
      </trkpt>
      <trkpt lat="43.39654" lon="2.22709">
        <ele>675.6</ele>
        <time>2019-08-04T07:20:19.000Z</time>
      </trkpt>
      <trkpt lat="43.39655" lon="2.22709">
        <ele>675.6</ele>
        <time>2019-08-04T07:20:20.000Z</time>
      </trkpt>
      <trkpt lat="43.39656" lon="2.22709">
        <ele>675.6</ele>
        <time>2019-08-04T07:20:21.000Z</time>
      </trkpt>
      <trkpt lat="43.39657" lon="2.2271">
        <ele>675.7</ele>
        <time>2019-08-04T07:20:22.000Z</time>
      </trkpt>
      <trkpt lat="43.39658" lon="2.2271">
        <ele>675.8</ele>
        <time>2019-08-04T07:20:23.000Z</time>
      </trkpt>
      <trkpt lat="43.39659" lon="2.22711">
        <ele>676</ele>
        <time>2019-08-04T07:20:24.000Z</time>
      </trkpt>
      <trkpt lat="43.3966" lon="2.22712">
        <ele>676.2</ele>
        <time>2019-08-04T07:20:25.000Z</time>
      </trkpt>
      <trkpt lat="43.39661" lon="2.22714">
        <ele>676.5</ele>
        <time>2019-08-04T07:20:26.000Z</time>
      </trkpt>
      <trkpt lat="43.39661" lon="2.22716">
        <ele>676.8</ele>
        <time>2019-08-04T07:20:27.000Z</time>
      </trkpt>
      <trkpt lat="43.39662" lon="2.22717">
        <ele>677.1</ele>
        <time>2019-08-04T07:20:28.000Z</time>
      </trkpt>
      <trkpt lat="43.39662" lon="2.22719">
        <ele>677.5</ele>
        <time>2019-08-04T07:20:29.000Z</time>
      </trkpt>
      <trkpt lat="43.39662" lon="2.22722">
        <ele>677.9</ele>
        <time>2019-08-04T07:20:30.000Z</time>
      </trkpt>
      <trkpt lat="43.39663" lon="2.22724">
        <ele>678.3</ele>
        <time>2019-08-04T07:20:31.000Z</time>
      </trkpt>
      <trkpt lat="43.39663" lon="2.22726">
        <ele>678.7</ele>
        <time>2019-08-04T07:20:32.000Z</time>
      </trkpt>
      <trkpt lat="43.39663" lon="2.22728">
        <ele>679.1</ele>
        <time>2019-08-04T07:20:33.000Z</time>
      </trkpt>
      <trkpt lat="43.39663" lon="2.22731">
        <ele>679.6</ele>
        <time>2019-08-04T07:20:34.000Z</time>
      </trkpt>
      <trkpt lat="43.39663" lon="2.22733">
        <ele>680</ele>
        <time>2019-08-04T07:20:35.000Z</time>
      </trkpt>
      <trkpt lat="43.39663" lon="2.22736">
        <ele>680.4</ele>
        <time>2019-08-04T07:20:36.000Z</time>
      </trkpt>
      <trkpt lat="43.39663" lon="2.22738">
        <ele>680.9</ele>
        <time>2019-08-04T07:20:37.000Z</time>
      </trkpt>
      <trkpt lat="43.39663" lon="2.2274">
        <ele>681.3</ele>
        <time>2019-08-04T07:20:38.000Z</time>
      </trkpt>
      <trkpt lat="43.39663" lon="2.22743">
        <ele>681.7</ele>
        <time>2019-08-04T07:20:39.000Z</time>
      </trkpt>
      <trkpt lat="43.39663" lon="2.22745">
        <ele>682.2</ele>
        <time>2019-08-04T07:20:40.000Z</time>
      </trkpt>
      <trkpt lat="43.39663" lon="2.22747">
        <ele>682.6</ele>
        <time>2019-08-04T07:20:41.000Z</time>
      </trkpt>
      <trkpt lat="43.39663" lon="2.2275">
        <ele>683</ele>
        <time>2019-08-04T07:20:42.000Z</time>
      </trkpt>
      <trkpt lat="43.39663" lon="2.22752">
        <ele>683.2</ele>
        <time>2019-08-04T07:20:43.000Z</time>
      </trkpt>
      <trkpt lat="43.39663" lon="2.22755">
        <ele>683.3</ele>
        <time>2019-08-04T07:20:44.000Z</time>
      </trkpt>
      <trkpt lat="43.39663" lon="2.22757">
        <ele>683.5</ele>
        <time>2019-08-04T07:20:45.000Z</time>
      </trkpt>
      <trkpt lat="43.39663" lon="2.22759">
        <ele>683.6</ele>
        <time>2019-08-04T07:20:46.000Z</time>
      </trkpt>
      <trkpt lat="43.39663" lon="2.22762">
        <ele>683.8</ele>
        <time>2019-08-04T07:20:47.000Z</time>
      </trkpt>
      <trkpt lat="43.39664" lon="2.22764">
        <ele>683.9</ele>
        <time>2019-08-04T07:20:48.000Z</time>
      </trkpt>
      <trkpt lat="43.39664" lon="2.22767">
        <ele>684.1</ele>
        <time>2019-08-04T07:20:49.000Z</time>
      </trkpt>
      <trkpt lat="43.39664" lon="2.22769">
        <ele>684.2</ele>
        <time>2019-08-04T07:20:50.000Z</time>
      </trkpt>
      <trkpt lat="43.39664" lon="2.22772">
        <ele>684.4</ele>
        <time>2019-08-04T07:20:51.000Z</time>
      </trkpt>
      <trkpt lat="43.39664" lon="2.22775">
        <ele>684.5</ele>
        <time>2019-08-04T07:20:52.000Z</time>
      </trkpt>
      <trkpt lat="43.39664" lon="2.22778">
        <ele>684.7</ele>
        <time>2019-08-04T07:20:53.000Z</time>
      </trkpt>
      <trkpt lat="43.39665" lon="2.22781">
        <ele>684.9</ele>
        <time>2019-08-04T07:20:54.000Z</time>
      </trkpt>
      <trkpt lat="43.39665" lon="2.22783">
        <ele>685</ele>
        <time>2019-08-04T07:20:55.000Z</time>
      </trkpt>
      <trkpt lat="43.39665" lon="2.22786">
        <ele>685.2</ele>
        <time>2019-08-04T07:20:56.000Z</time>
      </trkpt>
      <trkpt lat="43.39666" lon="2.22789">
        <ele>685.4</ele>
        <time>2019-08-04T07:20:57.000Z</time>
      </trkpt>
      <trkpt lat="43.39666" lon="2.22792">
        <ele>685.5</ele>
        <time>2019-08-04T07:20:58.000Z</time>
      </trkpt>
      <trkpt lat="43.39666" lon="2.22795">
        <ele>685.7</ele>
        <time>2019-08-04T07:20:59.000Z</time>
      </trkpt>
      <trkpt lat="43.39666" lon="2.22797">
        <ele>685.8</ele>
        <time>2019-08-04T07:21:00.000Z</time>
      </trkpt>
      <trkpt lat="43.39667" lon="2.228">
        <ele>686</ele>
        <time>2019-08-04T07:21:01.000Z</time>
      </trkpt>
      <trkpt lat="43.39667" lon="2.22802">
        <ele>686.1</ele>
        <time>2019-08-04T07:21:02.000Z</time>
      </trkpt>
      <trkpt lat="43.39667" lon="2.22804">
        <ele>686.3</ele>
        <time>2019-08-04T07:21:03.000Z</time>
      </trkpt>
      <trkpt lat="43.39667" lon="2.22806">
        <ele>686.5</ele>
        <time>2019-08-04T07:21:04.000Z</time>
      </trkpt>
      <trkpt lat="43.39667" lon="2.22808">
        <ele>686.7</ele>
        <time>2019-08-04T07:21:05.000Z</time>
      </trkpt>
      <trkpt lat="43.39668" lon="2.2281">
        <ele>686.8</ele>
        <time>2019-08-04T07:21:06.000Z</time>
      </trkpt>
      <trkpt lat="43.39668" lon="2.22812">
        <ele>686.9</ele>
        <time>2019-08-04T07:21:07.000Z</time>
      </trkpt>
      <trkpt lat="43.39668" lon="2.22813">
        <ele>687.1</ele>
        <time>2019-08-04T07:21:08.000Z</time>
      </trkpt>
      <trkpt lat="43.39668" lon="2.22815">
        <ele>687.2</ele>
        <time>2019-08-04T07:21:09.000Z</time>
      </trkpt>
      <trkpt lat="43.39668" lon="2.22817">
        <ele>687.3</ele>
        <time>2019-08-04T07:21:10.000Z</time>
      </trkpt>
      <trkpt lat="43.39668" lon="2.22818">
        <ele>687.5</ele>
        <time>2019-08-04T07:21:11.000Z</time>
      </trkpt>
      <trkpt lat="43.39669" lon="2.2282">
        <ele>687.6</ele>
        <time>2019-08-04T07:21:12.000Z</time>
      </trkpt>
      <trkpt lat="43.39669" lon="2.22821">
        <ele>687.7</ele>
        <time>2019-08-04T07:21:13.000Z</time>
      </trkpt>
      <trkpt lat="43.39669" lon="2.22823">
        <ele>687.8</ele>
        <time>2019-08-04T07:21:14.000Z</time>
      </trkpt>
      <trkpt lat="43.39669" lon="2.22824">
        <ele>688</ele>
        <time>2019-08-04T07:21:15.000Z</time>
      </trkpt>
      <trkpt lat="43.39669" lon="2.22826">
        <ele>688.1</ele>
        <time>2019-08-04T07:21:16.000Z</time>
      </trkpt>
      <trkpt lat="43.3967" lon="2.22828">
        <ele>688.3</ele>
        <time>2019-08-04T07:21:17.000Z</time>
      </trkpt>
      <trkpt lat="43.3967" lon="2.22829">
        <ele>688.4</ele>
        <time>2019-08-04T07:21:18.000Z</time>
      </trkpt>
      <trkpt lat="43.3967" lon="2.22831">
        <ele>688.6</ele>
        <time>2019-08-04T07:21:19.000Z</time>
      </trkpt>
      <trkpt lat="43.39671" lon="2.22833">
        <ele>688.8</ele>
        <time>2019-08-04T07:21:20.000Z</time>
      </trkpt>
      <trkpt lat="43.39671" lon="2.22835">
        <ele>689</ele>
        <time>2019-08-04T07:21:21.000Z</time>
      </trkpt>
      <trkpt lat="43.39672" lon="2.22836">
        <ele>689.1</ele>
        <time>2019-08-04T07:21:22.000Z</time>
      </trkpt>
      <trkpt lat="43.39672" lon="2.22838">
        <ele>689.3</ele>
        <time>2019-08-04T07:21:23.000Z</time>
      </trkpt>
      <trkpt lat="43.39673" lon="2.2284">
        <ele>689.4</ele>
        <time>2019-08-04T07:21:24.000Z</time>
      </trkpt>
      <trkpt lat="43.39673" lon="2.22842">
        <ele>689.6</ele>
        <time>2019-08-04T07:21:25.000Z</time>
      </trkpt>
      <trkpt lat="43.39674" lon="2.22844">
        <ele>689.8</ele>
        <time>2019-08-04T07:21:26.000Z</time>
      </trkpt>
      <trkpt lat="43.39675" lon="2.22846">
        <ele>690</ele>
        <time>2019-08-04T07:21:27.000Z</time>
      </trkpt>
      <trkpt lat="43.39676" lon="2.22848">
        <ele>690.2</ele>
        <time>2019-08-04T07:21:28.000Z</time>
      </trkpt>
      <trkpt lat="43.39677" lon="2.22851">
        <ele>690.5</ele>
        <time>2019-08-04T07:21:29.000Z</time>
      </trkpt>
      <trkpt lat="43.39678" lon="2.22853">
        <ele>690.7</ele>
        <time>2019-08-04T07:21:30.000Z</time>
      </trkpt>
      <trkpt lat="43.39679" lon="2.22856">
        <ele>691</ele>
        <time>2019-08-04T07:21:31.000Z</time>
      </trkpt>
      <trkpt lat="43.3968" lon="2.22859">
        <ele>691.2</ele>
        <time>2019-08-04T07:21:32.000Z</time>
      </trkpt>
      <trkpt lat="43.39681" lon="2.22862">
        <ele>691.5</ele>
        <time>2019-08-04T07:21:33.000Z</time>
      </trkpt>
      <trkpt lat="43.39682" lon="2.22864">
        <ele>691.7</ele>
        <time>2019-08-04T07:21:34.000Z</time>
      </trkpt>
      <trkpt lat="43.39683" lon="2.22867">
        <ele>692</ele>
        <time>2019-08-04T07:21:35.000Z</time>
      </trkpt>
      <trkpt lat="43.39685" lon="2.2287">
        <ele>692.2</ele>
        <time>2019-08-04T07:21:36.000Z</time>
      </trkpt>
      <trkpt lat="43.39686" lon="2.22872">
        <ele>692.4</ele>
        <time>2019-08-04T07:21:37.000Z</time>
      </trkpt>
      <trkpt lat="43.39687" lon="2.22874">
        <ele>692.6</ele>
        <time>2019-08-04T07:21:38.000Z</time>
      </trkpt>
      <trkpt lat="43.39688" lon="2.22875">
        <ele>692.8</ele>
        <time>2019-08-04T07:21:39.000Z</time>
      </trkpt>
      <trkpt lat="43.39688" lon="2.22877">
        <ele>692.9</ele>
        <time>2019-08-04T07:21:40.000Z</time>
      </trkpt>
      <trkpt lat="43.39689" lon="2.22878">
        <ele>693.1</ele>
        <time>2019-08-04T07:21:41.000Z</time>
      </trkpt>
      <trkpt lat="43.39691" lon="2.22879">
        <ele>693.3</ele>
        <time>2019-08-04T07:21:42.000Z</time>
      </trkpt>
      <trkpt lat="43.39692" lon="2.22881">
        <ele>693.4</ele>
        <time>2019-08-04T07:21:43.000Z</time>
      </trkpt>
      <trkpt lat="43.39693" lon="2.22882">
        <ele>693.7</ele>
        <time>2019-08-04T07:21:44.000Z</time>
      </trkpt>
      <trkpt lat="43.39695" lon="2.22885">
        <ele>693.9</ele>
        <time>2019-08-04T07:21:45.000Z</time>
      </trkpt>
      <trkpt lat="43.39697" lon="2.22887">
        <ele>694.2</ele>
        <time>2019-08-04T07:21:46.000Z</time>
      </trkpt>
      <trkpt lat="43.39699" lon="2.2289">
        <ele>694.5</ele>
        <time>2019-08-04T07:21:47.000Z</time>
      </trkpt>
      <trkpt lat="43.39701" lon="2.22893">
        <ele>694.8</ele>
        <time>2019-08-04T07:21:48.000Z</time>
      </trkpt>
      <trkpt lat="43.39703" lon="2.22895">
        <ele>695</ele>
        <time>2019-08-04T07:21:49.000Z</time>
      </trkpt>
      <trkpt lat="43.39705" lon="2.22898">
        <ele>695.3</ele>
        <time>2019-08-04T07:21:50.000Z</time>
      </trkpt>
      <trkpt lat="43.39706" lon="2.229">
        <ele>695.5</ele>
        <time>2019-08-04T07:21:51.000Z</time>
      </trkpt>
      <trkpt lat="43.39708" lon="2.22902">
        <ele>695.6</ele>
        <time>2019-08-04T07:21:52.000Z</time>
      </trkpt>
      <trkpt lat="43.39709" lon="2.22903">
        <ele>695.8</ele>
        <time>2019-08-04T07:21:53.000Z</time>
      </trkpt>
      <trkpt lat="43.3971" lon="2.22905">
        <ele>695.9</ele>
        <time>2019-08-04T07:21:54.000Z</time>
      </trkpt>
      <trkpt lat="43.39712" lon="2.22907">
        <ele>696</ele>
        <time>2019-08-04T07:21:55.000Z</time>
      </trkpt>
      <trkpt lat="43.39713" lon="2.22909">
        <ele>696.1</ele>
        <time>2019-08-04T07:21:56.000Z</time>
      </trkpt>
      <trkpt lat="43.39713" lon="2.2291">
        <ele>696.1</ele>
        <time>2019-08-04T07:21:57.000Z</time>
      </trkpt>
      <trkpt lat="43.39714" lon="2.22912">
        <ele>696.2</ele>
        <time>2019-08-04T07:21:58.000Z</time>
      </trkpt>
      <trkpt lat="43.39715" lon="2.22914">
        <ele>696.2</ele>
        <time>2019-08-04T07:21:59.000Z</time>
      </trkpt>
      <trkpt lat="43.39715" lon="2.22916">
        <ele>696.2</ele>
        <time>2019-08-04T07:22:00.000Z</time>
      </trkpt>
      <trkpt lat="43.39716" lon="2.22919">
        <ele>696.3</ele>
        <time>2019-08-04T07:22:01.000Z</time>
      </trkpt>
      <trkpt lat="43.39716" lon="2.22921">
        <ele>696.2</ele>
        <time>2019-08-04T07:22:02.000Z</time>
      </trkpt>
      <trkpt lat="43.39716" lon="2.22924">
        <ele>696.2</ele>
        <time>2019-08-04T07:22:03.000Z</time>
      </trkpt>
      <trkpt lat="43.39716" lon="2.22927">
        <ele>696.2</ele>
        <time>2019-08-04T07:22:04.000Z</time>
      </trkpt>
      <trkpt lat="43.39716" lon="2.2293">
        <ele>696.2</ele>
        <time>2019-08-04T07:22:05.000Z</time>
      </trkpt>
      <trkpt lat="43.39717" lon="2.22933">
        <ele>696.2</ele>
        <time>2019-08-04T07:22:06.000Z</time>
      </trkpt>
      <trkpt lat="43.39717" lon="2.22936">
        <ele>696.2</ele>
        <time>2019-08-04T07:22:07.000Z</time>
      </trkpt>
      <trkpt lat="43.39718" lon="2.22939">
        <ele>696.2</ele>
        <time>2019-08-04T07:22:08.000Z</time>
      </trkpt>
      <trkpt lat="43.39719" lon="2.22941">
        <ele>696.3</ele>
        <time>2019-08-04T07:22:09.000Z</time>
      </trkpt>
      <trkpt lat="43.3972" lon="2.22944">
        <ele>696.3</ele>
        <time>2019-08-04T07:22:10.000Z</time>
      </trkpt>
      <trkpt lat="43.39721" lon="2.22947">
        <ele>696.3</ele>
        <time>2019-08-04T07:22:11.000Z</time>
      </trkpt>
      <trkpt lat="43.39722" lon="2.2295">
        <ele>696.3</ele>
        <time>2019-08-04T07:22:12.000Z</time>
      </trkpt>
      <trkpt lat="43.39722" lon="2.22953">
        <ele>696.3</ele>
        <time>2019-08-04T07:22:13.000Z</time>
      </trkpt>
      <trkpt lat="43.39723" lon="2.22956">
        <ele>696.3</ele>
        <time>2019-08-04T07:22:14.000Z</time>
      </trkpt>
      <trkpt lat="43.39724" lon="2.22958">
        <ele>696.3</ele>
        <time>2019-08-04T07:22:15.000Z</time>
      </trkpt>
      <trkpt lat="43.39725" lon="2.22961">
        <ele>696.2</ele>
        <time>2019-08-04T07:22:16.000Z</time>
      </trkpt>
      <trkpt lat="43.39725" lon="2.22964">
        <ele>696.2</ele>
        <time>2019-08-04T07:22:17.000Z</time>
      </trkpt>
      <trkpt lat="43.39726" lon="2.22967">
        <ele>696.1</ele>
        <time>2019-08-04T07:22:18.000Z</time>
      </trkpt>
      <trkpt lat="43.39726" lon="2.22969">
        <ele>696.1</ele>
        <time>2019-08-04T07:22:19.000Z</time>
      </trkpt>
      <trkpt lat="43.39727" lon="2.22972">
        <ele>696</ele>
        <time>2019-08-04T07:22:20.000Z</time>
      </trkpt>
      <trkpt lat="43.39727" lon="2.22975">
        <ele>696</ele>
        <time>2019-08-04T07:22:21.000Z</time>
      </trkpt>
      <trkpt lat="43.39728" lon="2.22978">
        <ele>695.9</ele>
        <time>2019-08-04T07:22:22.000Z</time>
      </trkpt>
      <trkpt lat="43.39728" lon="2.22981">
        <ele>695.8</ele>
        <time>2019-08-04T07:22:23.000Z</time>
      </trkpt>
      <trkpt lat="43.39729" lon="2.22983">
        <ele>695.7</ele>
        <time>2019-08-04T07:22:24.000Z</time>
      </trkpt>
      <trkpt lat="43.39729" lon="2.22986">
        <ele>695.7</ele>
        <time>2019-08-04T07:22:25.000Z</time>
      </trkpt>
      <trkpt lat="43.3973" lon="2.22989">
        <ele>695.6</ele>
        <time>2019-08-04T07:22:26.000Z</time>
      </trkpt>
      <trkpt lat="43.3973" lon="2.22992">
        <ele>695.5</ele>
        <time>2019-08-04T07:22:27.000Z</time>
      </trkpt>
      <trkpt lat="43.39731" lon="2.22994">
        <ele>695.4</ele>
        <time>2019-08-04T07:22:28.000Z</time>
      </trkpt>
      <trkpt lat="43.39731" lon="2.22997">
        <ele>695.3</ele>
        <time>2019-08-04T07:22:29.000Z</time>
      </trkpt>
      <trkpt lat="43.39732" lon="2.23">
        <ele>695.2</ele>
        <time>2019-08-04T07:22:30.000Z</time>
      </trkpt>
      <trkpt lat="43.39732" lon="2.23002">
        <ele>695.4</ele>
        <time>2019-08-04T07:22:31.000Z</time>
      </trkpt>
      <trkpt lat="43.39733" lon="2.23005">
        <ele>695.6</ele>
        <time>2019-08-04T07:22:32.000Z</time>
      </trkpt>
      <trkpt lat="43.39733" lon="2.23007">
        <ele>695.9</ele>
        <time>2019-08-04T07:22:33.000Z</time>
      </trkpt>
      <trkpt lat="43.39734" lon="2.2301">
        <ele>696.1</ele>
        <time>2019-08-04T07:22:34.000Z</time>
      </trkpt>
      <trkpt lat="43.39735" lon="2.23012">
        <ele>696.3</ele>
        <time>2019-08-04T07:22:35.000Z</time>
      </trkpt>
      <trkpt lat="43.39735" lon="2.23014">
        <ele>696.5</ele>
        <time>2019-08-04T07:22:36.000Z</time>
      </trkpt>
      <trkpt lat="43.39736" lon="2.23017">
        <ele>696.7</ele>
        <time>2019-08-04T07:22:37.000Z</time>
      </trkpt>
      <trkpt lat="43.39736" lon="2.23019">
        <ele>696.9</ele>
        <time>2019-08-04T07:22:38.000Z</time>
      </trkpt>
      <trkpt lat="43.39737" lon="2.23021">
        <ele>697.1</ele>
        <time>2019-08-04T07:22:39.000Z</time>
      </trkpt>
      <trkpt lat="43.39738" lon="2.23024">
        <ele>697.4</ele>
        <time>2019-08-04T07:22:40.000Z</time>
      </trkpt>
      <trkpt lat="43.39739" lon="2.23026">
        <ele>697.6</ele>
        <time>2019-08-04T07:22:41.000Z</time>
      </trkpt>
      <trkpt lat="43.3974" lon="2.23029">
        <ele>697.9</ele>
        <time>2019-08-04T07:22:42.000Z</time>
      </trkpt>
      <trkpt lat="43.39741" lon="2.23032">
        <ele>698.1</ele>
        <time>2019-08-04T07:22:43.000Z</time>
      </trkpt>
      <trkpt lat="43.39742" lon="2.23034">
        <ele>698.4</ele>
        <time>2019-08-04T07:22:44.000Z</time>
      </trkpt>
      <trkpt lat="43.39743" lon="2.23037">
        <ele>698.6</ele>
        <time>2019-08-04T07:22:45.000Z</time>
      </trkpt>
      <trkpt lat="43.39743" lon="2.23039">
        <ele>698.8</ele>
        <time>2019-08-04T07:22:46.000Z</time>
      </trkpt>
      <trkpt lat="43.39744" lon="2.23041">
        <ele>698.9</ele>
        <time>2019-08-04T07:22:47.000Z</time>
      </trkpt>
      <trkpt lat="43.39744" lon="2.23042">
        <ele>699.1</ele>
        <time>2019-08-04T07:22:48.000Z</time>
      </trkpt>
      <trkpt lat="43.39744" lon="2.23044">
        <ele>699.3</ele>
        <time>2019-08-04T07:22:49.000Z</time>
      </trkpt>
      <trkpt lat="43.39745" lon="2.23046">
        <ele>699.5</ele>
        <time>2019-08-04T07:22:50.000Z</time>
      </trkpt>
      <trkpt lat="43.39745" lon="2.23049">
        <ele>699.7</ele>
        <time>2019-08-04T07:22:51.000Z</time>
      </trkpt>
      <trkpt lat="43.39745" lon="2.23051">
        <ele>699.9</ele>
        <time>2019-08-04T07:22:52.000Z</time>
      </trkpt>
      <trkpt lat="43.39746" lon="2.23054">
        <ele>700.2</ele>
        <time>2019-08-04T07:22:53.000Z</time>
      </trkpt>
      <trkpt lat="43.39746" lon="2.23057">
        <ele>700.4</ele>
        <time>2019-08-04T07:22:54.000Z</time>
      </trkpt>
      <trkpt lat="43.39746" lon="2.2306">
        <ele>700.7</ele>
        <time>2019-08-04T07:22:55.000Z</time>
      </trkpt>
      <trkpt lat="43.39747" lon="2.23063">
        <ele>701</ele>
        <time>2019-08-04T07:22:56.000Z</time>
      </trkpt>
      <trkpt lat="43.39747" lon="2.23066">
        <ele>701.3</ele>
        <time>2019-08-04T07:22:57.000Z</time>
      </trkpt>
      <trkpt lat="43.39748" lon="2.23068">
        <ele>701.6</ele>
        <time>2019-08-04T07:22:58.000Z</time>
      </trkpt>
      <trkpt lat="43.39748" lon="2.23071">
        <ele>701.8</ele>
        <time>2019-08-04T07:22:59.000Z</time>
      </trkpt>
      <trkpt lat="43.39748" lon="2.23073">
        <ele>702</ele>
        <time>2019-08-04T07:23:00.000Z</time>
      </trkpt>
      <trkpt lat="43.39748" lon="2.23075">
        <ele>702.2</ele>
        <time>2019-08-04T07:23:01.000Z</time>
      </trkpt>
      <trkpt lat="43.39749" lon="2.23077">
        <ele>702.4</ele>
        <time>2019-08-04T07:23:02.000Z</time>
      </trkpt>
      <trkpt lat="43.39749" lon="2.23078">
        <ele>702.5</ele>
        <time>2019-08-04T07:23:03.000Z</time>
      </trkpt>
      <trkpt lat="43.39749" lon="2.2308">
        <ele>702.7</ele>
        <time>2019-08-04T07:23:04.000Z</time>
      </trkpt>
      <trkpt lat="43.39749" lon="2.23082">
        <ele>702.8</ele>
        <time>2019-08-04T07:23:05.000Z</time>
      </trkpt>
      <trkpt lat="43.39749" lon="2.23083">
        <ele>703</ele>
        <time>2019-08-04T07:23:06.000Z</time>
      </trkpt>
      <trkpt lat="43.39749" lon="2.23085">
        <ele>703.2</ele>
        <time>2019-08-04T07:23:07.000Z</time>
      </trkpt>
      <trkpt lat="43.3975" lon="2.23087">
        <ele>703.3</ele>
        <time>2019-08-04T07:23:08.000Z</time>
      </trkpt>
      <trkpt lat="43.3975" lon="2.2309">
        <ele>703.5</ele>
        <time>2019-08-04T07:23:09.000Z</time>
      </trkpt>
      <trkpt lat="43.3975" lon="2.23092">
        <ele>703.7</ele>
        <time>2019-08-04T07:23:10.000Z</time>
      </trkpt>
      <trkpt lat="43.3975" lon="2.23094">
        <ele>703.9</ele>
        <time>2019-08-04T07:23:11.000Z</time>
      </trkpt>
      <trkpt lat="43.3975" lon="2.23097">
        <ele>704.2</ele>
        <time>2019-08-04T07:23:12.000Z</time>
      </trkpt>
      <trkpt lat="43.39751" lon="2.23099">
        <ele>704.4</ele>
        <time>2019-08-04T07:23:13.000Z</time>
      </trkpt>
      <trkpt lat="43.39751" lon="2.23102">
        <ele>704.6</ele>
        <time>2019-08-04T07:23:14.000Z</time>
      </trkpt>
      <trkpt lat="43.39751" lon="2.23105">
        <ele>704.8</ele>
        <time>2019-08-04T07:23:15.000Z</time>
      </trkpt>
      <trkpt lat="43.3975" lon="2.23108">
        <ele>705.1</ele>
        <time>2019-08-04T07:23:16.000Z</time>
      </trkpt>
      <trkpt lat="43.3975" lon="2.2311">
        <ele>705.3</ele>
        <time>2019-08-04T07:23:17.000Z</time>
      </trkpt>
      <trkpt lat="43.3975" lon="2.23113">
        <ele>705.5</ele>
        <time>2019-08-04T07:23:18.000Z</time>
      </trkpt>
      <trkpt lat="43.39749" lon="2.23116">
        <ele>705.8</ele>
        <time>2019-08-04T07:23:19.000Z</time>
      </trkpt>
      <trkpt lat="43.39749" lon="2.23119">
        <ele>706</ele>
        <time>2019-08-04T07:23:20.000Z</time>
      </trkpt>
      <trkpt lat="43.39748" lon="2.23122">
        <ele>706.2</ele>
        <time>2019-08-04T07:23:21.000Z</time>
      </trkpt>
      <trkpt lat="43.39747" lon="2.23125">
        <ele>706.5</ele>
        <time>2019-08-04T07:23:22.000Z</time>
      </trkpt>
      <trkpt lat="43.39746" lon="2.23127">
        <ele>706.7</ele>
        <time>2019-08-04T07:23:23.000Z</time>
      </trkpt>
      <trkpt lat="43.39745" lon="2.2313">
        <ele>707</ele>
        <time>2019-08-04T07:23:24.000Z</time>
      </trkpt>
      <trkpt lat="43.39744" lon="2.23133">
        <ele>707.2</ele>
        <time>2019-08-04T07:23:25.000Z</time>
      </trkpt>
      <trkpt lat="43.39742" lon="2.23136">
        <ele>707.4</ele>
        <time>2019-08-04T07:23:26.000Z</time>
      </trkpt>
      <trkpt lat="43.39741" lon="2.23139">
        <ele>707.7</ele>
        <time>2019-08-04T07:23:27.000Z</time>
      </trkpt>
      <trkpt lat="43.39739" lon="2.23141">
        <ele>708</ele>
        <time>2019-08-04T07:23:28.000Z</time>
      </trkpt>
      <trkpt lat="43.39738" lon="2.23144">
        <ele>708.2</ele>
        <time>2019-08-04T07:23:29.000Z</time>
      </trkpt>
      <trkpt lat="43.39736" lon="2.23147">
        <ele>708.5</ele>
        <time>2019-08-04T07:23:30.000Z</time>
      </trkpt>
      <trkpt lat="43.39735" lon="2.2315">
        <ele>708.7</ele>
        <time>2019-08-04T07:23:31.000Z</time>
      </trkpt>
      <trkpt lat="43.39734" lon="2.23152">
        <ele>708.9</ele>
        <time>2019-08-04T07:23:32.000Z</time>
      </trkpt>
      <trkpt lat="43.39733" lon="2.23153">
        <ele>709</ele>
        <time>2019-08-04T07:23:33.000Z</time>
      </trkpt>
      <trkpt lat="43.39732" lon="2.23155">
        <ele>709.2</ele>
        <time>2019-08-04T07:23:34.000Z</time>
      </trkpt>
      <trkpt lat="43.39732" lon="2.23156">
        <ele>709.3</ele>
        <time>2019-08-04T07:23:35.000Z</time>
      </trkpt>
      <trkpt lat="43.39732" lon="2.23157">
        <ele>709.3</ele>
        <time>2019-08-04T07:23:36.000Z</time>
      </trkpt>
      <trkpt lat="43.39731" lon="2.23158">
        <ele>709.4</ele>
        <time>2019-08-04T07:23:37.000Z</time>
      </trkpt>
      <trkpt lat="43.39731" lon="2.23159">
        <ele>709.5</ele>
        <time>2019-08-04T07:23:38.000Z</time>
      </trkpt>
      <trkpt lat="43.3973" lon="2.2316">
        <ele>709.6</ele>
        <time>2019-08-04T07:23:39.000Z</time>
      </trkpt>
      <trkpt lat="43.3973" lon="2.23161">
        <ele>709.7</ele>
        <time>2019-08-04T07:23:40.000Z</time>
      </trkpt>
      <trkpt lat="43.3973" lon="2.23162">
        <ele>709.8</ele>
        <time>2019-08-04T07:23:41.000Z</time>
      </trkpt>
      <trkpt lat="43.39729" lon="2.23162">
        <ele>709.9</ele>
        <time>2019-08-04T07:23:42.000Z</time>
      </trkpt>
      <trkpt lat="43.39729" lon="2.23163">
        <ele>709.9</ele>
        <time>2019-08-04T07:23:43.000Z</time>
      </trkpt>
      <trkpt lat="43.39729" lon="2.23164">
        <ele>710</ele>
        <time>2019-08-04T07:23:44.000Z</time>
      </trkpt>
      <trkpt lat="43.39728" lon="2.23165">
        <ele>710.1</ele>
        <time>2019-08-04T07:23:45.000Z</time>
      </trkpt>
      <trkpt lat="43.39728" lon="2.23165">
        <ele>710.1</ele>
        <time>2019-08-04T07:23:46.000Z</time>
      </trkpt>
      <trkpt lat="43.39727" lon="2.23166">
        <ele>710.2</ele>
        <time>2019-08-04T07:23:47.000Z</time>
      </trkpt>
      <trkpt lat="43.39727" lon="2.23166">
        <ele>710.2</ele>
        <time>2019-08-04T07:23:48.000Z</time>
      </trkpt>
      <trkpt lat="43.39727" lon="2.23167">
        <ele>710.3</ele>
        <time>2019-08-04T07:23:49.000Z</time>
      </trkpt>
      <trkpt lat="43.39726" lon="2.23168">
        <ele>710.4</ele>
        <time>2019-08-04T07:23:50.000Z</time>
      </trkpt>
      <trkpt lat="43.39726" lon="2.23168">
        <ele>710.4</ele>
        <time>2019-08-04T07:23:51.000Z</time>
      </trkpt>
      <trkpt lat="43.39725" lon="2.23169">
        <ele>710.5</ele>
        <time>2019-08-04T07:23:52.000Z</time>
      </trkpt>
      <trkpt lat="43.39725" lon="2.2317">
        <ele>710.6</ele>
        <time>2019-08-04T07:23:53.000Z</time>
      </trkpt>
      <trkpt lat="43.39725" lon="2.23171">
        <ele>710.7</ele>
        <time>2019-08-04T07:23:54.000Z</time>
      </trkpt>
      <trkpt lat="43.39724" lon="2.23171">
        <ele>710.7</ele>
        <time>2019-08-04T07:23:55.000Z</time>
      </trkpt>
      <trkpt lat="43.39724" lon="2.23172">
        <ele>710.8</ele>
        <time>2019-08-04T07:23:56.000Z</time>
      </trkpt>
      <trkpt lat="43.39724" lon="2.23172">
        <ele>710.9</ele>
        <time>2019-08-04T07:23:57.000Z</time>
      </trkpt>
      <trkpt lat="43.39724" lon="2.23173">
        <ele>710.9</ele>
        <time>2019-08-04T07:23:58.000Z</time>
      </trkpt>
      <trkpt lat="43.39724" lon="2.23173">
        <ele>710.9</ele>
        <time>2019-08-04T07:23:59.000Z</time>
      </trkpt>
      <trkpt lat="43.39724" lon="2.23173">
        <ele>711</ele>
        <time>2019-08-04T07:24:00.000Z</time>
      </trkpt>
      <trkpt lat="43.39724" lon="2.23173">
        <ele>711</ele>
        <time>2019-08-04T07:24:01.000Z</time>
      </trkpt>
      <trkpt lat="43.39724" lon="2.23173">
        <ele>711</ele>
        <time>2019-08-04T07:24:02.000Z</time>
      </trkpt>
      <trkpt lat="43.39724" lon="2.23173">
        <ele>710.9</ele>
        <time>2019-08-04T07:24:03.000Z</time>
      </trkpt>
      <trkpt lat="43.39724" lon="2.23173">
        <ele>710.9</ele>
        <time>2019-08-04T07:24:04.000Z</time>
      </trkpt>
      <trkpt lat="43.39724" lon="2.23173">
        <ele>710.9</ele>
        <time>2019-08-04T07:24:05.000Z</time>
      </trkpt>
      <trkpt lat="43.39724" lon="2.23172">
        <ele>710.8</ele>
        <time>2019-08-04T07:24:06.000Z</time>
      </trkpt>
      <trkpt lat="43.39724" lon="2.23172">
        <ele>710.8</ele>
        <time>2019-08-04T07:24:07.000Z</time>
      </trkpt>
      <trkpt lat="43.39724" lon="2.23171">
        <ele>710.7</ele>
        <time>2019-08-04T07:24:08.000Z</time>
      </trkpt>
      <trkpt lat="43.39724" lon="2.23171">
        <ele>710.7</ele>
        <time>2019-08-04T07:24:09.000Z</time>
      </trkpt>
      <trkpt lat="43.39724" lon="2.23171">
        <ele>710.7</ele>
        <time>2019-08-04T07:24:10.000Z</time>
      </trkpt>
      <trkpt lat="43.39724" lon="2.23171">
        <ele>710.7</ele>
        <time>2019-08-04T07:24:11.000Z</time>
      </trkpt>
      <trkpt lat="43.39724" lon="2.23171">
        <ele>710.7</ele>
        <time>2019-08-04T07:24:12.000Z</time>
      </trkpt>
      <trkpt lat="43.39724" lon="2.23171">
        <ele>710.7</ele>
        <time>2019-08-04T07:24:13.000Z</time>
      </trkpt>
      <trkpt lat="43.39724" lon="2.2317">
        <ele>710.7</ele>
        <time>2019-08-04T07:24:14.000Z</time>
      </trkpt>
      <trkpt lat="43.39724" lon="2.2317">
        <ele>710.6</ele>
        <time>2019-08-04T07:24:15.000Z</time>
      </trkpt>
      <trkpt lat="43.39724" lon="2.23169">
        <ele>710.6</ele>
        <time>2019-08-04T07:24:16.000Z</time>
      </trkpt>
      <trkpt lat="43.39724" lon="2.23169">
        <ele>710.5</ele>
        <time>2019-08-04T07:24:17.000Z</time>
      </trkpt>
      <trkpt lat="43.39724" lon="2.23169">
        <ele>710.5</ele>
        <time>2019-08-04T07:24:18.000Z</time>
      </trkpt>
      <trkpt lat="43.39724" lon="2.23168">
        <ele>710.5</ele>
        <time>2019-08-04T07:24:19.000Z</time>
      </trkpt>
      <trkpt lat="43.39724" lon="2.23168">
        <ele>710.5</ele>
        <time>2019-08-04T07:24:20.000Z</time>
      </trkpt>
      <trkpt lat="43.39724" lon="2.23168">
        <ele>710.4</ele>
        <time>2019-08-04T07:24:21.000Z</time>
      </trkpt>
      <trkpt lat="43.39724" lon="2.23168">
        <ele>710.4</ele>
        <time>2019-08-04T07:24:22.000Z</time>
      </trkpt>
      <trkpt lat="43.39724" lon="2.23168">
        <ele>710.4</ele>
        <time>2019-08-04T07:24:23.000Z</time>
      </trkpt>
      <trkpt lat="43.39724" lon="2.23168">
        <ele>710.4</ele>
        <time>2019-08-04T07:24:24.000Z</time>
      </trkpt>
      <trkpt lat="43.39724" lon="2.23168">
        <ele>710.4</ele>
        <time>2019-08-04T07:24:25.000Z</time>
      </trkpt>
      <trkpt lat="43.39724" lon="2.23168">
        <ele>710.5</ele>
        <time>2019-08-04T07:24:26.000Z</time>
      </trkpt>
      <trkpt lat="43.39724" lon="2.23169">
        <ele>710.5</ele>
        <time>2019-08-04T07:24:27.000Z</time>
      </trkpt>
      <trkpt lat="43.39724" lon="2.23169">
        <ele>710.5</ele>
        <time>2019-08-04T07:24:28.000Z</time>
      </trkpt>
      <trkpt lat="43.39724" lon="2.2317">
        <ele>710.6</ele>
        <time>2019-08-04T07:24:29.000Z</time>
      </trkpt>
      <trkpt lat="43.39723" lon="2.2317">
        <ele>710.7</ele>
        <time>2019-08-04T07:24:30.000Z</time>
      </trkpt>
      <trkpt lat="43.39723" lon="2.23171">
        <ele>710.7</ele>
        <time>2019-08-04T07:24:31.000Z</time>
      </trkpt>
      <trkpt lat="43.39723" lon="2.23172">
        <ele>710.8</ele>
        <time>2019-08-04T07:24:32.000Z</time>
      </trkpt>
      <trkpt lat="43.39723" lon="2.23173">
        <ele>710.9</ele>
        <time>2019-08-04T07:24:33.000Z</time>
      </trkpt>
      <trkpt lat="43.39723" lon="2.23173">
        <ele>711</ele>
        <time>2019-08-04T07:24:34.000Z</time>
      </trkpt>
      <trkpt lat="43.39723" lon="2.23174">
        <ele>711</ele>
        <time>2019-08-04T07:24:35.000Z</time>
      </trkpt>
      <trkpt lat="43.39723" lon="2.23174">
        <ele>711.1</ele>
        <time>2019-08-04T07:24:36.000Z</time>
      </trkpt>
      <trkpt lat="43.39723" lon="2.23175">
        <ele>711.1</ele>
        <time>2019-08-04T07:24:37.000Z</time>
      </trkpt>
      <trkpt lat="43.39723" lon="2.23175">
        <ele>711.1</ele>
        <time>2019-08-04T07:24:38.000Z</time>
      </trkpt>
      <trkpt lat="43.39723" lon="2.23176">
        <ele>711.2</ele>
        <time>2019-08-04T07:24:39.000Z</time>
      </trkpt>
      <trkpt lat="43.39723" lon="2.23176">
        <ele>711.2</ele>
        <time>2019-08-04T07:24:40.000Z</time>
      </trkpt>
      <trkpt lat="43.39723" lon="2.23176">
        <ele>711.2</ele>
        <time>2019-08-04T07:24:41.000Z</time>
      </trkpt>
      <trkpt lat="43.39723" lon="2.23176">
        <ele>711.2</ele>
        <time>2019-08-04T07:24:42.000Z</time>
      </trkpt>
      <trkpt lat="43.39723" lon="2.23176">
        <ele>711.2</ele>
        <time>2019-08-04T07:24:43.000Z</time>
      </trkpt>
      <trkpt lat="43.39723" lon="2.23176">
        <ele>711.3</ele>
        <time>2019-08-04T07:24:44.000Z</time>
      </trkpt>
      <trkpt lat="43.39723" lon="2.23176">
        <ele>711.3</ele>
        <time>2019-08-04T07:24:45.000Z</time>
      </trkpt>
      <trkpt lat="43.39723" lon="2.23176">
        <ele>711.3</ele>
        <time>2019-08-04T07:24:46.000Z</time>
      </trkpt>
      <trkpt lat="43.39723" lon="2.23176">
        <ele>711.3</ele>
        <time>2019-08-04T07:24:47.000Z</time>
      </trkpt>
      <trkpt lat="43.39723" lon="2.23176">
        <ele>711.3</ele>
        <time>2019-08-04T07:24:48.000Z</time>
      </trkpt>
      <trkpt lat="43.39723" lon="2.23176">
        <ele>711.3</ele>
        <time>2019-08-04T07:24:49.000Z</time>
      </trkpt>
      <trkpt lat="43.39723" lon="2.23176">
        <ele>711.3</ele>
        <time>2019-08-04T07:24:50.000Z</time>
      </trkpt>
      <trkpt lat="43.39723" lon="2.23176">
        <ele>711.3</ele>
        <time>2019-08-04T07:24:51.000Z</time>
      </trkpt>
      <trkpt lat="43.39723" lon="2.23176">
        <ele>711.3</ele>
        <time>2019-08-04T07:24:52.000Z</time>
      </trkpt>
      <trkpt lat="43.39723" lon="2.23176">
        <ele>711.3</ele>
        <time>2019-08-04T07:24:53.000Z</time>
      </trkpt>
      <trkpt lat="43.39723" lon="2.23176">
        <ele>711.3</ele>
        <time>2019-08-04T07:24:54.000Z</time>
      </trkpt>
      <trkpt lat="43.39723" lon="2.23176">
        <ele>711.3</ele>
        <time>2019-08-04T07:24:55.000Z</time>
      </trkpt>
      <trkpt lat="43.39723" lon="2.23176">
        <ele>711.3</ele>
        <time>2019-08-04T07:24:56.000Z</time>
      </trkpt>
      <trkpt lat="43.39723" lon="2.23176">
        <ele>711.3</ele>
        <time>2019-08-04T07:24:57.000Z</time>
      </trkpt>
      <trkpt lat="43.39723" lon="2.23176">
        <ele>711.3</ele>
        <time>2019-08-04T07:24:58.000Z</time>
      </trkpt>
      <trkpt lat="43.39723" lon="2.23176">
        <ele>711.3</ele>
        <time>2019-08-04T07:24:59.000Z</time>
      </trkpt>
      <trkpt lat="43.39723" lon="2.23176">
        <ele>711.3</ele>
        <time>2019-08-04T07:25:00.000Z</time>
      </trkpt>
      <trkpt lat="43.39723" lon="2.23176">
        <ele>711.3</ele>
        <time>2019-08-04T07:25:01.000Z</time>
      </trkpt>
      <trkpt lat="43.39723" lon="2.23176">
        <ele>711.3</ele>
        <time>2019-08-04T07:25:02.000Z</time>
      </trkpt>
      <trkpt lat="43.39723" lon="2.23176">
        <ele>711.3</ele>
        <time>2019-08-04T07:25:03.000Z</time>
      </trkpt>
      <trkpt lat="43.39723" lon="2.23176">
        <ele>711.3</ele>
        <time>2019-08-04T07:25:04.000Z</time>
      </trkpt>
      <trkpt lat="43.39723" lon="2.23176">
        <ele>711.3</ele>
        <time>2019-08-04T07:25:05.000Z</time>
      </trkpt>
      <trkpt lat="43.39723" lon="2.23176">
        <ele>711.3</ele>
        <time>2019-08-04T07:25:06.000Z</time>
      </trkpt>
      <trkpt lat="43.39723" lon="2.23176">
        <ele>711.3</ele>
        <time>2019-08-04T07:25:07.000Z</time>
      </trkpt>
      <trkpt lat="43.39723" lon="2.23176">
        <ele>711.3</ele>
        <time>2019-08-04T07:25:08.000Z</time>
      </trkpt>
      <trkpt lat="43.39723" lon="2.23176">
        <ele>711.3</ele>
        <time>2019-08-04T07:25:09.000Z</time>
      </trkpt>
      <trkpt lat="43.39723" lon="2.23176">
        <ele>711.3</ele>
        <time>2019-08-04T07:25:10.000Z</time>
      </trkpt>
      <trkpt lat="43.39723" lon="2.23176">
        <ele>711.3</ele>
        <time>2019-08-04T07:25:11.000Z</time>
      </trkpt>
      <trkpt lat="43.39723" lon="2.23176">
        <ele>711.3</ele>
        <time>2019-08-04T07:25:12.000Z</time>
      </trkpt>
      <trkpt lat="43.39723" lon="2.23176">
        <ele>711.3</ele>
        <time>2019-08-04T07:25:13.000Z</time>
      </trkpt>
      <trkpt lat="43.39723" lon="2.23177">
        <ele>711.3</ele>
        <time>2019-08-04T07:25:14.000Z</time>
      </trkpt>
      <trkpt lat="43.39722" lon="2.23177">
        <ele>711.4</ele>
        <time>2019-08-04T07:25:15.000Z</time>
      </trkpt>
      <trkpt lat="43.39722" lon="2.23178">
        <ele>711.4</ele>
        <time>2019-08-04T07:25:16.000Z</time>
      </trkpt>
      <trkpt lat="43.39722" lon="2.23179">
        <ele>711.5</ele>
        <time>2019-08-04T07:25:17.000Z</time>
      </trkpt>
      <trkpt lat="43.39722" lon="2.23179">
        <ele>711.6</ele>
        <time>2019-08-04T07:25:18.000Z</time>
      </trkpt>
      <trkpt lat="43.39721" lon="2.2318">
        <ele>711.6</ele>
        <time>2019-08-04T07:25:19.000Z</time>
      </trkpt>
      <trkpt lat="43.39721" lon="2.23181">
        <ele>711.7</ele>
        <time>2019-08-04T07:25:20.000Z</time>
      </trkpt>
      <trkpt lat="43.39721" lon="2.23181">
        <ele>711.8</ele>
        <time>2019-08-04T07:25:21.000Z</time>
      </trkpt>
      <trkpt lat="43.39721" lon="2.23182">
        <ele>711.8</ele>
        <time>2019-08-04T07:25:22.000Z</time>
      </trkpt>
      <trkpt lat="43.3972" lon="2.23183">
        <ele>711.9</ele>
        <time>2019-08-04T07:25:23.000Z</time>
      </trkpt>
      <trkpt lat="43.3972" lon="2.23183">
        <ele>712</ele>
        <time>2019-08-04T07:25:24.000Z</time>
      </trkpt>
      <trkpt lat="43.39719" lon="2.23184">
        <ele>712</ele>
        <time>2019-08-04T07:25:25.000Z</time>
      </trkpt>
      <trkpt lat="43.39719" lon="2.23185">
        <ele>712.1</ele>
        <time>2019-08-04T07:25:26.000Z</time>
      </trkpt>
      <trkpt lat="43.39719" lon="2.23186">
        <ele>712.2</ele>
        <time>2019-08-04T07:25:27.000Z</time>
      </trkpt>
      <trkpt lat="43.39718" lon="2.23186">
        <ele>712.3</ele>
        <time>2019-08-04T07:25:28.000Z</time>
      </trkpt>
      <trkpt lat="43.39718" lon="2.23187">
        <ele>712.4</ele>
        <time>2019-08-04T07:25:29.000Z</time>
      </trkpt>
      <trkpt lat="43.39718" lon="2.23188">
        <ele>712.4</ele>
        <time>2019-08-04T07:25:30.000Z</time>
      </trkpt>
      <trkpt lat="43.39718" lon="2.23189">
        <ele>712.5</ele>
        <time>2019-08-04T07:25:31.000Z</time>
      </trkpt>
      <trkpt lat="43.39717" lon="2.2319">
        <ele>712.6</ele>
        <time>2019-08-04T07:25:32.000Z</time>
      </trkpt>
      <trkpt lat="43.39717" lon="2.23191">
        <ele>712.7</ele>
        <time>2019-08-04T07:25:33.000Z</time>
      </trkpt>
      <trkpt lat="43.39717" lon="2.23192">
        <ele>712.8</ele>
        <time>2019-08-04T07:25:34.000Z</time>
      </trkpt>
      <trkpt lat="43.39717" lon="2.23193">
        <ele>713</ele>
        <time>2019-08-04T07:25:35.000Z</time>
      </trkpt>
      <trkpt lat="43.39717" lon="2.23195">
        <ele>713.1</ele>
        <time>2019-08-04T07:25:36.000Z</time>
      </trkpt>
      <trkpt lat="43.39717" lon="2.23196">
        <ele>713.2</ele>
        <time>2019-08-04T07:25:37.000Z</time>
      </trkpt>
      <trkpt lat="43.39717" lon="2.23197">
        <ele>713.3</ele>
        <time>2019-08-04T07:25:38.000Z</time>
      </trkpt>
      <trkpt lat="43.39717" lon="2.23199">
        <ele>713.5</ele>
        <time>2019-08-04T07:25:39.000Z</time>
      </trkpt>
      <trkpt lat="43.39717" lon="2.232">
        <ele>713.6</ele>
        <time>2019-08-04T07:25:40.000Z</time>
      </trkpt>
      <trkpt lat="43.39717" lon="2.23202">
        <ele>713.7</ele>
        <time>2019-08-04T07:25:41.000Z</time>
      </trkpt>
      <trkpt lat="43.39717" lon="2.23203">
        <ele>713.9</ele>
        <time>2019-08-04T07:25:42.000Z</time>
      </trkpt>
      <trkpt lat="43.39717" lon="2.23205">
        <ele>714</ele>
        <time>2019-08-04T07:25:43.000Z</time>
      </trkpt>
      <trkpt lat="43.39717" lon="2.23206">
        <ele>714.2</ele>
        <time>2019-08-04T07:25:44.000Z</time>
      </trkpt>
      <trkpt lat="43.39717" lon="2.23208">
        <ele>714.4</ele>
        <time>2019-08-04T07:25:45.000Z</time>
      </trkpt>
      <trkpt lat="43.39717" lon="2.2321">
        <ele>714.5</ele>
        <time>2019-08-04T07:25:46.000Z</time>
      </trkpt>
      <trkpt lat="43.39717" lon="2.23212">
        <ele>714.7</ele>
        <time>2019-08-04T07:25:47.000Z</time>
      </trkpt>
      <trkpt lat="43.39717" lon="2.23213">
        <ele>714.9</ele>
        <time>2019-08-04T07:25:48.000Z</time>
      </trkpt>
      <trkpt lat="43.39717" lon="2.23215">
        <ele>715.1</ele>
        <time>2019-08-04T07:25:49.000Z</time>
      </trkpt>
      <trkpt lat="43.39717" lon="2.23217">
        <ele>715.2</ele>
        <time>2019-08-04T07:25:50.000Z</time>
      </trkpt>
      <trkpt lat="43.39717" lon="2.23219">
        <ele>715.4</ele>
        <time>2019-08-04T07:25:51.000Z</time>
      </trkpt>
      <trkpt lat="43.39718" lon="2.23221">
        <ele>715.6</ele>
        <time>2019-08-04T07:25:52.000Z</time>
      </trkpt>
      <trkpt lat="43.39718" lon="2.23223">
        <ele>715.8</ele>
        <time>2019-08-04T07:25:53.000Z</time>
      </trkpt>
      <trkpt lat="43.39718" lon="2.23225">
        <ele>716</ele>
        <time>2019-08-04T07:25:54.000Z</time>
      </trkpt>
      <trkpt lat="43.39719" lon="2.23227">
        <ele>716.2</ele>
        <time>2019-08-04T07:25:55.000Z</time>
      </trkpt>
      <trkpt lat="43.39719" lon="2.23229">
        <ele>716.3</ele>
        <time>2019-08-04T07:25:56.000Z</time>
      </trkpt>
      <trkpt lat="43.3972" lon="2.23231">
        <ele>716.5</ele>
        <time>2019-08-04T07:25:57.000Z</time>
      </trkpt>
      <trkpt lat="43.39721" lon="2.23233">
        <ele>716.7</ele>
        <time>2019-08-04T07:25:58.000Z</time>
      </trkpt>
      <trkpt lat="43.39721" lon="2.23235">
        <ele>716.9</ele>
        <time>2019-08-04T07:25:59.000Z</time>
      </trkpt>
      <trkpt lat="43.39722" lon="2.23236">
        <ele>717</ele>
        <time>2019-08-04T07:26:00.000Z</time>
      </trkpt>
      <trkpt lat="43.39724" lon="2.23238">
        <ele>717.2</ele>
        <time>2019-08-04T07:26:01.000Z</time>
      </trkpt>
      <trkpt lat="43.39725" lon="2.2324">
        <ele>717.3</ele>
        <time>2019-08-04T07:26:02.000Z</time>
      </trkpt>
      <trkpt lat="43.39726" lon="2.23241">
        <ele>717.4</ele>
        <time>2019-08-04T07:26:03.000Z</time>
      </trkpt>
      <trkpt lat="43.39728" lon="2.23243">
        <ele>717.6</ele>
        <time>2019-08-04T07:26:04.000Z</time>
      </trkpt>
      <trkpt lat="43.39729" lon="2.23244">
        <ele>717.7</ele>
        <time>2019-08-04T07:26:05.000Z</time>
      </trkpt>
      <trkpt lat="43.39731" lon="2.23245">
        <ele>717.8</ele>
        <time>2019-08-04T07:26:06.000Z</time>
      </trkpt>
      <trkpt lat="43.39732" lon="2.23246">
        <ele>717.8</ele>
        <time>2019-08-04T07:26:07.000Z</time>
      </trkpt>
      <trkpt lat="43.39734" lon="2.23247">
        <ele>717.9</ele>
        <time>2019-08-04T07:26:08.000Z</time>
      </trkpt>
      <trkpt lat="43.39735" lon="2.23248">
        <ele>718</ele>
        <time>2019-08-04T07:26:09.000Z</time>
      </trkpt>
      <trkpt lat="43.39736" lon="2.23248">
        <ele>718</ele>
        <time>2019-08-04T07:26:10.000Z</time>
      </trkpt>
      <trkpt lat="43.39737" lon="2.23248">
        <ele>718</ele>
        <time>2019-08-04T07:26:11.000Z</time>
      </trkpt>
      <trkpt lat="43.39738" lon="2.23248">
        <ele>718</ele>
        <time>2019-08-04T07:26:12.000Z</time>
      </trkpt>
      <trkpt lat="43.39739" lon="2.23248">
        <ele>718</ele>
        <time>2019-08-04T07:26:13.000Z</time>
      </trkpt>
      <trkpt lat="43.3974" lon="2.23248">
        <ele>717.9</ele>
        <time>2019-08-04T07:26:14.000Z</time>
      </trkpt>
      <trkpt lat="43.39741" lon="2.23248">
        <ele>717.9</ele>
        <time>2019-08-04T07:26:15.000Z</time>
      </trkpt>
      <trkpt lat="43.39742" lon="2.23247">
        <ele>717.8</ele>
        <time>2019-08-04T07:26:16.000Z</time>
      </trkpt>
      <trkpt lat="43.39743" lon="2.23247">
        <ele>717.8</ele>
        <time>2019-08-04T07:26:17.000Z</time>
      </trkpt>
      <trkpt lat="43.39744" lon="2.23246">
        <ele>717.7</ele>
        <time>2019-08-04T07:26:18.000Z</time>
      </trkpt>
      <trkpt lat="43.39744" lon="2.23246">
        <ele>717.6</ele>
        <time>2019-08-04T07:26:19.000Z</time>
      </trkpt>
      <trkpt lat="43.39745" lon="2.23245">
        <ele>717.6</ele>
        <time>2019-08-04T07:26:20.000Z</time>
      </trkpt>
      <trkpt lat="43.39746" lon="2.23245">
        <ele>717.6</ele>
        <time>2019-08-04T07:26:21.000Z</time>
      </trkpt>
      <trkpt lat="43.39746" lon="2.23245">
        <ele>717.5</ele>
        <time>2019-08-04T07:26:22.000Z</time>
      </trkpt>
      <trkpt lat="43.39747" lon="2.23245">
        <ele>717.5</ele>
        <time>2019-08-04T07:26:23.000Z</time>
      </trkpt>
      <trkpt lat="43.39747" lon="2.23244">
        <ele>717.5</ele>
        <time>2019-08-04T07:26:24.000Z</time>
      </trkpt>
      <trkpt lat="43.39747" lon="2.23244">
        <ele>717.5</ele>
        <time>2019-08-04T07:26:25.000Z</time>
      </trkpt>
      <trkpt lat="43.39747" lon="2.23244">
        <ele>717.5</ele>
        <time>2019-08-04T07:26:26.000Z</time>
      </trkpt>
      <trkpt lat="43.39747" lon="2.23244">
        <ele>717.5</ele>
        <time>2019-08-04T07:26:27.000Z</time>
      </trkpt>
      <trkpt lat="43.39747" lon="2.23244">
        <ele>717.5</ele>
        <time>2019-08-04T07:26:28.000Z</time>
      </trkpt>
      <trkpt lat="43.39747" lon="2.23244">
        <ele>717.5</ele>
        <time>2019-08-04T07:26:29.000Z</time>
      </trkpt>
      <trkpt lat="43.39747" lon="2.23244">
        <ele>717.5</ele>
        <time>2019-08-04T07:26:30.000Z</time>
      </trkpt>
      <trkpt lat="43.39747" lon="2.23244">
        <ele>717.5</ele>
        <time>2019-08-04T07:26:31.000Z</time>
      </trkpt>
      <trkpt lat="43.39747" lon="2.23244">
        <ele>717.5</ele>
        <time>2019-08-04T07:26:32.000Z</time>
      </trkpt>
      <trkpt lat="43.39747" lon="2.23244">
        <ele>717.5</ele>
        <time>2019-08-04T07:26:33.000Z</time>
      </trkpt>
      <trkpt lat="43.39747" lon="2.23244">
        <ele>717.5</ele>
        <time>2019-08-04T07:26:34.000Z</time>
      </trkpt>
      <trkpt lat="43.39747" lon="2.23244">
        <ele>717.5</ele>
        <time>2019-08-04T07:26:35.000Z</time>
      </trkpt>
      <trkpt lat="43.39747" lon="2.23244">
        <ele>717.5</ele>
        <time>2019-08-04T07:26:36.000Z</time>
      </trkpt>
      <trkpt lat="43.39747" lon="2.23244">
        <ele>717.5</ele>
        <time>2019-08-04T07:26:37.000Z</time>
      </trkpt>
      <trkpt lat="43.39747" lon="2.23244">
        <ele>717.5</ele>
        <time>2019-08-04T07:26:38.000Z</time>
      </trkpt>
      <trkpt lat="43.39747" lon="2.23244">
        <ele>717.5</ele>
        <time>2019-08-04T07:26:39.000Z</time>
      </trkpt>
      <trkpt lat="43.39747" lon="2.23244">
        <ele>717.5</ele>
        <time>2019-08-04T07:26:40.000Z</time>
      </trkpt>
      <trkpt lat="43.39747" lon="2.23244">
        <ele>717.5</ele>
        <time>2019-08-04T07:26:41.000Z</time>
      </trkpt>
      <trkpt lat="43.39747" lon="2.23244">
        <ele>717.5</ele>
        <time>2019-08-04T07:26:42.000Z</time>
      </trkpt>
      <trkpt lat="43.39747" lon="2.23244">
        <ele>717.5</ele>
        <time>2019-08-04T07:26:43.000Z</time>
      </trkpt>
      <trkpt lat="43.39747" lon="2.23244">
        <ele>717.5</ele>
        <time>2019-08-04T07:26:44.000Z</time>
      </trkpt>
      <trkpt lat="43.39747" lon="2.23244">
        <ele>717.5</ele>
        <time>2019-08-04T07:26:45.000Z</time>
      </trkpt>
      <trkpt lat="43.39747" lon="2.23244">
        <ele>717.5</ele>
        <time>2019-08-04T07:26:46.000Z</time>
      </trkpt>
      <trkpt lat="43.39747" lon="2.23244">
        <ele>717.5</ele>
        <time>2019-08-04T07:26:47.000Z</time>
      </trkpt>
      <trkpt lat="43.39747" lon="2.23244">
        <ele>717.5</ele>
        <time>2019-08-04T07:26:48.000Z</time>
      </trkpt>
      <trkpt lat="43.39747" lon="2.23244">
        <ele>717.5</ele>
        <time>2019-08-04T07:26:49.000Z</time>
      </trkpt>
      <trkpt lat="43.39747" lon="2.23244">
        <ele>717.5</ele>
        <time>2019-08-04T07:26:50.000Z</time>
      </trkpt>
      <trkpt lat="43.39747" lon="2.23244">
        <ele>717.5</ele>
        <time>2019-08-04T07:26:51.000Z</time>
      </trkpt>
      <trkpt lat="43.39747" lon="2.23244">
        <ele>717.5</ele>
        <time>2019-08-04T07:26:52.000Z</time>
      </trkpt>
      <trkpt lat="43.39747" lon="2.23244">
        <ele>717.5</ele>
        <time>2019-08-04T07:26:53.000Z</time>
      </trkpt>
      <trkpt lat="43.39747" lon="2.23244">
        <ele>717.5</ele>
        <time>2019-08-04T07:26:54.000Z</time>
      </trkpt>
      <trkpt lat="43.39747" lon="2.23244">
        <ele>717.5</ele>
        <time>2019-08-04T07:26:55.000Z</time>
      </trkpt>
      <trkpt lat="43.39747" lon="2.23244">
        <ele>717.5</ele>
        <time>2019-08-04T07:26:56.000Z</time>
      </trkpt>
      <trkpt lat="43.39747" lon="2.23244">
        <ele>717.5</ele>
        <time>2019-08-04T07:26:57.000Z</time>
      </trkpt>
      <trkpt lat="43.39747" lon="2.23244">
        <ele>717.5</ele>
        <time>2019-08-04T07:26:58.000Z</time>
      </trkpt>
      <trkpt lat="43.39747" lon="2.23244">
        <ele>717.5</ele>
        <time>2019-08-04T07:26:59.000Z</time>
      </trkpt>
      <trkpt lat="43.39747" lon="2.23244">
        <ele>717.5</ele>
        <time>2019-08-04T07:27:00.000Z</time>
      </trkpt>
      <trkpt lat="43.39747" lon="2.23244">
        <ele>717.5</ele>
        <time>2019-08-04T07:27:01.000Z</time>
      </trkpt>
      <trkpt lat="43.39747" lon="2.23244">
        <ele>717.5</ele>
        <time>2019-08-04T07:27:02.000Z</time>
      </trkpt>
      <trkpt lat="43.39747" lon="2.23244">
        <ele>717.5</ele>
        <time>2019-08-04T07:27:03.000Z</time>
      </trkpt>
      <trkpt lat="43.39747" lon="2.23244">
        <ele>717.5</ele>
        <time>2019-08-04T07:27:04.000Z</time>
      </trkpt>
      <trkpt lat="43.39747" lon="2.23244">
        <ele>717.5</ele>
        <time>2019-08-04T07:27:05.000Z</time>
      </trkpt>
      <trkpt lat="43.39747" lon="2.23245">
        <ele>717.5</ele>
        <time>2019-08-04T07:27:06.000Z</time>
      </trkpt>
      <trkpt lat="43.39747" lon="2.23245">
        <ele>717.6</ele>
        <time>2019-08-04T07:27:07.000Z</time>
      </trkpt>
      <trkpt lat="43.39746" lon="2.23246">
        <ele>717.6</ele>
        <time>2019-08-04T07:27:08.000Z</time>
      </trkpt>
      <trkpt lat="43.39745" lon="2.23247">
        <ele>717.7</ele>
        <time>2019-08-04T07:27:09.000Z</time>
      </trkpt>
      <trkpt lat="43.39744" lon="2.23247">
        <ele>717.8</ele>
        <time>2019-08-04T07:27:10.000Z</time>
      </trkpt>
      <trkpt lat="43.39743" lon="2.23248">
        <ele>717.9</ele>
        <time>2019-08-04T07:27:11.000Z</time>
      </trkpt>
      <trkpt lat="43.39742" lon="2.23248">
        <ele>717.9</ele>
        <time>2019-08-04T07:27:12.000Z</time>
      </trkpt>
      <trkpt lat="43.39741" lon="2.23247">
        <ele>717.9</ele>
        <time>2019-08-04T07:27:13.000Z</time>
      </trkpt>
      <trkpt lat="43.39741" lon="2.23247">
        <ele>717.8</ele>
        <time>2019-08-04T07:27:14.000Z</time>
      </trkpt>
      <trkpt lat="43.39741" lon="2.23247">
        <ele>717.8</ele>
        <time>2019-08-04T07:27:15.000Z</time>
      </trkpt>
      <trkpt lat="43.39741" lon="2.23247">
        <ele>717.8</ele>
        <time>2019-08-04T07:27:16.000Z</time>
      </trkpt>
      <trkpt lat="43.39741" lon="2.23247">
        <ele>717.8</ele>
        <time>2019-08-04T07:27:17.000Z</time>
      </trkpt>
      <trkpt lat="43.39741" lon="2.23247">
        <ele>717.8</ele>
        <time>2019-08-04T07:27:18.000Z</time>
      </trkpt>
      <trkpt lat="43.39741" lon="2.23247">
        <ele>717.8</ele>
        <time>2019-08-04T07:27:19.000Z</time>
      </trkpt>
      <trkpt lat="43.39741" lon="2.23247">
        <ele>717.8</ele>
        <time>2019-08-04T07:27:20.000Z</time>
      </trkpt>
      <trkpt lat="43.3974" lon="2.23247">
        <ele>717.8</ele>
        <time>2019-08-04T07:27:21.000Z</time>
      </trkpt>
      <trkpt lat="43.3974" lon="2.23247">
        <ele>717.8</ele>
        <time>2019-08-04T07:27:22.000Z</time>
      </trkpt>
      <trkpt lat="43.3974" lon="2.23247">
        <ele>717.8</ele>
        <time>2019-08-04T07:27:23.000Z</time>
      </trkpt>
      <trkpt lat="43.3974" lon="2.23247">
        <ele>717.9</ele>
        <time>2019-08-04T07:27:24.000Z</time>
      </trkpt>
      <trkpt lat="43.3974" lon="2.23247">
        <ele>717.9</ele>
        <time>2019-08-04T07:27:25.000Z</time>
      </trkpt>
      <trkpt lat="43.3974" lon="2.23247">
        <ele>717.9</ele>
        <time>2019-08-04T07:27:26.000Z</time>
      </trkpt>
      <trkpt lat="43.3974" lon="2.23248">
        <ele>717.9</ele>
        <time>2019-08-04T07:27:27.000Z</time>
      </trkpt>
      <trkpt lat="43.3974" lon="2.23248">
        <ele>717.9</ele>
        <time>2019-08-04T07:27:28.000Z</time>
      </trkpt>
      <trkpt lat="43.3974" lon="2.23248">
        <ele>717.9</ele>
        <time>2019-08-04T07:27:29.000Z</time>
      </trkpt>
      <trkpt lat="43.39739" lon="2.23248">
        <ele>717.9</ele>
        <time>2019-08-04T07:27:30.000Z</time>
      </trkpt>
      <trkpt lat="43.39739" lon="2.23248">
        <ele>717.9</ele>
        <time>2019-08-04T07:27:31.000Z</time>
      </trkpt>
      <trkpt lat="43.39738" lon="2.23248">
        <ele>718</ele>
        <time>2019-08-04T07:27:32.000Z</time>
      </trkpt>
      <trkpt lat="43.39738" lon="2.23248">
        <ele>718</ele>
        <time>2019-08-04T07:27:33.000Z</time>
      </trkpt>
      <trkpt lat="43.39738" lon="2.23249">
        <ele>718</ele>
        <time>2019-08-04T07:27:34.000Z</time>
      </trkpt>
      <trkpt lat="43.39737" lon="2.23249">
        <ele>718</ele>
        <time>2019-08-04T07:27:35.000Z</time>
      </trkpt>
      <trkpt lat="43.39736" lon="2.23249">
        <ele>718.1</ele>
        <time>2019-08-04T07:27:36.000Z</time>
      </trkpt>
      <trkpt lat="43.39736" lon="2.23249">
        <ele>718.1</ele>
        <time>2019-08-04T07:27:37.000Z</time>
      </trkpt>
      <trkpt lat="43.39735" lon="2.2325">
        <ele>718.1</ele>
        <time>2019-08-04T07:27:38.000Z</time>
      </trkpt>
      <trkpt lat="43.39735" lon="2.2325">
        <ele>718.1</ele>
        <time>2019-08-04T07:27:39.000Z</time>
      </trkpt>
      <trkpt lat="43.39735" lon="2.2325">
        <ele>718.2</ele>
        <time>2019-08-04T07:27:40.000Z</time>
      </trkpt>
      <trkpt lat="43.39734" lon="2.2325">
        <ele>718.2</ele>
        <time>2019-08-04T07:27:41.000Z</time>
      </trkpt>
      <trkpt lat="43.39734" lon="2.2325">
        <ele>718.2</ele>
        <time>2019-08-04T07:27:42.000Z</time>
      </trkpt>
      <trkpt lat="43.39734" lon="2.2325">
        <ele>718.2</ele>
        <time>2019-08-04T07:27:43.000Z</time>
      </trkpt>
      <trkpt lat="43.39734" lon="2.2325">
        <ele>718.2</ele>
        <time>2019-08-04T07:27:44.000Z</time>
      </trkpt>
      <trkpt lat="43.39734" lon="2.2325">
        <ele>718.2</ele>
        <time>2019-08-04T07:27:45.000Z</time>
      </trkpt>
      <trkpt lat="43.39734" lon="2.2325">
        <ele>718.2</ele>
        <time>2019-08-04T07:27:46.000Z</time>
      </trkpt>
      <trkpt lat="43.39734" lon="2.2325">
        <ele>718.2</ele>
        <time>2019-08-04T07:27:47.000Z</time>
      </trkpt>
      <trkpt lat="43.39734" lon="2.2325">
        <ele>718.2</ele>
        <time>2019-08-04T07:27:48.000Z</time>
      </trkpt>
      <trkpt lat="43.39734" lon="2.2325">
        <ele>718.2</ele>
        <time>2019-08-04T07:27:49.000Z</time>
      </trkpt>
      <trkpt lat="43.39734" lon="2.2325">
        <ele>718.2</ele>
        <time>2019-08-04T07:27:50.000Z</time>
      </trkpt>
      <trkpt lat="43.39734" lon="2.2325">
        <ele>718.2</ele>
        <time>2019-08-04T07:27:51.000Z</time>
      </trkpt>
      <trkpt lat="43.39734" lon="2.2325">
        <ele>718.2</ele>
        <time>2019-08-04T07:27:52.000Z</time>
      </trkpt>
      <trkpt lat="43.39734" lon="2.2325">
        <ele>718.2</ele>
        <time>2019-08-04T07:27:53.000Z</time>
      </trkpt>
      <trkpt lat="43.39734" lon="2.2325">
        <ele>718.2</ele>
        <time>2019-08-04T07:27:54.000Z</time>
      </trkpt>
      <trkpt lat="43.39734" lon="2.2325">
        <ele>718.2</ele>
        <time>2019-08-04T07:27:55.000Z</time>
      </trkpt>
      <trkpt lat="43.39733" lon="2.2325">
        <ele>718.2</ele>
        <time>2019-08-04T07:27:56.000Z</time>
      </trkpt>
      <trkpt lat="43.39733" lon="2.23249">
        <ele>718.1</ele>
        <time>2019-08-04T07:27:57.000Z</time>
      </trkpt>
      <trkpt lat="43.39732" lon="2.23249">
        <ele>718.1</ele>
        <time>2019-08-04T07:27:58.000Z</time>
      </trkpt>
      <trkpt lat="43.39732" lon="2.23249">
        <ele>718.1</ele>
        <time>2019-08-04T07:27:59.000Z</time>
      </trkpt>
      <trkpt lat="43.39731" lon="2.23248">
        <ele>718.1</ele>
        <time>2019-08-04T07:28:00.000Z</time>
      </trkpt>
      <trkpt lat="43.39731" lon="2.23248">
        <ele>718</ele>
        <time>2019-08-04T07:28:01.000Z</time>
      </trkpt>
      <trkpt lat="43.3973" lon="2.23247">
        <ele>718</ele>
        <time>2019-08-04T07:28:02.000Z</time>
      </trkpt>
      <trkpt lat="43.39729" lon="2.23247">
        <ele>717.9</ele>
        <time>2019-08-04T07:28:03.000Z</time>
      </trkpt>
      <trkpt lat="43.39729" lon="2.23246">
        <ele>717.9</ele>
        <time>2019-08-04T07:28:04.000Z</time>
      </trkpt>
      <trkpt lat="43.39728" lon="2.23245">
        <ele>717.8</ele>
        <time>2019-08-04T07:28:05.000Z</time>
      </trkpt>
      <trkpt lat="43.39727" lon="2.23244">
        <ele>717.7</ele>
        <time>2019-08-04T07:28:06.000Z</time>
      </trkpt>
      <trkpt lat="43.39726" lon="2.23244">
        <ele>717.7</ele>
        <time>2019-08-04T07:28:07.000Z</time>
      </trkpt>
      <trkpt lat="43.39726" lon="2.23243">
        <ele>717.6</ele>
        <time>2019-08-04T07:28:08.000Z</time>
      </trkpt>
      <trkpt lat="43.39725" lon="2.23242">
        <ele>717.5</ele>
        <time>2019-08-04T07:28:09.000Z</time>
      </trkpt>
      <trkpt lat="43.39724" lon="2.23241">
        <ele>717.4</ele>
        <time>2019-08-04T07:28:10.000Z</time>
      </trkpt>
      <trkpt lat="43.39723" lon="2.2324">
        <ele>717.3</ele>
        <time>2019-08-04T07:28:11.000Z</time>
      </trkpt>
      <trkpt lat="43.39722" lon="2.23239">
        <ele>717.2</ele>
        <time>2019-08-04T07:28:12.000Z</time>
      </trkpt>
      <trkpt lat="43.39721" lon="2.23238">
        <ele>717.1</ele>
        <time>2019-08-04T07:28:13.000Z</time>
      </trkpt>
      <trkpt lat="43.3972" lon="2.23237">
        <ele>717.1</ele>
        <time>2019-08-04T07:28:14.000Z</time>
      </trkpt>
      <trkpt lat="43.39719" lon="2.23236">
        <ele>717</ele>
        <time>2019-08-04T07:28:15.000Z</time>
      </trkpt>
      <trkpt lat="43.39718" lon="2.23235">
        <ele>716.9</ele>
        <time>2019-08-04T07:28:16.000Z</time>
      </trkpt>
      <trkpt lat="43.39717" lon="2.23234">
        <ele>716.8</ele>
        <time>2019-08-04T07:28:17.000Z</time>
      </trkpt>
      <trkpt lat="43.39716" lon="2.23233">
        <ele>716.7</ele>
        <time>2019-08-04T07:28:18.000Z</time>
      </trkpt>
      <trkpt lat="43.39716" lon="2.23232">
        <ele>716.7</ele>
        <time>2019-08-04T07:28:19.000Z</time>
      </trkpt>
      <trkpt lat="43.39715" lon="2.23231">
        <ele>716.6</ele>
        <time>2019-08-04T07:28:20.000Z</time>
      </trkpt>
      <trkpt lat="43.39714" lon="2.2323">
        <ele>716.6</ele>
        <time>2019-08-04T07:28:21.000Z</time>
      </trkpt>
      <trkpt lat="43.39713" lon="2.2323">
        <ele>716.5</ele>
        <time>2019-08-04T07:28:22.000Z</time>
      </trkpt>
      <trkpt lat="43.39711" lon="2.23229">
        <ele>716.4</ele>
        <time>2019-08-04T07:28:23.000Z</time>
      </trkpt>
      <trkpt lat="43.3971" lon="2.23228">
        <ele>716.4</ele>
        <time>2019-08-04T07:28:24.000Z</time>
      </trkpt>
      <trkpt lat="43.39709" lon="2.23227">
        <ele>716.3</ele>
        <time>2019-08-04T07:28:25.000Z</time>
      </trkpt>
      <trkpt lat="43.39707" lon="2.23226">
        <ele>716.3</ele>
        <time>2019-08-04T07:28:26.000Z</time>
      </trkpt>
      <trkpt lat="43.39705" lon="2.23226">
        <ele>716.2</ele>
        <time>2019-08-04T07:28:27.000Z</time>
      </trkpt>
      <trkpt lat="43.39703" lon="2.23225">
        <ele>716.1</ele>
        <time>2019-08-04T07:28:28.000Z</time>
      </trkpt>
      <trkpt lat="43.39701" lon="2.23224">
        <ele>716.1</ele>
        <time>2019-08-04T07:28:29.000Z</time>
      </trkpt>
      <trkpt lat="43.39699" lon="2.23223">
        <ele>716.1</ele>
        <time>2019-08-04T07:28:30.000Z</time>
      </trkpt>
      <trkpt lat="43.39696" lon="2.23223">
        <ele>716</ele>
        <time>2019-08-04T07:28:31.000Z</time>
      </trkpt>
      <trkpt lat="43.39694" lon="2.23222">
        <ele>716</ele>
        <time>2019-08-04T07:28:32.000Z</time>
      </trkpt>
      <trkpt lat="43.39692" lon="2.23221">
        <ele>716</ele>
        <time>2019-08-04T07:28:33.000Z</time>
      </trkpt>
      <trkpt lat="43.39689" lon="2.23221">
        <ele>715.9</ele>
        <time>2019-08-04T07:28:34.000Z</time>
      </trkpt>
      <trkpt lat="43.39687" lon="2.2322">
        <ele>715.9</ele>
        <time>2019-08-04T07:28:35.000Z</time>
      </trkpt>
      <trkpt lat="43.39684" lon="2.2322">
        <ele>715.9</ele>
        <time>2019-08-04T07:28:36.000Z</time>
      </trkpt>
      <trkpt lat="43.39682" lon="2.2322">
        <ele>715.9</ele>
        <time>2019-08-04T07:28:37.000Z</time>
      </trkpt>
      <trkpt lat="43.39679" lon="2.23219">
        <ele>715.9</ele>
        <time>2019-08-04T07:28:38.000Z</time>
      </trkpt>
      <trkpt lat="43.39677" lon="2.23219">
        <ele>715.9</ele>
        <time>2019-08-04T07:28:39.000Z</time>
      </trkpt>
      <trkpt lat="43.39675" lon="2.23219">
        <ele>715.9</ele>
        <time>2019-08-04T07:28:40.000Z</time>
      </trkpt>
      <trkpt lat="43.39672" lon="2.23219">
        <ele>715.9</ele>
        <time>2019-08-04T07:28:41.000Z</time>
      </trkpt>
      <trkpt lat="43.3967" lon="2.23219">
        <ele>715.9</ele>
        <time>2019-08-04T07:28:42.000Z</time>
      </trkpt>
      <trkpt lat="43.39668" lon="2.23218">
        <ele>715.9</ele>
        <time>2019-08-04T07:28:43.000Z</time>
      </trkpt>
      <trkpt lat="43.39665" lon="2.23218">
        <ele>716.1</ele>
        <time>2019-08-04T07:28:44.000Z</time>
      </trkpt>
      <trkpt lat="43.39663" lon="2.23218">
        <ele>716.3</ele>
        <time>2019-08-04T07:28:45.000Z</time>
      </trkpt>
      <trkpt lat="43.3966" lon="2.23218">
        <ele>716.5</ele>
        <time>2019-08-04T07:28:46.000Z</time>
      </trkpt>
      <trkpt lat="43.39658" lon="2.23218">
        <ele>716.7</ele>
        <time>2019-08-04T07:28:47.000Z</time>
      </trkpt>
      <trkpt lat="43.39656" lon="2.23217">
        <ele>716.9</ele>
        <time>2019-08-04T07:28:48.000Z</time>
      </trkpt>
      <trkpt lat="43.39653" lon="2.23217">
        <ele>717</ele>
        <time>2019-08-04T07:28:49.000Z</time>
      </trkpt>
      <trkpt lat="43.39651" lon="2.23217">
        <ele>717.2</ele>
        <time>2019-08-04T07:28:50.000Z</time>
      </trkpt>
      <trkpt lat="43.39649" lon="2.23216">
        <ele>717.4</ele>
        <time>2019-08-04T07:28:51.000Z</time>
      </trkpt>
      <trkpt lat="43.39646" lon="2.23216">
        <ele>717.6</ele>
        <time>2019-08-04T07:28:52.000Z</time>
      </trkpt>
      <trkpt lat="43.39644" lon="2.23216">
        <ele>717.8</ele>
        <time>2019-08-04T07:28:53.000Z</time>
      </trkpt>
      <trkpt lat="43.39642" lon="2.23215">
        <ele>717.9</ele>
        <time>2019-08-04T07:28:54.000Z</time>
      </trkpt>
      <trkpt lat="43.3964" lon="2.23215">
        <ele>718.1</ele>
        <time>2019-08-04T07:28:55.000Z</time>
      </trkpt>
      <trkpt lat="43.39638" lon="2.23214">
        <ele>718.2</ele>
        <time>2019-08-04T07:28:56.000Z</time>
      </trkpt>
      <trkpt lat="43.39636" lon="2.23214">
        <ele>718.4</ele>
        <time>2019-08-04T07:28:57.000Z</time>
      </trkpt>
      <trkpt lat="43.39634" lon="2.23213">
        <ele>718.5</ele>
        <time>2019-08-04T07:28:58.000Z</time>
      </trkpt>
      <trkpt lat="43.39632" lon="2.23212">
        <ele>718.6</ele>
        <time>2019-08-04T07:28:59.000Z</time>
      </trkpt>
      <trkpt lat="43.3963" lon="2.23211">
        <ele>718.7</ele>
        <time>2019-08-04T07:29:00.000Z</time>
      </trkpt>
      <trkpt lat="43.39628" lon="2.23209">
        <ele>718.8</ele>
        <time>2019-08-04T07:29:01.000Z</time>
      </trkpt>
      <trkpt lat="43.39626" lon="2.23207">
        <ele>718.8</ele>
        <time>2019-08-04T07:29:02.000Z</time>
      </trkpt>
      <trkpt lat="43.39624" lon="2.23205">
        <ele>718.9</ele>
        <time>2019-08-04T07:29:03.000Z</time>
      </trkpt>
      <trkpt lat="43.39622" lon="2.23203">
        <ele>718.9</ele>
        <time>2019-08-04T07:29:04.000Z</time>
      </trkpt>
      <trkpt lat="43.3962" lon="2.232">
        <ele>718.9</ele>
        <time>2019-08-04T07:29:05.000Z</time>
      </trkpt>
      <trkpt lat="43.39618" lon="2.23197">
        <ele>718.9</ele>
        <time>2019-08-04T07:29:06.000Z</time>
      </trkpt>
      <trkpt lat="43.39616" lon="2.23195">
        <ele>718.9</ele>
        <time>2019-08-04T07:29:07.000Z</time>
      </trkpt>
      <trkpt lat="43.39615" lon="2.23192">
        <ele>718.9</ele>
        <time>2019-08-04T07:29:08.000Z</time>
      </trkpt>
      <trkpt lat="43.39613" lon="2.23189">
        <ele>718.9</ele>
        <time>2019-08-04T07:29:09.000Z</time>
      </trkpt>
      <trkpt lat="43.39611" lon="2.23187">
        <ele>719</ele>
        <time>2019-08-04T07:29:10.000Z</time>
      </trkpt>
      <trkpt lat="43.39609" lon="2.23184">
        <ele>719</ele>
        <time>2019-08-04T07:29:11.000Z</time>
      </trkpt>
      <trkpt lat="43.39608" lon="2.23182">
        <ele>719.1</ele>
        <time>2019-08-04T07:29:12.000Z</time>
      </trkpt>
      <trkpt lat="43.39606" lon="2.2318">
        <ele>719.1</ele>
        <time>2019-08-04T07:29:13.000Z</time>
      </trkpt>
      <trkpt lat="43.39604" lon="2.23178">
        <ele>719.1</ele>
        <time>2019-08-04T07:29:14.000Z</time>
      </trkpt>
      <trkpt lat="43.39603" lon="2.23176">
        <ele>719.2</ele>
        <time>2019-08-04T07:29:15.000Z</time>
      </trkpt>
      <trkpt lat="43.39601" lon="2.23173">
        <ele>719.3</ele>
        <time>2019-08-04T07:29:16.000Z</time>
      </trkpt>
      <trkpt lat="43.396" lon="2.23171">
        <ele>719.3</ele>
        <time>2019-08-04T07:29:17.000Z</time>
      </trkpt>
      <trkpt lat="43.39598" lon="2.23169">
        <ele>719.4</ele>
        <time>2019-08-04T07:29:18.000Z</time>
      </trkpt>
      <trkpt lat="43.39596" lon="2.23167">
        <ele>719.5</ele>
        <time>2019-08-04T07:29:19.000Z</time>
      </trkpt>
      <trkpt lat="43.39595" lon="2.23165">
        <ele>719.5</ele>
        <time>2019-08-04T07:29:20.000Z</time>
      </trkpt>
      <trkpt lat="43.39593" lon="2.23163">
        <ele>719.6</ele>
        <time>2019-08-04T07:29:21.000Z</time>
      </trkpt>
      <trkpt lat="43.39592" lon="2.23161">
        <ele>719.6</ele>
        <time>2019-08-04T07:29:22.000Z</time>
      </trkpt>
      <trkpt lat="43.3959" lon="2.23159">
        <ele>719.7</ele>
        <time>2019-08-04T07:29:23.000Z</time>
      </trkpt>
      <trkpt lat="43.39589" lon="2.23157">
        <ele>719.8</ele>
        <time>2019-08-04T07:29:24.000Z</time>
      </trkpt>
      <trkpt lat="43.39587" lon="2.23155">
        <ele>719.8</ele>
        <time>2019-08-04T07:29:25.000Z</time>
      </trkpt>
      <trkpt lat="43.39585" lon="2.23153">
        <ele>719.9</ele>
        <time>2019-08-04T07:29:26.000Z</time>
      </trkpt>
      <trkpt lat="43.39584" lon="2.23152">
        <ele>720</ele>
        <time>2019-08-04T07:29:27.000Z</time>
      </trkpt>
      <trkpt lat="43.39582" lon="2.2315">
        <ele>720</ele>
        <time>2019-08-04T07:29:28.000Z</time>
      </trkpt>
      <trkpt lat="43.39581" lon="2.23148">
        <ele>720</ele>
        <time>2019-08-04T07:29:29.000Z</time>
      </trkpt>
      <trkpt lat="43.39579" lon="2.23147">
        <ele>720</ele>
        <time>2019-08-04T07:29:30.000Z</time>
      </trkpt>
      <trkpt lat="43.39577" lon="2.23146">
        <ele>720</ele>
        <time>2019-08-04T07:29:31.000Z</time>
      </trkpt>
      <trkpt lat="43.39575" lon="2.23144">
        <ele>720</ele>
        <time>2019-08-04T07:29:32.000Z</time>
      </trkpt>
      <trkpt lat="43.39574" lon="2.23143">
        <ele>720.1</ele>
        <time>2019-08-04T07:29:33.000Z</time>
      </trkpt>
      <trkpt lat="43.39572" lon="2.23142">
        <ele>720.1</ele>
        <time>2019-08-04T07:29:34.000Z</time>
      </trkpt>
      <trkpt lat="43.3957" lon="2.23141">
        <ele>720.1</ele>
        <time>2019-08-04T07:29:35.000Z</time>
      </trkpt>
      <trkpt lat="43.39568" lon="2.2314">
        <ele>720.1</ele>
        <time>2019-08-04T07:29:36.000Z</time>
      </trkpt>
      <trkpt lat="43.39566" lon="2.23139">
        <ele>720.2</ele>
        <time>2019-08-04T07:29:37.000Z</time>
      </trkpt>
      <trkpt lat="43.39564" lon="2.23138">
        <ele>720.2</ele>
        <time>2019-08-04T07:29:38.000Z</time>
      </trkpt>
      <trkpt lat="43.39562" lon="2.23137">
        <ele>720.3</ele>
        <time>2019-08-04T07:29:39.000Z</time>
      </trkpt>
      <trkpt lat="43.3956" lon="2.23136">
        <ele>720.3</ele>
        <time>2019-08-04T07:29:40.000Z</time>
      </trkpt>
      <trkpt lat="43.39558" lon="2.23135">
        <ele>720.3</ele>
        <time>2019-08-04T07:29:41.000Z</time>
      </trkpt>
      <trkpt lat="43.39555" lon="2.23134">
        <ele>720.4</ele>
        <time>2019-08-04T07:29:42.000Z</time>
      </trkpt>
      <trkpt lat="43.39553" lon="2.23133">
        <ele>720.4</ele>
        <time>2019-08-04T07:29:43.000Z</time>
      </trkpt>
      <trkpt lat="43.39551" lon="2.23131">
        <ele>720.4</ele>
        <time>2019-08-04T07:29:44.000Z</time>
      </trkpt>
      <trkpt lat="43.39549" lon="2.2313">
        <ele>720.5</ele>
        <time>2019-08-04T07:29:45.000Z</time>
      </trkpt>
      <trkpt lat="43.39546" lon="2.23129">
        <ele>720.5</ele>
        <time>2019-08-04T07:29:46.000Z</time>
      </trkpt>
      <trkpt lat="43.39544" lon="2.23128">
        <ele>720.6</ele>
        <time>2019-08-04T07:29:47.000Z</time>
      </trkpt>
      <trkpt lat="43.39542" lon="2.23127">
        <ele>720.6</ele>
        <time>2019-08-04T07:29:48.000Z</time>
      </trkpt>
      <trkpt lat="43.3954" lon="2.23126">
        <ele>720.7</ele>
        <time>2019-08-04T07:29:49.000Z</time>
      </trkpt>
      <trkpt lat="43.39537" lon="2.23125">
        <ele>720.7</ele>
        <time>2019-08-04T07:29:50.000Z</time>
      </trkpt>
      <trkpt lat="43.39535" lon="2.23124">
        <ele>720.8</ele>
        <time>2019-08-04T07:29:51.000Z</time>
      </trkpt>
      <trkpt lat="43.39533" lon="2.23123">
        <ele>720.8</ele>
        <time>2019-08-04T07:29:52.000Z</time>
      </trkpt>
      <trkpt lat="43.3953" lon="2.23122">
        <ele>720.9</ele>
        <time>2019-08-04T07:29:53.000Z</time>
      </trkpt>
      <trkpt lat="43.39528" lon="2.23121">
        <ele>720.9</ele>
        <time>2019-08-04T07:29:54.000Z</time>
      </trkpt>
      <trkpt lat="43.39525" lon="2.2312">
        <ele>721</ele>
        <time>2019-08-04T07:29:55.000Z</time>
      </trkpt>
      <trkpt lat="43.39523" lon="2.23119">
        <ele>721</ele>
        <time>2019-08-04T07:29:56.000Z</time>
      </trkpt>
      <trkpt lat="43.3952" lon="2.23117">
        <ele>721.1</ele>
        <time>2019-08-04T07:29:57.000Z</time>
      </trkpt>
      <trkpt lat="43.39518" lon="2.23116">
        <ele>721.1</ele>
        <time>2019-08-04T07:29:58.000Z</time>
      </trkpt>
      <trkpt lat="43.39515" lon="2.23115">
        <ele>721.2</ele>
        <time>2019-08-04T07:29:59.000Z</time>
      </trkpt>
      <trkpt lat="43.39513" lon="2.23114">
        <ele>721.2</ele>
        <time>2019-08-04T07:30:00.000Z</time>
      </trkpt>
      <trkpt lat="43.3951" lon="2.23112">
        <ele>721.2</ele>
        <time>2019-08-04T07:30:01.000Z</time>
      </trkpt>
      <trkpt lat="43.39508" lon="2.23111">
        <ele>721.3</ele>
        <time>2019-08-04T07:30:02.000Z</time>
      </trkpt>
      <trkpt lat="43.39506" lon="2.2311">
        <ele>721.3</ele>
        <time>2019-08-04T07:30:03.000Z</time>
      </trkpt>
      <trkpt lat="43.39503" lon="2.23108">
        <ele>721.3</ele>
        <time>2019-08-04T07:30:04.000Z</time>
      </trkpt>
      <trkpt lat="43.39501" lon="2.23107">
        <ele>721.4</ele>
        <time>2019-08-04T07:30:05.000Z</time>
      </trkpt>
      <trkpt lat="43.39499" lon="2.23105">
        <ele>721.3</ele>
        <time>2019-08-04T07:30:06.000Z</time>
      </trkpt>
      <trkpt lat="43.39496" lon="2.23103">
        <ele>721.3</ele>
        <time>2019-08-04T07:30:07.000Z</time>
      </trkpt>
      <trkpt lat="43.39494" lon="2.23102">
        <ele>721.3</ele>
        <time>2019-08-04T07:30:08.000Z</time>
      </trkpt>
      <trkpt lat="43.39492" lon="2.231">
        <ele>721.3</ele>
        <time>2019-08-04T07:30:09.000Z</time>
      </trkpt>
      <trkpt lat="43.3949" lon="2.23099">
        <ele>721.3</ele>
        <time>2019-08-04T07:30:10.000Z</time>
      </trkpt>
      <trkpt lat="43.39488" lon="2.23097">
        <ele>721.3</ele>
        <time>2019-08-04T07:30:11.000Z</time>
      </trkpt>
      <trkpt lat="43.39485" lon="2.23095">
        <ele>721.2</ele>
        <time>2019-08-04T07:30:12.000Z</time>
      </trkpt>
      <trkpt lat="43.39483" lon="2.23094">
        <ele>721.2</ele>
        <time>2019-08-04T07:30:13.000Z</time>
      </trkpt>
      <trkpt lat="43.39481" lon="2.23092">
        <ele>721.2</ele>
        <time>2019-08-04T07:30:14.000Z</time>
      </trkpt>
      <trkpt lat="43.39479" lon="2.23091">
        <ele>721.2</ele>
        <time>2019-08-04T07:30:15.000Z</time>
      </trkpt>
      <trkpt lat="43.39476" lon="2.23089">
        <ele>721.2</ele>
        <time>2019-08-04T07:30:16.000Z</time>
      </trkpt>
      <trkpt lat="43.39474" lon="2.23088">
        <ele>721.2</ele>
        <time>2019-08-04T07:30:17.000Z</time>
      </trkpt>
      <trkpt lat="43.39472" lon="2.23087">
        <ele>721.2</ele>
        <time>2019-08-04T07:30:18.000Z</time>
      </trkpt>
      <trkpt lat="43.39469" lon="2.23085">
        <ele>721.2</ele>
        <time>2019-08-04T07:30:19.000Z</time>
      </trkpt>
      <trkpt lat="43.39467" lon="2.23084">
        <ele>721.2</ele>
        <time>2019-08-04T07:30:20.000Z</time>
      </trkpt>
      <trkpt lat="43.39465" lon="2.23083">
        <ele>721.2</ele>
        <time>2019-08-04T07:30:21.000Z</time>
      </trkpt>
      <trkpt lat="43.39462" lon="2.23081">
        <ele>721.3</ele>
        <time>2019-08-04T07:30:22.000Z</time>
      </trkpt>
      <trkpt lat="43.3946" lon="2.2308">
        <ele>721.3</ele>
        <time>2019-08-04T07:30:23.000Z</time>
      </trkpt>
      <trkpt lat="43.39457" lon="2.23079">
        <ele>721.4</ele>
        <time>2019-08-04T07:30:24.000Z</time>
      </trkpt>
      <trkpt lat="43.39455" lon="2.23078">
        <ele>721.4</ele>
        <time>2019-08-04T07:30:25.000Z</time>
      </trkpt>
      <trkpt lat="43.39453" lon="2.23076">
        <ele>721.5</ele>
        <time>2019-08-04T07:30:26.000Z</time>
      </trkpt>
      <trkpt lat="43.3945" lon="2.23075">
        <ele>721.6</ele>
        <time>2019-08-04T07:30:27.000Z</time>
      </trkpt>
      <trkpt lat="43.39448" lon="2.23074">
        <ele>721.6</ele>
        <time>2019-08-04T07:30:28.000Z</time>
      </trkpt>
      <trkpt lat="43.39445" lon="2.23072">
        <ele>721.7</ele>
        <time>2019-08-04T07:30:29.000Z</time>
      </trkpt>
      <trkpt lat="43.39443" lon="2.23071">
        <ele>721.8</ele>
        <time>2019-08-04T07:30:30.000Z</time>
      </trkpt>
      <trkpt lat="43.3944" lon="2.2307">
        <ele>721.9</ele>
        <time>2019-08-04T07:30:31.000Z</time>
      </trkpt>
      <trkpt lat="43.39438" lon="2.23068">
        <ele>722</ele>
        <time>2019-08-04T07:30:32.000Z</time>
      </trkpt>
      <trkpt lat="43.39435" lon="2.23067">
        <ele>722.1</ele>
        <time>2019-08-04T07:30:33.000Z</time>
      </trkpt>
      <trkpt lat="43.39433" lon="2.23065">
        <ele>722.2</ele>
        <time>2019-08-04T07:30:34.000Z</time>
      </trkpt>
      <trkpt lat="43.3943" lon="2.23063">
        <ele>722.3</ele>
        <time>2019-08-04T07:30:35.000Z</time>
      </trkpt>
      <trkpt lat="43.39428" lon="2.23062">
        <ele>722.4</ele>
        <time>2019-08-04T07:30:36.000Z</time>
      </trkpt>
      <trkpt lat="43.39426" lon="2.2306">
        <ele>722.5</ele>
        <time>2019-08-04T07:30:37.000Z</time>
      </trkpt>
      <trkpt lat="43.39423" lon="2.23058">
        <ele>722.6</ele>
        <time>2019-08-04T07:30:38.000Z</time>
      </trkpt>
      <trkpt lat="43.39421" lon="2.23056">
        <ele>722.7</ele>
        <time>2019-08-04T07:30:39.000Z</time>
      </trkpt>
      <trkpt lat="43.39419" lon="2.23055">
        <ele>722.9</ele>
        <time>2019-08-04T07:30:40.000Z</time>
      </trkpt>
      <trkpt lat="43.39417" lon="2.23053">
        <ele>723</ele>
        <time>2019-08-04T07:30:41.000Z</time>
      </trkpt>
      <trkpt lat="43.39415" lon="2.23051">
        <ele>723.2</ele>
        <time>2019-08-04T07:30:42.000Z</time>
      </trkpt>
      <trkpt lat="43.39413" lon="2.23049">
        <ele>723.3</ele>
        <time>2019-08-04T07:30:43.000Z</time>
      </trkpt>
      <trkpt lat="43.39411" lon="2.23047">
        <ele>723.5</ele>
        <time>2019-08-04T07:30:44.000Z</time>
      </trkpt>
      <trkpt lat="43.39409" lon="2.23045">
        <ele>723.6</ele>
        <time>2019-08-04T07:30:45.000Z</time>
      </trkpt>
      <trkpt lat="43.39407" lon="2.23042">
        <ele>723.8</ele>
        <time>2019-08-04T07:30:46.000Z</time>
      </trkpt>
      <trkpt lat="43.39405" lon="2.2304">
        <ele>723.9</ele>
        <time>2019-08-04T07:30:47.000Z</time>
      </trkpt>
      <trkpt lat="43.39404" lon="2.23038">
        <ele>724</ele>
        <time>2019-08-04T07:30:48.000Z</time>
      </trkpt>
      <trkpt lat="43.39402" lon="2.23036">
        <ele>724.1</ele>
        <time>2019-08-04T07:30:49.000Z</time>
      </trkpt>
      <trkpt lat="43.394" lon="2.23034">
        <ele>724.2</ele>
        <time>2019-08-04T07:30:50.000Z</time>
      </trkpt>
      <trkpt lat="43.39399" lon="2.23031">
        <ele>724.3</ele>
        <time>2019-08-04T07:30:51.000Z</time>
      </trkpt>
      <trkpt lat="43.39397" lon="2.23029">
        <ele>724.4</ele>
        <time>2019-08-04T07:30:52.000Z</time>
      </trkpt>
      <trkpt lat="43.39395" lon="2.23027">
        <ele>724.5</ele>
        <time>2019-08-04T07:30:53.000Z</time>
      </trkpt>
      <trkpt lat="43.39393" lon="2.23025">
        <ele>724.7</ele>
        <time>2019-08-04T07:30:54.000Z</time>
      </trkpt>
      <trkpt lat="43.39391" lon="2.23023">
        <ele>724.8</ele>
        <time>2019-08-04T07:30:55.000Z</time>
      </trkpt>
      <trkpt lat="43.39389" lon="2.23021">
        <ele>724.9</ele>
        <time>2019-08-04T07:30:56.000Z</time>
      </trkpt>
      <trkpt lat="43.39387" lon="2.23019">
        <ele>725</ele>
        <time>2019-08-04T07:30:57.000Z</time>
      </trkpt>
      <trkpt lat="43.39385" lon="2.23017">
        <ele>725.1</ele>
        <time>2019-08-04T07:30:58.000Z</time>
      </trkpt>
      <trkpt lat="43.39383" lon="2.23015">
        <ele>725.2</ele>
        <time>2019-08-04T07:30:59.000Z</time>
      </trkpt>
      <trkpt lat="43.39381" lon="2.23013">
        <ele>725.4</ele>
        <time>2019-08-04T07:31:00.000Z</time>
      </trkpt>
      <trkpt lat="43.39379" lon="2.23011">
        <ele>725.5</ele>
        <time>2019-08-04T07:31:01.000Z</time>
      </trkpt>
      <trkpt lat="43.39377" lon="2.23009">
        <ele>725.6</ele>
        <time>2019-08-04T07:31:02.000Z</time>
      </trkpt>
      <trkpt lat="43.39375" lon="2.23007">
        <ele>725.6</ele>
        <time>2019-08-04T07:31:03.000Z</time>
      </trkpt>
      <trkpt lat="43.39373" lon="2.23005">
        <ele>725.7</ele>
        <time>2019-08-04T07:31:04.000Z</time>
      </trkpt>
      <trkpt lat="43.39371" lon="2.23003">
        <ele>725.8</ele>
        <time>2019-08-04T07:31:05.000Z</time>
      </trkpt>
      <trkpt lat="43.39369" lon="2.23">
        <ele>725.9</ele>
        <time>2019-08-04T07:31:06.000Z</time>
      </trkpt>
      <trkpt lat="43.39367" lon="2.22998">
        <ele>725.9</ele>
        <time>2019-08-04T07:31:07.000Z</time>
      </trkpt>
      <trkpt lat="43.39365" lon="2.22996">
        <ele>725.9</ele>
        <time>2019-08-04T07:31:08.000Z</time>
      </trkpt>
      <trkpt lat="43.39363" lon="2.22994">
        <ele>726</ele>
        <time>2019-08-04T07:31:09.000Z</time>
      </trkpt>
      <trkpt lat="43.39361" lon="2.22992">
        <ele>726</ele>
        <time>2019-08-04T07:31:10.000Z</time>
      </trkpt>
      <trkpt lat="43.3936" lon="2.22989">
        <ele>726</ele>
        <time>2019-08-04T07:31:11.000Z</time>
      </trkpt>
      <trkpt lat="43.39358" lon="2.22987">
        <ele>726.1</ele>
        <time>2019-08-04T07:31:12.000Z</time>
      </trkpt>
      <trkpt lat="43.39356" lon="2.22985">
        <ele>726.1</ele>
        <time>2019-08-04T07:31:13.000Z</time>
      </trkpt>
      <trkpt lat="43.39354" lon="2.22983">
        <ele>726.1</ele>
        <time>2019-08-04T07:31:14.000Z</time>
      </trkpt>
      <trkpt lat="43.39352" lon="2.2298">
        <ele>726.2</ele>
        <time>2019-08-04T07:31:15.000Z</time>
      </trkpt>
      <trkpt lat="43.3935" lon="2.22978">
        <ele>726.2</ele>
        <time>2019-08-04T07:31:16.000Z</time>
      </trkpt>
      <trkpt lat="43.39348" lon="2.22976">
        <ele>726.3</ele>
        <time>2019-08-04T07:31:17.000Z</time>
      </trkpt>
      <trkpt lat="43.39346" lon="2.22974">
        <ele>726.3</ele>
        <time>2019-08-04T07:31:18.000Z</time>
      </trkpt>
      <trkpt lat="43.39344" lon="2.22971">
        <ele>726.3</ele>
        <time>2019-08-04T07:31:19.000Z</time>
      </trkpt>
      <trkpt lat="43.39342" lon="2.22969">
        <ele>726.4</ele>
        <time>2019-08-04T07:31:20.000Z</time>
      </trkpt>
      <trkpt lat="43.3934" lon="2.22967">
        <ele>726.4</ele>
        <time>2019-08-04T07:31:21.000Z</time>
      </trkpt>
      <trkpt lat="43.39338" lon="2.22965">
        <ele>726.5</ele>
        <time>2019-08-04T07:31:22.000Z</time>
      </trkpt>
      <trkpt lat="43.39336" lon="2.22962">
        <ele>726.5</ele>
        <time>2019-08-04T07:31:23.000Z</time>
      </trkpt>
      <trkpt lat="43.39334" lon="2.2296">
        <ele>726.5</ele>
        <time>2019-08-04T07:31:24.000Z</time>
      </trkpt>
      <trkpt lat="43.39332" lon="2.22958">
        <ele>726.6</ele>
        <time>2019-08-04T07:31:25.000Z</time>
      </trkpt>
      <trkpt lat="43.3933" lon="2.22956">
        <ele>726.7</ele>
        <time>2019-08-04T07:31:26.000Z</time>
      </trkpt>
      <trkpt lat="43.39328" lon="2.22953">
        <ele>726.7</ele>
        <time>2019-08-04T07:31:27.000Z</time>
      </trkpt>
      <trkpt lat="43.39326" lon="2.22951">
        <ele>726.8</ele>
        <time>2019-08-04T07:31:28.000Z</time>
      </trkpt>
      <trkpt lat="43.39324" lon="2.22949">
        <ele>726.8</ele>
        <time>2019-08-04T07:31:29.000Z</time>
      </trkpt>
      <trkpt lat="43.39322" lon="2.22946">
        <ele>726.9</ele>
        <time>2019-08-04T07:31:30.000Z</time>
      </trkpt>
      <trkpt lat="43.3932" lon="2.22944">
        <ele>726.9</ele>
        <time>2019-08-04T07:31:31.000Z</time>
      </trkpt>
      <trkpt lat="43.39318" lon="2.22941">
        <ele>727</ele>
        <time>2019-08-04T07:31:32.000Z</time>
      </trkpt>
      <trkpt lat="43.39316" lon="2.22939">
        <ele>727.1</ele>
        <time>2019-08-04T07:31:33.000Z</time>
      </trkpt>
      <trkpt lat="43.39314" lon="2.22936">
        <ele>727.1</ele>
        <time>2019-08-04T07:31:34.000Z</time>
      </trkpt>
      <trkpt lat="43.39312" lon="2.22934">
        <ele>727.2</ele>
        <time>2019-08-04T07:31:35.000Z</time>
      </trkpt>
      <trkpt lat="43.3931" lon="2.22932">
        <ele>727.2</ele>
        <time>2019-08-04T07:31:36.000Z</time>
      </trkpt>
      <trkpt lat="43.39308" lon="2.2293">
        <ele>727.3</ele>
        <time>2019-08-04T07:31:37.000Z</time>
      </trkpt>
      <trkpt lat="43.39306" lon="2.22928">
        <ele>727.4</ele>
        <time>2019-08-04T07:31:38.000Z</time>
      </trkpt>
      <trkpt lat="43.39304" lon="2.22926">
        <ele>727.5</ele>
        <time>2019-08-04T07:31:39.000Z</time>
      </trkpt>
      <trkpt lat="43.39301" lon="2.22924">
        <ele>727.6</ele>
        <time>2019-08-04T07:31:40.000Z</time>
      </trkpt>
      <trkpt lat="43.39299" lon="2.22922">
        <ele>727.7</ele>
        <time>2019-08-04T07:31:41.000Z</time>
      </trkpt>
      <trkpt lat="43.39297" lon="2.22921">
        <ele>727.8</ele>
        <time>2019-08-04T07:31:42.000Z</time>
      </trkpt>
      <trkpt lat="43.39295" lon="2.22919">
        <ele>727.9</ele>
        <time>2019-08-04T07:31:43.000Z</time>
      </trkpt>
      <trkpt lat="43.39293" lon="2.22918">
        <ele>728</ele>
        <time>2019-08-04T07:31:44.000Z</time>
      </trkpt>
      <trkpt lat="43.3929" lon="2.22916">
        <ele>728.1</ele>
        <time>2019-08-04T07:31:45.000Z</time>
      </trkpt>
      <trkpt lat="43.39288" lon="2.22915">
        <ele>728.2</ele>
        <time>2019-08-04T07:31:46.000Z</time>
      </trkpt>
      <trkpt lat="43.39286" lon="2.22913">
        <ele>728.3</ele>
        <time>2019-08-04T07:31:47.000Z</time>
      </trkpt>
      <trkpt lat="43.39284" lon="2.22912">
        <ele>728.5</ele>
        <time>2019-08-04T07:31:48.000Z</time>
      </trkpt>
      <trkpt lat="43.39281" lon="2.2291">
        <ele>728.6</ele>
        <time>2019-08-04T07:31:49.000Z</time>
      </trkpt>
      <trkpt lat="43.39279" lon="2.22909">
        <ele>728.8</ele>
        <time>2019-08-04T07:31:50.000Z</time>
      </trkpt>
      <trkpt lat="43.39277" lon="2.22907">
        <ele>728.9</ele>
        <time>2019-08-04T07:31:51.000Z</time>
      </trkpt>
      <trkpt lat="43.39274" lon="2.22906">
        <ele>729.1</ele>
        <time>2019-08-04T07:31:52.000Z</time>
      </trkpt>
      <trkpt lat="43.39272" lon="2.22905">
        <ele>729.3</ele>
        <time>2019-08-04T07:31:53.000Z</time>
      </trkpt>
      <trkpt lat="43.3927" lon="2.22903">
        <ele>729.4</ele>
        <time>2019-08-04T07:31:54.000Z</time>
      </trkpt>
      <trkpt lat="43.39267" lon="2.22902">
        <ele>729.6</ele>
        <time>2019-08-04T07:31:55.000Z</time>
      </trkpt>
      <trkpt lat="43.39265" lon="2.22901">
        <ele>729.8</ele>
        <time>2019-08-04T07:31:56.000Z</time>
      </trkpt>
      <trkpt lat="43.39263" lon="2.229">
        <ele>730</ele>
        <time>2019-08-04T07:31:57.000Z</time>
      </trkpt>
      <trkpt lat="43.3926" lon="2.22899">
        <ele>730.2</ele>
        <time>2019-08-04T07:31:58.000Z</time>
      </trkpt>
      <trkpt lat="43.39258" lon="2.22898">
        <ele>730.4</ele>
        <time>2019-08-04T07:31:59.000Z</time>
      </trkpt>
      <trkpt lat="43.39255" lon="2.22897">
        <ele>730.6</ele>
        <time>2019-08-04T07:32:00.000Z</time>
      </trkpt>
      <trkpt lat="43.39253" lon="2.22896">
        <ele>730.8</ele>
        <time>2019-08-04T07:32:01.000Z</time>
      </trkpt>
      <trkpt lat="43.3925" lon="2.22895">
        <ele>731</ele>
        <time>2019-08-04T07:32:02.000Z</time>
      </trkpt>
      <trkpt lat="43.39248" lon="2.22894">
        <ele>731.1</ele>
        <time>2019-08-04T07:32:03.000Z</time>
      </trkpt>
      <trkpt lat="43.39245" lon="2.22893">
        <ele>731.2</ele>
        <time>2019-08-04T07:32:04.000Z</time>
      </trkpt>
      <trkpt lat="43.39243" lon="2.22892">
        <ele>731.2</ele>
        <time>2019-08-04T07:32:05.000Z</time>
      </trkpt>
      <trkpt lat="43.3924" lon="2.22892">
        <ele>731.3</ele>
        <time>2019-08-04T07:32:06.000Z</time>
      </trkpt>
      <trkpt lat="43.39238" lon="2.22891">
        <ele>731.4</ele>
        <time>2019-08-04T07:32:07.000Z</time>
      </trkpt>
      <trkpt lat="43.39235" lon="2.2289">
        <ele>731.5</ele>
        <time>2019-08-04T07:32:08.000Z</time>
      </trkpt>
      <trkpt lat="43.39233" lon="2.22889">
        <ele>731.6</ele>
        <time>2019-08-04T07:32:09.000Z</time>
      </trkpt>
      <trkpt lat="43.3923" lon="2.22889">
        <ele>731.6</ele>
        <time>2019-08-04T07:32:10.000Z</time>
      </trkpt>
      <trkpt lat="43.39228" lon="2.22888">
        <ele>731.7</ele>
        <time>2019-08-04T07:32:11.000Z</time>
      </trkpt>
      <trkpt lat="43.39225" lon="2.22887">
        <ele>731.8</ele>
        <time>2019-08-04T07:32:12.000Z</time>
      </trkpt>
      <trkpt lat="43.39223" lon="2.22886">
        <ele>731.9</ele>
        <time>2019-08-04T07:32:13.000Z</time>
      </trkpt>
      <trkpt lat="43.39221" lon="2.22885">
        <ele>731.9</ele>
        <time>2019-08-04T07:32:14.000Z</time>
      </trkpt>
      <trkpt lat="43.39218" lon="2.22884">
        <ele>732</ele>
        <time>2019-08-04T07:32:15.000Z</time>
      </trkpt>
      <trkpt lat="43.39216" lon="2.22883">
        <ele>732.1</ele>
        <time>2019-08-04T07:32:16.000Z</time>
      </trkpt>
      <trkpt lat="43.39213" lon="2.22882">
        <ele>732.1</ele>
        <time>2019-08-04T07:32:17.000Z</time>
      </trkpt>
      <trkpt lat="43.39211" lon="2.22881">
        <ele>732.2</ele>
        <time>2019-08-04T07:32:18.000Z</time>
      </trkpt>
      <trkpt lat="43.39209" lon="2.2288">
        <ele>732.3</ele>
        <time>2019-08-04T07:32:19.000Z</time>
      </trkpt>
      <trkpt lat="43.39206" lon="2.22879">
        <ele>732.3</ele>
        <time>2019-08-04T07:32:20.000Z</time>
      </trkpt>
      <trkpt lat="43.39204" lon="2.22878">
        <ele>732.4</ele>
        <time>2019-08-04T07:32:21.000Z</time>
      </trkpt>
      <trkpt lat="43.39202" lon="2.22877">
        <ele>732.5</ele>
        <time>2019-08-04T07:32:22.000Z</time>
      </trkpt>
      <trkpt lat="43.39199" lon="2.22876">
        <ele>732.5</ele>
        <time>2019-08-04T07:32:23.000Z</time>
      </trkpt>
      <trkpt lat="43.39197" lon="2.22876">
        <ele>732.6</ele>
        <time>2019-08-04T07:32:24.000Z</time>
      </trkpt>
      <trkpt lat="43.39194" lon="2.22875">
        <ele>732.7</ele>
        <time>2019-08-04T07:32:25.000Z</time>
      </trkpt>
      <trkpt lat="43.39192" lon="2.22874">
        <ele>732.7</ele>
        <time>2019-08-04T07:32:26.000Z</time>
      </trkpt>
      <trkpt lat="43.39189" lon="2.22873">
        <ele>732.8</ele>
        <time>2019-08-04T07:32:27.000Z</time>
      </trkpt>
      <trkpt lat="43.39187" lon="2.22873">
        <ele>732.9</ele>
        <time>2019-08-04T07:32:28.000Z</time>
      </trkpt>
      <trkpt lat="43.39184" lon="2.22872">
        <ele>732.9</ele>
        <time>2019-08-04T07:32:29.000Z</time>
      </trkpt>
      <trkpt lat="43.39182" lon="2.22871">
        <ele>733</ele>
        <time>2019-08-04T07:32:30.000Z</time>
      </trkpt>
      <trkpt lat="43.39179" lon="2.22871">
        <ele>733.1</ele>
        <time>2019-08-04T07:32:31.000Z</time>
      </trkpt>
      <trkpt lat="43.39176" lon="2.2287">
        <ele>733.2</ele>
        <time>2019-08-04T07:32:32.000Z</time>
      </trkpt>
      <trkpt lat="43.39173" lon="2.22869">
        <ele>733.2</ele>
        <time>2019-08-04T07:32:33.000Z</time>
      </trkpt>
      <trkpt lat="43.39171" lon="2.22868">
        <ele>733.3</ele>
        <time>2019-08-04T07:32:34.000Z</time>
      </trkpt>
      <trkpt lat="43.39168" lon="2.22868">
        <ele>733.4</ele>
        <time>2019-08-04T07:32:35.000Z</time>
      </trkpt>
      <trkpt lat="43.39165" lon="2.22867">
        <ele>733.3</ele>
        <time>2019-08-04T07:32:36.000Z</time>
      </trkpt>
      <trkpt lat="43.39162" lon="2.22866">
        <ele>733.2</ele>
        <time>2019-08-04T07:32:37.000Z</time>
      </trkpt>
      <trkpt lat="43.39159" lon="2.22865">
        <ele>733</ele>
        <time>2019-08-04T07:32:38.000Z</time>
      </trkpt>
      <trkpt lat="43.39156" lon="2.22864">
        <ele>732.9</ele>
        <time>2019-08-04T07:32:39.000Z</time>
      </trkpt>
      <trkpt lat="43.39153" lon="2.22863">
        <ele>732.7</ele>
        <time>2019-08-04T07:32:40.000Z</time>
      </trkpt>
      <trkpt lat="43.3915" lon="2.22863">
        <ele>732.6</ele>
        <time>2019-08-04T07:32:41.000Z</time>
      </trkpt>
      <trkpt lat="43.39147" lon="2.22862">
        <ele>732.4</ele>
        <time>2019-08-04T07:32:42.000Z</time>
      </trkpt>
      <trkpt lat="43.39144" lon="2.22861">
        <ele>732.3</ele>
        <time>2019-08-04T07:32:43.000Z</time>
      </trkpt>
      <trkpt lat="43.39141" lon="2.2286">
        <ele>732.1</ele>
        <time>2019-08-04T07:32:44.000Z</time>
      </trkpt>
      <trkpt lat="43.39138" lon="2.22859">
        <ele>731.9</ele>
        <time>2019-08-04T07:32:45.000Z</time>
      </trkpt>
      <trkpt lat="43.39135" lon="2.22858">
        <ele>731.7</ele>
        <time>2019-08-04T07:32:46.000Z</time>
      </trkpt>
      <trkpt lat="43.39133" lon="2.22856">
        <ele>731.5</ele>
        <time>2019-08-04T07:32:47.000Z</time>
      </trkpt>
      <trkpt lat="43.3913" lon="2.22855">
        <ele>731.3</ele>
        <time>2019-08-04T07:32:48.000Z</time>
      </trkpt>
      <trkpt lat="43.39127" lon="2.22853">
        <ele>731.1</ele>
        <time>2019-08-04T07:32:49.000Z</time>
      </trkpt>
      <trkpt lat="43.39125" lon="2.22852">
        <ele>730.9</ele>
        <time>2019-08-04T07:32:50.000Z</time>
      </trkpt>
      <trkpt lat="43.39123" lon="2.2285">
        <ele>730.7</ele>
        <time>2019-08-04T07:32:51.000Z</time>
      </trkpt>
      <trkpt lat="43.39121" lon="2.22849">
        <ele>730.5</ele>
        <time>2019-08-04T07:32:52.000Z</time>
      </trkpt>
      <trkpt lat="43.39119" lon="2.22848">
        <ele>730.3</ele>
        <time>2019-08-04T07:32:53.000Z</time>
      </trkpt>
      <trkpt lat="43.39116" lon="2.22847">
        <ele>730.1</ele>
        <time>2019-08-04T07:32:54.000Z</time>
      </trkpt>
      <trkpt lat="43.39114" lon="2.22846">
        <ele>729.9</ele>
        <time>2019-08-04T07:32:55.000Z</time>
      </trkpt>
      <trkpt lat="43.39111" lon="2.22845">
        <ele>729.7</ele>
        <time>2019-08-04T07:32:56.000Z</time>
      </trkpt>
      <trkpt lat="43.39108" lon="2.22844">
        <ele>729.4</ele>
        <time>2019-08-04T07:32:57.000Z</time>
      </trkpt>
      <trkpt lat="43.39105" lon="2.22844">
        <ele>729.2</ele>
        <time>2019-08-04T07:32:58.000Z</time>
      </trkpt>
      <trkpt lat="43.39101" lon="2.22843">
        <ele>728.9</ele>
        <time>2019-08-04T07:32:59.000Z</time>
      </trkpt>
      <trkpt lat="43.39098" lon="2.22842">
        <ele>728.7</ele>
        <time>2019-08-04T07:33:00.000Z</time>
      </trkpt>
      <trkpt lat="43.39095" lon="2.22841">
        <ele>728.4</ele>
        <time>2019-08-04T07:33:01.000Z</time>
      </trkpt>
      <trkpt lat="43.39093" lon="2.2284">
        <ele>728.2</ele>
        <time>2019-08-04T07:33:02.000Z</time>
      </trkpt>
      <trkpt lat="43.3909" lon="2.22839">
        <ele>727.9</ele>
        <time>2019-08-04T07:33:03.000Z</time>
      </trkpt>
      <trkpt lat="43.39087" lon="2.22838">
        <ele>727.7</ele>
        <time>2019-08-04T07:33:04.000Z</time>
      </trkpt>
      <trkpt lat="43.39084" lon="2.22837">
        <ele>727.4</ele>
        <time>2019-08-04T07:33:05.000Z</time>
      </trkpt>
      <trkpt lat="43.39082" lon="2.22836">
        <ele>727.2</ele>
        <time>2019-08-04T07:33:06.000Z</time>
      </trkpt>
      <trkpt lat="43.39079" lon="2.22834">
        <ele>727</ele>
        <time>2019-08-04T07:33:07.000Z</time>
      </trkpt>
      <trkpt lat="43.39077" lon="2.22833">
        <ele>726.8</ele>
        <time>2019-08-04T07:33:08.000Z</time>
      </trkpt>
      <trkpt lat="43.39074" lon="2.22832">
        <ele>726.7</ele>
        <time>2019-08-04T07:33:09.000Z</time>
      </trkpt>
      <trkpt lat="43.39072" lon="2.2283">
        <ele>726.6</ele>
        <time>2019-08-04T07:33:10.000Z</time>
      </trkpt>
      <trkpt lat="43.39069" lon="2.22829">
        <ele>726.5</ele>
        <time>2019-08-04T07:33:11.000Z</time>
      </trkpt>
      <trkpt lat="43.39066" lon="2.22827">
        <ele>726.3</ele>
        <time>2019-08-04T07:33:12.000Z</time>
      </trkpt>
      <trkpt lat="43.39064" lon="2.22826">
        <ele>726.2</ele>
        <time>2019-08-04T07:33:13.000Z</time>
      </trkpt>
      <trkpt lat="43.39061" lon="2.22824">
        <ele>726.2</ele>
        <time>2019-08-04T07:33:14.000Z</time>
      </trkpt>
      <trkpt lat="43.39059" lon="2.22823">
        <ele>726.1</ele>
        <time>2019-08-04T07:33:15.000Z</time>
      </trkpt>
      <trkpt lat="43.39056" lon="2.22822">
        <ele>726</ele>
        <time>2019-08-04T07:33:16.000Z</time>
      </trkpt>
      <trkpt lat="43.39053" lon="2.2282">
        <ele>726</ele>
        <time>2019-08-04T07:33:17.000Z</time>
      </trkpt>
      <trkpt lat="43.39051" lon="2.22819">
        <ele>725.9</ele>
        <time>2019-08-04T07:33:18.000Z</time>
      </trkpt>
      <trkpt lat="43.39048" lon="2.22818">
        <ele>725.9</ele>
        <time>2019-08-04T07:33:19.000Z</time>
      </trkpt>
      <trkpt lat="43.39045" lon="2.22817">
        <ele>725.8</ele>
        <time>2019-08-04T07:33:20.000Z</time>
      </trkpt>
      <trkpt lat="43.39043" lon="2.22815">
        <ele>725.8</ele>
        <time>2019-08-04T07:33:21.000Z</time>
      </trkpt>
      <trkpt lat="43.3904" lon="2.22814">
        <ele>725.8</ele>
        <time>2019-08-04T07:33:22.000Z</time>
      </trkpt>
      <trkpt lat="43.39037" lon="2.22813">
        <ele>725.8</ele>
        <time>2019-08-04T07:33:23.000Z</time>
      </trkpt>
      <trkpt lat="43.39035" lon="2.22812">
        <ele>725.7</ele>
        <time>2019-08-04T07:33:24.000Z</time>
      </trkpt>
      <trkpt lat="43.39032" lon="2.22811">
        <ele>725.7</ele>
        <time>2019-08-04T07:33:25.000Z</time>
      </trkpt>
      <trkpt lat="43.39029" lon="2.2281">
        <ele>725.8</ele>
        <time>2019-08-04T07:33:26.000Z</time>
      </trkpt>
      <trkpt lat="43.39027" lon="2.22809">
        <ele>725.8</ele>
        <time>2019-08-04T07:33:27.000Z</time>
      </trkpt>
      <trkpt lat="43.39024" lon="2.22808">
        <ele>725.8</ele>
        <time>2019-08-04T07:33:28.000Z</time>
      </trkpt>
      <trkpt lat="43.39021" lon="2.22807">
        <ele>725.8</ele>
        <time>2019-08-04T07:33:29.000Z</time>
      </trkpt>
      <trkpt lat="43.39019" lon="2.22806">
        <ele>725.9</ele>
        <time>2019-08-04T07:33:30.000Z</time>
      </trkpt>
      <trkpt lat="43.39016" lon="2.22805">
        <ele>725.9</ele>
        <time>2019-08-04T07:33:31.000Z</time>
      </trkpt>
      <trkpt lat="43.39014" lon="2.22804">
        <ele>725.9</ele>
        <time>2019-08-04T07:33:32.000Z</time>
      </trkpt>
      <trkpt lat="43.39011" lon="2.22802">
        <ele>726</ele>
        <time>2019-08-04T07:33:33.000Z</time>
      </trkpt>
      <trkpt lat="43.39008" lon="2.22801">
        <ele>726</ele>
        <time>2019-08-04T07:33:34.000Z</time>
      </trkpt>
      <trkpt lat="43.39006" lon="2.228">
        <ele>726.1</ele>
        <time>2019-08-04T07:33:35.000Z</time>
      </trkpt>
      <trkpt lat="43.39003" lon="2.22799">
        <ele>726.2</ele>
        <time>2019-08-04T07:33:36.000Z</time>
      </trkpt>
      <trkpt lat="43.39001" lon="2.22798">
        <ele>726.2</ele>
        <time>2019-08-04T07:33:37.000Z</time>
      </trkpt>
      <trkpt lat="43.38998" lon="2.22797">
        <ele>726.3</ele>
        <time>2019-08-04T07:33:38.000Z</time>
      </trkpt>
      <trkpt lat="43.38996" lon="2.22796">
        <ele>726.3</ele>
        <time>2019-08-04T07:33:39.000Z</time>
      </trkpt>
      <trkpt lat="43.38993" lon="2.22795">
        <ele>726.3</ele>
        <time>2019-08-04T07:33:40.000Z</time>
      </trkpt>
      <trkpt lat="43.38991" lon="2.22794">
        <ele>726.3</ele>
        <time>2019-08-04T07:33:41.000Z</time>
      </trkpt>
      <trkpt lat="43.38988" lon="2.22793">
        <ele>726.3</ele>
        <time>2019-08-04T07:33:42.000Z</time>
      </trkpt>
      <trkpt lat="43.38986" lon="2.22791">
        <ele>726.3</ele>
        <time>2019-08-04T07:33:43.000Z</time>
      </trkpt>
      <trkpt lat="43.38983" lon="2.2279">
        <ele>726.3</ele>
        <time>2019-08-04T07:33:44.000Z</time>
      </trkpt>
      <trkpt lat="43.38981" lon="2.22789">
        <ele>726.2</ele>
        <time>2019-08-04T07:33:45.000Z</time>
      </trkpt>
      <trkpt lat="43.38979" lon="2.22788">
        <ele>726.2</ele>
        <time>2019-08-04T07:33:46.000Z</time>
      </trkpt>
      <trkpt lat="43.38976" lon="2.22787">
        <ele>726.2</ele>
        <time>2019-08-04T07:33:47.000Z</time>
      </trkpt>
      <trkpt lat="43.38974" lon="2.22785">
        <ele>726.2</ele>
        <time>2019-08-04T07:33:48.000Z</time>
      </trkpt>
      <trkpt lat="43.38971" lon="2.22785">
        <ele>726.2</ele>
        <time>2019-08-04T07:33:49.000Z</time>
      </trkpt>
      <trkpt lat="43.38969" lon="2.22784">
        <ele>726.2</ele>
        <time>2019-08-04T07:33:50.000Z</time>
      </trkpt>
      <trkpt lat="43.38966" lon="2.22783">
        <ele>726.1</ele>
        <time>2019-08-04T07:33:51.000Z</time>
      </trkpt>
      <trkpt lat="43.38964" lon="2.22783">
        <ele>726.1</ele>
        <time>2019-08-04T07:33:52.000Z</time>
      </trkpt>
      <trkpt lat="43.38961" lon="2.22783">
        <ele>726.1</ele>
        <time>2019-08-04T07:33:53.000Z</time>
      </trkpt>
      <trkpt lat="43.38958" lon="2.22783">
        <ele>726</ele>
        <time>2019-08-04T07:33:54.000Z</time>
      </trkpt>
      <trkpt lat="43.38956" lon="2.22783">
        <ele>726</ele>
        <time>2019-08-04T07:33:55.000Z</time>
      </trkpt>
      <trkpt lat="43.38953" lon="2.22782">
        <ele>725.9</ele>
        <time>2019-08-04T07:33:56.000Z</time>
      </trkpt>
      <trkpt lat="43.3895" lon="2.22781">
        <ele>725.9</ele>
        <time>2019-08-04T07:33:57.000Z</time>
      </trkpt>
      <trkpt lat="43.38947" lon="2.2278">
        <ele>725.9</ele>
        <time>2019-08-04T07:33:58.000Z</time>
      </trkpt>
      <trkpt lat="43.38945" lon="2.2278">
        <ele>725.8</ele>
        <time>2019-08-04T07:33:59.000Z</time>
      </trkpt>
      <trkpt lat="43.38942" lon="2.22779">
        <ele>725.8</ele>
        <time>2019-08-04T07:34:00.000Z</time>
      </trkpt>
      <trkpt lat="43.3894" lon="2.22779">
        <ele>725.8</ele>
        <time>2019-08-04T07:34:01.000Z</time>
      </trkpt>
      <trkpt lat="43.38937" lon="2.22778">
        <ele>725.7</ele>
        <time>2019-08-04T07:34:02.000Z</time>
      </trkpt>
      <trkpt lat="43.38935" lon="2.22778">
        <ele>725.7</ele>
        <time>2019-08-04T07:34:03.000Z</time>
      </trkpt>
      <trkpt lat="43.38932" lon="2.22778">
        <ele>725.6</ele>
        <time>2019-08-04T07:34:04.000Z</time>
      </trkpt>
      <trkpt lat="43.38929" lon="2.22778">
        <ele>725.6</ele>
        <time>2019-08-04T07:34:05.000Z</time>
      </trkpt>
      <trkpt lat="43.38926" lon="2.22778">
        <ele>725.5</ele>
        <time>2019-08-04T07:34:06.000Z</time>
      </trkpt>
      <trkpt lat="43.38923" lon="2.22779">
        <ele>725.4</ele>
        <time>2019-08-04T07:34:07.000Z</time>
      </trkpt>
      <trkpt lat="43.3892" lon="2.22779">
        <ele>725.4</ele>
        <time>2019-08-04T07:34:08.000Z</time>
      </trkpt>
      <trkpt lat="43.38918" lon="2.2278">
        <ele>725.3</ele>
        <time>2019-08-04T07:34:09.000Z</time>
      </trkpt>
      <trkpt lat="43.38915" lon="2.2278">
        <ele>725.2</ele>
        <time>2019-08-04T07:34:10.000Z</time>
      </trkpt>
      <trkpt lat="43.38912" lon="2.22781">
        <ele>725</ele>
        <time>2019-08-04T07:34:11.000Z</time>
      </trkpt>
      <trkpt lat="43.38909" lon="2.22781">
        <ele>724.8</ele>
        <time>2019-08-04T07:34:12.000Z</time>
      </trkpt>
      <trkpt lat="43.38906" lon="2.22781">
        <ele>724.7</ele>
        <time>2019-08-04T07:34:13.000Z</time>
      </trkpt>
      <trkpt lat="43.38903" lon="2.22781">
        <ele>724.5</ele>
        <time>2019-08-04T07:34:14.000Z</time>
      </trkpt>
      <trkpt lat="43.38901" lon="2.22781">
        <ele>724.4</ele>
        <time>2019-08-04T07:34:15.000Z</time>
      </trkpt>
      <trkpt lat="43.38898" lon="2.22781">
        <ele>724.2</ele>
        <time>2019-08-04T07:34:16.000Z</time>
      </trkpt>
      <trkpt lat="43.38895" lon="2.22782">
        <ele>724</ele>
        <time>2019-08-04T07:34:17.000Z</time>
      </trkpt>
      <trkpt lat="43.38892" lon="2.22782">
        <ele>723.9</ele>
        <time>2019-08-04T07:34:18.000Z</time>
      </trkpt>
      <trkpt lat="43.38889" lon="2.22782">
        <ele>723.7</ele>
        <time>2019-08-04T07:34:19.000Z</time>
      </trkpt>
      <trkpt lat="43.38886" lon="2.22783">
        <ele>723.5</ele>
        <time>2019-08-04T07:34:20.000Z</time>
      </trkpt>
      <trkpt lat="43.38883" lon="2.22784">
        <ele>723.3</ele>
        <time>2019-08-04T07:34:21.000Z</time>
      </trkpt>
      <trkpt lat="43.3888" lon="2.22784">
        <ele>723.1</ele>
        <time>2019-08-04T07:34:22.000Z</time>
      </trkpt>
      <trkpt lat="43.38876" lon="2.22785">
        <ele>722.9</ele>
        <time>2019-08-04T07:34:23.000Z</time>
      </trkpt>
      <trkpt lat="43.38873" lon="2.22786">
        <ele>722.7</ele>
        <time>2019-08-04T07:34:24.000Z</time>
      </trkpt>
      <trkpt lat="43.3887" lon="2.22787">
        <ele>722.4</ele>
        <time>2019-08-04T07:34:25.000Z</time>
      </trkpt>
      <trkpt lat="43.38867" lon="2.22788">
        <ele>722.2</ele>
        <time>2019-08-04T07:34:26.000Z</time>
      </trkpt>
      <trkpt lat="43.38864" lon="2.22789">
        <ele>722</ele>
        <time>2019-08-04T07:34:27.000Z</time>
      </trkpt>
      <trkpt lat="43.38861" lon="2.2279">
        <ele>721.8</ele>
        <time>2019-08-04T07:34:28.000Z</time>
      </trkpt>
      <trkpt lat="43.38858" lon="2.2279">
        <ele>721.5</ele>
        <time>2019-08-04T07:34:29.000Z</time>
      </trkpt>
      <trkpt lat="43.38854" lon="2.22791">
        <ele>721.3</ele>
        <time>2019-08-04T07:34:30.000Z</time>
      </trkpt>
      <trkpt lat="43.38851" lon="2.22792">
        <ele>721.1</ele>
        <time>2019-08-04T07:34:31.000Z</time>
      </trkpt>
      <trkpt lat="43.38848" lon="2.22793">
        <ele>720.8</ele>
        <time>2019-08-04T07:34:32.000Z</time>
      </trkpt>
      <trkpt lat="43.38845" lon="2.22793">
        <ele>720.6</ele>
        <time>2019-08-04T07:34:33.000Z</time>
      </trkpt>
      <trkpt lat="43.38842" lon="2.22794">
        <ele>720.3</ele>
        <time>2019-08-04T07:34:34.000Z</time>
      </trkpt>
      <trkpt lat="43.38838" lon="2.22794">
        <ele>720.1</ele>
        <time>2019-08-04T07:34:35.000Z</time>
      </trkpt>
      <trkpt lat="43.38835" lon="2.22795">
        <ele>719.9</ele>
        <time>2019-08-04T07:34:36.000Z</time>
      </trkpt>
      <trkpt lat="43.38832" lon="2.22796">
        <ele>719.7</ele>
        <time>2019-08-04T07:34:37.000Z</time>
      </trkpt>
      <trkpt lat="43.38829" lon="2.22796">
        <ele>719.5</ele>
        <time>2019-08-04T07:34:38.000Z</time>
      </trkpt>
      <trkpt lat="43.38825" lon="2.22797">
        <ele>719.4</ele>
        <time>2019-08-04T07:34:39.000Z</time>
      </trkpt>
      <trkpt lat="43.38822" lon="2.22797">
        <ele>719.2</ele>
        <time>2019-08-04T07:34:40.000Z</time>
      </trkpt>
      <trkpt lat="43.38819" lon="2.22798">
        <ele>719.1</ele>
        <time>2019-08-04T07:34:41.000Z</time>
      </trkpt>
      <trkpt lat="43.38815" lon="2.22799">
        <ele>718.9</ele>
        <time>2019-08-04T07:34:42.000Z</time>
      </trkpt>
      <trkpt lat="43.38812" lon="2.228">
        <ele>718.8</ele>
        <time>2019-08-04T07:34:43.000Z</time>
      </trkpt>
      <trkpt lat="43.38809" lon="2.228">
        <ele>718.7</ele>
        <time>2019-08-04T07:34:44.000Z</time>
      </trkpt>
      <trkpt lat="43.38805" lon="2.22801">
        <ele>718.6</ele>
        <time>2019-08-04T07:34:45.000Z</time>
      </trkpt>
      <trkpt lat="43.38802" lon="2.22802">
        <ele>718.5</ele>
        <time>2019-08-04T07:34:46.000Z</time>
      </trkpt>
      <trkpt lat="43.38799" lon="2.22803">
        <ele>718.4</ele>
        <time>2019-08-04T07:34:47.000Z</time>
      </trkpt>
      <trkpt lat="43.38795" lon="2.22804">
        <ele>718.3</ele>
        <time>2019-08-04T07:34:48.000Z</time>
      </trkpt>
      <trkpt lat="43.38792" lon="2.22805">
        <ele>718.2</ele>
        <time>2019-08-04T07:34:49.000Z</time>
      </trkpt>
      <trkpt lat="43.38789" lon="2.22806">
        <ele>718.1</ele>
        <time>2019-08-04T07:34:50.000Z</time>
      </trkpt>
      <trkpt lat="43.38786" lon="2.22807">
        <ele>718.1</ele>
        <time>2019-08-04T07:34:51.000Z</time>
      </trkpt>
      <trkpt lat="43.38783" lon="2.22809">
        <ele>718</ele>
        <time>2019-08-04T07:34:52.000Z</time>
      </trkpt>
      <trkpt lat="43.3878" lon="2.2281">
        <ele>718</ele>
        <time>2019-08-04T07:34:53.000Z</time>
      </trkpt>
      <trkpt lat="43.38777" lon="2.22811">
        <ele>718</ele>
        <time>2019-08-04T07:34:54.000Z</time>
      </trkpt>
      <trkpt lat="43.38774" lon="2.22813">
        <ele>718</ele>
        <time>2019-08-04T07:34:55.000Z</time>
      </trkpt>
      <trkpt lat="43.38771" lon="2.22814">
        <ele>718</ele>
        <time>2019-08-04T07:34:56.000Z</time>
      </trkpt>
      <trkpt lat="43.38768" lon="2.22815">
        <ele>718</ele>
        <time>2019-08-04T07:34:57.000Z</time>
      </trkpt>
      <trkpt lat="43.38765" lon="2.22817">
        <ele>718</ele>
        <time>2019-08-04T07:34:58.000Z</time>
      </trkpt>
      <trkpt lat="43.38762" lon="2.22818">
        <ele>718.1</ele>
        <time>2019-08-04T07:34:59.000Z</time>
      </trkpt>
      <trkpt lat="43.38759" lon="2.22819">
        <ele>718.1</ele>
        <time>2019-08-04T07:35:00.000Z</time>
      </trkpt>
      <trkpt lat="43.38756" lon="2.2282">
        <ele>718.2</ele>
        <time>2019-08-04T07:35:01.000Z</time>
      </trkpt>
      <trkpt lat="43.38753" lon="2.22821">
        <ele>718.2</ele>
        <time>2019-08-04T07:35:02.000Z</time>
      </trkpt>
      <trkpt lat="43.3875" lon="2.22822">
        <ele>718.3</ele>
        <time>2019-08-04T07:35:03.000Z</time>
      </trkpt>
      <trkpt lat="43.38746" lon="2.22823">
        <ele>718.2</ele>
        <time>2019-08-04T07:35:04.000Z</time>
      </trkpt>
      <trkpt lat="43.38743" lon="2.22823">
        <ele>718</ele>
        <time>2019-08-04T07:35:05.000Z</time>
      </trkpt>
      <trkpt lat="43.3874" lon="2.22824">
        <ele>717.9</ele>
        <time>2019-08-04T07:35:06.000Z</time>
      </trkpt>
      <trkpt lat="43.38737" lon="2.22824">
        <ele>717.7</ele>
        <time>2019-08-04T07:35:07.000Z</time>
      </trkpt>
      <trkpt lat="43.38734" lon="2.22824">
        <ele>717.5</ele>
        <time>2019-08-04T07:35:08.000Z</time>
      </trkpt>
      <trkpt lat="43.3873" lon="2.22823">
        <ele>717.3</ele>
        <time>2019-08-04T07:35:09.000Z</time>
      </trkpt>
      <trkpt lat="43.38727" lon="2.22823">
        <ele>717.1</ele>
        <time>2019-08-04T07:35:10.000Z</time>
      </trkpt>
      <trkpt lat="43.38724" lon="2.22822">
        <ele>716.9</ele>
        <time>2019-08-04T07:35:11.000Z</time>
      </trkpt>
      <trkpt lat="43.38721" lon="2.22821">
        <ele>716.7</ele>
        <time>2019-08-04T07:35:12.000Z</time>
      </trkpt>
      <trkpt lat="43.38718" lon="2.2282">
        <ele>716.4</ele>
        <time>2019-08-04T07:35:13.000Z</time>
      </trkpt>
      <trkpt lat="43.38715" lon="2.22818">
        <ele>716.2</ele>
        <time>2019-08-04T07:35:14.000Z</time>
      </trkpt>
      <trkpt lat="43.38712" lon="2.22816">
        <ele>716</ele>
        <time>2019-08-04T07:35:15.000Z</time>
      </trkpt>
      <trkpt lat="43.38709" lon="2.22814">
        <ele>715.7</ele>
        <time>2019-08-04T07:35:16.000Z</time>
      </trkpt>
      <trkpt lat="43.38706" lon="2.22812">
        <ele>715.5</ele>
        <time>2019-08-04T07:35:17.000Z</time>
      </trkpt>
      <trkpt lat="43.38704" lon="2.22809">
        <ele>715.3</ele>
        <time>2019-08-04T07:35:18.000Z</time>
      </trkpt>
      <trkpt lat="43.38701" lon="2.22806">
        <ele>715</ele>
        <time>2019-08-04T07:35:19.000Z</time>
      </trkpt>
      <trkpt lat="43.38699" lon="2.22804">
        <ele>714.8</ele>
        <time>2019-08-04T07:35:20.000Z</time>
      </trkpt>
      <trkpt lat="43.38697" lon="2.22801">
        <ele>714.6</ele>
        <time>2019-08-04T07:35:21.000Z</time>
      </trkpt>
      <trkpt lat="43.38694" lon="2.22798">
        <ele>714.4</ele>
        <time>2019-08-04T07:35:22.000Z</time>
      </trkpt>
      <trkpt lat="43.38692" lon="2.22795">
        <ele>714.2</ele>
        <time>2019-08-04T07:35:23.000Z</time>
      </trkpt>
      <trkpt lat="43.3869" lon="2.22791">
        <ele>714</ele>
        <time>2019-08-04T07:35:24.000Z</time>
      </trkpt>
      <trkpt lat="43.38688" lon="2.22788">
        <ele>713.8</ele>
        <time>2019-08-04T07:35:25.000Z</time>
      </trkpt>
      <trkpt lat="43.38686" lon="2.22786">
        <ele>713.6</ele>
        <time>2019-08-04T07:35:26.000Z</time>
      </trkpt>
      <trkpt lat="43.38684" lon="2.22783">
        <ele>713.4</ele>
        <time>2019-08-04T07:35:27.000Z</time>
      </trkpt>
      <trkpt lat="43.38681" lon="2.2278">
        <ele>713.3</ele>
        <time>2019-08-04T07:35:28.000Z</time>
      </trkpt>
      <trkpt lat="43.38679" lon="2.22777">
        <ele>713.1</ele>
        <time>2019-08-04T07:35:29.000Z</time>
      </trkpt>
      <trkpt lat="43.38677" lon="2.22775">
        <ele>712.9</ele>
        <time>2019-08-04T07:35:30.000Z</time>
      </trkpt>
      <trkpt lat="43.38675" lon="2.22772">
        <ele>712.8</ele>
        <time>2019-08-04T07:35:31.000Z</time>
      </trkpt>
      <trkpt lat="43.38672" lon="2.22769">
        <ele>712.6</ele>
        <time>2019-08-04T07:35:32.000Z</time>
      </trkpt>
      <trkpt lat="43.3867" lon="2.22766">
        <ele>712.5</ele>
        <time>2019-08-04T07:35:33.000Z</time>
      </trkpt>
      <trkpt lat="43.38668" lon="2.22763">
        <ele>712.3</ele>
        <time>2019-08-04T07:35:34.000Z</time>
      </trkpt>
      <trkpt lat="43.38665" lon="2.2276">
        <ele>712.1</ele>
        <time>2019-08-04T07:35:35.000Z</time>
      </trkpt>
      <trkpt lat="43.38663" lon="2.22757">
        <ele>711.7</ele>
        <time>2019-08-04T07:35:36.000Z</time>
      </trkpt>
      <trkpt lat="43.38661" lon="2.22755">
        <ele>711.4</ele>
        <time>2019-08-04T07:35:37.000Z</time>
      </trkpt>
      <trkpt lat="43.38658" lon="2.22752">
        <ele>711</ele>
        <time>2019-08-04T07:35:38.000Z</time>
      </trkpt>
      <trkpt lat="43.38656" lon="2.22749">
        <ele>710.7</ele>
        <time>2019-08-04T07:35:39.000Z</time>
      </trkpt>
      <trkpt lat="43.38654" lon="2.22746">
        <ele>710.5</ele>
        <time>2019-08-04T07:35:40.000Z</time>
      </trkpt>
      <trkpt lat="43.38652" lon="2.22742">
        <ele>710.3</ele>
        <time>2019-08-04T07:35:41.000Z</time>
      </trkpt>
      <trkpt lat="43.38651" lon="2.22739">
        <ele>710.1</ele>
        <time>2019-08-04T07:35:42.000Z</time>
      </trkpt>
      <trkpt lat="43.38649" lon="2.22735">
        <ele>709.9</ele>
        <time>2019-08-04T07:35:43.000Z</time>
      </trkpt>
      <trkpt lat="43.38648" lon="2.22732">
        <ele>709.7</ele>
        <time>2019-08-04T07:35:44.000Z</time>
      </trkpt>
      <trkpt lat="43.38646" lon="2.22728">
        <ele>709.5</ele>
        <time>2019-08-04T07:35:45.000Z</time>
      </trkpt>
      <trkpt lat="43.38645" lon="2.22724">
        <ele>709.4</ele>
        <time>2019-08-04T07:35:46.000Z</time>
      </trkpt>
      <trkpt lat="43.38643" lon="2.2272">
        <ele>709.2</ele>
        <time>2019-08-04T07:35:47.000Z</time>
      </trkpt>
      <trkpt lat="43.38642" lon="2.22716">
        <ele>709.1</ele>
        <time>2019-08-04T07:35:48.000Z</time>
      </trkpt>
      <trkpt lat="43.3864" lon="2.22712">
        <ele>709</ele>
        <time>2019-08-04T07:35:49.000Z</time>
      </trkpt>
      <trkpt lat="43.38639" lon="2.22708">
        <ele>708.8</ele>
        <time>2019-08-04T07:35:50.000Z</time>
      </trkpt>
      <trkpt lat="43.38637" lon="2.22704">
        <ele>708.7</ele>
        <time>2019-08-04T07:35:51.000Z</time>
      </trkpt>
      <trkpt lat="43.38635" lon="2.227">
        <ele>708.5</ele>
        <time>2019-08-04T07:35:52.000Z</time>
      </trkpt>
      <trkpt lat="43.38633" lon="2.22697">
        <ele>708.4</ele>
        <time>2019-08-04T07:35:53.000Z</time>
      </trkpt>
      <trkpt lat="43.38631" lon="2.22693">
        <ele>708.2</ele>
        <time>2019-08-04T07:35:54.000Z</time>
      </trkpt>
      <trkpt lat="43.38629" lon="2.2269">
        <ele>708.1</ele>
        <time>2019-08-04T07:35:55.000Z</time>
      </trkpt>
      <trkpt lat="43.38627" lon="2.22687">
        <ele>707.9</ele>
        <time>2019-08-04T07:35:56.000Z</time>
      </trkpt>
      <trkpt lat="43.38625" lon="2.22684">
        <ele>707.8</ele>
        <time>2019-08-04T07:35:57.000Z</time>
      </trkpt>
      <trkpt lat="43.38623" lon="2.22681">
        <ele>707.6</ele>
        <time>2019-08-04T07:35:58.000Z</time>
      </trkpt>
      <trkpt lat="43.3862" lon="2.22679">
        <ele>707.5</ele>
        <time>2019-08-04T07:35:59.000Z</time>
      </trkpt>
      <trkpt lat="43.38618" lon="2.22677">
        <ele>707.3</ele>
        <time>2019-08-04T07:36:00.000Z</time>
      </trkpt>
      <trkpt lat="43.38615" lon="2.22675">
        <ele>707.2</ele>
        <time>2019-08-04T07:36:01.000Z</time>
      </trkpt>
      <trkpt lat="43.38613" lon="2.22673">
        <ele>707</ele>
        <time>2019-08-04T07:36:02.000Z</time>
      </trkpt>
      <trkpt lat="43.3861" lon="2.22672">
        <ele>706.8</ele>
        <time>2019-08-04T07:36:03.000Z</time>
      </trkpt>
      <trkpt lat="43.38608" lon="2.2267">
        <ele>706.7</ele>
        <time>2019-08-04T07:36:04.000Z</time>
      </trkpt>
      <trkpt lat="43.38605" lon="2.22669">
        <ele>706.5</ele>
        <time>2019-08-04T07:36:05.000Z</time>
      </trkpt>
      <trkpt lat="43.38603" lon="2.22668">
        <ele>706.4</ele>
        <time>2019-08-04T07:36:06.000Z</time>
      </trkpt>
      <trkpt lat="43.386" lon="2.22668">
        <ele>706.2</ele>
        <time>2019-08-04T07:36:07.000Z</time>
      </trkpt>
      <trkpt lat="43.38598" lon="2.22667">
        <ele>706</ele>
        <time>2019-08-04T07:36:08.000Z</time>
      </trkpt>
      <trkpt lat="43.38595" lon="2.22667">
        <ele>705.8</ele>
        <time>2019-08-04T07:36:09.000Z</time>
      </trkpt>
      <trkpt lat="43.38592" lon="2.22667">
        <ele>705.6</ele>
        <time>2019-08-04T07:36:10.000Z</time>
      </trkpt>
      <trkpt lat="43.3859" lon="2.22667">
        <ele>705.4</ele>
        <time>2019-08-04T07:36:11.000Z</time>
      </trkpt>
      <trkpt lat="43.38587" lon="2.22667">
        <ele>705.2</ele>
        <time>2019-08-04T07:36:12.000Z</time>
      </trkpt>
      <trkpt lat="43.38584" lon="2.22667">
        <ele>705</ele>
        <time>2019-08-04T07:36:13.000Z</time>
      </trkpt>
      <trkpt lat="43.38581" lon="2.22668">
        <ele>704.9</ele>
        <time>2019-08-04T07:36:14.000Z</time>
      </trkpt>
      <trkpt lat="43.38578" lon="2.22668">
        <ele>704.7</ele>
        <time>2019-08-04T07:36:15.000Z</time>
      </trkpt>
      <trkpt lat="43.38575" lon="2.22668">
        <ele>704.5</ele>
        <time>2019-08-04T07:36:16.000Z</time>
      </trkpt>
      <trkpt lat="43.38572" lon="2.22668">
        <ele>704.4</ele>
        <time>2019-08-04T07:36:17.000Z</time>
      </trkpt>
      <trkpt lat="43.38569" lon="2.22668">
        <ele>704.2</ele>
        <time>2019-08-04T07:36:18.000Z</time>
      </trkpt>
      <trkpt lat="43.38566" lon="2.22668">
        <ele>704.1</ele>
        <time>2019-08-04T07:36:19.000Z</time>
      </trkpt>
      <trkpt lat="43.38563" lon="2.22668">
        <ele>703.9</ele>
        <time>2019-08-04T07:36:20.000Z</time>
      </trkpt>
      <trkpt lat="43.3856" lon="2.22668">
        <ele>703.8</ele>
        <time>2019-08-04T07:36:21.000Z</time>
      </trkpt>
      <trkpt lat="43.38557" lon="2.22668">
        <ele>703.7</ele>
        <time>2019-08-04T07:36:22.000Z</time>
      </trkpt>
      <trkpt lat="43.38554" lon="2.22668">
        <ele>703.6</ele>
        <time>2019-08-04T07:36:23.000Z</time>
      </trkpt>
      <trkpt lat="43.38551" lon="2.22667">
        <ele>703.4</ele>
        <time>2019-08-04T07:36:24.000Z</time>
      </trkpt>
      <trkpt lat="43.38548" lon="2.22667">
        <ele>703.3</ele>
        <time>2019-08-04T07:36:25.000Z</time>
      </trkpt>
      <trkpt lat="43.38546" lon="2.22667">
        <ele>703.2</ele>
        <time>2019-08-04T07:36:26.000Z</time>
      </trkpt>
      <trkpt lat="43.38543" lon="2.22667">
        <ele>703</ele>
        <time>2019-08-04T07:36:27.000Z</time>
      </trkpt>
      <trkpt lat="43.3854" lon="2.22667">
        <ele>702.9</ele>
        <time>2019-08-04T07:36:28.000Z</time>
      </trkpt>
      <trkpt lat="43.38537" lon="2.22667">
        <ele>702.8</ele>
        <time>2019-08-04T07:36:29.000Z</time>
      </trkpt>
      <trkpt lat="43.38534" lon="2.22667">
        <ele>702.6</ele>
        <time>2019-08-04T07:36:30.000Z</time>
      </trkpt>
      <trkpt lat="43.38531" lon="2.22667">
        <ele>702.5</ele>
        <time>2019-08-04T07:36:31.000Z</time>
      </trkpt>
      <trkpt lat="43.38528" lon="2.22667">
        <ele>702.3</ele>
        <time>2019-08-04T07:36:32.000Z</time>
      </trkpt>
      <trkpt lat="43.38525" lon="2.22667">
        <ele>702.2</ele>
        <time>2019-08-04T07:36:33.000Z</time>
      </trkpt>
      <trkpt lat="43.38522" lon="2.22667">
        <ele>702.1</ele>
        <time>2019-08-04T07:36:34.000Z</time>
      </trkpt>
      <trkpt lat="43.38519" lon="2.22667">
        <ele>701.9</ele>
        <time>2019-08-04T07:36:35.000Z</time>
      </trkpt>
      <trkpt lat="43.38516" lon="2.22666">
        <ele>701.8</ele>
        <time>2019-08-04T07:36:36.000Z</time>
      </trkpt>
      <trkpt lat="43.38513" lon="2.22666">
        <ele>701.6</ele>
        <time>2019-08-04T07:36:37.000Z</time>
      </trkpt>
      <trkpt lat="43.38509" lon="2.22666">
        <ele>701.5</ele>
        <time>2019-08-04T07:36:38.000Z</time>
      </trkpt>
      <trkpt lat="43.38506" lon="2.22666">
        <ele>701.3</ele>
        <time>2019-08-04T07:36:39.000Z</time>
      </trkpt>
      <trkpt lat="43.38503" lon="2.22666">
        <ele>701.2</ele>
        <time>2019-08-04T07:36:40.000Z</time>
      </trkpt>
      <trkpt lat="43.385" lon="2.22666">
        <ele>701</ele>
        <time>2019-08-04T07:36:41.000Z</time>
      </trkpt>
      <trkpt lat="43.38497" lon="2.22666">
        <ele>700.9</ele>
        <time>2019-08-04T07:36:42.000Z</time>
      </trkpt>
      <trkpt lat="43.38494" lon="2.22666">
        <ele>700.7</ele>
        <time>2019-08-04T07:36:43.000Z</time>
      </trkpt>
      <trkpt lat="43.38491" lon="2.22665">
        <ele>700.5</ele>
        <time>2019-08-04T07:36:44.000Z</time>
      </trkpt>
      <trkpt lat="43.38488" lon="2.22665">
        <ele>700.3</ele>
        <time>2019-08-04T07:36:45.000Z</time>
      </trkpt>
      <trkpt lat="43.38485" lon="2.22665">
        <ele>700.1</ele>
        <time>2019-08-04T07:36:46.000Z</time>
      </trkpt>
      <trkpt lat="43.38481" lon="2.22665">
        <ele>700</ele>
        <time>2019-08-04T07:36:47.000Z</time>
      </trkpt>
      <trkpt lat="43.38478" lon="2.22664">
        <ele>699.8</ele>
        <time>2019-08-04T07:36:48.000Z</time>
      </trkpt>
      <trkpt lat="43.38475" lon="2.22664">
        <ele>699.6</ele>
        <time>2019-08-04T07:36:49.000Z</time>
      </trkpt>
      <trkpt lat="43.38472" lon="2.22664">
        <ele>699.4</ele>
        <time>2019-08-04T07:36:50.000Z</time>
      </trkpt>
      <trkpt lat="43.38469" lon="2.22663">
        <ele>699.3</ele>
        <time>2019-08-04T07:36:51.000Z</time>
      </trkpt>
      <trkpt lat="43.38465" lon="2.22663">
        <ele>699.1</ele>
        <time>2019-08-04T07:36:52.000Z</time>
      </trkpt>
      <trkpt lat="43.38462" lon="2.22663">
        <ele>698.9</ele>
        <time>2019-08-04T07:36:53.000Z</time>
      </trkpt>
      <trkpt lat="43.38459" lon="2.22662">
        <ele>698.7</ele>
        <time>2019-08-04T07:36:54.000Z</time>
      </trkpt>
      <trkpt lat="43.38455" lon="2.22662">
        <ele>698.5</ele>
        <time>2019-08-04T07:36:55.000Z</time>
      </trkpt>
      <trkpt lat="43.38452" lon="2.22661">
        <ele>698.4</ele>
        <time>2019-08-04T07:36:56.000Z</time>
      </trkpt>
      <trkpt lat="43.38449" lon="2.22661">
        <ele>698.2</ele>
        <time>2019-08-04T07:36:57.000Z</time>
      </trkpt>
      <trkpt lat="43.38445" lon="2.22661">
        <ele>698</ele>
        <time>2019-08-04T07:36:58.000Z</time>
      </trkpt>
      <trkpt lat="43.38442" lon="2.2266">
        <ele>697.8</ele>
        <time>2019-08-04T07:36:59.000Z</time>
      </trkpt>
      <trkpt lat="43.38438" lon="2.2266">
        <ele>697.6</ele>
        <time>2019-08-04T07:37:00.000Z</time>
      </trkpt>
      <trkpt lat="43.38435" lon="2.22659">
        <ele>697.4</ele>
        <time>2019-08-04T07:37:01.000Z</time>
      </trkpt>
      <trkpt lat="43.38432" lon="2.22659">
        <ele>697.2</ele>
        <time>2019-08-04T07:37:02.000Z</time>
      </trkpt>
      <trkpt lat="43.38428" lon="2.22659">
        <ele>697.1</ele>
        <time>2019-08-04T07:37:03.000Z</time>
      </trkpt>
      <trkpt lat="43.38425" lon="2.22659">
        <ele>696.9</ele>
        <time>2019-08-04T07:37:04.000Z</time>
      </trkpt>
      <trkpt lat="43.38421" lon="2.22658">
        <ele>696.7</ele>
        <time>2019-08-04T07:37:05.000Z</time>
      </trkpt>
      <trkpt lat="43.38418" lon="2.22658">
        <ele>696.5</ele>
        <time>2019-08-04T07:37:06.000Z</time>
      </trkpt>
      <trkpt lat="43.38415" lon="2.22658">
        <ele>696.5</ele>
        <time>2019-08-04T07:37:07.000Z</time>
      </trkpt>
      <trkpt lat="43.38411" lon="2.22658">
        <ele>696.5</ele>
        <time>2019-08-04T07:37:08.000Z</time>
      </trkpt>
      <trkpt lat="43.38408" lon="2.22657">
        <ele>696.6</ele>
        <time>2019-08-04T07:37:09.000Z</time>
      </trkpt>
      <trkpt lat="43.38405" lon="2.22657">
        <ele>696.6</ele>
        <time>2019-08-04T07:37:10.000Z</time>
      </trkpt>
      <trkpt lat="43.38402" lon="2.22657">
        <ele>696.7</ele>
        <time>2019-08-04T07:37:11.000Z</time>
      </trkpt>
      <trkpt lat="43.38399" lon="2.22656">
        <ele>696.7</ele>
        <time>2019-08-04T07:37:12.000Z</time>
      </trkpt>
      <trkpt lat="43.38396" lon="2.22656">
        <ele>696.8</ele>
        <time>2019-08-04T07:37:13.000Z</time>
      </trkpt>
      <trkpt lat="43.38393" lon="2.22656">
        <ele>696.8</ele>
        <time>2019-08-04T07:37:14.000Z</time>
      </trkpt>
      <trkpt lat="43.3839" lon="2.22655">
        <ele>696.9</ele>
        <time>2019-08-04T07:37:15.000Z</time>
      </trkpt>
      <trkpt lat="43.38387" lon="2.22655">
        <ele>696.9</ele>
        <time>2019-08-04T07:37:16.000Z</time>
      </trkpt>
      <trkpt lat="43.38384" lon="2.22655">
        <ele>697</ele>
        <time>2019-08-04T07:37:17.000Z</time>
      </trkpt>
      <trkpt lat="43.38381" lon="2.22655">
        <ele>697</ele>
        <time>2019-08-04T07:37:18.000Z</time>
      </trkpt>
      <trkpt lat="43.38377" lon="2.22655">
        <ele>697</ele>
        <time>2019-08-04T07:37:19.000Z</time>
      </trkpt>
      <trkpt lat="43.38374" lon="2.22655">
        <ele>697.1</ele>
        <time>2019-08-04T07:37:20.000Z</time>
      </trkpt>
      <trkpt lat="43.3837" lon="2.22656">
        <ele>697.1</ele>
        <time>2019-08-04T07:37:21.000Z</time>
      </trkpt>
      <trkpt lat="43.38367" lon="2.22656">
        <ele>697.1</ele>
        <time>2019-08-04T07:37:22.000Z</time>
      </trkpt>
      <trkpt lat="43.38363" lon="2.22656">
        <ele>697.1</ele>
        <time>2019-08-04T07:37:23.000Z</time>
      </trkpt>
      <trkpt lat="43.38359" lon="2.22657">
        <ele>697.2</ele>
        <time>2019-08-04T07:37:24.000Z</time>
      </trkpt>
      <trkpt lat="43.38356" lon="2.22658">
        <ele>697.2</ele>
        <time>2019-08-04T07:37:25.000Z</time>
      </trkpt>
      <trkpt lat="43.38353" lon="2.22658">
        <ele>697.2</ele>
        <time>2019-08-04T07:37:26.000Z</time>
      </trkpt>
      <trkpt lat="43.38349" lon="2.22659">
        <ele>697.2</ele>
        <time>2019-08-04T07:37:27.000Z</time>
      </trkpt>
      <trkpt lat="43.38346" lon="2.2266">
        <ele>697.2</ele>
        <time>2019-08-04T07:37:28.000Z</time>
      </trkpt>
      <trkpt lat="43.38343" lon="2.2266">
        <ele>697.2</ele>
        <time>2019-08-04T07:37:29.000Z</time>
      </trkpt>
      <trkpt lat="43.3834" lon="2.22661">
        <ele>697.2</ele>
        <time>2019-08-04T07:37:30.000Z</time>
      </trkpt>
      <trkpt lat="43.38336" lon="2.22662">
        <ele>697.2</ele>
        <time>2019-08-04T07:37:31.000Z</time>
      </trkpt>
      <trkpt lat="43.38333" lon="2.22662">
        <ele>697.2</ele>
        <time>2019-08-04T07:37:32.000Z</time>
      </trkpt>
      <trkpt lat="43.3833" lon="2.22663">
        <ele>697</ele>
        <time>2019-08-04T07:37:33.000Z</time>
      </trkpt>
      <trkpt lat="43.38327" lon="2.22664">
        <ele>696.9</ele>
        <time>2019-08-04T07:37:34.000Z</time>
      </trkpt>
      <trkpt lat="43.38323" lon="2.22664">
        <ele>696.7</ele>
        <time>2019-08-04T07:37:35.000Z</time>
      </trkpt>
      <trkpt lat="43.3832" lon="2.22665">
        <ele>696.6</ele>
        <time>2019-08-04T07:37:36.000Z</time>
      </trkpt>
      <trkpt lat="43.38316" lon="2.22666">
        <ele>696.4</ele>
        <time>2019-08-04T07:37:37.000Z</time>
      </trkpt>
      <trkpt lat="43.38313" lon="2.22666">
        <ele>696.3</ele>
        <time>2019-08-04T07:37:38.000Z</time>
      </trkpt>
      <trkpt lat="43.38309" lon="2.22667">
        <ele>696.1</ele>
        <time>2019-08-04T07:37:39.000Z</time>
      </trkpt>
      <trkpt lat="43.38306" lon="2.22668">
        <ele>695.9</ele>
        <time>2019-08-04T07:37:40.000Z</time>
      </trkpt>
      <trkpt lat="43.38302" lon="2.22669">
        <ele>695.7</ele>
        <time>2019-08-04T07:37:41.000Z</time>
      </trkpt>
      <trkpt lat="43.38299" lon="2.2267">
        <ele>695.5</ele>
        <time>2019-08-04T07:37:42.000Z</time>
      </trkpt>
      <trkpt lat="43.38296" lon="2.22672">
        <ele>695.3</ele>
        <time>2019-08-04T07:37:43.000Z</time>
      </trkpt>
      <trkpt lat="43.38292" lon="2.22673">
        <ele>695</ele>
        <time>2019-08-04T07:37:44.000Z</time>
      </trkpt>
      <trkpt lat="43.38289" lon="2.22674">
        <ele>694.8</ele>
        <time>2019-08-04T07:37:45.000Z</time>
      </trkpt>
      <trkpt lat="43.38286" lon="2.22676">
        <ele>694.6</ele>
        <time>2019-08-04T07:37:46.000Z</time>
      </trkpt>
      <trkpt lat="43.38282" lon="2.22677">
        <ele>694.4</ele>
        <time>2019-08-04T07:37:47.000Z</time>
      </trkpt>
      <trkpt lat="43.38279" lon="2.22679">
        <ele>694.1</ele>
        <time>2019-08-04T07:37:48.000Z</time>
      </trkpt>
      <trkpt lat="43.38276" lon="2.2268">
        <ele>693.9</ele>
        <time>2019-08-04T07:37:49.000Z</time>
      </trkpt>
      <trkpt lat="43.38272" lon="2.22682">
        <ele>693.7</ele>
        <time>2019-08-04T07:37:50.000Z</time>
      </trkpt>
      <trkpt lat="43.38269" lon="2.22683">
        <ele>693.5</ele>
        <time>2019-08-04T07:37:51.000Z</time>
      </trkpt>
      <trkpt lat="43.38266" lon="2.22685">
        <ele>693.2</ele>
        <time>2019-08-04T07:37:52.000Z</time>
      </trkpt>
      <trkpt lat="43.38262" lon="2.22686">
        <ele>693</ele>
        <time>2019-08-04T07:37:53.000Z</time>
      </trkpt>
      <trkpt lat="43.38259" lon="2.22687">
        <ele>692.8</ele>
        <time>2019-08-04T07:37:54.000Z</time>
      </trkpt>
      <trkpt lat="43.38256" lon="2.22689">
        <ele>692.6</ele>
        <time>2019-08-04T07:37:55.000Z</time>
      </trkpt>
      <trkpt lat="43.38252" lon="2.2269">
        <ele>692.4</ele>
        <time>2019-08-04T07:37:56.000Z</time>
      </trkpt>
      <trkpt lat="43.38249" lon="2.22691">
        <ele>692.1</ele>
        <time>2019-08-04T07:37:57.000Z</time>
      </trkpt>
      <trkpt lat="43.38246" lon="2.22692">
        <ele>691.7</ele>
        <time>2019-08-04T07:37:58.000Z</time>
      </trkpt>
      <trkpt lat="43.38242" lon="2.22693">
        <ele>691.2</ele>
        <time>2019-08-04T07:37:59.000Z</time>
      </trkpt>
      <trkpt lat="43.38239" lon="2.22694">
        <ele>690.8</ele>
        <time>2019-08-04T07:38:00.000Z</time>
      </trkpt>
      <trkpt lat="43.38236" lon="2.22695">
        <ele>690.3</ele>
        <time>2019-08-04T07:38:01.000Z</time>
      </trkpt>
      <trkpt lat="43.38232" lon="2.22696">
        <ele>689.9</ele>
        <time>2019-08-04T07:38:02.000Z</time>
      </trkpt>
      <trkpt lat="43.38229" lon="2.22697">
        <ele>689.5</ele>
        <time>2019-08-04T07:38:03.000Z</time>
      </trkpt>
      <trkpt lat="43.38226" lon="2.22699">
        <ele>689.1</ele>
        <time>2019-08-04T07:38:04.000Z</time>
      </trkpt>
      <trkpt lat="43.38223" lon="2.227">
        <ele>688.7</ele>
        <time>2019-08-04T07:38:05.000Z</time>
      </trkpt>
      <trkpt lat="43.3822" lon="2.22701">
        <ele>688.3</ele>
        <time>2019-08-04T07:38:06.000Z</time>
      </trkpt>
      <trkpt lat="43.38217" lon="2.22702">
        <ele>687.9</ele>
        <time>2019-08-04T07:38:07.000Z</time>
      </trkpt>
      <trkpt lat="43.38214" lon="2.22704">
        <ele>687.5</ele>
        <time>2019-08-04T07:38:08.000Z</time>
      </trkpt>
      <trkpt lat="43.38211" lon="2.22705">
        <ele>687.1</ele>
        <time>2019-08-04T07:38:09.000Z</time>
      </trkpt>
      <trkpt lat="43.38208" lon="2.22707">
        <ele>686.8</ele>
        <time>2019-08-04T07:38:10.000Z</time>
      </trkpt>
      <trkpt lat="43.38205" lon="2.22708">
        <ele>686.4</ele>
        <time>2019-08-04T07:38:11.000Z</time>
      </trkpt>
      <trkpt lat="43.38202" lon="2.2271">
        <ele>686</ele>
        <time>2019-08-04T07:38:12.000Z</time>
      </trkpt>
      <trkpt lat="43.38198" lon="2.22711">
        <ele>685.6</ele>
        <time>2019-08-04T07:38:13.000Z</time>
      </trkpt>
      <trkpt lat="43.38195" lon="2.22713">
        <ele>685.3</ele>
        <time>2019-08-04T07:38:14.000Z</time>
      </trkpt>
      <trkpt lat="43.38192" lon="2.22715">
        <ele>684.9</ele>
        <time>2019-08-04T07:38:15.000Z</time>
      </trkpt>
      <trkpt lat="43.38189" lon="2.22717">
        <ele>684.5</ele>
        <time>2019-08-04T07:38:16.000Z</time>
      </trkpt>
      <trkpt lat="43.38186" lon="2.22719">
        <ele>684.2</ele>
        <time>2019-08-04T07:38:17.000Z</time>
      </trkpt>
      <trkpt lat="43.38183" lon="2.22721">
        <ele>683.8</ele>
        <time>2019-08-04T07:38:18.000Z</time>
      </trkpt>
      <trkpt lat="43.38179" lon="2.22723">
        <ele>683.5</ele>
        <time>2019-08-04T07:38:19.000Z</time>
      </trkpt>
      <trkpt lat="43.38176" lon="2.22725">
        <ele>683.2</ele>
        <time>2019-08-04T07:38:20.000Z</time>
      </trkpt>
      <trkpt lat="43.38173" lon="2.22727">
        <ele>682.8</ele>
        <time>2019-08-04T07:38:21.000Z</time>
      </trkpt>
      <trkpt lat="43.3817" lon="2.2273">
        <ele>682.5</ele>
        <time>2019-08-04T07:38:22.000Z</time>
      </trkpt>
      <trkpt lat="43.38167" lon="2.22732">
        <ele>682.2</ele>
        <time>2019-08-04T07:38:23.000Z</time>
      </trkpt>
      <trkpt lat="43.38164" lon="2.22734">
        <ele>681.8</ele>
        <time>2019-08-04T07:38:24.000Z</time>
      </trkpt>
      <trkpt lat="43.38161" lon="2.22737">
        <ele>681.4</ele>
        <time>2019-08-04T07:38:25.000Z</time>
      </trkpt>
      <trkpt lat="43.38158" lon="2.2274">
        <ele>681</ele>
        <time>2019-08-04T07:38:26.000Z</time>
      </trkpt>
      <trkpt lat="43.38155" lon="2.22742">
        <ele>680.6</ele>
        <time>2019-08-04T07:38:27.000Z</time>
      </trkpt>
      <trkpt lat="43.38152" lon="2.22745">
        <ele>680.3</ele>
        <time>2019-08-04T07:38:28.000Z</time>
      </trkpt>
      <trkpt lat="43.38149" lon="2.22748">
        <ele>679.9</ele>
        <time>2019-08-04T07:38:29.000Z</time>
      </trkpt>
      <trkpt lat="43.38146" lon="2.2275">
        <ele>679.5</ele>
        <time>2019-08-04T07:38:30.000Z</time>
      </trkpt>
      <trkpt lat="43.38143" lon="2.22753">
        <ele>679.2</ele>
        <time>2019-08-04T07:38:31.000Z</time>
      </trkpt>
      <trkpt lat="43.3814" lon="2.22755">
        <ele>679</ele>
        <time>2019-08-04T07:38:32.000Z</time>
      </trkpt>
      <trkpt lat="43.38137" lon="2.22757">
        <ele>678.7</ele>
        <time>2019-08-04T07:38:33.000Z</time>
      </trkpt>
      <trkpt lat="43.38133" lon="2.22759">
        <ele>678.4</ele>
        <time>2019-08-04T07:38:34.000Z</time>
      </trkpt>
      <trkpt lat="43.3813" lon="2.22761">
        <ele>678.1</ele>
        <time>2019-08-04T07:38:35.000Z</time>
      </trkpt>
      <trkpt lat="43.38127" lon="2.22763">
        <ele>677.8</ele>
        <time>2019-08-04T07:38:36.000Z</time>
      </trkpt>
      <trkpt lat="43.38124" lon="2.22765">
        <ele>677.5</ele>
        <time>2019-08-04T07:38:37.000Z</time>
      </trkpt>
      <trkpt lat="43.3812" lon="2.22767">
        <ele>677.2</ele>
        <time>2019-08-04T07:38:38.000Z</time>
      </trkpt>
      <trkpt lat="43.38117" lon="2.22768">
        <ele>676.9</ele>
        <time>2019-08-04T07:38:39.000Z</time>
      </trkpt>
      <trkpt lat="43.38114" lon="2.2277">
        <ele>676.6</ele>
        <time>2019-08-04T07:38:40.000Z</time>
      </trkpt>
      <trkpt lat="43.3811" lon="2.22771">
        <ele>676.3</ele>
        <time>2019-08-04T07:38:41.000Z</time>
      </trkpt>
      <trkpt lat="43.38107" lon="2.22773">
        <ele>676</ele>
        <time>2019-08-04T07:38:42.000Z</time>
      </trkpt>
      <trkpt lat="43.38103" lon="2.22775">
        <ele>675.7</ele>
        <time>2019-08-04T07:38:43.000Z</time>
      </trkpt>
      <trkpt lat="43.381" lon="2.22776">
        <ele>675.4</ele>
        <time>2019-08-04T07:38:44.000Z</time>
      </trkpt>
      <trkpt lat="43.38097" lon="2.22778">
        <ele>675.2</ele>
        <time>2019-08-04T07:38:45.000Z</time>
      </trkpt>
      <trkpt lat="43.38093" lon="2.22779">
        <ele>674.9</ele>
        <time>2019-08-04T07:38:46.000Z</time>
      </trkpt>
      <trkpt lat="43.3809" lon="2.22781">
        <ele>674.6</ele>
        <time>2019-08-04T07:38:47.000Z</time>
      </trkpt>
      <trkpt lat="43.38087" lon="2.22783">
        <ele>674.4</ele>
        <time>2019-08-04T07:38:48.000Z</time>
      </trkpt>
      <trkpt lat="43.38084" lon="2.22785">
        <ele>674.1</ele>
        <time>2019-08-04T07:38:49.000Z</time>
      </trkpt>
      <trkpt lat="43.38081" lon="2.22786">
        <ele>673.9</ele>
        <time>2019-08-04T07:38:50.000Z</time>
      </trkpt>
      <trkpt lat="43.38078" lon="2.22788">
        <ele>673.7</ele>
        <time>2019-08-04T07:38:51.000Z</time>
      </trkpt>
      <trkpt lat="43.38075" lon="2.2279">
        <ele>673.4</ele>
        <time>2019-08-04T07:38:52.000Z</time>
      </trkpt>
      <trkpt lat="43.38072" lon="2.22792">
        <ele>673.2</ele>
        <time>2019-08-04T07:38:53.000Z</time>
      </trkpt>
      <trkpt lat="43.38069" lon="2.22794">
        <ele>673</ele>
        <time>2019-08-04T07:38:54.000Z</time>
      </trkpt>
      <trkpt lat="43.38066" lon="2.22796">
        <ele>672.8</ele>
        <time>2019-08-04T07:38:55.000Z</time>
      </trkpt>
      <trkpt lat="43.38063" lon="2.22798">
        <ele>672.5</ele>
        <time>2019-08-04T07:38:56.000Z</time>
      </trkpt>
      <trkpt lat="43.3806" lon="2.228">
        <ele>672.3</ele>
        <time>2019-08-04T07:38:57.000Z</time>
      </trkpt>
      <trkpt lat="43.38058" lon="2.22803">
        <ele>672.1</ele>
        <time>2019-08-04T07:38:58.000Z</time>
      </trkpt>
      <trkpt lat="43.38055" lon="2.22805">
        <ele>671.8</ele>
        <time>2019-08-04T07:38:59.000Z</time>
      </trkpt>
      <trkpt lat="43.38052" lon="2.22807">
        <ele>671.6</ele>
        <time>2019-08-04T07:39:00.000Z</time>
      </trkpt>
      <trkpt lat="43.38049" lon="2.22809">
        <ele>671.3</ele>
        <time>2019-08-04T07:39:01.000Z</time>
      </trkpt>
      <trkpt lat="43.38046" lon="2.22811">
        <ele>671</ele>
        <time>2019-08-04T07:39:02.000Z</time>
      </trkpt>
      <trkpt lat="43.38042" lon="2.22814">
        <ele>670.7</ele>
        <time>2019-08-04T07:39:03.000Z</time>
      </trkpt>
      <trkpt lat="43.38039" lon="2.22816">
        <ele>670.4</ele>
        <time>2019-08-04T07:39:04.000Z</time>
      </trkpt>
      <trkpt lat="43.38035" lon="2.22818">
        <ele>670.1</ele>
        <time>2019-08-04T07:39:05.000Z</time>
      </trkpt>
      <trkpt lat="43.38032" lon="2.2282">
        <ele>669.7</ele>
        <time>2019-08-04T07:39:06.000Z</time>
      </trkpt>
      <trkpt lat="43.38028" lon="2.22822">
        <ele>669.3</ele>
        <time>2019-08-04T07:39:07.000Z</time>
      </trkpt>
      <trkpt lat="43.38025" lon="2.22824">
        <ele>668.9</ele>
        <time>2019-08-04T07:39:08.000Z</time>
      </trkpt>
      <trkpt lat="43.38021" lon="2.22825">
        <ele>668.5</ele>
        <time>2019-08-04T07:39:09.000Z</time>
      </trkpt>
      <trkpt lat="43.38017" lon="2.22827">
        <ele>668.1</ele>
        <time>2019-08-04T07:39:10.000Z</time>
      </trkpt>
      <trkpt lat="43.38014" lon="2.22828">
        <ele>667.7</ele>
        <time>2019-08-04T07:39:11.000Z</time>
      </trkpt>
      <trkpt lat="43.3801" lon="2.22829">
        <ele>667.2</ele>
        <time>2019-08-04T07:39:12.000Z</time>
      </trkpt>
      <trkpt lat="43.38007" lon="2.2283">
        <ele>666.8</ele>
        <time>2019-08-04T07:39:13.000Z</time>
      </trkpt>
      <trkpt lat="43.38003" lon="2.22831">
        <ele>666.4</ele>
        <time>2019-08-04T07:39:14.000Z</time>
      </trkpt>
      <trkpt lat="43.38" lon="2.22832">
        <ele>666</ele>
        <time>2019-08-04T07:39:15.000Z</time>
      </trkpt>
      <trkpt lat="43.37997" lon="2.22833">
        <ele>665.8</ele>
        <time>2019-08-04T07:39:16.000Z</time>
      </trkpt>
      <trkpt lat="43.37993" lon="2.22834">
        <ele>665.6</ele>
        <time>2019-08-04T07:39:17.000Z</time>
      </trkpt>
      <trkpt lat="43.3799" lon="2.22834">
        <ele>665.4</ele>
        <time>2019-08-04T07:39:18.000Z</time>
      </trkpt>
      <trkpt lat="43.37987" lon="2.22835">
        <ele>665.2</ele>
        <time>2019-08-04T07:39:19.000Z</time>
      </trkpt>
      <trkpt lat="43.37984" lon="2.22836">
        <ele>665</ele>
        <time>2019-08-04T07:39:20.000Z</time>
      </trkpt>
      <trkpt lat="43.37981" lon="2.22837">
        <ele>664.8</ele>
        <time>2019-08-04T07:39:21.000Z</time>
      </trkpt>
      <trkpt lat="43.37977" lon="2.22838">
        <ele>664.6</ele>
        <time>2019-08-04T07:39:22.000Z</time>
      </trkpt>
      <trkpt lat="43.37974" lon="2.22839">
        <ele>664.4</ele>
        <time>2019-08-04T07:39:23.000Z</time>
      </trkpt>
      <trkpt lat="43.37971" lon="2.2284">
        <ele>664.3</ele>
        <time>2019-08-04T07:39:24.000Z</time>
      </trkpt>
      <trkpt lat="43.37968" lon="2.22841">
        <ele>664</ele>
        <time>2019-08-04T07:39:25.000Z</time>
      </trkpt>
      <trkpt lat="43.37964" lon="2.22842">
        <ele>663.9</ele>
        <time>2019-08-04T07:39:26.000Z</time>
      </trkpt>
      <trkpt lat="43.37961" lon="2.22843">
        <ele>663.6</ele>
        <time>2019-08-04T07:39:27.000Z</time>
      </trkpt>
      <trkpt lat="43.37957" lon="2.22844">
        <ele>663.4</ele>
        <time>2019-08-04T07:39:28.000Z</time>
      </trkpt>
      <trkpt lat="43.37954" lon="2.22845">
        <ele>663.2</ele>
        <time>2019-08-04T07:39:29.000Z</time>
      </trkpt>
      <trkpt lat="43.37951" lon="2.22846">
        <ele>663</ele>
        <time>2019-08-04T07:39:30.000Z</time>
      </trkpt>
      <trkpt lat="43.37947" lon="2.22847">
        <ele>662.8</ele>
        <time>2019-08-04T07:39:31.000Z</time>
      </trkpt>
      <trkpt lat="43.37944" lon="2.22848">
        <ele>662.6</ele>
        <time>2019-08-04T07:39:32.000Z</time>
      </trkpt>
      <trkpt lat="43.3794" lon="2.22848">
        <ele>662.4</ele>
        <time>2019-08-04T07:39:33.000Z</time>
      </trkpt>
      <trkpt lat="43.37937" lon="2.22849">
        <ele>662.2</ele>
        <time>2019-08-04T07:39:34.000Z</time>
      </trkpt>
      <trkpt lat="43.37934" lon="2.22849">
        <ele>662</ele>
        <time>2019-08-04T07:39:35.000Z</time>
      </trkpt>
      <trkpt lat="43.3793" lon="2.22849">
        <ele>661.8</ele>
        <time>2019-08-04T07:39:36.000Z</time>
      </trkpt>
      <trkpt lat="43.37927" lon="2.2285">
        <ele>661.6</ele>
        <time>2019-08-04T07:39:37.000Z</time>
      </trkpt>
      <trkpt lat="43.37923" lon="2.2285">
        <ele>661.4</ele>
        <time>2019-08-04T07:39:38.000Z</time>
      </trkpt>
      <trkpt lat="43.3792" lon="2.2285">
        <ele>661.2</ele>
        <time>2019-08-04T07:39:39.000Z</time>
      </trkpt>
      <trkpt lat="43.37916" lon="2.22851">
        <ele>661</ele>
        <time>2019-08-04T07:39:40.000Z</time>
      </trkpt>
      <trkpt lat="43.37913" lon="2.22851">
        <ele>660.8</ele>
        <time>2019-08-04T07:39:41.000Z</time>
      </trkpt>
      <trkpt lat="43.37909" lon="2.22852">
        <ele>660.6</ele>
        <time>2019-08-04T07:39:42.000Z</time>
      </trkpt>
      <trkpt lat="43.37906" lon="2.22853">
        <ele>660.3</ele>
        <time>2019-08-04T07:39:43.000Z</time>
      </trkpt>
      <trkpt lat="43.37902" lon="2.22853">
        <ele>660.1</ele>
        <time>2019-08-04T07:39:44.000Z</time>
      </trkpt>
      <trkpt lat="43.37898" lon="2.22854">
        <ele>659.9</ele>
        <time>2019-08-04T07:39:45.000Z</time>
      </trkpt>
      <trkpt lat="43.37895" lon="2.22854">
        <ele>659.7</ele>
        <time>2019-08-04T07:39:46.000Z</time>
      </trkpt>
      <trkpt lat="43.37891" lon="2.22855">
        <ele>659.5</ele>
        <time>2019-08-04T07:39:47.000Z</time>
      </trkpt>
      <trkpt lat="43.37888" lon="2.22856">
        <ele>659.3</ele>
        <time>2019-08-04T07:39:48.000Z</time>
      </trkpt>
      <trkpt lat="43.37884" lon="2.22856">
        <ele>659</ele>
        <time>2019-08-04T07:39:49.000Z</time>
      </trkpt>
      <trkpt lat="43.37881" lon="2.22857">
        <ele>658.8</ele>
        <time>2019-08-04T07:39:50.000Z</time>
      </trkpt>
      <trkpt lat="43.37877" lon="2.22857">
        <ele>658.6</ele>
        <time>2019-08-04T07:39:51.000Z</time>
      </trkpt>
      <trkpt lat="43.37874" lon="2.22858">
        <ele>658.4</ele>
        <time>2019-08-04T07:39:52.000Z</time>
      </trkpt>
      <trkpt lat="43.3787" lon="2.22858">
        <ele>658.2</ele>
        <time>2019-08-04T07:39:53.000Z</time>
      </trkpt>
      <trkpt lat="43.37867" lon="2.22858">
        <ele>658</ele>
        <time>2019-08-04T07:39:54.000Z</time>
      </trkpt>
      <trkpt lat="43.37863" lon="2.22859">
        <ele>657.8</ele>
        <time>2019-08-04T07:39:55.000Z</time>
      </trkpt>
      <trkpt lat="43.3786" lon="2.22859">
        <ele>657.6</ele>
        <time>2019-08-04T07:39:56.000Z</time>
      </trkpt>
      <trkpt lat="43.37857" lon="2.22859">
        <ele>657.4</ele>
        <time>2019-08-04T07:39:57.000Z</time>
      </trkpt>
      <trkpt lat="43.37853" lon="2.22859">
        <ele>657.2</ele>
        <time>2019-08-04T07:39:58.000Z</time>
      </trkpt>
      <trkpt lat="43.3785" lon="2.22859">
        <ele>657</ele>
        <time>2019-08-04T07:39:59.000Z</time>
      </trkpt>
      <trkpt lat="43.37847" lon="2.22859">
        <ele>656.8</ele>
        <time>2019-08-04T07:40:00.000Z</time>
      </trkpt>
      <trkpt lat="43.37844" lon="2.22859">
        <ele>656.6</ele>
        <time>2019-08-04T07:40:01.000Z</time>
      </trkpt>
      <trkpt lat="43.37841" lon="2.22858">
        <ele>656.5</ele>
        <time>2019-08-04T07:40:02.000Z</time>
      </trkpt>
      <trkpt lat="43.37838" lon="2.22858">
        <ele>656.3</ele>
        <time>2019-08-04T07:40:03.000Z</time>
      </trkpt>
      <trkpt lat="43.37835" lon="2.22858">
        <ele>656.1</ele>
        <time>2019-08-04T07:40:04.000Z</time>
      </trkpt>
      <trkpt lat="43.37832" lon="2.22858">
        <ele>656</ele>
        <time>2019-08-04T07:40:05.000Z</time>
      </trkpt>
      <trkpt lat="43.3783" lon="2.22858">
        <ele>655.9</ele>
        <time>2019-08-04T07:40:06.000Z</time>
      </trkpt>
      <trkpt lat="43.37827" lon="2.22857">
        <ele>655.8</ele>
        <time>2019-08-04T07:40:07.000Z</time>
      </trkpt>
      <trkpt lat="43.37825" lon="2.22857">
        <ele>655.7</ele>
        <time>2019-08-04T07:40:08.000Z</time>
      </trkpt>
      <trkpt lat="43.37823" lon="2.22857">
        <ele>655.6</ele>
        <time>2019-08-04T07:40:09.000Z</time>
      </trkpt>
      <trkpt lat="43.37821" lon="2.22857">
        <ele>655.5</ele>
        <time>2019-08-04T07:40:10.000Z</time>
      </trkpt>
      <trkpt lat="43.37818" lon="2.22856">
        <ele>655.4</ele>
        <time>2019-08-04T07:40:11.000Z</time>
      </trkpt>
      <trkpt lat="43.37816" lon="2.22856">
        <ele>655.3</ele>
        <time>2019-08-04T07:40:12.000Z</time>
      </trkpt>
      <trkpt lat="43.37813" lon="2.22855">
        <ele>655.1</ele>
        <time>2019-08-04T07:40:13.000Z</time>
      </trkpt>
      <trkpt lat="43.3781" lon="2.22854">
        <ele>655</ele>
        <time>2019-08-04T07:40:14.000Z</time>
      </trkpt>
      <trkpt lat="43.37806" lon="2.22854">
        <ele>654.9</ele>
        <time>2019-08-04T07:40:15.000Z</time>
      </trkpt>
      <trkpt lat="43.37803" lon="2.22853">
        <ele>654.7</ele>
        <time>2019-08-04T07:40:16.000Z</time>
      </trkpt>
      <trkpt lat="43.378" lon="2.22852">
        <ele>654.6</ele>
        <time>2019-08-04T07:40:17.000Z</time>
      </trkpt>
      <trkpt lat="43.37797" lon="2.22851">
        <ele>654.5</ele>
        <time>2019-08-04T07:40:18.000Z</time>
      </trkpt>
      <trkpt lat="43.37795" lon="2.22851">
        <ele>654.3</ele>
        <time>2019-08-04T07:40:19.000Z</time>
      </trkpt>
      <trkpt lat="43.37792" lon="2.2285">
        <ele>654.2</ele>
        <time>2019-08-04T07:40:20.000Z</time>
      </trkpt>
      <trkpt lat="43.3779" lon="2.22849">
        <ele>654.1</ele>
        <time>2019-08-04T07:40:21.000Z</time>
      </trkpt>
      <trkpt lat="43.37787" lon="2.22848">
        <ele>654</ele>
        <time>2019-08-04T07:40:22.000Z</time>
      </trkpt>
      <trkpt lat="43.37785" lon="2.22848">
        <ele>653.9</ele>
        <time>2019-08-04T07:40:23.000Z</time>
      </trkpt>
      <trkpt lat="43.37782" lon="2.22847">
        <ele>653.7</ele>
        <time>2019-08-04T07:40:24.000Z</time>
      </trkpt>
      <trkpt lat="43.37779" lon="2.22846">
        <ele>653.6</ele>
        <time>2019-08-04T07:40:25.000Z</time>
      </trkpt>
      <trkpt lat="43.37776" lon="2.22846">
        <ele>653.5</ele>
        <time>2019-08-04T07:40:26.000Z</time>
      </trkpt>
      <trkpt lat="43.37773" lon="2.22845">
        <ele>653.3</ele>
        <time>2019-08-04T07:40:27.000Z</time>
      </trkpt>
      <trkpt lat="43.3777" lon="2.22844">
        <ele>653.2</ele>
        <time>2019-08-04T07:40:28.000Z</time>
      </trkpt>
      <trkpt lat="43.37767" lon="2.22843">
        <ele>653</ele>
        <time>2019-08-04T07:40:29.000Z</time>
      </trkpt>
      <trkpt lat="43.37764" lon="2.22843">
        <ele>652.8</ele>
        <time>2019-08-04T07:40:30.000Z</time>
      </trkpt>
      <trkpt lat="43.37761" lon="2.22842">
        <ele>652.7</ele>
        <time>2019-08-04T07:40:31.000Z</time>
      </trkpt>
      <trkpt lat="43.37757" lon="2.22841">
        <ele>652.5</ele>
        <time>2019-08-04T07:40:32.000Z</time>
      </trkpt>
      <trkpt lat="43.37754" lon="2.22841">
        <ele>652.4</ele>
        <time>2019-08-04T07:40:33.000Z</time>
      </trkpt>
      <trkpt lat="43.37751" lon="2.2284">
        <ele>652.2</ele>
        <time>2019-08-04T07:40:34.000Z</time>
      </trkpt>
      <trkpt lat="43.37747" lon="2.22839">
        <ele>652</ele>
        <time>2019-08-04T07:40:35.000Z</time>
      </trkpt>
      <trkpt lat="43.37744" lon="2.22838">
        <ele>651.9</ele>
        <time>2019-08-04T07:40:36.000Z</time>
      </trkpt>
      <trkpt lat="43.37741" lon="2.22838">
        <ele>651.8</ele>
        <time>2019-08-04T07:40:37.000Z</time>
      </trkpt>
      <trkpt lat="43.37738" lon="2.22837">
        <ele>651.6</ele>
        <time>2019-08-04T07:40:38.000Z</time>
      </trkpt>
      <trkpt lat="43.37735" lon="2.22836">
        <ele>651.5</ele>
        <time>2019-08-04T07:40:39.000Z</time>
      </trkpt>
      <trkpt lat="43.37732" lon="2.22835">
        <ele>651.4</ele>
        <time>2019-08-04T07:40:40.000Z</time>
      </trkpt>
      <trkpt lat="43.37729" lon="2.22834">
        <ele>651.2</ele>
        <time>2019-08-04T07:40:41.000Z</time>
      </trkpt>
      <trkpt lat="43.37726" lon="2.22833">
        <ele>651.1</ele>
        <time>2019-08-04T07:40:42.000Z</time>
      </trkpt>
      <trkpt lat="43.37723" lon="2.22832">
        <ele>651</ele>
        <time>2019-08-04T07:40:43.000Z</time>
      </trkpt>
      <trkpt lat="43.3772" lon="2.22831">
        <ele>650.9</ele>
        <time>2019-08-04T07:40:44.000Z</time>
      </trkpt>
      <trkpt lat="43.37717" lon="2.2283">
        <ele>650.7</ele>
        <time>2019-08-04T07:40:45.000Z</time>
      </trkpt>
      <trkpt lat="43.37714" lon="2.22829">
        <ele>650.6</ele>
        <time>2019-08-04T07:40:46.000Z</time>
      </trkpt>
      <trkpt lat="43.37711" lon="2.22828">
        <ele>650.5</ele>
        <time>2019-08-04T07:40:47.000Z</time>
      </trkpt>
      <trkpt lat="43.37708" lon="2.22828">
        <ele>650.3</ele>
        <time>2019-08-04T07:40:48.000Z</time>
      </trkpt>
      <trkpt lat="43.37705" lon="2.22827">
        <ele>650.2</ele>
        <time>2019-08-04T07:40:49.000Z</time>
      </trkpt>
      <trkpt lat="43.37702" lon="2.22826">
        <ele>650.1</ele>
        <time>2019-08-04T07:40:50.000Z</time>
      </trkpt>
      <trkpt lat="43.37699" lon="2.22825">
        <ele>650</ele>
        <time>2019-08-04T07:40:51.000Z</time>
      </trkpt>
      <trkpt lat="43.37696" lon="2.22824">
        <ele>649.9</ele>
        <time>2019-08-04T07:40:52.000Z</time>
      </trkpt>
      <trkpt lat="43.37693" lon="2.22823">
        <ele>649.7</ele>
        <time>2019-08-04T07:40:53.000Z</time>
      </trkpt>
      <trkpt lat="43.3769" lon="2.22822">
        <ele>649.6</ele>
        <time>2019-08-04T07:40:54.000Z</time>
      </trkpt>
      <trkpt lat="43.37687" lon="2.22821">
        <ele>649.5</ele>
        <time>2019-08-04T07:40:55.000Z</time>
      </trkpt>
      <trkpt lat="43.37684" lon="2.2282">
        <ele>649.4</ele>
        <time>2019-08-04T07:40:56.000Z</time>
      </trkpt>
      <trkpt lat="43.37681" lon="2.22819">
        <ele>649.3</ele>
        <time>2019-08-04T07:40:57.000Z</time>
      </trkpt>
      <trkpt lat="43.37678" lon="2.22818">
        <ele>649.2</ele>
        <time>2019-08-04T07:40:58.000Z</time>
      </trkpt>
      <trkpt lat="43.37675" lon="2.22817">
        <ele>649.1</ele>
        <time>2019-08-04T07:40:59.000Z</time>
      </trkpt>
      <trkpt lat="43.37672" lon="2.22816">
        <ele>649</ele>
        <time>2019-08-04T07:41:00.000Z</time>
      </trkpt>
      <trkpt lat="43.3767" lon="2.22814">
        <ele>648.9</ele>
        <time>2019-08-04T07:41:01.000Z</time>
      </trkpt>
      <trkpt lat="43.37667" lon="2.22813">
        <ele>648.8</ele>
        <time>2019-08-04T07:41:02.000Z</time>
      </trkpt>
      <trkpt lat="43.37665" lon="2.22812">
        <ele>648.7</ele>
        <time>2019-08-04T07:41:03.000Z</time>
      </trkpt>
      <trkpt lat="43.37661" lon="2.22811">
        <ele>648.6</ele>
        <time>2019-08-04T07:41:04.000Z</time>
      </trkpt>
      <trkpt lat="43.37658" lon="2.22809">
        <ele>648.4</ele>
        <time>2019-08-04T07:41:05.000Z</time>
      </trkpt>
      <trkpt lat="43.37655" lon="2.22808">
        <ele>648.4</ele>
        <time>2019-08-04T07:41:06.000Z</time>
      </trkpt>
      <trkpt lat="43.37654" lon="2.22807">
        <ele>648.3</ele>
        <time>2019-08-04T07:41:07.000Z</time>
      </trkpt>
      <trkpt lat="43.37653" lon="2.22806">
        <ele>648.3</ele>
        <time>2019-08-04T07:41:08.000Z</time>
      </trkpt>
      <trkpt lat="43.37653" lon="2.22805">
        <ele>648.3</ele>
        <time>2019-08-04T07:41:09.000Z</time>
      </trkpt>
      <trkpt lat="43.37653" lon="2.22805">
        <ele>648.3</ele>
        <time>2019-08-04T07:41:10.000Z</time>
      </trkpt>
      <trkpt lat="43.37653" lon="2.22805">
        <ele>648.3</ele>
        <time>2019-08-04T07:41:11.000Z</time>
      </trkpt>
      <trkpt lat="43.37654" lon="2.22805">
        <ele>648.3</ele>
        <time>2019-08-04T07:41:12.000Z</time>
      </trkpt>
      <trkpt lat="43.37654" lon="2.22806">
        <ele>648.3</ele>
        <time>2019-08-04T07:41:13.000Z</time>
      </trkpt>
      <trkpt lat="43.37655" lon="2.22806">
        <ele>648.3</ele>
        <time>2019-08-04T07:41:14.000Z</time>
      </trkpt>
      <trkpt lat="43.37656" lon="2.22807">
        <ele>648.4</ele>
        <time>2019-08-04T07:41:15.000Z</time>
      </trkpt>
      <trkpt lat="43.37657" lon="2.22807">
        <ele>648.4</ele>
        <time>2019-08-04T07:41:16.000Z</time>
      </trkpt>
      <trkpt lat="43.37657" lon="2.22808">
        <ele>648.4</ele>
        <time>2019-08-04T07:41:17.000Z</time>
      </trkpt>
      <trkpt lat="43.37658" lon="2.22808">
        <ele>648.4</ele>
        <time>2019-08-04T07:41:18.000Z</time>
      </trkpt>
      <trkpt lat="43.37659" lon="2.22808">
        <ele>648.5</ele>
        <time>2019-08-04T07:41:19.000Z</time>
      </trkpt>
      <trkpt lat="43.37659" lon="2.22808">
        <ele>648.5</ele>
        <time>2019-08-04T07:41:20.000Z</time>
      </trkpt>
      <trkpt lat="43.3766" lon="2.22808">
        <ele>648.5</ele>
        <time>2019-08-04T07:41:21.000Z</time>
      </trkpt>
      <trkpt lat="43.3766" lon="2.22808">
        <ele>648.5</ele>
        <time>2019-08-04T07:41:22.000Z</time>
      </trkpt>
      <trkpt lat="43.37661" lon="2.22808">
        <ele>648.5</ele>
        <time>2019-08-04T07:41:23.000Z</time>
      </trkpt>
      <trkpt lat="43.37661" lon="2.22808">
        <ele>648.5</ele>
        <time>2019-08-04T07:41:24.000Z</time>
      </trkpt>
      <trkpt lat="43.37661" lon="2.22808">
        <ele>648.5</ele>
        <time>2019-08-04T07:41:25.000Z</time>
      </trkpt>
      <trkpt lat="43.37661" lon="2.22808">
        <ele>648.5</ele>
        <time>2019-08-04T07:41:26.000Z</time>
      </trkpt>
      <trkpt lat="43.37662" lon="2.22808">
        <ele>648.6</ele>
        <time>2019-08-04T07:41:27.000Z</time>
      </trkpt>
      <trkpt lat="43.37662" lon="2.22808">
        <ele>648.6</ele>
        <time>2019-08-04T07:41:28.000Z</time>
      </trkpt>
      <trkpt lat="43.37662" lon="2.22808">
        <ele>648.6</ele>
        <time>2019-08-04T07:41:29.000Z</time>
      </trkpt>
      <trkpt lat="43.37662" lon="2.22808">
        <ele>648.6</ele>
        <time>2019-08-04T07:41:30.000Z</time>
      </trkpt>
      <trkpt lat="43.37662" lon="2.22808">
        <ele>648.6</ele>
        <time>2019-08-04T07:41:31.000Z</time>
      </trkpt>
      <trkpt lat="43.37662" lon="2.22808">
        <ele>648.6</ele>
        <time>2019-08-04T07:41:32.000Z</time>
      </trkpt>
      <trkpt lat="43.37662" lon="2.22808">
        <ele>648.6</ele>
        <time>2019-08-04T07:41:33.000Z</time>
      </trkpt>
      <trkpt lat="43.37662" lon="2.22808">
        <ele>648.6</ele>
        <time>2019-08-04T07:41:34.000Z</time>
      </trkpt>
      <trkpt lat="43.37662" lon="2.22808">
        <ele>648.6</ele>
        <time>2019-08-04T07:41:35.000Z</time>
      </trkpt>
      <trkpt lat="43.37662" lon="2.22808">
        <ele>648.6</ele>
        <time>2019-08-04T07:41:36.000Z</time>
      </trkpt>
      <trkpt lat="43.37662" lon="2.22808">
        <ele>648.5</ele>
        <time>2019-08-04T07:41:37.000Z</time>
      </trkpt>
      <trkpt lat="43.37662" lon="2.22808">
        <ele>648.5</ele>
        <time>2019-08-04T07:41:38.000Z</time>
      </trkpt>
      <trkpt lat="43.37661" lon="2.22808">
        <ele>648.5</ele>
        <time>2019-08-04T07:41:39.000Z</time>
      </trkpt>
      <trkpt lat="43.37661" lon="2.22808">
        <ele>648.5</ele>
        <time>2019-08-04T07:41:40.000Z</time>
      </trkpt>
      <trkpt lat="43.37661" lon="2.22808">
        <ele>648.5</ele>
        <time>2019-08-04T07:41:41.000Z</time>
      </trkpt>
      <trkpt lat="43.37661" lon="2.22808">
        <ele>648.5</ele>
        <time>2019-08-04T07:41:42.000Z</time>
      </trkpt>
      <trkpt lat="43.37661" lon="2.22808">
        <ele>648.5</ele>
        <time>2019-08-04T07:41:43.000Z</time>
      </trkpt>
      <trkpt lat="43.37661" lon="2.22808">
        <ele>648.5</ele>
        <time>2019-08-04T07:41:44.000Z</time>
      </trkpt>
      <trkpt lat="43.37661" lon="2.22808">
        <ele>648.5</ele>
        <time>2019-08-04T07:41:45.000Z</time>
      </trkpt>
      <trkpt lat="43.37661" lon="2.22808">
        <ele>648.5</ele>
        <time>2019-08-04T07:41:46.000Z</time>
      </trkpt>
      <trkpt lat="43.37661" lon="2.22808">
        <ele>648.5</ele>
        <time>2019-08-04T07:41:47.000Z</time>
      </trkpt>
      <trkpt lat="43.37661" lon="2.22808">
        <ele>648.5</ele>
        <time>2019-08-04T07:41:48.000Z</time>
      </trkpt>
      <trkpt lat="43.37661" lon="2.22808">
        <ele>648.5</ele>
        <time>2019-08-04T07:41:49.000Z</time>
      </trkpt>
      <trkpt lat="43.37661" lon="2.22808">
        <ele>648.5</ele>
        <time>2019-08-04T07:41:50.000Z</time>
      </trkpt>
      <trkpt lat="43.37661" lon="2.22808">
        <ele>648.5</ele>
        <time>2019-08-04T07:41:51.000Z</time>
      </trkpt>
      <trkpt lat="43.37661" lon="2.22808">
        <ele>648.5</ele>
        <time>2019-08-04T07:41:52.000Z</time>
      </trkpt>
      <trkpt lat="43.37661" lon="2.22808">
        <ele>648.5</ele>
        <time>2019-08-04T07:41:53.000Z</time>
      </trkpt>
      <trkpt lat="43.37661" lon="2.22808">
        <ele>648.5</ele>
        <time>2019-08-04T07:41:54.000Z</time>
      </trkpt>
      <trkpt lat="43.37661" lon="2.22808">
        <ele>648.5</ele>
        <time>2019-08-04T07:41:55.000Z</time>
      </trkpt>
      <trkpt lat="43.37661" lon="2.22808">
        <ele>648.5</ele>
        <time>2019-08-04T07:41:56.000Z</time>
      </trkpt>
      <trkpt lat="43.37661" lon="2.22808">
        <ele>648.5</ele>
        <time>2019-08-04T07:41:57.000Z</time>
      </trkpt>
      <trkpt lat="43.37661" lon="2.22808">
        <ele>648.5</ele>
        <time>2019-08-04T07:41:58.000Z</time>
      </trkpt>
      <trkpt lat="43.37661" lon="2.22808">
        <ele>648.5</ele>
        <time>2019-08-04T07:41:59.000Z</time>
      </trkpt>
      <trkpt lat="43.37661" lon="2.22808">
        <ele>648.5</ele>
        <time>2019-08-04T07:42:00.000Z</time>
      </trkpt>
      <trkpt lat="43.37661" lon="2.22808">
        <ele>648.5</ele>
        <time>2019-08-04T07:42:01.000Z</time>
      </trkpt>
      <trkpt lat="43.37661" lon="2.22808">
        <ele>648.5</ele>
        <time>2019-08-04T07:42:02.000Z</time>
      </trkpt>
      <trkpt lat="43.37661" lon="2.22808">
        <ele>648.5</ele>
        <time>2019-08-04T07:42:03.000Z</time>
      </trkpt>
      <trkpt lat="43.37661" lon="2.22808">
        <ele>648.5</ele>
        <time>2019-08-04T07:42:04.000Z</time>
      </trkpt>
      <trkpt lat="43.37662" lon="2.22808">
        <ele>648.5</ele>
        <time>2019-08-04T07:42:05.000Z</time>
      </trkpt>
      <trkpt lat="43.37662" lon="2.22808">
        <ele>648.6</ele>
        <time>2019-08-04T07:42:06.000Z</time>
      </trkpt>
      <trkpt lat="43.37663" lon="2.22808">
        <ele>648.6</ele>
        <time>2019-08-04T07:42:07.000Z</time>
      </trkpt>
      <trkpt lat="43.37663" lon="2.22808">
        <ele>648.6</ele>
        <time>2019-08-04T07:42:08.000Z</time>
      </trkpt>
      <trkpt lat="43.37664" lon="2.22808">
        <ele>648.6</ele>
        <time>2019-08-04T07:42:09.000Z</time>
      </trkpt>
      <trkpt lat="43.37664" lon="2.22809">
        <ele>648.6</ele>
        <time>2019-08-04T07:42:10.000Z</time>
      </trkpt>
      <trkpt lat="43.37664" lon="2.22809">
        <ele>648.6</ele>
        <time>2019-08-04T07:42:11.000Z</time>
      </trkpt>
      <trkpt lat="43.37665" lon="2.22809">
        <ele>648.6</ele>
        <time>2019-08-04T07:42:12.000Z</time>
      </trkpt>
      <trkpt lat="43.37665" lon="2.22809">
        <ele>648.6</ele>
        <time>2019-08-04T07:42:13.000Z</time>
      </trkpt>
      <trkpt lat="43.37665" lon="2.22809">
        <ele>648.6</ele>
        <time>2019-08-04T07:42:14.000Z</time>
      </trkpt>
      <trkpt lat="43.37665" lon="2.22809">
        <ele>648.6</ele>
        <time>2019-08-04T07:42:15.000Z</time>
      </trkpt>
      <trkpt lat="43.37665" lon="2.22809">
        <ele>648.6</ele>
        <time>2019-08-04T07:42:16.000Z</time>
      </trkpt>
      <trkpt lat="43.37665" lon="2.22809">
        <ele>648.6</ele>
        <time>2019-08-04T07:42:17.000Z</time>
      </trkpt>
      <trkpt lat="43.37665" lon="2.22809">
        <ele>648.6</ele>
        <time>2019-08-04T07:42:18.000Z</time>
      </trkpt>
      <trkpt lat="43.37665" lon="2.22809">
        <ele>648.6</ele>
        <time>2019-08-04T07:42:19.000Z</time>
      </trkpt>
      <trkpt lat="43.37665" lon="2.22808">
        <ele>648.6</ele>
        <time>2019-08-04T07:42:20.000Z</time>
      </trkpt>
      <trkpt lat="43.37665" lon="2.22808">
        <ele>648.7</ele>
        <time>2019-08-04T07:42:21.000Z</time>
      </trkpt>
      <trkpt lat="43.37665" lon="2.22808">
        <ele>648.7</ele>
        <time>2019-08-04T07:42:22.000Z</time>
      </trkpt>
      <trkpt lat="43.37666" lon="2.22808">
        <ele>648.7</ele>
        <time>2019-08-04T07:42:23.000Z</time>
      </trkpt>
      <trkpt lat="43.37666" lon="2.22808">
        <ele>648.7</ele>
        <time>2019-08-04T07:42:24.000Z</time>
      </trkpt>
      <trkpt lat="43.37666" lon="2.22808">
        <ele>648.7</ele>
        <time>2019-08-04T07:42:25.000Z</time>
      </trkpt>
      <trkpt lat="43.37667" lon="2.22808">
        <ele>648.7</ele>
        <time>2019-08-04T07:42:26.000Z</time>
      </trkpt>
      <trkpt lat="43.37667" lon="2.22808">
        <ele>648.7</ele>
        <time>2019-08-04T07:42:27.000Z</time>
      </trkpt>
      <trkpt lat="43.37667" lon="2.22808">
        <ele>648.7</ele>
        <time>2019-08-04T07:42:28.000Z</time>
      </trkpt>
      <trkpt lat="43.37667" lon="2.22808">
        <ele>648.7</ele>
        <time>2019-08-04T07:42:29.000Z</time>
      </trkpt>
      <trkpt lat="43.37667" lon="2.22808">
        <ele>648.7</ele>
        <time>2019-08-04T07:42:30.000Z</time>
      </trkpt>
      <trkpt lat="43.37667" lon="2.22808">
        <ele>648.7</ele>
        <time>2019-08-04T07:42:31.000Z</time>
      </trkpt>
      <trkpt lat="43.37667" lon="2.22808">
        <ele>648.7</ele>
        <time>2019-08-04T07:42:32.000Z</time>
      </trkpt>
      <trkpt lat="43.37667" lon="2.22808">
        <ele>648.7</ele>
        <time>2019-08-04T07:42:33.000Z</time>
      </trkpt>
      <trkpt lat="43.37667" lon="2.22808">
        <ele>648.7</ele>
        <time>2019-08-04T07:42:34.000Z</time>
      </trkpt>
      <trkpt lat="43.37667" lon="2.22808">
        <ele>648.7</ele>
        <time>2019-08-04T07:42:35.000Z</time>
      </trkpt>
      <trkpt lat="43.37667" lon="2.22808">
        <ele>648.7</ele>
        <time>2019-08-04T07:42:36.000Z</time>
      </trkpt>
      <trkpt lat="43.37667" lon="2.22808">
        <ele>648.7</ele>
        <time>2019-08-04T07:42:37.000Z</time>
      </trkpt>
      <trkpt lat="43.37667" lon="2.22808">
        <ele>648.7</ele>
        <time>2019-08-04T07:42:38.000Z</time>
      </trkpt>
      <trkpt lat="43.37667" lon="2.22808">
        <ele>648.7</ele>
        <time>2019-08-04T07:42:39.000Z</time>
      </trkpt>
      <trkpt lat="43.37667" lon="2.22808">
        <ele>648.7</ele>
        <time>2019-08-04T07:42:40.000Z</time>
      </trkpt>
      <trkpt lat="43.37667" lon="2.22808">
        <ele>648.7</ele>
        <time>2019-08-04T07:42:41.000Z</time>
      </trkpt>
      <trkpt lat="43.37667" lon="2.22808">
        <ele>648.7</ele>
        <time>2019-08-04T07:42:42.000Z</time>
      </trkpt>
      <trkpt lat="43.37667" lon="2.22808">
        <ele>648.7</ele>
        <time>2019-08-04T07:42:43.000Z</time>
      </trkpt>
      <trkpt lat="43.37667" lon="2.22808">
        <ele>648.7</ele>
        <time>2019-08-04T07:42:44.000Z</time>
      </trkpt>
      <trkpt lat="43.37667" lon="2.22808">
        <ele>648.7</ele>
        <time>2019-08-04T07:42:45.000Z</time>
      </trkpt>
      <trkpt lat="43.37667" lon="2.22808">
        <ele>648.7</ele>
        <time>2019-08-04T07:42:46.000Z</time>
      </trkpt>
      <trkpt lat="43.37667" lon="2.22808">
        <ele>648.7</ele>
        <time>2019-08-04T07:42:47.000Z</time>
      </trkpt>
      <trkpt lat="43.37667" lon="2.22808">
        <ele>648.7</ele>
        <time>2019-08-04T07:42:48.000Z</time>
      </trkpt>
      <trkpt lat="43.37667" lon="2.22808">
        <ele>648.7</ele>
        <time>2019-08-04T07:42:49.000Z</time>
      </trkpt>
      <trkpt lat="43.37667" lon="2.22808">
        <ele>648.7</ele>
        <time>2019-08-04T07:42:50.000Z</time>
      </trkpt>
      <trkpt lat="43.37667" lon="2.22808">
        <ele>648.7</ele>
        <time>2019-08-04T07:42:51.000Z</time>
      </trkpt>
      <trkpt lat="43.37667" lon="2.22808">
        <ele>648.7</ele>
        <time>2019-08-04T07:42:52.000Z</time>
      </trkpt>
      <trkpt lat="43.37667" lon="2.22808">
        <ele>648.7</ele>
        <time>2019-08-04T07:42:53.000Z</time>
      </trkpt>
      <trkpt lat="43.37667" lon="2.22808">
        <ele>648.7</ele>
        <time>2019-08-04T07:42:54.000Z</time>
      </trkpt>
      <trkpt lat="43.37667" lon="2.22808">
        <ele>648.7</ele>
        <time>2019-08-04T07:42:55.000Z</time>
      </trkpt>
      <trkpt lat="43.37667" lon="2.22808">
        <ele>648.7</ele>
        <time>2019-08-04T07:42:56.000Z</time>
      </trkpt>
      <trkpt lat="43.37667" lon="2.22808">
        <ele>648.7</ele>
        <time>2019-08-04T07:42:57.000Z</time>
      </trkpt>
      <trkpt lat="43.37667" lon="2.22808">
        <ele>648.7</ele>
        <time>2019-08-04T07:42:58.000Z</time>
      </trkpt>
      <trkpt lat="43.37667" lon="2.22808">
        <ele>648.7</ele>
        <time>2019-08-04T07:42:59.000Z</time>
      </trkpt>
      <trkpt lat="43.37667" lon="2.22808">
        <ele>648.7</ele>
        <time>2019-08-04T07:43:00.000Z</time>
      </trkpt>
      <trkpt lat="43.37667" lon="2.22808">
        <ele>648.7</ele>
        <time>2019-08-04T07:43:01.000Z</time>
      </trkpt>
      <trkpt lat="43.37667" lon="2.22808">
        <ele>648.7</ele>
        <time>2019-08-04T07:43:02.000Z</time>
      </trkpt>
      <trkpt lat="43.37667" lon="2.22808">
        <ele>648.7</ele>
        <time>2019-08-04T07:43:03.000Z</time>
      </trkpt>
      <trkpt lat="43.37667" lon="2.22807">
        <ele>648.7</ele>
        <time>2019-08-04T07:43:04.000Z</time>
      </trkpt>
      <trkpt lat="43.37667" lon="2.22807">
        <ele>648.7</ele>
        <time>2019-08-04T07:43:05.000Z</time>
      </trkpt>
      <trkpt lat="43.37667" lon="2.22807">
        <ele>648.7</ele>
        <time>2019-08-04T07:43:06.000Z</time>
      </trkpt>
      <trkpt lat="43.37667" lon="2.22807">
        <ele>648.7</ele>
        <time>2019-08-04T07:43:07.000Z</time>
      </trkpt>
      <trkpt lat="43.37667" lon="2.22807">
        <ele>648.7</ele>
        <time>2019-08-04T07:43:08.000Z</time>
      </trkpt>
      <trkpt lat="43.37667" lon="2.22807">
        <ele>648.7</ele>
        <time>2019-08-04T07:43:09.000Z</time>
      </trkpt>
      <trkpt lat="43.37666" lon="2.22807">
        <ele>648.7</ele>
        <time>2019-08-04T07:43:10.000Z</time>
      </trkpt>
      <trkpt lat="43.37666" lon="2.22807">
        <ele>648.7</ele>
        <time>2019-08-04T07:43:11.000Z</time>
      </trkpt>
      <trkpt lat="43.37666" lon="2.22806">
        <ele>648.7</ele>
        <time>2019-08-04T07:43:12.000Z</time>
      </trkpt>
      <trkpt lat="43.37666" lon="2.22806">
        <ele>648.7</ele>
        <time>2019-08-04T07:43:13.000Z</time>
      </trkpt>
      <trkpt lat="43.37666" lon="2.22806">
        <ele>648.7</ele>
        <time>2019-08-04T07:43:14.000Z</time>
      </trkpt>
      <trkpt lat="43.37666" lon="2.22805">
        <ele>648.6</ele>
        <time>2019-08-04T07:43:15.000Z</time>
      </trkpt>
      <trkpt lat="43.37666" lon="2.22805">
        <ele>648.6</ele>
        <time>2019-08-04T07:43:16.000Z</time>
      </trkpt>
      <trkpt lat="43.37666" lon="2.22804">
        <ele>648.6</ele>
        <time>2019-08-04T07:43:17.000Z</time>
      </trkpt>
      <trkpt lat="43.37666" lon="2.22803">
        <ele>648.6</ele>
        <time>2019-08-04T07:43:18.000Z</time>
      </trkpt>
      <trkpt lat="43.37666" lon="2.22803">
        <ele>648.6</ele>
        <time>2019-08-04T07:43:19.000Z</time>
      </trkpt>
      <trkpt lat="43.37666" lon="2.22802">
        <ele>648.6</ele>
        <time>2019-08-04T07:43:20.000Z</time>
      </trkpt>
      <trkpt lat="43.37667" lon="2.22801">
        <ele>648.6</ele>
        <time>2019-08-04T07:43:21.000Z</time>
      </trkpt>
      <trkpt lat="43.37667" lon="2.228">
        <ele>648.6</ele>
        <time>2019-08-04T07:43:22.000Z</time>
      </trkpt>
      <trkpt lat="43.37667" lon="2.22798">
        <ele>648.6</ele>
        <time>2019-08-04T07:43:23.000Z</time>
      </trkpt>
      <trkpt lat="43.37667" lon="2.22797">
        <ele>648.6</ele>
        <time>2019-08-04T07:43:24.000Z</time>
      </trkpt>
      <trkpt lat="43.37667" lon="2.22796">
        <ele>648.6</ele>
        <time>2019-08-04T07:43:25.000Z</time>
      </trkpt>
      <trkpt lat="43.37667" lon="2.22794">
        <ele>648.6</ele>
        <time>2019-08-04T07:43:26.000Z</time>
      </trkpt>
      <trkpt lat="43.37668" lon="2.22793">
        <ele>648.5</ele>
        <time>2019-08-04T07:43:27.000Z</time>
      </trkpt>
      <trkpt lat="43.37668" lon="2.22792">
        <ele>648.5</ele>
        <time>2019-08-04T07:43:28.000Z</time>
      </trkpt>
      <trkpt lat="43.37668" lon="2.2279">
        <ele>648.5</ele>
        <time>2019-08-04T07:43:29.000Z</time>
      </trkpt>
      <trkpt lat="43.37669" lon="2.22789">
        <ele>648.5</ele>
        <time>2019-08-04T07:43:30.000Z</time>
      </trkpt>
      <trkpt lat="43.37669" lon="2.22787">
        <ele>648.5</ele>
        <time>2019-08-04T07:43:31.000Z</time>
      </trkpt>
      <trkpt lat="43.3767" lon="2.22786">
        <ele>648.5</ele>
        <time>2019-08-04T07:43:32.000Z</time>
      </trkpt>
      <trkpt lat="43.3767" lon="2.22784">
        <ele>648.5</ele>
        <time>2019-08-04T07:43:33.000Z</time>
      </trkpt>
      <trkpt lat="43.37671" lon="2.22783">
        <ele>648.5</ele>
        <time>2019-08-04T07:43:34.000Z</time>
      </trkpt>
      <trkpt lat="43.37672" lon="2.22782">
        <ele>648.5</ele>
        <time>2019-08-04T07:43:35.000Z</time>
      </trkpt>
      <trkpt lat="43.37672" lon="2.2278">
        <ele>648.5</ele>
        <time>2019-08-04T07:43:36.000Z</time>
      </trkpt>
      <trkpt lat="43.37673" lon="2.22779">
        <ele>648.5</ele>
        <time>2019-08-04T07:43:37.000Z</time>
      </trkpt>
      <trkpt lat="43.37674" lon="2.22778">
        <ele>648.5</ele>
        <time>2019-08-04T07:43:38.000Z</time>
      </trkpt>
      <trkpt lat="43.37675" lon="2.22777">
        <ele>648.5</ele>
        <time>2019-08-04T07:43:39.000Z</time>
      </trkpt>
      <trkpt lat="43.37676" lon="2.22776">
        <ele>648.5</ele>
        <time>2019-08-04T07:43:40.000Z</time>
      </trkpt>
      <trkpt lat="43.37676" lon="2.22775">
        <ele>648.5</ele>
        <time>2019-08-04T07:43:41.000Z</time>
      </trkpt>
      <trkpt lat="43.37677" lon="2.22774">
        <ele>648.5</ele>
        <time>2019-08-04T07:43:42.000Z</time>
      </trkpt>
      <trkpt lat="43.37678" lon="2.22772">
        <ele>648.5</ele>
        <time>2019-08-04T07:43:43.000Z</time>
      </trkpt>
      <trkpt lat="43.37679" lon="2.2277">
        <ele>648.5</ele>
        <time>2019-08-04T07:43:44.000Z</time>
      </trkpt>
      <trkpt lat="43.3768" lon="2.22769">
        <ele>648.4</ele>
        <time>2019-08-04T07:43:45.000Z</time>
      </trkpt>
      <trkpt lat="43.37681" lon="2.22767">
        <ele>648.4</ele>
        <time>2019-08-04T07:43:46.000Z</time>
      </trkpt>
      <trkpt lat="43.37681" lon="2.22764">
        <ele>648.4</ele>
        <time>2019-08-04T07:43:47.000Z</time>
      </trkpt>
      <trkpt lat="43.37682" lon="2.22762">
        <ele>648.4</ele>
        <time>2019-08-04T07:43:48.000Z</time>
      </trkpt>
      <trkpt lat="43.37683" lon="2.2276">
        <ele>648.4</ele>
        <time>2019-08-04T07:43:49.000Z</time>
      </trkpt>
      <trkpt lat="43.37683" lon="2.22758">
        <ele>648.3</ele>
        <time>2019-08-04T07:43:50.000Z</time>
      </trkpt>
      <trkpt lat="43.37684" lon="2.22756">
        <ele>648.3</ele>
        <time>2019-08-04T07:43:51.000Z</time>
      </trkpt>
      <trkpt lat="43.37684" lon="2.22755">
        <ele>648.3</ele>
        <time>2019-08-04T07:43:52.000Z</time>
      </trkpt>
      <trkpt lat="43.37685" lon="2.22753">
        <ele>648.3</ele>
        <time>2019-08-04T07:43:53.000Z</time>
      </trkpt>
      <trkpt lat="43.37686" lon="2.22752">
        <ele>648.3</ele>
        <time>2019-08-04T07:43:54.000Z</time>
      </trkpt>
      <trkpt lat="43.37686" lon="2.22751">
        <ele>648.2</ele>
        <time>2019-08-04T07:43:55.000Z</time>
      </trkpt>
      <trkpt lat="43.37687" lon="2.2275">
        <ele>648.2</ele>
        <time>2019-08-04T07:43:56.000Z</time>
      </trkpt>
      <trkpt lat="43.37687" lon="2.22748">
        <ele>648.2</ele>
        <time>2019-08-04T07:43:57.000Z</time>
      </trkpt>
      <trkpt lat="43.37688" lon="2.22747">
        <ele>648.2</ele>
        <time>2019-08-04T07:43:58.000Z</time>
      </trkpt>
      <trkpt lat="43.37688" lon="2.22745">
        <ele>648.2</ele>
        <time>2019-08-04T07:43:59.000Z</time>
      </trkpt>
      <trkpt lat="43.37689" lon="2.22743">
        <ele>648.2</ele>
        <time>2019-08-04T07:44:00.000Z</time>
      </trkpt>
      <trkpt lat="43.3769" lon="2.22741">
        <ele>648.1</ele>
        <time>2019-08-04T07:44:01.000Z</time>
      </trkpt>
      <trkpt lat="43.37691" lon="2.22739">
        <ele>648.1</ele>
        <time>2019-08-04T07:44:02.000Z</time>
      </trkpt>
      <trkpt lat="43.37692" lon="2.22736">
        <ele>648.1</ele>
        <time>2019-08-04T07:44:03.000Z</time>
      </trkpt>
      <trkpt lat="43.37693" lon="2.22734">
        <ele>648.1</ele>
        <time>2019-08-04T07:44:04.000Z</time>
      </trkpt>
      <trkpt lat="43.37694" lon="2.22731">
        <ele>648</ele>
        <time>2019-08-04T07:44:05.000Z</time>
      </trkpt>
      <trkpt lat="43.37695" lon="2.22728">
        <ele>648</ele>
        <time>2019-08-04T07:44:06.000Z</time>
      </trkpt>
      <trkpt lat="43.37696" lon="2.22726">
        <ele>648</ele>
        <time>2019-08-04T07:44:07.000Z</time>
      </trkpt>
      <trkpt lat="43.37698" lon="2.22723">
        <ele>647.9</ele>
        <time>2019-08-04T07:44:08.000Z</time>
      </trkpt>
      <trkpt lat="43.37699" lon="2.2272">
        <ele>647.9</ele>
        <time>2019-08-04T07:44:09.000Z</time>
      </trkpt>
      <trkpt lat="43.37701" lon="2.22717">
        <ele>647.9</ele>
        <time>2019-08-04T07:44:10.000Z</time>
      </trkpt>
      <trkpt lat="43.37702" lon="2.22714">
        <ele>647.8</ele>
        <time>2019-08-04T07:44:11.000Z</time>
      </trkpt>
      <trkpt lat="43.37704" lon="2.22711">
        <ele>647.8</ele>
        <time>2019-08-04T07:44:12.000Z</time>
      </trkpt>
      <trkpt lat="43.37705" lon="2.22708">
        <ele>647.7</ele>
        <time>2019-08-04T07:44:13.000Z</time>
      </trkpt>
      <trkpt lat="43.37707" lon="2.22705">
        <ele>647.7</ele>
        <time>2019-08-04T07:44:14.000Z</time>
      </trkpt>
      <trkpt lat="43.37708" lon="2.22702">
        <ele>647.6</ele>
        <time>2019-08-04T07:44:15.000Z</time>
      </trkpt>
      <trkpt lat="43.37709" lon="2.22699">
        <ele>647.6</ele>
        <time>2019-08-04T07:44:16.000Z</time>
      </trkpt>
      <trkpt lat="43.3771" lon="2.22696">
        <ele>647.5</ele>
        <time>2019-08-04T07:44:17.000Z</time>
      </trkpt>
      <trkpt lat="43.37711" lon="2.22693">
        <ele>647.5</ele>
        <time>2019-08-04T07:44:18.000Z</time>
      </trkpt>
      <trkpt lat="43.37712" lon="2.2269">
        <ele>647.4</ele>
        <time>2019-08-04T07:44:19.000Z</time>
      </trkpt>
      <trkpt lat="43.37713" lon="2.22687">
        <ele>647.4</ele>
        <time>2019-08-04T07:44:20.000Z</time>
      </trkpt>
      <trkpt lat="43.37715" lon="2.22684">
        <ele>647.3</ele>
        <time>2019-08-04T07:44:21.000Z</time>
      </trkpt>
      <trkpt lat="43.37716" lon="2.22681">
        <ele>647.3</ele>
        <time>2019-08-04T07:44:22.000Z</time>
      </trkpt>
      <trkpt lat="43.37717" lon="2.22678">
        <ele>647.2</ele>
        <time>2019-08-04T07:44:23.000Z</time>
      </trkpt>
      <trkpt lat="43.37718" lon="2.22675">
        <ele>647.2</ele>
        <time>2019-08-04T07:44:24.000Z</time>
      </trkpt>
      <trkpt lat="43.37719" lon="2.22672">
        <ele>647.1</ele>
        <time>2019-08-04T07:44:25.000Z</time>
      </trkpt>
      <trkpt lat="43.3772" lon="2.22669">
        <ele>647</ele>
        <time>2019-08-04T07:44:26.000Z</time>
      </trkpt>
      <trkpt lat="43.3772" lon="2.22666">
        <ele>647</ele>
        <time>2019-08-04T07:44:27.000Z</time>
      </trkpt>
      <trkpt lat="43.37721" lon="2.22663">
        <ele>647</ele>
        <time>2019-08-04T07:44:28.000Z</time>
      </trkpt>
      <trkpt lat="43.37723" lon="2.2266">
        <ele>647</ele>
        <time>2019-08-04T07:44:29.000Z</time>
      </trkpt>
      <trkpt lat="43.37724" lon="2.22657">
        <ele>647</ele>
        <time>2019-08-04T07:44:30.000Z</time>
      </trkpt>
      <trkpt lat="43.37725" lon="2.22654">
        <ele>647.1</ele>
        <time>2019-08-04T07:44:31.000Z</time>
      </trkpt>
      <trkpt lat="43.37726" lon="2.22652">
        <ele>647.1</ele>
        <time>2019-08-04T07:44:32.000Z</time>
      </trkpt>
      <trkpt lat="43.37727" lon="2.22649">
        <ele>647.1</ele>
        <time>2019-08-04T07:44:33.000Z</time>
      </trkpt>
      <trkpt lat="43.37728" lon="2.22646">
        <ele>647.1</ele>
        <time>2019-08-04T07:44:34.000Z</time>
      </trkpt>
      <trkpt lat="43.37729" lon="2.22643">
        <ele>647.1</ele>
        <time>2019-08-04T07:44:35.000Z</time>
      </trkpt>
      <trkpt lat="43.3773" lon="2.22641">
        <ele>647.2</ele>
        <time>2019-08-04T07:44:36.000Z</time>
      </trkpt>
      <trkpt lat="43.37731" lon="2.22638">
        <ele>647.2</ele>
        <time>2019-08-04T07:44:37.000Z</time>
      </trkpt>
      <trkpt lat="43.37732" lon="2.22635">
        <ele>647.2</ele>
        <time>2019-08-04T07:44:38.000Z</time>
      </trkpt>
      <trkpt lat="43.37734" lon="2.22633">
        <ele>647.2</ele>
        <time>2019-08-04T07:44:39.000Z</time>
      </trkpt>
      <trkpt lat="43.37735" lon="2.2263">
        <ele>647.3</ele>
        <time>2019-08-04T07:44:40.000Z</time>
      </trkpt>
      <trkpt lat="43.37736" lon="2.22627">
        <ele>647.3</ele>
        <time>2019-08-04T07:44:41.000Z</time>
      </trkpt>
      <trkpt lat="43.37737" lon="2.22624">
        <ele>647.4</ele>
        <time>2019-08-04T07:44:42.000Z</time>
      </trkpt>
      <trkpt lat="43.37738" lon="2.2262">
        <ele>647.4</ele>
        <time>2019-08-04T07:44:43.000Z</time>
      </trkpt>
      <trkpt lat="43.37739" lon="2.22617">
        <ele>647.4</ele>
        <time>2019-08-04T07:44:44.000Z</time>
      </trkpt>
      <trkpt lat="43.37739" lon="2.22613">
        <ele>647.5</ele>
        <time>2019-08-04T07:44:45.000Z</time>
      </trkpt>
      <trkpt lat="43.3774" lon="2.22609">
        <ele>647.5</ele>
        <time>2019-08-04T07:44:46.000Z</time>
      </trkpt>
      <trkpt lat="43.37741" lon="2.22605">
        <ele>647.6</ele>
        <time>2019-08-04T07:44:47.000Z</time>
      </trkpt>
      <trkpt lat="43.37742" lon="2.22602">
        <ele>647.6</ele>
        <time>2019-08-04T07:44:48.000Z</time>
      </trkpt>
      <trkpt lat="43.37743" lon="2.22598">
        <ele>647.7</ele>
        <time>2019-08-04T07:44:49.000Z</time>
      </trkpt>
      <trkpt lat="43.37744" lon="2.22594">
        <ele>647.7</ele>
        <time>2019-08-04T07:44:50.000Z</time>
      </trkpt>
      <trkpt lat="43.37745" lon="2.22591">
        <ele>647.8</ele>
        <time>2019-08-04T07:44:51.000Z</time>
      </trkpt>
      <trkpt lat="43.37746" lon="2.22587">
        <ele>647.9</ele>
        <time>2019-08-04T07:44:52.000Z</time>
      </trkpt>
      <trkpt lat="43.37748" lon="2.22584">
        <ele>647.9</ele>
        <time>2019-08-04T07:44:53.000Z</time>
      </trkpt>
      <trkpt lat="43.3775" lon="2.22581">
        <ele>648</ele>
        <time>2019-08-04T07:44:54.000Z</time>
      </trkpt>
      <trkpt lat="43.37751" lon="2.22578">
        <ele>648</ele>
        <time>2019-08-04T07:44:55.000Z</time>
      </trkpt>
      <trkpt lat="43.37752" lon="2.22575">
        <ele>648</ele>
        <time>2019-08-04T07:44:56.000Z</time>
      </trkpt>
      <trkpt lat="43.37754" lon="2.22572">
        <ele>648</ele>
        <time>2019-08-04T07:44:57.000Z</time>
      </trkpt>
      <trkpt lat="43.37755" lon="2.22569">
        <ele>648</ele>
        <time>2019-08-04T07:44:58.000Z</time>
      </trkpt>
      <trkpt lat="43.37755" lon="2.22566">
        <ele>648</ele>
        <time>2019-08-04T07:44:59.000Z</time>
      </trkpt>
      <trkpt lat="43.37756" lon="2.22563">
        <ele>647.9</ele>
        <time>2019-08-04T07:45:00.000Z</time>
      </trkpt>
      <trkpt lat="43.37756" lon="2.2256">
        <ele>647.9</ele>
        <time>2019-08-04T07:45:01.000Z</time>
      </trkpt>
      <trkpt lat="43.37756" lon="2.22556">
        <ele>647.9</ele>
        <time>2019-08-04T07:45:02.000Z</time>
      </trkpt>
      <trkpt lat="43.37756" lon="2.22553">
        <ele>647.9</ele>
        <time>2019-08-04T07:45:03.000Z</time>
      </trkpt>
      <trkpt lat="43.37755" lon="2.2255">
        <ele>647.9</ele>
        <time>2019-08-04T07:45:04.000Z</time>
      </trkpt>
      <trkpt lat="43.37754" lon="2.22547">
        <ele>647.9</ele>
        <time>2019-08-04T07:45:05.000Z</time>
      </trkpt>
      <trkpt lat="43.37754" lon="2.22544">
        <ele>647.9</ele>
        <time>2019-08-04T07:45:06.000Z</time>
      </trkpt>
      <trkpt lat="43.37752" lon="2.22541">
        <ele>648</ele>
        <time>2019-08-04T07:45:07.000Z</time>
      </trkpt>
      <trkpt lat="43.37751" lon="2.22538">
        <ele>648</ele>
        <time>2019-08-04T07:45:08.000Z</time>
      </trkpt>
      <trkpt lat="43.3775" lon="2.22535">
        <ele>648</ele>
        <time>2019-08-04T07:45:09.000Z</time>
      </trkpt>
      <trkpt lat="43.37749" lon="2.22532">
        <ele>648</ele>
        <time>2019-08-04T07:45:10.000Z</time>
      </trkpt>
      <trkpt lat="43.37748" lon="2.22529">
        <ele>648</ele>
        <time>2019-08-04T07:45:11.000Z</time>
      </trkpt>
      <trkpt lat="43.37747" lon="2.22526">
        <ele>647.9</ele>
        <time>2019-08-04T07:45:12.000Z</time>
      </trkpt>
      <trkpt lat="43.37746" lon="2.22522">
        <ele>647.9</ele>
        <time>2019-08-04T07:45:13.000Z</time>
      </trkpt>
      <trkpt lat="43.37745" lon="2.22519">
        <ele>647.9</ele>
        <time>2019-08-04T07:45:14.000Z</time>
      </trkpt>
      <trkpt lat="43.37744" lon="2.22515">
        <ele>647.9</ele>
        <time>2019-08-04T07:45:15.000Z</time>
      </trkpt>
      <trkpt lat="43.37744" lon="2.22511">
        <ele>647.9</ele>
        <time>2019-08-04T07:45:16.000Z</time>
      </trkpt>
      <trkpt lat="43.37744" lon="2.22507">
        <ele>647.9</ele>
        <time>2019-08-04T07:45:17.000Z</time>
      </trkpt>
      <trkpt lat="43.37743" lon="2.22502">
        <ele>647.9</ele>
        <time>2019-08-04T07:45:18.000Z</time>
      </trkpt>
      <trkpt lat="43.37743" lon="2.22499">
        <ele>647.8</ele>
        <time>2019-08-04T07:45:19.000Z</time>
      </trkpt>
      <trkpt lat="43.37743" lon="2.22495">
        <ele>647.7</ele>
        <time>2019-08-04T07:45:20.000Z</time>
      </trkpt>
      <trkpt lat="43.37742" lon="2.22491">
        <ele>647.5</ele>
        <time>2019-08-04T07:45:21.000Z</time>
      </trkpt>
      <trkpt lat="43.37742" lon="2.22488">
        <ele>647.4</ele>
        <time>2019-08-04T07:45:22.000Z</time>
      </trkpt>
      <trkpt lat="43.37741" lon="2.22485">
        <ele>647.2</ele>
        <time>2019-08-04T07:45:23.000Z</time>
      </trkpt>
      <trkpt lat="43.3774" lon="2.22482">
        <ele>647.1</ele>
        <time>2019-08-04T07:45:24.000Z</time>
      </trkpt>
      <trkpt lat="43.3774" lon="2.22479">
        <ele>646.9</ele>
        <time>2019-08-04T07:45:25.000Z</time>
      </trkpt>
      <trkpt lat="43.37739" lon="2.22476">
        <ele>646.8</ele>
        <time>2019-08-04T07:45:26.000Z</time>
      </trkpt>
      <trkpt lat="43.37739" lon="2.22473">
        <ele>646.7</ele>
        <time>2019-08-04T07:45:27.000Z</time>
      </trkpt>
      <trkpt lat="43.37738" lon="2.2247">
        <ele>646.5</ele>
        <time>2019-08-04T07:45:28.000Z</time>
      </trkpt>
      <trkpt lat="43.37737" lon="2.22467">
        <ele>646.4</ele>
        <time>2019-08-04T07:45:29.000Z</time>
      </trkpt>
      <trkpt lat="43.37737" lon="2.22463">
        <ele>646.2</ele>
        <time>2019-08-04T07:45:30.000Z</time>
      </trkpt>
      <trkpt lat="43.37736" lon="2.2246">
        <ele>646.1</ele>
        <time>2019-08-04T07:45:31.000Z</time>
      </trkpt>
      <trkpt lat="43.37736" lon="2.22456">
        <ele>645.9</ele>
        <time>2019-08-04T07:45:32.000Z</time>
      </trkpt>
      <trkpt lat="43.37735" lon="2.22452">
        <ele>645.7</ele>
        <time>2019-08-04T07:45:33.000Z</time>
      </trkpt>
      <trkpt lat="43.37735" lon="2.22448">
        <ele>645.6</ele>
        <time>2019-08-04T07:45:34.000Z</time>
      </trkpt>
      <trkpt lat="43.37734" lon="2.22445">
        <ele>645.4</ele>
        <time>2019-08-04T07:45:35.000Z</time>
      </trkpt>
      <trkpt lat="43.37733" lon="2.22441">
        <ele>645.3</ele>
        <time>2019-08-04T07:45:36.000Z</time>
      </trkpt>
      <trkpt lat="43.37733" lon="2.22437">
        <ele>645.1</ele>
        <time>2019-08-04T07:45:37.000Z</time>
      </trkpt>
      <trkpt lat="43.37732" lon="2.22434">
        <ele>644.9</ele>
        <time>2019-08-04T07:45:38.000Z</time>
      </trkpt>
      <trkpt lat="43.37731" lon="2.2243">
        <ele>644.8</ele>
        <time>2019-08-04T07:45:39.000Z</time>
      </trkpt>
      <trkpt lat="43.3773" lon="2.22426">
        <ele>644.6</ele>
        <time>2019-08-04T07:45:40.000Z</time>
      </trkpt>
      <trkpt lat="43.37729" lon="2.22423">
        <ele>644.5</ele>
        <time>2019-08-04T07:45:41.000Z</time>
      </trkpt>
      <trkpt lat="43.37728" lon="2.22419">
        <ele>644.4</ele>
        <time>2019-08-04T07:45:42.000Z</time>
      </trkpt>
      <trkpt lat="43.37728" lon="2.22415">
        <ele>644.2</ele>
        <time>2019-08-04T07:45:43.000Z</time>
      </trkpt>
      <trkpt lat="43.37727" lon="2.22412">
        <ele>644</ele>
        <time>2019-08-04T07:45:44.000Z</time>
      </trkpt>
      <trkpt lat="43.37726" lon="2.22408">
        <ele>643.8</ele>
        <time>2019-08-04T07:45:45.000Z</time>
      </trkpt>
      <trkpt lat="43.37725" lon="2.22405">
        <ele>643.6</ele>
        <time>2019-08-04T07:45:46.000Z</time>
      </trkpt>
      <trkpt lat="43.37724" lon="2.22401">
        <ele>643.4</ele>
        <time>2019-08-04T07:45:47.000Z</time>
      </trkpt>
      <trkpt lat="43.37723" lon="2.22398">
        <ele>643.2</ele>
        <time>2019-08-04T07:45:48.000Z</time>
      </trkpt>
      <trkpt lat="43.37722" lon="2.22394">
        <ele>643</ele>
        <time>2019-08-04T07:45:49.000Z</time>
      </trkpt>
      <trkpt lat="43.37722" lon="2.22391">
        <ele>642.8</ele>
        <time>2019-08-04T07:45:50.000Z</time>
      </trkpt>
      <trkpt lat="43.37721" lon="2.22387">
        <ele>642.6</ele>
        <time>2019-08-04T07:45:51.000Z</time>
      </trkpt>
      <trkpt lat="43.3772" lon="2.22384">
        <ele>642.4</ele>
        <time>2019-08-04T07:45:52.000Z</time>
      </trkpt>
      <trkpt lat="43.3772" lon="2.2238">
        <ele>642.2</ele>
        <time>2019-08-04T07:45:53.000Z</time>
      </trkpt>
      <trkpt lat="43.37719" lon="2.22376">
        <ele>642</ele>
        <time>2019-08-04T07:45:54.000Z</time>
      </trkpt>
      <trkpt lat="43.37718" lon="2.22373">
        <ele>641.8</ele>
        <time>2019-08-04T07:45:55.000Z</time>
      </trkpt>
      <trkpt lat="43.37718" lon="2.22369">
        <ele>641.5</ele>
        <time>2019-08-04T07:45:56.000Z</time>
      </trkpt>
      <trkpt lat="43.37717" lon="2.22366">
        <ele>641.3</ele>
        <time>2019-08-04T07:45:57.000Z</time>
      </trkpt>
      <trkpt lat="43.37717" lon="2.22362">
        <ele>641.1</ele>
        <time>2019-08-04T07:45:58.000Z</time>
      </trkpt>
      <trkpt lat="43.37716" lon="2.22359">
        <ele>640.9</ele>
        <time>2019-08-04T07:45:59.000Z</time>
      </trkpt>
      <trkpt lat="43.37716" lon="2.22355">
        <ele>640.7</ele>
        <time>2019-08-04T07:46:00.000Z</time>
      </trkpt>
      <trkpt lat="43.37715" lon="2.22351">
        <ele>640.5</ele>
        <time>2019-08-04T07:46:01.000Z</time>
      </trkpt>
      <trkpt lat="43.37715" lon="2.22348">
        <ele>640.3</ele>
        <time>2019-08-04T07:46:02.000Z</time>
      </trkpt>
      <trkpt lat="43.37714" lon="2.22344">
        <ele>640.1</ele>
        <time>2019-08-04T07:46:03.000Z</time>
      </trkpt>
      <trkpt lat="43.37713" lon="2.2234">
        <ele>639.8</ele>
        <time>2019-08-04T07:46:04.000Z</time>
      </trkpt>
      <trkpt lat="43.37713" lon="2.22336">
        <ele>639.6</ele>
        <time>2019-08-04T07:46:05.000Z</time>
      </trkpt>
      <trkpt lat="43.37712" lon="2.22332">
        <ele>639.4</ele>
        <time>2019-08-04T07:46:06.000Z</time>
      </trkpt>
      <trkpt lat="43.37712" lon="2.22329">
        <ele>639.4</ele>
        <time>2019-08-04T07:46:07.000Z</time>
      </trkpt>
      <trkpt lat="43.37711" lon="2.22325">
        <ele>639.4</ele>
        <time>2019-08-04T07:46:08.000Z</time>
      </trkpt>
      <trkpt lat="43.3771" lon="2.22321">
        <ele>639.4</ele>
        <time>2019-08-04T07:46:09.000Z</time>
      </trkpt>
      <trkpt lat="43.3771" lon="2.22317">
        <ele>639.4</ele>
        <time>2019-08-04T07:46:10.000Z</time>
      </trkpt>
      <trkpt lat="43.37709" lon="2.22313">
        <ele>639.4</ele>
        <time>2019-08-04T07:46:11.000Z</time>
      </trkpt>
      <trkpt lat="43.37708" lon="2.22309">
        <ele>639.4</ele>
        <time>2019-08-04T07:46:12.000Z</time>
      </trkpt>
      <trkpt lat="43.37707" lon="2.22305">
        <ele>639.4</ele>
        <time>2019-08-04T07:46:13.000Z</time>
      </trkpt>
      <trkpt lat="43.37707" lon="2.22301">
        <ele>639.4</ele>
        <time>2019-08-04T07:46:14.000Z</time>
      </trkpt>
      <trkpt lat="43.37706" lon="2.22298">
        <ele>639.4</ele>
        <time>2019-08-04T07:46:15.000Z</time>
      </trkpt>
      <trkpt lat="43.37705" lon="2.22294">
        <ele>639.4</ele>
        <time>2019-08-04T07:46:16.000Z</time>
      </trkpt>
      <trkpt lat="43.37705" lon="2.2229">
        <ele>639.5</ele>
        <time>2019-08-04T07:46:17.000Z</time>
      </trkpt>
      <trkpt lat="43.37704" lon="2.22286">
        <ele>639.5</ele>
        <time>2019-08-04T07:46:18.000Z</time>
      </trkpt>
      <trkpt lat="43.37703" lon="2.22283">
        <ele>639.5</ele>
        <time>2019-08-04T07:46:19.000Z</time>
      </trkpt>
      <trkpt lat="43.37702" lon="2.22279">
        <ele>639.6</ele>
        <time>2019-08-04T07:46:20.000Z</time>
      </trkpt>
      <trkpt lat="43.37702" lon="2.22276">
        <ele>639.6</ele>
        <time>2019-08-04T07:46:21.000Z</time>
      </trkpt>
      <trkpt lat="43.37701" lon="2.22272">
        <ele>639.7</ele>
        <time>2019-08-04T07:46:22.000Z</time>
      </trkpt>
      <trkpt lat="43.377" lon="2.22269">
        <ele>639.7</ele>
        <time>2019-08-04T07:46:23.000Z</time>
      </trkpt>
      <trkpt lat="43.377" lon="2.22265">
        <ele>639.8</ele>
        <time>2019-08-04T07:46:24.000Z</time>
      </trkpt>
      <trkpt lat="43.37699" lon="2.22262">
        <ele>639.8</ele>
        <time>2019-08-04T07:46:25.000Z</time>
      </trkpt>
      <trkpt lat="43.37699" lon="2.22258">
        <ele>639.9</ele>
        <time>2019-08-04T07:46:26.000Z</time>
      </trkpt>
      <trkpt lat="43.37698" lon="2.22254">
        <ele>640</ele>
        <time>2019-08-04T07:46:27.000Z</time>
      </trkpt>
      <trkpt lat="43.37698" lon="2.22251">
        <ele>640</ele>
        <time>2019-08-04T07:46:28.000Z</time>
      </trkpt>
      <trkpt lat="43.37697" lon="2.22247">
        <ele>640.1</ele>
        <time>2019-08-04T07:46:29.000Z</time>
      </trkpt>
      <trkpt lat="43.37697" lon="2.22243">
        <ele>640.1</ele>
        <time>2019-08-04T07:46:30.000Z</time>
      </trkpt>
      <trkpt lat="43.37697" lon="2.22239">
        <ele>640.1</ele>
        <time>2019-08-04T07:46:31.000Z</time>
      </trkpt>
      <trkpt lat="43.37696" lon="2.22236">
        <ele>640.1</ele>
        <time>2019-08-04T07:46:32.000Z</time>
      </trkpt>
      <trkpt lat="43.37696" lon="2.22233">
        <ele>640.2</ele>
        <time>2019-08-04T07:46:33.000Z</time>
      </trkpt>
      <trkpt lat="43.37696" lon="2.2223">
        <ele>640.2</ele>
        <time>2019-08-04T07:46:34.000Z</time>
      </trkpt>
      <trkpt lat="43.37695" lon="2.22227">
        <ele>640.2</ele>
        <time>2019-08-04T07:46:35.000Z</time>
      </trkpt>
      <trkpt lat="43.37695" lon="2.22225">
        <ele>640.3</ele>
        <time>2019-08-04T07:46:36.000Z</time>
      </trkpt>
      <trkpt lat="43.37695" lon="2.22223">
        <ele>640.3</ele>
        <time>2019-08-04T07:46:37.000Z</time>
      </trkpt>
      <trkpt lat="43.37694" lon="2.22221">
        <ele>640.4</ele>
        <time>2019-08-04T07:46:38.000Z</time>
      </trkpt>
      <trkpt lat="43.37694" lon="2.22219">
        <ele>640.4</ele>
        <time>2019-08-04T07:46:39.000Z</time>
      </trkpt>
      <trkpt lat="43.37693" lon="2.22218">
        <ele>640.5</ele>
        <time>2019-08-04T07:46:40.000Z</time>
      </trkpt>
      <trkpt lat="43.37693" lon="2.22216">
        <ele>640.5</ele>
        <time>2019-08-04T07:46:41.000Z</time>
      </trkpt>
      <trkpt lat="43.37692" lon="2.22215">
        <ele>640.6</ele>
        <time>2019-08-04T07:46:42.000Z</time>
      </trkpt>
      <trkpt lat="43.37692" lon="2.22214">
        <ele>640.6</ele>
        <time>2019-08-04T07:46:43.000Z</time>
      </trkpt>
      <trkpt lat="43.37692" lon="2.22212">
        <ele>640.7</ele>
        <time>2019-08-04T07:46:44.000Z</time>
      </trkpt>
      <trkpt lat="43.37691" lon="2.22211">
        <ele>640.7</ele>
        <time>2019-08-04T07:46:45.000Z</time>
      </trkpt>
      <trkpt lat="43.37691" lon="2.22209">
        <ele>640.7</ele>
        <time>2019-08-04T07:46:46.000Z</time>
      </trkpt>
      <trkpt lat="43.37691" lon="2.22208">
        <ele>640.8</ele>
        <time>2019-08-04T07:46:47.000Z</time>
      </trkpt>
      <trkpt lat="43.3769" lon="2.22207">
        <ele>640.8</ele>
        <time>2019-08-04T07:46:48.000Z</time>
      </trkpt>
      <trkpt lat="43.3769" lon="2.22206">
        <ele>640.8</ele>
        <time>2019-08-04T07:46:49.000Z</time>
      </trkpt>
      <trkpt lat="43.3769" lon="2.22206">
        <ele>640.8</ele>
        <time>2019-08-04T07:46:50.000Z</time>
      </trkpt>
      <trkpt lat="43.3769" lon="2.22205">
        <ele>640.8</ele>
        <time>2019-08-04T07:46:51.000Z</time>
      </trkpt>
      <trkpt lat="43.3769" lon="2.22204">
        <ele>640.8</ele>
        <time>2019-08-04T07:46:52.000Z</time>
      </trkpt>
      <trkpt lat="43.3769" lon="2.22204">
        <ele>640.8</ele>
        <time>2019-08-04T07:46:53.000Z</time>
      </trkpt>
      <trkpt lat="43.3769" lon="2.22202">
        <ele>640.8</ele>
        <time>2019-08-04T07:46:54.000Z</time>
      </trkpt>
      <trkpt lat="43.3769" lon="2.22201">
        <ele>640.8</ele>
        <time>2019-08-04T07:46:55.000Z</time>
      </trkpt>
      <trkpt lat="43.3769" lon="2.222">
        <ele>640.9</ele>
        <time>2019-08-04T07:46:56.000Z</time>
      </trkpt>
      <trkpt lat="43.3769" lon="2.22198">
        <ele>640.9</ele>
        <time>2019-08-04T07:46:57.000Z</time>
      </trkpt>
      <trkpt lat="43.3769" lon="2.22197">
        <ele>640.9</ele>
        <time>2019-08-04T07:46:58.000Z</time>
      </trkpt>
      <trkpt lat="43.37689" lon="2.22196">
        <ele>640.9</ele>
        <time>2019-08-04T07:46:59.000Z</time>
      </trkpt>
      <trkpt lat="43.37689" lon="2.22195">
        <ele>641</ele>
        <time>2019-08-04T07:47:00.000Z</time>
      </trkpt>
      <trkpt lat="43.37689" lon="2.22193">
        <ele>641</ele>
        <time>2019-08-04T07:47:01.000Z</time>
      </trkpt>
      <trkpt lat="43.37689" lon="2.22192">
        <ele>641</ele>
        <time>2019-08-04T07:47:02.000Z</time>
      </trkpt>
      <trkpt lat="43.37689" lon="2.22191">
        <ele>641.1</ele>
        <time>2019-08-04T07:47:03.000Z</time>
      </trkpt>
      <trkpt lat="43.37688" lon="2.2219">
        <ele>641.1</ele>
        <time>2019-08-04T07:47:04.000Z</time>
      </trkpt>
      <trkpt lat="43.37688" lon="2.22189">
        <ele>641.1</ele>
        <time>2019-08-04T07:47:05.000Z</time>
      </trkpt>
      <trkpt lat="43.37688" lon="2.22188">
        <ele>641.1</ele>
        <time>2019-08-04T07:47:06.000Z</time>
      </trkpt>
      <trkpt lat="43.37688" lon="2.22187">
        <ele>641.2</ele>
        <time>2019-08-04T07:47:07.000Z</time>
      </trkpt>
      <trkpt lat="43.37688" lon="2.22185">
        <ele>641.2</ele>
        <time>2019-08-04T07:47:08.000Z</time>
      </trkpt>
      <trkpt lat="43.37687" lon="2.22184">
        <ele>641.2</ele>
        <time>2019-08-04T07:47:09.000Z</time>
      </trkpt>
      <trkpt lat="43.37687" lon="2.22183">
        <ele>641.2</ele>
        <time>2019-08-04T07:47:10.000Z</time>
      </trkpt>
      <trkpt lat="43.37687" lon="2.22181">
        <ele>641.3</ele>
        <time>2019-08-04T07:47:11.000Z</time>
      </trkpt>
      <trkpt lat="43.37687" lon="2.2218">
        <ele>641.3</ele>
        <time>2019-08-04T07:47:12.000Z</time>
      </trkpt>
      <trkpt lat="43.37687" lon="2.22178">
        <ele>641.3</ele>
        <time>2019-08-04T07:47:13.000Z</time>
      </trkpt>
      <trkpt lat="43.37687" lon="2.22177">
        <ele>641.3</ele>
        <time>2019-08-04T07:47:14.000Z</time>
      </trkpt>
      <trkpt lat="43.37686" lon="2.22175">
        <ele>641.4</ele>
        <time>2019-08-04T07:47:15.000Z</time>
      </trkpt>
      <trkpt lat="43.37686" lon="2.22173">
        <ele>641.4</ele>
        <time>2019-08-04T07:47:16.000Z</time>
      </trkpt>
      <trkpt lat="43.37686" lon="2.22171">
        <ele>641.4</ele>
        <time>2019-08-04T07:47:17.000Z</time>
      </trkpt>
      <trkpt lat="43.37686" lon="2.22169">
        <ele>641.5</ele>
        <time>2019-08-04T07:47:18.000Z</time>
      </trkpt>
      <trkpt lat="43.37685" lon="2.22167">
        <ele>641.5</ele>
        <time>2019-08-04T07:47:19.000Z</time>
      </trkpt>
      <trkpt lat="43.37685" lon="2.22165">
        <ele>641.5</ele>
        <time>2019-08-04T07:47:20.000Z</time>
      </trkpt>
      <trkpt lat="43.37685" lon="2.22162">
        <ele>641.4</ele>
        <time>2019-08-04T07:47:21.000Z</time>
      </trkpt>
      <trkpt lat="43.37685" lon="2.22159">
        <ele>641.3</ele>
        <time>2019-08-04T07:47:22.000Z</time>
      </trkpt>
      <trkpt lat="43.37684" lon="2.22157">
        <ele>641.2</ele>
        <time>2019-08-04T07:47:23.000Z</time>
      </trkpt>
      <trkpt lat="43.37684" lon="2.22154">
        <ele>641.2</ele>
        <time>2019-08-04T07:47:24.000Z</time>
      </trkpt>
      <trkpt lat="43.37684" lon="2.22151">
        <ele>641.1</ele>
        <time>2019-08-04T07:47:25.000Z</time>
      </trkpt>
      <trkpt lat="43.37683" lon="2.22148">
        <ele>641</ele>
        <time>2019-08-04T07:47:26.000Z</time>
      </trkpt>
      <trkpt lat="43.37683" lon="2.22145">
        <ele>640.9</ele>
        <time>2019-08-04T07:47:27.000Z</time>
      </trkpt>
      <trkpt lat="43.37682" lon="2.22141">
        <ele>640.8</ele>
        <time>2019-08-04T07:47:28.000Z</time>
      </trkpt>
      <trkpt lat="43.37682" lon="2.22138">
        <ele>640.7</ele>
        <time>2019-08-04T07:47:29.000Z</time>
      </trkpt>
      <trkpt lat="43.37682" lon="2.22135">
        <ele>640.6</ele>
        <time>2019-08-04T07:47:30.000Z</time>
      </trkpt>
      <trkpt lat="43.37681" lon="2.22131">
        <ele>640.5</ele>
        <time>2019-08-04T07:47:31.000Z</time>
      </trkpt>
      <trkpt lat="43.37681" lon="2.22128">
        <ele>640.5</ele>
        <time>2019-08-04T07:47:32.000Z</time>
      </trkpt>
      <trkpt lat="43.3768" lon="2.22125">
        <ele>640.4</ele>
        <time>2019-08-04T07:47:33.000Z</time>
      </trkpt>
      <trkpt lat="43.3768" lon="2.22121">
        <ele>640.3</ele>
        <time>2019-08-04T07:47:34.000Z</time>
      </trkpt>
      <trkpt lat="43.37679" lon="2.22118">
        <ele>640.2</ele>
        <time>2019-08-04T07:47:35.000Z</time>
      </trkpt>
      <trkpt lat="43.37678" lon="2.22115">
        <ele>640.1</ele>
        <time>2019-08-04T07:47:36.000Z</time>
      </trkpt>
      <trkpt lat="43.37678" lon="2.22111">
        <ele>640.1</ele>
        <time>2019-08-04T07:47:37.000Z</time>
      </trkpt>
      <trkpt lat="43.37677" lon="2.22108">
        <ele>640</ele>
        <time>2019-08-04T07:47:38.000Z</time>
      </trkpt>
      <trkpt lat="43.37676" lon="2.22105">
        <ele>639.9</ele>
        <time>2019-08-04T07:47:39.000Z</time>
      </trkpt>
      <trkpt lat="43.37676" lon="2.22101">
        <ele>639.9</ele>
        <time>2019-08-04T07:47:40.000Z</time>
      </trkpt>
      <trkpt lat="43.37675" lon="2.22098">
        <ele>639.8</ele>
        <time>2019-08-04T07:47:41.000Z</time>
      </trkpt>
      <trkpt lat="43.37674" lon="2.22095">
        <ele>639.8</ele>
        <time>2019-08-04T07:47:42.000Z</time>
      </trkpt>
      <trkpt lat="43.37673" lon="2.22091">
        <ele>639.7</ele>
        <time>2019-08-04T07:47:43.000Z</time>
      </trkpt>
      <trkpt lat="43.37672" lon="2.22088">
        <ele>639.7</ele>
        <time>2019-08-04T07:47:44.000Z</time>
      </trkpt>
      <trkpt lat="43.37671" lon="2.22085">
        <ele>639.7</ele>
        <time>2019-08-04T07:47:45.000Z</time>
      </trkpt>
      <trkpt lat="43.37669" lon="2.22082">
        <ele>639.6</ele>
        <time>2019-08-04T07:47:46.000Z</time>
      </trkpt>
      <trkpt lat="43.37668" lon="2.22079">
        <ele>639.5</ele>
        <time>2019-08-04T07:47:47.000Z</time>
      </trkpt>
      <trkpt lat="43.37667" lon="2.22076">
        <ele>639.5</ele>
        <time>2019-08-04T07:47:48.000Z</time>
      </trkpt>
      <trkpt lat="43.37665" lon="2.22073">
        <ele>639.4</ele>
        <time>2019-08-04T07:47:49.000Z</time>
      </trkpt>
      <trkpt lat="43.37664" lon="2.22071">
        <ele>639.4</ele>
        <time>2019-08-04T07:47:50.000Z</time>
      </trkpt>
      <trkpt lat="43.37662" lon="2.22068">
        <ele>639.3</ele>
        <time>2019-08-04T07:47:51.000Z</time>
      </trkpt>
      <trkpt lat="43.37661" lon="2.22066">
        <ele>639.3</ele>
        <time>2019-08-04T07:47:52.000Z</time>
      </trkpt>
      <trkpt lat="43.37659" lon="2.22064">
        <ele>639.3</ele>
        <time>2019-08-04T07:47:53.000Z</time>
      </trkpt>
      <trkpt lat="43.37657" lon="2.22062">
        <ele>639.3</ele>
        <time>2019-08-04T07:47:54.000Z</time>
      </trkpt>
      <trkpt lat="43.37655" lon="2.2206">
        <ele>639.4</ele>
        <time>2019-08-04T07:47:55.000Z</time>
      </trkpt>
      <trkpt lat="43.37653" lon="2.22059">
        <ele>639.5</ele>
        <time>2019-08-04T07:47:56.000Z</time>
      </trkpt>
      <trkpt lat="43.37651" lon="2.22058">
        <ele>639.6</ele>
        <time>2019-08-04T07:47:57.000Z</time>
      </trkpt>
      <trkpt lat="43.37649" lon="2.22057">
        <ele>639.7</ele>
        <time>2019-08-04T07:47:58.000Z</time>
      </trkpt>
      <trkpt lat="43.37647" lon="2.22056">
        <ele>639.8</ele>
        <time>2019-08-04T07:47:59.000Z</time>
      </trkpt>
      <trkpt lat="43.37644" lon="2.22055">
        <ele>640</ele>
        <time>2019-08-04T07:48:00.000Z</time>
      </trkpt>
      <trkpt lat="43.37642" lon="2.22055">
        <ele>640.1</ele>
        <time>2019-08-04T07:48:01.000Z</time>
      </trkpt>
      <trkpt lat="43.3764" lon="2.22054">
        <ele>640.2</ele>
        <time>2019-08-04T07:48:02.000Z</time>
      </trkpt>
      <trkpt lat="43.37638" lon="2.22053">
        <ele>640.4</ele>
        <time>2019-08-04T07:48:03.000Z</time>
      </trkpt>
      <trkpt lat="43.37636" lon="2.22053">
        <ele>640.5</ele>
        <time>2019-08-04T07:48:04.000Z</time>
      </trkpt>
      <trkpt lat="43.37634" lon="2.22052">
        <ele>640.6</ele>
        <time>2019-08-04T07:48:05.000Z</time>
      </trkpt>
      <trkpt lat="43.37632" lon="2.22051">
        <ele>640.7</ele>
        <time>2019-08-04T07:48:06.000Z</time>
      </trkpt>
      <trkpt lat="43.37629" lon="2.22049">
        <ele>640.8</ele>
        <time>2019-08-04T07:48:07.000Z</time>
      </trkpt>
      <trkpt lat="43.37627" lon="2.22048">
        <ele>640.8</ele>
        <time>2019-08-04T07:48:08.000Z</time>
      </trkpt>
      <trkpt lat="43.37625" lon="2.22047">
        <ele>640.9</ele>
        <time>2019-08-04T07:48:09.000Z</time>
      </trkpt>
      <trkpt lat="43.37624" lon="2.22046">
        <ele>641</ele>
        <time>2019-08-04T07:48:10.000Z</time>
      </trkpt>
      <trkpt lat="43.37622" lon="2.22045">
        <ele>641</ele>
        <time>2019-08-04T07:48:11.000Z</time>
      </trkpt>
      <trkpt lat="43.3762" lon="2.22043">
        <ele>641.1</ele>
        <time>2019-08-04T07:48:12.000Z</time>
      </trkpt>
      <trkpt lat="43.37618" lon="2.22042">
        <ele>641.1</ele>
        <time>2019-08-04T07:48:13.000Z</time>
      </trkpt>
      <trkpt lat="43.37616" lon="2.22041">
        <ele>641.2</ele>
        <time>2019-08-04T07:48:14.000Z</time>
      </trkpt>
      <trkpt lat="43.37614" lon="2.22039">
        <ele>641.2</ele>
        <time>2019-08-04T07:48:15.000Z</time>
      </trkpt>
      <trkpt lat="43.37613" lon="2.22038">
        <ele>641.2</ele>
        <time>2019-08-04T07:48:16.000Z</time>
      </trkpt>
      <trkpt lat="43.37611" lon="2.22037">
        <ele>641.2</ele>
        <time>2019-08-04T07:48:17.000Z</time>
      </trkpt>
      <trkpt lat="43.3761" lon="2.22036">
        <ele>641.3</ele>
        <time>2019-08-04T07:48:18.000Z</time>
      </trkpt>
      <trkpt lat="43.37608" lon="2.22035">
        <ele>641.3</ele>
        <time>2019-08-04T07:48:19.000Z</time>
      </trkpt>
      <trkpt lat="43.37607" lon="2.22033">
        <ele>641.3</ele>
        <time>2019-08-04T07:48:20.000Z</time>
      </trkpt>
      <trkpt lat="43.37605" lon="2.22032">
        <ele>641.3</ele>
        <time>2019-08-04T07:48:21.000Z</time>
      </trkpt>
      <trkpt lat="43.37604" lon="2.22031">
        <ele>641.3</ele>
        <time>2019-08-04T07:48:22.000Z</time>
      </trkpt>
      <trkpt lat="43.37602" lon="2.2203">
        <ele>641.3</ele>
        <time>2019-08-04T07:48:23.000Z</time>
      </trkpt>
      <trkpt lat="43.37601" lon="2.22028">
        <ele>641.3</ele>
        <time>2019-08-04T07:48:24.000Z</time>
      </trkpt>
      <trkpt lat="43.37599" lon="2.22027">
        <ele>641.3</ele>
        <time>2019-08-04T07:48:25.000Z</time>
      </trkpt>
      <trkpt lat="43.37598" lon="2.22025">
        <ele>641.2</ele>
        <time>2019-08-04T07:48:26.000Z</time>
      </trkpt>
      <trkpt lat="43.37596" lon="2.22023">
        <ele>641.2</ele>
        <time>2019-08-04T07:48:27.000Z</time>
      </trkpt>
      <trkpt lat="43.37595" lon="2.22021">
        <ele>641.1</ele>
        <time>2019-08-04T07:48:28.000Z</time>
      </trkpt>
      <trkpt lat="43.37593" lon="2.22019">
        <ele>641.1</ele>
        <time>2019-08-04T07:48:29.000Z</time>
      </trkpt>
      <trkpt lat="43.37591" lon="2.22017">
        <ele>641</ele>
        <time>2019-08-04T07:48:30.000Z</time>
      </trkpt>
      <trkpt lat="43.3759" lon="2.22015">
        <ele>641</ele>
        <time>2019-08-04T07:48:31.000Z</time>
      </trkpt>
      <trkpt lat="43.37588" lon="2.22013">
        <ele>640.9</ele>
        <time>2019-08-04T07:48:32.000Z</time>
      </trkpt>
      <trkpt lat="43.37586" lon="2.22011">
        <ele>640.9</ele>
        <time>2019-08-04T07:48:33.000Z</time>
      </trkpt>
      <trkpt lat="43.37584" lon="2.22009">
        <ele>640.8</ele>
        <time>2019-08-04T07:48:34.000Z</time>
      </trkpt>
      <trkpt lat="43.37582" lon="2.22007">
        <ele>640.6</ele>
        <time>2019-08-04T07:48:35.000Z</time>
      </trkpt>
      <trkpt lat="43.3758" lon="2.22005">
        <ele>640.3</ele>
        <time>2019-08-04T07:48:36.000Z</time>
      </trkpt>
      <trkpt lat="43.37578" lon="2.22003">
        <ele>640</ele>
        <time>2019-08-04T07:48:37.000Z</time>
      </trkpt>
      <trkpt lat="43.37576" lon="2.22001">
        <ele>639.7</ele>
        <time>2019-08-04T07:48:38.000Z</time>
      </trkpt>
      <trkpt lat="43.37574" lon="2.21999">
        <ele>639.5</ele>
        <time>2019-08-04T07:48:39.000Z</time>
      </trkpt>
      <trkpt lat="43.37572" lon="2.21997">
        <ele>639.2</ele>
        <time>2019-08-04T07:48:40.000Z</time>
      </trkpt>
      <trkpt lat="43.3757" lon="2.21995">
        <ele>639</ele>
        <time>2019-08-04T07:48:41.000Z</time>
      </trkpt>
      <trkpt lat="43.37568" lon="2.21993">
        <ele>638.8</ele>
        <time>2019-08-04T07:48:42.000Z</time>
      </trkpt>
      <trkpt lat="43.37566" lon="2.2199">
        <ele>638.6</ele>
        <time>2019-08-04T07:48:43.000Z</time>
      </trkpt>
      <trkpt lat="43.37564" lon="2.21988">
        <ele>638.4</ele>
        <time>2019-08-04T07:48:44.000Z</time>
      </trkpt>
      <trkpt lat="43.37562" lon="2.21986">
        <ele>638.2</ele>
        <time>2019-08-04T07:48:45.000Z</time>
      </trkpt>
      <trkpt lat="43.3756" lon="2.21984">
        <ele>638</ele>
        <time>2019-08-04T07:48:46.000Z</time>
      </trkpt>
      <trkpt lat="43.37558" lon="2.21983">
        <ele>637.8</ele>
        <time>2019-08-04T07:48:47.000Z</time>
      </trkpt>
      <trkpt lat="43.37556" lon="2.21981">
        <ele>637.7</ele>
        <time>2019-08-04T07:48:48.000Z</time>
      </trkpt>
      <trkpt lat="43.37554" lon="2.21979">
        <ele>637.5</ele>
        <time>2019-08-04T07:48:49.000Z</time>
      </trkpt>
      <trkpt lat="43.37551" lon="2.21978">
        <ele>637.4</ele>
        <time>2019-08-04T07:48:50.000Z</time>
      </trkpt>
      <trkpt lat="43.37549" lon="2.21976">
        <ele>637.2</ele>
        <time>2019-08-04T07:48:51.000Z</time>
      </trkpt>
      <trkpt lat="43.37546" lon="2.21975">
        <ele>637.1</ele>
        <time>2019-08-04T07:48:52.000Z</time>
      </trkpt>
      <trkpt lat="43.37544" lon="2.21973">
        <ele>637</ele>
        <time>2019-08-04T07:48:53.000Z</time>
      </trkpt>
      <trkpt lat="43.37542" lon="2.21972">
        <ele>636.8</ele>
        <time>2019-08-04T07:48:54.000Z</time>
      </trkpt>
      <trkpt lat="43.37539" lon="2.21971">
        <ele>636.7</ele>
        <time>2019-08-04T07:48:55.000Z</time>
      </trkpt>
      <trkpt lat="43.37537" lon="2.2197">
        <ele>636.6</ele>
        <time>2019-08-04T07:48:56.000Z</time>
      </trkpt>
      <trkpt lat="43.37534" lon="2.21968">
        <ele>636.5</ele>
        <time>2019-08-04T07:48:57.000Z</time>
      </trkpt>
      <trkpt lat="43.37532" lon="2.21967">
        <ele>636.4</ele>
        <time>2019-08-04T07:48:58.000Z</time>
      </trkpt>
      <trkpt lat="43.37529" lon="2.21966">
        <ele>636.3</ele>
        <time>2019-08-04T07:48:59.000Z</time>
      </trkpt>
      <trkpt lat="43.37527" lon="2.21965">
        <ele>636.2</ele>
        <time>2019-08-04T07:49:00.000Z</time>
      </trkpt>
      <trkpt lat="43.37524" lon="2.21963">
        <ele>636.1</ele>
        <time>2019-08-04T07:49:01.000Z</time>
      </trkpt>
      <trkpt lat="43.37522" lon="2.21962">
        <ele>636</ele>
        <time>2019-08-04T07:49:02.000Z</time>
      </trkpt>
      <trkpt lat="43.37519" lon="2.21961">
        <ele>635.9</ele>
        <time>2019-08-04T07:49:03.000Z</time>
      </trkpt>
      <trkpt lat="43.37517" lon="2.21959">
        <ele>635.8</ele>
        <time>2019-08-04T07:49:04.000Z</time>
      </trkpt>
      <trkpt lat="43.37515" lon="2.21958">
        <ele>635.8</ele>
        <time>2019-08-04T07:49:05.000Z</time>
      </trkpt>
      <trkpt lat="43.37512" lon="2.21957">
        <ele>635.7</ele>
        <time>2019-08-04T07:49:06.000Z</time>
      </trkpt>
      <trkpt lat="43.3751" lon="2.21955">
        <ele>635.6</ele>
        <time>2019-08-04T07:49:07.000Z</time>
      </trkpt>
      <trkpt lat="43.37508" lon="2.21954">
        <ele>635.6</ele>
        <time>2019-08-04T07:49:08.000Z</time>
      </trkpt>
      <trkpt lat="43.37506" lon="2.21952">
        <ele>635.5</ele>
        <time>2019-08-04T07:49:09.000Z</time>
      </trkpt>
      <trkpt lat="43.37503" lon="2.21951">
        <ele>635.4</ele>
        <time>2019-08-04T07:49:10.000Z</time>
      </trkpt>
      <trkpt lat="43.37501" lon="2.21949">
        <ele>635.4</ele>
        <time>2019-08-04T07:49:11.000Z</time>
      </trkpt>
      <trkpt lat="43.37499" lon="2.21948">
        <ele>635.4</ele>
        <time>2019-08-04T07:49:12.000Z</time>
      </trkpt>
      <trkpt lat="43.37497" lon="2.21946">
        <ele>635.4</ele>
        <time>2019-08-04T07:49:13.000Z</time>
      </trkpt>
      <trkpt lat="43.37494" lon="2.21944">
        <ele>635.3</ele>
        <time>2019-08-04T07:49:14.000Z</time>
      </trkpt>
      <trkpt lat="43.37492" lon="2.21943">
        <ele>635.3</ele>
        <time>2019-08-04T07:49:15.000Z</time>
      </trkpt>
      <trkpt lat="43.3749" lon="2.21941">
        <ele>635.3</ele>
        <time>2019-08-04T07:49:16.000Z</time>
      </trkpt>
      <trkpt lat="43.37487" lon="2.2194">
        <ele>635.3</ele>
        <time>2019-08-04T07:49:17.000Z</time>
      </trkpt>
      <trkpt lat="43.37485" lon="2.21938">
        <ele>635.3</ele>
        <time>2019-08-04T07:49:18.000Z</time>
      </trkpt>
      <trkpt lat="43.37483" lon="2.21937">
        <ele>635.2</ele>
        <time>2019-08-04T07:49:19.000Z</time>
      </trkpt>
      <trkpt lat="43.3748" lon="2.21935">
        <ele>635.2</ele>
        <time>2019-08-04T07:49:20.000Z</time>
      </trkpt>
      <trkpt lat="43.37478" lon="2.21934">
        <ele>635.2</ele>
        <time>2019-08-04T07:49:21.000Z</time>
      </trkpt>
      <trkpt lat="43.37476" lon="2.21932">
        <ele>635.2</ele>
        <time>2019-08-04T07:49:22.000Z</time>
      </trkpt>
      <trkpt lat="43.37473" lon="2.21931">
        <ele>635.2</ele>
        <time>2019-08-04T07:49:23.000Z</time>
      </trkpt>
      <trkpt lat="43.37471" lon="2.21929">
        <ele>635.1</ele>
        <time>2019-08-04T07:49:24.000Z</time>
      </trkpt>
      <trkpt lat="43.37468" lon="2.21928">
        <ele>635.1</ele>
        <time>2019-08-04T07:49:25.000Z</time>
      </trkpt>
      <trkpt lat="43.37466" lon="2.21926">
        <ele>635.1</ele>
        <time>2019-08-04T07:49:26.000Z</time>
      </trkpt>
      <trkpt lat="43.37463" lon="2.21925">
        <ele>635.1</ele>
        <time>2019-08-04T07:49:27.000Z</time>
      </trkpt>
      <trkpt lat="43.37461" lon="2.21923">
        <ele>635.1</ele>
        <time>2019-08-04T07:49:28.000Z</time>
      </trkpt>
      <trkpt lat="43.37458" lon="2.21922">
        <ele>635.1</ele>
        <time>2019-08-04T07:49:29.000Z</time>
      </trkpt>
      <trkpt lat="43.37456" lon="2.2192">
        <ele>635</ele>
        <time>2019-08-04T07:49:30.000Z</time>
      </trkpt>
      <trkpt lat="43.37454" lon="2.21919">
        <ele>635</ele>
        <time>2019-08-04T07:49:31.000Z</time>
      </trkpt>
      <trkpt lat="43.37451" lon="2.21917">
        <ele>635</ele>
        <time>2019-08-04T07:49:32.000Z</time>
      </trkpt>
      <trkpt lat="43.37449" lon="2.21916">
        <ele>635</ele>
        <time>2019-08-04T07:49:33.000Z</time>
      </trkpt>
      <trkpt lat="43.37446" lon="2.21914">
        <ele>635</ele>
        <time>2019-08-04T07:49:34.000Z</time>
      </trkpt>
      <trkpt lat="43.37444" lon="2.21912">
        <ele>634.9</ele>
        <time>2019-08-04T07:49:35.000Z</time>
      </trkpt>
      <trkpt lat="43.37442" lon="2.2191">
        <ele>634.9</ele>
        <time>2019-08-04T07:49:36.000Z</time>
      </trkpt>
      <trkpt lat="43.3744" lon="2.21907">
        <ele>634.9</ele>
        <time>2019-08-04T07:49:37.000Z</time>
      </trkpt>
      <trkpt lat="43.37438" lon="2.21904">
        <ele>634.8</ele>
        <time>2019-08-04T07:49:38.000Z</time>
      </trkpt>
      <trkpt lat="43.37437" lon="2.219">
        <ele>634.8</ele>
        <time>2019-08-04T07:49:39.000Z</time>
      </trkpt>
      <trkpt lat="43.37436" lon="2.21896">
        <ele>634.8</ele>
        <time>2019-08-04T07:49:40.000Z</time>
      </trkpt>
      <trkpt lat="43.37436" lon="2.21893">
        <ele>634.7</ele>
        <time>2019-08-04T07:49:41.000Z</time>
      </trkpt>
      <trkpt lat="43.37436" lon="2.21889">
        <ele>634.7</ele>
        <time>2019-08-04T07:49:42.000Z</time>
      </trkpt>
      <trkpt lat="43.37436" lon="2.21885">
        <ele>634.6</ele>
        <time>2019-08-04T07:49:43.000Z</time>
      </trkpt>
      <trkpt lat="43.37435" lon="2.21882">
        <ele>634.6</ele>
        <time>2019-08-04T07:49:44.000Z</time>
      </trkpt>
      <trkpt lat="43.37435" lon="2.21878">
        <ele>634.5</ele>
        <time>2019-08-04T07:49:45.000Z</time>
      </trkpt>
      <trkpt lat="43.37434" lon="2.21874">
        <ele>634.5</ele>
        <time>2019-08-04T07:49:46.000Z</time>
      </trkpt>
      <trkpt lat="43.37433" lon="2.2187">
        <ele>634.4</ele>
        <time>2019-08-04T07:49:47.000Z</time>
      </trkpt>
      <trkpt lat="43.37432" lon="2.21867">
        <ele>634.4</ele>
        <time>2019-08-04T07:49:48.000Z</time>
      </trkpt>
      <trkpt lat="43.3743" lon="2.21863">
        <ele>634.4</ele>
        <time>2019-08-04T07:49:49.000Z</time>
      </trkpt>
      <trkpt lat="43.37429" lon="2.21859">
        <ele>634.3</ele>
        <time>2019-08-04T07:49:50.000Z</time>
      </trkpt>
      <trkpt lat="43.37427" lon="2.21855">
        <ele>634.3</ele>
        <time>2019-08-04T07:49:51.000Z</time>
      </trkpt>
      <trkpt lat="43.37425" lon="2.21851">
        <ele>634.2</ele>
        <time>2019-08-04T07:49:52.000Z</time>
      </trkpt>
      <trkpt lat="43.37424" lon="2.21848">
        <ele>634.2</ele>
        <time>2019-08-04T07:49:53.000Z</time>
      </trkpt>
      <trkpt lat="43.37422" lon="2.21844">
        <ele>634.1</ele>
        <time>2019-08-04T07:49:54.000Z</time>
      </trkpt>
      <trkpt lat="43.3742" lon="2.21841">
        <ele>634.1</ele>
        <time>2019-08-04T07:49:55.000Z</time>
      </trkpt>
      <trkpt lat="43.37418" lon="2.21838">
        <ele>634.1</ele>
        <time>2019-08-04T07:49:56.000Z</time>
      </trkpt>
      <trkpt lat="43.37416" lon="2.21836">
        <ele>634</ele>
        <time>2019-08-04T07:49:57.000Z</time>
      </trkpt>
      <trkpt lat="43.37414" lon="2.21833">
        <ele>633.9</ele>
        <time>2019-08-04T07:49:58.000Z</time>
      </trkpt>
      <trkpt lat="43.37412" lon="2.21831">
        <ele>633.7</ele>
        <time>2019-08-04T07:49:59.000Z</time>
      </trkpt>
      <trkpt lat="43.3741" lon="2.21829">
        <ele>633.6</ele>
        <time>2019-08-04T07:50:00.000Z</time>
      </trkpt>
      <trkpt lat="43.37408" lon="2.21827">
        <ele>633.4</ele>
        <time>2019-08-04T07:50:01.000Z</time>
      </trkpt>
      <trkpt lat="43.37406" lon="2.21824">
        <ele>633.2</ele>
        <time>2019-08-04T07:50:02.000Z</time>
      </trkpt>
      <trkpt lat="43.37403" lon="2.21822">
        <ele>633.1</ele>
        <time>2019-08-04T07:50:03.000Z</time>
      </trkpt>
      <trkpt lat="43.37401" lon="2.2182">
        <ele>632.9</ele>
        <time>2019-08-04T07:50:04.000Z</time>
      </trkpt>
      <trkpt lat="43.37399" lon="2.21818">
        <ele>632.7</ele>
        <time>2019-08-04T07:50:05.000Z</time>
      </trkpt>
      <trkpt lat="43.37396" lon="2.21816">
        <ele>632.6</ele>
        <time>2019-08-04T07:50:06.000Z</time>
      </trkpt>
      <trkpt lat="43.37394" lon="2.21814">
        <ele>632.4</ele>
        <time>2019-08-04T07:50:07.000Z</time>
      </trkpt>
      <trkpt lat="43.37392" lon="2.21812">
        <ele>632.3</ele>
        <time>2019-08-04T07:50:08.000Z</time>
      </trkpt>
      <trkpt lat="43.37389" lon="2.21809">
        <ele>632.1</ele>
        <time>2019-08-04T07:50:09.000Z</time>
      </trkpt>
      <trkpt lat="43.37386" lon="2.21807">
        <ele>632</ele>
        <time>2019-08-04T07:50:10.000Z</time>
      </trkpt>
      <trkpt lat="43.37384" lon="2.21805">
        <ele>631.9</ele>
        <time>2019-08-04T07:50:11.000Z</time>
      </trkpt>
      <trkpt lat="43.37381" lon="2.21803">
        <ele>631.7</ele>
        <time>2019-08-04T07:50:12.000Z</time>
      </trkpt>
      <trkpt lat="43.37379" lon="2.21801">
        <ele>631.6</ele>
        <time>2019-08-04T07:50:13.000Z</time>
      </trkpt>
      <trkpt lat="43.37376" lon="2.21799">
        <ele>631.5</ele>
        <time>2019-08-04T07:50:14.000Z</time>
      </trkpt>
      <trkpt lat="43.37374" lon="2.21796">
        <ele>631.4</ele>
        <time>2019-08-04T07:50:15.000Z</time>
      </trkpt>
      <trkpt lat="43.37371" lon="2.21794">
        <ele>631.3</ele>
        <time>2019-08-04T07:50:16.000Z</time>
      </trkpt>
      <trkpt lat="43.37369" lon="2.21792">
        <ele>631.2</ele>
        <time>2019-08-04T07:50:17.000Z</time>
      </trkpt>
      <trkpt lat="43.37367" lon="2.2179">
        <ele>631</ele>
        <time>2019-08-04T07:50:18.000Z</time>
      </trkpt>
      <trkpt lat="43.37364" lon="2.21787">
        <ele>630.9</ele>
        <time>2019-08-04T07:50:19.000Z</time>
      </trkpt>
      <trkpt lat="43.37362" lon="2.21785">
        <ele>630.9</ele>
        <time>2019-08-04T07:50:20.000Z</time>
      </trkpt>
      <trkpt lat="43.3736" lon="2.21783">
        <ele>630.8</ele>
        <time>2019-08-04T07:50:21.000Z</time>
      </trkpt>
      <trkpt lat="43.37358" lon="2.2178">
        <ele>630.7</ele>
        <time>2019-08-04T07:50:22.000Z</time>
      </trkpt>
      <trkpt lat="43.37356" lon="2.21777">
        <ele>630.6</ele>
        <time>2019-08-04T07:50:23.000Z</time>
      </trkpt>
      <trkpt lat="43.37355" lon="2.21775">
        <ele>630.5</ele>
        <time>2019-08-04T07:50:24.000Z</time>
      </trkpt>
      <trkpt lat="43.37354" lon="2.21772">
        <ele>630.4</ele>
        <time>2019-08-04T07:50:25.000Z</time>
      </trkpt>
      <trkpt lat="43.37352" lon="2.21769">
        <ele>630.4</ele>
        <time>2019-08-04T07:50:26.000Z</time>
      </trkpt>
      <trkpt lat="43.37351" lon="2.21766">
        <ele>630.3</ele>
        <time>2019-08-04T07:50:27.000Z</time>
      </trkpt>
      <trkpt lat="43.37351" lon="2.21763">
        <ele>630.2</ele>
        <time>2019-08-04T07:50:28.000Z</time>
      </trkpt>
      <trkpt lat="43.3735" lon="2.21759">
        <ele>630.2</ele>
        <time>2019-08-04T07:50:29.000Z</time>
      </trkpt>
      <trkpt lat="43.37349" lon="2.21756">
        <ele>630.1</ele>
        <time>2019-08-04T07:50:30.000Z</time>
      </trkpt>
      <trkpt lat="43.37348" lon="2.21753">
        <ele>630.1</ele>
        <time>2019-08-04T07:50:31.000Z</time>
      </trkpt>
      <trkpt lat="43.37347" lon="2.2175">
        <ele>630</ele>
        <time>2019-08-04T07:50:32.000Z</time>
      </trkpt>
      <trkpt lat="43.37346" lon="2.21747">
        <ele>629.9</ele>
        <time>2019-08-04T07:50:33.000Z</time>
      </trkpt>
      <trkpt lat="43.37345" lon="2.21744">
        <ele>629.8</ele>
        <time>2019-08-04T07:50:34.000Z</time>
      </trkpt>
      <trkpt lat="43.37343" lon="2.21741">
        <ele>629.8</ele>
        <time>2019-08-04T07:50:35.000Z</time>
      </trkpt>
      <trkpt lat="43.37342" lon="2.21737">
        <ele>629.7</ele>
        <time>2019-08-04T07:50:36.000Z</time>
      </trkpt>
      <trkpt lat="43.37341" lon="2.21734">
        <ele>629.6</ele>
        <time>2019-08-04T07:50:37.000Z</time>
      </trkpt>
      <trkpt lat="43.3734" lon="2.2173">
        <ele>629.5</ele>
        <time>2019-08-04T07:50:38.000Z</time>
      </trkpt>
      <trkpt lat="43.37339" lon="2.21727">
        <ele>629.4</ele>
        <time>2019-08-04T07:50:39.000Z</time>
      </trkpt>
      <trkpt lat="43.37339" lon="2.21723">
        <ele>629.3</ele>
        <time>2019-08-04T07:50:40.000Z</time>
      </trkpt>
      <trkpt lat="43.37338" lon="2.21718">
        <ele>629.2</ele>
        <time>2019-08-04T07:50:41.000Z</time>
      </trkpt>
      <trkpt lat="43.37338" lon="2.21714">
        <ele>629.1</ele>
        <time>2019-08-04T07:50:42.000Z</time>
      </trkpt>
      <trkpt lat="43.37338" lon="2.2171">
        <ele>629</ele>
        <time>2019-08-04T07:50:43.000Z</time>
      </trkpt>
      <trkpt lat="43.37338" lon="2.21705">
        <ele>628.9</ele>
        <time>2019-08-04T07:50:44.000Z</time>
      </trkpt>
      <trkpt lat="43.37338" lon="2.21701">
        <ele>628.8</ele>
        <time>2019-08-04T07:50:45.000Z</time>
      </trkpt>
      <trkpt lat="43.37339" lon="2.21697">
        <ele>628.7</ele>
        <time>2019-08-04T07:50:46.000Z</time>
      </trkpt>
      <trkpt lat="43.3734" lon="2.21694">
        <ele>628.6</ele>
        <time>2019-08-04T07:50:47.000Z</time>
      </trkpt>
      <trkpt lat="43.37342" lon="2.2169">
        <ele>628.5</ele>
        <time>2019-08-04T07:50:48.000Z</time>
      </trkpt>
      <trkpt lat="43.37343" lon="2.21687">
        <ele>628.4</ele>
        <time>2019-08-04T07:50:49.000Z</time>
      </trkpt>
      <trkpt lat="43.37345" lon="2.21684">
        <ele>628.3</ele>
        <time>2019-08-04T07:50:50.000Z</time>
      </trkpt>
      <trkpt lat="43.37346" lon="2.21681">
        <ele>628.2</ele>
        <time>2019-08-04T07:50:51.000Z</time>
      </trkpt>
      <trkpt lat="43.37348" lon="2.21679">
        <ele>628.1</ele>
        <time>2019-08-04T07:50:52.000Z</time>
      </trkpt>
      <trkpt lat="43.37349" lon="2.21676">
        <ele>628.1</ele>
        <time>2019-08-04T07:50:53.000Z</time>
      </trkpt>
      <trkpt lat="43.37351" lon="2.21674">
        <ele>628</ele>
        <time>2019-08-04T07:50:54.000Z</time>
      </trkpt>
      <trkpt lat="43.37352" lon="2.21672">
        <ele>627.9</ele>
        <time>2019-08-04T07:50:55.000Z</time>
      </trkpt>
      <trkpt lat="43.37353" lon="2.2167">
        <ele>627.9</ele>
        <time>2019-08-04T07:50:56.000Z</time>
      </trkpt>
      <trkpt lat="43.37353" lon="2.21668">
        <ele>627.8</ele>
        <time>2019-08-04T07:50:57.000Z</time>
      </trkpt>
      <trkpt lat="43.37354" lon="2.21666">
        <ele>627.7</ele>
        <time>2019-08-04T07:50:58.000Z</time>
      </trkpt>
      <trkpt lat="43.37355" lon="2.21665">
        <ele>627.7</ele>
        <time>2019-08-04T07:50:59.000Z</time>
      </trkpt>
      <trkpt lat="43.37355" lon="2.21664">
        <ele>627.7</ele>
        <time>2019-08-04T07:51:00.000Z</time>
      </trkpt>
      <trkpt lat="43.37355" lon="2.21663">
        <ele>627.7</ele>
        <time>2019-08-04T07:51:01.000Z</time>
      </trkpt>
      <trkpt lat="43.37355" lon="2.21662">
        <ele>627.7</ele>
        <time>2019-08-04T07:51:02.000Z</time>
      </trkpt>
      <trkpt lat="43.37355" lon="2.21662">
        <ele>627.7</ele>
        <time>2019-08-04T07:51:03.000Z</time>
      </trkpt>
      <trkpt lat="43.37355" lon="2.21661">
        <ele>627.7</ele>
        <time>2019-08-04T07:51:04.000Z</time>
      </trkpt>
      <trkpt lat="43.37355" lon="2.21661">
        <ele>627.7</ele>
        <time>2019-08-04T07:51:05.000Z</time>
      </trkpt>
      <trkpt lat="43.37355" lon="2.21661">
        <ele>627.6</ele>
        <time>2019-08-04T07:51:06.000Z</time>
      </trkpt>
      <trkpt lat="43.37355" lon="2.2166">
        <ele>627.6</ele>
        <time>2019-08-04T07:51:07.000Z</time>
      </trkpt>
      <trkpt lat="43.37355" lon="2.2166">
        <ele>627.6</ele>
        <time>2019-08-04T07:51:08.000Z</time>
      </trkpt>
      <trkpt lat="43.37355" lon="2.2166">
        <ele>627.6</ele>
        <time>2019-08-04T07:51:09.000Z</time>
      </trkpt>
      <trkpt lat="43.37355" lon="2.21659">
        <ele>627.6</ele>
        <time>2019-08-04T07:51:10.000Z</time>
      </trkpt>
      <trkpt lat="43.37355" lon="2.21659">
        <ele>627.6</ele>
        <time>2019-08-04T07:51:11.000Z</time>
      </trkpt>
      <trkpt lat="43.37355" lon="2.21658">
        <ele>627.6</ele>
        <time>2019-08-04T07:51:12.000Z</time>
      </trkpt>
      <trkpt lat="43.37356" lon="2.21657">
        <ele>627.6</ele>
        <time>2019-08-04T07:51:13.000Z</time>
      </trkpt>
      <trkpt lat="43.37356" lon="2.21657">
        <ele>627.6</ele>
        <time>2019-08-04T07:51:14.000Z</time>
      </trkpt>
      <trkpt lat="43.37356" lon="2.21656">
        <ele>627.6</ele>
        <time>2019-08-04T07:51:15.000Z</time>
      </trkpt>
      <trkpt lat="43.37357" lon="2.21655">
        <ele>627.6</ele>
        <time>2019-08-04T07:51:16.000Z</time>
      </trkpt>
      <trkpt lat="43.37358" lon="2.21654">
        <ele>627.5</ele>
        <time>2019-08-04T07:51:17.000Z</time>
      </trkpt>
      <trkpt lat="43.37359" lon="2.21653">
        <ele>627.5</ele>
        <time>2019-08-04T07:51:18.000Z</time>
      </trkpt>
      <trkpt lat="43.3736" lon="2.21652">
        <ele>627.5</ele>
        <time>2019-08-04T07:51:19.000Z</time>
      </trkpt>
      <trkpt lat="43.37361" lon="2.21651">
        <ele>627.5</ele>
        <time>2019-08-04T07:51:20.000Z</time>
      </trkpt>
      <trkpt lat="43.37362" lon="2.21649">
        <ele>627.5</ele>
        <time>2019-08-04T07:51:21.000Z</time>
      </trkpt>
      <trkpt lat="43.37363" lon="2.21647">
        <ele>627.4</ele>
        <time>2019-08-04T07:51:22.000Z</time>
      </trkpt>
      <trkpt lat="43.37365" lon="2.21645">
        <ele>627.4</ele>
        <time>2019-08-04T07:51:23.000Z</time>
      </trkpt>
      <trkpt lat="43.37366" lon="2.21643">
        <ele>627.4</ele>
        <time>2019-08-04T07:51:24.000Z</time>
      </trkpt>
      <trkpt lat="43.37368" lon="2.2164">
        <ele>627.3</ele>
        <time>2019-08-04T07:51:25.000Z</time>
      </trkpt>
      <trkpt lat="43.3737" lon="2.21637">
        <ele>627.3</ele>
        <time>2019-08-04T07:51:26.000Z</time>
      </trkpt>
      <trkpt lat="43.37372" lon="2.21634">
        <ele>627.3</ele>
        <time>2019-08-04T07:51:27.000Z</time>
      </trkpt>
      <trkpt lat="43.37373" lon="2.21631">
        <ele>627.3</ele>
        <time>2019-08-04T07:51:28.000Z</time>
      </trkpt>
      <trkpt lat="43.37375" lon="2.21628">
        <ele>627.3</ele>
        <time>2019-08-04T07:51:29.000Z</time>
      </trkpt>
      <trkpt lat="43.37377" lon="2.21625">
        <ele>627.3</ele>
        <time>2019-08-04T07:51:30.000Z</time>
      </trkpt>
      <trkpt lat="43.37379" lon="2.21622">
        <ele>627.3</ele>
        <time>2019-08-04T07:51:31.000Z</time>
      </trkpt>
      <trkpt lat="43.3738" lon="2.21619">
        <ele>627.3</ele>
        <time>2019-08-04T07:51:32.000Z</time>
      </trkpt>
      <trkpt lat="43.37382" lon="2.21616">
        <ele>627.3</ele>
        <time>2019-08-04T07:51:33.000Z</time>
      </trkpt>
      <trkpt lat="43.37383" lon="2.21613">
        <ele>627.3</ele>
        <time>2019-08-04T07:51:34.000Z</time>
      </trkpt>
      <trkpt lat="43.37385" lon="2.21611">
        <ele>627.3</ele>
        <time>2019-08-04T07:51:35.000Z</time>
      </trkpt>
      <trkpt lat="43.37387" lon="2.21608">
        <ele>627.3</ele>
        <time>2019-08-04T07:51:36.000Z</time>
      </trkpt>
      <trkpt lat="43.37388" lon="2.21606">
        <ele>627.3</ele>
        <time>2019-08-04T07:51:37.000Z</time>
      </trkpt>
      <trkpt lat="43.3739" lon="2.21603">
        <ele>627.4</ele>
        <time>2019-08-04T07:51:38.000Z</time>
      </trkpt>
      <trkpt lat="43.37392" lon="2.21601">
        <ele>627.4</ele>
        <time>2019-08-04T07:51:39.000Z</time>
      </trkpt>
      <trkpt lat="43.37394" lon="2.21598">
        <ele>627.4</ele>
        <time>2019-08-04T07:51:40.000Z</time>
      </trkpt>
      <trkpt lat="43.37396" lon="2.21596">
        <ele>627.5</ele>
        <time>2019-08-04T07:51:41.000Z</time>
      </trkpt>
      <trkpt lat="43.37398" lon="2.21593">
        <ele>627.5</ele>
        <time>2019-08-04T07:51:42.000Z</time>
      </trkpt>
      <trkpt lat="43.37399" lon="2.21591">
        <ele>627.5</ele>
        <time>2019-08-04T07:51:43.000Z</time>
      </trkpt>
      <trkpt lat="43.37401" lon="2.21588">
        <ele>627.6</ele>
        <time>2019-08-04T07:51:44.000Z</time>
      </trkpt>
      <trkpt lat="43.37401" lon="2.21585">
        <ele>627.6</ele>
        <time>2019-08-04T07:51:45.000Z</time>
      </trkpt>
      <trkpt lat="43.37402" lon="2.21582">
        <ele>627.6</ele>
        <time>2019-08-04T07:51:46.000Z</time>
      </trkpt>
      <trkpt lat="43.37402" lon="2.2158">
        <ele>627.7</ele>
        <time>2019-08-04T07:51:47.000Z</time>
      </trkpt>
      <trkpt lat="43.37402" lon="2.21577">
        <ele>627.7</ele>
        <time>2019-08-04T07:51:48.000Z</time>
      </trkpt>
      <trkpt lat="43.37402" lon="2.21574">
        <ele>627.6</ele>
        <time>2019-08-04T07:51:49.000Z</time>
      </trkpt>
      <trkpt lat="43.37401" lon="2.2157">
        <ele>627.6</ele>
        <time>2019-08-04T07:51:50.000Z</time>
      </trkpt>
      <trkpt lat="43.374" lon="2.21567">
        <ele>627.6</ele>
        <time>2019-08-04T07:51:51.000Z</time>
      </trkpt>
      <trkpt lat="43.37399" lon="2.21564">
        <ele>627.5</ele>
        <time>2019-08-04T07:51:52.000Z</time>
      </trkpt>
      <trkpt lat="43.37397" lon="2.21561">
        <ele>627.5</ele>
        <time>2019-08-04T07:51:53.000Z</time>
      </trkpt>
      <trkpt lat="43.37396" lon="2.21557">
        <ele>627.4</ele>
        <time>2019-08-04T07:51:54.000Z</time>
      </trkpt>
      <trkpt lat="43.37394" lon="2.21554">
        <ele>627.3</ele>
        <time>2019-08-04T07:51:55.000Z</time>
      </trkpt>
      <trkpt lat="43.37392" lon="2.2155">
        <ele>627.2</ele>
        <time>2019-08-04T07:51:56.000Z</time>
      </trkpt>
      <trkpt lat="43.3739" lon="2.21547">
        <ele>627.1</ele>
        <time>2019-08-04T07:51:57.000Z</time>
      </trkpt>
      <trkpt lat="43.37388" lon="2.21543">
        <ele>627</ele>
        <time>2019-08-04T07:51:58.000Z</time>
      </trkpt>
      <trkpt lat="43.37387" lon="2.2154">
        <ele>626.9</ele>
        <time>2019-08-04T07:51:59.000Z</time>
      </trkpt>
      <trkpt lat="43.37385" lon="2.21536">
        <ele>626.7</ele>
        <time>2019-08-04T07:52:00.000Z</time>
      </trkpt>
      <trkpt lat="43.37383" lon="2.21533">
        <ele>626.6</ele>
        <time>2019-08-04T07:52:01.000Z</time>
      </trkpt>
      <trkpt lat="43.37381" lon="2.21529">
        <ele>626.4</ele>
        <time>2019-08-04T07:52:02.000Z</time>
      </trkpt>
      <trkpt lat="43.3738" lon="2.21525">
        <ele>626.3</ele>
        <time>2019-08-04T07:52:03.000Z</time>
      </trkpt>
      <trkpt lat="43.37378" lon="2.21522">
        <ele>626.1</ele>
        <time>2019-08-04T07:52:04.000Z</time>
      </trkpt>
      <trkpt lat="43.37377" lon="2.21518">
        <ele>626</ele>
        <time>2019-08-04T07:52:05.000Z</time>
      </trkpt>
      <trkpt lat="43.37376" lon="2.21514">
        <ele>625.8</ele>
        <time>2019-08-04T07:52:06.000Z</time>
      </trkpt>
      <trkpt lat="43.37374" lon="2.21511">
        <ele>625.6</ele>
        <time>2019-08-04T07:52:07.000Z</time>
      </trkpt>
      <trkpt lat="43.37373" lon="2.21507">
        <ele>625.5</ele>
        <time>2019-08-04T07:52:08.000Z</time>
      </trkpt>
      <trkpt lat="43.37372" lon="2.21503">
        <ele>625.3</ele>
        <time>2019-08-04T07:52:09.000Z</time>
      </trkpt>
      <trkpt lat="43.37371" lon="2.215">
        <ele>625.1</ele>
        <time>2019-08-04T07:52:10.000Z</time>
      </trkpt>
      <trkpt lat="43.3737" lon="2.21496">
        <ele>624.6</ele>
        <time>2019-08-04T07:52:11.000Z</time>
      </trkpt>
      <trkpt lat="43.37369" lon="2.21492">
        <ele>624.1</ele>
        <time>2019-08-04T07:52:12.000Z</time>
      </trkpt>
      <trkpt lat="43.37368" lon="2.21489">
        <ele>623.5</ele>
        <time>2019-08-04T07:52:13.000Z</time>
      </trkpt>
      <trkpt lat="43.37366" lon="2.21485">
        <ele>623</ele>
        <time>2019-08-04T07:52:14.000Z</time>
      </trkpt>
      <trkpt lat="43.37365" lon="2.21482">
        <ele>622.5</ele>
        <time>2019-08-04T07:52:15.000Z</time>
      </trkpt>
      <trkpt lat="43.37363" lon="2.21479">
        <ele>622</ele>
        <time>2019-08-04T07:52:16.000Z</time>
      </trkpt>
      <trkpt lat="43.37362" lon="2.21475">
        <ele>621.4</ele>
        <time>2019-08-04T07:52:17.000Z</time>
      </trkpt>
      <trkpt lat="43.37361" lon="2.21472">
        <ele>620.9</ele>
        <time>2019-08-04T07:52:18.000Z</time>
      </trkpt>
      <trkpt lat="43.3736" lon="2.21469">
        <ele>620.5</ele>
        <time>2019-08-04T07:52:19.000Z</time>
      </trkpt>
      <trkpt lat="43.3736" lon="2.21465">
        <ele>620</ele>
        <time>2019-08-04T07:52:20.000Z</time>
      </trkpt>
      <trkpt lat="43.37359" lon="2.21462">
        <ele>619.6</ele>
        <time>2019-08-04T07:52:21.000Z</time>
      </trkpt>
      <trkpt lat="43.37359" lon="2.21459">
        <ele>619.2</ele>
        <time>2019-08-04T07:52:22.000Z</time>
      </trkpt>
      <trkpt lat="43.3736" lon="2.21455">
        <ele>618.8</ele>
        <time>2019-08-04T07:52:23.000Z</time>
      </trkpt>
      <trkpt lat="43.3736" lon="2.21452">
        <ele>618.5</ele>
        <time>2019-08-04T07:52:24.000Z</time>
      </trkpt>
      <trkpt lat="43.37361" lon="2.21449">
        <ele>618.2</ele>
        <time>2019-08-04T07:52:25.000Z</time>
      </trkpt>
      <trkpt lat="43.37362" lon="2.21446">
        <ele>618</ele>
        <time>2019-08-04T07:52:26.000Z</time>
      </trkpt>
      <trkpt lat="43.37364" lon="2.21443">
        <ele>617.8</ele>
        <time>2019-08-04T07:52:27.000Z</time>
      </trkpt>
      <trkpt lat="43.37365" lon="2.21441">
        <ele>617.7</ele>
        <time>2019-08-04T07:52:28.000Z</time>
      </trkpt>
      <trkpt lat="43.37367" lon="2.21439">
        <ele>617.7</ele>
        <time>2019-08-04T07:52:29.000Z</time>
      </trkpt>
      <trkpt lat="43.37369" lon="2.21438">
        <ele>617.7</ele>
        <time>2019-08-04T07:52:30.000Z</time>
      </trkpt>
      <trkpt lat="43.37372" lon="2.21436">
        <ele>617.9</ele>
        <time>2019-08-04T07:52:31.000Z</time>
      </trkpt>
      <trkpt lat="43.37374" lon="2.21435">
        <ele>618</ele>
        <time>2019-08-04T07:52:32.000Z</time>
      </trkpt>
      <trkpt lat="43.37376" lon="2.21435">
        <ele>618.2</ele>
        <time>2019-08-04T07:52:33.000Z</time>
      </trkpt>
      <trkpt lat="43.37379" lon="2.21434">
        <ele>618.4</ele>
        <time>2019-08-04T07:52:34.000Z</time>
      </trkpt>
      <trkpt lat="43.37381" lon="2.21433">
        <ele>618.6</ele>
        <time>2019-08-04T07:52:35.000Z</time>
      </trkpt>
      <trkpt lat="43.37384" lon="2.21432">
        <ele>618.8</ele>
        <time>2019-08-04T07:52:36.000Z</time>
      </trkpt>
      <trkpt lat="43.37386" lon="2.21431">
        <ele>618.9</ele>
        <time>2019-08-04T07:52:37.000Z</time>
      </trkpt>
      <trkpt lat="43.37389" lon="2.2143">
        <ele>619</ele>
        <time>2019-08-04T07:52:38.000Z</time>
      </trkpt>
      <trkpt lat="43.37391" lon="2.21428">
        <ele>619.1</ele>
        <time>2019-08-04T07:52:39.000Z</time>
      </trkpt>
      <trkpt lat="43.37393" lon="2.21426">
        <ele>619.1</ele>
        <time>2019-08-04T07:52:40.000Z</time>
      </trkpt>
      <trkpt lat="43.37395" lon="2.21424">
        <ele>619.1</ele>
        <time>2019-08-04T07:52:41.000Z</time>
      </trkpt>
      <trkpt lat="43.37397" lon="2.21421">
        <ele>619.1</ele>
        <time>2019-08-04T07:52:42.000Z</time>
      </trkpt>
      <trkpt lat="43.37399" lon="2.21419">
        <ele>619.1</ele>
        <time>2019-08-04T07:52:43.000Z</time>
      </trkpt>
      <trkpt lat="43.37401" lon="2.21417">
        <ele>619.1</ele>
        <time>2019-08-04T07:52:44.000Z</time>
      </trkpt>
      <trkpt lat="43.37403" lon="2.21414">
        <ele>619</ele>
        <time>2019-08-04T07:52:45.000Z</time>
      </trkpt>
      <trkpt lat="43.37406" lon="2.21412">
        <ele>618.8</ele>
        <time>2019-08-04T07:52:46.000Z</time>
      </trkpt>
      <trkpt lat="43.37408" lon="2.2141">
        <ele>618.6</ele>
        <time>2019-08-04T07:52:47.000Z</time>
      </trkpt>
      <trkpt lat="43.3741" lon="2.21408">
        <ele>618.5</ele>
        <time>2019-08-04T07:52:48.000Z</time>
      </trkpt>
      <trkpt lat="43.37412" lon="2.21406">
        <ele>618.4</ele>
        <time>2019-08-04T07:52:49.000Z</time>
      </trkpt>
      <trkpt lat="43.37414" lon="2.21404">
        <ele>618.2</ele>
        <time>2019-08-04T07:52:50.000Z</time>
      </trkpt>
      <trkpt lat="43.37416" lon="2.21402">
        <ele>618.1</ele>
        <time>2019-08-04T07:52:51.000Z</time>
      </trkpt>
      <trkpt lat="43.37418" lon="2.214">
        <ele>617.6</ele>
        <time>2019-08-04T07:52:52.000Z</time>
      </trkpt>
      <trkpt lat="43.37421" lon="2.21398">
        <ele>617.1</ele>
        <time>2019-08-04T07:52:53.000Z</time>
      </trkpt>
      <trkpt lat="43.37423" lon="2.21396">
        <ele>616.6</ele>
        <time>2019-08-04T07:52:54.000Z</time>
      </trkpt>
      <trkpt lat="43.37425" lon="2.21394">
        <ele>616.1</ele>
        <time>2019-08-04T07:52:55.000Z</time>
      </trkpt>
      <trkpt lat="43.37427" lon="2.21392">
        <ele>615.6</ele>
        <time>2019-08-04T07:52:56.000Z</time>
      </trkpt>
      <trkpt lat="43.37429" lon="2.2139">
        <ele>615.1</ele>
        <time>2019-08-04T07:52:57.000Z</time>
      </trkpt>
      <trkpt lat="43.3743" lon="2.21388">
        <ele>614.6</ele>
        <time>2019-08-04T07:52:58.000Z</time>
      </trkpt>
      <trkpt lat="43.37432" lon="2.21386">
        <ele>614.2</ele>
        <time>2019-08-04T07:52:59.000Z</time>
      </trkpt>
      <trkpt lat="43.37434" lon="2.21384">
        <ele>613.7</ele>
        <time>2019-08-04T07:53:00.000Z</time>
      </trkpt>
      <trkpt lat="43.37436" lon="2.21382">
        <ele>613.3</ele>
        <time>2019-08-04T07:53:01.000Z</time>
      </trkpt>
      <trkpt lat="43.37437" lon="2.2138">
        <ele>612.8</ele>
        <time>2019-08-04T07:53:02.000Z</time>
      </trkpt>
      <trkpt lat="43.37439" lon="2.21378">
        <ele>612.4</ele>
        <time>2019-08-04T07:53:03.000Z</time>
      </trkpt>
      <trkpt lat="43.3744" lon="2.21376">
        <ele>612</ele>
        <time>2019-08-04T07:53:04.000Z</time>
      </trkpt>
      <trkpt lat="43.37441" lon="2.21373">
        <ele>611.5</ele>
        <time>2019-08-04T07:53:05.000Z</time>
      </trkpt>
      <trkpt lat="43.37443" lon="2.21371">
        <ele>611.1</ele>
        <time>2019-08-04T07:53:06.000Z</time>
      </trkpt>
      <trkpt lat="43.37444" lon="2.21369">
        <ele>610.7</ele>
        <time>2019-08-04T07:53:07.000Z</time>
      </trkpt>
      <trkpt lat="43.37445" lon="2.21366">
        <ele>610.3</ele>
        <time>2019-08-04T07:53:08.000Z</time>
      </trkpt>
      <trkpt lat="43.37445" lon="2.21364">
        <ele>609.9</ele>
        <time>2019-08-04T07:53:09.000Z</time>
      </trkpt>
      <trkpt lat="43.37446" lon="2.21362">
        <ele>609.5</ele>
        <time>2019-08-04T07:53:10.000Z</time>
      </trkpt>
      <trkpt lat="43.37447" lon="2.21359">
        <ele>609</ele>
        <time>2019-08-04T07:53:11.000Z</time>
      </trkpt>
      <trkpt lat="43.37447" lon="2.21357">
        <ele>608.6</ele>
        <time>2019-08-04T07:53:12.000Z</time>
      </trkpt>
      <trkpt lat="43.37448" lon="2.21354">
        <ele>608.2</ele>
        <time>2019-08-04T07:53:13.000Z</time>
      </trkpt>
      <trkpt lat="43.37448" lon="2.21351">
        <ele>607.8</ele>
        <time>2019-08-04T07:53:14.000Z</time>
      </trkpt>
      <trkpt lat="43.37449" lon="2.21349">
        <ele>607.4</ele>
        <time>2019-08-04T07:53:15.000Z</time>
      </trkpt>
      <trkpt lat="43.37449" lon="2.21346">
        <ele>606.9</ele>
        <time>2019-08-04T07:53:16.000Z</time>
      </trkpt>
      <trkpt lat="43.37449" lon="2.21343">
        <ele>606.5</ele>
        <time>2019-08-04T07:53:17.000Z</time>
      </trkpt>
      <trkpt lat="43.37449" lon="2.21341">
        <ele>606.1</ele>
        <time>2019-08-04T07:53:18.000Z</time>
      </trkpt>
      <trkpt lat="43.3745" lon="2.21338">
        <ele>605.7</ele>
        <time>2019-08-04T07:53:19.000Z</time>
      </trkpt>
      <trkpt lat="43.3745" lon="2.21336">
        <ele>605.3</ele>
        <time>2019-08-04T07:53:20.000Z</time>
      </trkpt>
      <trkpt lat="43.37451" lon="2.21333">
        <ele>605</ele>
        <time>2019-08-04T07:53:21.000Z</time>
      </trkpt>
      <trkpt lat="43.37451" lon="2.21331">
        <ele>604.8</ele>
        <time>2019-08-04T07:53:22.000Z</time>
      </trkpt>
      <trkpt lat="43.37452" lon="2.21329">
        <ele>604.7</ele>
        <time>2019-08-04T07:53:23.000Z</time>
      </trkpt>
      <trkpt lat="43.37453" lon="2.21328">
        <ele>604.6</ele>
        <time>2019-08-04T07:53:24.000Z</time>
      </trkpt>
      <trkpt lat="43.37454" lon="2.21326">
        <ele>604.5</ele>
        <time>2019-08-04T07:53:25.000Z</time>
      </trkpt>
      <trkpt lat="43.37455" lon="2.21325">
        <ele>604.4</ele>
        <time>2019-08-04T07:53:26.000Z</time>
      </trkpt>
      <trkpt lat="43.37456" lon="2.21324">
        <ele>604.3</ele>
        <time>2019-08-04T07:53:27.000Z</time>
      </trkpt>
      <trkpt lat="43.37457" lon="2.21323">
        <ele>604.2</ele>
        <time>2019-08-04T07:53:28.000Z</time>
      </trkpt>
      <trkpt lat="43.37457" lon="2.21322">
        <ele>604.2</ele>
        <time>2019-08-04T07:53:29.000Z</time>
      </trkpt>
      <trkpt lat="43.37458" lon="2.21321">
        <ele>604.1</ele>
        <time>2019-08-04T07:53:30.000Z</time>
      </trkpt>
      <trkpt lat="43.37459" lon="2.2132">
        <ele>604</ele>
        <time>2019-08-04T07:53:31.000Z</time>
      </trkpt>
      <trkpt lat="43.37459" lon="2.21319">
        <ele>604</ele>
        <time>2019-08-04T07:53:32.000Z</time>
      </trkpt>
      <trkpt lat="43.3746" lon="2.21318">
        <ele>603.9</ele>
        <time>2019-08-04T07:53:33.000Z</time>
      </trkpt>
      <trkpt lat="43.37461" lon="2.21318">
        <ele>603.9</ele>
        <time>2019-08-04T07:53:34.000Z</time>
      </trkpt>
      <trkpt lat="43.37462" lon="2.21318">
        <ele>603.9</ele>
        <time>2019-08-04T07:53:35.000Z</time>
      </trkpt>
      <trkpt lat="43.37463" lon="2.21318">
        <ele>603.9</ele>
        <time>2019-08-04T07:53:36.000Z</time>
      </trkpt>
      <trkpt lat="43.37463" lon="2.21318">
        <ele>603.9</ele>
        <time>2019-08-04T07:53:37.000Z</time>
      </trkpt>
      <trkpt lat="43.37464" lon="2.21318">
        <ele>603.9</ele>
        <time>2019-08-04T07:53:38.000Z</time>
      </trkpt>
      <trkpt lat="43.37465" lon="2.21319">
        <ele>604</ele>
        <time>2019-08-04T07:53:39.000Z</time>
      </trkpt>
      <trkpt lat="43.37466" lon="2.21319">
        <ele>604</ele>
        <time>2019-08-04T07:53:40.000Z</time>
      </trkpt>
      <trkpt lat="43.37467" lon="2.2132">
        <ele>604.1</ele>
        <time>2019-08-04T07:53:41.000Z</time>
      </trkpt>
      <trkpt lat="43.37468" lon="2.21321">
        <ele>604.1</ele>
        <time>2019-08-04T07:53:42.000Z</time>
      </trkpt>
      <trkpt lat="43.37468" lon="2.21321">
        <ele>604.2</ele>
        <time>2019-08-04T07:53:43.000Z</time>
      </trkpt>
      <trkpt lat="43.37468" lon="2.21322">
        <ele>604.2</ele>
        <time>2019-08-04T07:53:44.000Z</time>
      </trkpt>
      <trkpt lat="43.37468" lon="2.21322">
        <ele>604.2</ele>
        <time>2019-08-04T07:53:45.000Z</time>
      </trkpt>
      <trkpt lat="43.37468" lon="2.21321">
        <ele>604.2</ele>
        <time>2019-08-04T07:53:46.000Z</time>
      </trkpt>
      <trkpt lat="43.37467" lon="2.2132">
        <ele>604.1</ele>
        <time>2019-08-04T07:53:47.000Z</time>
      </trkpt>
      <trkpt lat="43.37466" lon="2.2132">
        <ele>604.1</ele>
        <time>2019-08-04T07:53:48.000Z</time>
      </trkpt>
      <trkpt lat="43.37466" lon="2.21319">
        <ele>604</ele>
        <time>2019-08-04T07:53:49.000Z</time>
      </trkpt>
      <trkpt lat="43.37465" lon="2.21318">
        <ele>603.9</ele>
        <time>2019-08-04T07:53:50.000Z</time>
      </trkpt>
      <trkpt lat="43.37464" lon="2.21317">
        <ele>603.9</ele>
        <time>2019-08-04T07:53:51.000Z</time>
      </trkpt>
      <trkpt lat="43.37464" lon="2.21316">
        <ele>603.8</ele>
        <time>2019-08-04T07:53:52.000Z</time>
      </trkpt>
      <trkpt lat="43.37463" lon="2.21316">
        <ele>603.8</ele>
        <time>2019-08-04T07:53:53.000Z</time>
      </trkpt>
      <trkpt lat="43.37463" lon="2.21315">
        <ele>603.7</ele>
        <time>2019-08-04T07:53:54.000Z</time>
      </trkpt>
      <trkpt lat="43.37462" lon="2.21315">
        <ele>603.7</ele>
        <time>2019-08-04T07:53:55.000Z</time>
      </trkpt>
      <trkpt lat="43.37462" lon="2.21314">
        <ele>603.7</ele>
        <time>2019-08-04T07:53:56.000Z</time>
      </trkpt>
      <trkpt lat="43.37462" lon="2.21314">
        <ele>603.6</ele>
        <time>2019-08-04T07:53:57.000Z</time>
      </trkpt>
      <trkpt lat="43.37462" lon="2.21314">
        <ele>603.6</ele>
        <time>2019-08-04T07:53:58.000Z</time>
      </trkpt>
      <trkpt lat="43.37462" lon="2.21314">
        <ele>603.6</ele>
        <time>2019-08-04T07:53:59.000Z</time>
      </trkpt>
      <trkpt lat="43.37462" lon="2.21314">
        <ele>603.6</ele>
        <time>2019-08-04T07:54:00.000Z</time>
      </trkpt>
      <trkpt lat="43.37461" lon="2.21314">
        <ele>603.6</ele>
        <time>2019-08-04T07:54:01.000Z</time>
      </trkpt>
      <trkpt lat="43.37461" lon="2.21314">
        <ele>603.6</ele>
        <time>2019-08-04T07:54:02.000Z</time>
      </trkpt>
      <trkpt lat="43.37461" lon="2.21314">
        <ele>603.6</ele>
        <time>2019-08-04T07:54:03.000Z</time>
      </trkpt>
      <trkpt lat="43.37461" lon="2.21314">
        <ele>603.6</ele>
        <time>2019-08-04T07:54:04.000Z</time>
      </trkpt>
      <trkpt lat="43.37461" lon="2.21314">
        <ele>603.6</ele>
        <time>2019-08-04T07:54:05.000Z</time>
      </trkpt>
      <trkpt lat="43.37461" lon="2.21314">
        <ele>603.6</ele>
        <time>2019-08-04T07:54:06.000Z</time>
      </trkpt>
      <trkpt lat="43.37461" lon="2.21314">
        <ele>603.6</ele>
        <time>2019-08-04T07:54:07.000Z</time>
      </trkpt>
      <trkpt lat="43.37461" lon="2.21314">
        <ele>603.6</ele>
        <time>2019-08-04T07:54:08.000Z</time>
      </trkpt>
      <trkpt lat="43.37461" lon="2.21314">
        <ele>603.6</ele>
        <time>2019-08-04T07:54:09.000Z</time>
      </trkpt>
      <trkpt lat="43.37461" lon="2.21314">
        <ele>603.6</ele>
        <time>2019-08-04T07:54:10.000Z</time>
      </trkpt>
      <trkpt lat="43.37461" lon="2.21313">
        <ele>603.6</ele>
        <time>2019-08-04T07:54:11.000Z</time>
      </trkpt>
      <trkpt lat="43.37461" lon="2.21313">
        <ele>603.6</ele>
        <time>2019-08-04T07:54:12.000Z</time>
      </trkpt>
      <trkpt lat="43.37461" lon="2.21312">
        <ele>603.5</ele>
        <time>2019-08-04T07:54:13.000Z</time>
      </trkpt>
      <trkpt lat="43.37461" lon="2.21312">
        <ele>603.4</ele>
        <time>2019-08-04T07:54:14.000Z</time>
      </trkpt>
      <trkpt lat="43.3746" lon="2.21311">
        <ele>603.4</ele>
        <time>2019-08-04T07:54:15.000Z</time>
      </trkpt>
      <trkpt lat="43.3746" lon="2.2131">
        <ele>603.3</ele>
        <time>2019-08-04T07:54:16.000Z</time>
      </trkpt>
      <trkpt lat="43.3746" lon="2.21309">
        <ele>603.2</ele>
        <time>2019-08-04T07:54:17.000Z</time>
      </trkpt>
      <trkpt lat="43.37461" lon="2.21308">
        <ele>603.2</ele>
        <time>2019-08-04T07:54:18.000Z</time>
      </trkpt>
      <trkpt lat="43.37461" lon="2.21307">
        <ele>603.1</ele>
        <time>2019-08-04T07:54:19.000Z</time>
      </trkpt>
      <trkpt lat="43.37462" lon="2.21306">
        <ele>603</ele>
        <time>2019-08-04T07:54:20.000Z</time>
      </trkpt>
      <trkpt lat="43.37463" lon="2.21305">
        <ele>603</ele>
        <time>2019-08-04T07:54:21.000Z</time>
      </trkpt>
      <trkpt lat="43.37463" lon="2.21304">
        <ele>603</ele>
        <time>2019-08-04T07:54:22.000Z</time>
      </trkpt>
      <trkpt lat="43.37464" lon="2.21304">
        <ele>602.9</ele>
        <time>2019-08-04T07:54:23.000Z</time>
      </trkpt>
      <trkpt lat="43.37464" lon="2.21303">
        <ele>602.9</ele>
        <time>2019-08-04T07:54:24.000Z</time>
      </trkpt>
      <trkpt lat="43.37465" lon="2.21303">
        <ele>602.9</ele>
        <time>2019-08-04T07:54:25.000Z</time>
      </trkpt>
      <trkpt lat="43.37465" lon="2.21303">
        <ele>602.9</ele>
        <time>2019-08-04T07:54:26.000Z</time>
      </trkpt>
      <trkpt lat="43.37465" lon="2.21303">
        <ele>602.8</ele>
        <time>2019-08-04T07:54:27.000Z</time>
      </trkpt>
      <trkpt lat="43.37465" lon="2.21302">
        <ele>602.8</ele>
        <time>2019-08-04T07:54:28.000Z</time>
      </trkpt>
      <trkpt lat="43.37466" lon="2.21302">
        <ele>602.8</ele>
        <time>2019-08-04T07:54:29.000Z</time>
      </trkpt>
      <trkpt lat="43.37466" lon="2.21302">
        <ele>602.8</ele>
        <time>2019-08-04T07:54:30.000Z</time>
      </trkpt>
      <trkpt lat="43.37466" lon="2.21302">
        <ele>602.8</ele>
        <time>2019-08-04T07:54:31.000Z</time>
      </trkpt>
      <trkpt lat="43.37466" lon="2.21302">
        <ele>602.8</ele>
        <time>2019-08-04T07:54:32.000Z</time>
      </trkpt>
      <trkpt lat="43.37466" lon="2.21302">
        <ele>602.8</ele>
        <time>2019-08-04T07:54:33.000Z</time>
      </trkpt>
      <trkpt lat="43.37466" lon="2.21302">
        <ele>602.8</ele>
        <time>2019-08-04T07:54:34.000Z</time>
      </trkpt>
      <trkpt lat="43.37466" lon="2.21302">
        <ele>602.8</ele>
        <time>2019-08-04T07:54:35.000Z</time>
      </trkpt>
      <trkpt lat="43.37466" lon="2.21302">
        <ele>602.8</ele>
        <time>2019-08-04T07:54:36.000Z</time>
      </trkpt>
      <trkpt lat="43.37466" lon="2.21302">
        <ele>602.8</ele>
        <time>2019-08-04T07:54:37.000Z</time>
      </trkpt>
      <trkpt lat="43.37466" lon="2.21302">
        <ele>602.8</ele>
        <time>2019-08-04T07:54:38.000Z</time>
      </trkpt>
      <trkpt lat="43.37466" lon="2.21302">
        <ele>602.8</ele>
        <time>2019-08-04T07:54:39.000Z</time>
      </trkpt>
      <trkpt lat="43.37466" lon="2.21302">
        <ele>602.8</ele>
        <time>2019-08-04T07:54:40.000Z</time>
      </trkpt>
      <trkpt lat="43.37466" lon="2.21302">
        <ele>602.8</ele>
        <time>2019-08-04T07:54:41.000Z</time>
      </trkpt>
      <trkpt lat="43.37466" lon="2.21302">
        <ele>602.8</ele>
        <time>2019-08-04T07:54:42.000Z</time>
      </trkpt>
      <trkpt lat="43.37466" lon="2.21302">
        <ele>602.8</ele>
        <time>2019-08-04T07:54:43.000Z</time>
      </trkpt>
      <trkpt lat="43.37466" lon="2.21302">
        <ele>602.8</ele>
        <time>2019-08-04T07:54:44.000Z</time>
      </trkpt>
      <trkpt lat="43.37466" lon="2.21302">
        <ele>602.8</ele>
        <time>2019-08-04T07:54:45.000Z</time>
      </trkpt>
      <trkpt lat="43.37466" lon="2.21302">
        <ele>602.8</ele>
        <time>2019-08-04T07:54:46.000Z</time>
      </trkpt>
      <trkpt lat="43.37466" lon="2.21302">
        <ele>602.8</ele>
        <time>2019-08-04T07:54:47.000Z</time>
      </trkpt>
      <trkpt lat="43.37466" lon="2.21302">
        <ele>602.8</ele>
        <time>2019-08-04T07:54:48.000Z</time>
      </trkpt>
      <trkpt lat="43.37465" lon="2.21302">
        <ele>602.8</ele>
        <time>2019-08-04T07:54:49.000Z</time>
      </trkpt>
      <trkpt lat="43.37465" lon="2.21303">
        <ele>602.9</ele>
        <time>2019-08-04T07:54:50.000Z</time>
      </trkpt>
      <trkpt lat="43.37465" lon="2.21303">
        <ele>602.9</ele>
        <time>2019-08-04T07:54:51.000Z</time>
      </trkpt>
      <trkpt lat="43.37465" lon="2.21304">
        <ele>602.9</ele>
        <time>2019-08-04T07:54:52.000Z</time>
      </trkpt>
      <trkpt lat="43.37464" lon="2.21304">
        <ele>602.9</ele>
        <time>2019-08-04T07:54:53.000Z</time>
      </trkpt>
      <trkpt lat="43.37464" lon="2.21305">
        <ele>603</ele>
        <time>2019-08-04T07:54:54.000Z</time>
      </trkpt>
      <trkpt lat="43.37463" lon="2.21305">
        <ele>603</ele>
        <time>2019-08-04T07:54:55.000Z</time>
      </trkpt>
      <trkpt lat="43.37462" lon="2.21306">
        <ele>603.1</ele>
        <time>2019-08-04T07:54:56.000Z</time>
      </trkpt>
      <trkpt lat="43.37462" lon="2.21307">
        <ele>603.1</ele>
        <time>2019-08-04T07:54:57.000Z</time>
      </trkpt>
      <trkpt lat="43.37461" lon="2.21308">
        <ele>603.2</ele>
        <time>2019-08-04T07:54:58.000Z</time>
      </trkpt>
      <trkpt lat="43.3746" lon="2.21308">
        <ele>603.2</ele>
        <time>2019-08-04T07:54:59.000Z</time>
      </trkpt>
      <trkpt lat="43.37459" lon="2.21309">
        <ele>603.2</ele>
        <time>2019-08-04T07:55:00.000Z</time>
      </trkpt>
      <trkpt lat="43.37459" lon="2.2131">
        <ele>603.3</ele>
        <time>2019-08-04T07:55:01.000Z</time>
      </trkpt>
      <trkpt lat="43.37458" lon="2.2131">
        <ele>603.3</ele>
        <time>2019-08-04T07:55:02.000Z</time>
      </trkpt>
      <trkpt lat="43.37457" lon="2.21311">
        <ele>603.4</ele>
        <time>2019-08-04T07:55:03.000Z</time>
      </trkpt>
      <trkpt lat="43.37456" lon="2.21312">
        <ele>603.4</ele>
        <time>2019-08-04T07:55:04.000Z</time>
      </trkpt>
      <trkpt lat="43.37456" lon="2.21312">
        <ele>603.5</ele>
        <time>2019-08-04T07:55:05.000Z</time>
      </trkpt>
      <trkpt lat="43.37455" lon="2.21313">
        <ele>603.5</ele>
        <time>2019-08-04T07:55:06.000Z</time>
      </trkpt>
      <trkpt lat="43.37455" lon="2.21313">
        <ele>603.5</ele>
        <time>2019-08-04T07:55:07.000Z</time>
      </trkpt>
      <trkpt lat="43.37454" lon="2.21313">
        <ele>603.5</ele>
        <time>2019-08-04T07:55:08.000Z</time>
      </trkpt>
      <trkpt lat="43.37454" lon="2.21314">
        <ele>603.6</ele>
        <time>2019-08-04T07:55:09.000Z</time>
      </trkpt>
      <trkpt lat="43.37454" lon="2.21314">
        <ele>603.6</ele>
        <time>2019-08-04T07:55:10.000Z</time>
      </trkpt>
      <trkpt lat="43.37453" lon="2.21314">
        <ele>603.6</ele>
        <time>2019-08-04T07:55:11.000Z</time>
      </trkpt>
      <trkpt lat="43.37453" lon="2.21314">
        <ele>603.6</ele>
        <time>2019-08-04T07:55:12.000Z</time>
      </trkpt>
      <trkpt lat="43.37452" lon="2.21314">
        <ele>603.5</ele>
        <time>2019-08-04T07:55:13.000Z</time>
      </trkpt>
      <trkpt lat="43.37451" lon="2.21313">
        <ele>603.5</ele>
        <time>2019-08-04T07:55:14.000Z</time>
      </trkpt>
      <trkpt lat="43.3745" lon="2.21313">
        <ele>603.5</ele>
        <time>2019-08-04T07:55:15.000Z</time>
      </trkpt>
      <trkpt lat="43.37449" lon="2.21313">
        <ele>603.5</ele>
        <time>2019-08-04T07:55:16.000Z</time>
      </trkpt>
      <trkpt lat="43.37448" lon="2.21312">
        <ele>603.4</ele>
        <time>2019-08-04T07:55:17.000Z</time>
      </trkpt>
      <trkpt lat="43.37447" lon="2.21312">
        <ele>603.4</ele>
        <time>2019-08-04T07:55:18.000Z</time>
      </trkpt>
      <trkpt lat="43.37446" lon="2.21311">
        <ele>603.3</ele>
        <time>2019-08-04T07:55:19.000Z</time>
      </trkpt>
      <trkpt lat="43.37445" lon="2.21311">
        <ele>603.3</ele>
        <time>2019-08-04T07:55:20.000Z</time>
      </trkpt>
      <trkpt lat="43.37444" lon="2.21311">
        <ele>603.3</ele>
        <time>2019-08-04T07:55:21.000Z</time>
      </trkpt>
      <trkpt lat="43.37443" lon="2.21311">
        <ele>603.3</ele>
        <time>2019-08-04T07:55:22.000Z</time>
      </trkpt>
      <trkpt lat="43.37442" lon="2.21311">
        <ele>603.3</ele>
        <time>2019-08-04T07:55:23.000Z</time>
      </trkpt>
      <trkpt lat="43.37441" lon="2.2131">
        <ele>603.2</ele>
        <time>2019-08-04T07:55:24.000Z</time>
      </trkpt>
      <trkpt lat="43.3744" lon="2.2131">
        <ele>603.2</ele>
        <time>2019-08-04T07:55:25.000Z</time>
      </trkpt>
      <trkpt lat="43.3744" lon="2.21309">
        <ele>603.1</ele>
        <time>2019-08-04T07:55:26.000Z</time>
      </trkpt>
      <trkpt lat="43.37439" lon="2.21308">
        <ele>603</ele>
        <time>2019-08-04T07:55:27.000Z</time>
      </trkpt>
      <trkpt lat="43.37438" lon="2.21306">
        <ele>602.9</ele>
        <time>2019-08-04T07:55:28.000Z</time>
      </trkpt>
      <trkpt lat="43.37437" lon="2.21305">
        <ele>602.8</ele>
        <time>2019-08-04T07:55:29.000Z</time>
      </trkpt>
      <trkpt lat="43.37436" lon="2.21304">
        <ele>602.7</ele>
        <time>2019-08-04T07:55:30.000Z</time>
      </trkpt>
      <trkpt lat="43.37436" lon="2.21303">
        <ele>602.6</ele>
        <time>2019-08-04T07:55:31.000Z</time>
      </trkpt>
      <trkpt lat="43.37435" lon="2.21302">
        <ele>602.5</ele>
        <time>2019-08-04T07:55:32.000Z</time>
      </trkpt>
      <trkpt lat="43.37435" lon="2.21301">
        <ele>602.4</ele>
        <time>2019-08-04T07:55:33.000Z</time>
      </trkpt>
      <trkpt lat="43.37435" lon="2.21299">
        <ele>602.3</ele>
        <time>2019-08-04T07:55:34.000Z</time>
      </trkpt>
      <trkpt lat="43.37434" lon="2.21298">
        <ele>602.2</ele>
        <time>2019-08-04T07:55:35.000Z</time>
      </trkpt>
      <trkpt lat="43.37434" lon="2.21297">
        <ele>602.1</ele>
        <time>2019-08-04T07:55:36.000Z</time>
      </trkpt>
      <trkpt lat="43.37434" lon="2.21295">
        <ele>602</ele>
        <time>2019-08-04T07:55:37.000Z</time>
      </trkpt>
      <trkpt lat="43.37434" lon="2.21294">
        <ele>601.9</ele>
        <time>2019-08-04T07:55:38.000Z</time>
      </trkpt>
      <trkpt lat="43.37434" lon="2.21293">
        <ele>601.8</ele>
        <time>2019-08-04T07:55:39.000Z</time>
      </trkpt>
      <trkpt lat="43.37434" lon="2.21292">
        <ele>601.7</ele>
        <time>2019-08-04T07:55:40.000Z</time>
      </trkpt>
      <trkpt lat="43.37434" lon="2.2129">
        <ele>601.6</ele>
        <time>2019-08-04T07:55:41.000Z</time>
      </trkpt>
      <trkpt lat="43.37435" lon="2.21289">
        <ele>601.5</ele>
        <time>2019-08-04T07:55:42.000Z</time>
      </trkpt>
      <trkpt lat="43.37435" lon="2.21288">
        <ele>601.4</ele>
        <time>2019-08-04T07:55:43.000Z</time>
      </trkpt>
      <trkpt lat="43.37435" lon="2.21287">
        <ele>601.3</ele>
        <time>2019-08-04T07:55:44.000Z</time>
      </trkpt>
      <trkpt lat="43.37435" lon="2.21285">
        <ele>601.2</ele>
        <time>2019-08-04T07:55:45.000Z</time>
      </trkpt>
      <trkpt lat="43.37436" lon="2.21284">
        <ele>601.1</ele>
        <time>2019-08-04T07:55:46.000Z</time>
      </trkpt>
      <trkpt lat="43.37436" lon="2.21283">
        <ele>601</ele>
        <time>2019-08-04T07:55:47.000Z</time>
      </trkpt>
      <trkpt lat="43.37436" lon="2.21282">
        <ele>600.9</ele>
        <time>2019-08-04T07:55:48.000Z</time>
      </trkpt>
      <trkpt lat="43.37437" lon="2.2128">
        <ele>600.9</ele>
        <time>2019-08-04T07:55:49.000Z</time>
      </trkpt>
      <trkpt lat="43.37437" lon="2.21279">
        <ele>600.8</ele>
        <time>2019-08-04T07:55:50.000Z</time>
      </trkpt>
      <trkpt lat="43.37437" lon="2.21278">
        <ele>600.7</ele>
        <time>2019-08-04T07:55:51.000Z</time>
      </trkpt>
      <trkpt lat="43.37437" lon="2.21277">
        <ele>600.6</ele>
        <time>2019-08-04T07:55:52.000Z</time>
      </trkpt>
      <trkpt lat="43.37438" lon="2.21275">
        <ele>600.5</ele>
        <time>2019-08-04T07:55:53.000Z</time>
      </trkpt>
      <trkpt lat="43.37438" lon="2.21274">
        <ele>600.4</ele>
        <time>2019-08-04T07:55:54.000Z</time>
      </trkpt>
      <trkpt lat="43.37438" lon="2.21273">
        <ele>600.3</ele>
        <time>2019-08-04T07:55:55.000Z</time>
      </trkpt>
      <trkpt lat="43.37438" lon="2.21272">
        <ele>600.2</ele>
        <time>2019-08-04T07:55:56.000Z</time>
      </trkpt>
      <trkpt lat="43.37438" lon="2.2127">
        <ele>600.1</ele>
        <time>2019-08-04T07:55:57.000Z</time>
      </trkpt>
      <trkpt lat="43.37437" lon="2.21269">
        <ele>600</ele>
        <time>2019-08-04T07:55:58.000Z</time>
      </trkpt>
      <trkpt lat="43.37437" lon="2.21268">
        <ele>599.9</ele>
        <time>2019-08-04T07:55:59.000Z</time>
      </trkpt>
      <trkpt lat="43.37438" lon="2.21267">
        <ele>599.8</ele>
        <time>2019-08-04T07:56:00.000Z</time>
      </trkpt>
      <trkpt lat="43.37438" lon="2.21266">
        <ele>599.8</ele>
        <time>2019-08-04T07:56:01.000Z</time>
      </trkpt>
      <trkpt lat="43.37439" lon="2.21266">
        <ele>599.7</ele>
        <time>2019-08-04T07:56:02.000Z</time>
      </trkpt>
      <trkpt lat="43.37439" lon="2.21265">
        <ele>599.7</ele>
        <time>2019-08-04T07:56:03.000Z</time>
      </trkpt>
      <trkpt lat="43.3744" lon="2.21264">
        <ele>599.7</ele>
        <time>2019-08-04T07:56:04.000Z</time>
      </trkpt>
      <trkpt lat="43.3744" lon="2.21264">
        <ele>599.6</ele>
        <time>2019-08-04T07:56:05.000Z</time>
      </trkpt>
      <trkpt lat="43.3744" lon="2.21263">
        <ele>599.5</ele>
        <time>2019-08-04T07:56:06.000Z</time>
      </trkpt>
      <trkpt lat="43.3744" lon="2.21262">
        <ele>599.5</ele>
        <time>2019-08-04T07:56:07.000Z</time>
      </trkpt>
      <trkpt lat="43.37439" lon="2.21261">
        <ele>599.4</ele>
        <time>2019-08-04T07:56:08.000Z</time>
      </trkpt>
      <trkpt lat="43.37438" lon="2.21261">
        <ele>599.3</ele>
        <time>2019-08-04T07:56:09.000Z</time>
      </trkpt>
      <trkpt lat="43.37437" lon="2.2126">
        <ele>599.3</ele>
        <time>2019-08-04T07:56:10.000Z</time>
      </trkpt>
      <trkpt lat="43.37436" lon="2.2126">
        <ele>599.3</ele>
        <time>2019-08-04T07:56:11.000Z</time>
      </trkpt>
      <trkpt lat="43.37434" lon="2.2126">
        <ele>599.2</ele>
        <time>2019-08-04T07:56:12.000Z</time>
      </trkpt>
      <trkpt lat="43.37433" lon="2.2126">
        <ele>599.2</ele>
        <time>2019-08-04T07:56:13.000Z</time>
      </trkpt>
      <trkpt lat="43.37433" lon="2.2126">
        <ele>599.2</ele>
        <time>2019-08-04T07:56:14.000Z</time>
      </trkpt>
      <trkpt lat="43.37432" lon="2.21261">
        <ele>599.2</ele>
        <time>2019-08-04T07:56:15.000Z</time>
      </trkpt>
      <trkpt lat="43.37431" lon="2.21261">
        <ele>599.2</ele>
        <time>2019-08-04T07:56:16.000Z</time>
      </trkpt>
      <trkpt lat="43.3743" lon="2.21261">
        <ele>599.2</ele>
        <time>2019-08-04T07:56:17.000Z</time>
      </trkpt>
      <trkpt lat="43.37429" lon="2.21261">
        <ele>599.2</ele>
        <time>2019-08-04T07:56:18.000Z</time>
      </trkpt>
      <trkpt lat="43.37428" lon="2.21261">
        <ele>599.2</ele>
        <time>2019-08-04T07:56:19.000Z</time>
      </trkpt>
      <trkpt lat="43.37427" lon="2.21262">
        <ele>599.2</ele>
        <time>2019-08-04T07:56:20.000Z</time>
      </trkpt>
      <trkpt lat="43.37426" lon="2.21262">
        <ele>599.2</ele>
        <time>2019-08-04T07:56:21.000Z</time>
      </trkpt>
      <trkpt lat="43.37425" lon="2.21262">
        <ele>599.2</ele>
        <time>2019-08-04T07:56:22.000Z</time>
      </trkpt>
      <trkpt lat="43.37423" lon="2.21262">
        <ele>599.1</ele>
        <time>2019-08-04T07:56:23.000Z</time>
      </trkpt>
      <trkpt lat="43.37422" lon="2.21262">
        <ele>599.1</ele>
        <time>2019-08-04T07:56:24.000Z</time>
      </trkpt>
      <trkpt lat="43.37421" lon="2.21262">
        <ele>599.1</ele>
        <time>2019-08-04T07:56:25.000Z</time>
      </trkpt>
      <trkpt lat="43.37419" lon="2.21263">
        <ele>599.1</ele>
        <time>2019-08-04T07:56:26.000Z</time>
      </trkpt>
      <trkpt lat="43.37418" lon="2.21263">
        <ele>599.1</ele>
        <time>2019-08-04T07:56:27.000Z</time>
      </trkpt>
      <trkpt lat="43.37417" lon="2.21263">
        <ele>599.1</ele>
        <time>2019-08-04T07:56:28.000Z</time>
      </trkpt>
      <trkpt lat="43.37416" lon="2.21264">
        <ele>599.2</ele>
        <time>2019-08-04T07:56:29.000Z</time>
      </trkpt>
      <trkpt lat="43.37414" lon="2.21265">
        <ele>599.2</ele>
        <time>2019-08-04T07:56:30.000Z</time>
      </trkpt>
      <trkpt lat="43.37413" lon="2.21265">
        <ele>599.2</ele>
        <time>2019-08-04T07:56:31.000Z</time>
      </trkpt>
      <trkpt lat="43.37412" lon="2.21266">
        <ele>599.2</ele>
        <time>2019-08-04T07:56:32.000Z</time>
      </trkpt>
      <trkpt lat="43.37411" lon="2.21267">
        <ele>599.3</ele>
        <time>2019-08-04T07:56:33.000Z</time>
      </trkpt>
      <trkpt lat="43.37411" lon="2.21268">
        <ele>599.3</ele>
        <time>2019-08-04T07:56:34.000Z</time>
      </trkpt>
      <trkpt lat="43.3741" lon="2.21268">
        <ele>599.4</ele>
        <time>2019-08-04T07:56:35.000Z</time>
      </trkpt>
      <trkpt lat="43.37409" lon="2.21269">
        <ele>599.4</ele>
        <time>2019-08-04T07:56:36.000Z</time>
      </trkpt>
      <trkpt lat="43.37408" lon="2.2127">
        <ele>599.5</ele>
        <time>2019-08-04T07:56:37.000Z</time>
      </trkpt>
      <trkpt lat="43.37408" lon="2.21271">
        <ele>599.5</ele>
        <time>2019-08-04T07:56:38.000Z</time>
      </trkpt>
      <trkpt lat="43.37407" lon="2.21272">
        <ele>599.6</ele>
        <time>2019-08-04T07:56:39.000Z</time>
      </trkpt>
      <trkpt lat="43.37406" lon="2.21273">
        <ele>599.6</ele>
        <time>2019-08-04T07:56:40.000Z</time>
      </trkpt>
      <trkpt lat="43.37406" lon="2.21273">
        <ele>599.7</ele>
        <time>2019-08-04T07:56:41.000Z</time>
      </trkpt>
      <trkpt lat="43.37406" lon="2.21274">
        <ele>599.7</ele>
        <time>2019-08-04T07:56:42.000Z</time>
      </trkpt>
      <trkpt lat="43.37405" lon="2.21275">
        <ele>599.7</ele>
        <time>2019-08-04T07:56:43.000Z</time>
      </trkpt>
      <trkpt lat="43.37405" lon="2.21276">
        <ele>599.8</ele>
        <time>2019-08-04T07:56:44.000Z</time>
      </trkpt>
      <trkpt lat="43.37405" lon="2.21276">
        <ele>599.8</ele>
        <time>2019-08-04T07:56:45.000Z</time>
      </trkpt>
      <trkpt lat="43.37404" lon="2.21277">
        <ele>599.9</ele>
        <time>2019-08-04T07:56:46.000Z</time>
      </trkpt>
      <trkpt lat="43.37404" lon="2.21278">
        <ele>599.9</ele>
        <time>2019-08-04T07:56:47.000Z</time>
      </trkpt>
      <trkpt lat="43.37403" lon="2.21279">
        <ele>600</ele>
        <time>2019-08-04T07:56:48.000Z</time>
      </trkpt>
      <trkpt lat="43.37403" lon="2.21279">
        <ele>600</ele>
        <time>2019-08-04T07:56:49.000Z</time>
      </trkpt>
      <trkpt lat="43.37402" lon="2.2128">
        <ele>600</ele>
        <time>2019-08-04T07:56:50.000Z</time>
      </trkpt>
      <trkpt lat="43.37401" lon="2.21281">
        <ele>600.1</ele>
        <time>2019-08-04T07:56:51.000Z</time>
      </trkpt>
      <trkpt lat="43.37401" lon="2.21282">
        <ele>600.1</ele>
        <time>2019-08-04T07:56:52.000Z</time>
      </trkpt>
      <trkpt lat="43.374" lon="2.21283">
        <ele>600.2</ele>
        <time>2019-08-04T07:56:53.000Z</time>
      </trkpt>
      <trkpt lat="43.37399" lon="2.21284">
        <ele>600.2</ele>
        <time>2019-08-04T07:56:54.000Z</time>
      </trkpt>
      <trkpt lat="43.37398" lon="2.21285">
        <ele>600.2</ele>
        <time>2019-08-04T07:56:55.000Z</time>
      </trkpt>
      <trkpt lat="43.37397" lon="2.21286">
        <ele>600.2</ele>
        <time>2019-08-04T07:56:56.000Z</time>
      </trkpt>
      <trkpt lat="43.37396" lon="2.21286">
        <ele>600.3</ele>
        <time>2019-08-04T07:56:57.000Z</time>
      </trkpt>
      <trkpt lat="43.37395" lon="2.21287">
        <ele>600.3</ele>
        <time>2019-08-04T07:56:58.000Z</time>
      </trkpt>
      <trkpt lat="43.37394" lon="2.21288">
        <ele>600.3</ele>
        <time>2019-08-04T07:56:59.000Z</time>
      </trkpt>
      <trkpt lat="43.37393" lon="2.21289">
        <ele>600.3</ele>
        <time>2019-08-04T07:57:00.000Z</time>
      </trkpt>
      <trkpt lat="43.37392" lon="2.2129">
        <ele>600.3</ele>
        <time>2019-08-04T07:57:01.000Z</time>
      </trkpt>
      <trkpt lat="43.37391" lon="2.21291">
        <ele>600.3</ele>
        <time>2019-08-04T07:57:02.000Z</time>
      </trkpt>
      <trkpt lat="43.3739" lon="2.21292">
        <ele>600.4</ele>
        <time>2019-08-04T07:57:03.000Z</time>
      </trkpt>
      <trkpt lat="43.37389" lon="2.21292">
        <ele>600.4</ele>
        <time>2019-08-04T07:57:04.000Z</time>
      </trkpt>
      <trkpt lat="43.37388" lon="2.21293">
        <ele>600.4</ele>
        <time>2019-08-04T07:57:05.000Z</time>
      </trkpt>
      <trkpt lat="43.37386" lon="2.21294">
        <ele>600.4</ele>
        <time>2019-08-04T07:57:06.000Z</time>
      </trkpt>
      <trkpt lat="43.37385" lon="2.21296">
        <ele>600.4</ele>
        <time>2019-08-04T07:57:07.000Z</time>
      </trkpt>
      <trkpt lat="43.37384" lon="2.21297">
        <ele>600.4</ele>
        <time>2019-08-04T07:57:08.000Z</time>
      </trkpt>
      <trkpt lat="43.37383" lon="2.21298">
        <ele>600.4</ele>
        <time>2019-08-04T07:57:09.000Z</time>
      </trkpt>
      <trkpt lat="43.37382" lon="2.21299">
        <ele>600.5</ele>
        <time>2019-08-04T07:57:10.000Z</time>
      </trkpt>
      <trkpt lat="43.37381" lon="2.21301">
        <ele>600.5</ele>
        <time>2019-08-04T07:57:11.000Z</time>
      </trkpt>
      <trkpt lat="43.37379" lon="2.21302">
        <ele>600.5</ele>
        <time>2019-08-04T07:57:12.000Z</time>
      </trkpt>
      <trkpt lat="43.37378" lon="2.21304">
        <ele>600.5</ele>
        <time>2019-08-04T07:57:13.000Z</time>
      </trkpt>
      <trkpt lat="43.37377" lon="2.21305">
        <ele>600.6</ele>
        <time>2019-08-04T07:57:14.000Z</time>
      </trkpt>
      <trkpt lat="43.37375" lon="2.21307">
        <ele>600.6</ele>
        <time>2019-08-04T07:57:15.000Z</time>
      </trkpt>
      <trkpt lat="43.37374" lon="2.21309">
        <ele>600.6</ele>
        <time>2019-08-04T07:57:16.000Z</time>
      </trkpt>
      <trkpt lat="43.37372" lon="2.2131">
        <ele>600.6</ele>
        <time>2019-08-04T07:57:17.000Z</time>
      </trkpt>
      <trkpt lat="43.37371" lon="2.21312">
        <ele>600.6</ele>
        <time>2019-08-04T07:57:18.000Z</time>
      </trkpt>
      <trkpt lat="43.3737" lon="2.21314">
        <ele>600.6</ele>
        <time>2019-08-04T07:57:19.000Z</time>
      </trkpt>
      <trkpt lat="43.37368" lon="2.21316">
        <ele>600.6</ele>
        <time>2019-08-04T07:57:20.000Z</time>
      </trkpt>
      <trkpt lat="43.37367" lon="2.21318">
        <ele>600.6</ele>
        <time>2019-08-04T07:57:21.000Z</time>
      </trkpt>
      <trkpt lat="43.37365" lon="2.21319">
        <ele>600.6</ele>
        <time>2019-08-04T07:57:22.000Z</time>
      </trkpt>
      <trkpt lat="43.37364" lon="2.21321">
        <ele>600.6</ele>
        <time>2019-08-04T07:57:23.000Z</time>
      </trkpt>
      <trkpt lat="43.37362" lon="2.21323">
        <ele>600.6</ele>
        <time>2019-08-04T07:57:24.000Z</time>
      </trkpt>
      <trkpt lat="43.3736" lon="2.21325">
        <ele>600.6</ele>
        <time>2019-08-04T07:57:25.000Z</time>
      </trkpt>
      <trkpt lat="43.37359" lon="2.21327">
        <ele>600.5</ele>
        <time>2019-08-04T07:57:26.000Z</time>
      </trkpt>
      <trkpt lat="43.37357" lon="2.21328">
        <ele>600.5</ele>
        <time>2019-08-04T07:57:27.000Z</time>
      </trkpt>
      <trkpt lat="43.37355" lon="2.2133">
        <ele>600.5</ele>
        <time>2019-08-04T07:57:28.000Z</time>
      </trkpt>
      <trkpt lat="43.37354" lon="2.21332">
        <ele>600.4</ele>
        <time>2019-08-04T07:57:29.000Z</time>
      </trkpt>
      <trkpt lat="43.37352" lon="2.21334">
        <ele>600.5</ele>
        <time>2019-08-04T07:57:30.000Z</time>
      </trkpt>
      <trkpt lat="43.37351" lon="2.21336">
        <ele>600.6</ele>
        <time>2019-08-04T07:57:31.000Z</time>
      </trkpt>
      <trkpt lat="43.37349" lon="2.21338">
        <ele>600.8</ele>
        <time>2019-08-04T07:57:32.000Z</time>
      </trkpt>
      <trkpt lat="43.37347" lon="2.21339">
        <ele>600.9</ele>
        <time>2019-08-04T07:57:33.000Z</time>
      </trkpt>
      <trkpt lat="43.37346" lon="2.21341">
        <ele>601.1</ele>
        <time>2019-08-04T07:57:34.000Z</time>
      </trkpt>
      <trkpt lat="43.37344" lon="2.21343">
        <ele>601.2</ele>
        <time>2019-08-04T07:57:35.000Z</time>
      </trkpt>
      <trkpt lat="43.37342" lon="2.21345">
        <ele>601.3</ele>
        <time>2019-08-04T07:57:36.000Z</time>
      </trkpt>
      <trkpt lat="43.3734" lon="2.21346">
        <ele>601.4</ele>
        <time>2019-08-04T07:57:37.000Z</time>
      </trkpt>
      <trkpt lat="43.37339" lon="2.21348">
        <ele>601.5</ele>
        <time>2019-08-04T07:57:38.000Z</time>
      </trkpt>
      <trkpt lat="43.37337" lon="2.2135">
        <ele>601.6</ele>
        <time>2019-08-04T07:57:39.000Z</time>
      </trkpt>
      <trkpt lat="43.37335" lon="2.21351">
        <ele>601.7</ele>
        <time>2019-08-04T07:57:40.000Z</time>
      </trkpt>
      <trkpt lat="43.37334" lon="2.21353">
        <ele>601.8</ele>
        <time>2019-08-04T07:57:41.000Z</time>
      </trkpt>
      <trkpt lat="43.37332" lon="2.21354">
        <ele>601.8</ele>
        <time>2019-08-04T07:57:42.000Z</time>
      </trkpt>
      <trkpt lat="43.3733" lon="2.21355">
        <ele>601.9</ele>
        <time>2019-08-04T07:57:43.000Z</time>
      </trkpt>
      <trkpt lat="43.37328" lon="2.21357">
        <ele>601.9</ele>
        <time>2019-08-04T07:57:44.000Z</time>
      </trkpt>
      <trkpt lat="43.37327" lon="2.21358">
        <ele>601.9</ele>
        <time>2019-08-04T07:57:45.000Z</time>
      </trkpt>
      <trkpt lat="43.37325" lon="2.2136">
        <ele>602</ele>
        <time>2019-08-04T07:57:46.000Z</time>
      </trkpt>
      <trkpt lat="43.37323" lon="2.21361">
        <ele>602</ele>
        <time>2019-08-04T07:57:47.000Z</time>
      </trkpt>
      <trkpt lat="43.37321" lon="2.21363">
        <ele>602</ele>
        <time>2019-08-04T07:57:48.000Z</time>
      </trkpt>
      <trkpt lat="43.37319" lon="2.21365">
        <ele>602.1</ele>
        <time>2019-08-04T07:57:49.000Z</time>
      </trkpt>
      <trkpt lat="43.37317" lon="2.21367">
        <ele>602.1</ele>
        <time>2019-08-04T07:57:50.000Z</time>
      </trkpt>
      <trkpt lat="43.37314" lon="2.21369">
        <ele>602.2</ele>
        <time>2019-08-04T07:57:51.000Z</time>
      </trkpt>
      <trkpt lat="43.37312" lon="2.21372">
        <ele>602.3</ele>
        <time>2019-08-04T07:57:52.000Z</time>
      </trkpt>
      <trkpt lat="43.3731" lon="2.21374">
        <ele>602.3</ele>
        <time>2019-08-04T07:57:53.000Z</time>
      </trkpt>
      <trkpt lat="43.37307" lon="2.21377">
        <ele>602.4</ele>
        <time>2019-08-04T07:57:54.000Z</time>
      </trkpt>
      <trkpt lat="43.37305" lon="2.21379">
        <ele>602.4</ele>
        <time>2019-08-04T07:57:55.000Z</time>
      </trkpt>
      <trkpt lat="43.37303" lon="2.21381">
        <ele>602.4</ele>
        <time>2019-08-04T07:57:56.000Z</time>
      </trkpt>
      <trkpt lat="43.373" lon="2.21383">
        <ele>602.5</ele>
        <time>2019-08-04T07:57:57.000Z</time>
      </trkpt>
      <trkpt lat="43.37298" lon="2.21386">
        <ele>602.5</ele>
        <time>2019-08-04T07:57:58.000Z</time>
      </trkpt>
      <trkpt lat="43.37295" lon="2.21388">
        <ele>602.5</ele>
        <time>2019-08-04T07:57:59.000Z</time>
      </trkpt>
      <trkpt lat="43.37293" lon="2.2139">
        <ele>602.5</ele>
        <time>2019-08-04T07:58:00.000Z</time>
      </trkpt>
      <trkpt lat="43.37291" lon="2.21392">
        <ele>602.4</ele>
        <time>2019-08-04T07:58:01.000Z</time>
      </trkpt>
      <trkpt lat="43.37289" lon="2.21394">
        <ele>602.4</ele>
        <time>2019-08-04T07:58:02.000Z</time>
      </trkpt>
      <trkpt lat="43.37286" lon="2.21396">
        <ele>602.4</ele>
        <time>2019-08-04T07:58:03.000Z</time>
      </trkpt>
      <trkpt lat="43.37284" lon="2.21398">
        <ele>602.3</ele>
        <time>2019-08-04T07:58:04.000Z</time>
      </trkpt>
      <trkpt lat="43.37282" lon="2.214">
        <ele>602.2</ele>
        <time>2019-08-04T07:58:05.000Z</time>
      </trkpt>
      <trkpt lat="43.37279" lon="2.21402">
        <ele>602.2</ele>
        <time>2019-08-04T07:58:06.000Z</time>
      </trkpt>
      <trkpt lat="43.37277" lon="2.21404">
        <ele>602.1</ele>
        <time>2019-08-04T07:58:07.000Z</time>
      </trkpt>
      <trkpt lat="43.37275" lon="2.21405">
        <ele>602</ele>
        <time>2019-08-04T07:58:08.000Z</time>
      </trkpt>
      <trkpt lat="43.37273" lon="2.21407">
        <ele>601.9</ele>
        <time>2019-08-04T07:58:09.000Z</time>
      </trkpt>
      <trkpt lat="43.3727" lon="2.21409">
        <ele>601.8</ele>
        <time>2019-08-04T07:58:10.000Z</time>
      </trkpt>
      <trkpt lat="43.37268" lon="2.21411">
        <ele>601.7</ele>
        <time>2019-08-04T07:58:11.000Z</time>
      </trkpt>
      <trkpt lat="43.37266" lon="2.21412">
        <ele>601.6</ele>
        <time>2019-08-04T07:58:12.000Z</time>
      </trkpt>
      <trkpt lat="43.37264" lon="2.21414">
        <ele>601.5</ele>
        <time>2019-08-04T07:58:13.000Z</time>
      </trkpt>
      <trkpt lat="43.37261" lon="2.21416">
        <ele>601.4</ele>
        <time>2019-08-04T07:58:14.000Z</time>
      </trkpt>
      <trkpt lat="43.37259" lon="2.21417">
        <ele>601.3</ele>
        <time>2019-08-04T07:58:15.000Z</time>
      </trkpt>
      <trkpt lat="43.37257" lon="2.21419">
        <ele>601.2</ele>
        <time>2019-08-04T07:58:16.000Z</time>
      </trkpt>
      <trkpt lat="43.37255" lon="2.2142">
        <ele>601.2</ele>
        <time>2019-08-04T07:58:17.000Z</time>
      </trkpt>
      <trkpt lat="43.37252" lon="2.21422">
        <ele>601.1</ele>
        <time>2019-08-04T07:58:18.000Z</time>
      </trkpt>
      <trkpt lat="43.3725" lon="2.21423">
        <ele>601.1</ele>
        <time>2019-08-04T07:58:19.000Z</time>
      </trkpt>
      <trkpt lat="43.37248" lon="2.21424">
        <ele>601.1</ele>
        <time>2019-08-04T07:58:20.000Z</time>
      </trkpt>
      <trkpt lat="43.37246" lon="2.21425">
        <ele>601.2</ele>
        <time>2019-08-04T07:58:21.000Z</time>
      </trkpt>
      <trkpt lat="43.37244" lon="2.21427">
        <ele>601.3</ele>
        <time>2019-08-04T07:58:22.000Z</time>
      </trkpt>
      <trkpt lat="43.37241" lon="2.21428">
        <ele>601.3</ele>
        <time>2019-08-04T07:58:23.000Z</time>
      </trkpt>
      <trkpt lat="43.37239" lon="2.21429">
        <ele>601.4</ele>
        <time>2019-08-04T07:58:24.000Z</time>
      </trkpt>
      <trkpt lat="43.37237" lon="2.2143">
        <ele>601.4</ele>
        <time>2019-08-04T07:58:25.000Z</time>
      </trkpt>
      <trkpt lat="43.37235" lon="2.21431">
        <ele>601.4</ele>
        <time>2019-08-04T07:58:26.000Z</time>
      </trkpt>
      <trkpt lat="43.37233" lon="2.21431">
        <ele>601.4</ele>
        <time>2019-08-04T07:58:27.000Z</time>
      </trkpt>
      <trkpt lat="43.37231" lon="2.21432">
        <ele>601.4</ele>
        <time>2019-08-04T07:58:28.000Z</time>
      </trkpt>
      <trkpt lat="43.37228" lon="2.21433">
        <ele>601.4</ele>
        <time>2019-08-04T07:58:29.000Z</time>
      </trkpt>
      <trkpt lat="43.37226" lon="2.21433">
        <ele>601.3</ele>
        <time>2019-08-04T07:58:30.000Z</time>
      </trkpt>
      <trkpt lat="43.37224" lon="2.21434">
        <ele>601.2</ele>
        <time>2019-08-04T07:58:31.000Z</time>
      </trkpt>
      <trkpt lat="43.37221" lon="2.21434">
        <ele>601.2</ele>
        <time>2019-08-04T07:58:32.000Z</time>
      </trkpt>
      <trkpt lat="43.37218" lon="2.21434">
        <ele>601</ele>
        <time>2019-08-04T07:58:33.000Z</time>
      </trkpt>
      <trkpt lat="43.37215" lon="2.21434">
        <ele>600.9</ele>
        <time>2019-08-04T07:58:34.000Z</time>
      </trkpt>
      <trkpt lat="43.37212" lon="2.21434">
        <ele>600.7</ele>
        <time>2019-08-04T07:58:35.000Z</time>
      </trkpt>
      <trkpt lat="43.37209" lon="2.21434">
        <ele>600.4</ele>
        <time>2019-08-04T07:58:36.000Z</time>
      </trkpt>
      <trkpt lat="43.37206" lon="2.21433">
        <ele>600.1</ele>
        <time>2019-08-04T07:58:37.000Z</time>
      </trkpt>
      <trkpt lat="43.37203" lon="2.21432">
        <ele>599.8</ele>
        <time>2019-08-04T07:58:38.000Z</time>
      </trkpt>
      <trkpt lat="43.372" lon="2.21431">
        <ele>599.4</ele>
        <time>2019-08-04T07:58:39.000Z</time>
      </trkpt>
      <trkpt lat="43.37196" lon="2.2143">
        <ele>599</ele>
        <time>2019-08-04T07:58:40.000Z</time>
      </trkpt>
      <trkpt lat="43.37194" lon="2.21429">
        <ele>598.6</ele>
        <time>2019-08-04T07:58:41.000Z</time>
      </trkpt>
      <trkpt lat="43.37191" lon="2.21428">
        <ele>598.3</ele>
        <time>2019-08-04T07:58:42.000Z</time>
      </trkpt>
      <trkpt lat="43.37188" lon="2.21426">
        <ele>597.9</ele>
        <time>2019-08-04T07:58:43.000Z</time>
      </trkpt>
      <trkpt lat="43.37186" lon="2.21425">
        <ele>597.6</ele>
        <time>2019-08-04T07:58:44.000Z</time>
      </trkpt>
      <trkpt lat="43.37184" lon="2.21424">
        <ele>597.3</ele>
        <time>2019-08-04T07:58:45.000Z</time>
      </trkpt>
      <trkpt lat="43.37181" lon="2.21423">
        <ele>596.9</ele>
        <time>2019-08-04T07:58:46.000Z</time>
      </trkpt>
      <trkpt lat="43.37179" lon="2.21422">
        <ele>596.6</ele>
        <time>2019-08-04T07:58:47.000Z</time>
      </trkpt>
      <trkpt lat="43.37177" lon="2.21421">
        <ele>596.3</ele>
        <time>2019-08-04T07:58:48.000Z</time>
      </trkpt>
      <trkpt lat="43.37174" lon="2.2142">
        <ele>595.9</ele>
        <time>2019-08-04T07:58:49.000Z</time>
      </trkpt>
      <trkpt lat="43.37172" lon="2.21418">
        <ele>595.6</ele>
        <time>2019-08-04T07:58:50.000Z</time>
      </trkpt>
      <trkpt lat="43.37169" lon="2.21417">
        <ele>595.2</ele>
        <time>2019-08-04T07:58:51.000Z</time>
      </trkpt>
      <trkpt lat="43.37167" lon="2.21416">
        <ele>594.9</ele>
        <time>2019-08-04T07:58:52.000Z</time>
      </trkpt>
      <trkpt lat="43.37164" lon="2.21415">
        <ele>594.7</ele>
        <time>2019-08-04T07:58:53.000Z</time>
      </trkpt>
      <trkpt lat="43.37162" lon="2.21414">
        <ele>594.5</ele>
        <time>2019-08-04T07:58:54.000Z</time>
      </trkpt>
      <trkpt lat="43.37159" lon="2.21413">
        <ele>594.3</ele>
        <time>2019-08-04T07:58:55.000Z</time>
      </trkpt>
      <trkpt lat="43.37156" lon="2.21411">
        <ele>594.1</ele>
        <time>2019-08-04T07:58:56.000Z</time>
      </trkpt>
      <trkpt lat="43.37154" lon="2.2141">
        <ele>593.9</ele>
        <time>2019-08-04T07:58:57.000Z</time>
      </trkpt>
      <trkpt lat="43.37151" lon="2.2141">
        <ele>593.7</ele>
        <time>2019-08-04T07:58:58.000Z</time>
      </trkpt>
      <trkpt lat="43.37148" lon="2.21409">
        <ele>593.5</ele>
        <time>2019-08-04T07:58:59.000Z</time>
      </trkpt>
      <trkpt lat="43.37146" lon="2.21408">
        <ele>593.3</ele>
        <time>2019-08-04T07:59:00.000Z</time>
      </trkpt>
      <trkpt lat="43.37143" lon="2.21407">
        <ele>593.2</ele>
        <time>2019-08-04T07:59:01.000Z</time>
      </trkpt>
      <trkpt lat="43.3714" lon="2.21406">
        <ele>593</ele>
        <time>2019-08-04T07:59:02.000Z</time>
      </trkpt>
      <trkpt lat="43.37138" lon="2.21405">
        <ele>592.8</ele>
        <time>2019-08-04T07:59:03.000Z</time>
      </trkpt>
      <trkpt lat="43.37135" lon="2.21405">
        <ele>592.6</ele>
        <time>2019-08-04T07:59:04.000Z</time>
      </trkpt>
      <trkpt lat="43.37132" lon="2.21404">
        <ele>592.5</ele>
        <time>2019-08-04T07:59:05.000Z</time>
      </trkpt>
      <trkpt lat="43.37129" lon="2.21403">
        <ele>592.3</ele>
        <time>2019-08-04T07:59:06.000Z</time>
      </trkpt>
      <trkpt lat="43.37127" lon="2.21403">
        <ele>592.1</ele>
        <time>2019-08-04T07:59:07.000Z</time>
      </trkpt>
      <trkpt lat="43.37124" lon="2.21402">
        <ele>592</ele>
        <time>2019-08-04T07:59:08.000Z</time>
      </trkpt>
      <trkpt lat="43.37121" lon="2.21402">
        <ele>591.8</ele>
        <time>2019-08-04T07:59:09.000Z</time>
      </trkpt>
      <trkpt lat="43.37119" lon="2.21401">
        <ele>591.7</ele>
        <time>2019-08-04T07:59:10.000Z</time>
      </trkpt>
      <trkpt lat="43.37116" lon="2.21401">
        <ele>591.5</ele>
        <time>2019-08-04T07:59:11.000Z</time>
      </trkpt>
      <trkpt lat="43.37113" lon="2.214">
        <ele>591.4</ele>
        <time>2019-08-04T07:59:12.000Z</time>
      </trkpt>
      <trkpt lat="43.37111" lon="2.214">
        <ele>591.2</ele>
        <time>2019-08-04T07:59:13.000Z</time>
      </trkpt>
      <trkpt lat="43.37108" lon="2.214">
        <ele>591.1</ele>
        <time>2019-08-04T07:59:14.000Z</time>
      </trkpt>
      <trkpt lat="43.37105" lon="2.21399">
        <ele>591</ele>
        <time>2019-08-04T07:59:15.000Z</time>
      </trkpt>
      <trkpt lat="43.37103" lon="2.21399">
        <ele>590.9</ele>
        <time>2019-08-04T07:59:16.000Z</time>
      </trkpt>
      <trkpt lat="43.371" lon="2.21399">
        <ele>590.8</ele>
        <time>2019-08-04T07:59:17.000Z</time>
      </trkpt>
      <trkpt lat="43.37097" lon="2.21399">
        <ele>590.7</ele>
        <time>2019-08-04T07:59:18.000Z</time>
      </trkpt>
      <trkpt lat="43.37095" lon="2.21399">
        <ele>590.6</ele>
        <time>2019-08-04T07:59:19.000Z</time>
      </trkpt>
      <trkpt lat="43.37092" lon="2.214">
        <ele>590.6</ele>
        <time>2019-08-04T07:59:20.000Z</time>
      </trkpt>
      <trkpt lat="43.37089" lon="2.214">
        <ele>590.6</ele>
        <time>2019-08-04T07:59:21.000Z</time>
      </trkpt>
      <trkpt lat="43.37087" lon="2.21401">
        <ele>590.6</ele>
        <time>2019-08-04T07:59:22.000Z</time>
      </trkpt>
      <trkpt lat="43.37084" lon="2.21401">
        <ele>590.6</ele>
        <time>2019-08-04T07:59:23.000Z</time>
      </trkpt>
      <trkpt lat="43.37081" lon="2.21402">
        <ele>590.6</ele>
        <time>2019-08-04T07:59:24.000Z</time>
      </trkpt>
      <trkpt lat="43.37079" lon="2.21403">
        <ele>590.6</ele>
        <time>2019-08-04T07:59:25.000Z</time>
      </trkpt>
      <trkpt lat="43.37076" lon="2.21404">
        <ele>590.6</ele>
        <time>2019-08-04T07:59:26.000Z</time>
      </trkpt>
      <trkpt lat="43.37073" lon="2.21405">
        <ele>590.6</ele>
        <time>2019-08-04T07:59:27.000Z</time>
      </trkpt>
      <trkpt lat="43.37071" lon="2.21406">
        <ele>590.6</ele>
        <time>2019-08-04T07:59:28.000Z</time>
      </trkpt>
      <trkpt lat="43.37068" lon="2.21408">
        <ele>590.6</ele>
        <time>2019-08-04T07:59:29.000Z</time>
      </trkpt>
      <trkpt lat="43.37066" lon="2.21409">
        <ele>590.6</ele>
        <time>2019-08-04T07:59:30.000Z</time>
      </trkpt>
      <trkpt lat="43.37063" lon="2.2141">
        <ele>590.7</ele>
        <time>2019-08-04T07:59:31.000Z</time>
      </trkpt>
      <trkpt lat="43.37061" lon="2.21411">
        <ele>590.7</ele>
        <time>2019-08-04T07:59:32.000Z</time>
      </trkpt>
      <trkpt lat="43.37058" lon="2.21411">
        <ele>590.6</ele>
        <time>2019-08-04T07:59:33.000Z</time>
      </trkpt>
      <trkpt lat="43.37056" lon="2.21412">
        <ele>590.6</ele>
        <time>2019-08-04T07:59:34.000Z</time>
      </trkpt>
      <trkpt lat="43.37054" lon="2.21413">
        <ele>590.6</ele>
        <time>2019-08-04T07:59:35.000Z</time>
      </trkpt>
      <trkpt lat="43.37052" lon="2.21413">
        <ele>590.5</ele>
        <time>2019-08-04T07:59:36.000Z</time>
      </trkpt>
      <trkpt lat="43.3705" lon="2.21413">
        <ele>590.4</ele>
        <time>2019-08-04T07:59:37.000Z</time>
      </trkpt>
      <trkpt lat="43.37047" lon="2.21413">
        <ele>590.3</ele>
        <time>2019-08-04T07:59:38.000Z</time>
      </trkpt>
      <trkpt lat="43.37045" lon="2.21414">
        <ele>590.2</ele>
        <time>2019-08-04T07:59:39.000Z</time>
      </trkpt>
      <trkpt lat="43.37043" lon="2.21414">
        <ele>590</ele>
        <time>2019-08-04T07:59:40.000Z</time>
      </trkpt>
      <trkpt lat="43.3704" lon="2.21414">
        <ele>589.9</ele>
        <time>2019-08-04T07:59:41.000Z</time>
      </trkpt>
      <trkpt lat="43.37037" lon="2.21414">
        <ele>589.7</ele>
        <time>2019-08-04T07:59:42.000Z</time>
      </trkpt>
      <trkpt lat="43.37035" lon="2.21414">
        <ele>589.5</ele>
        <time>2019-08-04T07:59:43.000Z</time>
      </trkpt>
      <trkpt lat="43.37032" lon="2.21414">
        <ele>589.4</ele>
        <time>2019-08-04T07:59:44.000Z</time>
      </trkpt>
      <trkpt lat="43.37029" lon="2.21414">
        <ele>589.2</ele>
        <time>2019-08-04T07:59:45.000Z</time>
      </trkpt>
      <trkpt lat="43.37026" lon="2.21414">
        <ele>589.1</ele>
        <time>2019-08-04T07:59:46.000Z</time>
      </trkpt>
      <trkpt lat="43.37024" lon="2.21414">
        <ele>588.9</ele>
        <time>2019-08-04T07:59:47.000Z</time>
      </trkpt>
      <trkpt lat="43.37021" lon="2.21414">
        <ele>588.9</ele>
        <time>2019-08-04T07:59:48.000Z</time>
      </trkpt>
      <trkpt lat="43.37018" lon="2.21415">
        <ele>588.8</ele>
        <time>2019-08-04T07:59:49.000Z</time>
      </trkpt>
      <trkpt lat="43.37015" lon="2.21415">
        <ele>588.7</ele>
        <time>2019-08-04T07:59:50.000Z</time>
      </trkpt>
      <trkpt lat="43.37013" lon="2.21416">
        <ele>588.7</ele>
        <time>2019-08-04T07:59:51.000Z</time>
      </trkpt>
      <trkpt lat="43.3701" lon="2.21417">
        <ele>588.6</ele>
        <time>2019-08-04T07:59:52.000Z</time>
      </trkpt>
      <trkpt lat="43.37008" lon="2.21418">
        <ele>588.6</ele>
        <time>2019-08-04T07:59:53.000Z</time>
      </trkpt>
      <trkpt lat="43.37005" lon="2.21419">
        <ele>588.6</ele>
        <time>2019-08-04T07:59:54.000Z</time>
      </trkpt>
      <trkpt lat="43.37003" lon="2.2142">
        <ele>588.6</ele>
        <time>2019-08-04T07:59:55.000Z</time>
      </trkpt>
      <trkpt lat="43.37001" lon="2.21421">
        <ele>588.6</ele>
        <time>2019-08-04T07:59:56.000Z</time>
      </trkpt>
      <trkpt lat="43.36999" lon="2.21423">
        <ele>588.6</ele>
        <time>2019-08-04T07:59:57.000Z</time>
      </trkpt>
      <trkpt lat="43.36996" lon="2.21425">
        <ele>588.7</ele>
        <time>2019-08-04T07:59:58.000Z</time>
      </trkpt>
      <trkpt lat="43.36994" lon="2.21426">
        <ele>588.8</ele>
        <time>2019-08-04T07:59:59.000Z</time>
      </trkpt>
      <trkpt lat="43.36991" lon="2.21428">
        <ele>588.8</ele>
        <time>2019-08-04T08:00:00.000Z</time>
      </trkpt>
      <trkpt lat="43.36989" lon="2.2143">
        <ele>588.9</ele>
        <time>2019-08-04T08:00:01.000Z</time>
      </trkpt>
      <trkpt lat="43.36986" lon="2.21432">
        <ele>588.9</ele>
        <time>2019-08-04T08:00:02.000Z</time>
      </trkpt>
      <trkpt lat="43.36984" lon="2.21433">
        <ele>588.9</ele>
        <time>2019-08-04T08:00:03.000Z</time>
      </trkpt>
      <trkpt lat="43.36981" lon="2.21434">
        <ele>588.9</ele>
        <time>2019-08-04T08:00:04.000Z</time>
      </trkpt>
      <trkpt lat="43.36979" lon="2.21435">
        <ele>588.8</ele>
        <time>2019-08-04T08:00:05.000Z</time>
      </trkpt>
      <trkpt lat="43.36977" lon="2.21436">
        <ele>588.8</ele>
        <time>2019-08-04T08:00:06.000Z</time>
      </trkpt>
      <trkpt lat="43.36975" lon="2.21438">
        <ele>588.8</ele>
        <time>2019-08-04T08:00:07.000Z</time>
      </trkpt>
      <trkpt lat="43.36972" lon="2.21439">
        <ele>588.8</ele>
        <time>2019-08-04T08:00:08.000Z</time>
      </trkpt>
      <trkpt lat="43.36971" lon="2.21441">
        <ele>588.9</ele>
        <time>2019-08-04T08:00:09.000Z</time>
      </trkpt>
      <trkpt lat="43.36969" lon="2.21442">
        <ele>589</ele>
        <time>2019-08-04T08:00:10.000Z</time>
      </trkpt>
      <trkpt lat="43.36967" lon="2.21444">
        <ele>589.1</ele>
        <time>2019-08-04T08:00:11.000Z</time>
      </trkpt>
      <trkpt lat="43.36965" lon="2.21447">
        <ele>589.2</ele>
        <time>2019-08-04T08:00:12.000Z</time>
      </trkpt>
      <trkpt lat="43.36964" lon="2.21449">
        <ele>589.4</ele>
        <time>2019-08-04T08:00:13.000Z</time>
      </trkpt>
      <trkpt lat="43.36962" lon="2.21451">
        <ele>589.5</ele>
        <time>2019-08-04T08:00:14.000Z</time>
      </trkpt>
      <trkpt lat="43.36961" lon="2.21454">
        <ele>589.7</ele>
        <time>2019-08-04T08:00:15.000Z</time>
      </trkpt>
      <trkpt lat="43.3696" lon="2.21457">
        <ele>589.9</ele>
        <time>2019-08-04T08:00:16.000Z</time>
      </trkpt>
      <trkpt lat="43.36958" lon="2.2146">
        <ele>590.1</ele>
        <time>2019-08-04T08:00:17.000Z</time>
      </trkpt>
      <trkpt lat="43.36957" lon="2.21462">
        <ele>590.3</ele>
        <time>2019-08-04T08:00:18.000Z</time>
      </trkpt>
      <trkpt lat="43.36955" lon="2.21465">
        <ele>590.5</ele>
        <time>2019-08-04T08:00:19.000Z</time>
      </trkpt>
      <trkpt lat="43.36954" lon="2.21468">
        <ele>590.7</ele>
        <time>2019-08-04T08:00:20.000Z</time>
      </trkpt>
      <trkpt lat="43.36952" lon="2.21471">
        <ele>590.9</ele>
        <time>2019-08-04T08:00:21.000Z</time>
      </trkpt>
      <trkpt lat="43.36951" lon="2.21474">
        <ele>591.1</ele>
        <time>2019-08-04T08:00:22.000Z</time>
      </trkpt>
      <trkpt lat="43.36949" lon="2.21477">
        <ele>591.3</ele>
        <time>2019-08-04T08:00:23.000Z</time>
      </trkpt>
      <trkpt lat="43.36947" lon="2.2148">
        <ele>591.4</ele>
        <time>2019-08-04T08:00:24.000Z</time>
      </trkpt>
      <trkpt lat="43.36945" lon="2.21482">
        <ele>591.6</ele>
        <time>2019-08-04T08:00:25.000Z</time>
      </trkpt>
      <trkpt lat="43.36943" lon="2.21485">
        <ele>591.7</ele>
        <time>2019-08-04T08:00:26.000Z</time>
      </trkpt>
      <trkpt lat="43.36941" lon="2.21487">
        <ele>591.8</ele>
        <time>2019-08-04T08:00:27.000Z</time>
      </trkpt>
      <trkpt lat="43.36939" lon="2.2149">
        <ele>591.8</ele>
        <time>2019-08-04T08:00:28.000Z</time>
      </trkpt>
      <trkpt lat="43.36937" lon="2.21492">
        <ele>591.9</ele>
        <time>2019-08-04T08:00:29.000Z</time>
      </trkpt>
      <trkpt lat="43.36935" lon="2.21494">
        <ele>591.9</ele>
        <time>2019-08-04T08:00:30.000Z</time>
      </trkpt>
      <trkpt lat="43.36933" lon="2.21496">
        <ele>591.9</ele>
        <time>2019-08-04T08:00:31.000Z</time>
      </trkpt>
      <trkpt lat="43.3693" lon="2.21497">
        <ele>591.8</ele>
        <time>2019-08-04T08:00:32.000Z</time>
      </trkpt>
      <trkpt lat="43.36928" lon="2.21499">
        <ele>591.8</ele>
        <time>2019-08-04T08:00:33.000Z</time>
      </trkpt>
      <trkpt lat="43.36925" lon="2.215">
        <ele>591.7</ele>
        <time>2019-08-04T08:00:34.000Z</time>
      </trkpt>
      <trkpt lat="43.36923" lon="2.215">
        <ele>591.5</ele>
        <time>2019-08-04T08:00:35.000Z</time>
      </trkpt>
      <trkpt lat="43.3692" lon="2.21501">
        <ele>591.3</ele>
        <time>2019-08-04T08:00:36.000Z</time>
      </trkpt>
      <trkpt lat="43.36918" lon="2.21501">
        <ele>591.1</ele>
        <time>2019-08-04T08:00:37.000Z</time>
      </trkpt>
      <trkpt lat="43.36915" lon="2.21501">
        <ele>591</ele>
        <time>2019-08-04T08:00:38.000Z</time>
      </trkpt>
      <trkpt lat="43.36913" lon="2.215">
        <ele>590.9</ele>
        <time>2019-08-04T08:00:39.000Z</time>
      </trkpt>
      <trkpt lat="43.3691" lon="2.21499">
        <ele>590.7</ele>
        <time>2019-08-04T08:00:40.000Z</time>
      </trkpt>
      <trkpt lat="43.36908" lon="2.21498">
        <ele>590.6</ele>
        <time>2019-08-04T08:00:41.000Z</time>
      </trkpt>
      <trkpt lat="43.36905" lon="2.21496">
        <ele>590.4</ele>
        <time>2019-08-04T08:00:42.000Z</time>
      </trkpt>
      <trkpt lat="43.36903" lon="2.21494">
        <ele>590.2</ele>
        <time>2019-08-04T08:00:43.000Z</time>
      </trkpt>
      <trkpt lat="43.369" lon="2.21492">
        <ele>590</ele>
        <time>2019-08-04T08:00:44.000Z</time>
      </trkpt>
      <trkpt lat="43.36897" lon="2.2149">
        <ele>589.7</ele>
        <time>2019-08-04T08:00:45.000Z</time>
      </trkpt>
      <trkpt lat="43.36895" lon="2.21488">
        <ele>589.5</ele>
        <time>2019-08-04T08:00:46.000Z</time>
      </trkpt>
      <trkpt lat="43.36892" lon="2.21486">
        <ele>589.3</ele>
        <time>2019-08-04T08:00:47.000Z</time>
      </trkpt>
      <trkpt lat="43.3689" lon="2.21484">
        <ele>589.1</ele>
        <time>2019-08-04T08:00:48.000Z</time>
      </trkpt>
      <trkpt lat="43.36887" lon="2.21482">
        <ele>588.9</ele>
        <time>2019-08-04T08:00:49.000Z</time>
      </trkpt>
      <trkpt lat="43.36884" lon="2.21479">
        <ele>588.7</ele>
        <time>2019-08-04T08:00:50.000Z</time>
      </trkpt>
      <trkpt lat="43.36882" lon="2.21478">
        <ele>588.6</ele>
        <time>2019-08-04T08:00:51.000Z</time>
      </trkpt>
      <trkpt lat="43.36879" lon="2.21476">
        <ele>588.4</ele>
        <time>2019-08-04T08:00:52.000Z</time>
      </trkpt>
      <trkpt lat="43.36877" lon="2.21474">
        <ele>588.3</ele>
        <time>2019-08-04T08:00:53.000Z</time>
      </trkpt>
      <trkpt lat="43.36874" lon="2.21473">
        <ele>588.2</ele>
        <time>2019-08-04T08:00:54.000Z</time>
      </trkpt>
      <trkpt lat="43.36871" lon="2.21472">
        <ele>588.1</ele>
        <time>2019-08-04T08:00:55.000Z</time>
      </trkpt>
      <trkpt lat="43.36869" lon="2.21471">
        <ele>588.1</ele>
        <time>2019-08-04T08:00:56.000Z</time>
      </trkpt>
      <trkpt lat="43.36866" lon="2.2147">
        <ele>588</ele>
        <time>2019-08-04T08:00:57.000Z</time>
      </trkpt>
      <trkpt lat="43.36864" lon="2.2147">
        <ele>588</ele>
        <time>2019-08-04T08:00:58.000Z</time>
      </trkpt>
      <trkpt lat="43.36861" lon="2.21469">
        <ele>587.9</ele>
        <time>2019-08-04T08:00:59.000Z</time>
      </trkpt>
      <trkpt lat="43.36859" lon="2.21469">
        <ele>587.9</ele>
        <time>2019-08-04T08:01:00.000Z</time>
      </trkpt>
      <trkpt lat="43.36856" lon="2.21469">
        <ele>587.9</ele>
        <time>2019-08-04T08:01:01.000Z</time>
      </trkpt>
      <trkpt lat="43.36854" lon="2.21469">
        <ele>587.9</ele>
        <time>2019-08-04T08:01:02.000Z</time>
      </trkpt>
      <trkpt lat="43.36852" lon="2.21468">
        <ele>587.9</ele>
        <time>2019-08-04T08:01:03.000Z</time>
      </trkpt>
      <trkpt lat="43.36849" lon="2.21468">
        <ele>587.9</ele>
        <time>2019-08-04T08:01:04.000Z</time>
      </trkpt>
      <trkpt lat="43.36847" lon="2.21469">
        <ele>587.9</ele>
        <time>2019-08-04T08:01:05.000Z</time>
      </trkpt>
      <trkpt lat="43.36844" lon="2.21469">
        <ele>587.9</ele>
        <time>2019-08-04T08:01:06.000Z</time>
      </trkpt>
      <trkpt lat="43.36842" lon="2.21469">
        <ele>587.9</ele>
        <time>2019-08-04T08:01:07.000Z</time>
      </trkpt>
      <trkpt lat="43.36839" lon="2.21469">
        <ele>587.9</ele>
        <time>2019-08-04T08:01:08.000Z</time>
      </trkpt>
      <trkpt lat="43.36837" lon="2.21469">
        <ele>587.9</ele>
        <time>2019-08-04T08:01:09.000Z</time>
      </trkpt>
      <trkpt lat="43.36834" lon="2.2147">
        <ele>587.9</ele>
        <time>2019-08-04T08:01:10.000Z</time>
      </trkpt>
      <trkpt lat="43.36831" lon="2.2147">
        <ele>587.9</ele>
        <time>2019-08-04T08:01:11.000Z</time>
      </trkpt>
      <trkpt lat="43.36829" lon="2.2147">
        <ele>587.8</ele>
        <time>2019-08-04T08:01:12.000Z</time>
      </trkpt>
      <trkpt lat="43.36826" lon="2.21471">
        <ele>587.8</ele>
        <time>2019-08-04T08:01:13.000Z</time>
      </trkpt>
      <trkpt lat="43.36823" lon="2.21472">
        <ele>587.8</ele>
        <time>2019-08-04T08:01:14.000Z</time>
      </trkpt>
      <trkpt lat="43.36821" lon="2.21473">
        <ele>587.8</ele>
        <time>2019-08-04T08:01:15.000Z</time>
      </trkpt>
      <trkpt lat="43.36818" lon="2.21474">
        <ele>587.8</ele>
        <time>2019-08-04T08:01:16.000Z</time>
      </trkpt>
      <trkpt lat="43.36816" lon="2.21476">
        <ele>587.8</ele>
        <time>2019-08-04T08:01:17.000Z</time>
      </trkpt>
      <trkpt lat="43.36813" lon="2.21478">
        <ele>587.8</ele>
        <time>2019-08-04T08:01:18.000Z</time>
      </trkpt>
      <trkpt lat="43.36811" lon="2.2148">
        <ele>587.8</ele>
        <time>2019-08-04T08:01:19.000Z</time>
      </trkpt>
      <trkpt lat="43.36809" lon="2.21482">
        <ele>587.8</ele>
        <time>2019-08-04T08:01:20.000Z</time>
      </trkpt>
      <trkpt lat="43.36807" lon="2.21484">
        <ele>587.8</ele>
        <time>2019-08-04T08:01:21.000Z</time>
      </trkpt>
      <trkpt lat="43.36805" lon="2.21486">
        <ele>587.9</ele>
        <time>2019-08-04T08:01:22.000Z</time>
      </trkpt>
      <trkpt lat="43.36803" lon="2.21488">
        <ele>587.9</ele>
        <time>2019-08-04T08:01:23.000Z</time>
      </trkpt>
      <trkpt lat="43.368" lon="2.2149">
        <ele>587.9</ele>
        <time>2019-08-04T08:01:24.000Z</time>
      </trkpt>
      <trkpt lat="43.36798" lon="2.21492">
        <ele>587.9</ele>
        <time>2019-08-04T08:01:25.000Z</time>
      </trkpt>
      <trkpt lat="43.36796" lon="2.21494">
        <ele>587.9</ele>
        <time>2019-08-04T08:01:26.000Z</time>
      </trkpt>
      <trkpt lat="43.36793" lon="2.21495">
        <ele>587.9</ele>
        <time>2019-08-04T08:01:27.000Z</time>
      </trkpt>
      <trkpt lat="43.36791" lon="2.21497">
        <ele>587.9</ele>
        <time>2019-08-04T08:01:28.000Z</time>
      </trkpt>
      <trkpt lat="43.36789" lon="2.21499">
        <ele>587.9</ele>
        <time>2019-08-04T08:01:29.000Z</time>
      </trkpt>
      <trkpt lat="43.36786" lon="2.21501">
        <ele>587.9</ele>
        <time>2019-08-04T08:01:30.000Z</time>
      </trkpt>
      <trkpt lat="43.36784" lon="2.21503">
        <ele>587.9</ele>
        <time>2019-08-04T08:01:31.000Z</time>
      </trkpt>
      <trkpt lat="43.36782" lon="2.21505">
        <ele>588</ele>
        <time>2019-08-04T08:01:32.000Z</time>
      </trkpt>
      <trkpt lat="43.3678" lon="2.21507">
        <ele>588</ele>
        <time>2019-08-04T08:01:33.000Z</time>
      </trkpt>
      <trkpt lat="43.36778" lon="2.21509">
        <ele>588</ele>
        <time>2019-08-04T08:01:34.000Z</time>
      </trkpt>
      <trkpt lat="43.36776" lon="2.21512">
        <ele>588.1</ele>
        <time>2019-08-04T08:01:35.000Z</time>
      </trkpt>
      <trkpt lat="43.36774" lon="2.21514">
        <ele>588.1</ele>
        <time>2019-08-04T08:01:36.000Z</time>
      </trkpt>
      <trkpt lat="43.36773" lon="2.21516">
        <ele>588.2</ele>
        <time>2019-08-04T08:01:37.000Z</time>
      </trkpt>
      <trkpt lat="43.36771" lon="2.21519">
        <ele>588.2</ele>
        <time>2019-08-04T08:01:38.000Z</time>
      </trkpt>
      <trkpt lat="43.36769" lon="2.21521">
        <ele>588.3</ele>
        <time>2019-08-04T08:01:39.000Z</time>
      </trkpt>
      <trkpt lat="43.36767" lon="2.21524">
        <ele>588.3</ele>
        <time>2019-08-04T08:01:40.000Z</time>
      </trkpt>
      <trkpt lat="43.36765" lon="2.21526">
        <ele>588.4</ele>
        <time>2019-08-04T08:01:41.000Z</time>
      </trkpt>
      <trkpt lat="43.36764" lon="2.21528">
        <ele>588.4</ele>
        <time>2019-08-04T08:01:42.000Z</time>
      </trkpt>
      <trkpt lat="43.36762" lon="2.21531">
        <ele>588.5</ele>
        <time>2019-08-04T08:01:43.000Z</time>
      </trkpt>
      <trkpt lat="43.3676" lon="2.21533">
        <ele>588.5</ele>
        <time>2019-08-04T08:01:44.000Z</time>
      </trkpt>
      <trkpt lat="43.36759" lon="2.21536">
        <ele>588.5</ele>
        <time>2019-08-04T08:01:45.000Z</time>
      </trkpt>
      <trkpt lat="43.36757" lon="2.21538">
        <ele>588.6</ele>
        <time>2019-08-04T08:01:46.000Z</time>
      </trkpt>
      <trkpt lat="43.36755" lon="2.21541">
        <ele>588.6</ele>
        <time>2019-08-04T08:01:47.000Z</time>
      </trkpt>
      <trkpt lat="43.36754" lon="2.21544">
        <ele>588.7</ele>
        <time>2019-08-04T08:01:48.000Z</time>
      </trkpt>
      <trkpt lat="43.36752" lon="2.21546">
        <ele>588.7</ele>
        <time>2019-08-04T08:01:49.000Z</time>
      </trkpt>
      <trkpt lat="43.36751" lon="2.21549">
        <ele>588.8</ele>
        <time>2019-08-04T08:01:50.000Z</time>
      </trkpt>
      <trkpt lat="43.36749" lon="2.21552">
        <ele>588.8</ele>
        <time>2019-08-04T08:01:51.000Z</time>
      </trkpt>
      <trkpt lat="43.36748" lon="2.21555">
        <ele>588.9</ele>
        <time>2019-08-04T08:01:52.000Z</time>
      </trkpt>
      <trkpt lat="43.36747" lon="2.21558">
        <ele>588.9</ele>
        <time>2019-08-04T08:01:53.000Z</time>
      </trkpt>
      <trkpt lat="43.36745" lon="2.2156">
        <ele>589</ele>
        <time>2019-08-04T08:01:54.000Z</time>
      </trkpt>
      <trkpt lat="43.36744" lon="2.21563">
        <ele>589</ele>
        <time>2019-08-04T08:01:55.000Z</time>
      </trkpt>
      <trkpt lat="43.36743" lon="2.21566">
        <ele>589.1</ele>
        <time>2019-08-04T08:01:56.000Z</time>
      </trkpt>
      <trkpt lat="43.36741" lon="2.21569">
        <ele>589.2</ele>
        <time>2019-08-04T08:01:57.000Z</time>
      </trkpt>
      <trkpt lat="43.3674" lon="2.21572">
        <ele>589.2</ele>
        <time>2019-08-04T08:01:58.000Z</time>
      </trkpt>
      <trkpt lat="43.36738" lon="2.21575">
        <ele>589.3</ele>
        <time>2019-08-04T08:01:59.000Z</time>
      </trkpt>
      <trkpt lat="43.36737" lon="2.21578">
        <ele>589.3</ele>
        <time>2019-08-04T08:02:00.000Z</time>
      </trkpt>
      <trkpt lat="43.36735" lon="2.21581">
        <ele>589.4</ele>
        <time>2019-08-04T08:02:01.000Z</time>
      </trkpt>
      <trkpt lat="43.36734" lon="2.21584">
        <ele>589.4</ele>
        <time>2019-08-04T08:02:02.000Z</time>
      </trkpt>
      <trkpt lat="43.36732" lon="2.21587">
        <ele>589.4</ele>
        <time>2019-08-04T08:02:03.000Z</time>
      </trkpt>
      <trkpt lat="43.3673" lon="2.21589">
        <ele>589.4</ele>
        <time>2019-08-04T08:02:04.000Z</time>
      </trkpt>
      <trkpt lat="43.36729" lon="2.21592">
        <ele>589.4</ele>
        <time>2019-08-04T08:02:05.000Z</time>
      </trkpt>
      <trkpt lat="43.36727" lon="2.21593">
        <ele>589.3</ele>
        <time>2019-08-04T08:02:06.000Z</time>
      </trkpt>
      <trkpt lat="43.36725" lon="2.21595">
        <ele>589.2</ele>
        <time>2019-08-04T08:02:07.000Z</time>
      </trkpt>
      <trkpt lat="43.36723" lon="2.21596">
        <ele>589.2</ele>
        <time>2019-08-04T08:02:08.000Z</time>
      </trkpt>
      <trkpt lat="43.36721" lon="2.21597">
        <ele>589.1</ele>
        <time>2019-08-04T08:02:09.000Z</time>
      </trkpt>
      <trkpt lat="43.36719" lon="2.21597">
        <ele>589</ele>
        <time>2019-08-04T08:02:10.000Z</time>
      </trkpt>
      <trkpt lat="43.36717" lon="2.21597">
        <ele>588.9</ele>
        <time>2019-08-04T08:02:11.000Z</time>
      </trkpt>
      <trkpt lat="43.36714" lon="2.21597">
        <ele>588.8</ele>
        <time>2019-08-04T08:02:12.000Z</time>
      </trkpt>
      <trkpt lat="43.36712" lon="2.21597">
        <ele>588.7</ele>
        <time>2019-08-04T08:02:13.000Z</time>
      </trkpt>
      <trkpt lat="43.3671" lon="2.21597">
        <ele>588.6</ele>
        <time>2019-08-04T08:02:14.000Z</time>
      </trkpt>
      <trkpt lat="43.36707" lon="2.21597">
        <ele>588.5</ele>
        <time>2019-08-04T08:02:15.000Z</time>
      </trkpt>
      <trkpt lat="43.36705" lon="2.21597">
        <ele>588.4</ele>
        <time>2019-08-04T08:02:16.000Z</time>
      </trkpt>
      <trkpt lat="43.36703" lon="2.21597">
        <ele>588.3</ele>
        <time>2019-08-04T08:02:17.000Z</time>
      </trkpt>
      <trkpt lat="43.367" lon="2.21597">
        <ele>588.2</ele>
        <time>2019-08-04T08:02:18.000Z</time>
      </trkpt>
      <trkpt lat="43.36698" lon="2.21598">
        <ele>588.1</ele>
        <time>2019-08-04T08:02:19.000Z</time>
      </trkpt>
      <trkpt lat="43.36695" lon="2.21598">
        <ele>588</ele>
        <time>2019-08-04T08:02:20.000Z</time>
      </trkpt>
      <trkpt lat="43.36693" lon="2.21599">
        <ele>587.9</ele>
        <time>2019-08-04T08:02:21.000Z</time>
      </trkpt>
      <trkpt lat="43.3669" lon="2.21599">
        <ele>587.8</ele>
        <time>2019-08-04T08:02:22.000Z</time>
      </trkpt>
      <trkpt lat="43.36688" lon="2.216">
        <ele>587.7</ele>
        <time>2019-08-04T08:02:23.000Z</time>
      </trkpt>
      <trkpt lat="43.36685" lon="2.216">
        <ele>587.6</ele>
        <time>2019-08-04T08:02:24.000Z</time>
      </trkpt>
      <trkpt lat="43.36683" lon="2.21601">
        <ele>587.5</ele>
        <time>2019-08-04T08:02:25.000Z</time>
      </trkpt>
      <trkpt lat="43.3668" lon="2.21601">
        <ele>587.4</ele>
        <time>2019-08-04T08:02:26.000Z</time>
      </trkpt>
      <trkpt lat="43.36678" lon="2.21602">
        <ele>587.3</ele>
        <time>2019-08-04T08:02:27.000Z</time>
      </trkpt>
      <trkpt lat="43.36675" lon="2.21602">
        <ele>587.1</ele>
        <time>2019-08-04T08:02:28.000Z</time>
      </trkpt>
      <trkpt lat="43.36672" lon="2.21602">
        <ele>587</ele>
        <time>2019-08-04T08:02:29.000Z</time>
      </trkpt>
      <trkpt lat="43.36669" lon="2.21603">
        <ele>586.9</ele>
        <time>2019-08-04T08:02:30.000Z</time>
      </trkpt>
      <trkpt lat="43.36666" lon="2.21603">
        <ele>586.7</ele>
        <time>2019-08-04T08:02:31.000Z</time>
      </trkpt>
      <trkpt lat="43.36663" lon="2.21603">
        <ele>586.5</ele>
        <time>2019-08-04T08:02:32.000Z</time>
      </trkpt>
      <trkpt lat="43.3666" lon="2.21603">
        <ele>586.3</ele>
        <time>2019-08-04T08:02:33.000Z</time>
      </trkpt>
      <trkpt lat="43.36657" lon="2.21603">
        <ele>586.1</ele>
        <time>2019-08-04T08:02:34.000Z</time>
      </trkpt>
      <trkpt lat="43.36654" lon="2.21603">
        <ele>585.8</ele>
        <time>2019-08-04T08:02:35.000Z</time>
      </trkpt>
      <trkpt lat="43.3665" lon="2.21603">
        <ele>585.6</ele>
        <time>2019-08-04T08:02:36.000Z</time>
      </trkpt>
      <trkpt lat="43.36647" lon="2.21603">
        <ele>585.4</ele>
        <time>2019-08-04T08:02:37.000Z</time>
      </trkpt>
      <trkpt lat="43.36644" lon="2.21603">
        <ele>585.1</ele>
        <time>2019-08-04T08:02:38.000Z</time>
      </trkpt>
      <trkpt lat="43.36641" lon="2.21604">
        <ele>584.9</ele>
        <time>2019-08-04T08:02:39.000Z</time>
      </trkpt>
      <trkpt lat="43.36638" lon="2.21604">
        <ele>584.7</ele>
        <time>2019-08-04T08:02:40.000Z</time>
      </trkpt>
      <trkpt lat="43.36635" lon="2.21604">
        <ele>584.5</ele>
        <time>2019-08-04T08:02:41.000Z</time>
      </trkpt>
      <trkpt lat="43.36632" lon="2.21605">
        <ele>584.3</ele>
        <time>2019-08-04T08:02:42.000Z</time>
      </trkpt>
      <trkpt lat="43.36629" lon="2.21605">
        <ele>584.1</ele>
        <time>2019-08-04T08:02:43.000Z</time>
      </trkpt>
      <trkpt lat="43.36627" lon="2.21605">
        <ele>583.9</ele>
        <time>2019-08-04T08:02:44.000Z</time>
      </trkpt>
      <trkpt lat="43.36624" lon="2.21606">
        <ele>583.6</ele>
        <time>2019-08-04T08:02:45.000Z</time>
      </trkpt>
      <trkpt lat="43.36621" lon="2.21606">
        <ele>583.4</ele>
        <time>2019-08-04T08:02:46.000Z</time>
      </trkpt>
      <trkpt lat="43.36618" lon="2.21607">
        <ele>583.2</ele>
        <time>2019-08-04T08:02:47.000Z</time>
      </trkpt>
      <trkpt lat="43.36616" lon="2.21607">
        <ele>583</ele>
        <time>2019-08-04T08:02:48.000Z</time>
      </trkpt>
      <trkpt lat="43.36613" lon="2.21607">
        <ele>582.8</ele>
        <time>2019-08-04T08:02:49.000Z</time>
      </trkpt>
      <trkpt lat="43.3661" lon="2.21607">
        <ele>582.6</ele>
        <time>2019-08-04T08:02:50.000Z</time>
      </trkpt>
      <trkpt lat="43.36607" lon="2.21607">
        <ele>582.4</ele>
        <time>2019-08-04T08:02:51.000Z</time>
      </trkpt>
      <trkpt lat="43.36605" lon="2.21607">
        <ele>582.2</ele>
        <time>2019-08-04T08:02:52.000Z</time>
      </trkpt>
      <trkpt lat="43.36602" lon="2.21607">
        <ele>582</ele>
        <time>2019-08-04T08:02:53.000Z</time>
      </trkpt>
      <trkpt lat="43.36599" lon="2.21607">
        <ele>581.8</ele>
        <time>2019-08-04T08:02:54.000Z</time>
      </trkpt>
      <trkpt lat="43.36596" lon="2.21607">
        <ele>581.6</ele>
        <time>2019-08-04T08:02:55.000Z</time>
      </trkpt>
      <trkpt lat="43.36593" lon="2.21606">
        <ele>581.4</ele>
        <time>2019-08-04T08:02:56.000Z</time>
      </trkpt>
      <trkpt lat="43.3659" lon="2.21606">
        <ele>581.2</ele>
        <time>2019-08-04T08:02:57.000Z</time>
      </trkpt>
      <trkpt lat="43.36588" lon="2.21605">
        <ele>581</ele>
        <time>2019-08-04T08:02:58.000Z</time>
      </trkpt>
      <trkpt lat="43.36585" lon="2.21604">
        <ele>580.8</ele>
        <time>2019-08-04T08:02:59.000Z</time>
      </trkpt>
      <trkpt lat="43.36582" lon="2.21604">
        <ele>580.7</ele>
        <time>2019-08-04T08:03:00.000Z</time>
      </trkpt>
      <trkpt lat="43.36579" lon="2.21603">
        <ele>580.5</ele>
        <time>2019-08-04T08:03:01.000Z</time>
      </trkpt>
      <trkpt lat="43.36576" lon="2.21602">
        <ele>580.3</ele>
        <time>2019-08-04T08:03:02.000Z</time>
      </trkpt>
      <trkpt lat="43.36573" lon="2.21601">
        <ele>580.2</ele>
        <time>2019-08-04T08:03:03.000Z</time>
      </trkpt>
      <trkpt lat="43.36571" lon="2.21599">
        <ele>580</ele>
        <time>2019-08-04T08:03:04.000Z</time>
      </trkpt>
      <trkpt lat="43.36569" lon="2.21598">
        <ele>579.9</ele>
        <time>2019-08-04T08:03:05.000Z</time>
      </trkpt>
      <trkpt lat="43.36567" lon="2.21596">
        <ele>579.8</ele>
        <time>2019-08-04T08:03:06.000Z</time>
      </trkpt>
      <trkpt lat="43.36565" lon="2.21595">
        <ele>579.7</ele>
        <time>2019-08-04T08:03:07.000Z</time>
      </trkpt>
      <trkpt lat="43.36564" lon="2.21594">
        <ele>579.7</ele>
        <time>2019-08-04T08:03:08.000Z</time>
      </trkpt>
      <trkpt lat="43.36562" lon="2.21593">
        <ele>579.6</ele>
        <time>2019-08-04T08:03:09.000Z</time>
      </trkpt>
      <trkpt lat="43.36561" lon="2.21592">
        <ele>579.5</ele>
        <time>2019-08-04T08:03:10.000Z</time>
      </trkpt>
      <trkpt lat="43.36559" lon="2.21593">
        <ele>579.4</ele>
        <time>2019-08-04T08:03:11.000Z</time>
      </trkpt>
      <trkpt lat="43.36558" lon="2.21594">
        <ele>579.3</ele>
        <time>2019-08-04T08:03:12.000Z</time>
      </trkpt>
      <trkpt lat="43.36556" lon="2.21596">
        <ele>579.2</ele>
        <time>2019-08-04T08:03:13.000Z</time>
      </trkpt>
      <trkpt lat="43.36554" lon="2.21597">
        <ele>579</ele>
        <time>2019-08-04T08:03:14.000Z</time>
      </trkpt>
      <trkpt lat="43.36552" lon="2.21598">
        <ele>578.9</ele>
        <time>2019-08-04T08:03:15.000Z</time>
      </trkpt>
      <trkpt lat="43.3655" lon="2.21599">
        <ele>578.7</ele>
        <time>2019-08-04T08:03:16.000Z</time>
      </trkpt>
      <trkpt lat="43.36548" lon="2.21599">
        <ele>578.6</ele>
        <time>2019-08-04T08:03:17.000Z</time>
      </trkpt>
      <trkpt lat="43.36545" lon="2.21599">
        <ele>578.4</ele>
        <time>2019-08-04T08:03:18.000Z</time>
      </trkpt>
      <trkpt lat="43.36543" lon="2.21599">
        <ele>578.3</ele>
        <time>2019-08-04T08:03:19.000Z</time>
      </trkpt>
      <trkpt lat="43.3654" lon="2.21598">
        <ele>578.1</ele>
        <time>2019-08-04T08:03:20.000Z</time>
      </trkpt>
      <trkpt lat="43.36537" lon="2.21598">
        <ele>578</ele>
        <time>2019-08-04T08:03:21.000Z</time>
      </trkpt>
      <trkpt lat="43.36534" lon="2.21598">
        <ele>577.8</ele>
        <time>2019-08-04T08:03:22.000Z</time>
      </trkpt>
      <trkpt lat="43.36531" lon="2.21598">
        <ele>577.6</ele>
        <time>2019-08-04T08:03:23.000Z</time>
      </trkpt>
      <trkpt lat="43.36528" lon="2.21598">
        <ele>577.4</ele>
        <time>2019-08-04T08:03:24.000Z</time>
      </trkpt>
      <trkpt lat="43.36525" lon="2.21599">
        <ele>577.2</ele>
        <time>2019-08-04T08:03:25.000Z</time>
      </trkpt>
      <trkpt lat="43.36522" lon="2.21599">
        <ele>577</ele>
        <time>2019-08-04T08:03:26.000Z</time>
      </trkpt>
      <trkpt lat="43.36518" lon="2.21599">
        <ele>576.8</ele>
        <time>2019-08-04T08:03:27.000Z</time>
      </trkpt>
      <trkpt lat="43.36515" lon="2.216">
        <ele>576.5</ele>
        <time>2019-08-04T08:03:28.000Z</time>
      </trkpt>
      <trkpt lat="43.36512" lon="2.216">
        <ele>576.3</ele>
        <time>2019-08-04T08:03:29.000Z</time>
      </trkpt>
      <trkpt lat="43.36509" lon="2.21601">
        <ele>576.2</ele>
        <time>2019-08-04T08:03:30.000Z</time>
      </trkpt>
      <trkpt lat="43.36506" lon="2.21601">
        <ele>576</ele>
        <time>2019-08-04T08:03:31.000Z</time>
      </trkpt>
      <trkpt lat="43.36503" lon="2.21601">
        <ele>575.8</ele>
        <time>2019-08-04T08:03:32.000Z</time>
      </trkpt>
      <trkpt lat="43.36501" lon="2.21602">
        <ele>575.6</ele>
        <time>2019-08-04T08:03:33.000Z</time>
      </trkpt>
      <trkpt lat="43.36498" lon="2.21602">
        <ele>575.4</ele>
        <time>2019-08-04T08:03:34.000Z</time>
      </trkpt>
      <trkpt lat="43.36495" lon="2.21602">
        <ele>575.2</ele>
        <time>2019-08-04T08:03:35.000Z</time>
      </trkpt>
      <trkpt lat="43.36493" lon="2.21602">
        <ele>575</ele>
        <time>2019-08-04T08:03:36.000Z</time>
      </trkpt>
      <trkpt lat="43.3649" lon="2.21602">
        <ele>574.8</ele>
        <time>2019-08-04T08:03:37.000Z</time>
      </trkpt>
      <trkpt lat="43.36487" lon="2.21602">
        <ele>574.6</ele>
        <time>2019-08-04T08:03:38.000Z</time>
      </trkpt>
      <trkpt lat="43.36484" lon="2.21602">
        <ele>574.3</ele>
        <time>2019-08-04T08:03:39.000Z</time>
      </trkpt>
      <trkpt lat="43.36481" lon="2.21602">
        <ele>574.1</ele>
        <time>2019-08-04T08:03:40.000Z</time>
      </trkpt>
      <trkpt lat="43.36479" lon="2.21602">
        <ele>573.9</ele>
        <time>2019-08-04T08:03:41.000Z</time>
      </trkpt>
      <trkpt lat="43.36476" lon="2.21602">
        <ele>573.7</ele>
        <time>2019-08-04T08:03:42.000Z</time>
      </trkpt>
      <trkpt lat="43.36473" lon="2.21602">
        <ele>573.5</ele>
        <time>2019-08-04T08:03:43.000Z</time>
      </trkpt>
      <trkpt lat="43.3647" lon="2.21602">
        <ele>573.3</ele>
        <time>2019-08-04T08:03:44.000Z</time>
      </trkpt>
      <trkpt lat="43.36467" lon="2.21602">
        <ele>573</ele>
        <time>2019-08-04T08:03:45.000Z</time>
      </trkpt>
      <trkpt lat="43.36464" lon="2.21602">
        <ele>572.8</ele>
        <time>2019-08-04T08:03:46.000Z</time>
      </trkpt>
      <trkpt lat="43.36461" lon="2.21602">
        <ele>572.6</ele>
        <time>2019-08-04T08:03:47.000Z</time>
      </trkpt>
      <trkpt lat="43.36458" lon="2.21602">
        <ele>572.4</ele>
        <time>2019-08-04T08:03:48.000Z</time>
      </trkpt>
      <trkpt lat="43.36455" lon="2.21603">
        <ele>572.2</ele>
        <time>2019-08-04T08:03:49.000Z</time>
      </trkpt>
      <trkpt lat="43.36453" lon="2.21603">
        <ele>571.9</ele>
        <time>2019-08-04T08:03:50.000Z</time>
      </trkpt>
      <trkpt lat="43.3645" lon="2.21603">
        <ele>571.7</ele>
        <time>2019-08-04T08:03:51.000Z</time>
      </trkpt>
      <trkpt lat="43.36447" lon="2.21604">
        <ele>571.5</ele>
        <time>2019-08-04T08:03:52.000Z</time>
      </trkpt>
      <trkpt lat="43.36444" lon="2.21604">
        <ele>571.3</ele>
        <time>2019-08-04T08:03:53.000Z</time>
      </trkpt>
      <trkpt lat="43.36441" lon="2.21605">
        <ele>571.1</ele>
        <time>2019-08-04T08:03:54.000Z</time>
      </trkpt>
      <trkpt lat="43.36438" lon="2.21606">
        <ele>570.9</ele>
        <time>2019-08-04T08:03:55.000Z</time>
      </trkpt>
      <trkpt lat="43.36436" lon="2.21606">
        <ele>570.7</ele>
        <time>2019-08-04T08:03:56.000Z</time>
      </trkpt>
      <trkpt lat="43.36433" lon="2.21607">
        <ele>570.5</ele>
        <time>2019-08-04T08:03:57.000Z</time>
      </trkpt>
      <trkpt lat="43.3643" lon="2.21609">
        <ele>570.3</ele>
        <time>2019-08-04T08:03:58.000Z</time>
      </trkpt>
      <trkpt lat="43.36428" lon="2.2161">
        <ele>570.1</ele>
        <time>2019-08-04T08:03:59.000Z</time>
      </trkpt>
      <trkpt lat="43.36425" lon="2.21611">
        <ele>569.9</ele>
        <time>2019-08-04T08:04:00.000Z</time>
      </trkpt>
      <trkpt lat="43.36422" lon="2.21613">
        <ele>569.7</ele>
        <time>2019-08-04T08:04:01.000Z</time>
      </trkpt>
      <trkpt lat="43.3642" lon="2.21614">
        <ele>569.6</ele>
        <time>2019-08-04T08:04:02.000Z</time>
      </trkpt>
      <trkpt lat="43.36417" lon="2.21616">
        <ele>569.4</ele>
        <time>2019-08-04T08:04:03.000Z</time>
      </trkpt>
      <trkpt lat="43.36414" lon="2.21618">
        <ele>569.2</ele>
        <time>2019-08-04T08:04:04.000Z</time>
      </trkpt>
      <trkpt lat="43.36412" lon="2.2162">
        <ele>569</ele>
        <time>2019-08-04T08:04:05.000Z</time>
      </trkpt>
      <trkpt lat="43.3641" lon="2.21623">
        <ele>568.7</ele>
        <time>2019-08-04T08:04:06.000Z</time>
      </trkpt>
      <trkpt lat="43.36407" lon="2.21625">
        <ele>568.5</ele>
        <time>2019-08-04T08:04:07.000Z</time>
      </trkpt>
      <trkpt lat="43.36405" lon="2.21628">
        <ele>568.3</ele>
        <time>2019-08-04T08:04:08.000Z</time>
      </trkpt>
      <trkpt lat="43.36402" lon="2.2163">
        <ele>568.1</ele>
        <time>2019-08-04T08:04:09.000Z</time>
      </trkpt>
      <trkpt lat="43.364" lon="2.21633">
        <ele>567.9</ele>
        <time>2019-08-04T08:04:10.000Z</time>
      </trkpt>
      <trkpt lat="43.36398" lon="2.21636">
        <ele>567.8</ele>
        <time>2019-08-04T08:04:11.000Z</time>
      </trkpt>
      <trkpt lat="43.36396" lon="2.21639">
        <ele>567.6</ele>
        <time>2019-08-04T08:04:12.000Z</time>
      </trkpt>
      <trkpt lat="43.36394" lon="2.21642">
        <ele>567.4</ele>
        <time>2019-08-04T08:04:13.000Z</time>
      </trkpt>
      <trkpt lat="43.36392" lon="2.21644">
        <ele>567.3</ele>
        <time>2019-08-04T08:04:14.000Z</time>
      </trkpt>
      <trkpt lat="43.36391" lon="2.21647">
        <ele>567.2</ele>
        <time>2019-08-04T08:04:15.000Z</time>
      </trkpt>
      <trkpt lat="43.36389" lon="2.2165">
        <ele>567.1</ele>
        <time>2019-08-04T08:04:16.000Z</time>
      </trkpt>
      <trkpt lat="43.36387" lon="2.21652">
        <ele>567</ele>
        <time>2019-08-04T08:04:17.000Z</time>
      </trkpt>
      <trkpt lat="43.36386" lon="2.21655">
        <ele>566.9</ele>
        <time>2019-08-04T08:04:18.000Z</time>
      </trkpt>
      <trkpt lat="43.36385" lon="2.21657">
        <ele>566.8</ele>
        <time>2019-08-04T08:04:19.000Z</time>
      </trkpt>
      <trkpt lat="43.36384" lon="2.21659">
        <ele>566.7</ele>
        <time>2019-08-04T08:04:20.000Z</time>
      </trkpt>
      <trkpt lat="43.36383" lon="2.21661">
        <ele>566.7</ele>
        <time>2019-08-04T08:04:21.000Z</time>
      </trkpt>
      <trkpt lat="43.36382" lon="2.21663">
        <ele>566.6</ele>
        <time>2019-08-04T08:04:22.000Z</time>
      </trkpt>
      <trkpt lat="43.36382" lon="2.21664">
        <ele>566.6</ele>
        <time>2019-08-04T08:04:23.000Z</time>
      </trkpt>
      <trkpt lat="43.36381" lon="2.21666">
        <ele>566.5</ele>
        <time>2019-08-04T08:04:24.000Z</time>
      </trkpt>
      <trkpt lat="43.3638" lon="2.21667">
        <ele>566.5</ele>
        <time>2019-08-04T08:04:25.000Z</time>
      </trkpt>
      <trkpt lat="43.36379" lon="2.21668">
        <ele>566.4</ele>
        <time>2019-08-04T08:04:26.000Z</time>
      </trkpt>
      <trkpt lat="43.36378" lon="2.21669">
        <ele>566.3</ele>
        <time>2019-08-04T08:04:27.000Z</time>
      </trkpt>
      <trkpt lat="43.36377" lon="2.2167">
        <ele>566.2</ele>
        <time>2019-08-04T08:04:28.000Z</time>
      </trkpt>
      <trkpt lat="43.36376" lon="2.21671">
        <ele>566.1</ele>
        <time>2019-08-04T08:04:29.000Z</time>
      </trkpt>
      <trkpt lat="43.36374" lon="2.21672">
        <ele>565.9</ele>
        <time>2019-08-04T08:04:30.000Z</time>
      </trkpt>
      <trkpt lat="43.36372" lon="2.21672">
        <ele>565.7</ele>
        <time>2019-08-04T08:04:31.000Z</time>
      </trkpt>
      <trkpt lat="43.3637" lon="2.21673">
        <ele>565.5</ele>
        <time>2019-08-04T08:04:32.000Z</time>
      </trkpt>
      <trkpt lat="43.36368" lon="2.21673">
        <ele>565.3</ele>
        <time>2019-08-04T08:04:33.000Z</time>
      </trkpt>
      <trkpt lat="43.36366" lon="2.21672">
        <ele>565.1</ele>
        <time>2019-08-04T08:04:34.000Z</time>
      </trkpt>
      <trkpt lat="43.36363" lon="2.21672">
        <ele>564.8</ele>
        <time>2019-08-04T08:04:35.000Z</time>
      </trkpt>
      <trkpt lat="43.3636" lon="2.21671">
        <ele>564.6</ele>
        <time>2019-08-04T08:04:36.000Z</time>
      </trkpt>
      <trkpt lat="43.36358" lon="2.21669">
        <ele>564.3</ele>
        <time>2019-08-04T08:04:37.000Z</time>
      </trkpt>
      <trkpt lat="43.36355" lon="2.21668">
        <ele>564</ele>
        <time>2019-08-04T08:04:38.000Z</time>
      </trkpt>
      <trkpt lat="43.36352" lon="2.21666">
        <ele>563.8</ele>
        <time>2019-08-04T08:04:39.000Z</time>
      </trkpt>
      <trkpt lat="43.36349" lon="2.21664">
        <ele>563.4</ele>
        <time>2019-08-04T08:04:40.000Z</time>
      </trkpt>
      <trkpt lat="43.36346" lon="2.21662">
        <ele>563.1</ele>
        <time>2019-08-04T08:04:41.000Z</time>
      </trkpt>
      <trkpt lat="43.36344" lon="2.2166">
        <ele>562.8</ele>
        <time>2019-08-04T08:04:42.000Z</time>
      </trkpt>
      <trkpt lat="43.36341" lon="2.21659">
        <ele>562.5</ele>
        <time>2019-08-04T08:04:43.000Z</time>
      </trkpt>
      <trkpt lat="43.36338" lon="2.21657">
        <ele>562.2</ele>
        <time>2019-08-04T08:04:44.000Z</time>
      </trkpt>
      <trkpt lat="43.36335" lon="2.21656">
        <ele>561.9</ele>
        <time>2019-08-04T08:04:45.000Z</time>
      </trkpt>
      <trkpt lat="43.36331" lon="2.21654">
        <ele>561.5</ele>
        <time>2019-08-04T08:04:46.000Z</time>
      </trkpt>
      <trkpt lat="43.36328" lon="2.21653">
        <ele>561</ele>
        <time>2019-08-04T08:04:47.000Z</time>
      </trkpt>
      <trkpt lat="43.36325" lon="2.21652">
        <ele>560.6</ele>
        <time>2019-08-04T08:04:48.000Z</time>
      </trkpt>
      <trkpt lat="43.36321" lon="2.2165">
        <ele>560.1</ele>
        <time>2019-08-04T08:04:49.000Z</time>
      </trkpt>
      <trkpt lat="43.36318" lon="2.21649">
        <ele>559.6</ele>
        <time>2019-08-04T08:04:50.000Z</time>
      </trkpt>
      <trkpt lat="43.36314" lon="2.21647">
        <ele>559.1</ele>
        <time>2019-08-04T08:04:51.000Z</time>
      </trkpt>
      <trkpt lat="43.3631" lon="2.21646">
        <ele>558.6</ele>
        <time>2019-08-04T08:04:52.000Z</time>
      </trkpt>
      <trkpt lat="43.36306" lon="2.21644">
        <ele>558.1</ele>
        <time>2019-08-04T08:04:53.000Z</time>
      </trkpt>
      <trkpt lat="43.36302" lon="2.21643">
        <ele>557.6</ele>
        <time>2019-08-04T08:04:54.000Z</time>
      </trkpt>
      <trkpt lat="43.36299" lon="2.21641">
        <ele>557.2</ele>
        <time>2019-08-04T08:04:55.000Z</time>
      </trkpt>
      <trkpt lat="43.36295" lon="2.2164">
        <ele>556.7</ele>
        <time>2019-08-04T08:04:56.000Z</time>
      </trkpt>
      <trkpt lat="43.36291" lon="2.21638">
        <ele>556.3</ele>
        <time>2019-08-04T08:04:57.000Z</time>
      </trkpt>
      <trkpt lat="43.36288" lon="2.21637">
        <ele>555.9</ele>
        <time>2019-08-04T08:04:58.000Z</time>
      </trkpt>
      <trkpt lat="43.36285" lon="2.21635">
        <ele>555.5</ele>
        <time>2019-08-04T08:04:59.000Z</time>
      </trkpt>
      <trkpt lat="43.36282" lon="2.21634">
        <ele>555.2</ele>
        <time>2019-08-04T08:05:00.000Z</time>
      </trkpt>
      <trkpt lat="43.36279" lon="2.21633">
        <ele>554.8</ele>
        <time>2019-08-04T08:05:01.000Z</time>
      </trkpt>
      <trkpt lat="43.36277" lon="2.21632">
        <ele>554.5</ele>
        <time>2019-08-04T08:05:02.000Z</time>
      </trkpt>
      <trkpt lat="43.36274" lon="2.21631">
        <ele>554.2</ele>
        <time>2019-08-04T08:05:03.000Z</time>
      </trkpt>
      <trkpt lat="43.36272" lon="2.2163">
        <ele>553.9</ele>
        <time>2019-08-04T08:05:04.000Z</time>
      </trkpt>
      <trkpt lat="43.36269" lon="2.21629">
        <ele>553.7</ele>
        <time>2019-08-04T08:05:05.000Z</time>
      </trkpt>
      <trkpt lat="43.36266" lon="2.21628">
        <ele>553.3</ele>
        <time>2019-08-04T08:05:06.000Z</time>
      </trkpt>
      <trkpt lat="43.36264" lon="2.21628">
        <ele>553</ele>
        <time>2019-08-04T08:05:07.000Z</time>
      </trkpt>
      <trkpt lat="43.36261" lon="2.21627">
        <ele>552.7</ele>
        <time>2019-08-04T08:05:08.000Z</time>
      </trkpt>
      <trkpt lat="43.36258" lon="2.21627">
        <ele>552.4</ele>
        <time>2019-08-04T08:05:09.000Z</time>
      </trkpt>
      <trkpt lat="43.36256" lon="2.21627">
        <ele>552.1</ele>
        <time>2019-08-04T08:05:10.000Z</time>
      </trkpt>
      <trkpt lat="43.36253" lon="2.21627">
        <ele>551.9</ele>
        <time>2019-08-04T08:05:11.000Z</time>
      </trkpt>
      <trkpt lat="43.36251" lon="2.21628">
        <ele>551.6</ele>
        <time>2019-08-04T08:05:12.000Z</time>
      </trkpt>
      <trkpt lat="43.36249" lon="2.21629">
        <ele>551.3</ele>
        <time>2019-08-04T08:05:13.000Z</time>
      </trkpt>
      <trkpt lat="43.36247" lon="2.2163">
        <ele>551</ele>
        <time>2019-08-04T08:05:14.000Z</time>
      </trkpt>
      <trkpt lat="43.36245" lon="2.21632">
        <ele>550.7</ele>
        <time>2019-08-04T08:05:15.000Z</time>
      </trkpt>
      <trkpt lat="43.36243" lon="2.21634">
        <ele>550.5</ele>
        <time>2019-08-04T08:05:16.000Z</time>
      </trkpt>
      <trkpt lat="43.36241" lon="2.21637">
        <ele>550.2</ele>
        <time>2019-08-04T08:05:17.000Z</time>
      </trkpt>
      <trkpt lat="43.3624" lon="2.21639">
        <ele>550</ele>
        <time>2019-08-04T08:05:18.000Z</time>
      </trkpt>
      <trkpt lat="43.36239" lon="2.21643">
        <ele>549.8</ele>
        <time>2019-08-04T08:05:19.000Z</time>
      </trkpt>
      <trkpt lat="43.36237" lon="2.21646">
        <ele>549.6</ele>
        <time>2019-08-04T08:05:20.000Z</time>
      </trkpt>
      <trkpt lat="43.36236" lon="2.2165">
        <ele>549.4</ele>
        <time>2019-08-04T08:05:21.000Z</time>
      </trkpt>
      <trkpt lat="43.36235" lon="2.21653">
        <ele>549.2</ele>
        <time>2019-08-04T08:05:22.000Z</time>
      </trkpt>
      <trkpt lat="43.36234" lon="2.21657">
        <ele>549</ele>
        <time>2019-08-04T08:05:23.000Z</time>
      </trkpt>
      <trkpt lat="43.36233" lon="2.21661">
        <ele>548.8</ele>
        <time>2019-08-04T08:05:24.000Z</time>
      </trkpt>
      <trkpt lat="43.36232" lon="2.21664">
        <ele>548.6</ele>
        <time>2019-08-04T08:05:25.000Z</time>
      </trkpt>
      <trkpt lat="43.36231" lon="2.21667">
        <ele>548.4</ele>
        <time>2019-08-04T08:05:26.000Z</time>
      </trkpt>
      <trkpt lat="43.36229" lon="2.2167">
        <ele>548.2</ele>
        <time>2019-08-04T08:05:27.000Z</time>
      </trkpt>
      <trkpt lat="43.36228" lon="2.21673">
        <ele>547.9</ele>
        <time>2019-08-04T08:05:28.000Z</time>
      </trkpt>
      <trkpt lat="43.36227" lon="2.21676">
        <ele>547.6</ele>
        <time>2019-08-04T08:05:29.000Z</time>
      </trkpt>
      <trkpt lat="43.36226" lon="2.2168">
        <ele>547.4</ele>
        <time>2019-08-04T08:05:30.000Z</time>
      </trkpt>
      <trkpt lat="43.36226" lon="2.21683">
        <ele>547.1</ele>
        <time>2019-08-04T08:05:31.000Z</time>
      </trkpt>
      <trkpt lat="43.36225" lon="2.21687">
        <ele>546.9</ele>
        <time>2019-08-04T08:05:32.000Z</time>
      </trkpt>
      <trkpt lat="43.36224" lon="2.21691">
        <ele>546.7</ele>
        <time>2019-08-04T08:05:33.000Z</time>
      </trkpt>
      <trkpt lat="43.36223" lon="2.21695">
        <ele>546.4</ele>
        <time>2019-08-04T08:05:34.000Z</time>
      </trkpt>
      <trkpt lat="43.36222" lon="2.21699">
        <ele>546.2</ele>
        <time>2019-08-04T08:05:35.000Z</time>
      </trkpt>
      <trkpt lat="43.36221" lon="2.21703">
        <ele>545.9</ele>
        <time>2019-08-04T08:05:36.000Z</time>
      </trkpt>
      <trkpt lat="43.3622" lon="2.21707">
        <ele>545.6</ele>
        <time>2019-08-04T08:05:37.000Z</time>
      </trkpt>
      <trkpt lat="43.36219" lon="2.21711">
        <ele>545.4</ele>
        <time>2019-08-04T08:05:38.000Z</time>
      </trkpt>
      <trkpt lat="43.36217" lon="2.21714">
        <ele>545.1</ele>
        <time>2019-08-04T08:05:39.000Z</time>
      </trkpt>
      <trkpt lat="43.36216" lon="2.21718">
        <ele>544.8</ele>
        <time>2019-08-04T08:05:40.000Z</time>
      </trkpt>
      <trkpt lat="43.36215" lon="2.21722">
        <ele>544.5</ele>
        <time>2019-08-04T08:05:41.000Z</time>
      </trkpt>
      <trkpt lat="43.36213" lon="2.21725">
        <ele>544.3</ele>
        <time>2019-08-04T08:05:42.000Z</time>
      </trkpt>
      <trkpt lat="43.36212" lon="2.21729">
        <ele>544</ele>
        <time>2019-08-04T08:05:43.000Z</time>
      </trkpt>
      <trkpt lat="43.3621" lon="2.21732">
        <ele>543.8</ele>
        <time>2019-08-04T08:05:44.000Z</time>
      </trkpt>
      <trkpt lat="43.36209" lon="2.21734">
        <ele>543.5</ele>
        <time>2019-08-04T08:05:45.000Z</time>
      </trkpt>
      <trkpt lat="43.36208" lon="2.21737">
        <ele>543.3</ele>
        <time>2019-08-04T08:05:46.000Z</time>
      </trkpt>
      <trkpt lat="43.36206" lon="2.2174">
        <ele>543.1</ele>
        <time>2019-08-04T08:05:47.000Z</time>
      </trkpt>
      <trkpt lat="43.36205" lon="2.21743">
        <ele>542.8</ele>
        <time>2019-08-04T08:05:48.000Z</time>
      </trkpt>
      <trkpt lat="43.36203" lon="2.21746">
        <ele>542.6</ele>
        <time>2019-08-04T08:05:49.000Z</time>
      </trkpt>
      <trkpt lat="43.36202" lon="2.2175">
        <ele>542.4</ele>
        <time>2019-08-04T08:05:50.000Z</time>
      </trkpt>
      <trkpt lat="43.36201" lon="2.21753">
        <ele>542.3</ele>
        <time>2019-08-04T08:05:51.000Z</time>
      </trkpt>
      <trkpt lat="43.362" lon="2.21756">
        <ele>542.2</ele>
        <time>2019-08-04T08:05:52.000Z</time>
      </trkpt>
      <trkpt lat="43.36199" lon="2.2176">
        <ele>542.2</ele>
        <time>2019-08-04T08:05:53.000Z</time>
      </trkpt>
      <trkpt lat="43.36198" lon="2.21763">
        <ele>542.1</ele>
        <time>2019-08-04T08:05:54.000Z</time>
      </trkpt>
      <trkpt lat="43.36197" lon="2.21766">
        <ele>542.1</ele>
        <time>2019-08-04T08:05:55.000Z</time>
      </trkpt>
      <trkpt lat="43.36196" lon="2.21768">
        <ele>542</ele>
        <time>2019-08-04T08:05:56.000Z</time>
      </trkpt>
      <trkpt lat="43.36196" lon="2.2177">
        <ele>542</ele>
        <time>2019-08-04T08:05:57.000Z</time>
      </trkpt>
      <trkpt lat="43.36195" lon="2.21772">
        <ele>541.9</ele>
        <time>2019-08-04T08:05:58.000Z</time>
      </trkpt>
      <trkpt lat="43.36195" lon="2.21773">
        <ele>541.9</ele>
        <time>2019-08-04T08:05:59.000Z</time>
      </trkpt>
      <trkpt lat="43.36194" lon="2.21773">
        <ele>541.8</ele>
        <time>2019-08-04T08:06:00.000Z</time>
      </trkpt>
      <trkpt lat="43.36194" lon="2.21774">
        <ele>541.8</ele>
        <time>2019-08-04T08:06:01.000Z</time>
      </trkpt>
      <trkpt lat="43.36193" lon="2.21773">
        <ele>541.7</ele>
        <time>2019-08-04T08:06:02.000Z</time>
      </trkpt>
      <trkpt lat="43.36192" lon="2.21773">
        <ele>541.6</ele>
        <time>2019-08-04T08:06:03.000Z</time>
      </trkpt>
      <trkpt lat="43.36191" lon="2.21772">
        <ele>541.5</ele>
        <time>2019-08-04T08:06:04.000Z</time>
      </trkpt>
      <trkpt lat="43.3619" lon="2.21771">
        <ele>541.4</ele>
        <time>2019-08-04T08:06:05.000Z</time>
      </trkpt>
      <trkpt lat="43.36189" lon="2.2177">
        <ele>541.3</ele>
        <time>2019-08-04T08:06:06.000Z</time>
      </trkpt>
      <trkpt lat="43.36189" lon="2.2177">
        <ele>541.2</ele>
        <time>2019-08-04T08:06:07.000Z</time>
      </trkpt>
      <trkpt lat="43.36188" lon="2.21769">
        <ele>541.2</ele>
        <time>2019-08-04T08:06:08.000Z</time>
      </trkpt>
      <trkpt lat="43.36188" lon="2.21769">
        <ele>541.2</ele>
        <time>2019-08-04T08:06:09.000Z</time>
      </trkpt>
      <trkpt lat="43.36188" lon="2.21769">
        <ele>541.2</ele>
        <time>2019-08-04T08:06:10.000Z</time>
      </trkpt>
      <trkpt lat="43.36188" lon="2.21769">
        <ele>541.2</ele>
        <time>2019-08-04T08:06:11.000Z</time>
      </trkpt>
      <trkpt lat="43.36188" lon="2.21768">
        <ele>541.1</ele>
        <time>2019-08-04T08:06:12.000Z</time>
      </trkpt>
      <trkpt lat="43.36188" lon="2.21768">
        <ele>541.1</ele>
        <time>2019-08-04T08:06:13.000Z</time>
      </trkpt>
      <trkpt lat="43.36187" lon="2.21768">
        <ele>541.1</ele>
        <time>2019-08-04T08:06:14.000Z</time>
      </trkpt>
      <trkpt lat="43.36186" lon="2.21767">
        <ele>541</ele>
        <time>2019-08-04T08:06:15.000Z</time>
      </trkpt>
      <trkpt lat="43.36186" lon="2.21767">
        <ele>540.9</ele>
        <time>2019-08-04T08:06:16.000Z</time>
      </trkpt>
      <trkpt lat="43.36185" lon="2.21766">
        <ele>540.8</ele>
        <time>2019-08-04T08:06:17.000Z</time>
      </trkpt>
      <trkpt lat="43.36184" lon="2.21765">
        <ele>540.8</ele>
        <time>2019-08-04T08:06:18.000Z</time>
      </trkpt>
      <trkpt lat="43.36183" lon="2.21765">
        <ele>540.7</ele>
        <time>2019-08-04T08:06:19.000Z</time>
      </trkpt>
      <trkpt lat="43.36183" lon="2.21764">
        <ele>540.6</ele>
        <time>2019-08-04T08:06:20.000Z</time>
      </trkpt>
      <trkpt lat="43.36182" lon="2.21764">
        <ele>540.5</ele>
        <time>2019-08-04T08:06:21.000Z</time>
      </trkpt>
      <trkpt lat="43.36181" lon="2.21763">
        <ele>540.5</ele>
        <time>2019-08-04T08:06:22.000Z</time>
      </trkpt>
      <trkpt lat="43.36181" lon="2.21763">
        <ele>540.4</ele>
        <time>2019-08-04T08:06:23.000Z</time>
      </trkpt>
      <trkpt lat="43.3618" lon="2.21762">
        <ele>540.3</ele>
        <time>2019-08-04T08:06:24.000Z</time>
      </trkpt>
      <trkpt lat="43.36178" lon="2.21761">
        <ele>540.2</ele>
        <time>2019-08-04T08:06:25.000Z</time>
      </trkpt>
      <trkpt lat="43.36177" lon="2.2176">
        <ele>540</ele>
        <time>2019-08-04T08:06:26.000Z</time>
      </trkpt>
      <trkpt lat="43.36176" lon="2.2176">
        <ele>539.9</ele>
        <time>2019-08-04T08:06:27.000Z</time>
      </trkpt>
      <trkpt lat="43.36175" lon="2.21759">
        <ele>539.8</ele>
        <time>2019-08-04T08:06:28.000Z</time>
      </trkpt>
      <trkpt lat="43.36174" lon="2.21759">
        <ele>539.7</ele>
        <time>2019-08-04T08:06:29.000Z</time>
      </trkpt>
      <trkpt lat="43.36173" lon="2.21759">
        <ele>539.6</ele>
        <time>2019-08-04T08:06:30.000Z</time>
      </trkpt>
      <trkpt lat="43.36171" lon="2.21759">
        <ele>539.5</ele>
        <time>2019-08-04T08:06:31.000Z</time>
      </trkpt>
      <trkpt lat="43.3617" lon="2.21758">
        <ele>539.3</ele>
        <time>2019-08-04T08:06:32.000Z</time>
      </trkpt>
      <trkpt lat="43.36169" lon="2.21758">
        <ele>539.2</ele>
        <time>2019-08-04T08:06:33.000Z</time>
      </trkpt>
      <trkpt lat="43.36167" lon="2.21758">
        <ele>539</ele>
        <time>2019-08-04T08:06:34.000Z</time>
      </trkpt>
      <trkpt lat="43.36165" lon="2.21757">
        <ele>538.8</ele>
        <time>2019-08-04T08:06:35.000Z</time>
      </trkpt>
      <trkpt lat="43.36162" lon="2.21756">
        <ele>538.6</ele>
        <time>2019-08-04T08:06:36.000Z</time>
      </trkpt>
      <trkpt lat="43.3616" lon="2.21756">
        <ele>538.4</ele>
        <time>2019-08-04T08:06:37.000Z</time>
      </trkpt>
      <trkpt lat="43.36158" lon="2.21755">
        <ele>538.1</ele>
        <time>2019-08-04T08:06:38.000Z</time>
      </trkpt>
      <trkpt lat="43.36155" lon="2.21755">
        <ele>537.9</ele>
        <time>2019-08-04T08:06:39.000Z</time>
      </trkpt>
      <trkpt lat="43.36153" lon="2.21755">
        <ele>537.7</ele>
        <time>2019-08-04T08:06:40.000Z</time>
      </trkpt>
      <trkpt lat="43.3615" lon="2.21756">
        <ele>537.4</ele>
        <time>2019-08-04T08:06:41.000Z</time>
      </trkpt>
      <trkpt lat="43.36148" lon="2.21757">
        <ele>537.2</ele>
        <time>2019-08-04T08:06:42.000Z</time>
      </trkpt>
      <trkpt lat="43.36146" lon="2.21759">
        <ele>537.1</ele>
        <time>2019-08-04T08:06:43.000Z</time>
      </trkpt>
      <trkpt lat="43.36144" lon="2.21762">
        <ele>536.9</ele>
        <time>2019-08-04T08:06:44.000Z</time>
      </trkpt>
      <trkpt lat="43.36143" lon="2.21765">
        <ele>536.8</ele>
        <time>2019-08-04T08:06:45.000Z</time>
      </trkpt>
      <trkpt lat="43.36141" lon="2.21768">
        <ele>536.7</ele>
        <time>2019-08-04T08:06:46.000Z</time>
      </trkpt>
      <trkpt lat="43.3614" lon="2.21771">
        <ele>536.6</ele>
        <time>2019-08-04T08:06:47.000Z</time>
      </trkpt>
      <trkpt lat="43.36138" lon="2.21775">
        <ele>536.5</ele>
        <time>2019-08-04T08:06:48.000Z</time>
      </trkpt>
      <trkpt lat="43.36137" lon="2.21779">
        <ele>536.4</ele>
        <time>2019-08-04T08:06:49.000Z</time>
      </trkpt>
      <trkpt lat="43.36136" lon="2.21782">
        <ele>536.3</ele>
        <time>2019-08-04T08:06:50.000Z</time>
      </trkpt>
      <trkpt lat="43.36135" lon="2.21786">
        <ele>536.3</ele>
        <time>2019-08-04T08:06:51.000Z</time>
      </trkpt>
      <trkpt lat="43.36133" lon="2.2179">
        <ele>536.2</ele>
        <time>2019-08-04T08:06:52.000Z</time>
      </trkpt>
      <trkpt lat="43.36132" lon="2.21794">
        <ele>536.1</ele>
        <time>2019-08-04T08:06:53.000Z</time>
      </trkpt>
      <trkpt lat="43.36131" lon="2.21797">
        <ele>536.1</ele>
        <time>2019-08-04T08:06:54.000Z</time>
      </trkpt>
      <trkpt lat="43.3613" lon="2.21801">
        <ele>536</ele>
        <time>2019-08-04T08:06:55.000Z</time>
      </trkpt>
      <trkpt lat="43.36129" lon="2.21805">
        <ele>536</ele>
        <time>2019-08-04T08:06:56.000Z</time>
      </trkpt>
      <trkpt lat="43.36128" lon="2.21808">
        <ele>535.9</ele>
        <time>2019-08-04T08:06:57.000Z</time>
      </trkpt>
      <trkpt lat="43.36127" lon="2.21812">
        <ele>535.9</ele>
        <time>2019-08-04T08:06:58.000Z</time>
      </trkpt>
      <trkpt lat="43.36126" lon="2.21816">
        <ele>535.9</ele>
        <time>2019-08-04T08:06:59.000Z</time>
      </trkpt>
      <trkpt lat="43.36125" lon="2.2182">
        <ele>535.8</ele>
        <time>2019-08-04T08:07:00.000Z</time>
      </trkpt>
      <trkpt lat="43.36124" lon="2.21823">
        <ele>535.8</ele>
        <time>2019-08-04T08:07:01.000Z</time>
      </trkpt>
      <trkpt lat="43.36123" lon="2.21827">
        <ele>535.8</ele>
        <time>2019-08-04T08:07:02.000Z</time>
      </trkpt>
      <trkpt lat="43.36122" lon="2.2183">
        <ele>535.7</ele>
        <time>2019-08-04T08:07:03.000Z</time>
      </trkpt>
      <trkpt lat="43.36121" lon="2.21834">
        <ele>535.7</ele>
        <time>2019-08-04T08:07:04.000Z</time>
      </trkpt>
      <trkpt lat="43.3612" lon="2.21837">
        <ele>535.7</ele>
        <time>2019-08-04T08:07:05.000Z</time>
      </trkpt>
      <trkpt lat="43.36119" lon="2.21841">
        <ele>535.7</ele>
        <time>2019-08-04T08:07:06.000Z</time>
      </trkpt>
      <trkpt lat="43.36118" lon="2.21844">
        <ele>535.7</ele>
        <time>2019-08-04T08:07:07.000Z</time>
      </trkpt>
      <trkpt lat="43.36117" lon="2.21847">
        <ele>535.7</ele>
        <time>2019-08-04T08:07:08.000Z</time>
      </trkpt>
      <trkpt lat="43.36116" lon="2.21851">
        <ele>535.7</ele>
        <time>2019-08-04T08:07:09.000Z</time>
      </trkpt>
      <trkpt lat="43.36114" lon="2.21854">
        <ele>535.7</ele>
        <time>2019-08-04T08:07:10.000Z</time>
      </trkpt>
      <trkpt lat="43.36113" lon="2.21857">
        <ele>535.7</ele>
        <time>2019-08-04T08:07:11.000Z</time>
      </trkpt>
      <trkpt lat="43.36112" lon="2.21861">
        <ele>535.7</ele>
        <time>2019-08-04T08:07:12.000Z</time>
      </trkpt>
      <trkpt lat="43.36111" lon="2.21864">
        <ele>535.7</ele>
        <time>2019-08-04T08:07:13.000Z</time>
      </trkpt>
      <trkpt lat="43.3611" lon="2.21867">
        <ele>535.7</ele>
        <time>2019-08-04T08:07:14.000Z</time>
      </trkpt>
      <trkpt lat="43.36109" lon="2.2187">
        <ele>535.7</ele>
        <time>2019-08-04T08:07:15.000Z</time>
      </trkpt>
      <trkpt lat="43.36107" lon="2.21873">
        <ele>535.7</ele>
        <time>2019-08-04T08:07:16.000Z</time>
      </trkpt>
      <trkpt lat="43.36106" lon="2.21877">
        <ele>535.7</ele>
        <time>2019-08-04T08:07:17.000Z</time>
      </trkpt>
      <trkpt lat="43.36105" lon="2.2188">
        <ele>535.7</ele>
        <time>2019-08-04T08:07:18.000Z</time>
      </trkpt>
      <trkpt lat="43.36104" lon="2.21883">
        <ele>535.6</ele>
        <time>2019-08-04T08:07:19.000Z</time>
      </trkpt>
      <trkpt lat="43.36102" lon="2.21886">
        <ele>535.6</ele>
        <time>2019-08-04T08:07:20.000Z</time>
      </trkpt>
      <trkpt lat="43.36101" lon="2.21889">
        <ele>535.6</ele>
        <time>2019-08-04T08:07:21.000Z</time>
      </trkpt>
      <trkpt lat="43.361" lon="2.21892">
        <ele>535.6</ele>
        <time>2019-08-04T08:07:22.000Z</time>
      </trkpt>
      <trkpt lat="43.36098" lon="2.21894">
        <ele>535.5</ele>
        <time>2019-08-04T08:07:23.000Z</time>
      </trkpt>
      <trkpt lat="43.36097" lon="2.21896">
        <ele>535.4</ele>
        <time>2019-08-04T08:07:24.000Z</time>
      </trkpt>
      <trkpt lat="43.36095" lon="2.21897">
        <ele>535.4</ele>
        <time>2019-08-04T08:07:25.000Z</time>
      </trkpt>
      <trkpt lat="43.36093" lon="2.21898">
        <ele>535.2</ele>
        <time>2019-08-04T08:07:26.000Z</time>
      </trkpt>
      <trkpt lat="43.36091" lon="2.21898">
        <ele>535.1</ele>
        <time>2019-08-04T08:07:27.000Z</time>
      </trkpt>
      <trkpt lat="43.36089" lon="2.21897">
        <ele>535</ele>
        <time>2019-08-04T08:07:28.000Z</time>
      </trkpt>
      <trkpt lat="43.36087" lon="2.21896">
        <ele>534.8</ele>
        <time>2019-08-04T08:07:29.000Z</time>
      </trkpt>
      <trkpt lat="43.36085" lon="2.21895">
        <ele>534.6</ele>
        <time>2019-08-04T08:07:30.000Z</time>
      </trkpt>
      <trkpt lat="43.36082" lon="2.21893">
        <ele>534.4</ele>
        <time>2019-08-04T08:07:31.000Z</time>
      </trkpt>
      <trkpt lat="43.3608" lon="2.21892">
        <ele>534.2</ele>
        <time>2019-08-04T08:07:32.000Z</time>
      </trkpt>
      <trkpt lat="43.36078" lon="2.2189">
        <ele>533.9</ele>
        <time>2019-08-04T08:07:33.000Z</time>
      </trkpt>
      <trkpt lat="43.36075" lon="2.21888">
        <ele>533.7</ele>
        <time>2019-08-04T08:07:34.000Z</time>
      </trkpt>
      <trkpt lat="43.36072" lon="2.21886">
        <ele>533.5</ele>
        <time>2019-08-04T08:07:35.000Z</time>
      </trkpt>
      <trkpt lat="43.3607" lon="2.21884">
        <ele>533.2</ele>
        <time>2019-08-04T08:07:36.000Z</time>
      </trkpt>
      <trkpt lat="43.36067" lon="2.21882">
        <ele>533</ele>
        <time>2019-08-04T08:07:37.000Z</time>
      </trkpt>
      <trkpt lat="43.36065" lon="2.2188">
        <ele>532.8</ele>
        <time>2019-08-04T08:07:38.000Z</time>
      </trkpt>
      <trkpt lat="43.36062" lon="2.21878">
        <ele>532.6</ele>
        <time>2019-08-04T08:07:39.000Z</time>
      </trkpt>
      <trkpt lat="43.3606" lon="2.21877">
        <ele>532.3</ele>
        <time>2019-08-04T08:07:40.000Z</time>
      </trkpt>
      <trkpt lat="43.36057" lon="2.21876">
        <ele>532.2</ele>
        <time>2019-08-04T08:07:41.000Z</time>
      </trkpt>
      <trkpt lat="43.36055" lon="2.21875">
        <ele>532</ele>
        <time>2019-08-04T08:07:42.000Z</time>
      </trkpt>
      <trkpt lat="43.36053" lon="2.21874">
        <ele>531.8</ele>
        <time>2019-08-04T08:07:43.000Z</time>
      </trkpt>
      <trkpt lat="43.36051" lon="2.21874">
        <ele>531.7</ele>
        <time>2019-08-04T08:07:44.000Z</time>
      </trkpt>
      <trkpt lat="43.3605" lon="2.21874">
        <ele>531.6</ele>
        <time>2019-08-04T08:07:45.000Z</time>
      </trkpt>
      <trkpt lat="43.36048" lon="2.21875">
        <ele>531.5</ele>
        <time>2019-08-04T08:07:46.000Z</time>
      </trkpt>
      <trkpt lat="43.36047" lon="2.21876">
        <ele>531.4</ele>
        <time>2019-08-04T08:07:47.000Z</time>
      </trkpt>
    </trkseg>
  </trk>
</gpx>